<?xml version="1.0" encoding="UTF-8" standalone="no" ?>
<gpx xmlns="http://www.topografix.com/GPX/1/1" xmlns:xsi="http://www.w3.org/2001/XMLSchema-instance" xsi:schemaLocation="http://www.topografix.com/GPX/1/1 http://www.topografix.com/GPX/1/1/gpx.xsd" version="1.1" creator="VisuGPX - https://www.visugpx.com">
  <metadata>
    <name>La rando des 3 chateaux - Parcours 42 km</name>
    <desc><![CDATA[edition du 16 avril 2023]]></desc>
  </metadata>
  <trk>
    <name><![CDATA[SityTrail - La rando des 3 chateaux - Parcours 42 km]]></name>
    <desc><![CDATA[edition du 16 avril 2023]]></desc>
    <trkseg>
      <trkpt lat="48.40203" lon="2.69711">
        <ele>73</ele>
        <time>2023-04-16T05:05:55.421Z</time>
      </trkpt>
      <trkpt lat="48.40203" lon="2.69711">
        <ele>73</ele>
        <time>2023-04-16T05:05:55.421Z</time>
      </trkpt>
      <trkpt lat="48.40204" lon="2.69715">
        <ele>73</ele>
        <time>2023-04-16T05:06:38.546Z</time>
      </trkpt>
      <trkpt lat="48.40206" lon="2.69725">
        <ele>73</ele>
        <time>2023-04-16T05:06:42.652Z</time>
      </trkpt>
      <trkpt lat="48.40206" lon="2.69735">
        <ele>73</ele>
        <time>2023-04-16T05:06:47.780Z</time>
      </trkpt>
      <trkpt lat="48.40204" lon="2.69746">
        <ele>73</ele>
        <time>2023-04-16T05:06:51.389Z</time>
      </trkpt>
      <trkpt lat="48.40205" lon="2.69755">
        <ele>73</ele>
        <time>2023-04-16T05:06:55.907Z</time>
      </trkpt>
      <trkpt lat="48.40205" lon="2.69765">
        <ele>74</ele>
        <time>2023-04-16T05:07:00.438Z</time>
      </trkpt>
      <trkpt lat="48.40206" lon="2.69769">
        <ele>74</ele>
        <time>2023-04-16T05:07:04.963Z</time>
      </trkpt>
      <trkpt lat="48.40205" lon="2.69777">
        <ele>74</ele>
        <time>2023-04-16T05:07:08.978Z</time>
      </trkpt>
      <trkpt lat="48.40206" lon="2.69789">
        <ele>74</ele>
        <time>2023-04-16T05:07:13.692Z</time>
      </trkpt>
      <trkpt lat="48.40206" lon="2.69799">
        <ele>75</ele>
        <time>2023-04-16T05:07:17.702Z</time>
      </trkpt>
      <trkpt lat="48.40206" lon="2.69806">
        <ele>75</ele>
        <time>2023-04-16T05:07:22.213Z</time>
      </trkpt>
      <trkpt lat="48.40207" lon="2.69816">
        <ele>75</ele>
        <time>2023-04-16T05:07:26.725Z</time>
      </trkpt>
      <trkpt lat="48.40206" lon="2.69823">
        <ele>75</ele>
        <time>2023-04-16T05:07:31.235Z</time>
      </trkpt>
      <trkpt lat="48.40206" lon="2.69831">
        <ele>75</ele>
        <time>2023-04-16T05:07:35.816Z</time>
      </trkpt>
      <trkpt lat="48.40206" lon="2.69839">
        <ele>75</ele>
        <time>2023-04-16T05:07:39.964Z</time>
      </trkpt>
      <trkpt lat="48.40207" lon="2.69849">
        <ele>75</ele>
        <time>2023-04-16T05:07:44.056Z</time>
      </trkpt>
      <trkpt lat="48.40208" lon="2.69858">
        <ele>75</ele>
        <time>2023-04-16T05:07:48.562Z</time>
      </trkpt>
      <trkpt lat="48.40208" lon="2.69866">
        <ele>75</ele>
        <time>2023-04-16T05:07:52.717Z</time>
      </trkpt>
      <trkpt lat="48.40206" lon="2.69876">
        <ele>76</ele>
        <time>2023-04-16T05:07:56.766Z</time>
      </trkpt>
      <trkpt lat="48.40204" lon="2.69884">
        <ele>76</ele>
        <time>2023-04-16T05:08:00.769Z</time>
      </trkpt>
      <trkpt lat="48.40203" lon="2.69893">
        <ele>76</ele>
        <time>2023-04-16T05:08:05.778Z</time>
      </trkpt>
      <trkpt lat="48.402" lon="2.69899">
        <ele>76</ele>
        <time>2023-04-16T05:08:09.982Z</time>
      </trkpt>
      <trkpt lat="48.40196" lon="2.69906">
        <ele>77</ele>
        <time>2023-04-16T05:08:13.987Z</time>
      </trkpt>
      <trkpt lat="48.40191" lon="2.69912">
        <ele>77</ele>
        <time>2023-04-16T05:08:18.593Z</time>
      </trkpt>
      <trkpt lat="48.40188" lon="2.69918">
        <ele>77</ele>
        <time>2023-04-16T05:08:22.599Z</time>
      </trkpt>
      <trkpt lat="48.40186" lon="2.69924">
        <ele>77</ele>
        <time>2023-04-16T05:08:27.105Z</time>
      </trkpt>
      <trkpt lat="48.40184" lon="2.6993">
        <ele>77</ele>
        <time>2023-04-16T05:08:31.111Z</time>
      </trkpt>
      <trkpt lat="48.40184" lon="2.69933">
        <ele>77</ele>
        <time>2023-04-16T05:08:35.714Z</time>
      </trkpt>
      <trkpt lat="48.40184" lon="2.69938">
        <ele>77</ele>
        <time>2023-04-16T05:08:40.218Z</time>
      </trkpt>
      <trkpt lat="48.40184" lon="2.69947">
        <ele>77</ele>
        <time>2023-04-16T05:08:44.721Z</time>
      </trkpt>
      <trkpt lat="48.40183" lon="2.69959">
        <ele>78</ele>
        <time>2023-04-16T05:08:48.724Z</time>
      </trkpt>
      <trkpt lat="48.40182" lon="2.69963">
        <ele>78</ele>
        <time>2023-04-16T05:08:53.229Z</time>
      </trkpt>
      <trkpt lat="48.40181" lon="2.69969">
        <ele>78</ele>
        <time>2023-04-16T05:08:57.233Z</time>
      </trkpt>
      <trkpt lat="48.4018" lon="2.6998">
        <ele>75</ele>
        <time>2023-04-16T05:09:01.738Z</time>
      </trkpt>
      <trkpt lat="48.40179" lon="2.69989">
        <ele>75</ele>
        <time>2023-04-16T05:09:05.743Z</time>
      </trkpt>
      <trkpt lat="48.40177" lon="2.7">
        <ele>75</ele>
        <time>2023-04-16T05:09:10.448Z</time>
      </trkpt>
      <trkpt lat="48.40176" lon="2.70009">
        <ele>75</ele>
        <time>2023-04-16T05:09:14.461Z</time>
      </trkpt>
      <trkpt lat="48.40178" lon="2.70018">
        <ele>75</ele>
        <time>2023-04-16T05:09:18.480Z</time>
      </trkpt>
      <trkpt lat="48.40177" lon="2.70027">
        <ele>75</ele>
        <time>2023-04-16T05:09:23.001Z</time>
      </trkpt>
      <trkpt lat="48.40174" lon="2.70036">
        <ele>75</ele>
        <time>2023-04-16T05:09:27.023Z</time>
      </trkpt>
      <trkpt lat="48.40172" lon="2.7004">
        <ele>75</ele>
        <time>2023-04-16T05:09:31.038Z</time>
      </trkpt>
      <trkpt lat="48.40172" lon="2.70046">
        <ele>75</ele>
        <time>2023-04-16T05:09:35.552Z</time>
      </trkpt>
      <trkpt lat="48.4017" lon="2.70064">
        <ele>75</ele>
        <time>2023-04-16T05:09:39.565Z</time>
      </trkpt>
      <trkpt lat="48.40167" lon="2.70077">
        <ele>76</ele>
        <time>2023-04-16T05:09:43.574Z</time>
      </trkpt>
      <trkpt lat="48.40159" lon="2.70083">
        <ele>76</ele>
        <time>2023-04-16T05:09:48.088Z</time>
      </trkpt>
      <trkpt lat="48.40152" lon="2.70083">
        <ele>73</ele>
        <time>2023-04-16T05:09:52.700Z</time>
      </trkpt>
      <trkpt lat="48.40146" lon="2.7008">
        <ele>73</ele>
        <time>2023-04-16T05:09:56.717Z</time>
      </trkpt>
      <trkpt lat="48.40142" lon="2.70077">
        <ele>73</ele>
        <time>2023-04-16T05:10:01.240Z</time>
      </trkpt>
      <trkpt lat="48.40138" lon="2.70078">
        <ele>73</ele>
        <time>2023-04-16T05:10:05.758Z</time>
      </trkpt>
      <trkpt lat="48.40128" lon="2.70074">
        <ele>73</ele>
        <time>2023-04-16T05:10:23.880Z</time>
      </trkpt>
      <trkpt lat="48.40121" lon="2.70079">
        <ele>72</ele>
        <time>2023-04-16T05:10:28.909Z</time>
      </trkpt>
      <trkpt lat="48.40116" lon="2.70076">
        <ele>72</ele>
        <time>2023-04-16T05:10:32.931Z</time>
      </trkpt>
      <trkpt lat="48.40114" lon="2.70079">
        <ele>72</ele>
        <time>2023-04-16T05:10:37.964Z</time>
      </trkpt>
      <trkpt lat="48.40111" lon="2.7008">
        <ele>72</ele>
        <time>2023-04-16T05:10:41.986Z</time>
      </trkpt>
      <trkpt lat="48.40105" lon="2.70084">
        <ele>72</ele>
        <time>2023-04-16T05:10:46.008Z</time>
      </trkpt>
      <trkpt lat="48.40097" lon="2.70087">
        <ele>72</ele>
        <time>2023-04-16T05:10:51.034Z</time>
      </trkpt>
      <trkpt lat="48.40093" lon="2.7009">
        <ele>72</ele>
        <time>2023-04-16T05:10:55.049Z</time>
      </trkpt>
      <trkpt lat="48.40086" lon="2.70092">
        <ele>72</ele>
        <time>2023-04-16T05:10:59.560Z</time>
      </trkpt>
      <trkpt lat="48.4008" lon="2.70094">
        <ele>72</ele>
        <time>2023-04-16T05:11:03.568Z</time>
      </trkpt>
      <trkpt lat="48.40071" lon="2.70092">
        <ele>72</ele>
        <time>2023-04-16T05:11:08.078Z</time>
      </trkpt>
      <trkpt lat="48.40066" lon="2.70093">
        <ele>73</ele>
        <time>2023-04-16T05:11:12.086Z</time>
      </trkpt>
      <trkpt lat="48.4006" lon="2.70097">
        <ele>73</ele>
        <time>2023-04-16T05:11:16.595Z</time>
      </trkpt>
      <trkpt lat="48.40054" lon="2.70098">
        <ele>73</ele>
        <time>2023-04-16T05:11:21.103Z</time>
      </trkpt>
      <trkpt lat="48.40048" lon="2.70101">
        <ele>73</ele>
        <time>2023-04-16T05:11:25.610Z</time>
      </trkpt>
      <trkpt lat="48.40043" lon="2.70102">
        <ele>73</ele>
        <time>2023-04-16T05:11:29.618Z</time>
      </trkpt>
      <trkpt lat="48.40036" lon="2.70107">
        <ele>72</ele>
        <time>2023-04-16T05:11:33.625Z</time>
      </trkpt>
      <trkpt lat="48.40032" lon="2.70112">
        <ele>72</ele>
        <time>2023-04-16T05:11:38.133Z</time>
      </trkpt>
      <trkpt lat="48.40027" lon="2.70112">
        <ele>72</ele>
        <time>2023-04-16T05:11:42.137Z</time>
      </trkpt>
      <trkpt lat="48.4002" lon="2.70113">
        <ele>72</ele>
        <time>2023-04-16T05:11:46.641Z</time>
      </trkpt>
      <trkpt lat="48.40015" lon="2.70114">
        <ele>72</ele>
        <time>2023-04-16T05:11:50.645Z</time>
      </trkpt>
      <trkpt lat="48.4001" lon="2.70114">
        <ele>70</ele>
        <time>2023-04-16T05:11:54.651Z</time>
      </trkpt>
      <trkpt lat="48.40005" lon="2.70115">
        <ele>70</ele>
        <time>2023-04-16T05:11:58.654Z</time>
      </trkpt>
      <trkpt lat="48.39996" lon="2.70119">
        <ele>70</ele>
        <time>2023-04-16T05:12:03.659Z</time>
      </trkpt>
      <trkpt lat="48.39988" lon="2.70121">
        <ele>70</ele>
        <time>2023-04-16T05:12:07.662Z</time>
      </trkpt>
      <trkpt lat="48.39981" lon="2.70124">
        <ele>71</ele>
        <time>2023-04-16T05:12:11.684Z</time>
      </trkpt>
      <trkpt lat="48.39976" lon="2.70126">
        <ele>71</ele>
        <time>2023-04-16T05:12:15.725Z</time>
      </trkpt>
      <trkpt lat="48.39969" lon="2.70129">
        <ele>71</ele>
        <time>2023-04-16T05:12:20.847Z</time>
      </trkpt>
      <trkpt lat="48.39963" lon="2.70131">
        <ele>71</ele>
        <time>2023-04-16T05:12:25.138Z</time>
      </trkpt>
      <trkpt lat="48.39958" lon="2.70131">
        <ele>73</ele>
        <time>2023-04-16T05:12:29.327Z</time>
      </trkpt>
      <trkpt lat="48.3995" lon="2.70132">
        <ele>73</ele>
        <time>2023-04-16T05:12:33.949Z</time>
      </trkpt>
      <trkpt lat="48.39945" lon="2.70136">
        <ele>73</ele>
        <time>2023-04-16T05:12:38.210Z</time>
      </trkpt>
      <trkpt lat="48.39941" lon="2.7014">
        <ele>73</ele>
        <time>2023-04-16T05:12:42.849Z</time>
      </trkpt>
      <trkpt lat="48.39936" lon="2.70143">
        <ele>73</ele>
        <time>2023-04-16T05:12:46.907Z</time>
      </trkpt>
      <trkpt lat="48.39932" lon="2.7015">
        <ele>73</ele>
        <time>2023-04-16T05:12:50.745Z</time>
      </trkpt>
      <trkpt lat="48.39926" lon="2.70158">
        <ele>76</ele>
        <time>2023-04-16T05:12:55.243Z</time>
      </trkpt>
      <trkpt lat="48.3992" lon="2.70164">
        <ele>76</ele>
        <time>2023-04-16T05:12:59.837Z</time>
      </trkpt>
      <trkpt lat="48.39916" lon="2.70164">
        <ele>76</ele>
        <time>2023-04-16T05:13:03.860Z</time>
      </trkpt>
      <trkpt lat="48.39911" lon="2.70163">
        <ele>76</ele>
        <time>2023-04-16T05:13:08.452Z</time>
      </trkpt>
      <trkpt lat="48.39905" lon="2.70165">
        <ele>76</ele>
        <time>2023-04-16T05:13:12.839Z</time>
      </trkpt>
      <trkpt lat="48.39902" lon="2.70169">
        <ele>78</ele>
        <time>2023-04-16T05:13:17.359Z</time>
      </trkpt>
      <trkpt lat="48.39896" lon="2.70175">
        <ele>78</ele>
        <time>2023-04-16T05:13:21.414Z</time>
      </trkpt>
      <trkpt lat="48.39891" lon="2.70182">
        <ele>78</ele>
        <time>2023-04-16T05:13:25.652Z</time>
      </trkpt>
      <trkpt lat="48.39886" lon="2.70185">
        <ele>78</ele>
        <time>2023-04-16T05:13:29.992Z</time>
      </trkpt>
      <trkpt lat="48.39881" lon="2.70185">
        <ele>78</ele>
        <time>2023-04-16T05:13:34.372Z</time>
      </trkpt>
      <trkpt lat="48.39877" lon="2.70188">
        <ele>78</ele>
        <time>2023-04-16T05:13:38.452Z</time>
      </trkpt>
      <trkpt lat="48.39874" lon="2.70193">
        <ele>80</ele>
        <time>2023-04-16T05:13:42.769Z</time>
      </trkpt>
      <trkpt lat="48.39873" lon="2.70201">
        <ele>80</ele>
        <time>2023-04-16T05:13:47.650Z</time>
      </trkpt>
      <trkpt lat="48.39868" lon="2.70208">
        <ele>80</ele>
        <time>2023-04-16T05:13:52.288Z</time>
      </trkpt>
      <trkpt lat="48.39865" lon="2.70215">
        <ele>79</ele>
        <time>2023-04-16T05:13:56.845Z</time>
      </trkpt>
      <trkpt lat="48.39861" lon="2.70221">
        <ele>79</ele>
        <time>2023-04-16T05:14:00.921Z</time>
      </trkpt>
      <trkpt lat="48.39857" lon="2.70227">
        <ele>79</ele>
        <time>2023-04-16T05:14:05.207Z</time>
      </trkpt>
      <trkpt lat="48.39853" lon="2.70234">
        <ele>79</ele>
        <time>2023-04-16T05:14:09.632Z</time>
      </trkpt>
      <trkpt lat="48.39851" lon="2.70243">
        <ele>78</ele>
        <time>2023-04-16T05:14:14.149Z</time>
      </trkpt>
      <trkpt lat="48.3985" lon="2.70255">
        <ele>78</ele>
        <time>2023-04-16T05:14:18.706Z</time>
      </trkpt>
      <trkpt lat="48.39849" lon="2.70267">
        <ele>76</ele>
        <time>2023-04-16T05:14:23.584Z</time>
      </trkpt>
      <trkpt lat="48.39847" lon="2.70279">
        <ele>76</ele>
        <time>2023-04-16T05:14:28.101Z</time>
      </trkpt>
      <trkpt lat="48.39847" lon="2.70289">
        <ele>77</ele>
        <time>2023-04-16T05:14:32.659Z</time>
      </trkpt>
      <trkpt lat="48.39848" lon="2.7029">
        <ele>76</ele>
        <time>2023-04-16T05:14:36.838Z</time>
      </trkpt>
      <trkpt lat="48.39848" lon="2.70296">
        <ele>75</ele>
        <time>2023-04-16T05:14:40.976Z</time>
      </trkpt>
      <trkpt lat="48.39845" lon="2.70304">
        <ele>75</ele>
        <time>2023-04-16T05:14:45.452Z</time>
      </trkpt>
      <trkpt lat="48.39842" lon="2.70311">
        <ele>75</ele>
        <time>2023-04-16T05:14:49.794Z</time>
      </trkpt>
      <trkpt lat="48.39842" lon="2.70317">
        <ele>75</ele>
        <time>2023-04-16T05:14:54.372Z</time>
      </trkpt>
      <trkpt lat="48.39841" lon="2.70324">
        <ele>75</ele>
        <time>2023-04-16T05:14:58.831Z</time>
      </trkpt>
      <trkpt lat="48.39841" lon="2.70331">
        <ele>75</ele>
        <time>2023-04-16T05:15:02.829Z</time>
      </trkpt>
      <trkpt lat="48.39841" lon="2.7034">
        <ele>75</ele>
        <time>2023-04-16T05:15:07.225Z</time>
      </trkpt>
      <trkpt lat="48.39841" lon="2.70351">
        <ele>77</ele>
        <time>2023-04-16T05:15:11.679Z</time>
      </trkpt>
      <trkpt lat="48.39842" lon="2.7036">
        <ele>77</ele>
        <time>2023-04-16T05:15:15.263Z</time>
      </trkpt>
      <trkpt lat="48.39845" lon="2.70368">
        <ele>77</ele>
        <time>2023-04-16T05:15:19.300Z</time>
      </trkpt>
      <trkpt lat="48.39849" lon="2.70378">
        <ele>79</ele>
        <time>2023-04-16T05:15:24.216Z</time>
      </trkpt>
      <trkpt lat="48.39851" lon="2.70387">
        <ele>79</ele>
        <time>2023-04-16T05:15:28.772Z</time>
      </trkpt>
      <trkpt lat="48.39853" lon="2.70393">
        <ele>79</ele>
        <time>2023-04-16T05:15:32.691Z</time>
      </trkpt>
      <trkpt lat="48.39853" lon="2.70394">
        <ele>79</ele>
        <time>2023-04-16T05:15:33.752Z</time>
      </trkpt>
      <trkpt lat="48.39857" lon="2.70421">
        <ele>78</ele>
        <time>2023-04-16T05:15:42.428Z</time>
      </trkpt>
      <trkpt lat="48.3986" lon="2.70432">
        <ele>78</ele>
        <time>2023-04-16T05:15:46.440Z</time>
      </trkpt>
      <trkpt lat="48.39862" lon="2.70439">
        <ele>78</ele>
        <time>2023-04-16T05:15:50.955Z</time>
      </trkpt>
      <trkpt lat="48.39864" lon="2.70445">
        <ele>78</ele>
        <time>2023-04-16T05:15:55.469Z</time>
      </trkpt>
      <trkpt lat="48.39866" lon="2.70454">
        <ele>78</ele>
        <time>2023-04-16T05:15:59.480Z</time>
      </trkpt>
      <trkpt lat="48.39867" lon="2.70465">
        <ele>77</ele>
        <time>2023-04-16T05:16:03.996Z</time>
      </trkpt>
      <trkpt lat="48.39871" lon="2.70473">
        <ele>77</ele>
        <time>2023-04-16T05:16:08.014Z</time>
      </trkpt>
      <trkpt lat="48.39873" lon="2.70485">
        <ele>77</ele>
        <time>2023-04-16T05:16:12.026Z</time>
      </trkpt>
      <trkpt lat="48.39877" lon="2.70495">
        <ele>76</ele>
        <time>2023-04-16T05:16:16.532Z</time>
      </trkpt>
      <trkpt lat="48.39879" lon="2.70501">
        <ele>76</ele>
        <time>2023-04-16T05:16:20.535Z</time>
      </trkpt>
      <trkpt lat="48.39882" lon="2.70508">
        <ele>76</ele>
        <time>2023-04-16T05:16:24.540Z</time>
      </trkpt>
      <trkpt lat="48.39885" lon="2.70518">
        <ele>79</ele>
        <time>2023-04-16T05:16:29.045Z</time>
      </trkpt>
      <trkpt lat="48.39888" lon="2.70525">
        <ele>79</ele>
        <time>2023-04-16T05:16:33.049Z</time>
      </trkpt>
      <trkpt lat="48.39891" lon="2.70533">
        <ele>79</ele>
        <time>2023-04-16T05:16:37.552Z</time>
      </trkpt>
      <trkpt lat="48.39894" lon="2.7054">
        <ele>79</ele>
        <time>2023-04-16T05:16:41.555Z</time>
      </trkpt>
      <trkpt lat="48.39896" lon="2.70544">
        <ele>83</ele>
        <time>2023-04-16T05:16:46.058Z</time>
      </trkpt>
      <trkpt lat="48.399" lon="2.70555">
        <ele>83</ele>
        <time>2023-04-16T05:16:50.570Z</time>
      </trkpt>
      <trkpt lat="48.39899" lon="2.70568">
        <ele>83</ele>
        <time>2023-04-16T05:16:55.086Z</time>
      </trkpt>
      <trkpt lat="48.39898" lon="2.70581">
        <ele>87</ele>
        <time>2023-04-16T05:16:59.095Z</time>
      </trkpt>
      <trkpt lat="48.39897" lon="2.70587">
        <ele>87</ele>
        <time>2023-04-16T05:17:03.599Z</time>
      </trkpt>
      <trkpt lat="48.39902" lon="2.70596">
        <ele>87</ele>
        <time>2023-04-16T05:17:07.606Z</time>
      </trkpt>
      <trkpt lat="48.39918" lon="2.70602">
        <ele>88</ele>
        <time>2023-04-16T05:17:12.113Z</time>
      </trkpt>
      <trkpt lat="48.39923" lon="2.70603">
        <ele>88</ele>
        <time>2023-04-16T05:17:16.117Z</time>
      </trkpt>
      <trkpt lat="48.39929" lon="2.70602">
        <ele>88</ele>
        <time>2023-04-16T05:17:20.121Z</time>
      </trkpt>
      <trkpt lat="48.39935" lon="2.70604">
        <ele>87</ele>
        <time>2023-04-16T05:17:24.625Z</time>
      </trkpt>
      <trkpt lat="48.39942" lon="2.70605">
        <ele>87</ele>
        <time>2023-04-16T05:17:29.148Z</time>
      </trkpt>
      <trkpt lat="48.39948" lon="2.70605">
        <ele>87</ele>
        <time>2023-04-16T05:17:33.190Z</time>
      </trkpt>
      <trkpt lat="48.39953" lon="2.70602">
        <ele>87</ele>
        <time>2023-04-16T05:17:37.351Z</time>
      </trkpt>
      <trkpt lat="48.39959" lon="2.70602">
        <ele>81</ele>
        <time>2023-04-16T05:17:41.413Z</time>
      </trkpt>
      <trkpt lat="48.39965" lon="2.70605">
        <ele>81</ele>
        <time>2023-04-16T05:17:46.034Z</time>
      </trkpt>
      <trkpt lat="48.39969" lon="2.70606">
        <ele>81</ele>
        <time>2023-04-16T05:17:50.096Z</time>
      </trkpt>
      <trkpt lat="48.39974" lon="2.70608">
        <ele>81</ele>
        <time>2023-04-16T05:17:54.621Z</time>
      </trkpt>
      <trkpt lat="48.39979" lon="2.70611">
        <ele>81</ele>
        <time>2023-04-16T05:17:58.780Z</time>
      </trkpt>
      <trkpt lat="48.39983" lon="2.70616">
        <ele>81</ele>
        <time>2023-04-16T05:18:02.941Z</time>
      </trkpt>
      <trkpt lat="48.39988" lon="2.7062">
        <ele>79</ele>
        <time>2023-04-16T05:18:07.234Z</time>
      </trkpt>
      <trkpt lat="48.39992" lon="2.70629">
        <ele>78</ele>
        <time>2023-04-16T05:18:11.422Z</time>
      </trkpt>
      <trkpt lat="48.39994" lon="2.70635">
        <ele>78</ele>
        <time>2023-04-16T05:18:15.783Z</time>
      </trkpt>
      <trkpt lat="48.39997" lon="2.70643">
        <ele>78</ele>
        <time>2023-04-16T05:18:19.603Z</time>
      </trkpt>
      <trkpt lat="48.4" lon="2.70651">
        <ele>78</ele>
        <time>2023-04-16T05:18:23.924Z</time>
      </trkpt>
      <trkpt lat="48.40002" lon="2.70659">
        <ele>78</ele>
        <time>2023-04-16T05:18:28.344Z</time>
      </trkpt>
      <trkpt lat="48.40005" lon="2.70665">
        <ele>78</ele>
        <time>2023-04-16T05:18:32.504Z</time>
      </trkpt>
      <trkpt lat="48.40006" lon="2.70671">
        <ele>78</ele>
        <time>2023-04-16T05:18:36.898Z</time>
      </trkpt>
      <trkpt lat="48.40009" lon="2.70676">
        <ele>78</ele>
        <time>2023-04-16T05:18:40.644Z</time>
      </trkpt>
      <trkpt lat="48.40013" lon="2.70686">
        <ele>78</ele>
        <time>2023-04-16T05:18:45.284Z</time>
      </trkpt>
      <trkpt lat="48.40016" lon="2.70696">
        <ele>73</ele>
        <time>2023-04-16T05:18:50.794Z</time>
      </trkpt>
      <trkpt lat="48.40017" lon="2.70701">
        <ele>73</ele>
        <time>2023-04-16T05:18:55.241Z</time>
      </trkpt>
      <trkpt lat="48.4002" lon="2.70707">
        <ele>73</ele>
        <time>2023-04-16T05:18:59.199Z</time>
      </trkpt>
      <trkpt lat="48.40023" lon="2.70714">
        <ele>73</ele>
        <time>2023-04-16T05:19:03.877Z</time>
      </trkpt>
      <trkpt lat="48.40027" lon="2.7072">
        <ele>73</ele>
        <time>2023-04-16T05:19:08.359Z</time>
      </trkpt>
      <trkpt lat="48.40031" lon="2.70725">
        <ele>73</ele>
        <time>2023-04-16T05:19:12.756Z</time>
      </trkpt>
      <trkpt lat="48.40034" lon="2.7073">
        <ele>73</ele>
        <time>2023-04-16T05:19:16.573Z</time>
      </trkpt>
      <trkpt lat="48.4004" lon="2.70732">
        <ele>73</ele>
        <time>2023-04-16T05:19:20.452Z</time>
      </trkpt>
      <trkpt lat="48.40045" lon="2.7073">
        <ele>70</ele>
        <time>2023-04-16T05:19:25.254Z</time>
      </trkpt>
      <trkpt lat="48.40049" lon="2.70726">
        <ele>70</ele>
        <time>2023-04-16T05:19:29.355Z</time>
      </trkpt>
      <trkpt lat="48.40051" lon="2.70722">
        <ele>70</ele>
        <time>2023-04-16T05:19:33.377Z</time>
      </trkpt>
      <trkpt lat="48.40053" lon="2.70719">
        <ele>70</ele>
        <time>2023-04-16T05:19:37.797Z</time>
      </trkpt>
      <trkpt lat="48.40052" lon="2.70713">
        <ele>70</ele>
        <time>2023-04-16T05:19:41.557Z</time>
      </trkpt>
      <trkpt lat="48.40057" lon="2.70708">
        <ele>69</ele>
        <time>2023-04-16T05:19:46.122Z</time>
      </trkpt>
      <trkpt lat="48.40062" lon="2.70706">
        <ele>69</ele>
        <time>2023-04-16T05:19:50.147Z</time>
      </trkpt>
      <trkpt lat="48.40069" lon="2.70704">
        <ele>69</ele>
        <time>2023-04-16T05:19:54.595Z</time>
      </trkpt>
      <trkpt lat="48.40073" lon="2.707">
        <ele>71</ele>
        <time>2023-04-16T05:19:58.513Z</time>
      </trkpt>
      <trkpt lat="48.40079" lon="2.70695">
        <ele>71</ele>
        <time>2023-04-16T05:20:03.053Z</time>
      </trkpt>
      <trkpt lat="48.40084" lon="2.70691">
        <ele>71</ele>
        <time>2023-04-16T05:20:07.594Z</time>
      </trkpt>
      <trkpt lat="48.40089" lon="2.70688">
        <ele>71</ele>
        <time>2023-04-16T05:20:11.591Z</time>
      </trkpt>
      <trkpt lat="48.40092" lon="2.70684">
        <ele>71</ele>
        <time>2023-04-16T05:20:15.811Z</time>
      </trkpt>
      <trkpt lat="48.40097" lon="2.70681">
        <ele>68</ele>
        <time>2023-04-16T05:20:20.032Z</time>
      </trkpt>
      <trkpt lat="48.40102" lon="2.70677">
        <ele>68</ele>
        <time>2023-04-16T05:20:24.253Z</time>
      </trkpt>
      <trkpt lat="48.40109" lon="2.70672">
        <ele>68</ele>
        <time>2023-04-16T05:20:28.732Z</time>
      </trkpt>
      <trkpt lat="48.40115" lon="2.70668">
        <ele>68</ele>
        <time>2023-04-16T05:20:32.532Z</time>
      </trkpt>
      <trkpt lat="48.40122" lon="2.70664">
        <ele>68</ele>
        <time>2023-04-16T05:20:36.970Z</time>
      </trkpt>
      <trkpt lat="48.4013" lon="2.70659">
        <ele>67</ele>
        <time>2023-04-16T05:20:41.222Z</time>
      </trkpt>
      <trkpt lat="48.40138" lon="2.70653">
        <ele>67</ele>
        <time>2023-04-16T05:20:45.611Z</time>
      </trkpt>
      <trkpt lat="48.40143" lon="2.70653">
        <ele>65</ele>
        <time>2023-04-16T05:20:49.990Z</time>
      </trkpt>
      <trkpt lat="48.40149" lon="2.7065">
        <ele>65</ele>
        <time>2023-04-16T05:20:55.049Z</time>
      </trkpt>
      <trkpt lat="48.40157" lon="2.70642">
        <ele>65</ele>
        <time>2023-04-16T05:21:00.122Z</time>
      </trkpt>
      <trkpt lat="48.40163" lon="2.70636">
        <ele>65</ele>
        <time>2023-04-16T05:21:04.127Z</time>
      </trkpt>
      <trkpt lat="48.40169" lon="2.70631">
        <ele>65</ele>
        <time>2023-04-16T05:21:08.427Z</time>
      </trkpt>
      <trkpt lat="48.40175" lon="2.70628">
        <ele>65</ele>
        <time>2023-04-16T05:21:12.648Z</time>
      </trkpt>
      <trkpt lat="48.40178" lon="2.70627">
        <ele>65</ele>
        <time>2023-04-16T05:21:14.709Z</time>
      </trkpt>
      <trkpt lat="48.40193" lon="2.70618">
        <ele>65</ele>
        <time>2023-04-16T05:21:23.745Z</time>
      </trkpt>
      <trkpt lat="48.402" lon="2.70618">
        <ele>65</ele>
        <time>2023-04-16T05:21:28.865Z</time>
      </trkpt>
      <trkpt lat="48.40205" lon="2.70614">
        <ele>65</ele>
        <time>2023-04-16T05:21:32.972Z</time>
      </trkpt>
      <trkpt lat="48.40211" lon="2.70607">
        <ele>66</ele>
        <time>2023-04-16T05:21:37.989Z</time>
      </trkpt>
      <trkpt lat="48.40213" lon="2.70604">
        <ele>66</ele>
        <time>2023-04-16T05:21:42.007Z</time>
      </trkpt>
      <trkpt lat="48.40221" lon="2.706">
        <ele>66</ele>
        <time>2023-04-16T05:21:47.026Z</time>
      </trkpt>
      <trkpt lat="48.40229" lon="2.70592">
        <ele>66</ele>
        <time>2023-04-16T05:21:51.540Z</time>
      </trkpt>
      <trkpt lat="48.40235" lon="2.70588">
        <ele>66</ele>
        <time>2023-04-16T05:21:56.053Z</time>
      </trkpt>
      <trkpt lat="48.4024" lon="2.70583">
        <ele>67</ele>
        <time>2023-04-16T05:22:00.575Z</time>
      </trkpt>
      <trkpt lat="48.40245" lon="2.70579">
        <ele>67</ele>
        <time>2023-04-16T05:22:05.189Z</time>
      </trkpt>
      <trkpt lat="48.4025" lon="2.70576">
        <ele>67</ele>
        <time>2023-04-16T05:22:09.695Z</time>
      </trkpt>
      <trkpt lat="48.40255" lon="2.7057">
        <ele>67</ele>
        <time>2023-04-16T05:22:14.201Z</time>
      </trkpt>
      <trkpt lat="48.4026" lon="2.70564">
        <ele>68</ele>
        <time>2023-04-16T05:22:18.707Z</time>
      </trkpt>
      <trkpt lat="48.40263" lon="2.7056">
        <ele>68</ele>
        <time>2023-04-16T05:22:22.712Z</time>
      </trkpt>
      <trkpt lat="48.40268" lon="2.70554">
        <ele>69</ele>
        <time>2023-04-16T05:22:26.716Z</time>
      </trkpt>
      <trkpt lat="48.40274" lon="2.70548">
        <ele>69</ele>
        <time>2023-04-16T05:22:30.757Z</time>
      </trkpt>
      <trkpt lat="48.4028" lon="2.70543">
        <ele>69</ele>
        <time>2023-04-16T05:22:35.759Z</time>
      </trkpt>
      <trkpt lat="48.40287" lon="2.70539">
        <ele>70</ele>
        <time>2023-04-16T05:22:39.763Z</time>
      </trkpt>
      <trkpt lat="48.40292" lon="2.70533">
        <ele>72</ele>
        <time>2023-04-16T05:22:43.765Z</time>
      </trkpt>
      <trkpt lat="48.40298" lon="2.70528">
        <ele>72</ele>
        <time>2023-04-16T05:22:48.506Z</time>
      </trkpt>
      <trkpt lat="48.40304" lon="2.70524">
        <ele>72</ele>
        <time>2023-04-16T05:22:53.166Z</time>
      </trkpt>
      <trkpt lat="48.40309" lon="2.7052">
        <ele>72</ele>
        <time>2023-04-16T05:22:57.585Z</time>
      </trkpt>
      <trkpt lat="48.40315" lon="2.70511">
        <ele>73</ele>
        <time>2023-04-16T05:23:02.725Z</time>
      </trkpt>
      <trkpt lat="48.4032" lon="2.70505">
        <ele>74</ele>
        <time>2023-04-16T05:23:07.735Z</time>
      </trkpt>
      <trkpt lat="48.40325" lon="2.70501">
        <ele>74</ele>
        <time>2023-04-16T05:23:11.644Z</time>
      </trkpt>
      <trkpt lat="48.40329" lon="2.70493">
        <ele>74</ele>
        <time>2023-04-16T05:23:15.848Z</time>
      </trkpt>
      <trkpt lat="48.40335" lon="2.70493">
        <ele>74</ele>
        <time>2023-04-16T05:23:20.859Z</time>
      </trkpt>
      <trkpt lat="48.40339" lon="2.70493">
        <ele>74</ele>
        <time>2023-04-16T05:23:24.863Z</time>
      </trkpt>
      <trkpt lat="48.40342" lon="2.705">
        <ele>74</ele>
        <time>2023-04-16T05:23:28.865Z</time>
      </trkpt>
      <trkpt lat="48.40343" lon="2.70509">
        <ele>74</ele>
        <time>2023-04-16T05:23:33.626Z</time>
      </trkpt>
      <trkpt lat="48.40343" lon="2.70514">
        <ele>73</ele>
        <time>2023-04-16T05:23:38.121Z</time>
      </trkpt>
      <trkpt lat="48.40346" lon="2.70523">
        <ele>73</ele>
        <time>2023-04-16T05:23:41.805Z</time>
      </trkpt>
      <trkpt lat="48.40348" lon="2.70533">
        <ele>73</ele>
        <time>2023-04-16T05:23:46.339Z</time>
      </trkpt>
      <trkpt lat="48.4035" lon="2.70541">
        <ele>73</ele>
        <time>2023-04-16T05:23:50.845Z</time>
      </trkpt>
      <trkpt lat="48.40353" lon="2.70549">
        <ele>73</ele>
        <time>2023-04-16T05:23:54.784Z</time>
      </trkpt>
      <trkpt lat="48.40355" lon="2.7056">
        <ele>73</ele>
        <time>2023-04-16T05:24:00.061Z</time>
      </trkpt>
      <trkpt lat="48.40359" lon="2.70571">
        <ele>72</ele>
        <time>2023-04-16T05:24:04.737Z</time>
      </trkpt>
      <trkpt lat="48.40361" lon="2.7058">
        <ele>72</ele>
        <time>2023-04-16T05:24:09.293Z</time>
      </trkpt>
      <trkpt lat="48.40364" lon="2.70588">
        <ele>72</ele>
        <time>2023-04-16T05:24:13.849Z</time>
      </trkpt>
      <trkpt lat="48.40368" lon="2.70603">
        <ele>72</ele>
        <time>2023-04-16T05:24:18.285Z</time>
      </trkpt>
      <trkpt lat="48.4037" lon="2.70612">
        <ele>72</ele>
        <time>2023-04-16T05:24:22.783Z</time>
      </trkpt>
      <trkpt lat="48.40374" lon="2.70619">
        <ele>72</ele>
        <time>2023-04-16T05:24:27.452Z</time>
      </trkpt>
      <trkpt lat="48.40378" lon="2.70628">
        <ele>70</ele>
        <time>2023-04-16T05:24:31.894Z</time>
      </trkpt>
      <trkpt lat="48.40381" lon="2.70634">
        <ele>70</ele>
        <time>2023-04-16T05:24:36.450Z</time>
      </trkpt>
      <trkpt lat="48.40384" lon="2.70643">
        <ele>70</ele>
        <time>2023-04-16T05:24:40.979Z</time>
      </trkpt>
      <trkpt lat="48.40387" lon="2.70652">
        <ele>70</ele>
        <time>2023-04-16T05:24:44.959Z</time>
      </trkpt>
      <trkpt lat="48.4039" lon="2.70663">
        <ele>70</ele>
        <time>2023-04-16T05:24:48.995Z</time>
      </trkpt>
      <trkpt lat="48.40394" lon="2.70673">
        <ele>70</ele>
        <time>2023-04-16T05:24:53.452Z</time>
      </trkpt>
      <trkpt lat="48.40396" lon="2.70684">
        <ele>71</ele>
        <time>2023-04-16T05:24:57.624Z</time>
      </trkpt>
      <trkpt lat="48.404" lon="2.70694">
        <ele>71</ele>
        <time>2023-04-16T05:25:02.134Z</time>
      </trkpt>
      <trkpt lat="48.40403" lon="2.70703">
        <ele>68</ele>
        <time>2023-04-16T05:25:06.614Z</time>
      </trkpt>
      <trkpt lat="48.40406" lon="2.70712">
        <ele>68</ele>
        <time>2023-04-16T05:25:11.146Z</time>
      </trkpt>
      <trkpt lat="48.40409" lon="2.70721">
        <ele>68</ele>
        <time>2023-04-16T05:25:15.508Z</time>
      </trkpt>
      <trkpt lat="48.40412" lon="2.70729">
        <ele>68</ele>
        <time>2023-04-16T05:25:19.586Z</time>
      </trkpt>
      <trkpt lat="48.40415" lon="2.70738">
        <ele>68</ele>
        <time>2023-04-16T05:25:24.261Z</time>
      </trkpt>
      <trkpt lat="48.40416" lon="2.70745">
        <ele>68</ele>
        <time>2023-04-16T05:25:28.338Z</time>
      </trkpt>
      <trkpt lat="48.40417" lon="2.70753">
        <ele>68</ele>
        <time>2023-04-16T05:25:32.955Z</time>
      </trkpt>
      <trkpt lat="48.40421" lon="2.70763">
        <ele>68</ele>
        <time>2023-04-16T05:25:37.630Z</time>
      </trkpt>
      <trkpt lat="48.40425" lon="2.70775">
        <ele>69</ele>
        <time>2023-04-16T05:25:41.987Z</time>
      </trkpt>
      <trkpt lat="48.40429" lon="2.70785">
        <ele>69</ele>
        <time>2023-04-16T05:25:46.595Z</time>
      </trkpt>
      <trkpt lat="48.40432" lon="2.70794">
        <ele>67</ele>
        <time>2023-04-16T05:25:51.080Z</time>
      </trkpt>
      <trkpt lat="48.40433" lon="2.70799">
        <ele>67</ele>
        <time>2023-04-16T05:25:54.993Z</time>
      </trkpt>
      <trkpt lat="48.40435" lon="2.70803">
        <ele>67</ele>
        <time>2023-04-16T05:25:59.470Z</time>
      </trkpt>
      <trkpt lat="48.40437" lon="2.70807">
        <ele>67</ele>
        <time>2023-04-16T05:26:03.682Z</time>
      </trkpt>
      <trkpt lat="48.40439" lon="2.70813">
        <ele>67</ele>
        <time>2023-04-16T05:26:07.727Z</time>
      </trkpt>
      <trkpt lat="48.4044" lon="2.70817">
        <ele>67</ele>
        <time>2023-04-16T05:26:10.094Z</time>
      </trkpt>
      <trkpt lat="48.40449" lon="2.70836">
        <ele>69</ele>
        <time>2023-04-16T05:26:18.647Z</time>
      </trkpt>
      <trkpt lat="48.40453" lon="2.70844">
        <ele>69</ele>
        <time>2023-04-16T05:26:23.156Z</time>
      </trkpt>
      <trkpt lat="48.40456" lon="2.70851">
        <ele>69</ele>
        <time>2023-04-16T05:26:27.667Z</time>
      </trkpt>
      <trkpt lat="48.40457" lon="2.70861">
        <ele>69</ele>
        <time>2023-04-16T05:26:31.678Z</time>
      </trkpt>
      <trkpt lat="48.40462" lon="2.70869">
        <ele>68</ele>
        <time>2023-04-16T05:26:36.692Z</time>
      </trkpt>
      <trkpt lat="48.40466" lon="2.70876">
        <ele>66</ele>
        <time>2023-04-16T05:26:41.712Z</time>
      </trkpt>
      <trkpt lat="48.40471" lon="2.70896">
        <ele>66</ele>
        <time>2023-04-16T05:26:45.719Z</time>
      </trkpt>
      <trkpt lat="48.40478" lon="2.70906">
        <ele>65</ele>
        <time>2023-04-16T05:26:50.223Z</time>
      </trkpt>
      <trkpt lat="48.40482" lon="2.70914">
        <ele>65</ele>
        <time>2023-04-16T05:26:54.728Z</time>
      </trkpt>
      <trkpt lat="48.40483" lon="2.70923">
        <ele>65</ele>
        <time>2023-04-16T05:26:59.239Z</time>
      </trkpt>
      <trkpt lat="48.40483" lon="2.70933">
        <ele>63</ele>
        <time>2023-04-16T05:27:03.153Z</time>
      </trkpt>
      <trkpt lat="48.40484" lon="2.70942">
        <ele>63</ele>
        <time>2023-04-16T05:27:07.935Z</time>
      </trkpt>
      <trkpt lat="48.4049" lon="2.70952">
        <ele>67</ele>
        <time>2023-04-16T05:27:12.350Z</time>
      </trkpt>
      <trkpt lat="48.40493" lon="2.70962">
        <ele>66</ele>
        <time>2023-04-16T05:27:16.909Z</time>
      </trkpt>
      <trkpt lat="48.40498" lon="2.70974">
        <ele>66</ele>
        <time>2023-04-16T05:27:22.047Z</time>
      </trkpt>
      <trkpt lat="48.40502" lon="2.70981">
        <ele>66</ele>
        <time>2023-04-16T05:27:26.189Z</time>
      </trkpt>
      <trkpt lat="48.40506" lon="2.70988">
        <ele>65</ele>
        <time>2023-04-16T05:27:30.588Z</time>
      </trkpt>
      <trkpt lat="48.40511" lon="2.70996">
        <ele>65</ele>
        <time>2023-04-16T05:27:34.693Z</time>
      </trkpt>
      <trkpt lat="48.40515" lon="2.71011">
        <ele>70</ele>
        <time>2023-04-16T05:27:39.300Z</time>
      </trkpt>
      <trkpt lat="48.40519" lon="2.71019">
        <ele>70</ele>
        <time>2023-04-16T05:27:43.306Z</time>
      </trkpt>
      <trkpt lat="48.4052" lon="2.71028">
        <ele>70</ele>
        <time>2023-04-16T05:27:47.867Z</time>
      </trkpt>
      <trkpt lat="48.40521" lon="2.71035">
        <ele>70</ele>
        <time>2023-04-16T05:27:52.568Z</time>
      </trkpt>
      <trkpt lat="48.40522" lon="2.71043">
        <ele>68</ele>
        <time>2023-04-16T05:27:57.086Z</time>
      </trkpt>
      <trkpt lat="48.40523" lon="2.71052">
        <ele>68</ele>
        <time>2023-04-16T05:28:01.646Z</time>
      </trkpt>
      <trkpt lat="48.40528" lon="2.7106">
        <ele>68</ele>
        <time>2023-04-16T05:28:05.866Z</time>
      </trkpt>
      <trkpt lat="48.40531" lon="2.71069">
        <ele>68</ele>
        <time>2023-04-16T05:28:10.884Z</time>
      </trkpt>
      <trkpt lat="48.40534" lon="2.71079">
        <ele>66</ele>
        <time>2023-04-16T05:28:15.919Z</time>
      </trkpt>
      <trkpt lat="48.40535" lon="2.7109">
        <ele>66</ele>
        <time>2023-04-16T05:28:20.917Z</time>
      </trkpt>
      <trkpt lat="48.40538" lon="2.71098">
        <ele>64</ele>
        <time>2023-04-16T05:28:24.834Z</time>
      </trkpt>
      <trkpt lat="48.4054" lon="2.71106">
        <ele>64</ele>
        <time>2023-04-16T05:28:29.031Z</time>
      </trkpt>
      <trkpt lat="48.40542" lon="2.71112">
        <ele>66</ele>
        <time>2023-04-16T05:28:32.988Z</time>
      </trkpt>
      <trkpt lat="48.40544" lon="2.71122">
        <ele>66</ele>
        <time>2023-04-16T05:28:38.142Z</time>
      </trkpt>
      <trkpt lat="48.40546" lon="2.71131">
        <ele>65</ele>
        <time>2023-04-16T05:28:42.639Z</time>
      </trkpt>
      <trkpt lat="48.40552" lon="2.7114">
        <ele>65</ele>
        <time>2023-04-16T05:28:46.594Z</time>
      </trkpt>
      <trkpt lat="48.40555" lon="2.71149">
        <ele>65</ele>
        <time>2023-04-16T05:28:51.113Z</time>
      </trkpt>
      <trkpt lat="48.40557" lon="2.71157">
        <ele>65</ele>
        <time>2023-04-16T05:28:55.109Z</time>
      </trkpt>
      <trkpt lat="48.4056" lon="2.71166">
        <ele>65</ele>
        <time>2023-04-16T05:28:59.598Z</time>
      </trkpt>
      <trkpt lat="48.40564" lon="2.71174">
        <ele>65</ele>
        <time>2023-04-16T05:29:03.659Z</time>
      </trkpt>
      <trkpt lat="48.40567" lon="2.7118">
        <ele>65</ele>
        <time>2023-04-16T05:29:08.136Z</time>
      </trkpt>
      <trkpt lat="48.4057" lon="2.71192">
        <ele>67</ele>
        <time>2023-04-16T05:29:12.655Z</time>
      </trkpt>
      <trkpt lat="48.40575" lon="2.71202">
        <ele>67</ele>
        <time>2023-04-16T05:29:17.451Z</time>
      </trkpt>
      <trkpt lat="48.40578" lon="2.71213">
        <ele>66</ele>
        <time>2023-04-16T05:29:22.226Z</time>
      </trkpt>
      <trkpt lat="48.40579" lon="2.71222">
        <ele>66</ele>
        <time>2023-04-16T05:29:26.862Z</time>
      </trkpt>
      <trkpt lat="48.40581" lon="2.71231">
        <ele>66</ele>
        <time>2023-04-16T05:29:31.057Z</time>
      </trkpt>
      <trkpt lat="48.40584" lon="2.71239">
        <ele>66</ele>
        <time>2023-04-16T05:29:35.132Z</time>
      </trkpt>
      <trkpt lat="48.40588" lon="2.71247">
        <ele>66</ele>
        <time>2023-04-16T05:29:39.128Z</time>
      </trkpt>
      <trkpt lat="48.40591" lon="2.71255">
        <ele>66</ele>
        <time>2023-04-16T05:29:43.265Z</time>
      </trkpt>
      <trkpt lat="48.40595" lon="2.71265">
        <ele>63</ele>
        <time>2023-04-16T05:29:47.880Z</time>
      </trkpt>
      <trkpt lat="48.40598" lon="2.71275">
        <ele>65</ele>
        <time>2023-04-16T05:29:53.033Z</time>
      </trkpt>
      <trkpt lat="48.40601" lon="2.71283">
        <ele>65</ele>
        <time>2023-04-16T05:29:57.588Z</time>
      </trkpt>
      <trkpt lat="48.40605" lon="2.71292">
        <ele>64</ele>
        <time>2023-04-16T05:30:02.813Z</time>
      </trkpt>
      <trkpt lat="48.40609" lon="2.71303">
        <ele>64</ele>
        <time>2023-04-16T05:30:06.676Z</time>
      </trkpt>
      <trkpt lat="48.40613" lon="2.71314">
        <ele>64</ele>
        <time>2023-04-16T05:30:11.094Z</time>
      </trkpt>
      <trkpt lat="48.40617" lon="2.71323">
        <ele>63</ele>
        <time>2023-04-16T05:30:15.271Z</time>
      </trkpt>
      <trkpt lat="48.4062" lon="2.71333">
        <ele>63</ele>
        <time>2023-04-16T05:30:20.001Z</time>
      </trkpt>
      <trkpt lat="48.40623" lon="2.7134">
        <ele>63</ele>
        <time>2023-04-16T05:30:23.776Z</time>
      </trkpt>
      <trkpt lat="48.40624" lon="2.7135">
        <ele>62</ele>
        <time>2023-04-16T05:30:28.450Z</time>
      </trkpt>
      <trkpt lat="48.40627" lon="2.7136">
        <ele>66</ele>
        <time>2023-04-16T05:30:33.123Z</time>
      </trkpt>
      <trkpt lat="48.4063" lon="2.7137">
        <ele>66</ele>
        <time>2023-04-16T05:30:37.638Z</time>
      </trkpt>
      <trkpt lat="48.40634" lon="2.7138">
        <ele>64</ele>
        <time>2023-04-16T05:30:42.915Z</time>
      </trkpt>
      <trkpt lat="48.40636" lon="2.71387">
        <ele>64</ele>
        <time>2023-04-16T05:30:47.227Z</time>
      </trkpt>
      <trkpt lat="48.40638" lon="2.71396">
        <ele>64</ele>
        <time>2023-04-16T05:30:51.283Z</time>
      </trkpt>
      <trkpt lat="48.40641" lon="2.71403">
        <ele>62</ele>
        <time>2023-04-16T05:30:55.821Z</time>
      </trkpt>
      <trkpt lat="48.40644" lon="2.7141">
        <ele>62</ele>
        <time>2023-04-16T05:31:00.299Z</time>
      </trkpt>
      <trkpt lat="48.40648" lon="2.71419">
        <ele>62</ele>
        <time>2023-04-16T05:31:04.733Z</time>
      </trkpt>
      <trkpt lat="48.40651" lon="2.7143">
        <ele>62</ele>
        <time>2023-04-16T05:31:09.290Z</time>
      </trkpt>
      <trkpt lat="48.40654" lon="2.71439">
        <ele>66</ele>
        <time>2023-04-16T05:31:13.689Z</time>
      </trkpt>
      <trkpt lat="48.40656" lon="2.71446">
        <ele>66</ele>
        <time>2023-04-16T05:31:17.730Z</time>
      </trkpt>
      <trkpt lat="48.40661" lon="2.71451">
        <ele>66</ele>
        <time>2023-04-16T05:31:22.248Z</time>
      </trkpt>
      <trkpt lat="48.40665" lon="2.71459">
        <ele>65</ele>
        <time>2023-04-16T05:31:26.185Z</time>
      </trkpt>
      <trkpt lat="48.40669" lon="2.71471">
        <ele>65</ele>
        <time>2023-04-16T05:31:30.261Z</time>
      </trkpt>
      <trkpt lat="48.40673" lon="2.7148">
        <ele>65</ele>
        <time>2023-04-16T05:31:34.957Z</time>
      </trkpt>
      <trkpt lat="48.40676" lon="2.7149">
        <ele>64</ele>
        <time>2023-04-16T05:31:39.360Z</time>
      </trkpt>
      <trkpt lat="48.40679" lon="2.715">
        <ele>64</ele>
        <time>2023-04-16T05:31:43.845Z</time>
      </trkpt>
      <trkpt lat="48.40681" lon="2.71507">
        <ele>65</ele>
        <time>2023-04-16T05:31:48.294Z</time>
      </trkpt>
      <trkpt lat="48.40683" lon="2.71515">
        <ele>64</ele>
        <time>2023-04-16T05:31:52.861Z</time>
      </trkpt>
      <trkpt lat="48.40685" lon="2.71519">
        <ele>64</ele>
        <time>2023-04-16T05:31:56.923Z</time>
      </trkpt>
      <trkpt lat="48.40687" lon="2.71523">
        <ele>64</ele>
        <time>2023-04-16T05:32:00.819Z</time>
      </trkpt>
      <trkpt lat="48.40687" lon="2.71529">
        <ele>64</ele>
        <time>2023-04-16T05:32:05.373Z</time>
      </trkpt>
      <trkpt lat="48.40688" lon="2.71534">
        <ele>64</ele>
        <time>2023-04-16T05:32:09.927Z</time>
      </trkpt>
      <trkpt lat="48.40691" lon="2.71539">
        <ele>64</ele>
        <time>2023-04-16T05:32:14.358Z</time>
      </trkpt>
      <trkpt lat="48.40693" lon="2.71543">
        <ele>62</ele>
        <time>2023-04-16T05:32:19.030Z</time>
      </trkpt>
      <trkpt lat="48.40695" lon="2.71547">
        <ele>62</ele>
        <time>2023-04-16T05:32:22.982Z</time>
      </trkpt>
      <trkpt lat="48.40699" lon="2.71554">
        <ele>62</ele>
        <time>2023-04-16T05:32:27.919Z</time>
      </trkpt>
      <trkpt lat="48.40702" lon="2.71561">
        <ele>62</ele>
        <time>2023-04-16T05:32:31.728Z</time>
      </trkpt>
      <trkpt lat="48.40704" lon="2.71568">
        <ele>62</ele>
        <time>2023-04-16T05:32:36.281Z</time>
      </trkpt>
      <trkpt lat="48.40708" lon="2.71578">
        <ele>59</ele>
        <time>2023-04-16T05:32:40.955Z</time>
      </trkpt>
      <trkpt lat="48.40713" lon="2.71588">
        <ele>62</ele>
        <time>2023-04-16T05:32:45.449Z</time>
      </trkpt>
      <trkpt lat="48.40719" lon="2.71605">
        <ele>60</ele>
        <time>2023-04-16T05:32:49.963Z</time>
      </trkpt>
      <trkpt lat="48.40726" lon="2.71618">
        <ele>60</ele>
        <time>2023-04-16T05:32:54.578Z</time>
      </trkpt>
      <trkpt lat="48.40731" lon="2.7163">
        <ele>59</ele>
        <time>2023-04-16T05:32:59.128Z</time>
      </trkpt>
      <trkpt lat="48.40737" lon="2.71639">
        <ele>62</ele>
        <time>2023-04-16T05:33:03.088Z</time>
      </trkpt>
      <trkpt lat="48.40743" lon="2.71646">
        <ele>62</ele>
        <time>2023-04-16T05:33:07.642Z</time>
      </trkpt>
      <trkpt lat="48.40745" lon="2.71656">
        <ele>61</ele>
        <time>2023-04-16T05:33:11.717Z</time>
      </trkpt>
      <trkpt lat="48.40748" lon="2.71663">
        <ele>61</ele>
        <time>2023-04-16T05:33:16.214Z</time>
      </trkpt>
      <trkpt lat="48.40751" lon="2.71671">
        <ele>61</ele>
        <time>2023-04-16T05:33:20.748Z</time>
      </trkpt>
      <trkpt lat="48.40753" lon="2.71677">
        <ele>61</ele>
        <time>2023-04-16T05:33:25.301Z</time>
      </trkpt>
      <trkpt lat="48.40756" lon="2.71684">
        <ele>61</ele>
        <time>2023-04-16T05:33:29.852Z</time>
      </trkpt>
      <trkpt lat="48.40759" lon="2.71692">
        <ele>61</ele>
        <time>2023-04-16T05:33:34.452Z</time>
      </trkpt>
      <trkpt lat="48.40762" lon="2.717">
        <ele>61</ele>
        <time>2023-04-16T05:33:38.955Z</time>
      </trkpt>
      <trkpt lat="48.40764" lon="2.71707">
        <ele>61</ele>
        <time>2023-04-16T05:33:43.028Z</time>
      </trkpt>
      <trkpt lat="48.40767" lon="2.71717">
        <ele>61</ele>
        <time>2023-04-16T05:33:47.581Z</time>
      </trkpt>
      <trkpt lat="48.40768" lon="2.71725">
        <ele>61</ele>
        <time>2023-04-16T05:33:51.653Z</time>
      </trkpt>
      <trkpt lat="48.4077" lon="2.71732">
        <ele>61</ele>
        <time>2023-04-16T05:33:55.247Z</time>
      </trkpt>
      <trkpt lat="48.40774" lon="2.71741">
        <ele>61</ele>
        <time>2023-04-16T05:34:00.039Z</time>
      </trkpt>
      <trkpt lat="48.40777" lon="2.71747">
        <ele>61</ele>
        <time>2023-04-16T05:34:03.992Z</time>
      </trkpt>
      <trkpt lat="48.4078" lon="2.71755">
        <ele>61</ele>
        <time>2023-04-16T05:34:08.452Z</time>
      </trkpt>
      <trkpt lat="48.40783" lon="2.71764">
        <ele>61</ele>
        <time>2023-04-16T05:34:12.970Z</time>
      </trkpt>
      <trkpt lat="48.40787" lon="2.71773">
        <ele>60</ele>
        <time>2023-04-16T05:34:17.639Z</time>
      </trkpt>
      <trkpt lat="48.4079" lon="2.7178">
        <ele>60</ele>
        <time>2023-04-16T05:34:21.452Z</time>
      </trkpt>
      <trkpt lat="48.40792" lon="2.71786">
        <ele>62</ele>
        <time>2023-04-16T05:34:26.022Z</time>
      </trkpt>
      <trkpt lat="48.40795" lon="2.71793">
        <ele>62</ele>
        <time>2023-04-16T05:34:29.974Z</time>
      </trkpt>
      <trkpt lat="48.40798" lon="2.71802">
        <ele>62</ele>
        <time>2023-04-16T05:34:34.452Z</time>
      </trkpt>
      <trkpt lat="48.40799" lon="2.71809">
        <ele>62</ele>
        <time>2023-04-16T05:34:39.119Z</time>
      </trkpt>
      <trkpt lat="48.40802" lon="2.71816">
        <ele>62</ele>
        <time>2023-04-16T05:34:43.604Z</time>
      </trkpt>
      <trkpt lat="48.40805" lon="2.71822">
        <ele>62</ele>
        <time>2023-04-16T05:34:47.656Z</time>
      </trkpt>
      <trkpt lat="48.40811" lon="2.71829">
        <ele>62</ele>
        <time>2023-04-16T05:34:52.399Z</time>
      </trkpt>
      <trkpt lat="48.40817" lon="2.71836">
        <ele>62</ele>
        <time>2023-04-16T05:34:56.757Z</time>
      </trkpt>
      <trkpt lat="48.40823" lon="2.71845">
        <ele>65</ele>
        <time>2023-04-16T05:35:01.721Z</time>
      </trkpt>
      <trkpt lat="48.4083" lon="2.71861">
        <ele>64</ele>
        <time>2023-04-16T05:35:06.128Z</time>
      </trkpt>
      <trkpt lat="48.40835" lon="2.71875">
        <ele>63</ele>
        <time>2023-04-16T05:35:10.650Z</time>
      </trkpt>
      <trkpt lat="48.40839" lon="2.71887">
        <ele>63</ele>
        <time>2023-04-16T05:35:15.321Z</time>
      </trkpt>
      <trkpt lat="48.40841" lon="2.719">
        <ele>63</ele>
        <time>2023-04-16T05:35:19.876Z</time>
      </trkpt>
      <trkpt lat="48.40843" lon="2.71908">
        <ele>63</ele>
        <time>2023-04-16T05:35:23.919Z</time>
      </trkpt>
      <trkpt lat="48.40845" lon="2.71914">
        <ele>63</ele>
        <time>2023-04-16T05:35:27.878Z</time>
      </trkpt>
      <trkpt lat="48.40847" lon="2.71921">
        <ele>63</ele>
        <time>2023-04-16T05:35:31.831Z</time>
      </trkpt>
      <trkpt lat="48.4085" lon="2.71927">
        <ele>66</ele>
        <time>2023-04-16T05:35:36.452Z</time>
      </trkpt>
      <trkpt lat="48.40854" lon="2.71934">
        <ele>65</ele>
        <time>2023-04-16T05:35:41.055Z</time>
      </trkpt>
      <trkpt lat="48.40858" lon="2.71941">
        <ele>65</ele>
        <time>2023-04-16T05:35:45.128Z</time>
      </trkpt>
      <trkpt lat="48.40863" lon="2.71944">
        <ele>65</ele>
        <time>2023-04-16T05:35:49.160Z</time>
      </trkpt>
      <trkpt lat="48.40869" lon="2.71947">
        <ele>65</ele>
        <time>2023-04-16T05:35:53.635Z</time>
      </trkpt>
      <trkpt lat="48.40873" lon="2.7195">
        <ele>65</ele>
        <time>2023-04-16T05:35:57.588Z</time>
      </trkpt>
      <trkpt lat="48.40877" lon="2.71951">
        <ele>67</ele>
        <time>2023-04-16T05:36:02.140Z</time>
      </trkpt>
      <trkpt lat="48.4088" lon="2.7195">
        <ele>67</ele>
        <time>2023-04-16T05:36:06.692Z</time>
      </trkpt>
      <trkpt lat="48.40882" lon="2.71949">
        <ele>67</ele>
        <time>2023-04-16T05:36:11.179Z</time>
      </trkpt>
      <trkpt lat="48.40884" lon="2.71949">
        <ele>67</ele>
        <time>2023-04-16T05:36:15.196Z</time>
      </trkpt>
      <trkpt lat="48.40888" lon="2.7195">
        <ele>67</ele>
        <time>2023-04-16T05:36:19.693Z</time>
      </trkpt>
      <trkpt lat="48.40894" lon="2.71949">
        <ele>67</ele>
        <time>2023-04-16T05:36:23.452Z</time>
      </trkpt>
      <trkpt lat="48.409" lon="2.71945">
        <ele>67</ele>
        <time>2023-04-16T05:36:27.957Z</time>
      </trkpt>
      <trkpt lat="48.40906" lon="2.71943">
        <ele>66</ele>
        <time>2023-04-16T05:36:32.389Z</time>
      </trkpt>
      <trkpt lat="48.40911" lon="2.7194">
        <ele>66</ele>
        <time>2023-04-16T05:36:36.941Z</time>
      </trkpt>
      <trkpt lat="48.40914" lon="2.71937">
        <ele>66</ele>
        <time>2023-04-16T05:36:41.014Z</time>
      </trkpt>
      <trkpt lat="48.40917" lon="2.71933">
        <ele>66</ele>
        <time>2023-04-16T05:36:45.566Z</time>
      </trkpt>
      <trkpt lat="48.40921" lon="2.7193">
        <ele>67</ele>
        <time>2023-04-16T05:36:50.119Z</time>
      </trkpt>
      <trkpt lat="48.40925" lon="2.71928">
        <ele>67</ele>
        <time>2023-04-16T05:36:54.140Z</time>
      </trkpt>
      <trkpt lat="48.40931" lon="2.71925">
        <ele>66</ele>
        <time>2023-04-16T05:36:58.246Z</time>
      </trkpt>
      <trkpt lat="48.40937" lon="2.71919">
        <ele>66</ele>
        <time>2023-04-16T05:37:02.677Z</time>
      </trkpt>
      <trkpt lat="48.40941" lon="2.71916">
        <ele>66</ele>
        <time>2023-04-16T05:37:07.132Z</time>
      </trkpt>
      <trkpt lat="48.40944" lon="2.71913">
        <ele>66</ele>
        <time>2023-04-16T05:37:11.139Z</time>
      </trkpt>
      <trkpt lat="48.40946" lon="2.71908">
        <ele>66</ele>
        <time>2023-04-16T05:37:15.613Z</time>
      </trkpt>
      <trkpt lat="48.40948" lon="2.71902">
        <ele>67</ele>
        <time>2023-04-16T05:37:19.566Z</time>
      </trkpt>
      <trkpt lat="48.4095" lon="2.71897">
        <ele>67</ele>
        <time>2023-04-16T05:37:24.144Z</time>
      </trkpt>
      <trkpt lat="48.40953" lon="2.71892">
        <ele>67</ele>
        <time>2023-04-16T05:37:28.668Z</time>
      </trkpt>
      <trkpt lat="48.40957" lon="2.71888">
        <ele>67</ele>
        <time>2023-04-16T05:37:32.620Z</time>
      </trkpt>
      <trkpt lat="48.40962" lon="2.71883">
        <ele>68</ele>
        <time>2023-04-16T05:37:37.051Z</time>
      </trkpt>
      <trkpt lat="48.40967" lon="2.71879">
        <ele>68</ele>
        <time>2023-04-16T05:37:41.123Z</time>
      </trkpt>
      <trkpt lat="48.40973" lon="2.71875">
        <ele>70</ele>
        <time>2023-04-16T05:37:45.673Z</time>
      </trkpt>
      <trkpt lat="48.40979" lon="2.7187">
        <ele>70</ele>
        <time>2023-04-16T05:37:49.825Z</time>
      </trkpt>
      <trkpt lat="48.40986" lon="2.71865">
        <ele>70</ele>
        <time>2023-04-16T05:37:54.256Z</time>
      </trkpt>
      <trkpt lat="48.40992" lon="2.71862">
        <ele>71</ele>
        <time>2023-04-16T05:37:58.928Z</time>
      </trkpt>
      <trkpt lat="48.40997" lon="2.71858">
        <ele>71</ele>
        <time>2023-04-16T05:38:03.452Z</time>
      </trkpt>
      <trkpt lat="48.41002" lon="2.71853">
        <ele>71</ele>
        <time>2023-04-16T05:38:07.911Z</time>
      </trkpt>
      <trkpt lat="48.41007" lon="2.71849">
        <ele>71</ele>
        <time>2023-04-16T05:38:12.452Z</time>
      </trkpt>
      <trkpt lat="48.41012" lon="2.71846">
        <ele>72</ele>
        <time>2023-04-16T05:38:16.777Z</time>
      </trkpt>
      <trkpt lat="48.41017" lon="2.71842">
        <ele>73</ele>
        <time>2023-04-16T05:38:21.080Z</time>
      </trkpt>
      <trkpt lat="48.41024" lon="2.71838">
        <ele>73</ele>
        <time>2023-04-16T05:38:25.280Z</time>
      </trkpt>
      <trkpt lat="48.4103" lon="2.71833">
        <ele>73</ele>
        <time>2023-04-16T05:38:29.235Z</time>
      </trkpt>
      <trkpt lat="48.41037" lon="2.71828">
        <ele>73</ele>
        <time>2023-04-16T05:38:33.667Z</time>
      </trkpt>
      <trkpt lat="48.41042" lon="2.71824">
        <ele>73</ele>
        <time>2023-04-16T05:38:37.741Z</time>
      </trkpt>
      <trkpt lat="48.41047" lon="2.71819">
        <ele>76</ele>
        <time>2023-04-16T05:38:42.131Z</time>
      </trkpt>
      <trkpt lat="48.41053" lon="2.71816">
        <ele>76</ele>
        <time>2023-04-16T05:38:46.702Z</time>
      </trkpt>
      <trkpt lat="48.41059" lon="2.71813">
        <ele>76</ele>
        <time>2023-04-16T05:38:50.681Z</time>
      </trkpt>
      <trkpt lat="48.41064" lon="2.7181">
        <ele>76</ele>
        <time>2023-04-16T05:38:54.955Z</time>
      </trkpt>
      <trkpt lat="48.41072" lon="2.71805">
        <ele>76</ele>
        <time>2023-04-16T05:38:59.550Z</time>
      </trkpt>
      <trkpt lat="48.4108" lon="2.71802">
        <ele>76</ele>
        <time>2023-04-16T05:39:03.452Z</time>
      </trkpt>
      <trkpt lat="48.41087" lon="2.71799">
        <ele>76</ele>
        <time>2023-04-16T05:39:07.896Z</time>
      </trkpt>
      <trkpt lat="48.41093" lon="2.71795">
        <ele>76</ele>
        <time>2023-04-16T05:39:12.118Z</time>
      </trkpt>
      <trkpt lat="48.41097" lon="2.71792">
        <ele>76</ele>
        <time>2023-04-16T05:39:16.005Z</time>
      </trkpt>
      <trkpt lat="48.41102" lon="2.71787">
        <ele>76</ele>
        <time>2023-04-16T05:39:20.460Z</time>
      </trkpt>
      <trkpt lat="48.41107" lon="2.71783">
        <ele>76</ele>
        <time>2023-04-16T05:39:24.452Z</time>
      </trkpt>
      <trkpt lat="48.41114" lon="2.71777">
        <ele>76</ele>
        <time>2023-04-16T05:39:28.922Z</time>
      </trkpt>
      <trkpt lat="48.4112" lon="2.71774">
        <ele>76</ele>
        <time>2023-04-16T05:39:32.882Z</time>
      </trkpt>
      <trkpt lat="48.41126" lon="2.71769">
        <ele>76</ele>
        <time>2023-04-16T05:39:36.955Z</time>
      </trkpt>
      <trkpt lat="48.41133" lon="2.71764">
        <ele>77</ele>
        <time>2023-04-16T05:39:41.478Z</time>
      </trkpt>
      <trkpt lat="48.41139" lon="2.7176">
        <ele>77</ele>
        <time>2023-04-16T05:39:45.722Z</time>
      </trkpt>
      <trkpt lat="48.41144" lon="2.71756">
        <ele>77</ele>
        <time>2023-04-16T05:39:49.965Z</time>
      </trkpt>
      <trkpt lat="48.4115" lon="2.71752">
        <ele>77</ele>
        <time>2023-04-16T05:39:54.024Z</time>
      </trkpt>
      <trkpt lat="48.41156" lon="2.71748">
        <ele>80</ele>
        <time>2023-04-16T05:39:58.360Z</time>
      </trkpt>
      <trkpt lat="48.41162" lon="2.71745">
        <ele>80</ele>
        <time>2023-04-16T05:40:02.350Z</time>
      </trkpt>
      <trkpt lat="48.41169" lon="2.71741">
        <ele>80</ele>
        <time>2023-04-16T05:40:06.814Z</time>
      </trkpt>
      <trkpt lat="48.41178" lon="2.71735">
        <ele>79</ele>
        <time>2023-04-16T05:40:11.335Z</time>
      </trkpt>
      <trkpt lat="48.41184" lon="2.71733">
        <ele>82</ele>
        <time>2023-04-16T05:40:15.820Z</time>
      </trkpt>
      <trkpt lat="48.41188" lon="2.71736">
        <ele>82</ele>
        <time>2023-04-16T05:40:20.775Z</time>
      </trkpt>
      <trkpt lat="48.4119" lon="2.71743">
        <ele>82</ele>
        <time>2023-04-16T05:40:24.637Z</time>
      </trkpt>
      <trkpt lat="48.41196" lon="2.7175">
        <ele>82</ele>
        <time>2023-04-16T05:40:28.711Z</time>
      </trkpt>
      <trkpt lat="48.412" lon="2.71759">
        <ele>82</ele>
        <time>2023-04-16T05:40:33.146Z</time>
      </trkpt>
      <trkpt lat="48.41204" lon="2.71771">
        <ele>82</ele>
        <time>2023-04-16T05:40:37.202Z</time>
      </trkpt>
      <trkpt lat="48.4121" lon="2.71781">
        <ele>83</ele>
        <time>2023-04-16T05:40:41.860Z</time>
      </trkpt>
      <trkpt lat="48.41214" lon="2.71789">
        <ele>83</ele>
        <time>2023-04-16T05:40:45.696Z</time>
      </trkpt>
      <trkpt lat="48.41216" lon="2.71797">
        <ele>83</ele>
        <time>2023-04-16T05:40:49.713Z</time>
      </trkpt>
      <trkpt lat="48.41222" lon="2.71803">
        <ele>83</ele>
        <time>2023-04-16T05:40:54.267Z</time>
      </trkpt>
      <trkpt lat="48.41226" lon="2.7181">
        <ele>83</ele>
        <time>2023-04-16T05:40:58.842Z</time>
      </trkpt>
      <trkpt lat="48.41231" lon="2.71817">
        <ele>83</ele>
        <time>2023-04-16T05:41:02.895Z</time>
      </trkpt>
      <trkpt lat="48.41235" lon="2.71821">
        <ele>83</ele>
        <time>2023-04-16T05:41:06.848Z</time>
      </trkpt>
      <trkpt lat="48.41239" lon="2.71829">
        <ele>82</ele>
        <time>2023-04-16T05:41:10.923Z</time>
      </trkpt>
      <trkpt lat="48.41244" lon="2.71839">
        <ele>82</ele>
        <time>2023-04-16T05:41:15.237Z</time>
      </trkpt>
      <trkpt lat="48.41247" lon="2.71851">
        <ele>82</ele>
        <time>2023-04-16T05:41:19.955Z</time>
      </trkpt>
      <trkpt lat="48.41249" lon="2.71861">
        <ele>82</ele>
        <time>2023-04-16T05:41:23.714Z</time>
      </trkpt>
      <trkpt lat="48.41251" lon="2.71866">
        <ele>82</ele>
        <time>2023-04-16T05:41:28.131Z</time>
      </trkpt>
      <trkpt lat="48.41254" lon="2.71875">
        <ele>82</ele>
        <time>2023-04-16T05:41:32.245Z</time>
      </trkpt>
      <trkpt lat="48.41257" lon="2.71882">
        <ele>81</ele>
        <time>2023-04-16T05:41:36.439Z</time>
      </trkpt>
      <trkpt lat="48.41259" lon="2.71892">
        <ele>81</ele>
        <time>2023-04-16T05:41:40.873Z</time>
      </trkpt>
      <trkpt lat="48.41262" lon="2.71901">
        <ele>81</ele>
        <time>2023-04-16T05:41:44.648Z</time>
      </trkpt>
      <trkpt lat="48.41266" lon="2.7191">
        <ele>80</ele>
        <time>2023-04-16T05:41:49.178Z</time>
      </trkpt>
      <trkpt lat="48.4127" lon="2.71919">
        <ele>80</ele>
        <time>2023-04-16T05:41:53.637Z</time>
      </trkpt>
      <trkpt lat="48.41274" lon="2.71926">
        <ele>80</ele>
        <time>2023-04-16T05:41:58.139Z</time>
      </trkpt>
      <trkpt lat="48.41278" lon="2.71936">
        <ele>78</ele>
        <time>2023-04-16T05:42:02.721Z</time>
      </trkpt>
      <trkpt lat="48.41282" lon="2.71944">
        <ele>78</ele>
        <time>2023-04-16T05:42:07.337Z</time>
      </trkpt>
      <trkpt lat="48.41285" lon="2.71948">
        <ele>78</ele>
        <time>2023-04-16T05:42:11.892Z</time>
      </trkpt>
      <trkpt lat="48.41288" lon="2.71954">
        <ele>78</ele>
        <time>2023-04-16T05:42:15.725Z</time>
      </trkpt>
      <trkpt lat="48.41291" lon="2.71962">
        <ele>78</ele>
        <time>2023-04-16T05:42:20.277Z</time>
      </trkpt>
      <trkpt lat="48.41294" lon="2.71971">
        <ele>78</ele>
        <time>2023-04-16T05:42:24.705Z</time>
      </trkpt>
      <trkpt lat="48.41297" lon="2.71978">
        <ele>78</ele>
        <time>2023-04-16T05:42:28.639Z</time>
      </trkpt>
      <trkpt lat="48.413" lon="2.71989">
        <ele>78</ele>
        <time>2023-04-16T05:42:33.056Z</time>
      </trkpt>
      <trkpt lat="48.41302" lon="2.71997">
        <ele>78</ele>
        <time>2023-04-16T05:42:36.985Z</time>
      </trkpt>
      <trkpt lat="48.41305" lon="2.72005">
        <ele>78</ele>
        <time>2023-04-16T05:42:41.562Z</time>
      </trkpt>
      <trkpt lat="48.41309" lon="2.72011">
        <ele>78</ele>
        <time>2023-04-16T05:42:45.593Z</time>
      </trkpt>
      <trkpt lat="48.41308" lon="2.7202">
        <ele>78</ele>
        <time>2023-04-16T05:42:49.589Z</time>
      </trkpt>
      <trkpt lat="48.41311" lon="2.72028">
        <ele>78</ele>
        <time>2023-04-16T05:42:54.021Z</time>
      </trkpt>
      <trkpt lat="48.41313" lon="2.72033">
        <ele>78</ele>
        <time>2023-04-16T05:42:57.976Z</time>
      </trkpt>
      <trkpt lat="48.41317" lon="2.72043">
        <ele>77</ele>
        <time>2023-04-16T05:43:02.583Z</time>
      </trkpt>
      <trkpt lat="48.41317" lon="2.72054">
        <ele>77</ele>
        <time>2023-04-16T05:43:06.664Z</time>
      </trkpt>
      <trkpt lat="48.41318" lon="2.72064">
        <ele>77</ele>
        <time>2023-04-16T05:43:10.858Z</time>
      </trkpt>
      <trkpt lat="48.41319" lon="2.72072">
        <ele>76</ele>
        <time>2023-04-16T05:43:15.289Z</time>
      </trkpt>
      <trkpt lat="48.4132" lon="2.72081">
        <ele>76</ele>
        <time>2023-04-16T05:43:19.839Z</time>
      </trkpt>
      <trkpt lat="48.41322" lon="2.7209">
        <ele>76</ele>
        <time>2023-04-16T05:43:23.910Z</time>
      </trkpt>
      <trkpt lat="48.41324" lon="2.72102">
        <ele>76</ele>
        <time>2023-04-16T05:43:28.342Z</time>
      </trkpt>
      <trkpt lat="48.41324" lon="2.72115">
        <ele>76</ele>
        <time>2023-04-16T05:43:32.776Z</time>
      </trkpt>
      <trkpt lat="48.41323" lon="2.72125">
        <ele>76</ele>
        <time>2023-04-16T05:43:37.328Z</time>
      </trkpt>
      <trkpt lat="48.41322" lon="2.72132">
        <ele>77</ele>
        <time>2023-04-16T05:43:41.759Z</time>
      </trkpt>
      <trkpt lat="48.41322" lon="2.7214">
        <ele>77</ele>
        <time>2023-04-16T05:43:46.432Z</time>
      </trkpt>
      <trkpt lat="48.41322" lon="2.72151">
        <ele>77</ele>
        <time>2023-04-16T05:43:50.984Z</time>
      </trkpt>
      <trkpt lat="48.41322" lon="2.72161">
        <ele>77</ele>
        <time>2023-04-16T05:43:56.016Z</time>
      </trkpt>
      <trkpt lat="48.41321" lon="2.72176">
        <ele>77</ele>
        <time>2023-04-16T05:44:00.569Z</time>
      </trkpt>
      <trkpt lat="48.41321" lon="2.72186">
        <ele>76</ele>
        <time>2023-04-16T05:44:04.643Z</time>
      </trkpt>
      <trkpt lat="48.41321" lon="2.72197">
        <ele>76</ele>
        <time>2023-04-16T05:44:08.539Z</time>
      </trkpt>
      <trkpt lat="48.41321" lon="2.72206">
        <ele>76</ele>
        <time>2023-04-16T05:44:12.972Z</time>
      </trkpt>
      <trkpt lat="48.41323" lon="2.72218">
        <ele>75</ele>
        <time>2023-04-16T05:44:17.452Z</time>
      </trkpt>
      <trkpt lat="48.41326" lon="2.72229">
        <ele>75</ele>
        <time>2023-04-16T05:44:23.116Z</time>
      </trkpt>
      <trkpt lat="48.41329" lon="2.72238">
        <ele>75</ele>
        <time>2023-04-16T05:44:27.767Z</time>
      </trkpt>
      <trkpt lat="48.41331" lon="2.72245">
        <ele>75</ele>
        <time>2023-04-16T05:44:31.839Z</time>
      </trkpt>
      <trkpt lat="48.41331" lon="2.72252">
        <ele>75</ele>
        <time>2023-04-16T05:44:36.031Z</time>
      </trkpt>
      <trkpt lat="48.41328" lon="2.72262">
        <ele>75</ele>
        <time>2023-04-16T05:44:40.582Z</time>
      </trkpt>
      <trkpt lat="48.41324" lon="2.72269">
        <ele>74</ele>
        <time>2023-04-16T05:44:44.617Z</time>
      </trkpt>
      <trkpt lat="48.4132" lon="2.72277">
        <ele>74</ele>
        <time>2023-04-16T05:44:48.642Z</time>
      </trkpt>
      <trkpt lat="48.41315" lon="2.72285">
        <ele>73</ele>
        <time>2023-04-16T05:44:52.662Z</time>
      </trkpt>
      <trkpt lat="48.4131" lon="2.72295">
        <ele>72</ele>
        <time>2023-04-16T05:44:57.675Z</time>
      </trkpt>
      <trkpt lat="48.41308" lon="2.72304">
        <ele>72</ele>
        <time>2023-04-16T05:45:02.309Z</time>
      </trkpt>
      <trkpt lat="48.4131" lon="2.72315">
        <ele>72</ele>
        <time>2023-04-16T05:45:06.802Z</time>
      </trkpt>
      <trkpt lat="48.41312" lon="2.72325">
        <ele>71</ele>
        <time>2023-04-16T05:45:10.854Z</time>
      </trkpt>
      <trkpt lat="48.41316" lon="2.72336">
        <ele>71</ele>
        <time>2023-04-16T05:45:15.643Z</time>
      </trkpt>
      <trkpt lat="48.41315" lon="2.72354">
        <ele>70</ele>
        <time>2023-04-16T05:45:24.745Z</time>
      </trkpt>
      <trkpt lat="48.41318" lon="2.7236">
        <ele>70</ele>
        <time>2023-04-16T05:45:29.259Z</time>
      </trkpt>
      <trkpt lat="48.41319" lon="2.72375">
        <ele>68</ele>
        <time>2023-04-16T05:45:33.849Z</time>
      </trkpt>
      <trkpt lat="48.4132" lon="2.72386">
        <ele>70</ele>
        <time>2023-04-16T05:45:38.041Z</time>
      </trkpt>
      <trkpt lat="48.4132" lon="2.72395">
        <ele>70</ele>
        <time>2023-04-16T05:45:42.593Z</time>
      </trkpt>
      <trkpt lat="48.41319" lon="2.72404">
        <ele>68</ele>
        <time>2023-04-16T05:45:46.452Z</time>
      </trkpt>
      <trkpt lat="48.4132" lon="2.72415">
        <ele>70</ele>
        <time>2023-04-16T05:45:50.962Z</time>
      </trkpt>
      <trkpt lat="48.41321" lon="2.72424">
        <ele>70</ele>
        <time>2023-04-16T05:45:55.022Z</time>
      </trkpt>
      <trkpt lat="48.4132" lon="2.72434">
        <ele>70</ele>
        <time>2023-04-16T05:45:58.882Z</time>
      </trkpt>
      <trkpt lat="48.4132" lon="2.72447">
        <ele>70</ele>
        <time>2023-04-16T05:46:03.414Z</time>
      </trkpt>
      <trkpt lat="48.41321" lon="2.72457">
        <ele>70</ele>
        <time>2023-04-16T05:46:07.964Z</time>
      </trkpt>
      <trkpt lat="48.4132" lon="2.72467">
        <ele>70</ele>
        <time>2023-04-16T05:46:12.143Z</time>
      </trkpt>
      <trkpt lat="48.41318" lon="2.72476">
        <ele>67</ele>
        <time>2023-04-16T05:46:16.706Z</time>
      </trkpt>
      <trkpt lat="48.41316" lon="2.72483">
        <ele>67</ele>
        <time>2023-04-16T05:46:20.658Z</time>
      </trkpt>
      <trkpt lat="48.41312" lon="2.7249">
        <ele>67</ele>
        <time>2023-04-16T05:46:24.611Z</time>
      </trkpt>
      <trkpt lat="48.41309" lon="2.72497">
        <ele>67</ele>
        <time>2023-04-16T05:46:29.122Z</time>
      </trkpt>
      <trkpt lat="48.41305" lon="2.72504">
        <ele>67</ele>
        <time>2023-04-16T05:46:32.993Z</time>
      </trkpt>
      <trkpt lat="48.41297" lon="2.72508">
        <ele>67</ele>
        <time>2023-04-16T05:46:38.177Z</time>
      </trkpt>
      <trkpt lat="48.41291" lon="2.72509">
        <ele>64</ele>
        <time>2023-04-16T05:46:43.139Z</time>
      </trkpt>
      <trkpt lat="48.41284" lon="2.72511">
        <ele>64</ele>
        <time>2023-04-16T05:46:47.725Z</time>
      </trkpt>
      <trkpt lat="48.4128" lon="2.72518">
        <ele>64</ele>
        <time>2023-04-16T05:46:51.637Z</time>
      </trkpt>
      <trkpt lat="48.41275" lon="2.72526">
        <ele>64</ele>
        <time>2023-04-16T05:46:56.306Z</time>
      </trkpt>
      <trkpt lat="48.41269" lon="2.72533">
        <ele>64</ele>
        <time>2023-04-16T05:47:00.857Z</time>
      </trkpt>
      <trkpt lat="48.41264" lon="2.72539">
        <ele>64</ele>
        <time>2023-04-16T05:47:04.642Z</time>
      </trkpt>
      <trkpt lat="48.4126" lon="2.72543">
        <ele>61</ele>
        <time>2023-04-16T05:47:09.151Z</time>
      </trkpt>
      <trkpt lat="48.41257" lon="2.72555">
        <ele>61</ele>
        <time>2023-04-16T05:47:13.668Z</time>
      </trkpt>
      <trkpt lat="48.41255" lon="2.72565">
        <ele>61</ele>
        <time>2023-04-16T05:47:17.676Z</time>
      </trkpt>
      <trkpt lat="48.41254" lon="2.72572">
        <ele>59</ele>
        <time>2023-04-16T05:47:22.057Z</time>
      </trkpt>
      <trkpt lat="48.41252" lon="2.72581">
        <ele>59</ele>
        <time>2023-04-16T05:47:26.555Z</time>
      </trkpt>
      <trkpt lat="48.41249" lon="2.72589">
        <ele>59</ele>
        <time>2023-04-16T05:47:30.451Z</time>
      </trkpt>
      <trkpt lat="48.4125" lon="2.72593">
        <ele>59</ele>
        <time>2023-04-16T05:47:34.909Z</time>
      </trkpt>
      <trkpt lat="48.41255" lon="2.72602">
        <ele>57</ele>
        <time>2023-04-16T05:47:38.769Z</time>
      </trkpt>
      <trkpt lat="48.41265" lon="2.72609">
        <ele>59</ele>
        <time>2023-04-16T05:47:43.327Z</time>
      </trkpt>
      <trkpt lat="48.41271" lon="2.72615">
        <ele>59</ele>
        <time>2023-04-16T05:47:47.346Z</time>
      </trkpt>
      <trkpt lat="48.41276" lon="2.72621">
        <ele>59</ele>
        <time>2023-04-16T05:47:51.964Z</time>
      </trkpt>
      <trkpt lat="48.41281" lon="2.72627">
        <ele>57</ele>
        <time>2023-04-16T05:47:56.039Z</time>
      </trkpt>
      <trkpt lat="48.41286" lon="2.72635">
        <ele>57</ele>
        <time>2023-04-16T05:48:00.507Z</time>
      </trkpt>
      <trkpt lat="48.41292" lon="2.72642">
        <ele>57</ele>
        <time>2023-04-16T05:48:04.429Z</time>
      </trkpt>
      <trkpt lat="48.41298" lon="2.72647">
        <ele>59</ele>
        <time>2023-04-16T05:48:08.983Z</time>
      </trkpt>
      <trkpt lat="48.41305" lon="2.72647">
        <ele>59</ele>
        <time>2023-04-16T05:48:13.622Z</time>
      </trkpt>
      <trkpt lat="48.41312" lon="2.72641">
        <ele>59</ele>
        <time>2023-04-16T05:48:17.614Z</time>
      </trkpt>
      <trkpt lat="48.41316" lon="2.72636">
        <ele>59</ele>
        <time>2023-04-16T05:48:22.143Z</time>
      </trkpt>
      <trkpt lat="48.41321" lon="2.72631">
        <ele>61</ele>
        <time>2023-04-16T05:48:26.242Z</time>
      </trkpt>
      <trkpt lat="48.41326" lon="2.72626">
        <ele>61</ele>
        <time>2023-04-16T05:48:30.915Z</time>
      </trkpt>
      <trkpt lat="48.41331" lon="2.72625">
        <ele>65</ele>
        <time>2023-04-16T05:48:34.868Z</time>
      </trkpt>
      <trkpt lat="48.41337" lon="2.72624">
        <ele>65</ele>
        <time>2023-04-16T05:48:39.661Z</time>
      </trkpt>
      <trkpt lat="48.41343" lon="2.72624">
        <ele>65</ele>
        <time>2023-04-16T05:48:44.142Z</time>
      </trkpt>
      <trkpt lat="48.41351" lon="2.72625">
        <ele>62</ele>
        <time>2023-04-16T05:48:48.644Z</time>
      </trkpt>
      <trkpt lat="48.41356" lon="2.72628">
        <ele>62</ele>
        <time>2023-04-16T05:48:52.599Z</time>
      </trkpt>
      <trkpt lat="48.41361" lon="2.72627">
        <ele>62</ele>
        <time>2023-04-16T05:48:56.552Z</time>
      </trkpt>
      <trkpt lat="48.41367" lon="2.72625">
        <ele>62</ele>
        <time>2023-04-16T05:49:00.624Z</time>
      </trkpt>
      <trkpt lat="48.41376" lon="2.72627">
        <ele>64</ele>
        <time>2023-04-16T05:49:05.775Z</time>
      </trkpt>
      <trkpt lat="48.41383" lon="2.72627">
        <ele>64</ele>
        <time>2023-04-16T05:49:09.849Z</time>
      </trkpt>
      <trkpt lat="48.4139" lon="2.7263">
        <ele>64</ele>
        <time>2023-04-16T05:49:14.042Z</time>
      </trkpt>
      <trkpt lat="48.41396" lon="2.72634">
        <ele>64</ele>
        <time>2023-04-16T05:49:17.996Z</time>
      </trkpt>
      <trkpt lat="48.41402" lon="2.72642">
        <ele>64</ele>
        <time>2023-04-16T05:49:22.548Z</time>
      </trkpt>
      <trkpt lat="48.41406" lon="2.7265">
        <ele>67</ele>
        <time>2023-04-16T05:49:26.622Z</time>
      </trkpt>
      <trkpt lat="48.41411" lon="2.72659">
        <ele>66</ele>
        <time>2023-04-16T05:49:31.076Z</time>
      </trkpt>
      <trkpt lat="48.41416" lon="2.72667">
        <ele>66</ele>
        <time>2023-04-16T05:49:34.649Z</time>
      </trkpt>
      <trkpt lat="48.4142" lon="2.72673">
        <ele>66</ele>
        <time>2023-04-16T05:49:38.724Z</time>
      </trkpt>
      <trkpt lat="48.41425" lon="2.72678">
        <ele>66</ele>
        <time>2023-04-16T05:49:42.658Z</time>
      </trkpt>
      <trkpt lat="48.41432" lon="2.72682">
        <ele>65</ele>
        <time>2023-04-16T05:49:47.687Z</time>
      </trkpt>
      <trkpt lat="48.41438" lon="2.72687">
        <ele>65</ele>
        <time>2023-04-16T05:49:52.180Z</time>
      </trkpt>
      <trkpt lat="48.41444" lon="2.72692">
        <ele>65</ele>
        <time>2023-04-16T05:49:56.628Z</time>
      </trkpt>
      <trkpt lat="48.41451" lon="2.72695">
        <ele>65</ele>
        <time>2023-04-16T05:50:01.278Z</time>
      </trkpt>
      <trkpt lat="48.41457" lon="2.72697">
        <ele>65</ele>
        <time>2023-04-16T05:50:05.829Z</time>
      </trkpt>
      <trkpt lat="48.41464" lon="2.72699">
        <ele>66</ele>
        <time>2023-04-16T05:50:09.899Z</time>
      </trkpt>
      <trkpt lat="48.4147" lon="2.72703">
        <ele>66</ele>
        <time>2023-04-16T05:50:13.969Z</time>
      </trkpt>
      <trkpt lat="48.41475" lon="2.72707">
        <ele>66</ele>
        <time>2023-04-16T05:50:17.921Z</time>
      </trkpt>
      <trkpt lat="48.41482" lon="2.72718">
        <ele>64</ele>
        <time>2023-04-16T05:50:22.967Z</time>
      </trkpt>
      <trkpt lat="48.41488" lon="2.72726">
        <ele>68</ele>
        <time>2023-04-16T05:50:27.617Z</time>
      </trkpt>
      <trkpt lat="48.41493" lon="2.72735">
        <ele>68</ele>
        <time>2023-04-16T05:50:32.110Z</time>
      </trkpt>
      <trkpt lat="48.41498" lon="2.72743">
        <ele>67</ele>
        <time>2023-04-16T05:50:36.216Z</time>
      </trkpt>
      <trkpt lat="48.41502" lon="2.72749">
        <ele>67</ele>
        <time>2023-04-16T05:50:40.885Z</time>
      </trkpt>
      <trkpt lat="48.41506" lon="2.72758">
        <ele>67</ele>
        <time>2023-04-16T05:50:45.437Z</time>
      </trkpt>
      <trkpt lat="48.4151" lon="2.72766">
        <ele>67</ele>
        <time>2023-04-16T05:50:49.629Z</time>
      </trkpt>
      <trkpt lat="48.41512" lon="2.72773">
        <ele>67</ele>
        <time>2023-04-16T05:50:53.702Z</time>
      </trkpt>
      <trkpt lat="48.41519" lon="2.72781">
        <ele>69</ele>
        <time>2023-04-16T05:50:58.232Z</time>
      </trkpt>
      <trkpt lat="48.41526" lon="2.72788">
        <ele>69</ele>
        <time>2023-04-16T05:51:02.863Z</time>
      </trkpt>
      <trkpt lat="48.41532" lon="2.72797">
        <ele>70</ele>
        <time>2023-04-16T05:51:07.414Z</time>
      </trkpt>
      <trkpt lat="48.41537" lon="2.72802">
        <ele>70</ele>
        <time>2023-04-16T05:51:12.124Z</time>
      </trkpt>
      <trkpt lat="48.41541" lon="2.72807">
        <ele>70</ele>
        <time>2023-04-16T05:51:16.256Z</time>
      </trkpt>
      <trkpt lat="48.41546" lon="2.72817">
        <ele>70</ele>
        <time>2023-04-16T05:51:21.044Z</time>
      </trkpt>
      <trkpt lat="48.4155" lon="2.72826">
        <ele>71</ele>
        <time>2023-04-16T05:51:25.714Z</time>
      </trkpt>
      <trkpt lat="48.41557" lon="2.72835">
        <ele>71</ele>
        <time>2023-04-16T05:51:30.264Z</time>
      </trkpt>
      <trkpt lat="48.41561" lon="2.72842">
        <ele>71</ele>
        <time>2023-04-16T05:51:34.576Z</time>
      </trkpt>
      <trkpt lat="48.41565" lon="2.72848">
        <ele>70</ele>
        <time>2023-04-16T05:51:38.647Z</time>
      </trkpt>
      <trkpt lat="48.41567" lon="2.72856">
        <ele>70</ele>
        <time>2023-04-16T05:51:43.236Z</time>
      </trkpt>
      <trkpt lat="48.4157" lon="2.72862">
        <ele>70</ele>
        <time>2023-04-16T05:51:47.268Z</time>
      </trkpt>
      <trkpt lat="48.41576" lon="2.72869">
        <ele>70</ele>
        <time>2023-04-16T05:51:51.219Z</time>
      </trkpt>
      <trkpt lat="48.41581" lon="2.72878">
        <ele>70</ele>
        <time>2023-04-16T05:51:55.887Z</time>
      </trkpt>
      <trkpt lat="48.41586" lon="2.72888">
        <ele>70</ele>
        <time>2023-04-16T05:52:00.556Z</time>
      </trkpt>
      <trkpt lat="48.41591" lon="2.72897">
        <ele>70</ele>
        <time>2023-04-16T05:52:04.987Z</time>
      </trkpt>
      <trkpt lat="48.41595" lon="2.72906">
        <ele>69</ele>
        <time>2023-04-16T05:52:10.014Z</time>
      </trkpt>
      <trkpt lat="48.41599" lon="2.72912">
        <ele>70</ele>
        <time>2023-04-16T05:52:14.066Z</time>
      </trkpt>
      <trkpt lat="48.41602" lon="2.72922">
        <ele>70</ele>
        <time>2023-04-16T05:52:18.736Z</time>
      </trkpt>
      <trkpt lat="48.41605" lon="2.72929">
        <ele>70</ele>
        <time>2023-04-16T05:52:23.201Z</time>
      </trkpt>
      <trkpt lat="48.41608" lon="2.72938">
        <ele>69</ele>
        <time>2023-04-16T05:52:27.716Z</time>
      </trkpt>
      <trkpt lat="48.41611" lon="2.72945">
        <ele>69</ele>
        <time>2023-04-16T05:52:32.268Z</time>
      </trkpt>
      <trkpt lat="48.41614" lon="2.72954">
        <ele>69</ele>
        <time>2023-04-16T05:52:36.320Z</time>
      </trkpt>
      <trkpt lat="48.41618" lon="2.72963">
        <ele>68</ele>
        <time>2023-04-16T05:52:40.782Z</time>
      </trkpt>
      <trkpt lat="48.41622" lon="2.7297">
        <ele>68</ele>
        <time>2023-04-16T05:52:44.581Z</time>
      </trkpt>
      <trkpt lat="48.41622" lon="2.72979">
        <ele>68</ele>
        <time>2023-04-16T05:52:49.013Z</time>
      </trkpt>
      <trkpt lat="48.41617" lon="2.72983">
        <ele>68</ele>
        <time>2023-04-16T05:52:53.357Z</time>
      </trkpt>
      <trkpt lat="48.41612" lon="2.72987">
        <ele>68</ele>
        <time>2023-04-16T05:52:57.276Z</time>
      </trkpt>
      <trkpt lat="48.41608" lon="2.72991">
        <ele>68</ele>
        <time>2023-04-16T05:53:01.859Z</time>
      </trkpt>
      <trkpt lat="48.41601" lon="2.72998">
        <ele>68</ele>
        <time>2023-04-16T05:53:06.435Z</time>
      </trkpt>
      <trkpt lat="48.41593" lon="2.73001">
        <ele>67</ele>
        <time>2023-04-16T05:53:10.899Z</time>
      </trkpt>
      <trkpt lat="48.41585" lon="2.73006">
        <ele>67</ele>
        <time>2023-04-16T05:53:15.419Z</time>
      </trkpt>
      <trkpt lat="48.4158" lon="2.73011">
        <ele>67</ele>
        <time>2023-04-16T05:53:19.308Z</time>
      </trkpt>
      <trkpt lat="48.41574" lon="2.73014">
        <ele>67</ele>
        <time>2023-04-16T05:53:23.822Z</time>
      </trkpt>
      <trkpt lat="48.41568" lon="2.73019">
        <ele>64</ele>
        <time>2023-04-16T05:53:27.837Z</time>
      </trkpt>
      <trkpt lat="48.41561" lon="2.73025">
        <ele>64</ele>
        <time>2023-04-16T05:53:32.388Z</time>
      </trkpt>
      <trkpt lat="48.41555" lon="2.73027">
        <ele>64</ele>
        <time>2023-04-16T05:53:36.880Z</time>
      </trkpt>
      <trkpt lat="48.41548" lon="2.73032">
        <ele>64</ele>
        <time>2023-04-16T05:53:42.029Z</time>
      </trkpt>
      <trkpt lat="48.41544" lon="2.73035">
        <ele>64</ele>
        <time>2023-04-16T05:53:47.084Z</time>
      </trkpt>
      <trkpt lat="48.41539" lon="2.73043">
        <ele>60</ele>
        <time>2023-04-16T05:53:51.610Z</time>
      </trkpt>
      <trkpt lat="48.41532" lon="2.73049">
        <ele>60</ele>
        <time>2023-04-16T05:53:56.139Z</time>
      </trkpt>
      <trkpt lat="48.41526" lon="2.73055">
        <ele>60</ele>
        <time>2023-04-16T05:54:00.670Z</time>
      </trkpt>
      <trkpt lat="48.41522" lon="2.73061">
        <ele>60</ele>
        <time>2023-04-16T05:54:04.861Z</time>
      </trkpt>
      <trkpt lat="48.41518" lon="2.73069">
        <ele>60</ele>
        <time>2023-04-16T05:54:09.653Z</time>
      </trkpt>
      <trkpt lat="48.41514" lon="2.73073">
        <ele>60</ele>
        <time>2023-04-16T05:54:13.846Z</time>
      </trkpt>
      <trkpt lat="48.41514" lon="2.73086">
        <ele>56</ele>
        <time>2023-04-16T05:54:18.516Z</time>
      </trkpt>
      <trkpt lat="48.41513" lon="2.73094">
        <ele>56</ele>
        <time>2023-04-16T05:54:23.068Z</time>
      </trkpt>
      <trkpt lat="48.41514" lon="2.73103">
        <ele>58</ele>
        <time>2023-04-16T05:54:27.258Z</time>
      </trkpt>
      <trkpt lat="48.41514" lon="2.73114">
        <ele>58</ele>
        <time>2023-04-16T05:54:31.328Z</time>
      </trkpt>
      <trkpt lat="48.41513" lon="2.7312">
        <ele>55</ele>
        <time>2023-04-16T05:54:35.879Z</time>
      </trkpt>
      <trkpt lat="48.41513" lon="2.73124">
        <ele>55</ele>
        <time>2023-04-16T05:54:39.831Z</time>
      </trkpt>
      <trkpt lat="48.41506" lon="2.73131">
        <ele>54</ele>
        <time>2023-04-16T05:54:45.182Z</time>
      </trkpt>
      <trkpt lat="48.415" lon="2.73134">
        <ele>54</ele>
        <time>2023-04-16T05:54:49.654Z</time>
      </trkpt>
      <trkpt lat="48.41495" lon="2.7313">
        <ele>54</ele>
        <time>2023-04-16T05:54:54.686Z</time>
      </trkpt>
      <trkpt lat="48.4149" lon="2.73133">
        <ele>54</ele>
        <time>2023-04-16T05:54:59.835Z</time>
      </trkpt>
      <trkpt lat="48.41482" lon="2.7314">
        <ele>53</ele>
        <time>2023-04-16T05:55:03.907Z</time>
      </trkpt>
      <trkpt lat="48.41474" lon="2.73151">
        <ele>53</ele>
        <time>2023-04-16T05:55:08.452Z</time>
      </trkpt>
      <trkpt lat="48.41468" lon="2.73155">
        <ele>53</ele>
        <time>2023-04-16T05:55:12.651Z</time>
      </trkpt>
      <trkpt lat="48.41463" lon="2.73156">
        <ele>53</ele>
        <time>2023-04-16T05:55:16.842Z</time>
      </trkpt>
      <trkpt lat="48.41456" lon="2.7315">
        <ele>53</ele>
        <time>2023-04-16T05:55:22.126Z</time>
      </trkpt>
      <trkpt lat="48.41451" lon="2.73149">
        <ele>53</ele>
        <time>2023-04-16T05:55:26.133Z</time>
      </trkpt>
      <trkpt lat="48.41447" lon="2.73158">
        <ele>53</ele>
        <time>2023-04-16T05:55:30.694Z</time>
      </trkpt>
      <trkpt lat="48.41447" lon="2.73174">
        <ele>53</ele>
        <time>2023-04-16T05:55:35.842Z</time>
      </trkpt>
      <trkpt lat="48.41445" lon="2.73184">
        <ele>53</ele>
        <time>2023-04-16T05:55:40.032Z</time>
      </trkpt>
      <trkpt lat="48.41441" lon="2.73196">
        <ele>53</ele>
        <time>2023-04-16T05:55:44.584Z</time>
      </trkpt>
      <trkpt lat="48.41437" lon="2.73206">
        <ele>53</ele>
        <time>2023-04-16T05:55:49.236Z</time>
      </trkpt>
      <trkpt lat="48.41432" lon="2.73215">
        <ele>54</ele>
        <time>2023-04-16T05:55:53.668Z</time>
      </trkpt>
      <trkpt lat="48.41429" lon="2.73222">
        <ele>54</ele>
        <time>2023-04-16T05:55:57.864Z</time>
      </trkpt>
      <trkpt lat="48.41426" lon="2.73227">
        <ele>54</ele>
        <time>2023-04-16T05:56:02.417Z</time>
      </trkpt>
      <trkpt lat="48.41422" lon="2.73237">
        <ele>55</ele>
        <time>2023-04-16T05:56:06.967Z</time>
      </trkpt>
      <trkpt lat="48.41419" lon="2.73243">
        <ele>55</ele>
        <time>2023-04-16T05:56:11.020Z</time>
      </trkpt>
      <trkpt lat="48.41415" lon="2.73245">
        <ele>55</ele>
        <time>2023-04-16T05:56:15.671Z</time>
      </trkpt>
      <trkpt lat="48.41412" lon="2.73245">
        <ele>55</ele>
        <time>2023-04-16T05:56:19.861Z</time>
      </trkpt>
      <trkpt lat="48.41407" lon="2.73248">
        <ele>55</ele>
        <time>2023-04-16T05:56:24.664Z</time>
      </trkpt>
      <trkpt lat="48.41399" lon="2.73247">
        <ele>55</ele>
        <time>2023-04-16T05:56:29.149Z</time>
      </trkpt>
      <trkpt lat="48.41392" lon="2.73247">
        <ele>55</ele>
        <time>2023-04-16T05:56:33.629Z</time>
      </trkpt>
      <trkpt lat="48.41382" lon="2.73248">
        <ele>55</ele>
        <time>2023-04-16T05:56:38.130Z</time>
      </trkpt>
      <trkpt lat="48.41376" lon="2.73243">
        <ele>55</ele>
        <time>2023-04-16T05:56:43.123Z</time>
      </trkpt>
      <trkpt lat="48.41373" lon="2.73234">
        <ele>55</ele>
        <time>2023-04-16T05:56:47.258Z</time>
      </trkpt>
      <trkpt lat="48.41372" lon="2.73224">
        <ele>55</ele>
        <time>2023-04-16T05:56:51.919Z</time>
      </trkpt>
      <trkpt lat="48.41369" lon="2.73216">
        <ele>55</ele>
        <time>2023-04-16T05:56:56.506Z</time>
      </trkpt>
      <trkpt lat="48.41364" lon="2.73213">
        <ele>55</ele>
        <time>2023-04-16T05:57:00.659Z</time>
      </trkpt>
      <trkpt lat="48.41357" lon="2.73212">
        <ele>55</ele>
        <time>2023-04-16T05:57:04.850Z</time>
      </trkpt>
      <trkpt lat="48.41348" lon="2.7321">
        <ele>55</ele>
        <time>2023-04-16T05:57:09.998Z</time>
      </trkpt>
      <trkpt lat="48.41339" lon="2.73207">
        <ele>55</ele>
        <time>2023-04-16T05:57:14.610Z</time>
      </trkpt>
      <trkpt lat="48.41332" lon="2.73202">
        <ele>55</ele>
        <time>2023-04-16T05:57:19.064Z</time>
      </trkpt>
      <trkpt lat="48.41326" lon="2.73199">
        <ele>55</ele>
        <time>2023-04-16T05:57:23.589Z</time>
      </trkpt>
      <trkpt lat="48.41321" lon="2.73194">
        <ele>55</ele>
        <time>2023-04-16T05:57:28.139Z</time>
      </trkpt>
      <trkpt lat="48.41314" lon="2.73193">
        <ele>55</ele>
        <time>2023-04-16T05:57:32.689Z</time>
      </trkpt>
      <trkpt lat="48.41306" lon="2.73193">
        <ele>55</ele>
        <time>2023-04-16T05:57:37.839Z</time>
      </trkpt>
      <trkpt lat="48.41305" lon="2.73193">
        <ele>55</ele>
        <time>2023-04-16T05:57:42.954Z</time>
      </trkpt>
      <trkpt lat="48.41301" lon="2.73203">
        <ele>55</ele>
        <time>2023-04-16T05:57:46.439Z</time>
      </trkpt>
      <trkpt lat="48.41295" lon="2.73206">
        <ele>55</ele>
        <time>2023-04-16T05:57:50.634Z</time>
      </trkpt>
      <trkpt lat="48.41289" lon="2.73205">
        <ele>57</ele>
        <time>2023-04-16T05:57:55.189Z</time>
      </trkpt>
      <trkpt lat="48.41283" lon="2.73206">
        <ele>57</ele>
        <time>2023-04-16T05:57:59.363Z</time>
      </trkpt>
      <trkpt lat="48.41278" lon="2.73206">
        <ele>57</ele>
        <time>2023-04-16T05:58:03.957Z</time>
      </trkpt>
      <trkpt lat="48.4127" lon="2.73207">
        <ele>57</ele>
        <time>2023-04-16T05:58:07.988Z</time>
      </trkpt>
      <trkpt lat="48.41263" lon="2.73209">
        <ele>64</ele>
        <time>2023-04-16T05:58:11.452Z</time>
      </trkpt>
      <trkpt lat="48.41253" lon="2.73212">
        <ele>64</ele>
        <time>2023-04-16T05:58:18.052Z</time>
      </trkpt>
      <trkpt lat="48.41251" lon="2.73211">
        <ele>64</ele>
        <time>2023-04-16T05:58:21.871Z</time>
      </trkpt>
      <trkpt lat="48.41246" lon="2.73206">
        <ele>62</ele>
        <time>2023-04-16T05:58:26.662Z</time>
      </trkpt>
      <trkpt lat="48.41241" lon="2.73202">
        <ele>62</ele>
        <time>2023-04-16T05:58:30.860Z</time>
      </trkpt>
      <trkpt lat="48.41237" lon="2.73197">
        <ele>62</ele>
        <time>2023-04-16T05:58:34.695Z</time>
      </trkpt>
      <trkpt lat="48.41233" lon="2.73191">
        <ele>66</ele>
        <time>2023-04-16T05:58:39.442Z</time>
      </trkpt>
      <trkpt lat="48.41227" lon="2.7319">
        <ele>66</ele>
        <time>2023-04-16T05:58:43.457Z</time>
      </trkpt>
      <trkpt lat="48.41217" lon="2.73193">
        <ele>66</ele>
        <time>2023-04-16T05:58:47.958Z</time>
      </trkpt>
      <trkpt lat="48.41209" lon="2.732">
        <ele>66</ele>
        <time>2023-04-16T05:58:51.911Z</time>
      </trkpt>
      <trkpt lat="48.41206" lon="2.73212">
        <ele>69</ele>
        <time>2023-04-16T05:58:56.438Z</time>
      </trkpt>
      <trkpt lat="48.41205" lon="2.73223">
        <ele>69</ele>
        <time>2023-04-16T05:59:00.976Z</time>
      </trkpt>
      <trkpt lat="48.41209" lon="2.73232">
        <ele>67</ele>
        <time>2023-04-16T05:59:05.048Z</time>
      </trkpt>
      <trkpt lat="48.41215" lon="2.73241">
        <ele>67</ele>
        <time>2023-04-16T05:59:09.581Z</time>
      </trkpt>
      <trkpt lat="48.41221" lon="2.73246">
        <ele>67</ele>
        <time>2023-04-16T05:59:13.597Z</time>
      </trkpt>
      <trkpt lat="48.41223" lon="2.73251">
        <ele>67</ele>
        <time>2023-04-16T05:59:16.452Z</time>
      </trkpt>
      <trkpt lat="48.41223" lon="2.73262">
        <ele>67</ele>
        <time>2023-04-16T05:59:21.524Z</time>
      </trkpt>
      <trkpt lat="48.41218" lon="2.73269">
        <ele>68</ele>
        <time>2023-04-16T05:59:25.627Z</time>
      </trkpt>
      <trkpt lat="48.41218" lon="2.73277">
        <ele>68</ele>
        <time>2023-04-16T05:59:30.063Z</time>
      </trkpt>
      <trkpt lat="48.41216" lon="2.73286">
        <ele>68</ele>
        <time>2023-04-16T05:59:34.149Z</time>
      </trkpt>
      <trkpt lat="48.41211" lon="2.73287">
        <ele>68</ele>
        <time>2023-04-16T05:59:38.168Z</time>
      </trkpt>
      <trkpt lat="48.41203" lon="2.73291">
        <ele>69</ele>
        <time>2023-04-16T05:59:42.177Z</time>
      </trkpt>
      <trkpt lat="48.41197" lon="2.73287">
        <ele>69</ele>
        <time>2023-04-16T05:59:46.578Z</time>
      </trkpt>
      <trkpt lat="48.4119" lon="2.73285">
        <ele>69</ele>
        <time>2023-04-16T05:59:50.655Z</time>
      </trkpt>
      <trkpt lat="48.41183" lon="2.73291">
        <ele>69</ele>
        <time>2023-04-16T05:59:57.388Z</time>
      </trkpt>
      <trkpt lat="48.41181" lon="2.73299">
        <ele>72</ele>
        <time>2023-04-16T06:00:01.903Z</time>
      </trkpt>
      <trkpt lat="48.41177" lon="2.73304">
        <ele>72</ele>
        <time>2023-04-16T06:00:06.920Z</time>
      </trkpt>
      <trkpt lat="48.41172" lon="2.73309">
        <ele>72</ele>
        <time>2023-04-16T06:00:10.925Z</time>
      </trkpt>
      <trkpt lat="48.41168" lon="2.73315">
        <ele>72</ele>
        <time>2023-04-16T06:00:15.705Z</time>
      </trkpt>
      <trkpt lat="48.41164" lon="2.73324">
        <ele>76</ele>
        <time>2023-04-16T06:00:20.696Z</time>
      </trkpt>
      <trkpt lat="48.4116" lon="2.7333">
        <ele>76</ele>
        <time>2023-04-16T06:00:24.700Z</time>
      </trkpt>
      <trkpt lat="48.41156" lon="2.73337">
        <ele>76</ele>
        <time>2023-04-16T06:00:29.122Z</time>
      </trkpt>
      <trkpt lat="48.41152" lon="2.73343">
        <ele>78</ele>
        <time>2023-04-16T06:00:33.380Z</time>
      </trkpt>
      <trkpt lat="48.41149" lon="2.73349">
        <ele>79</ele>
        <time>2023-04-16T06:00:38.141Z</time>
      </trkpt>
      <trkpt lat="48.41145" lon="2.73356">
        <ele>79</ele>
        <time>2023-04-16T06:00:42.637Z</time>
      </trkpt>
      <trkpt lat="48.4114" lon="2.73358">
        <ele>79</ele>
        <time>2023-04-16T06:00:46.714Z</time>
      </trkpt>
      <trkpt lat="48.41134" lon="2.7336">
        <ele>79</ele>
        <time>2023-04-16T06:00:51.750Z</time>
      </trkpt>
      <trkpt lat="48.41128" lon="2.73359">
        <ele>79</ele>
        <time>2023-04-16T06:00:55.705Z</time>
      </trkpt>
      <trkpt lat="48.41122" lon="2.73362">
        <ele>80</ele>
        <time>2023-04-16T06:01:00.282Z</time>
      </trkpt>
      <trkpt lat="48.41116" lon="2.73369">
        <ele>80</ele>
        <time>2023-04-16T06:01:04.833Z</time>
      </trkpt>
      <trkpt lat="48.41111" lon="2.73377">
        <ele>80</ele>
        <time>2023-04-16T06:01:09.626Z</time>
      </trkpt>
      <trkpt lat="48.41106" lon="2.73384">
        <ele>80</ele>
        <time>2023-04-16T06:01:14.059Z</time>
      </trkpt>
      <trkpt lat="48.41105" lon="2.73394">
        <ele>80</ele>
        <time>2023-04-16T06:01:18.176Z</time>
      </trkpt>
      <trkpt lat="48.41109" lon="2.73404">
        <ele>80</ele>
        <time>2023-04-16T06:01:23.678Z</time>
      </trkpt>
      <trkpt lat="48.41117" lon="2.73419">
        <ele>80</ele>
        <time>2023-04-16T06:01:27.836Z</time>
      </trkpt>
      <trkpt lat="48.41124" lon="2.73426">
        <ele>80</ele>
        <time>2023-04-16T06:01:32.855Z</time>
      </trkpt>
      <trkpt lat="48.41131" lon="2.73432">
        <ele>80</ele>
        <time>2023-04-16T06:01:37.597Z</time>
      </trkpt>
      <trkpt lat="48.41139" lon="2.73439">
        <ele>80</ele>
        <time>2023-04-16T06:01:41.916Z</time>
      </trkpt>
      <trkpt lat="48.41143" lon="2.73443">
        <ele>80</ele>
        <time>2023-04-16T06:01:46.138Z</time>
      </trkpt>
      <trkpt lat="48.41147" lon="2.73445">
        <ele>80</ele>
        <time>2023-04-16T06:01:50.132Z</time>
      </trkpt>
      <trkpt lat="48.41152" lon="2.73447">
        <ele>80</ele>
        <time>2023-04-16T06:01:54.228Z</time>
      </trkpt>
      <trkpt lat="48.41157" lon="2.73451">
        <ele>78</ele>
        <time>2023-04-16T06:01:58.904Z</time>
      </trkpt>
      <trkpt lat="48.41163" lon="2.73454">
        <ele>78</ele>
        <time>2023-04-16T06:02:02.860Z</time>
      </trkpt>
      <trkpt lat="48.4117" lon="2.73454">
        <ele>78</ele>
        <time>2023-04-16T06:02:07.654Z</time>
      </trkpt>
      <trkpt lat="48.41178" lon="2.73454">
        <ele>78</ele>
        <time>2023-04-16T06:02:12.308Z</time>
      </trkpt>
      <trkpt lat="48.41185" lon="2.73459">
        <ele>78</ele>
        <time>2023-04-16T06:02:16.861Z</time>
      </trkpt>
      <trkpt lat="48.41191" lon="2.73461">
        <ele>78</ele>
        <time>2023-04-16T06:02:21.055Z</time>
      </trkpt>
      <trkpt lat="48.41197" lon="2.73462">
        <ele>78</ele>
        <time>2023-04-16T06:02:25.158Z</time>
      </trkpt>
      <trkpt lat="48.41206" lon="2.73462">
        <ele>78</ele>
        <time>2023-04-16T06:02:29.681Z</time>
      </trkpt>
      <trkpt lat="48.41212" lon="2.73462">
        <ele>76</ele>
        <time>2023-04-16T06:02:34.235Z</time>
      </trkpt>
      <trkpt lat="48.41219" lon="2.73464">
        <ele>76</ele>
        <time>2023-04-16T06:02:38.888Z</time>
      </trkpt>
      <trkpt lat="48.41227" lon="2.73465">
        <ele>76</ele>
        <time>2023-04-16T06:02:42.961Z</time>
      </trkpt>
      <trkpt lat="48.41234" lon="2.7347">
        <ele>76</ele>
        <time>2023-04-16T06:02:47.991Z</time>
      </trkpt>
      <trkpt lat="48.4124" lon="2.73472">
        <ele>76</ele>
        <time>2023-04-16T06:02:52.064Z</time>
      </trkpt>
      <trkpt lat="48.41247" lon="2.73476">
        <ele>76</ele>
        <time>2023-04-16T06:02:56.735Z</time>
      </trkpt>
      <trkpt lat="48.41254" lon="2.7348">
        <ele>76</ele>
        <time>2023-04-16T06:03:01.841Z</time>
      </trkpt>
      <trkpt lat="48.41258" lon="2.73485">
        <ele>76</ele>
        <time>2023-04-16T06:03:05.837Z</time>
      </trkpt>
      <trkpt lat="48.41265" lon="2.73492">
        <ele>75</ele>
        <time>2023-04-16T06:03:10.452Z</time>
      </trkpt>
      <trkpt lat="48.4127" lon="2.73495">
        <ele>75</ele>
        <time>2023-04-16T06:03:14.940Z</time>
      </trkpt>
      <trkpt lat="48.41276" lon="2.73501">
        <ele>75</ele>
        <time>2023-04-16T06:03:19.373Z</time>
      </trkpt>
      <trkpt lat="48.41282" lon="2.73507">
        <ele>75</ele>
        <time>2023-04-16T06:03:23.987Z</time>
      </trkpt>
      <trkpt lat="48.41286" lon="2.73514">
        <ele>75</ele>
        <time>2023-04-16T06:03:28.452Z</time>
      </trkpt>
      <trkpt lat="48.41289" lon="2.73522">
        <ele>75</ele>
        <time>2023-04-16T06:03:32.372Z</time>
      </trkpt>
      <trkpt lat="48.41293" lon="2.73529">
        <ele>73</ele>
        <time>2023-04-16T06:03:36.923Z</time>
      </trkpt>
      <trkpt lat="48.41296" lon="2.73537">
        <ele>73</ele>
        <time>2023-04-16T06:03:41.380Z</time>
      </trkpt>
      <trkpt lat="48.413" lon="2.73544">
        <ele>72</ele>
        <time>2023-04-16T06:03:45.369Z</time>
      </trkpt>
      <trkpt lat="48.41304" lon="2.73552">
        <ele>72</ele>
        <time>2023-04-16T06:03:49.920Z</time>
      </trkpt>
      <trkpt lat="48.41309" lon="2.73558">
        <ele>72</ele>
        <time>2023-04-16T06:03:54.351Z</time>
      </trkpt>
      <trkpt lat="48.41314" lon="2.73564">
        <ele>72</ele>
        <time>2023-04-16T06:03:58.302Z</time>
      </trkpt>
      <trkpt lat="48.41318" lon="2.73573">
        <ele>71</ele>
        <time>2023-04-16T06:04:02.854Z</time>
      </trkpt>
      <trkpt lat="48.41323" lon="2.7358">
        <ele>71</ele>
        <time>2023-04-16T06:04:07.405Z</time>
      </trkpt>
      <trkpt lat="48.41327" lon="2.73587">
        <ele>71</ele>
        <time>2023-04-16T06:04:11.956Z</time>
      </trkpt>
      <trkpt lat="48.41332" lon="2.73595">
        <ele>71</ele>
        <time>2023-04-16T06:04:16.008Z</time>
      </trkpt>
      <trkpt lat="48.41337" lon="2.73604">
        <ele>71</ele>
        <time>2023-04-16T06:04:20.557Z</time>
      </trkpt>
      <trkpt lat="48.41342" lon="2.73612">
        <ele>71</ele>
        <time>2023-04-16T06:04:25.142Z</time>
      </trkpt>
      <trkpt lat="48.41346" lon="2.73621">
        <ele>71</ele>
        <time>2023-04-16T06:04:29.739Z</time>
      </trkpt>
      <trkpt lat="48.41352" lon="2.73629">
        <ele>72</ele>
        <time>2023-04-16T06:04:34.887Z</time>
      </trkpt>
      <trkpt lat="48.41356" lon="2.73637">
        <ele>72</ele>
        <time>2023-04-16T06:04:39.319Z</time>
      </trkpt>
      <trkpt lat="48.41361" lon="2.73646">
        <ele>72</ele>
        <time>2023-04-16T06:04:43.868Z</time>
      </trkpt>
      <trkpt lat="48.41366" lon="2.73653">
        <ele>72</ele>
        <time>2023-04-16T06:04:48.658Z</time>
      </trkpt>
      <trkpt lat="48.4137" lon="2.73659">
        <ele>72</ele>
        <time>2023-04-16T06:04:52.729Z</time>
      </trkpt>
      <trkpt lat="48.41374" lon="2.73665">
        <ele>72</ele>
        <time>2023-04-16T06:04:57.279Z</time>
      </trkpt>
      <trkpt lat="48.4138" lon="2.73671">
        <ele>72</ele>
        <time>2023-04-16T06:05:01.708Z</time>
      </trkpt>
      <trkpt lat="48.41384" lon="2.73677">
        <ele>72</ele>
        <time>2023-04-16T06:05:05.897Z</time>
      </trkpt>
      <trkpt lat="48.41389" lon="2.73684">
        <ele>72</ele>
        <time>2023-04-16T06:05:10.269Z</time>
      </trkpt>
      <trkpt lat="48.41396" lon="2.73688">
        <ele>72</ele>
        <time>2023-04-16T06:05:14.700Z</time>
      </trkpt>
      <trkpt lat="48.41401" lon="2.73692">
        <ele>72</ele>
        <time>2023-04-16T06:05:18.652Z</time>
      </trkpt>
      <trkpt lat="48.41408" lon="2.73699">
        <ele>72</ele>
        <time>2023-04-16T06:05:23.683Z</time>
      </trkpt>
      <trkpt lat="48.41415" lon="2.73705">
        <ele>72</ele>
        <time>2023-04-16T06:05:29.014Z</time>
      </trkpt>
      <trkpt lat="48.41421" lon="2.7371">
        <ele>71</ele>
        <time>2023-04-16T06:05:33.544Z</time>
      </trkpt>
      <trkpt lat="48.41427" lon="2.73717">
        <ele>71</ele>
        <time>2023-04-16T06:05:38.096Z</time>
      </trkpt>
      <trkpt lat="48.41432" lon="2.73724">
        <ele>72</ele>
        <time>2023-04-16T06:05:42.647Z</time>
      </trkpt>
      <trkpt lat="48.41437" lon="2.73725">
        <ele>72</ele>
        <time>2023-04-16T06:05:47.140Z</time>
      </trkpt>
      <trkpt lat="48.41441" lon="2.73731">
        <ele>72</ele>
        <time>2023-04-16T06:05:51.629Z</time>
      </trkpt>
      <trkpt lat="48.41447" lon="2.73737">
        <ele>73</ele>
        <time>2023-04-16T06:05:56.160Z</time>
      </trkpt>
      <trkpt lat="48.41454" lon="2.73744">
        <ele>73</ele>
        <time>2023-04-16T06:06:00.706Z</time>
      </trkpt>
      <trkpt lat="48.41461" lon="2.73745">
        <ele>76</ele>
        <time>2023-04-16T06:06:05.261Z</time>
      </trkpt>
      <trkpt lat="48.41467" lon="2.73752">
        <ele>76</ele>
        <time>2023-04-16T06:06:09.925Z</time>
      </trkpt>
      <trkpt lat="48.41471" lon="2.73758">
        <ele>76</ele>
        <time>2023-04-16T06:06:13.881Z</time>
      </trkpt>
      <trkpt lat="48.41477" lon="2.73764">
        <ele>76</ele>
        <time>2023-04-16T06:06:18.431Z</time>
      </trkpt>
      <trkpt lat="48.41483" lon="2.73769">
        <ele>76</ele>
        <time>2023-04-16T06:06:22.981Z</time>
      </trkpt>
      <trkpt lat="48.41487" lon="2.73775">
        <ele>76</ele>
        <time>2023-04-16T06:06:27.053Z</time>
      </trkpt>
      <trkpt lat="48.41492" lon="2.7378">
        <ele>76</ele>
        <time>2023-04-16T06:06:31.536Z</time>
      </trkpt>
      <trkpt lat="48.41501" lon="2.73779">
        <ele>76</ele>
        <time>2023-04-16T06:06:36.035Z</time>
      </trkpt>
      <trkpt lat="48.41508" lon="2.73784">
        <ele>76</ele>
        <time>2023-04-16T06:06:40.522Z</time>
      </trkpt>
      <trkpt lat="48.41512" lon="2.7379">
        <ele>76</ele>
        <time>2023-04-16T06:06:44.655Z</time>
      </trkpt>
      <trkpt lat="48.41517" lon="2.73799">
        <ele>76</ele>
        <time>2023-04-16T06:06:49.425Z</time>
      </trkpt>
      <trkpt lat="48.41522" lon="2.73807">
        <ele>76</ele>
        <time>2023-04-16T06:06:53.978Z</time>
      </trkpt>
      <trkpt lat="48.41526" lon="2.73814">
        <ele>76</ele>
        <time>2023-04-16T06:06:57.930Z</time>
      </trkpt>
      <trkpt lat="48.41532" lon="2.73821">
        <ele>75</ele>
        <time>2023-04-16T06:07:02.415Z</time>
      </trkpt>
      <trkpt lat="48.41538" lon="2.73824">
        <ele>75</ele>
        <time>2023-04-16T06:07:06.523Z</time>
      </trkpt>
      <trkpt lat="48.41544" lon="2.73831">
        <ele>77</ele>
        <time>2023-04-16T06:07:10.386Z</time>
      </trkpt>
      <trkpt lat="48.41548" lon="2.73837">
        <ele>77</ele>
        <time>2023-04-16T06:07:14.452Z</time>
      </trkpt>
      <trkpt lat="48.41552" lon="2.73844">
        <ele>77</ele>
        <time>2023-04-16T06:07:18.452Z</time>
      </trkpt>
      <trkpt lat="48.41556" lon="2.7385">
        <ele>76</ele>
        <time>2023-04-16T06:07:22.365Z</time>
      </trkpt>
      <trkpt lat="48.4156" lon="2.73858">
        <ele>76</ele>
        <time>2023-04-16T06:07:27.017Z</time>
      </trkpt>
      <trkpt lat="48.41565" lon="2.73866">
        <ele>76</ele>
        <time>2023-04-16T06:07:31.550Z</time>
      </trkpt>
      <trkpt lat="48.41568" lon="2.73875">
        <ele>76</ele>
        <time>2023-04-16T06:07:36.102Z</time>
      </trkpt>
      <trkpt lat="48.41572" lon="2.73883">
        <ele>76</ele>
        <time>2023-04-16T06:07:40.536Z</time>
      </trkpt>
      <trkpt lat="48.41576" lon="2.73889">
        <ele>76</ele>
        <time>2023-04-16T06:07:44.609Z</time>
      </trkpt>
      <trkpt lat="48.4158" lon="2.73895">
        <ele>76</ele>
        <time>2023-04-16T06:07:49.075Z</time>
      </trkpt>
      <trkpt lat="48.41583" lon="2.73901">
        <ele>76</ele>
        <time>2023-04-16T06:07:53.118Z</time>
      </trkpt>
      <trkpt lat="48.41587" lon="2.73907">
        <ele>77</ele>
        <time>2023-04-16T06:07:57.161Z</time>
      </trkpt>
      <trkpt lat="48.41591" lon="2.73915">
        <ele>77</ele>
        <time>2023-04-16T06:08:01.881Z</time>
      </trkpt>
      <trkpt lat="48.41594" lon="2.7392">
        <ele>77</ele>
        <time>2023-04-16T06:08:05.913Z</time>
      </trkpt>
      <trkpt lat="48.41598" lon="2.73925">
        <ele>78</ele>
        <time>2023-04-16T06:08:09.867Z</time>
      </trkpt>
      <trkpt lat="48.41604" lon="2.7393">
        <ele>78</ele>
        <time>2023-04-16T06:08:14.299Z</time>
      </trkpt>
      <trkpt lat="48.4161" lon="2.73933">
        <ele>80</ele>
        <time>2023-04-16T06:08:18.851Z</time>
      </trkpt>
      <trkpt lat="48.41611" lon="2.73941">
        <ele>80</ele>
        <time>2023-04-16T06:08:22.683Z</time>
      </trkpt>
      <trkpt lat="48.41613" lon="2.73947">
        <ele>80</ele>
        <time>2023-04-16T06:08:27.140Z</time>
      </trkpt>
      <trkpt lat="48.41619" lon="2.73949">
        <ele>80</ele>
        <time>2023-04-16T06:08:31.668Z</time>
      </trkpt>
      <trkpt lat="48.41625" lon="2.73953">
        <ele>81</ele>
        <time>2023-04-16T06:08:35.622Z</time>
      </trkpt>
      <trkpt lat="48.41631" lon="2.73958">
        <ele>81</ele>
        <time>2023-04-16T06:08:39.696Z</time>
      </trkpt>
      <trkpt lat="48.41638" lon="2.73963">
        <ele>86</ele>
        <time>2023-04-16T06:08:44.249Z</time>
      </trkpt>
      <trkpt lat="48.41644" lon="2.73965">
        <ele>86</ele>
        <time>2023-04-16T06:08:48.744Z</time>
      </trkpt>
      <trkpt lat="48.41649" lon="2.73967">
        <ele>86</ele>
        <time>2023-04-16T06:08:53.058Z</time>
      </trkpt>
      <trkpt lat="48.41656" lon="2.7397">
        <ele>86</ele>
        <time>2023-04-16T06:08:57.663Z</time>
      </trkpt>
      <trkpt lat="48.4166" lon="2.73972">
        <ele>86</ele>
        <time>2023-04-16T06:09:01.683Z</time>
      </trkpt>
      <trkpt lat="48.41663" lon="2.73973">
        <ele>86</ele>
        <time>2023-04-16T06:09:06.149Z</time>
      </trkpt>
      <trkpt lat="48.41668" lon="2.73973">
        <ele>86</ele>
        <time>2023-04-16T06:09:10.252Z</time>
      </trkpt>
      <trkpt lat="48.41673" lon="2.73974">
        <ele>86</ele>
        <time>2023-04-16T06:09:14.326Z</time>
      </trkpt>
      <trkpt lat="48.41678" lon="2.73977">
        <ele>86</ele>
        <time>2023-04-16T06:09:18.863Z</time>
      </trkpt>
      <trkpt lat="48.41684" lon="2.7398">
        <ele>84</ele>
        <time>2023-04-16T06:09:22.894Z</time>
      </trkpt>
      <trkpt lat="48.41689" lon="2.73983">
        <ele>84</ele>
        <time>2023-04-16T06:09:26.848Z</time>
      </trkpt>
      <trkpt lat="48.41694" lon="2.73987">
        <ele>88</ele>
        <time>2023-04-16T06:09:30.683Z</time>
      </trkpt>
      <trkpt lat="48.41699" lon="2.73991">
        <ele>88</ele>
        <time>2023-04-16T06:09:34.758Z</time>
      </trkpt>
      <trkpt lat="48.41703" lon="2.73995">
        <ele>88</ele>
        <time>2023-04-16T06:09:39.431Z</time>
      </trkpt>
      <trkpt lat="48.41708" lon="2.74">
        <ele>88</ele>
        <time>2023-04-16T06:09:43.452Z</time>
      </trkpt>
      <trkpt lat="48.41713" lon="2.74003">
        <ele>86</ele>
        <time>2023-04-16T06:09:47.840Z</time>
      </trkpt>
      <trkpt lat="48.41718" lon="2.74006">
        <ele>86</ele>
        <time>2023-04-16T06:09:51.652Z</time>
      </trkpt>
      <trkpt lat="48.41724" lon="2.7401">
        <ele>86</ele>
        <time>2023-04-16T06:09:56.426Z</time>
      </trkpt>
      <trkpt lat="48.41729" lon="2.74013">
        <ele>86</ele>
        <time>2023-04-16T06:10:00.381Z</time>
      </trkpt>
      <trkpt lat="48.41735" lon="2.74016">
        <ele>90</ele>
        <time>2023-04-16T06:10:04.998Z</time>
      </trkpt>
      <trkpt lat="48.4174" lon="2.74017">
        <ele>88</ele>
        <time>2023-04-16T06:10:09.010Z</time>
      </trkpt>
      <trkpt lat="48.41748" lon="2.74021">
        <ele>88</ele>
        <time>2023-04-16T06:10:13.684Z</time>
      </trkpt>
      <trkpt lat="48.41755" lon="2.74024">
        <ele>88</ele>
        <time>2023-04-16T06:10:18.452Z</time>
      </trkpt>
      <trkpt lat="48.4176" lon="2.74028">
        <ele>88</ele>
        <time>2023-04-16T06:10:22.793Z</time>
      </trkpt>
      <trkpt lat="48.41766" lon="2.74031">
        <ele>88</ele>
        <time>2023-04-16T06:10:27.447Z</time>
      </trkpt>
      <trkpt lat="48.41774" lon="2.74033">
        <ele>88</ele>
        <time>2023-04-16T06:10:31.961Z</time>
      </trkpt>
      <trkpt lat="48.41781" lon="2.74035">
        <ele>88</ele>
        <time>2023-04-16T06:10:36.395Z</time>
      </trkpt>
      <trkpt lat="48.41786" lon="2.74037">
        <ele>88</ele>
        <time>2023-04-16T06:10:40.348Z</time>
      </trkpt>
      <trkpt lat="48.41791" lon="2.74038">
        <ele>88</ele>
        <time>2023-04-16T06:10:44.541Z</time>
      </trkpt>
      <trkpt lat="48.41796" lon="2.7404">
        <ele>90</ele>
        <time>2023-04-16T06:10:48.452Z</time>
      </trkpt>
      <trkpt lat="48.41802" lon="2.74043">
        <ele>90</ele>
        <time>2023-04-16T06:10:52.571Z</time>
      </trkpt>
      <trkpt lat="48.41808" lon="2.74046">
        <ele>90</ele>
        <time>2023-04-16T06:10:56.946Z</time>
      </trkpt>
      <trkpt lat="48.41814" lon="2.74048">
        <ele>90</ele>
        <time>2023-04-16T06:11:00.762Z</time>
      </trkpt>
      <trkpt lat="48.41821" lon="2.74049">
        <ele>91</ele>
        <time>2023-04-16T06:11:04.957Z</time>
      </trkpt>
      <trkpt lat="48.41827" lon="2.7405">
        <ele>91</ele>
        <time>2023-04-16T06:11:09.630Z</time>
      </trkpt>
      <trkpt lat="48.41833" lon="2.7405">
        <ele>91</ele>
        <time>2023-04-16T06:11:13.664Z</time>
      </trkpt>
      <trkpt lat="48.41839" lon="2.74052">
        <ele>91</ele>
        <time>2023-04-16T06:11:18.297Z</time>
      </trkpt>
      <trkpt lat="48.41845" lon="2.74054">
        <ele>91</ele>
        <time>2023-04-16T06:11:22.791Z</time>
      </trkpt>
      <trkpt lat="48.41851" lon="2.74058">
        <ele>91</ele>
        <time>2023-04-16T06:11:26.705Z</time>
      </trkpt>
      <trkpt lat="48.41856" lon="2.74061">
        <ele>91</ele>
        <time>2023-04-16T06:11:30.660Z</time>
      </trkpt>
      <trkpt lat="48.41858" lon="2.74064">
        <ele>91</ele>
        <time>2023-04-16T06:11:35.152Z</time>
      </trkpt>
      <trkpt lat="48.41858" lon="2.74065">
        <ele>91</ele>
        <time>2023-04-16T06:11:39.151Z</time>
      </trkpt>
      <trkpt lat="48.4186" lon="2.74064">
        <ele>91</ele>
        <time>2023-04-16T06:11:43.328Z</time>
      </trkpt>
      <trkpt lat="48.41862" lon="2.74064">
        <ele>91</ele>
        <time>2023-04-16T06:11:47.970Z</time>
      </trkpt>
      <trkpt lat="48.41866" lon="2.74065">
        <ele>91</ele>
        <time>2023-04-16T06:11:52.890Z</time>
      </trkpt>
      <trkpt lat="48.41868" lon="2.74062">
        <ele>91</ele>
        <time>2023-04-16T06:11:57.130Z</time>
      </trkpt>
      <trkpt lat="48.41876" lon="2.74062">
        <ele>90</ele>
        <time>2023-04-16T06:14:18.123Z</time>
      </trkpt>
      <trkpt lat="48.41876" lon="2.74061">
        <ele>90</ele>
        <time>2023-04-16T06:14:22.145Z</time>
      </trkpt>
      <trkpt lat="48.41878" lon="2.7406">
        <ele>90</ele>
        <time>2023-04-16T06:14:26.155Z</time>
      </trkpt>
      <trkpt lat="48.4188" lon="2.74061">
        <ele>90</ele>
        <time>2023-04-16T06:14:30.340Z</time>
      </trkpt>
      <trkpt lat="48.41885" lon="2.74063">
        <ele>90</ele>
        <time>2023-04-16T06:14:34.362Z</time>
      </trkpt>
      <trkpt lat="48.41892" lon="2.74064">
        <ele>90</ele>
        <time>2023-04-16T06:14:38.364Z</time>
      </trkpt>
      <trkpt lat="48.41899" lon="2.74065">
        <ele>90</ele>
        <time>2023-04-16T06:14:43.124Z</time>
      </trkpt>
      <trkpt lat="48.41906" lon="2.74068">
        <ele>89</ele>
        <time>2023-04-16T06:14:47.564Z</time>
      </trkpt>
      <trkpt lat="48.4191" lon="2.7407">
        <ele>89</ele>
        <time>2023-04-16T06:14:51.502Z</time>
      </trkpt>
      <trkpt lat="48.41915" lon="2.74073">
        <ele>89</ele>
        <time>2023-04-16T06:14:55.561Z</time>
      </trkpt>
      <trkpt lat="48.41921" lon="2.74076">
        <ele>89</ele>
        <time>2023-04-16T06:15:00.599Z</time>
      </trkpt>
      <trkpt lat="48.41925" lon="2.74081">
        <ele>89</ele>
        <time>2023-04-16T06:15:05.162Z</time>
      </trkpt>
      <trkpt lat="48.41929" lon="2.74086">
        <ele>89</ele>
        <time>2023-04-16T06:15:09.255Z</time>
      </trkpt>
      <trkpt lat="48.41934" lon="2.7409">
        <ele>87</ele>
        <time>2023-04-16T06:15:13.577Z</time>
      </trkpt>
      <trkpt lat="48.41939" lon="2.74094">
        <ele>87</ele>
        <time>2023-04-16T06:15:18.131Z</time>
      </trkpt>
      <trkpt lat="48.41945" lon="2.74097">
        <ele>87</ele>
        <time>2023-04-16T06:15:22.564Z</time>
      </trkpt>
      <trkpt lat="48.41951" lon="2.741">
        <ele>87</ele>
        <time>2023-04-16T06:15:26.640Z</time>
      </trkpt>
      <trkpt lat="48.41957" lon="2.74102">
        <ele>87</ele>
        <time>2023-04-16T06:15:30.452Z</time>
      </trkpt>
      <trkpt lat="48.41964" lon="2.74105">
        <ele>84</ele>
        <time>2023-04-16T06:15:34.945Z</time>
      </trkpt>
      <trkpt lat="48.41971" lon="2.7411">
        <ele>84</ele>
        <time>2023-04-16T06:15:39.324Z</time>
      </trkpt>
      <trkpt lat="48.41979" lon="2.74114">
        <ele>84</ele>
        <time>2023-04-16T06:15:43.624Z</time>
      </trkpt>
      <trkpt lat="48.41986" lon="2.74116">
        <ele>84</ele>
        <time>2023-04-16T06:15:47.841Z</time>
      </trkpt>
      <trkpt lat="48.41993" lon="2.74117">
        <ele>82</ele>
        <time>2023-04-16T06:15:52.065Z</time>
      </trkpt>
      <trkpt lat="48.42" lon="2.74117">
        <ele>82</ele>
        <time>2023-04-16T06:15:56.646Z</time>
      </trkpt>
      <trkpt lat="48.42005" lon="2.74119">
        <ele>82</ele>
        <time>2023-04-16T06:16:00.739Z</time>
      </trkpt>
      <trkpt lat="48.42011" lon="2.7412">
        <ele>82</ele>
        <time>2023-04-16T06:16:04.387Z</time>
      </trkpt>
      <trkpt lat="48.42017" lon="2.74121">
        <ele>81</ele>
        <time>2023-04-16T06:16:08.409Z</time>
      </trkpt>
      <trkpt lat="48.42023" lon="2.74124">
        <ele>81</ele>
        <time>2023-04-16T06:16:13.452Z</time>
      </trkpt>
      <trkpt lat="48.42028" lon="2.74126">
        <ele>81</ele>
        <time>2023-04-16T06:16:17.867Z</time>
      </trkpt>
      <trkpt lat="48.42033" lon="2.74127">
        <ele>81</ele>
        <time>2023-04-16T06:16:21.548Z</time>
      </trkpt>
      <trkpt lat="48.42039" lon="2.7413">
        <ele>81</ele>
        <time>2023-04-16T06:16:25.549Z</time>
      </trkpt>
      <trkpt lat="48.42043" lon="2.74133">
        <ele>79</ele>
        <time>2023-04-16T06:16:29.552Z</time>
      </trkpt>
      <trkpt lat="48.42045" lon="2.74137">
        <ele>79</ele>
        <time>2023-04-16T06:16:33.654Z</time>
      </trkpt>
      <trkpt lat="48.4205" lon="2.7414">
        <ele>79</ele>
        <time>2023-04-16T06:16:38.158Z</time>
      </trkpt>
      <trkpt lat="48.42054" lon="2.74142">
        <ele>79</ele>
        <time>2023-04-16T06:16:42.660Z</time>
      </trkpt>
      <trkpt lat="48.42059" lon="2.74145">
        <ele>79</ele>
        <time>2023-04-16T06:16:46.762Z</time>
      </trkpt>
      <trkpt lat="48.42064" lon="2.74147">
        <ele>79</ele>
        <time>2023-04-16T06:16:51.004Z</time>
      </trkpt>
      <trkpt lat="48.42068" lon="2.74149">
        <ele>79</ele>
        <time>2023-04-16T06:16:55.008Z</time>
      </trkpt>
      <trkpt lat="48.42075" lon="2.74149">
        <ele>77</ele>
        <time>2023-04-16T06:16:59.512Z</time>
      </trkpt>
      <trkpt lat="48.42083" lon="2.74148">
        <ele>77</ele>
        <time>2023-04-16T06:17:04.014Z</time>
      </trkpt>
      <trkpt lat="48.42092" lon="2.74148">
        <ele>77</ele>
        <time>2023-04-16T06:17:08.143Z</time>
      </trkpt>
      <trkpt lat="48.42102" lon="2.74148">
        <ele>77</ele>
        <time>2023-04-16T06:17:12.737Z</time>
      </trkpt>
      <trkpt lat="48.42114" lon="2.74151">
        <ele>77</ele>
        <time>2023-04-16T06:17:17.319Z</time>
      </trkpt>
      <trkpt lat="48.42119" lon="2.74154">
        <ele>79</ele>
        <time>2023-04-16T06:17:21.922Z</time>
      </trkpt>
      <trkpt lat="48.42126" lon="2.74157">
        <ele>78</ele>
        <time>2023-04-16T06:17:25.841Z</time>
      </trkpt>
      <trkpt lat="48.42134" lon="2.7416">
        <ele>78</ele>
        <time>2023-04-16T06:17:30.483Z</time>
      </trkpt>
      <trkpt lat="48.42141" lon="2.74161">
        <ele>78</ele>
        <time>2023-04-16T06:17:34.743Z</time>
      </trkpt>
      <trkpt lat="48.42148" lon="2.74164">
        <ele>78</ele>
        <time>2023-04-16T06:17:39.043Z</time>
      </trkpt>
      <trkpt lat="48.42154" lon="2.74167">
        <ele>77</ele>
        <time>2023-04-16T06:17:43.004Z</time>
      </trkpt>
      <trkpt lat="48.4216" lon="2.74168">
        <ele>77</ele>
        <time>2023-04-16T06:17:47.452Z</time>
      </trkpt>
      <trkpt lat="48.42166" lon="2.7417">
        <ele>77</ele>
        <time>2023-04-16T06:17:52.133Z</time>
      </trkpt>
      <trkpt lat="48.42171" lon="2.74172">
        <ele>77</ele>
        <time>2023-04-16T06:17:56.018Z</time>
      </trkpt>
      <trkpt lat="48.42177" lon="2.74175">
        <ele>77</ele>
        <time>2023-04-16T06:18:00.574Z</time>
      </trkpt>
      <trkpt lat="48.42181" lon="2.74177">
        <ele>75</ele>
        <time>2023-04-16T06:18:04.650Z</time>
      </trkpt>
      <trkpt lat="48.42187" lon="2.7418">
        <ele>75</ele>
        <time>2023-04-16T06:18:09.146Z</time>
      </trkpt>
      <trkpt lat="48.42194" lon="2.74182">
        <ele>78</ele>
        <time>2023-04-16T06:18:13.675Z</time>
      </trkpt>
      <trkpt lat="48.42199" lon="2.74185">
        <ele>78</ele>
        <time>2023-04-16T06:18:18.155Z</time>
      </trkpt>
      <trkpt lat="48.42204" lon="2.74189">
        <ele>78</ele>
        <time>2023-04-16T06:18:22.600Z</time>
      </trkpt>
      <trkpt lat="48.42208" lon="2.74193">
        <ele>78</ele>
        <time>2023-04-16T06:18:27.003Z</time>
      </trkpt>
      <trkpt lat="48.42212" lon="2.74195">
        <ele>77</ele>
        <time>2023-04-16T06:18:31.057Z</time>
      </trkpt>
      <trkpt lat="48.42215" lon="2.74197">
        <ele>77</ele>
        <time>2023-04-16T06:18:35.078Z</time>
      </trkpt>
      <trkpt lat="48.42219" lon="2.74199">
        <ele>77</ele>
        <time>2023-04-16T06:18:38.935Z</time>
      </trkpt>
      <trkpt lat="48.42225" lon="2.74201">
        <ele>77</ele>
        <time>2023-04-16T06:18:42.913Z</time>
      </trkpt>
      <trkpt lat="48.42232" lon="2.74204">
        <ele>77</ele>
        <time>2023-04-16T06:18:47.351Z</time>
      </trkpt>
      <trkpt lat="48.4224" lon="2.74207">
        <ele>79</ele>
        <time>2023-04-16T06:18:51.789Z</time>
      </trkpt>
      <trkpt lat="48.42246" lon="2.74208">
        <ele>80</ele>
        <time>2023-04-16T06:18:55.807Z</time>
      </trkpt>
      <trkpt lat="48.42255" lon="2.7421">
        <ele>80</ele>
        <time>2023-04-16T06:19:00.917Z</time>
      </trkpt>
      <trkpt lat="48.42262" lon="2.74212">
        <ele>80</ele>
        <time>2023-04-16T06:19:05.422Z</time>
      </trkpt>
      <trkpt lat="48.4227" lon="2.74216">
        <ele>77</ele>
        <time>2023-04-16T06:19:10.452Z</time>
      </trkpt>
      <trkpt lat="48.42278" lon="2.74219">
        <ele>77</ele>
        <time>2023-04-16T06:19:15.399Z</time>
      </trkpt>
      <trkpt lat="48.42285" lon="2.74222">
        <ele>77</ele>
        <time>2023-04-16T06:19:19.799Z</time>
      </trkpt>
      <trkpt lat="48.42293" lon="2.74224">
        <ele>74</ele>
        <time>2023-04-16T06:19:24.440Z</time>
      </trkpt>
      <trkpt lat="48.423" lon="2.74227">
        <ele>74</ele>
        <time>2023-04-16T06:19:28.899Z</time>
      </trkpt>
      <trkpt lat="48.42306" lon="2.74231">
        <ele>74</ele>
        <time>2023-04-16T06:19:33.239Z</time>
      </trkpt>
      <trkpt lat="48.42313" lon="2.74234">
        <ele>74</ele>
        <time>2023-04-16T06:19:37.660Z</time>
      </trkpt>
      <trkpt lat="48.42318" lon="2.74237">
        <ele>74</ele>
        <time>2023-04-16T06:19:42.148Z</time>
      </trkpt>
      <trkpt lat="48.42323" lon="2.74239">
        <ele>71</ele>
        <time>2023-04-16T06:19:46.154Z</time>
      </trkpt>
      <trkpt lat="48.42329" lon="2.74241">
        <ele>71</ele>
        <time>2023-04-16T06:19:50.593Z</time>
      </trkpt>
      <trkpt lat="48.42333" lon="2.74243">
        <ele>71</ele>
        <time>2023-04-16T06:19:55.031Z</time>
      </trkpt>
      <trkpt lat="48.42339" lon="2.74245">
        <ele>71</ele>
        <time>2023-04-16T06:19:59.452Z</time>
      </trkpt>
      <trkpt lat="48.42346" lon="2.74247">
        <ele>71</ele>
        <time>2023-04-16T06:20:03.889Z</time>
      </trkpt>
      <trkpt lat="48.42353" lon="2.74249">
        <ele>70</ele>
        <time>2023-04-16T06:20:07.907Z</time>
      </trkpt>
      <trkpt lat="48.4236" lon="2.74253">
        <ele>70</ele>
        <time>2023-04-16T06:20:12.386Z</time>
      </trkpt>
      <trkpt lat="48.42365" lon="2.74255">
        <ele>70</ele>
        <time>2023-04-16T06:20:16.746Z</time>
      </trkpt>
      <trkpt lat="48.42371" lon="2.74257">
        <ele>70</ele>
        <time>2023-04-16T06:20:21.307Z</time>
      </trkpt>
      <trkpt lat="48.42378" lon="2.7426">
        <ele>67</ele>
        <time>2023-04-16T06:20:25.706Z</time>
      </trkpt>
      <trkpt lat="48.42386" lon="2.74264">
        <ele>67</ele>
        <time>2023-04-16T06:20:30.527Z</time>
      </trkpt>
      <trkpt lat="48.42392" lon="2.74268">
        <ele>67</ele>
        <time>2023-04-16T06:20:35.007Z</time>
      </trkpt>
      <trkpt lat="48.42398" lon="2.74273">
        <ele>67</ele>
        <time>2023-04-16T06:20:39.048Z</time>
      </trkpt>
      <trkpt lat="48.42406" lon="2.74275">
        <ele>63</ele>
        <time>2023-04-16T06:20:43.510Z</time>
      </trkpt>
      <trkpt lat="48.42413" lon="2.74276">
        <ele>63</ele>
        <time>2023-04-16T06:20:47.690Z</time>
      </trkpt>
      <trkpt lat="48.42419" lon="2.74275">
        <ele>63</ele>
        <time>2023-04-16T06:20:52.192Z</time>
      </trkpt>
      <trkpt lat="48.42427" lon="2.74272">
        <ele>63</ele>
        <time>2023-04-16T06:20:56.432Z</time>
      </trkpt>
      <trkpt lat="48.42433" lon="2.74265">
        <ele>59</ele>
        <time>2023-04-16T06:21:01.813Z</time>
      </trkpt>
      <trkpt lat="48.42438" lon="2.74267">
        <ele>59</ele>
        <time>2023-04-16T06:21:06.133Z</time>
      </trkpt>
      <trkpt lat="48.42442" lon="2.74275">
        <ele>59</ele>
        <time>2023-04-16T06:21:09.973Z</time>
      </trkpt>
      <trkpt lat="48.42445" lon="2.74284">
        <ele>59</ele>
        <time>2023-04-16T06:21:14.333Z</time>
      </trkpt>
      <trkpt lat="48.42449" lon="2.7429">
        <ele>59</ele>
        <time>2023-04-16T06:21:18.534Z</time>
      </trkpt>
      <trkpt lat="48.42451" lon="2.74298">
        <ele>58</ele>
        <time>2023-04-16T06:21:22.735Z</time>
      </trkpt>
      <trkpt lat="48.42452" lon="2.74305">
        <ele>58</ele>
        <time>2023-04-16T06:21:26.857Z</time>
      </trkpt>
      <trkpt lat="48.42451" lon="2.74313">
        <ele>58</ele>
        <time>2023-04-16T06:21:31.056Z</time>
      </trkpt>
      <trkpt lat="48.42448" lon="2.74321">
        <ele>52</ele>
        <time>2023-04-16T06:21:35.396Z</time>
      </trkpt>
      <trkpt lat="48.42444" lon="2.74328">
        <ele>52</ele>
        <time>2023-04-16T06:21:39.756Z</time>
      </trkpt>
      <trkpt lat="48.42439" lon="2.74333">
        <ele>52</ele>
        <time>2023-04-16T06:21:44.075Z</time>
      </trkpt>
      <trkpt lat="48.42434" lon="2.74337">
        <ele>52</ele>
        <time>2023-04-16T06:21:48.937Z</time>
      </trkpt>
      <trkpt lat="48.42429" lon="2.74342">
        <ele>55</ele>
        <time>2023-04-16T06:21:52.935Z</time>
      </trkpt>
      <trkpt lat="48.42425" lon="2.74347">
        <ele>55</ele>
        <time>2023-04-16T06:21:56.615Z</time>
      </trkpt>
      <trkpt lat="48.4242" lon="2.74351">
        <ele>49</ele>
        <time>2023-04-16T06:22:01.017Z</time>
      </trkpt>
      <trkpt lat="48.42422" lon="2.7436">
        <ele>49</ele>
        <time>2023-04-16T06:22:05.436Z</time>
      </trkpt>
      <trkpt lat="48.42429" lon="2.74366">
        <ele>49</ele>
        <time>2023-04-16T06:22:09.334Z</time>
      </trkpt>
      <trkpt lat="48.42435" lon="2.74366">
        <ele>47</ele>
        <time>2023-04-16T06:22:13.694Z</time>
      </trkpt>
      <trkpt lat="48.42442" lon="2.74364">
        <ele>47</ele>
        <time>2023-04-16T06:22:18.676Z</time>
      </trkpt>
      <trkpt lat="48.42447" lon="2.74362">
        <ele>47</ele>
        <time>2023-04-16T06:22:22.955Z</time>
      </trkpt>
      <trkpt lat="48.42453" lon="2.74365">
        <ele>47</ele>
        <time>2023-04-16T06:22:27.719Z</time>
      </trkpt>
      <trkpt lat="48.42459" lon="2.74365">
        <ele>46</ele>
        <time>2023-04-16T06:22:31.554Z</time>
      </trkpt>
      <trkpt lat="48.42462" lon="2.74363">
        <ele>46</ele>
        <time>2023-04-16T06:22:35.715Z</time>
      </trkpt>
      <trkpt lat="48.42469" lon="2.74368">
        <ele>46</ele>
        <time>2023-04-16T06:22:40.800Z</time>
      </trkpt>
      <trkpt lat="48.42474" lon="2.74369">
        <ele>46</ele>
        <time>2023-04-16T06:22:44.978Z</time>
      </trkpt>
      <trkpt lat="48.4248" lon="2.74368">
        <ele>46</ele>
        <time>2023-04-16T06:22:49.618Z</time>
      </trkpt>
      <trkpt lat="48.42485" lon="2.74367">
        <ele>46</ele>
        <time>2023-04-16T06:22:54.121Z</time>
      </trkpt>
      <trkpt lat="48.42489" lon="2.74367">
        <ele>45</ele>
        <time>2023-04-16T06:22:58.142Z</time>
      </trkpt>
      <trkpt lat="48.42494" lon="2.74364">
        <ele>45</ele>
        <time>2023-04-16T06:23:02.303Z</time>
      </trkpt>
      <trkpt lat="48.425" lon="2.74361">
        <ele>45</ele>
        <time>2023-04-16T06:23:06.683Z</time>
      </trkpt>
      <trkpt lat="48.42505" lon="2.74357">
        <ele>45</ele>
        <time>2023-04-16T06:23:11.284Z</time>
      </trkpt>
      <trkpt lat="48.42512" lon="2.74354">
        <ele>45</ele>
        <time>2023-04-16T06:23:15.724Z</time>
      </trkpt>
      <trkpt lat="48.42518" lon="2.74351">
        <ele>47</ele>
        <time>2023-04-16T06:23:19.965Z</time>
      </trkpt>
      <trkpt lat="48.42523" lon="2.74347">
        <ele>47</ele>
        <time>2023-04-16T06:23:24.086Z</time>
      </trkpt>
      <trkpt lat="48.42529" lon="2.74345">
        <ele>46</ele>
        <time>2023-04-16T06:23:28.247Z</time>
      </trkpt>
      <trkpt lat="48.42535" lon="2.74342">
        <ele>46</ele>
        <time>2023-04-16T06:23:32.460Z</time>
      </trkpt>
      <trkpt lat="48.42542" lon="2.74338">
        <ele>46</ele>
        <time>2023-04-16T06:23:36.787Z</time>
      </trkpt>
      <trkpt lat="48.42548" lon="2.74335">
        <ele>46</ele>
        <time>2023-04-16T06:23:41.029Z</time>
      </trkpt>
      <trkpt lat="48.42556" lon="2.74331">
        <ele>46</ele>
        <time>2023-04-16T06:23:45.369Z</time>
      </trkpt>
      <trkpt lat="48.42564" lon="2.74328">
        <ele>46</ele>
        <time>2023-04-16T06:23:50.269Z</time>
      </trkpt>
      <trkpt lat="48.42571" lon="2.74327">
        <ele>47</ele>
        <time>2023-04-16T06:23:54.729Z</time>
      </trkpt>
      <trkpt lat="48.42578" lon="2.74326">
        <ele>47</ele>
        <time>2023-04-16T06:23:59.431Z</time>
      </trkpt>
      <trkpt lat="48.42585" lon="2.74323">
        <ele>47</ele>
        <time>2023-04-16T06:24:03.751Z</time>
      </trkpt>
      <trkpt lat="48.42591" lon="2.74322">
        <ele>47</ele>
        <time>2023-04-16T06:24:08.452Z</time>
      </trkpt>
      <trkpt lat="48.42598" lon="2.74321">
        <ele>50</ele>
        <time>2023-04-16T06:24:12.572Z</time>
      </trkpt>
      <trkpt lat="48.42602" lon="2.74322">
        <ele>50</ele>
        <time>2023-04-16T06:24:16.452Z</time>
      </trkpt>
      <trkpt lat="48.42607" lon="2.74328">
        <ele>50</ele>
        <time>2023-04-16T06:24:21.113Z</time>
      </trkpt>
      <trkpt lat="48.42615" lon="2.74332">
        <ele>50</ele>
        <time>2023-04-16T06:24:25.434Z</time>
      </trkpt>
      <trkpt lat="48.42622" lon="2.74334">
        <ele>50</ele>
        <time>2023-04-16T06:24:29.873Z</time>
      </trkpt>
      <trkpt lat="48.4263" lon="2.74336">
        <ele>51</ele>
        <time>2023-04-16T06:24:34.431Z</time>
      </trkpt>
      <trkpt lat="48.42637" lon="2.74336">
        <ele>51</ele>
        <time>2023-04-16T06:24:38.989Z</time>
      </trkpt>
      <trkpt lat="48.42643" lon="2.74337">
        <ele>51</ele>
        <time>2023-04-16T06:24:43.230Z</time>
      </trkpt>
      <trkpt lat="48.42651" lon="2.74336">
        <ele>51</ele>
        <time>2023-04-16T06:24:48.030Z</time>
      </trkpt>
      <trkpt lat="48.42658" lon="2.74334">
        <ele>50</ele>
        <time>2023-04-16T06:24:51.929Z</time>
      </trkpt>
      <trkpt lat="48.42665" lon="2.74332">
        <ele>50</ele>
        <time>2023-04-16T06:24:56.267Z</time>
      </trkpt>
      <trkpt lat="48.42673" lon="2.7433">
        <ele>50</ele>
        <time>2023-04-16T06:25:00.306Z</time>
      </trkpt>
      <trkpt lat="48.4268" lon="2.74331">
        <ele>50</ele>
        <time>2023-04-16T06:25:05.087Z</time>
      </trkpt>
      <trkpt lat="48.42687" lon="2.74329">
        <ele>50</ele>
        <time>2023-04-16T06:25:09.649Z</time>
      </trkpt>
      <trkpt lat="48.42693" lon="2.74327">
        <ele>50</ele>
        <time>2023-04-16T06:25:14.151Z</time>
      </trkpt>
      <trkpt lat="48.427" lon="2.74326">
        <ele>50</ele>
        <time>2023-04-16T06:25:18.333Z</time>
      </trkpt>
      <trkpt lat="48.42707" lon="2.74327">
        <ele>50</ele>
        <time>2023-04-16T06:25:23.054Z</time>
      </trkpt>
      <trkpt lat="48.42713" lon="2.74327">
        <ele>50</ele>
        <time>2023-04-16T06:25:27.275Z</time>
      </trkpt>
      <trkpt lat="48.42719" lon="2.74327">
        <ele>50</ele>
        <time>2023-04-16T06:25:31.277Z</time>
      </trkpt>
      <trkpt lat="48.42726" lon="2.74328">
        <ele>50</ele>
        <time>2023-04-16T06:25:35.779Z</time>
      </trkpt>
      <trkpt lat="48.42734" lon="2.74327">
        <ele>50</ele>
        <time>2023-04-16T06:25:40.460Z</time>
      </trkpt>
      <trkpt lat="48.4274" lon="2.74326">
        <ele>50</ele>
        <time>2023-04-16T06:25:44.541Z</time>
      </trkpt>
      <trkpt lat="48.42746" lon="2.74326">
        <ele>50</ele>
        <time>2023-04-16T06:25:49.043Z</time>
      </trkpt>
      <trkpt lat="48.42751" lon="2.74327">
        <ele>50</ele>
        <time>2023-04-16T06:25:53.125Z</time>
      </trkpt>
      <trkpt lat="48.42757" lon="2.74328">
        <ele>50</ele>
        <time>2023-04-16T06:25:57.447Z</time>
      </trkpt>
      <trkpt lat="48.42762" lon="2.74329">
        <ele>50</ele>
        <time>2023-04-16T06:26:02.030Z</time>
      </trkpt>
      <trkpt lat="48.42768" lon="2.74331">
        <ele>51</ele>
        <time>2023-04-16T06:26:06.330Z</time>
      </trkpt>
      <trkpt lat="48.42775" lon="2.74334">
        <ele>51</ele>
        <time>2023-04-16T06:26:10.711Z</time>
      </trkpt>
      <trkpt lat="48.42781" lon="2.74337">
        <ele>51</ele>
        <time>2023-04-16T06:26:14.952Z</time>
      </trkpt>
      <trkpt lat="48.42788" lon="2.74339">
        <ele>51</ele>
        <time>2023-04-16T06:26:19.554Z</time>
      </trkpt>
      <trkpt lat="48.42795" lon="2.74339">
        <ele>51</ele>
        <time>2023-04-16T06:26:24.115Z</time>
      </trkpt>
      <trkpt lat="48.42803" lon="2.74337">
        <ele>51</ele>
        <time>2023-04-16T06:26:28.697Z</time>
      </trkpt>
      <trkpt lat="48.42809" lon="2.74337">
        <ele>51</ele>
        <time>2023-04-16T06:26:33.139Z</time>
      </trkpt>
      <trkpt lat="48.42816" lon="2.74338">
        <ele>51</ele>
        <time>2023-04-16T06:26:37.418Z</time>
      </trkpt>
      <trkpt lat="48.42823" lon="2.74341">
        <ele>51</ele>
        <time>2023-04-16T06:26:41.938Z</time>
      </trkpt>
      <trkpt lat="48.42829" lon="2.74345">
        <ele>51</ele>
        <time>2023-04-16T06:26:46.452Z</time>
      </trkpt>
      <trkpt lat="48.42835" lon="2.74349">
        <ele>48</ele>
        <time>2023-04-16T06:26:50.996Z</time>
      </trkpt>
      <trkpt lat="48.42841" lon="2.74353">
        <ele>48</ele>
        <time>2023-04-16T06:26:55.575Z</time>
      </trkpt>
      <trkpt lat="48.42847" lon="2.74357">
        <ele>48</ele>
        <time>2023-04-16T06:26:59.958Z</time>
      </trkpt>
      <trkpt lat="48.42852" lon="2.74362">
        <ele>49</ele>
        <time>2023-04-16T06:27:04.012Z</time>
      </trkpt>
      <trkpt lat="48.42861" lon="2.74367">
        <ele>49</ele>
        <time>2023-04-16T06:27:09.023Z</time>
      </trkpt>
      <trkpt lat="48.42869" lon="2.74369">
        <ele>49</ele>
        <time>2023-04-16T06:27:12.928Z</time>
      </trkpt>
      <trkpt lat="48.42876" lon="2.74372">
        <ele>49</ele>
        <time>2023-04-16T06:27:17.308Z</time>
      </trkpt>
      <trkpt lat="48.42883" lon="2.74375">
        <ele>49</ele>
        <time>2023-04-16T06:27:21.969Z</time>
      </trkpt>
      <trkpt lat="48.42891" lon="2.74377">
        <ele>49</ele>
        <time>2023-04-16T06:27:25.710Z</time>
      </trkpt>
      <trkpt lat="48.429" lon="2.74382">
        <ele>49</ele>
        <time>2023-04-16T06:27:30.668Z</time>
      </trkpt>
      <trkpt lat="48.42907" lon="2.74384">
        <ele>49</ele>
        <time>2023-04-16T06:27:35.167Z</time>
      </trkpt>
      <trkpt lat="48.42914" lon="2.74389">
        <ele>49</ele>
        <time>2023-04-16T06:27:39.607Z</time>
      </trkpt>
      <trkpt lat="48.4292" lon="2.74396">
        <ele>49</ele>
        <time>2023-04-16T06:27:44.044Z</time>
      </trkpt>
      <trkpt lat="48.42923" lon="2.74403">
        <ele>48</ele>
        <time>2023-04-16T06:27:47.844Z</time>
      </trkpt>
      <trkpt lat="48.42926" lon="2.74412">
        <ele>48</ele>
        <time>2023-04-16T06:27:52.538Z</time>
      </trkpt>
      <trkpt lat="48.42929" lon="2.74421">
        <ele>48</ele>
        <time>2023-04-16T06:27:56.862Z</time>
      </trkpt>
      <trkpt lat="48.42931" lon="2.74432">
        <ele>48</ele>
        <time>2023-04-16T06:28:01.420Z</time>
      </trkpt>
      <trkpt lat="48.42932" lon="2.74442">
        <ele>48</ele>
        <time>2023-04-16T06:28:06.019Z</time>
      </trkpt>
      <trkpt lat="48.42934" lon="2.74453">
        <ele>48</ele>
        <time>2023-04-16T06:28:09.939Z</time>
      </trkpt>
      <trkpt lat="48.42937" lon="2.74462">
        <ele>45</ele>
        <time>2023-04-16T06:28:14.380Z</time>
      </trkpt>
      <trkpt lat="48.42942" lon="2.74469">
        <ele>45</ele>
        <time>2023-04-16T06:28:18.521Z</time>
      </trkpt>
      <trkpt lat="48.42949" lon="2.74471">
        <ele>45</ele>
        <time>2023-04-16T06:28:22.841Z</time>
      </trkpt>
      <trkpt lat="48.42958" lon="2.7447">
        <ele>45</ele>
        <time>2023-04-16T06:28:27.761Z</time>
      </trkpt>
      <trkpt lat="48.42964" lon="2.74468">
        <ele>45</ele>
        <time>2023-04-16T06:28:32.301Z</time>
      </trkpt>
      <trkpt lat="48.42971" lon="2.74468">
        <ele>45</ele>
        <time>2023-04-16T06:28:36.725Z</time>
      </trkpt>
      <trkpt lat="48.42977" lon="2.74465">
        <ele>45</ele>
        <time>2023-04-16T06:28:41.178Z</time>
      </trkpt>
      <trkpt lat="48.42983" lon="2.74461">
        <ele>45</ele>
        <time>2023-04-16T06:28:45.718Z</time>
      </trkpt>
      <trkpt lat="48.42986" lon="2.74457">
        <ele>49</ele>
        <time>2023-04-16T06:28:49.634Z</time>
      </trkpt>
      <trkpt lat="48.4299" lon="2.74453">
        <ele>49</ele>
        <time>2023-04-16T06:28:54.032Z</time>
      </trkpt>
      <trkpt lat="48.42994" lon="2.7445">
        <ele>49</ele>
        <time>2023-04-16T06:28:58.590Z</time>
      </trkpt>
      <trkpt lat="48.43" lon="2.74451">
        <ele>49</ele>
        <time>2023-04-16T06:29:02.711Z</time>
      </trkpt>
      <trkpt lat="48.43006" lon="2.7445">
        <ele>49</ele>
        <time>2023-04-16T06:29:07.252Z</time>
      </trkpt>
      <trkpt lat="48.43016" lon="2.74448">
        <ele>50</ele>
        <time>2023-04-16T06:29:11.954Z</time>
      </trkpt>
      <trkpt lat="48.43024" lon="2.74444">
        <ele>50</ele>
        <time>2023-04-16T06:29:16.452Z</time>
      </trkpt>
      <trkpt lat="48.43032" lon="2.74443">
        <ele>50</ele>
        <time>2023-04-16T06:29:20.972Z</time>
      </trkpt>
      <trkpt lat="48.43042" lon="2.74442">
        <ele>51</ele>
        <time>2023-04-16T06:29:25.452Z</time>
      </trkpt>
      <trkpt lat="48.43049" lon="2.74441">
        <ele>51</ele>
        <time>2023-04-16T06:29:29.991Z</time>
      </trkpt>
      <trkpt lat="48.43057" lon="2.74441">
        <ele>51</ele>
        <time>2023-04-16T06:29:34.430Z</time>
      </trkpt>
      <trkpt lat="48.43064" lon="2.74441">
        <ele>51</ele>
        <time>2023-04-16T06:29:38.889Z</time>
      </trkpt>
      <trkpt lat="48.43072" lon="2.74442">
        <ele>48</ele>
        <time>2023-04-16T06:29:43.328Z</time>
      </trkpt>
      <trkpt lat="48.43078" lon="2.74444">
        <ele>48</ele>
        <time>2023-04-16T06:29:47.966Z</time>
      </trkpt>
      <trkpt lat="48.43086" lon="2.74441">
        <ele>48</ele>
        <time>2023-04-16T06:29:52.596Z</time>
      </trkpt>
      <trkpt lat="48.43093" lon="2.74442">
        <ele>48</ele>
        <time>2023-04-16T06:29:56.982Z</time>
      </trkpt>
      <trkpt lat="48.431" lon="2.74442">
        <ele>46</ele>
        <time>2023-04-16T06:30:01.361Z</time>
      </trkpt>
      <trkpt lat="48.43107" lon="2.74441">
        <ele>46</ele>
        <time>2023-04-16T06:30:05.440Z</time>
      </trkpt>
      <trkpt lat="48.43114" lon="2.74441">
        <ele>46</ele>
        <time>2023-04-16T06:30:09.999Z</time>
      </trkpt>
      <trkpt lat="48.43121" lon="2.7444">
        <ele>46</ele>
        <time>2023-04-16T06:30:13.953Z</time>
      </trkpt>
      <trkpt lat="48.43128" lon="2.74442">
        <ele>45</ele>
        <time>2023-04-16T06:30:18.452Z</time>
      </trkpt>
      <trkpt lat="48.43134" lon="2.74444">
        <ele>45</ele>
        <time>2023-04-16T06:30:22.452Z</time>
      </trkpt>
      <trkpt lat="48.43143" lon="2.74442">
        <ele>45</ele>
        <time>2023-04-16T06:30:27.024Z</time>
      </trkpt>
      <trkpt lat="48.43151" lon="2.74438">
        <ele>45</ele>
        <time>2023-04-16T06:30:31.622Z</time>
      </trkpt>
      <trkpt lat="48.43157" lon="2.74438">
        <ele>44</ele>
        <time>2023-04-16T06:30:36.060Z</time>
      </trkpt>
      <trkpt lat="48.43163" lon="2.7444">
        <ele>44</ele>
        <time>2023-04-16T06:30:40.597Z</time>
      </trkpt>
      <trkpt lat="48.43169" lon="2.7444">
        <ele>44</ele>
        <time>2023-04-16T06:30:45.172Z</time>
      </trkpt>
      <trkpt lat="48.43175" lon="2.7444">
        <ele>44</ele>
        <time>2023-04-16T06:30:49.693Z</time>
      </trkpt>
      <trkpt lat="48.43181" lon="2.7444">
        <ele>46</ele>
        <time>2023-04-16T06:30:54.153Z</time>
      </trkpt>
      <trkpt lat="48.43187" lon="2.74438">
        <ele>46</ele>
        <time>2023-04-16T06:30:58.177Z</time>
      </trkpt>
      <trkpt lat="48.43195" lon="2.74438">
        <ele>46</ele>
        <time>2023-04-16T06:31:02.686Z</time>
      </trkpt>
      <trkpt lat="48.43203" lon="2.74438">
        <ele>46</ele>
        <time>2023-04-16T06:31:07.204Z</time>
      </trkpt>
      <trkpt lat="48.43213" lon="2.74437">
        <ele>50</ele>
        <time>2023-04-16T06:31:12.133Z</time>
      </trkpt>
      <trkpt lat="48.4322" lon="2.74436">
        <ele>50</ele>
        <time>2023-04-16T06:31:16.162Z</time>
      </trkpt>
      <trkpt lat="48.43229" lon="2.74435">
        <ele>50</ele>
        <time>2023-04-16T06:31:20.719Z</time>
      </trkpt>
      <trkpt lat="48.43237" lon="2.74434">
        <ele>50</ele>
        <time>2023-04-16T06:31:25.177Z</time>
      </trkpt>
      <trkpt lat="48.43244" lon="2.74433">
        <ele>50</ele>
        <time>2023-04-16T06:31:29.677Z</time>
      </trkpt>
      <trkpt lat="48.43251" lon="2.74432">
        <ele>50</ele>
        <time>2023-04-16T06:31:33.575Z</time>
      </trkpt>
      <trkpt lat="48.43259" lon="2.74434">
        <ele>50</ele>
        <time>2023-04-16T06:31:38.035Z</time>
      </trkpt>
      <trkpt lat="48.43266" lon="2.74432">
        <ele>46</ele>
        <time>2023-04-16T06:31:41.915Z</time>
      </trkpt>
      <trkpt lat="48.43269" lon="2.7443">
        <ele>46</ele>
        <time>2023-04-16T06:31:46.294Z</time>
      </trkpt>
      <trkpt lat="48.43277" lon="2.74431">
        <ele>46</ele>
        <time>2023-04-16T06:31:50.913Z</time>
      </trkpt>
      <trkpt lat="48.43285" lon="2.7443">
        <ele>46</ele>
        <time>2023-04-16T06:31:55.411Z</time>
      </trkpt>
      <trkpt lat="48.43292" lon="2.74429">
        <ele>46</ele>
        <time>2023-04-16T06:31:59.967Z</time>
      </trkpt>
      <trkpt lat="48.43298" lon="2.74432">
        <ele>43</ele>
        <time>2023-04-16T06:32:04.025Z</time>
      </trkpt>
      <trkpt lat="48.43304" lon="2.74434">
        <ele>43</ele>
        <time>2023-04-16T06:32:07.925Z</time>
      </trkpt>
      <trkpt lat="48.43312" lon="2.74434">
        <ele>43</ele>
        <time>2023-04-16T06:32:12.423Z</time>
      </trkpt>
      <trkpt lat="48.43318" lon="2.74437">
        <ele>43</ele>
        <time>2023-04-16T06:32:16.960Z</time>
      </trkpt>
      <trkpt lat="48.43326" lon="2.74439">
        <ele>44</ele>
        <time>2023-04-16T06:32:21.961Z</time>
      </trkpt>
      <trkpt lat="48.43333" lon="2.74435">
        <ele>44</ele>
        <time>2023-04-16T06:32:25.956Z</time>
      </trkpt>
      <trkpt lat="48.4334" lon="2.74434">
        <ele>44</ele>
        <time>2023-04-16T06:32:30.414Z</time>
      </trkpt>
      <trkpt lat="48.43346" lon="2.74434">
        <ele>44</ele>
        <time>2023-04-16T06:32:34.971Z</time>
      </trkpt>
      <trkpt lat="48.43352" lon="2.74435">
        <ele>45</ele>
        <time>2023-04-16T06:32:38.928Z</time>
      </trkpt>
      <trkpt lat="48.43358" lon="2.74437">
        <ele>45</ele>
        <time>2023-04-16T06:32:43.415Z</time>
      </trkpt>
      <trkpt lat="48.43364" lon="2.74439">
        <ele>45</ele>
        <time>2023-04-16T06:32:47.452Z</time>
      </trkpt>
      <trkpt lat="48.43371" lon="2.74441">
        <ele>45</ele>
        <time>2023-04-16T06:32:51.957Z</time>
      </trkpt>
      <trkpt lat="48.43377" lon="2.74441">
        <ele>45</ele>
        <time>2023-04-16T06:32:55.929Z</time>
      </trkpt>
      <trkpt lat="48.43384" lon="2.74439">
        <ele>45</ele>
        <time>2023-04-16T06:33:00.446Z</time>
      </trkpt>
      <trkpt lat="48.43392" lon="2.74438">
        <ele>45</ele>
        <time>2023-04-16T06:33:05.003Z</time>
      </trkpt>
      <trkpt lat="48.43398" lon="2.74438">
        <ele>45</ele>
        <time>2023-04-16T06:33:09.001Z</time>
      </trkpt>
      <trkpt lat="48.43405" lon="2.74439">
        <ele>46</ele>
        <time>2023-04-16T06:33:13.557Z</time>
      </trkpt>
      <trkpt lat="48.43412" lon="2.74441">
        <ele>46</ele>
        <time>2023-04-16T06:33:18.185Z</time>
      </trkpt>
      <trkpt lat="48.43421" lon="2.74441">
        <ele>46</ele>
        <time>2023-04-16T06:33:22.585Z</time>
      </trkpt>
      <trkpt lat="48.43429" lon="2.74442">
        <ele>46</ele>
        <time>2023-04-16T06:33:26.587Z</time>
      </trkpt>
      <trkpt lat="48.43435" lon="2.74441">
        <ele>47</ele>
        <time>2023-04-16T06:33:31.172Z</time>
      </trkpt>
      <trkpt lat="48.43443" lon="2.7444">
        <ele>47</ele>
        <time>2023-04-16T06:33:35.677Z</time>
      </trkpt>
      <trkpt lat="48.43449" lon="2.7444">
        <ele>47</ele>
        <time>2023-04-16T06:33:40.096Z</time>
      </trkpt>
      <trkpt lat="48.43456" lon="2.74438">
        <ele>47</ele>
        <time>2023-04-16T06:33:44.217Z</time>
      </trkpt>
      <trkpt lat="48.43464" lon="2.74436">
        <ele>48</ele>
        <time>2023-04-16T06:33:48.219Z</time>
      </trkpt>
      <trkpt lat="48.43471" lon="2.74437">
        <ele>48</ele>
        <time>2023-04-16T06:33:52.879Z</time>
      </trkpt>
      <trkpt lat="48.43479" lon="2.74437">
        <ele>48</ele>
        <time>2023-04-16T06:33:57.861Z</time>
      </trkpt>
      <trkpt lat="48.43485" lon="2.74436">
        <ele>48</ele>
        <time>2023-04-16T06:34:01.876Z</time>
      </trkpt>
      <trkpt lat="48.43493" lon="2.74438">
        <ele>50</ele>
        <time>2023-04-16T06:34:06.116Z</time>
      </trkpt>
      <trkpt lat="48.435" lon="2.7444">
        <ele>50</ele>
        <time>2023-04-16T06:34:10.377Z</time>
      </trkpt>
      <trkpt lat="48.43508" lon="2.74443">
        <ele>50</ele>
        <time>2023-04-16T06:34:14.936Z</time>
      </trkpt>
      <trkpt lat="48.43517" lon="2.74444">
        <ele>53</ele>
        <time>2023-04-16T06:34:19.515Z</time>
      </trkpt>
      <trkpt lat="48.43526" lon="2.74445">
        <ele>53</ele>
        <time>2023-04-16T06:34:24.154Z</time>
      </trkpt>
      <trkpt lat="48.43533" lon="2.74444">
        <ele>53</ele>
        <time>2023-04-16T06:34:28.296Z</time>
      </trkpt>
      <trkpt lat="48.43537" lon="2.74449">
        <ele>53</ele>
        <time>2023-04-16T06:34:31.803Z</time>
      </trkpt>
      <trkpt lat="48.43542" lon="2.74453">
        <ele>52</ele>
        <time>2023-04-16T06:34:36.827Z</time>
      </trkpt>
      <trkpt lat="48.43552" lon="2.74448">
        <ele>52</ele>
        <time>2023-04-16T06:34:41.855Z</time>
      </trkpt>
      <trkpt lat="48.43561" lon="2.74451">
        <ele>52</ele>
        <time>2023-04-16T06:34:45.865Z</time>
      </trkpt>
      <trkpt lat="48.43569" lon="2.74457">
        <ele>52</ele>
        <time>2023-04-16T06:34:50.474Z</time>
      </trkpt>
      <trkpt lat="48.43576" lon="2.74459">
        <ele>50</ele>
        <time>2023-04-16T06:34:54.984Z</time>
      </trkpt>
      <trkpt lat="48.43583" lon="2.74462">
        <ele>50</ele>
        <time>2023-04-16T06:34:58.991Z</time>
      </trkpt>
      <trkpt lat="48.43591" lon="2.74464">
        <ele>50</ele>
        <time>2023-04-16T06:35:03.501Z</time>
      </trkpt>
      <trkpt lat="48.43597" lon="2.74464">
        <ele>51</ele>
        <time>2023-04-16T06:35:08.126Z</time>
      </trkpt>
      <trkpt lat="48.43604" lon="2.74464">
        <ele>51</ele>
        <time>2023-04-16T06:35:12.210Z</time>
      </trkpt>
      <trkpt lat="48.43612" lon="2.74464">
        <ele>51</ele>
        <time>2023-04-16T06:35:16.712Z</time>
      </trkpt>
      <trkpt lat="48.43619" lon="2.74466">
        <ele>51</ele>
        <time>2023-04-16T06:35:21.814Z</time>
      </trkpt>
      <trkpt lat="48.43626" lon="2.74466">
        <ele>54</ele>
        <time>2023-04-16T06:35:25.955Z</time>
      </trkpt>
      <trkpt lat="48.43632" lon="2.74469">
        <ele>54</ele>
        <time>2023-04-16T06:35:30.435Z</time>
      </trkpt>
      <trkpt lat="48.43639" lon="2.74472">
        <ele>54</ele>
        <time>2023-04-16T06:35:35.135Z</time>
      </trkpt>
      <trkpt lat="48.43646" lon="2.74475">
        <ele>54</ele>
        <time>2023-04-16T06:35:39.455Z</time>
      </trkpt>
      <trkpt lat="48.43653" lon="2.74478">
        <ele>54</ele>
        <time>2023-04-16T06:35:44.156Z</time>
      </trkpt>
      <trkpt lat="48.43659" lon="2.74483">
        <ele>55</ele>
        <time>2023-04-16T06:35:48.778Z</time>
      </trkpt>
      <trkpt lat="48.43664" lon="2.74487">
        <ele>50</ele>
        <time>2023-04-16T06:35:52.899Z</time>
      </trkpt>
      <trkpt lat="48.43669" lon="2.74489">
        <ele>50</ele>
        <time>2023-04-16T06:35:56.679Z</time>
      </trkpt>
      <trkpt lat="48.43675" lon="2.74495">
        <ele>50</ele>
        <time>2023-04-16T06:36:01.321Z</time>
      </trkpt>
      <trkpt lat="48.43681" lon="2.74499">
        <ele>51</ele>
        <time>2023-04-16T06:36:05.395Z</time>
      </trkpt>
      <trkpt lat="48.43688" lon="2.74503">
        <ele>51</ele>
        <time>2023-04-16T06:36:09.983Z</time>
      </trkpt>
      <trkpt lat="48.43695" lon="2.74507">
        <ele>51</ele>
        <time>2023-04-16T06:36:14.125Z</time>
      </trkpt>
      <trkpt lat="48.437" lon="2.7451">
        <ele>51</ele>
        <time>2023-04-16T06:36:17.627Z</time>
      </trkpt>
      <trkpt lat="48.43706" lon="2.74512">
        <ele>51</ele>
        <time>2023-04-16T06:36:22.645Z</time>
      </trkpt>
      <trkpt lat="48.43712" lon="2.74515">
        <ele>49</ele>
        <time>2023-04-16T06:36:27.167Z</time>
      </trkpt>
      <trkpt lat="48.43718" lon="2.74517">
        <ele>49</ele>
        <time>2023-04-16T06:36:31.680Z</time>
      </trkpt>
      <trkpt lat="48.43726" lon="2.74518">
        <ele>49</ele>
        <time>2023-04-16T06:36:36.688Z</time>
      </trkpt>
      <trkpt lat="48.43732" lon="2.74522">
        <ele>49</ele>
        <time>2023-04-16T06:36:40.794Z</time>
      </trkpt>
      <trkpt lat="48.43739" lon="2.74525">
        <ele>51</ele>
        <time>2023-04-16T06:36:45.302Z</time>
      </trkpt>
      <trkpt lat="48.43746" lon="2.74526">
        <ele>51</ele>
        <time>2023-04-16T06:36:49.806Z</time>
      </trkpt>
      <trkpt lat="48.43752" lon="2.74528">
        <ele>51</ele>
        <time>2023-04-16T06:36:54.312Z</time>
      </trkpt>
      <trkpt lat="48.43758" lon="2.7453">
        <ele>51</ele>
        <time>2023-04-16T06:36:58.315Z</time>
      </trkpt>
      <trkpt lat="48.43764" lon="2.74533">
        <ele>51</ele>
        <time>2023-04-16T06:37:02.818Z</time>
      </trkpt>
      <trkpt lat="48.43769" lon="2.74536">
        <ele>52</ele>
        <time>2023-04-16T06:37:06.880Z</time>
      </trkpt>
      <trkpt lat="48.43775" lon="2.7454">
        <ele>52</ele>
        <time>2023-04-16T06:37:11.382Z</time>
      </trkpt>
      <trkpt lat="48.43781" lon="2.74541">
        <ele>52</ele>
        <time>2023-04-16T06:37:16.004Z</time>
      </trkpt>
      <trkpt lat="48.43788" lon="2.74544">
        <ele>49</ele>
        <time>2023-04-16T06:37:20.007Z</time>
      </trkpt>
      <trkpt lat="48.43795" lon="2.74551">
        <ele>50</ele>
        <time>2023-04-16T06:37:24.530Z</time>
      </trkpt>
      <trkpt lat="48.43801" lon="2.74555">
        <ele>50</ele>
        <time>2023-04-16T06:37:28.890Z</time>
      </trkpt>
      <trkpt lat="48.43808" lon="2.74559">
        <ele>50</ele>
        <time>2023-04-16T06:37:33.249Z</time>
      </trkpt>
      <trkpt lat="48.43815" lon="2.74562">
        <ele>50</ele>
        <time>2023-04-16T06:37:37.549Z</time>
      </trkpt>
      <trkpt lat="48.43821" lon="2.74565">
        <ele>52</ele>
        <time>2023-04-16T06:37:41.568Z</time>
      </trkpt>
      <trkpt lat="48.43828" lon="2.74568">
        <ele>52</ele>
        <time>2023-04-16T06:37:46.006Z</time>
      </trkpt>
      <trkpt lat="48.43835" lon="2.74572">
        <ele>47</ele>
        <time>2023-04-16T06:37:50.452Z</time>
      </trkpt>
      <trkpt lat="48.43842" lon="2.74574">
        <ele>47</ele>
        <time>2023-04-16T06:37:55.165Z</time>
      </trkpt>
      <trkpt lat="48.43848" lon="2.74579">
        <ele>49</ele>
        <time>2023-04-16T06:37:59.665Z</time>
      </trkpt>
      <trkpt lat="48.43856" lon="2.74582">
        <ele>49</ele>
        <time>2023-04-16T06:38:04.644Z</time>
      </trkpt>
      <trkpt lat="48.43864" lon="2.74584">
        <ele>49</ele>
        <time>2023-04-16T06:38:10.097Z</time>
      </trkpt>
      <trkpt lat="48.43871" lon="2.74586">
        <ele>49</ele>
        <time>2023-04-16T06:38:14.561Z</time>
      </trkpt>
      <trkpt lat="48.43879" lon="2.74593">
        <ele>54</ele>
        <time>2023-04-16T06:38:19.559Z</time>
      </trkpt>
      <trkpt lat="48.43884" lon="2.74595">
        <ele>54</ele>
        <time>2023-04-16T06:38:23.859Z</time>
      </trkpt>
      <trkpt lat="48.4389" lon="2.74599">
        <ele>48</ele>
        <time>2023-04-16T06:38:28.280Z</time>
      </trkpt>
      <trkpt lat="48.43897" lon="2.74603">
        <ele>48</ele>
        <time>2023-04-16T06:38:32.559Z</time>
      </trkpt>
      <trkpt lat="48.43903" lon="2.74606">
        <ele>54</ele>
        <time>2023-04-16T06:38:36.840Z</time>
      </trkpt>
      <trkpt lat="48.43909" lon="2.74608">
        <ele>54</ele>
        <time>2023-04-16T06:38:40.960Z</time>
      </trkpt>
      <trkpt lat="48.43915" lon="2.74609">
        <ele>54</ele>
        <time>2023-04-16T06:38:45.154Z</time>
      </trkpt>
      <trkpt lat="48.4392" lon="2.74612">
        <ele>54</ele>
        <time>2023-04-16T06:38:48.942Z</time>
      </trkpt>
      <trkpt lat="48.43927" lon="2.74614">
        <ele>54</ele>
        <time>2023-04-16T06:38:53.699Z</time>
      </trkpt>
      <trkpt lat="48.43933" lon="2.74616">
        <ele>56</ele>
        <time>2023-04-16T06:38:57.265Z</time>
      </trkpt>
      <trkpt lat="48.43939" lon="2.74618">
        <ele>56</ele>
        <time>2023-04-16T06:39:01.405Z</time>
      </trkpt>
      <trkpt lat="48.43945" lon="2.74622">
        <ele>56</ele>
        <time>2023-04-16T06:39:06.127Z</time>
      </trkpt>
      <trkpt lat="48.43952" lon="2.74626">
        <ele>50</ele>
        <time>2023-04-16T06:39:10.788Z</time>
      </trkpt>
      <trkpt lat="48.43959" lon="2.74627">
        <ele>51</ele>
        <time>2023-04-16T06:39:15.008Z</time>
      </trkpt>
      <trkpt lat="48.43966" lon="2.7463">
        <ele>51</ele>
        <time>2023-04-16T06:39:19.367Z</time>
      </trkpt>
      <trkpt lat="48.43971" lon="2.74633">
        <ele>51</ele>
        <time>2023-04-16T06:39:23.608Z</time>
      </trkpt>
      <trkpt lat="48.43977" lon="2.74636">
        <ele>51</ele>
        <time>2023-04-16T06:39:27.960Z</time>
      </trkpt>
      <trkpt lat="48.43982" lon="2.74638">
        <ele>51</ele>
        <time>2023-04-16T06:39:32.028Z</time>
      </trkpt>
      <trkpt lat="48.43988" lon="2.74642">
        <ele>57</ele>
        <time>2023-04-16T06:39:36.188Z</time>
      </trkpt>
      <trkpt lat="48.43994" lon="2.74646">
        <ele>57</ele>
        <time>2023-04-16T06:39:40.929Z</time>
      </trkpt>
      <trkpt lat="48.44" lon="2.7465">
        <ele>57</ele>
        <time>2023-04-16T06:39:45.164Z</time>
      </trkpt>
      <trkpt lat="48.44008" lon="2.74653">
        <ele>51</ele>
        <time>2023-04-16T06:39:49.628Z</time>
      </trkpt>
      <trkpt lat="48.44014" lon="2.74659">
        <ele>51</ele>
        <time>2023-04-16T06:39:53.848Z</time>
      </trkpt>
      <trkpt lat="48.44019" lon="2.74665">
        <ele>57</ele>
        <time>2023-04-16T06:39:58.189Z</time>
      </trkpt>
      <trkpt lat="48.44026" lon="2.74669">
        <ele>57</ele>
        <time>2023-04-16T06:40:02.489Z</time>
      </trkpt>
      <trkpt lat="48.44034" lon="2.74672">
        <ele>57</ele>
        <time>2023-04-16T06:40:06.709Z</time>
      </trkpt>
      <trkpt lat="48.44041" lon="2.74677">
        <ele>57</ele>
        <time>2023-04-16T06:40:11.589Z</time>
      </trkpt>
      <trkpt lat="48.44047" lon="2.74681">
        <ele>57</ele>
        <time>2023-04-16T06:40:16.890Z</time>
      </trkpt>
      <trkpt lat="48.44052" lon="2.74686">
        <ele>57</ele>
        <time>2023-04-16T06:40:20.993Z</time>
      </trkpt>
      <trkpt lat="48.44057" lon="2.74691">
        <ele>57</ele>
        <time>2023-04-16T06:40:25.374Z</time>
      </trkpt>
      <trkpt lat="48.44064" lon="2.74694">
        <ele>57</ele>
        <time>2023-04-16T06:40:29.732Z</time>
      </trkpt>
      <trkpt lat="48.44069" lon="2.74699">
        <ele>57</ele>
        <time>2023-04-16T06:40:33.993Z</time>
      </trkpt>
      <trkpt lat="48.44076" lon="2.74701">
        <ele>61</ele>
        <time>2023-04-16T06:40:38.495Z</time>
      </trkpt>
      <trkpt lat="48.44081" lon="2.74706">
        <ele>61</ele>
        <time>2023-04-16T06:40:42.738Z</time>
      </trkpt>
      <trkpt lat="48.44087" lon="2.74713">
        <ele>56</ele>
        <time>2023-04-16T06:40:47.058Z</time>
      </trkpt>
      <trkpt lat="48.44095" lon="2.74717">
        <ele>56</ele>
        <time>2023-04-16T06:40:51.560Z</time>
      </trkpt>
      <trkpt lat="48.44102" lon="2.7472">
        <ele>57</ele>
        <time>2023-04-16T06:40:55.661Z</time>
      </trkpt>
      <trkpt lat="48.44108" lon="2.74724">
        <ele>57</ele>
        <time>2023-04-16T06:40:59.783Z</time>
      </trkpt>
      <trkpt lat="48.44115" lon="2.74728">
        <ele>57</ele>
        <time>2023-04-16T06:41:04.285Z</time>
      </trkpt>
      <trkpt lat="48.44121" lon="2.74732">
        <ele>57</ele>
        <time>2023-04-16T06:41:08.787Z</time>
      </trkpt>
      <trkpt lat="48.44126" lon="2.74736">
        <ele>59</ele>
        <time>2023-04-16T06:41:12.508Z</time>
      </trkpt>
      <trkpt lat="48.44131" lon="2.74742">
        <ele>54</ele>
        <time>2023-04-16T06:41:17.050Z</time>
      </trkpt>
      <trkpt lat="48.44137" lon="2.74746">
        <ele>54</ele>
        <time>2023-04-16T06:41:21.251Z</time>
      </trkpt>
      <trkpt lat="48.44143" lon="2.74748">
        <ele>54</ele>
        <time>2023-04-16T06:41:25.472Z</time>
      </trkpt>
      <trkpt lat="48.4415" lon="2.74751">
        <ele>54</ele>
        <time>2023-04-16T06:41:30.333Z</time>
      </trkpt>
      <trkpt lat="48.44155" lon="2.74755">
        <ele>60</ele>
        <time>2023-04-16T06:41:34.854Z</time>
      </trkpt>
      <trkpt lat="48.44161" lon="2.74759">
        <ele>60</ele>
        <time>2023-04-16T06:41:38.876Z</time>
      </trkpt>
      <trkpt lat="48.44168" lon="2.74767">
        <ele>57</ele>
        <time>2023-04-16T06:41:44.057Z</time>
      </trkpt>
      <trkpt lat="48.44173" lon="2.74774">
        <ele>57</ele>
        <time>2023-04-16T06:41:49.149Z</time>
      </trkpt>
      <trkpt lat="48.4418" lon="2.74778">
        <ele>57</ele>
        <time>2023-04-16T06:41:53.220Z</time>
      </trkpt>
      <trkpt lat="48.44188" lon="2.74784">
        <ele>63</ele>
        <time>2023-04-16T06:41:57.881Z</time>
      </trkpt>
      <trkpt lat="48.44194" lon="2.74788">
        <ele>63</ele>
        <time>2023-04-16T06:42:02.242Z</time>
      </trkpt>
      <trkpt lat="48.44201" lon="2.74792">
        <ele>58</ele>
        <time>2023-04-16T06:42:06.623Z</time>
      </trkpt>
      <trkpt lat="48.44207" lon="2.74798">
        <ele>58</ele>
        <time>2023-04-16T06:42:11.784Z</time>
      </trkpt>
      <trkpt lat="48.44212" lon="2.74802">
        <ele>60</ele>
        <time>2023-04-16T06:42:16.007Z</time>
      </trkpt>
      <trkpt lat="48.44217" lon="2.74805">
        <ele>60</ele>
        <time>2023-04-16T06:42:20.220Z</time>
      </trkpt>
      <trkpt lat="48.44223" lon="2.7481">
        <ele>60</ele>
        <time>2023-04-16T06:42:24.699Z</time>
      </trkpt>
      <trkpt lat="48.44228" lon="2.74815">
        <ele>60</ele>
        <time>2023-04-16T06:42:28.845Z</time>
      </trkpt>
      <trkpt lat="48.44234" lon="2.74819">
        <ele>60</ele>
        <time>2023-04-16T06:42:32.943Z</time>
      </trkpt>
      <trkpt lat="48.44239" lon="2.74824">
        <ele>56</ele>
        <time>2023-04-16T06:42:36.782Z</time>
      </trkpt>
      <trkpt lat="48.44246" lon="2.74829">
        <ele>56</ele>
        <time>2023-04-16T06:42:41.557Z</time>
      </trkpt>
      <trkpt lat="48.4425" lon="2.74837">
        <ele>56</ele>
        <time>2023-04-16T06:42:45.904Z</time>
      </trkpt>
      <trkpt lat="48.44256" lon="2.7484">
        <ele>56</ele>
        <time>2023-04-16T06:42:50.045Z</time>
      </trkpt>
      <trkpt lat="48.44263" lon="2.74843">
        <ele>56</ele>
        <time>2023-04-16T06:42:54.759Z</time>
      </trkpt>
      <trkpt lat="48.44268" lon="2.74847">
        <ele>59</ele>
        <time>2023-04-16T06:42:58.967Z</time>
      </trkpt>
      <trkpt lat="48.44274" lon="2.74853">
        <ele>54</ele>
        <time>2023-04-16T06:43:03.363Z</time>
      </trkpt>
      <trkpt lat="48.44281" lon="2.74857">
        <ele>54</ele>
        <time>2023-04-16T06:43:07.588Z</time>
      </trkpt>
      <trkpt lat="48.44286" lon="2.74861">
        <ele>54</ele>
        <time>2023-04-16T06:43:11.809Z</time>
      </trkpt>
      <trkpt lat="48.44292" lon="2.74866">
        <ele>60</ele>
        <time>2023-04-16T06:43:16.170Z</time>
      </trkpt>
      <trkpt lat="48.44298" lon="2.7487">
        <ele>60</ele>
        <time>2023-04-16T06:43:20.292Z</time>
      </trkpt>
      <trkpt lat="48.44305" lon="2.74876">
        <ele>57</ele>
        <time>2023-04-16T06:43:24.452Z</time>
      </trkpt>
      <trkpt lat="48.4431" lon="2.7488">
        <ele>57</ele>
        <time>2023-04-16T06:43:28.456Z</time>
      </trkpt>
      <trkpt lat="48.44318" lon="2.74881">
        <ele>57</ele>
        <time>2023-04-16T06:43:33.120Z</time>
      </trkpt>
      <trkpt lat="48.44326" lon="2.74885">
        <ele>57</ele>
        <time>2023-04-16T06:43:37.826Z</time>
      </trkpt>
      <trkpt lat="48.44332" lon="2.7489">
        <ele>57</ele>
        <time>2023-04-16T06:43:41.833Z</time>
      </trkpt>
      <trkpt lat="48.44339" lon="2.74895">
        <ele>57</ele>
        <time>2023-04-16T06:43:45.839Z</time>
      </trkpt>
      <trkpt lat="48.44345" lon="2.74899">
        <ele>57</ele>
        <time>2023-04-16T06:43:49.845Z</time>
      </trkpt>
      <trkpt lat="48.4435" lon="2.74904">
        <ele>54</ele>
        <time>2023-04-16T06:43:54.349Z</time>
      </trkpt>
      <trkpt lat="48.44355" lon="2.74909">
        <ele>54</ele>
        <time>2023-04-16T06:43:58.531Z</time>
      </trkpt>
      <trkpt lat="48.44361" lon="2.74914">
        <ele>54</ele>
        <time>2023-04-16T06:44:03.312Z</time>
      </trkpt>
      <trkpt lat="48.44366" lon="2.74919">
        <ele>54</ele>
        <time>2023-04-16T06:44:07.315Z</time>
      </trkpt>
      <trkpt lat="48.44372" lon="2.74927">
        <ele>54</ele>
        <time>2023-04-16T06:44:11.819Z</time>
      </trkpt>
      <trkpt lat="48.44375" lon="2.74935">
        <ele>52</ele>
        <time>2023-04-16T06:44:16.322Z</time>
      </trkpt>
      <trkpt lat="48.44382" lon="2.74942">
        <ele>52</ele>
        <time>2023-04-16T06:44:21.044Z</time>
      </trkpt>
      <trkpt lat="48.44389" lon="2.74945">
        <ele>52</ele>
        <time>2023-04-16T06:44:24.884Z</time>
      </trkpt>
      <trkpt lat="48.44397" lon="2.74949">
        <ele>52</ele>
        <time>2023-04-16T06:44:29.758Z</time>
      </trkpt>
      <trkpt lat="48.44401" lon="2.74953">
        <ele>52</ele>
        <time>2023-04-16T06:44:34.024Z</time>
      </trkpt>
      <trkpt lat="48.44405" lon="2.74959">
        <ele>51</ele>
        <time>2023-04-16T06:44:38.126Z</time>
      </trkpt>
      <trkpt lat="48.44415" lon="2.74964">
        <ele>51</ele>
        <time>2023-04-16T06:44:42.452Z</time>
      </trkpt>
      <trkpt lat="48.44422" lon="2.74968">
        <ele>51</ele>
        <time>2023-04-16T06:44:47.162Z</time>
      </trkpt>
      <trkpt lat="48.44427" lon="2.74974">
        <ele>51</ele>
        <time>2023-04-16T06:44:51.608Z</time>
      </trkpt>
      <trkpt lat="48.4443" lon="2.74982">
        <ele>51</ele>
        <time>2023-04-16T06:44:56.148Z</time>
      </trkpt>
      <trkpt lat="48.44439" lon="2.74985">
        <ele>52</ele>
        <time>2023-04-16T06:45:00.667Z</time>
      </trkpt>
      <trkpt lat="48.44448" lon="2.7499">
        <ele>51</ele>
        <time>2023-04-16T06:45:05.945Z</time>
      </trkpt>
      <trkpt lat="48.44455" lon="2.74995">
        <ele>51</ele>
        <time>2023-04-16T06:45:10.424Z</time>
      </trkpt>
      <trkpt lat="48.44461" lon="2.75">
        <ele>53</ele>
        <time>2023-04-16T06:45:14.452Z</time>
      </trkpt>
      <trkpt lat="48.44466" lon="2.75006">
        <ele>53</ele>
        <time>2023-04-16T06:45:18.982Z</time>
      </trkpt>
      <trkpt lat="48.44472" lon="2.75013">
        <ele>53</ele>
        <time>2023-04-16T06:45:23.762Z</time>
      </trkpt>
      <trkpt lat="48.44478" lon="2.75019">
        <ele>51</ele>
        <time>2023-04-16T06:45:28.302Z</time>
      </trkpt>
      <trkpt lat="48.44485" lon="2.75024">
        <ele>51</ele>
        <time>2023-04-16T06:45:32.900Z</time>
      </trkpt>
      <trkpt lat="48.4449" lon="2.75031">
        <ele>55</ele>
        <time>2023-04-16T06:45:37.422Z</time>
      </trkpt>
      <trkpt lat="48.44496" lon="2.75038">
        <ele>55</ele>
        <time>2023-04-16T06:45:41.957Z</time>
      </trkpt>
      <trkpt lat="48.44503" lon="2.75044">
        <ele>52</ele>
        <time>2023-04-16T06:45:46.957Z</time>
      </trkpt>
      <trkpt lat="48.44508" lon="2.75047">
        <ele>52</ele>
        <time>2023-04-16T06:45:51.337Z</time>
      </trkpt>
      <trkpt lat="48.44512" lon="2.75051">
        <ele>52</ele>
        <time>2023-04-16T06:45:55.210Z</time>
      </trkpt>
      <trkpt lat="48.44517" lon="2.75058">
        <ele>52</ele>
        <time>2023-04-16T06:45:59.888Z</time>
      </trkpt>
      <trkpt lat="48.44523" lon="2.75061">
        <ele>52</ele>
        <time>2023-04-16T06:46:03.726Z</time>
      </trkpt>
      <trkpt lat="48.4453" lon="2.75065">
        <ele>52</ele>
        <time>2023-04-16T06:46:08.837Z</time>
      </trkpt>
      <trkpt lat="48.44533" lon="2.75071">
        <ele>49</ele>
        <time>2023-04-16T06:46:12.854Z</time>
      </trkpt>
      <trkpt lat="48.44541" lon="2.75077">
        <ele>49</ele>
        <time>2023-04-16T06:46:17.858Z</time>
      </trkpt>
      <trkpt lat="48.44548" lon="2.75084">
        <ele>50</ele>
        <time>2023-04-16T06:46:22.019Z</time>
      </trkpt>
      <trkpt lat="48.44552" lon="2.7509">
        <ele>50</ele>
        <time>2023-04-16T06:46:26.023Z</time>
      </trkpt>
      <trkpt lat="48.44559" lon="2.75095">
        <ele>50</ele>
        <time>2023-04-16T06:46:30.529Z</time>
      </trkpt>
      <trkpt lat="48.44566" lon="2.75101">
        <ele>49</ele>
        <time>2023-04-16T06:46:35.050Z</time>
      </trkpt>
      <trkpt lat="48.4457" lon="2.75107">
        <ele>48</ele>
        <time>2023-04-16T06:46:39.152Z</time>
      </trkpt>
      <trkpt lat="48.44576" lon="2.75114">
        <ele>48</ele>
        <time>2023-04-16T06:46:43.413Z</time>
      </trkpt>
      <trkpt lat="48.44581" lon="2.75119">
        <ele>48</ele>
        <time>2023-04-16T06:46:47.693Z</time>
      </trkpt>
      <trkpt lat="48.44589" lon="2.75124">
        <ele>48</ele>
        <time>2023-04-16T06:46:52.752Z</time>
      </trkpt>
      <trkpt lat="48.44595" lon="2.75132">
        <ele>48</ele>
        <time>2023-04-16T06:46:57.974Z</time>
      </trkpt>
      <trkpt lat="48.44601" lon="2.75137">
        <ele>50</ele>
        <time>2023-04-16T06:47:02.294Z</time>
      </trkpt>
      <trkpt lat="48.44606" lon="2.75145">
        <ele>50</ele>
        <time>2023-04-16T06:47:06.713Z</time>
      </trkpt>
      <trkpt lat="48.44611" lon="2.75151">
        <ele>50</ele>
        <time>2023-04-16T06:47:11.013Z</time>
      </trkpt>
      <trkpt lat="48.44617" lon="2.75158">
        <ele>50</ele>
        <time>2023-04-16T06:47:15.452Z</time>
      </trkpt>
      <trkpt lat="48.44624" lon="2.75162">
        <ele>50</ele>
        <time>2023-04-16T06:47:20.091Z</time>
      </trkpt>
      <trkpt lat="48.4463" lon="2.75168">
        <ele>51</ele>
        <time>2023-04-16T06:47:24.452Z</time>
      </trkpt>
      <trkpt lat="48.44635" lon="2.75173">
        <ele>51</ele>
        <time>2023-04-16T06:47:28.757Z</time>
      </trkpt>
      <trkpt lat="48.44641" lon="2.75173">
        <ele>51</ele>
        <time>2023-04-16T06:47:32.773Z</time>
      </trkpt>
      <trkpt lat="48.44647" lon="2.75178">
        <ele>51</ele>
        <time>2023-04-16T06:47:37.290Z</time>
      </trkpt>
      <trkpt lat="48.44653" lon="2.75188">
        <ele>51</ele>
        <time>2023-04-16T06:47:41.304Z</time>
      </trkpt>
      <trkpt lat="48.44657" lon="2.75193">
        <ele>51</ele>
        <time>2023-04-16T06:47:45.820Z</time>
      </trkpt>
      <trkpt lat="48.44661" lon="2.75197">
        <ele>51</ele>
        <time>2023-04-16T06:47:49.931Z</time>
      </trkpt>
      <trkpt lat="48.44666" lon="2.75207">
        <ele>51</ele>
        <time>2023-04-16T06:47:53.946Z</time>
      </trkpt>
      <trkpt lat="48.44671" lon="2.75215">
        <ele>49</ele>
        <time>2023-04-16T06:47:58.563Z</time>
      </trkpt>
      <trkpt lat="48.44677" lon="2.75223">
        <ele>49</ele>
        <time>2023-04-16T06:48:03.080Z</time>
      </trkpt>
      <trkpt lat="48.44683" lon="2.75233">
        <ele>47</ele>
        <time>2023-04-16T06:48:07.595Z</time>
      </trkpt>
      <trkpt lat="48.44687" lon="2.7524">
        <ele>45</ele>
        <time>2023-04-16T06:48:12.110Z</time>
      </trkpt>
      <trkpt lat="48.4469" lon="2.7525">
        <ele>45</ele>
        <time>2023-04-16T06:48:17.125Z</time>
      </trkpt>
      <trkpt lat="48.44695" lon="2.75258">
        <ele>45</ele>
        <time>2023-04-16T06:48:21.136Z</time>
      </trkpt>
      <trkpt lat="48.44699" lon="2.75266">
        <ele>44</ele>
        <time>2023-04-16T06:48:25.647Z</time>
      </trkpt>
      <trkpt lat="48.44703" lon="2.75276">
        <ele>44</ele>
        <time>2023-04-16T06:48:30.660Z</time>
      </trkpt>
      <trkpt lat="48.44707" lon="2.75283">
        <ele>44</ele>
        <time>2023-04-16T06:48:35.172Z</time>
      </trkpt>
      <trkpt lat="48.44712" lon="2.7529">
        <ele>43</ele>
        <time>2023-04-16T06:48:39.682Z</time>
      </trkpt>
      <trkpt lat="48.44715" lon="2.75295">
        <ele>42</ele>
        <time>2023-04-16T06:48:43.793Z</time>
      </trkpt>
      <trkpt lat="48.44719" lon="2.75304">
        <ele>42</ele>
        <time>2023-04-16T06:48:48.907Z</time>
      </trkpt>
      <trkpt lat="48.44724" lon="2.75312">
        <ele>42</ele>
        <time>2023-04-16T06:48:52.918Z</time>
      </trkpt>
      <trkpt lat="48.44726" lon="2.75322">
        <ele>43</ele>
        <time>2023-04-16T06:48:56.929Z</time>
      </trkpt>
      <trkpt lat="48.44729" lon="2.75331">
        <ele>43</ele>
        <time>2023-04-16T06:49:01.441Z</time>
      </trkpt>
      <trkpt lat="48.44733" lon="2.75338">
        <ele>43</ele>
        <time>2023-04-16T06:49:05.952Z</time>
      </trkpt>
      <trkpt lat="48.44737" lon="2.75345">
        <ele>44</ele>
        <time>2023-04-16T06:49:10.462Z</time>
      </trkpt>
      <trkpt lat="48.44741" lon="2.75354">
        <ele>45</ele>
        <time>2023-04-16T06:49:14.972Z</time>
      </trkpt>
      <trkpt lat="48.44745" lon="2.75363">
        <ele>45</ele>
        <time>2023-04-16T06:49:18.983Z</time>
      </trkpt>
      <trkpt lat="48.44749" lon="2.75369">
        <ele>45</ele>
        <time>2023-04-16T06:49:22.995Z</time>
      </trkpt>
      <trkpt lat="48.44753" lon="2.75378">
        <ele>46</ele>
        <time>2023-04-16T06:49:27.506Z</time>
      </trkpt>
      <trkpt lat="48.44758" lon="2.75386">
        <ele>46</ele>
        <time>2023-04-16T06:49:31.520Z</time>
      </trkpt>
      <trkpt lat="48.44762" lon="2.75395">
        <ele>46</ele>
        <time>2023-04-16T06:49:36.029Z</time>
      </trkpt>
      <trkpt lat="48.44767" lon="2.75401">
        <ele>44</ele>
        <time>2023-04-16T06:49:40.035Z</time>
      </trkpt>
      <trkpt lat="48.44771" lon="2.75408">
        <ele>46</ele>
        <time>2023-04-16T06:49:44.040Z</time>
      </trkpt>
      <trkpt lat="48.44772" lon="2.75417">
        <ele>46</ele>
        <time>2023-04-16T06:49:48.043Z</time>
      </trkpt>
      <trkpt lat="48.44777" lon="2.75427">
        <ele>46</ele>
        <time>2023-04-16T06:49:52.566Z</time>
      </trkpt>
      <trkpt lat="48.4478" lon="2.75436">
        <ele>49</ele>
        <time>2023-04-16T06:49:57.070Z</time>
      </trkpt>
      <trkpt lat="48.44784" lon="2.75444">
        <ele>49</ele>
        <time>2023-04-16T06:50:01.213Z</time>
      </trkpt>
      <trkpt lat="48.4479" lon="2.75452">
        <ele>49</ele>
        <time>2023-04-16T06:50:05.796Z</time>
      </trkpt>
      <trkpt lat="48.44797" lon="2.75461">
        <ele>49</ele>
        <time>2023-04-16T06:50:10.801Z</time>
      </trkpt>
      <trkpt lat="48.44801" lon="2.75467">
        <ele>49</ele>
        <time>2023-04-16T06:50:14.824Z</time>
      </trkpt>
      <trkpt lat="48.44806" lon="2.75474">
        <ele>49</ele>
        <time>2023-04-16T06:50:19.676Z</time>
      </trkpt>
      <trkpt lat="48.44812" lon="2.75482">
        <ele>49</ele>
        <time>2023-04-16T06:50:24.133Z</time>
      </trkpt>
      <trkpt lat="48.44817" lon="2.7549">
        <ele>50</ele>
        <time>2023-04-16T06:50:27.924Z</time>
      </trkpt>
      <trkpt lat="48.44821" lon="2.75497">
        <ele>49</ele>
        <time>2023-04-16T06:50:32.824Z</time>
      </trkpt>
      <trkpt lat="48.44826" lon="2.75505">
        <ele>49</ele>
        <time>2023-04-16T06:50:37.356Z</time>
      </trkpt>
      <trkpt lat="48.4483" lon="2.75513">
        <ele>49</ele>
        <time>2023-04-16T06:50:41.875Z</time>
      </trkpt>
      <trkpt lat="48.44835" lon="2.75519">
        <ele>51</ele>
        <time>2023-04-16T06:50:45.894Z</time>
      </trkpt>
      <trkpt lat="48.4484" lon="2.75527">
        <ele>51</ele>
        <time>2023-04-16T06:50:50.906Z</time>
      </trkpt>
      <trkpt lat="48.44846" lon="2.75535">
        <ele>51</ele>
        <time>2023-04-16T06:50:55.914Z</time>
      </trkpt>
      <trkpt lat="48.4485" lon="2.75541">
        <ele>52</ele>
        <time>2023-04-16T06:50:59.922Z</time>
      </trkpt>
      <trkpt lat="48.44855" lon="2.75547">
        <ele>55</ele>
        <time>2023-04-16T06:51:03.926Z</time>
      </trkpt>
      <trkpt lat="48.44861" lon="2.75559">
        <ele>55</ele>
        <time>2023-04-16T06:51:08.941Z</time>
      </trkpt>
      <trkpt lat="48.44868" lon="2.75569">
        <ele>55</ele>
        <time>2023-04-16T06:51:14.084Z</time>
      </trkpt>
      <trkpt lat="48.44872" lon="2.75575">
        <ele>58</ele>
        <time>2023-04-16T06:51:17.705Z</time>
      </trkpt>
      <trkpt lat="48.44877" lon="2.75582">
        <ele>56</ele>
        <time>2023-04-16T06:51:22.749Z</time>
      </trkpt>
      <trkpt lat="48.44882" lon="2.7559">
        <ele>56</ele>
        <time>2023-04-16T06:51:27.969Z</time>
      </trkpt>
      <trkpt lat="48.44886" lon="2.75596">
        <ele>56</ele>
        <time>2023-04-16T06:51:32.009Z</time>
      </trkpt>
      <trkpt lat="48.4489" lon="2.75602">
        <ele>54</ele>
        <time>2023-04-16T06:51:36.008Z</time>
      </trkpt>
      <trkpt lat="48.44893" lon="2.75611">
        <ele>54</ele>
        <time>2023-04-16T06:51:40.966Z</time>
      </trkpt>
      <trkpt lat="48.44897" lon="2.75618">
        <ele>54</ele>
        <time>2023-04-16T06:51:46.120Z</time>
      </trkpt>
      <trkpt lat="48.44901" lon="2.7562">
        <ele>54</ele>
        <time>2023-04-16T06:51:52.644Z</time>
      </trkpt>
      <trkpt lat="48.44907" lon="2.75622">
        <ele>49</ele>
        <time>2023-04-16T06:51:56.658Z</time>
      </trkpt>
      <trkpt lat="48.44918" lon="2.7563">
        <ele>50</ele>
        <time>2023-04-16T06:52:01.165Z</time>
      </trkpt>
      <trkpt lat="48.44924" lon="2.75637">
        <ele>50</ele>
        <time>2023-04-16T06:52:05.187Z</time>
      </trkpt>
      <trkpt lat="48.44929" lon="2.75645">
        <ele>50</ele>
        <time>2023-04-16T06:52:09.948Z</time>
      </trkpt>
      <trkpt lat="48.44931" lon="2.75652">
        <ele>48</ele>
        <time>2023-04-16T06:52:13.950Z</time>
      </trkpt>
      <trkpt lat="48.44935" lon="2.75657">
        <ele>50</ele>
        <time>2023-04-16T06:52:18.054Z</time>
      </trkpt>
      <trkpt lat="48.4494" lon="2.75663">
        <ele>50</ele>
        <time>2023-04-16T06:52:21.555Z</time>
      </trkpt>
      <trkpt lat="48.44952" lon="2.75674">
        <ele>50</ele>
        <time>2023-04-16T06:52:31.097Z</time>
      </trkpt>
      <trkpt lat="48.44956" lon="2.75676">
        <ele>50</ele>
        <time>2023-04-16T06:52:35.215Z</time>
      </trkpt>
      <trkpt lat="48.44962" lon="2.75679">
        <ele>47</ele>
        <time>2023-04-16T06:52:39.324Z</time>
      </trkpt>
      <trkpt lat="48.44972" lon="2.75683">
        <ele>47</ele>
        <time>2023-04-16T06:52:43.430Z</time>
      </trkpt>
      <trkpt lat="48.4498" lon="2.75687">
        <ele>47</ele>
        <time>2023-04-16T06:52:47.937Z</time>
      </trkpt>
      <trkpt lat="48.44985" lon="2.75689">
        <ele>47</ele>
        <time>2023-04-16T06:52:51.954Z</time>
      </trkpt>
      <trkpt lat="48.4499" lon="2.75695">
        <ele>45</ele>
        <time>2023-04-16T06:52:55.971Z</time>
      </trkpt>
      <trkpt lat="48.44994" lon="2.75701">
        <ele>45</ele>
        <time>2023-04-16T06:53:00.583Z</time>
      </trkpt>
      <trkpt lat="48.44999" lon="2.7571">
        <ele>46</ele>
        <time>2023-04-16T06:53:05.092Z</time>
      </trkpt>
      <trkpt lat="48.45003" lon="2.75717">
        <ele>46</ele>
        <time>2023-04-16T06:53:09.100Z</time>
      </trkpt>
      <trkpt lat="48.45007" lon="2.75723">
        <ele>46</ele>
        <time>2023-04-16T06:53:13.107Z</time>
      </trkpt>
      <trkpt lat="48.45013" lon="2.75731">
        <ele>46</ele>
        <time>2023-04-16T06:53:17.612Z</time>
      </trkpt>
      <trkpt lat="48.45019" lon="2.75738">
        <ele>46</ele>
        <time>2023-04-16T06:53:22.154Z</time>
      </trkpt>
      <trkpt lat="48.45025" lon="2.75746">
        <ele>46</ele>
        <time>2023-04-16T06:53:26.815Z</time>
      </trkpt>
      <trkpt lat="48.45029" lon="2.75749">
        <ele>46</ele>
        <time>2023-04-16T06:53:31.016Z</time>
      </trkpt>
      <trkpt lat="48.45035" lon="2.75757">
        <ele>46</ele>
        <time>2023-04-16T06:53:36.078Z</time>
      </trkpt>
      <trkpt lat="48.45042" lon="2.75754">
        <ele>47</ele>
        <time>2023-04-16T06:53:40.721Z</time>
      </trkpt>
      <trkpt lat="48.45044" lon="2.75745">
        <ele>47</ele>
        <time>2023-04-16T06:53:44.722Z</time>
      </trkpt>
      <trkpt lat="48.45047" lon="2.75736">
        <ele>46</ele>
        <time>2023-04-16T06:53:49.784Z</time>
      </trkpt>
      <trkpt lat="48.45055" lon="2.75729">
        <ele>46</ele>
        <time>2023-04-16T06:53:53.846Z</time>
      </trkpt>
      <trkpt lat="48.45063" lon="2.75722">
        <ele>46</ele>
        <time>2023-04-16T06:53:58.452Z</time>
      </trkpt>
      <trkpt lat="48.45069" lon="2.75716">
        <ele>46</ele>
        <time>2023-04-16T06:54:02.927Z</time>
      </trkpt>
      <trkpt lat="48.45073" lon="2.75715">
        <ele>46</ele>
        <time>2023-04-16T06:54:07.325Z</time>
      </trkpt>
      <trkpt lat="48.45079" lon="2.75712">
        <ele>46</ele>
        <time>2023-04-16T06:54:11.943Z</time>
      </trkpt>
      <trkpt lat="48.45082" lon="2.75706">
        <ele>46</ele>
        <time>2023-04-16T06:54:16.452Z</time>
      </trkpt>
      <trkpt lat="48.45085" lon="2.75697">
        <ele>46</ele>
        <time>2023-04-16T06:54:20.449Z</time>
      </trkpt>
      <trkpt lat="48.4509" lon="2.75689">
        <ele>46</ele>
        <time>2023-04-16T06:54:24.452Z</time>
      </trkpt>
      <trkpt lat="48.45094" lon="2.7568">
        <ele>46</ele>
        <time>2023-04-16T06:54:28.965Z</time>
      </trkpt>
      <trkpt lat="48.45101" lon="2.75667">
        <ele>46</ele>
        <time>2023-04-16T06:54:34.136Z</time>
      </trkpt>
      <trkpt lat="48.45104" lon="2.75658">
        <ele>46</ele>
        <time>2023-04-16T06:54:38.100Z</time>
      </trkpt>
      <trkpt lat="48.45107" lon="2.75648">
        <ele>48</ele>
        <time>2023-04-16T06:54:42.618Z</time>
      </trkpt>
      <trkpt lat="48.45112" lon="2.75642">
        <ele>48</ele>
        <time>2023-04-16T06:54:47.149Z</time>
      </trkpt>
      <trkpt lat="48.45117" lon="2.75634">
        <ele>48</ele>
        <time>2023-04-16T06:54:51.606Z</time>
      </trkpt>
      <trkpt lat="48.45121" lon="2.75625">
        <ele>48</ele>
        <time>2023-04-16T06:54:56.161Z</time>
      </trkpt>
      <trkpt lat="48.45123" lon="2.75615">
        <ele>49</ele>
        <time>2023-04-16T06:55:00.357Z</time>
      </trkpt>
      <trkpt lat="48.45126" lon="2.75602">
        <ele>50</ele>
        <time>2023-04-16T06:55:04.872Z</time>
      </trkpt>
      <trkpt lat="48.4513" lon="2.75589">
        <ele>52</ele>
        <time>2023-04-16T06:55:09.667Z</time>
      </trkpt>
      <trkpt lat="48.45132" lon="2.75576">
        <ele>52</ele>
        <time>2023-04-16T06:55:14.700Z</time>
      </trkpt>
      <trkpt lat="48.45136" lon="2.75566">
        <ele>54</ele>
        <time>2023-04-16T06:55:19.161Z</time>
      </trkpt>
      <trkpt lat="48.45137" lon="2.75553">
        <ele>54</ele>
        <time>2023-04-16T06:55:23.686Z</time>
      </trkpt>
      <trkpt lat="48.45137" lon="2.75543">
        <ele>54</ele>
        <time>2023-04-16T06:55:27.741Z</time>
      </trkpt>
      <trkpt lat="48.45139" lon="2.75533">
        <ele>55</ele>
        <time>2023-04-16T06:55:32.892Z</time>
      </trkpt>
      <trkpt lat="48.4514" lon="2.75523">
        <ele>55</ele>
        <time>2023-04-16T06:55:37.924Z</time>
      </trkpt>
      <trkpt lat="48.45141" lon="2.75513">
        <ele>58</ele>
        <time>2023-04-16T06:55:41.878Z</time>
      </trkpt>
      <trkpt lat="48.45142" lon="2.75503">
        <ele>58</ele>
        <time>2023-04-16T06:55:45.932Z</time>
      </trkpt>
      <trkpt lat="48.45144" lon="2.75493">
        <ele>58</ele>
        <time>2023-04-16T06:55:50.363Z</time>
      </trkpt>
      <trkpt lat="48.45147" lon="2.75484">
        <ele>61</ele>
        <time>2023-04-16T06:55:55.157Z</time>
      </trkpt>
      <trkpt lat="48.45146" lon="2.75473">
        <ele>61</ele>
        <time>2023-04-16T06:55:59.344Z</time>
      </trkpt>
      <trkpt lat="48.45146" lon="2.75463">
        <ele>61</ele>
        <time>2023-04-16T06:56:04.975Z</time>
      </trkpt>
      <trkpt lat="48.45146" lon="2.75455">
        <ele>65</ele>
        <time>2023-04-16T06:56:08.928Z</time>
      </trkpt>
      <trkpt lat="48.45146" lon="2.75447">
        <ele>65</ele>
        <time>2023-04-16T06:56:13.452Z</time>
      </trkpt>
      <trkpt lat="48.45147" lon="2.75439">
        <ele>65</ele>
        <time>2023-04-16T06:56:17.555Z</time>
      </trkpt>
      <trkpt lat="48.45147" lon="2.75429">
        <ele>69</ele>
        <time>2023-04-16T06:56:21.609Z</time>
      </trkpt>
      <trkpt lat="48.45147" lon="2.75418">
        <ele>69</ele>
        <time>2023-04-16T06:56:26.147Z</time>
      </trkpt>
      <trkpt lat="48.45147" lon="2.75407">
        <ele>69</ele>
        <time>2023-04-16T06:56:30.714Z</time>
      </trkpt>
      <trkpt lat="48.45147" lon="2.75399">
        <ele>72</ele>
        <time>2023-04-16T06:56:34.666Z</time>
      </trkpt>
      <trkpt lat="48.45146" lon="2.7539">
        <ele>72</ele>
        <time>2023-04-16T06:56:38.859Z</time>
      </trkpt>
      <trkpt lat="48.45147" lon="2.75383">
        <ele>72</ele>
        <time>2023-04-16T06:56:42.993Z</time>
      </trkpt>
      <trkpt lat="48.45149" lon="2.75373">
        <ele>74</ele>
        <time>2023-04-16T06:56:49.109Z</time>
      </trkpt>
      <trkpt lat="48.45146" lon="2.75372">
        <ele>74</ele>
        <time>2023-04-16T06:56:53.622Z</time>
      </trkpt>
      <trkpt lat="48.45146" lon="2.75369">
        <ele>74</ele>
        <time>2023-04-16T06:56:58.137Z</time>
      </trkpt>
      <trkpt lat="48.45148" lon="2.75364">
        <ele>74</ele>
        <time>2023-04-16T06:57:02.147Z</time>
      </trkpt>
      <trkpt lat="48.4515" lon="2.75349">
        <ele>74</ele>
        <time>2023-04-16T06:57:06.757Z</time>
      </trkpt>
      <trkpt lat="48.45148" lon="2.75337">
        <ele>75</ele>
        <time>2023-04-16T06:57:10.764Z</time>
      </trkpt>
      <trkpt lat="48.45144" lon="2.75329">
        <ele>75</ele>
        <time>2023-04-16T06:57:14.773Z</time>
      </trkpt>
      <trkpt lat="48.45142" lon="2.75321">
        <ele>75</ele>
        <time>2023-04-16T06:57:18.780Z</time>
      </trkpt>
      <trkpt lat="48.45144" lon="2.75312">
        <ele>76</ele>
        <time>2023-04-16T06:57:22.788Z</time>
      </trkpt>
      <trkpt lat="48.45146" lon="2.75305">
        <ele>76</ele>
        <time>2023-04-16T06:57:26.797Z</time>
      </trkpt>
      <trkpt lat="48.45147" lon="2.75295">
        <ele>76</ele>
        <time>2023-04-16T06:57:31.808Z</time>
      </trkpt>
      <trkpt lat="48.45149" lon="2.75289">
        <ele>77</ele>
        <time>2023-04-16T06:57:36.320Z</time>
      </trkpt>
      <trkpt lat="48.4515" lon="2.75284">
        <ele>77</ele>
        <time>2023-04-16T06:57:40.831Z</time>
      </trkpt>
      <trkpt lat="48.45152" lon="2.75276">
        <ele>77</ele>
        <time>2023-04-16T06:57:45.845Z</time>
      </trkpt>
      <trkpt lat="48.45153" lon="2.75268">
        <ele>78</ele>
        <time>2023-04-16T06:57:50.460Z</time>
      </trkpt>
      <trkpt lat="48.45155" lon="2.75259">
        <ele>78</ele>
        <time>2023-04-16T06:57:54.972Z</time>
      </trkpt>
      <trkpt lat="48.45158" lon="2.7525">
        <ele>78</ele>
        <time>2023-04-16T06:57:58.983Z</time>
      </trkpt>
      <trkpt lat="48.45162" lon="2.75239">
        <ele>78</ele>
        <time>2023-04-16T06:58:03.996Z</time>
      </trkpt>
      <trkpt lat="48.45167" lon="2.75223">
        <ele>78</ele>
        <time>2023-04-16T06:58:14.024Z</time>
      </trkpt>
      <trkpt lat="48.45165" lon="2.75222">
        <ele>78</ele>
        <time>2023-04-16T06:58:18.037Z</time>
      </trkpt>
      <trkpt lat="48.45163" lon="2.75216">
        <ele>78</ele>
        <time>2023-04-16T06:58:23.051Z</time>
      </trkpt>
      <trkpt lat="48.45167" lon="2.75214">
        <ele>78</ele>
        <time>2023-04-16T06:58:28.082Z</time>
      </trkpt>
      <trkpt lat="48.45172" lon="2.75215">
        <ele>78</ele>
        <time>2023-04-16T06:58:32.095Z</time>
      </trkpt>
      <trkpt lat="48.45179" lon="2.75216">
        <ele>78</ele>
        <time>2023-04-16T06:58:36.615Z</time>
      </trkpt>
      <trkpt lat="48.45186" lon="2.75217">
        <ele>79</ele>
        <time>2023-04-16T06:58:41.134Z</time>
      </trkpt>
      <trkpt lat="48.45193" lon="2.75223">
        <ele>79</ele>
        <time>2023-04-16T06:58:45.651Z</time>
      </trkpt>
      <trkpt lat="48.45198" lon="2.75226">
        <ele>79</ele>
        <time>2023-04-16T06:58:49.765Z</time>
      </trkpt>
      <trkpt lat="48.45206" lon="2.75224">
        <ele>79</ele>
        <time>2023-04-16T06:58:53.775Z</time>
      </trkpt>
      <trkpt lat="48.45214" lon="2.75228">
        <ele>80</ele>
        <time>2023-04-16T06:58:58.783Z</time>
      </trkpt>
      <trkpt lat="48.45221" lon="2.75234">
        <ele>80</ele>
        <time>2023-04-16T06:59:03.292Z</time>
      </trkpt>
      <trkpt lat="48.45226" lon="2.75241">
        <ele>80</ele>
        <time>2023-04-16T06:59:07.302Z</time>
      </trkpt>
      <trkpt lat="48.45231" lon="2.75245">
        <ele>80</ele>
        <time>2023-04-16T06:59:11.310Z</time>
      </trkpt>
      <trkpt lat="48.45238" lon="2.75249">
        <ele>79</ele>
        <time>2023-04-16T06:59:15.817Z</time>
      </trkpt>
      <trkpt lat="48.45243" lon="2.75253">
        <ele>79</ele>
        <time>2023-04-16T06:59:20.321Z</time>
      </trkpt>
      <trkpt lat="48.45249" lon="2.75256">
        <ele>79</ele>
        <time>2023-04-16T06:59:24.326Z</time>
      </trkpt>
      <trkpt lat="48.45255" lon="2.75261">
        <ele>79</ele>
        <time>2023-04-16T06:59:28.831Z</time>
      </trkpt>
      <trkpt lat="48.45261" lon="2.75268">
        <ele>80</ele>
        <time>2023-04-16T06:59:33.874Z</time>
      </trkpt>
      <trkpt lat="48.45266" lon="2.75274">
        <ele>78</ele>
        <time>2023-04-16T06:59:39.015Z</time>
      </trkpt>
      <trkpt lat="48.45273" lon="2.75275">
        <ele>78</ele>
        <time>2023-04-16T06:59:43.096Z</time>
      </trkpt>
      <trkpt lat="48.4528" lon="2.75278">
        <ele>78</ele>
        <time>2023-04-16T06:59:47.856Z</time>
      </trkpt>
      <trkpt lat="48.45286" lon="2.7528">
        <ele>78</ele>
        <time>2023-04-16T06:59:52.256Z</time>
      </trkpt>
      <trkpt lat="48.45295" lon="2.75281">
        <ele>77</ele>
        <time>2023-04-16T06:59:56.735Z</time>
      </trkpt>
      <trkpt lat="48.45303" lon="2.75282">
        <ele>77</ele>
        <time>2023-04-16T07:00:00.774Z</time>
      </trkpt>
      <trkpt lat="48.45312" lon="2.75283">
        <ele>77</ele>
        <time>2023-04-16T07:00:05.293Z</time>
      </trkpt>
      <trkpt lat="48.45321" lon="2.75283">
        <ele>76</ele>
        <time>2023-04-16T07:00:09.674Z</time>
      </trkpt>
      <trkpt lat="48.45328" lon="2.75282">
        <ele>76</ele>
        <time>2023-04-16T07:00:13.954Z</time>
      </trkpt>
      <trkpt lat="48.45337" lon="2.75278">
        <ele>76</ele>
        <time>2023-04-16T07:00:19.052Z</time>
      </trkpt>
      <trkpt lat="48.45344" lon="2.75274">
        <ele>76</ele>
        <time>2023-04-16T07:00:23.610Z</time>
      </trkpt>
      <trkpt lat="48.45349" lon="2.7527">
        <ele>74</ele>
        <time>2023-04-16T07:00:27.567Z</time>
      </trkpt>
      <trkpt lat="48.45354" lon="2.75265">
        <ele>74</ele>
        <time>2023-04-16T07:00:31.606Z</time>
      </trkpt>
      <trkpt lat="48.45358" lon="2.7526">
        <ele>75</ele>
        <time>2023-04-16T07:00:36.128Z</time>
      </trkpt>
      <trkpt lat="48.45362" lon="2.75254">
        <ele>75</ele>
        <time>2023-04-16T07:00:40.062Z</time>
      </trkpt>
      <trkpt lat="48.45368" lon="2.75246">
        <ele>75</ele>
        <time>2023-04-16T07:00:44.739Z</time>
      </trkpt>
      <trkpt lat="48.45372" lon="2.75239">
        <ele>75</ele>
        <time>2023-04-16T07:00:48.676Z</time>
      </trkpt>
      <trkpt lat="48.45378" lon="2.75233">
        <ele>76</ele>
        <time>2023-04-16T07:00:54.187Z</time>
      </trkpt>
      <trkpt lat="48.45385" lon="2.75226">
        <ele>76</ele>
        <time>2023-04-16T07:00:58.707Z</time>
      </trkpt>
      <trkpt lat="48.45393" lon="2.7522">
        <ele>76</ele>
        <time>2023-04-16T07:01:03.863Z</time>
      </trkpt>
      <trkpt lat="48.45401" lon="2.75213">
        <ele>76</ele>
        <time>2023-04-16T07:01:08.659Z</time>
      </trkpt>
      <trkpt lat="48.45407" lon="2.75209">
        <ele>76</ele>
        <time>2023-04-16T07:01:13.166Z</time>
      </trkpt>
      <trkpt lat="48.45414" lon="2.75206">
        <ele>77</ele>
        <time>2023-04-16T07:01:17.731Z</time>
      </trkpt>
      <trkpt lat="48.45421" lon="2.75202">
        <ele>77</ele>
        <time>2023-04-16T07:01:22.268Z</time>
      </trkpt>
      <trkpt lat="48.45426" lon="2.75201">
        <ele>77</ele>
        <time>2023-04-16T07:01:26.324Z</time>
      </trkpt>
      <trkpt lat="48.45431" lon="2.75199">
        <ele>76</ele>
        <time>2023-04-16T07:01:31.259Z</time>
      </trkpt>
      <trkpt lat="48.45437" lon="2.75194">
        <ele>76</ele>
        <time>2023-04-16T07:01:35.264Z</time>
      </trkpt>
      <trkpt lat="48.45446" lon="2.7519">
        <ele>76</ele>
        <time>2023-04-16T07:01:39.801Z</time>
      </trkpt>
      <trkpt lat="48.45454" lon="2.75188">
        <ele>76</ele>
        <time>2023-04-16T07:01:44.154Z</time>
      </trkpt>
      <trkpt lat="48.45462" lon="2.75186">
        <ele>75</ele>
        <time>2023-04-16T07:01:48.776Z</time>
      </trkpt>
      <trkpt lat="48.45468" lon="2.75184">
        <ele>75</ele>
        <time>2023-04-16T07:01:53.150Z</time>
      </trkpt>
      <trkpt lat="48.45471" lon="2.75182">
        <ele>75</ele>
        <time>2023-04-16T07:01:57.176Z</time>
      </trkpt>
      <trkpt lat="48.45479" lon="2.75182">
        <ele>75</ele>
        <time>2023-04-16T07:02:01.728Z</time>
      </trkpt>
      <trkpt lat="48.45488" lon="2.75182">
        <ele>76</ele>
        <time>2023-04-16T07:02:06.883Z</time>
      </trkpt>
      <trkpt lat="48.45496" lon="2.75183">
        <ele>76</ele>
        <time>2023-04-16T07:02:10.717Z</time>
      </trkpt>
      <trkpt lat="48.45504" lon="2.75183">
        <ele>76</ele>
        <time>2023-04-16T07:02:15.273Z</time>
      </trkpt>
      <trkpt lat="48.45511" lon="2.75182">
        <ele>76</ele>
        <time>2023-04-16T07:02:20.067Z</time>
      </trkpt>
      <trkpt lat="48.45518" lon="2.7518">
        <ele>76</ele>
        <time>2023-04-16T07:02:25.162Z</time>
      </trkpt>
      <trkpt lat="48.45525" lon="2.7518">
        <ele>76</ele>
        <time>2023-04-16T07:02:29.838Z</time>
      </trkpt>
      <trkpt lat="48.45534" lon="2.75179">
        <ele>76</ele>
        <time>2023-04-16T07:02:34.991Z</time>
      </trkpt>
      <trkpt lat="48.45542" lon="2.75179">
        <ele>75</ele>
        <time>2023-04-16T07:02:39.545Z</time>
      </trkpt>
      <trkpt lat="48.45549" lon="2.75179">
        <ele>75</ele>
        <time>2023-04-16T07:02:44.155Z</time>
      </trkpt>
      <trkpt lat="48.45556" lon="2.75179">
        <ele>75</ele>
        <time>2023-04-16T07:02:49.169Z</time>
      </trkpt>
      <trkpt lat="48.45564" lon="2.75178">
        <ele>75</ele>
        <time>2023-04-16T07:02:53.647Z</time>
      </trkpt>
      <trkpt lat="48.45571" lon="2.75177">
        <ele>77</ele>
        <time>2023-04-16T07:02:58.084Z</time>
      </trkpt>
      <trkpt lat="48.45578" lon="2.75177">
        <ele>77</ele>
        <time>2023-04-16T07:03:02.555Z</time>
      </trkpt>
      <trkpt lat="48.45585" lon="2.75177">
        <ele>77</ele>
        <time>2023-04-16T07:03:07.132Z</time>
      </trkpt>
      <trkpt lat="48.45591" lon="2.75178">
        <ele>77</ele>
        <time>2023-04-16T07:03:11.154Z</time>
      </trkpt>
      <trkpt lat="48.45598" lon="2.75176">
        <ele>79</ele>
        <time>2023-04-16T07:03:15.709Z</time>
      </trkpt>
      <trkpt lat="48.45606" lon="2.75174">
        <ele>79</ele>
        <time>2023-04-16T07:03:20.265Z</time>
      </trkpt>
      <trkpt lat="48.45614" lon="2.75174">
        <ele>79</ele>
        <time>2023-04-16T07:03:24.941Z</time>
      </trkpt>
      <trkpt lat="48.45622" lon="2.75173">
        <ele>79</ele>
        <time>2023-04-16T07:03:29.976Z</time>
      </trkpt>
      <trkpt lat="48.45629" lon="2.75172">
        <ele>80</ele>
        <time>2023-04-16T07:03:34.650Z</time>
      </trkpt>
      <trkpt lat="48.45635" lon="2.75172">
        <ele>80</ele>
        <time>2023-04-16T07:03:39.169Z</time>
      </trkpt>
      <trkpt lat="48.45641" lon="2.75172">
        <ele>80</ele>
        <time>2023-04-16T07:03:43.743Z</time>
      </trkpt>
      <trkpt lat="48.45649" lon="2.75171">
        <ele>80</ele>
        <time>2023-04-16T07:03:48.897Z</time>
      </trkpt>
      <trkpt lat="48.45659" lon="2.75174">
        <ele>81</ele>
        <time>2023-04-16T07:03:53.893Z</time>
      </trkpt>
      <trkpt lat="48.45666" lon="2.75177">
        <ele>81</ele>
        <time>2023-04-16T07:03:58.841Z</time>
      </trkpt>
      <trkpt lat="48.45672" lon="2.75178">
        <ele>81</ele>
        <time>2023-04-16T07:04:02.845Z</time>
      </trkpt>
      <trkpt lat="48.4568" lon="2.75179">
        <ele>81</ele>
        <time>2023-04-16T07:04:07.999Z</time>
      </trkpt>
      <trkpt lat="48.45687" lon="2.75181">
        <ele>83</ele>
        <time>2023-04-16T07:04:12.552Z</time>
      </trkpt>
      <trkpt lat="48.45693" lon="2.75181">
        <ele>82</ele>
        <time>2023-04-16T07:04:17.161Z</time>
      </trkpt>
      <trkpt lat="48.45702" lon="2.75181">
        <ele>83</ele>
        <time>2023-04-16T07:04:21.661Z</time>
      </trkpt>
      <trkpt lat="48.45708" lon="2.75182">
        <ele>83</ele>
        <time>2023-04-16T07:04:25.677Z</time>
      </trkpt>
      <trkpt lat="48.45715" lon="2.75183">
        <ele>83</ele>
        <time>2023-04-16T07:04:30.303Z</time>
      </trkpt>
      <trkpt lat="48.45721" lon="2.75183">
        <ele>83</ele>
        <time>2023-04-16T07:04:34.783Z</time>
      </trkpt>
      <trkpt lat="48.45729" lon="2.75185">
        <ele>83</ele>
        <time>2023-04-16T07:04:39.940Z</time>
      </trkpt>
      <trkpt lat="48.45735" lon="2.75189">
        <ele>83</ele>
        <time>2023-04-16T07:04:43.890Z</time>
      </trkpt>
      <trkpt lat="48.45742" lon="2.7519">
        <ele>83</ele>
        <time>2023-04-16T07:04:47.924Z</time>
      </trkpt>
      <trkpt lat="48.45747" lon="2.7519">
        <ele>83</ele>
        <time>2023-04-16T07:04:51.977Z</time>
      </trkpt>
      <trkpt lat="48.45755" lon="2.75192">
        <ele>83</ele>
        <time>2023-04-16T07:04:57.006Z</time>
      </trkpt>
      <trkpt lat="48.45763" lon="2.75192">
        <ele>83</ele>
        <time>2023-04-16T07:05:00.957Z</time>
      </trkpt>
      <trkpt lat="48.45772" lon="2.75195">
        <ele>79</ele>
        <time>2023-04-16T07:05:05.749Z</time>
      </trkpt>
      <trkpt lat="48.4578" lon="2.75199">
        <ele>79</ele>
        <time>2023-04-16T07:05:10.900Z</time>
      </trkpt>
      <trkpt lat="48.45788" lon="2.75199">
        <ele>79</ele>
        <time>2023-04-16T07:05:14.973Z</time>
      </trkpt>
      <trkpt lat="48.45794" lon="2.752">
        <ele>75</ele>
        <time>2023-04-16T07:05:19.166Z</time>
      </trkpt>
      <trkpt lat="48.458" lon="2.752">
        <ele>75</ele>
        <time>2023-04-16T07:05:22.761Z</time>
      </trkpt>
      <trkpt lat="48.45808" lon="2.75199">
        <ele>75</ele>
        <time>2023-04-16T07:05:28.081Z</time>
      </trkpt>
      <trkpt lat="48.45814" lon="2.75198">
        <ele>75</ele>
        <time>2023-04-16T07:05:32.594Z</time>
      </trkpt>
      <trkpt lat="48.45821" lon="2.752">
        <ele>71</ele>
        <time>2023-04-16T07:05:36.704Z</time>
      </trkpt>
      <trkpt lat="48.45831" lon="2.75205">
        <ele>71</ele>
        <time>2023-04-16T07:05:41.212Z</time>
      </trkpt>
      <trkpt lat="48.45837" lon="2.7521">
        <ele>72</ele>
        <time>2023-04-16T07:05:45.220Z</time>
      </trkpt>
      <trkpt lat="48.45843" lon="2.75211">
        <ele>72</ele>
        <time>2023-04-16T07:05:49.732Z</time>
      </trkpt>
      <trkpt lat="48.4585" lon="2.75212">
        <ele>72</ele>
        <time>2023-04-16T07:05:53.740Z</time>
      </trkpt>
      <trkpt lat="48.45857" lon="2.75216">
        <ele>72</ele>
        <time>2023-04-16T07:05:58.750Z</time>
      </trkpt>
      <trkpt lat="48.45863" lon="2.75218">
        <ele>72</ele>
        <time>2023-04-16T07:06:02.758Z</time>
      </trkpt>
      <trkpt lat="48.45869" lon="2.75222">
        <ele>72</ele>
        <time>2023-04-16T07:06:07.766Z</time>
      </trkpt>
      <trkpt lat="48.45877" lon="2.75224">
        <ele>75</ele>
        <time>2023-04-16T07:06:11.775Z</time>
      </trkpt>
      <trkpt lat="48.45883" lon="2.75225">
        <ele>75</ele>
        <time>2023-04-16T07:06:16.284Z</time>
      </trkpt>
      <trkpt lat="48.4589" lon="2.75232">
        <ele>75</ele>
        <time>2023-04-16T07:06:20.793Z</time>
      </trkpt>
      <trkpt lat="48.45895" lon="2.75237">
        <ele>75</ele>
        <time>2023-04-16T07:06:24.901Z</time>
      </trkpt>
      <trkpt lat="48.45901" lon="2.75243">
        <ele>75</ele>
        <time>2023-04-16T07:06:29.410Z</time>
      </trkpt>
      <trkpt lat="48.45907" lon="2.75249">
        <ele>77</ele>
        <time>2023-04-16T07:06:33.921Z</time>
      </trkpt>
      <trkpt lat="48.45912" lon="2.75255">
        <ele>77</ele>
        <time>2023-04-16T07:06:37.931Z</time>
      </trkpt>
      <trkpt lat="48.45918" lon="2.75259">
        <ele>77</ele>
        <time>2023-04-16T07:06:41.940Z</time>
      </trkpt>
      <trkpt lat="48.45925" lon="2.75262">
        <ele>77</ele>
        <time>2023-04-16T07:06:46.449Z</time>
      </trkpt>
      <trkpt lat="48.4593" lon="2.75265">
        <ele>77</ele>
        <time>2023-04-16T07:06:50.958Z</time>
      </trkpt>
      <trkpt lat="48.45933" lon="2.75268">
        <ele>78</ele>
        <time>2023-04-16T07:06:55.467Z</time>
      </trkpt>
      <trkpt lat="48.45938" lon="2.75271">
        <ele>78</ele>
        <time>2023-04-16T07:07:00.076Z</time>
      </trkpt>
      <trkpt lat="48.45944" lon="2.75272">
        <ele>78</ele>
        <time>2023-04-16T07:07:04.083Z</time>
      </trkpt>
      <trkpt lat="48.4595" lon="2.75273">
        <ele>78</ele>
        <time>2023-04-16T07:07:08.091Z</time>
      </trkpt>
      <trkpt lat="48.45958" lon="2.75276">
        <ele>78</ele>
        <time>2023-04-16T07:07:12.601Z</time>
      </trkpt>
      <trkpt lat="48.45965" lon="2.75281">
        <ele>75</ele>
        <time>2023-04-16T07:07:17.113Z</time>
      </trkpt>
      <trkpt lat="48.45972" lon="2.75285">
        <ele>75</ele>
        <time>2023-04-16T07:07:22.124Z</time>
      </trkpt>
      <trkpt lat="48.45978" lon="2.75283">
        <ele>75</ele>
        <time>2023-04-16T07:07:26.636Z</time>
      </trkpt>
      <trkpt lat="48.45985" lon="2.75289">
        <ele>75</ele>
        <time>2023-04-16T07:07:30.652Z</time>
      </trkpt>
      <trkpt lat="48.45994" lon="2.75296">
        <ele>73</ele>
        <time>2023-04-16T07:07:34.756Z</time>
      </trkpt>
      <trkpt lat="48.46001" lon="2.75301">
        <ele>73</ele>
        <time>2023-04-16T07:07:40.037Z</time>
      </trkpt>
      <trkpt lat="48.46008" lon="2.75306">
        <ele>73</ele>
        <time>2023-04-16T07:07:44.318Z</time>
      </trkpt>
      <trkpt lat="48.46014" lon="2.75309">
        <ele>72</ele>
        <time>2023-04-16T07:07:48.538Z</time>
      </trkpt>
      <trkpt lat="48.46021" lon="2.75314">
        <ele>72</ele>
        <time>2023-04-16T07:07:53.058Z</time>
      </trkpt>
      <trkpt lat="48.46029" lon="2.75318">
        <ele>72</ele>
        <time>2023-04-16T07:07:57.254Z</time>
      </trkpt>
      <trkpt lat="48.46036" lon="2.75322">
        <ele>73</ele>
        <time>2023-04-16T07:08:02.050Z</time>
      </trkpt>
      <trkpt lat="48.46044" lon="2.75326">
        <ele>71</ele>
        <time>2023-04-16T07:08:06.605Z</time>
      </trkpt>
      <trkpt lat="48.46048" lon="2.7533">
        <ele>71</ele>
        <time>2023-04-16T07:08:11.001Z</time>
      </trkpt>
      <trkpt lat="48.46049" lon="2.75336">
        <ele>71</ele>
        <time>2023-04-16T07:08:15.452Z</time>
      </trkpt>
      <trkpt lat="48.46057" lon="2.75339">
        <ele>71</ele>
        <time>2023-04-16T07:08:20.056Z</time>
      </trkpt>
      <trkpt lat="48.46064" lon="2.75343">
        <ele>71</ele>
        <time>2023-04-16T07:08:24.852Z</time>
      </trkpt>
      <trkpt lat="48.46072" lon="2.75346">
        <ele>67</ele>
        <time>2023-04-16T07:08:30.008Z</time>
      </trkpt>
      <trkpt lat="48.46078" lon="2.75349">
        <ele>68</ele>
        <time>2023-04-16T07:08:34.025Z</time>
      </trkpt>
      <trkpt lat="48.46086" lon="2.75353">
        <ele>68</ele>
        <time>2023-04-16T07:08:38.581Z</time>
      </trkpt>
      <trkpt lat="48.46092" lon="2.75356">
        <ele>68</ele>
        <time>2023-04-16T07:08:42.620Z</time>
      </trkpt>
      <trkpt lat="48.46099" lon="2.75359">
        <ele>67</ele>
        <time>2023-04-16T07:08:47.165Z</time>
      </trkpt>
      <trkpt lat="48.46106" lon="2.75362">
        <ele>67</ele>
        <time>2023-04-16T07:08:51.690Z</time>
      </trkpt>
      <trkpt lat="48.46111" lon="2.75366">
        <ele>67</ele>
        <time>2023-04-16T07:08:55.586Z</time>
      </trkpt>
      <trkpt lat="48.46119" lon="2.7537">
        <ele>67</ele>
        <time>2023-04-16T07:09:00.821Z</time>
      </trkpt>
      <trkpt lat="48.46127" lon="2.75372">
        <ele>68</ele>
        <time>2023-04-16T07:09:05.297Z</time>
      </trkpt>
      <trkpt lat="48.46133" lon="2.75375">
        <ele>68</ele>
        <time>2023-04-16T07:09:09.313Z</time>
      </trkpt>
      <trkpt lat="48.46138" lon="2.75377">
        <ele>68</ele>
        <time>2023-04-16T07:09:13.247Z</time>
      </trkpt>
      <trkpt lat="48.46145" lon="2.75378">
        <ele>68</ele>
        <time>2023-04-16T07:09:17.923Z</time>
      </trkpt>
      <trkpt lat="48.46153" lon="2.7538">
        <ele>68</ele>
        <time>2023-04-16T07:09:22.941Z</time>
      </trkpt>
      <trkpt lat="48.4616" lon="2.75385">
        <ele>68</ele>
        <time>2023-04-16T07:09:27.978Z</time>
      </trkpt>
      <trkpt lat="48.46167" lon="2.75387">
        <ele>68</ele>
        <time>2023-04-16T07:09:32.171Z</time>
      </trkpt>
      <trkpt lat="48.46173" lon="2.75389">
        <ele>68</ele>
        <time>2023-04-16T07:09:36.245Z</time>
      </trkpt>
      <trkpt lat="48.4618" lon="2.75392">
        <ele>68</ele>
        <time>2023-04-16T07:09:40.899Z</time>
      </trkpt>
      <trkpt lat="48.46187" lon="2.75393">
        <ele>69</ele>
        <time>2023-04-16T07:09:45.377Z</time>
      </trkpt>
      <trkpt lat="48.46193" lon="2.75395">
        <ele>69</ele>
        <time>2023-04-16T07:09:49.540Z</time>
      </trkpt>
      <trkpt lat="48.462" lon="2.75398">
        <ele>69</ele>
        <time>2023-04-16T07:09:53.979Z</time>
      </trkpt>
      <trkpt lat="48.46208" lon="2.75399">
        <ele>69</ele>
        <time>2023-04-16T07:09:58.564Z</time>
      </trkpt>
      <trkpt lat="48.46215" lon="2.75401">
        <ele>70</ele>
        <time>2023-04-16T07:10:03.137Z</time>
      </trkpt>
      <trkpt lat="48.46221" lon="2.75401">
        <ele>70</ele>
        <time>2023-04-16T07:10:07.015Z</time>
      </trkpt>
      <trkpt lat="48.46228" lon="2.75401">
        <ele>70</ele>
        <time>2023-04-16T07:10:11.632Z</time>
      </trkpt>
      <trkpt lat="48.46234" lon="2.75402">
        <ele>70</ele>
        <time>2023-04-16T07:10:15.528Z</time>
      </trkpt>
      <trkpt lat="48.46241" lon="2.75401">
        <ele>70</ele>
        <time>2023-04-16T07:10:20.083Z</time>
      </trkpt>
      <trkpt lat="48.46246" lon="2.75401">
        <ele>70</ele>
        <time>2023-04-16T07:10:24.159Z</time>
      </trkpt>
      <trkpt lat="48.46253" lon="2.75401">
        <ele>70</ele>
        <time>2023-04-16T07:10:28.236Z</time>
      </trkpt>
      <trkpt lat="48.46259" lon="2.75403">
        <ele>72</ele>
        <time>2023-04-16T07:10:32.911Z</time>
      </trkpt>
      <trkpt lat="48.46265" lon="2.75407">
        <ele>73</ele>
        <time>2023-04-16T07:10:36.866Z</time>
      </trkpt>
      <trkpt lat="48.4627" lon="2.75411">
        <ele>73</ele>
        <time>2023-04-16T07:10:40.702Z</time>
      </trkpt>
      <trkpt lat="48.46277" lon="2.75412">
        <ele>73</ele>
        <time>2023-04-16T07:10:45.915Z</time>
      </trkpt>
      <trkpt lat="48.46285" lon="2.75411">
        <ele>73</ele>
        <time>2023-04-16T07:10:50.948Z</time>
      </trkpt>
      <trkpt lat="48.46292" lon="2.75414">
        <ele>73</ele>
        <time>2023-04-16T07:10:55.961Z</time>
      </trkpt>
      <trkpt lat="48.46297" lon="2.75417">
        <ele>73</ele>
        <time>2023-04-16T07:11:00.034Z</time>
      </trkpt>
      <trkpt lat="48.46303" lon="2.75421">
        <ele>73</ele>
        <time>2023-04-16T07:11:03.988Z</time>
      </trkpt>
      <trkpt lat="48.46309" lon="2.75423">
        <ele>73</ele>
        <time>2023-04-16T07:11:08.023Z</time>
      </trkpt>
      <trkpt lat="48.46316" lon="2.75426">
        <ele>73</ele>
        <time>2023-04-16T07:11:13.077Z</time>
      </trkpt>
      <trkpt lat="48.46321" lon="2.75426">
        <ele>75</ele>
        <time>2023-04-16T07:11:16.990Z</time>
      </trkpt>
      <trkpt lat="48.46328" lon="2.75429">
        <ele>75</ele>
        <time>2023-04-16T07:11:21.452Z</time>
      </trkpt>
      <trkpt lat="48.46334" lon="2.75433">
        <ele>74</ele>
        <time>2023-04-16T07:11:25.977Z</time>
      </trkpt>
      <trkpt lat="48.46341" lon="2.75435">
        <ele>74</ele>
        <time>2023-04-16T07:11:30.770Z</time>
      </trkpt>
      <trkpt lat="48.46347" lon="2.75436">
        <ele>75</ele>
        <time>2023-04-16T07:11:35.204Z</time>
      </trkpt>
      <trkpt lat="48.46354" lon="2.75439">
        <ele>75</ele>
        <time>2023-04-16T07:11:39.276Z</time>
      </trkpt>
      <trkpt lat="48.46361" lon="2.75442">
        <ele>75</ele>
        <time>2023-04-16T07:11:43.827Z</time>
      </trkpt>
      <trkpt lat="48.46367" lon="2.75443">
        <ele>75</ele>
        <time>2023-04-16T07:11:48.384Z</time>
      </trkpt>
      <trkpt lat="48.46373" lon="2.75447">
        <ele>75</ele>
        <time>2023-04-16T07:11:52.452Z</time>
      </trkpt>
      <trkpt lat="48.4638" lon="2.75453">
        <ele>74</ele>
        <time>2023-04-16T07:11:56.452Z</time>
      </trkpt>
      <trkpt lat="48.46385" lon="2.75461">
        <ele>73</ele>
        <time>2023-04-16T07:12:00.962Z</time>
      </trkpt>
      <trkpt lat="48.46389" lon="2.75469">
        <ele>73</ele>
        <time>2023-04-16T07:12:05.452Z</time>
      </trkpt>
      <trkpt lat="48.46391" lon="2.75477">
        <ele>73</ele>
        <time>2023-04-16T07:12:09.452Z</time>
      </trkpt>
      <trkpt lat="48.46395" lon="2.75484">
        <ele>73</ele>
        <time>2023-04-16T07:12:13.425Z</time>
      </trkpt>
      <trkpt lat="48.46399" lon="2.75493">
        <ele>73</ele>
        <time>2023-04-16T07:12:17.979Z</time>
      </trkpt>
      <trkpt lat="48.46405" lon="2.75504">
        <ele>73</ele>
        <time>2023-04-16T07:12:22.751Z</time>
      </trkpt>
      <trkpt lat="48.46408" lon="2.75516">
        <ele>74</ele>
        <time>2023-04-16T07:12:27.903Z</time>
      </trkpt>
      <trkpt lat="48.46411" lon="2.75528">
        <ele>74</ele>
        <time>2023-04-16T07:12:32.296Z</time>
      </trkpt>
      <trkpt lat="48.46415" lon="2.75538">
        <ele>74</ele>
        <time>2023-04-16T07:12:36.715Z</time>
      </trkpt>
      <trkpt lat="48.46418" lon="2.7555">
        <ele>75</ele>
        <time>2023-04-16T07:12:41.871Z</time>
      </trkpt>
      <trkpt lat="48.46422" lon="2.7556">
        <ele>75</ele>
        <time>2023-04-16T07:12:46.452Z</time>
      </trkpt>
      <trkpt lat="48.46425" lon="2.75571">
        <ele>75</ele>
        <time>2023-04-16T07:12:51.066Z</time>
      </trkpt>
      <trkpt lat="48.46427" lon="2.75579">
        <ele>75</ele>
        <time>2023-04-16T07:12:55.064Z</time>
      </trkpt>
      <trkpt lat="48.46429" lon="2.75588">
        <ele>75</ele>
        <time>2023-04-16T07:12:59.002Z</time>
      </trkpt>
      <trkpt lat="48.46432" lon="2.75598">
        <ele>75</ele>
        <time>2023-04-16T07:13:03.559Z</time>
      </trkpt>
      <trkpt lat="48.46435" lon="2.75607">
        <ele>75</ele>
        <time>2023-04-16T07:13:07.577Z</time>
      </trkpt>
      <trkpt lat="48.46438" lon="2.75616">
        <ele>75</ele>
        <time>2023-04-16T07:13:12.012Z</time>
      </trkpt>
      <trkpt lat="48.46441" lon="2.75625">
        <ele>75</ele>
        <time>2023-04-16T07:13:16.568Z</time>
      </trkpt>
      <trkpt lat="48.46443" lon="2.75634">
        <ele>75</ele>
        <time>2023-04-16T07:13:20.869Z</time>
      </trkpt>
      <trkpt lat="48.46444" lon="2.75643">
        <ele>75</ele>
        <time>2023-04-16T07:13:25.156Z</time>
      </trkpt>
      <trkpt lat="48.46446" lon="2.75654">
        <ele>74</ele>
        <time>2023-04-16T07:13:29.746Z</time>
      </trkpt>
      <trkpt lat="48.46449" lon="2.75663">
        <ele>74</ele>
        <time>2023-04-16T07:13:34.105Z</time>
      </trkpt>
      <trkpt lat="48.46451" lon="2.75671">
        <ele>74</ele>
        <time>2023-04-16T07:13:38.326Z</time>
      </trkpt>
      <trkpt lat="48.46453" lon="2.75679">
        <ele>74</ele>
        <time>2023-04-16T07:13:42.266Z</time>
      </trkpt>
      <trkpt lat="48.46456" lon="2.75689">
        <ele>74</ele>
        <time>2023-04-16T07:13:46.867Z</time>
      </trkpt>
      <trkpt lat="48.46457" lon="2.75698">
        <ele>74</ele>
        <time>2023-04-16T07:13:50.870Z</time>
      </trkpt>
      <trkpt lat="48.46461" lon="2.75708">
        <ele>73</ele>
        <time>2023-04-16T07:13:56.132Z</time>
      </trkpt>
      <trkpt lat="48.46464" lon="2.75718">
        <ele>72</ele>
        <time>2023-04-16T07:14:00.611Z</time>
      </trkpt>
      <trkpt lat="48.46469" lon="2.75726">
        <ele>72</ele>
        <time>2023-04-16T07:14:04.431Z</time>
      </trkpt>
      <trkpt lat="48.46471" lon="2.75736">
        <ele>72</ele>
        <time>2023-04-16T07:14:09.113Z</time>
      </trkpt>
      <trkpt lat="48.46472" lon="2.75743">
        <ele>72</ele>
        <time>2023-04-16T07:14:12.674Z</time>
      </trkpt>
      <trkpt lat="48.46474" lon="2.75751">
        <ele>72</ele>
        <time>2023-04-16T07:14:16.693Z</time>
      </trkpt>
      <trkpt lat="48.46477" lon="2.75762">
        <ele>72</ele>
        <time>2023-04-16T07:14:21.652Z</time>
      </trkpt>
      <trkpt lat="48.46479" lon="2.7577">
        <ele>71</ele>
        <time>2023-04-16T07:14:26.751Z</time>
      </trkpt>
      <trkpt lat="48.46483" lon="2.75779">
        <ele>71</ele>
        <time>2023-04-16T07:14:31.130Z</time>
      </trkpt>
      <trkpt lat="48.46484" lon="2.75784">
        <ele>71</ele>
        <time>2023-04-16T07:14:34.890Z</time>
      </trkpt>
      <trkpt lat="48.46485" lon="2.75791">
        <ele>71</ele>
        <time>2023-04-16T07:14:39.889Z</time>
      </trkpt>
      <trkpt lat="48.46489" lon="2.75803">
        <ele>70</ele>
        <time>2023-04-16T07:14:43.829Z</time>
      </trkpt>
      <trkpt lat="48.46491" lon="2.75816">
        <ele>70</ele>
        <time>2023-04-16T07:14:48.925Z</time>
      </trkpt>
      <trkpt lat="48.46492" lon="2.75826">
        <ele>70</ele>
        <time>2023-04-16T07:14:52.760Z</time>
      </trkpt>
      <trkpt lat="48.46494" lon="2.75836">
        <ele>70</ele>
        <time>2023-04-16T07:14:57.553Z</time>
      </trkpt>
      <trkpt lat="48.46496" lon="2.75845">
        <ele>70</ele>
        <time>2023-04-16T07:15:02.156Z</time>
      </trkpt>
      <trkpt lat="48.465" lon="2.75855">
        <ele>70</ele>
        <time>2023-04-16T07:15:06.162Z</time>
      </trkpt>
      <trkpt lat="48.46503" lon="2.75863">
        <ele>70</ele>
        <time>2023-04-16T07:15:10.676Z</time>
      </trkpt>
      <trkpt lat="48.46505" lon="2.75873">
        <ele>70</ele>
        <time>2023-04-16T07:15:14.731Z</time>
      </trkpt>
      <trkpt lat="48.46508" lon="2.75881">
        <ele>71</ele>
        <time>2023-04-16T07:15:18.684Z</time>
      </trkpt>
      <trkpt lat="48.46512" lon="2.75891">
        <ele>71</ele>
        <time>2023-04-16T07:15:23.956Z</time>
      </trkpt>
      <trkpt lat="48.46515" lon="2.75899">
        <ele>71</ele>
        <time>2023-04-16T07:15:28.583Z</time>
      </trkpt>
      <trkpt lat="48.46517" lon="2.75909">
        <ele>71</ele>
        <time>2023-04-16T07:15:33.156Z</time>
      </trkpt>
      <trkpt lat="48.46521" lon="2.75922">
        <ele>71</ele>
        <time>2023-04-16T07:15:37.715Z</time>
      </trkpt>
      <trkpt lat="48.46523" lon="2.75932">
        <ele>71</ele>
        <time>2023-04-16T07:15:41.927Z</time>
      </trkpt>
      <trkpt lat="48.46526" lon="2.7594">
        <ele>71</ele>
        <time>2023-04-16T07:15:46.361Z</time>
      </trkpt>
      <trkpt lat="48.46528" lon="2.7595">
        <ele>71</ele>
        <time>2023-04-16T07:15:50.973Z</time>
      </trkpt>
      <trkpt lat="48.46531" lon="2.75959">
        <ele>70</ele>
        <time>2023-04-16T07:15:54.984Z</time>
      </trkpt>
      <trkpt lat="48.46534" lon="2.7597">
        <ele>70</ele>
        <time>2023-04-16T07:15:59.161Z</time>
      </trkpt>
      <trkpt lat="48.4654" lon="2.75978">
        <ele>70</ele>
        <time>2023-04-16T07:16:03.366Z</time>
      </trkpt>
      <trkpt lat="48.46546" lon="2.75986">
        <ele>69</ele>
        <time>2023-04-16T07:16:07.438Z</time>
      </trkpt>
      <trkpt lat="48.46552" lon="2.75991">
        <ele>67</ele>
        <time>2023-04-16T07:16:11.989Z</time>
      </trkpt>
      <trkpt lat="48.46559" lon="2.75993">
        <ele>67</ele>
        <time>2023-04-16T07:16:16.659Z</time>
      </trkpt>
      <trkpt lat="48.46564" lon="2.75995">
        <ele>67</ele>
        <time>2023-04-16T07:16:20.730Z</time>
      </trkpt>
      <trkpt lat="48.46569" lon="2.75996">
        <ele>67</ele>
        <time>2023-04-16T07:16:24.744Z</time>
      </trkpt>
      <trkpt lat="48.46574" lon="2.75996">
        <ele>63</ele>
        <time>2023-04-16T07:16:29.294Z</time>
      </trkpt>
      <trkpt lat="48.4658" lon="2.75995">
        <ele>63</ele>
        <time>2023-04-16T07:16:33.247Z</time>
      </trkpt>
      <trkpt lat="48.46586" lon="2.75994">
        <ele>63</ele>
        <time>2023-04-16T07:16:37.920Z</time>
      </trkpt>
      <trkpt lat="48.46591" lon="2.75995">
        <ele>63</ele>
        <time>2023-04-16T07:16:42.591Z</time>
      </trkpt>
      <trkpt lat="48.46597" lon="2.75995">
        <ele>63</ele>
        <time>2023-04-16T07:16:47.142Z</time>
      </trkpt>
      <trkpt lat="48.46602" lon="2.75995">
        <ele>58</ele>
        <time>2023-04-16T07:16:51.656Z</time>
      </trkpt>
      <trkpt lat="48.46607" lon="2.75993">
        <ele>58</ele>
        <time>2023-04-16T07:16:55.645Z</time>
      </trkpt>
      <trkpt lat="48.46614" lon="2.75993">
        <ele>58</ele>
        <time>2023-04-16T07:17:00.153Z</time>
      </trkpt>
      <trkpt lat="48.4662" lon="2.75993">
        <ele>58</ele>
        <time>2023-04-16T07:17:04.626Z</time>
      </trkpt>
      <trkpt lat="48.46627" lon="2.75993">
        <ele>56</ele>
        <time>2023-04-16T07:17:08.638Z</time>
      </trkpt>
      <trkpt lat="48.46635" lon="2.75991">
        <ele>56</ele>
        <time>2023-04-16T07:17:13.162Z</time>
      </trkpt>
      <trkpt lat="48.46643" lon="2.75989">
        <ele>56</ele>
        <time>2023-04-16T07:17:17.619Z</time>
      </trkpt>
      <trkpt lat="48.4665" lon="2.75989">
        <ele>56</ele>
        <time>2023-04-16T07:17:21.568Z</time>
      </trkpt>
      <trkpt lat="48.46657" lon="2.75987">
        <ele>58</ele>
        <time>2023-04-16T07:17:25.639Z</time>
      </trkpt>
      <trkpt lat="48.46664" lon="2.75984">
        <ele>58</ele>
        <time>2023-04-16T07:17:30.140Z</time>
      </trkpt>
      <trkpt lat="48.46668" lon="2.75985">
        <ele>58</ele>
        <time>2023-04-16T07:17:34.175Z</time>
      </trkpt>
      <trkpt lat="48.46674" lon="2.75986">
        <ele>58</ele>
        <time>2023-04-16T07:17:38.688Z</time>
      </trkpt>
      <trkpt lat="48.46681" lon="2.75984">
        <ele>59</ele>
        <time>2023-04-16T07:17:43.238Z</time>
      </trkpt>
      <trkpt lat="48.46689" lon="2.75982">
        <ele>59</ele>
        <time>2023-04-16T07:17:47.906Z</time>
      </trkpt>
      <trkpt lat="48.46696" lon="2.7598">
        <ele>59</ele>
        <time>2023-04-16T07:17:52.452Z</time>
      </trkpt>
      <trkpt lat="48.46702" lon="2.75977">
        <ele>59</ele>
        <time>2023-04-16T07:17:56.988Z</time>
      </trkpt>
      <trkpt lat="48.46708" lon="2.75977">
        <ele>59</ele>
        <time>2023-04-16T07:18:01.640Z</time>
      </trkpt>
      <trkpt lat="48.46714" lon="2.75977">
        <ele>59</ele>
        <time>2023-04-16T07:18:06.125Z</time>
      </trkpt>
      <trkpt lat="48.46722" lon="2.75977">
        <ele>59</ele>
        <time>2023-04-16T07:18:11.146Z</time>
      </trkpt>
      <trkpt lat="48.46729" lon="2.75977">
        <ele>59</ele>
        <time>2023-04-16T07:18:15.967Z</time>
      </trkpt>
      <trkpt lat="48.46734" lon="2.75977">
        <ele>59</ele>
        <time>2023-04-16T07:18:20.158Z</time>
      </trkpt>
      <trkpt lat="48.4674" lon="2.75977">
        <ele>59</ele>
        <time>2023-04-16T07:18:24.107Z</time>
      </trkpt>
      <trkpt lat="48.46747" lon="2.75974">
        <ele>59</ele>
        <time>2023-04-16T07:18:28.657Z</time>
      </trkpt>
      <trkpt lat="48.46752" lon="2.75973">
        <ele>59</ele>
        <time>2023-04-16T07:18:32.608Z</time>
      </trkpt>
      <trkpt lat="48.46757" lon="2.75971">
        <ele>59</ele>
        <time>2023-04-16T07:18:37.154Z</time>
      </trkpt>
      <trkpt lat="48.46763" lon="2.7597">
        <ele>59</ele>
        <time>2023-04-16T07:18:40.988Z</time>
      </trkpt>
      <trkpt lat="48.46769" lon="2.75968">
        <ele>57</ele>
        <time>2023-04-16T07:18:45.059Z</time>
      </trkpt>
      <trkpt lat="48.46776" lon="2.75967">
        <ele>57</ele>
        <time>2023-04-16T07:18:49.730Z</time>
      </trkpt>
      <trkpt lat="48.46782" lon="2.75966">
        <ele>57</ele>
        <time>2023-04-16T07:18:53.643Z</time>
      </trkpt>
      <trkpt lat="48.46789" lon="2.75965">
        <ele>57</ele>
        <time>2023-04-16T07:18:58.256Z</time>
      </trkpt>
      <trkpt lat="48.46797" lon="2.75963">
        <ele>56</ele>
        <time>2023-04-16T07:19:02.909Z</time>
      </trkpt>
      <trkpt lat="48.46804" lon="2.75961">
        <ele>56</ele>
        <time>2023-04-16T07:19:06.863Z</time>
      </trkpt>
      <trkpt lat="48.46809" lon="2.75959">
        <ele>56</ele>
        <time>2023-04-16T07:19:11.656Z</time>
      </trkpt>
      <trkpt lat="48.46815" lon="2.75959">
        <ele>56</ele>
        <time>2023-04-16T07:19:15.790Z</time>
      </trkpt>
      <trkpt lat="48.46822" lon="2.75959">
        <ele>55</ele>
        <time>2023-04-16T07:19:19.806Z</time>
      </trkpt>
      <trkpt lat="48.4683" lon="2.75959">
        <ele>55</ele>
        <time>2023-04-16T07:19:24.359Z</time>
      </trkpt>
      <trkpt lat="48.46837" lon="2.75958">
        <ele>57</ele>
        <time>2023-04-16T07:19:28.912Z</time>
      </trkpt>
      <trkpt lat="48.46845" lon="2.75955">
        <ele>57</ele>
        <time>2023-04-16T07:19:33.345Z</time>
      </trkpt>
      <trkpt lat="48.46852" lon="2.75952">
        <ele>57</ele>
        <time>2023-04-16T07:19:37.880Z</time>
      </trkpt>
      <trkpt lat="48.46857" lon="2.75951">
        <ele>57</ele>
        <time>2023-04-16T07:19:41.854Z</time>
      </trkpt>
      <trkpt lat="48.46865" lon="2.75948">
        <ele>57</ele>
        <time>2023-04-16T07:19:46.647Z</time>
      </trkpt>
      <trkpt lat="48.46872" lon="2.75947">
        <ele>57</ele>
        <time>2023-04-16T07:19:50.842Z</time>
      </trkpt>
      <trkpt lat="48.46877" lon="2.75947">
        <ele>56</ele>
        <time>2023-04-16T07:19:54.876Z</time>
      </trkpt>
      <trkpt lat="48.46883" lon="2.75947">
        <ele>56</ele>
        <time>2023-04-16T07:19:59.460Z</time>
      </trkpt>
      <trkpt lat="48.46889" lon="2.75947">
        <ele>56</ele>
        <time>2023-04-16T07:20:03.773Z</time>
      </trkpt>
      <trkpt lat="48.46893" lon="2.75946">
        <ele>56</ele>
        <time>2023-04-16T07:20:07.756Z</time>
      </trkpt>
      <trkpt lat="48.469" lon="2.75944">
        <ele>56</ele>
        <time>2023-04-16T07:20:12.968Z</time>
      </trkpt>
      <trkpt lat="48.46907" lon="2.75942">
        <ele>56</ele>
        <time>2023-04-16T07:20:17.159Z</time>
      </trkpt>
      <trkpt lat="48.46914" lon="2.75941">
        <ele>56</ele>
        <time>2023-04-16T07:20:21.519Z</time>
      </trkpt>
      <trkpt lat="48.46922" lon="2.75939">
        <ele>56</ele>
        <time>2023-04-16T07:20:25.658Z</time>
      </trkpt>
      <trkpt lat="48.46928" lon="2.75937">
        <ele>56</ele>
        <time>2023-04-16T07:20:30.152Z</time>
      </trkpt>
      <trkpt lat="48.46934" lon="2.75935">
        <ele>56</ele>
        <time>2023-04-16T07:20:34.625Z</time>
      </trkpt>
      <trkpt lat="48.46942" lon="2.75933">
        <ele>56</ele>
        <time>2023-04-16T07:20:39.171Z</time>
      </trkpt>
      <trkpt lat="48.4695" lon="2.75933">
        <ele>56</ele>
        <time>2023-04-16T07:20:43.741Z</time>
      </trkpt>
      <trkpt lat="48.46957" lon="2.75931">
        <ele>56</ele>
        <time>2023-04-16T07:20:48.292Z</time>
      </trkpt>
      <trkpt lat="48.46963" lon="2.75928">
        <ele>56</ele>
        <time>2023-04-16T07:20:52.756Z</time>
      </trkpt>
      <trkpt lat="48.46971" lon="2.75928">
        <ele>56</ele>
        <time>2023-04-16T07:20:56.676Z</time>
      </trkpt>
      <trkpt lat="48.46982" lon="2.75925">
        <ele>56</ele>
        <time>2023-04-16T07:21:01.437Z</time>
      </trkpt>
      <trkpt lat="48.46988" lon="2.75923">
        <ele>55</ele>
        <time>2023-04-16T07:21:05.296Z</time>
      </trkpt>
      <trkpt lat="48.46994" lon="2.75922">
        <ele>55</ele>
        <time>2023-04-16T07:21:09.724Z</time>
      </trkpt>
      <trkpt lat="48.47" lon="2.75922">
        <ele>55</ele>
        <time>2023-04-16T07:21:14.392Z</time>
      </trkpt>
      <trkpt lat="48.47007" lon="2.75922">
        <ele>55</ele>
        <time>2023-04-16T07:21:18.885Z</time>
      </trkpt>
      <trkpt lat="48.47014" lon="2.75923">
        <ele>55</ele>
        <time>2023-04-16T07:21:23.880Z</time>
      </trkpt>
      <trkpt lat="48.47021" lon="2.75921">
        <ele>54</ele>
        <time>2023-04-16T07:21:28.395Z</time>
      </trkpt>
      <trkpt lat="48.4703" lon="2.7592">
        <ele>54</ele>
        <time>2023-04-16T07:21:32.943Z</time>
      </trkpt>
      <trkpt lat="48.47038" lon="2.75918">
        <ele>54</ele>
        <time>2023-04-16T07:21:37.964Z</time>
      </trkpt>
      <trkpt lat="48.47045" lon="2.75918">
        <ele>54</ele>
        <time>2023-04-16T07:21:42.452Z</time>
      </trkpt>
      <trkpt lat="48.47052" lon="2.75919">
        <ele>54</ele>
        <time>2023-04-16T07:21:46.570Z</time>
      </trkpt>
      <trkpt lat="48.47059" lon="2.75918">
        <ele>54</ele>
        <time>2023-04-16T07:21:51.238Z</time>
      </trkpt>
      <trkpt lat="48.47066" lon="2.75917">
        <ele>54</ele>
        <time>2023-04-16T07:21:55.968Z</time>
      </trkpt>
      <trkpt lat="48.47074" lon="2.75914">
        <ele>56</ele>
        <time>2023-04-16T07:22:01.097Z</time>
      </trkpt>
      <trkpt lat="48.47081" lon="2.75913">
        <ele>56</ele>
        <time>2023-04-16T07:22:04.984Z</time>
      </trkpt>
      <trkpt lat="48.47088" lon="2.75912">
        <ele>56</ele>
        <time>2023-04-16T07:22:09.653Z</time>
      </trkpt>
      <trkpt lat="48.47095" lon="2.7591">
        <ele>56</ele>
        <time>2023-04-16T07:22:13.604Z</time>
      </trkpt>
      <trkpt lat="48.47102" lon="2.75908">
        <ele>58</ele>
        <time>2023-04-16T07:22:17.554Z</time>
      </trkpt>
      <trkpt lat="48.47108" lon="2.75903">
        <ele>58</ele>
        <time>2023-04-16T07:22:22.178Z</time>
      </trkpt>
      <trkpt lat="48.47114" lon="2.75899">
        <ele>58</ele>
        <time>2023-04-16T07:22:26.651Z</time>
      </trkpt>
      <trkpt lat="48.47121" lon="2.75898">
        <ele>58</ele>
        <time>2023-04-16T07:22:31.320Z</time>
      </trkpt>
      <trkpt lat="48.47127" lon="2.75897">
        <ele>60</ele>
        <time>2023-04-16T07:22:35.392Z</time>
      </trkpt>
      <trkpt lat="48.47135" lon="2.75895">
        <ele>60</ele>
        <time>2023-04-16T07:22:40.067Z</time>
      </trkpt>
      <trkpt lat="48.47143" lon="2.75893">
        <ele>60</ele>
        <time>2023-04-16T07:22:44.701Z</time>
      </trkpt>
      <trkpt lat="48.47154" lon="2.75888">
        <ele>62</ele>
        <time>2023-04-16T07:22:49.142Z</time>
      </trkpt>
      <trkpt lat="48.4716" lon="2.75887">
        <ele>62</ele>
        <time>2023-04-16T07:22:52.975Z</time>
      </trkpt>
      <trkpt lat="48.47166" lon="2.75886">
        <ele>62</ele>
        <time>2023-04-16T07:22:57.452Z</time>
      </trkpt>
      <trkpt lat="48.47171" lon="2.75886">
        <ele>62</ele>
        <time>2023-04-16T07:23:01.962Z</time>
      </trkpt>
      <trkpt lat="48.47178" lon="2.75884">
        <ele>62</ele>
        <time>2023-04-16T07:23:06.150Z</time>
      </trkpt>
      <trkpt lat="48.47185" lon="2.75881">
        <ele>64</ele>
        <time>2023-04-16T07:23:10.171Z</time>
      </trkpt>
      <trkpt lat="48.47193" lon="2.75877">
        <ele>64</ele>
        <time>2023-04-16T07:23:14.244Z</time>
      </trkpt>
      <trkpt lat="48.47199" lon="2.75874">
        <ele>65</ele>
        <time>2023-04-16T07:23:18.318Z</time>
      </trkpt>
      <trkpt lat="48.47204" lon="2.75872">
        <ele>65</ele>
        <time>2023-04-16T07:23:22.870Z</time>
      </trkpt>
      <trkpt lat="48.4721" lon="2.7587">
        <ele>64</ele>
        <time>2023-04-16T07:23:27.603Z</time>
      </trkpt>
      <trkpt lat="48.47217" lon="2.75867">
        <ele>64</ele>
        <time>2023-04-16T07:23:31.996Z</time>
      </trkpt>
      <trkpt lat="48.47225" lon="2.75865">
        <ele>64</ele>
        <time>2023-04-16T07:23:36.667Z</time>
      </trkpt>
      <trkpt lat="48.47231" lon="2.75864">
        <ele>64</ele>
        <time>2023-04-16T07:23:41.177Z</time>
      </trkpt>
      <trkpt lat="48.47237" lon="2.75862">
        <ele>63</ele>
        <time>2023-04-16T07:23:45.766Z</time>
      </trkpt>
      <trkpt lat="48.47244" lon="2.7586">
        <ele>63</ele>
        <time>2023-04-16T07:23:49.955Z</time>
      </trkpt>
      <trkpt lat="48.4725" lon="2.75853">
        <ele>63</ele>
        <time>2023-04-16T07:23:54.745Z</time>
      </trkpt>
      <trkpt lat="48.47253" lon="2.75854">
        <ele>63</ele>
        <time>2023-04-16T07:23:59.295Z</time>
      </trkpt>
      <trkpt lat="48.4726" lon="2.75851">
        <ele>63</ele>
        <time>2023-04-16T07:24:03.965Z</time>
      </trkpt>
      <trkpt lat="48.47266" lon="2.75848">
        <ele>62</ele>
        <time>2023-04-16T07:24:08.155Z</time>
      </trkpt>
      <trkpt lat="48.47273" lon="2.75846">
        <ele>62</ele>
        <time>2023-04-16T07:24:12.167Z</time>
      </trkpt>
      <trkpt lat="48.47281" lon="2.75843">
        <ele>62</ele>
        <time>2023-04-16T07:24:16.717Z</time>
      </trkpt>
      <trkpt lat="48.47287" lon="2.75842">
        <ele>62</ele>
        <time>2023-04-16T07:24:21.266Z</time>
      </trkpt>
      <trkpt lat="48.47295" lon="2.75838">
        <ele>61</ele>
        <time>2023-04-16T07:24:25.887Z</time>
      </trkpt>
      <trkpt lat="48.47301" lon="2.75833">
        <ele>61</ele>
        <time>2023-04-16T07:24:30.363Z</time>
      </trkpt>
      <trkpt lat="48.47307" lon="2.75833">
        <ele>61</ele>
        <time>2023-04-16T07:24:35.151Z</time>
      </trkpt>
      <trkpt lat="48.47312" lon="2.75833">
        <ele>61</ele>
        <time>2023-04-16T07:24:39.702Z</time>
      </trkpt>
      <trkpt lat="48.47318" lon="2.75831">
        <ele>61</ele>
        <time>2023-04-16T07:24:44.089Z</time>
      </trkpt>
      <trkpt lat="48.47322" lon="2.75826">
        <ele>62</ele>
        <time>2023-04-16T07:24:49.159Z</time>
      </trkpt>
      <trkpt lat="48.4733" lon="2.75825">
        <ele>62</ele>
        <time>2023-04-16T07:24:53.664Z</time>
      </trkpt>
      <trkpt lat="48.47338" lon="2.75824">
        <ele>62</ele>
        <time>2023-04-16T07:24:58.330Z</time>
      </trkpt>
      <trkpt lat="48.47344" lon="2.75824">
        <ele>62</ele>
        <time>2023-04-16T07:25:02.879Z</time>
      </trkpt>
      <trkpt lat="48.47349" lon="2.75822">
        <ele>63</ele>
        <time>2023-04-16T07:25:06.709Z</time>
      </trkpt>
      <trkpt lat="48.47356" lon="2.7582">
        <ele>63</ele>
        <time>2023-04-16T07:25:10.659Z</time>
      </trkpt>
      <trkpt lat="48.47363" lon="2.75818">
        <ele>63</ele>
        <time>2023-04-16T07:25:14.968Z</time>
      </trkpt>
      <trkpt lat="48.4737" lon="2.75815">
        <ele>63</ele>
        <time>2023-04-16T07:25:19.158Z</time>
      </trkpt>
      <trkpt lat="48.47376" lon="2.75813">
        <ele>63</ele>
        <time>2023-04-16T07:25:23.328Z</time>
      </trkpt>
      <trkpt lat="48.47384" lon="2.7581">
        <ele>63</ele>
        <time>2023-04-16T07:25:27.994Z</time>
      </trkpt>
      <trkpt lat="48.47392" lon="2.75806">
        <ele>63</ele>
        <time>2023-04-16T07:25:33.180Z</time>
      </trkpt>
      <trkpt lat="48.47397" lon="2.75803">
        <ele>63</ele>
        <time>2023-04-16T07:25:37.687Z</time>
      </trkpt>
      <trkpt lat="48.47402" lon="2.75799">
        <ele>63</ele>
        <time>2023-04-16T07:25:42.354Z</time>
      </trkpt>
      <trkpt lat="48.47408" lon="2.75796">
        <ele>64</ele>
        <time>2023-04-16T07:25:47.023Z</time>
      </trkpt>
      <trkpt lat="48.47413" lon="2.75792">
        <ele>64</ele>
        <time>2023-04-16T07:25:50.953Z</time>
      </trkpt>
      <trkpt lat="48.47418" lon="2.75788">
        <ele>65</ele>
        <time>2023-04-16T07:25:55.561Z</time>
      </trkpt>
      <trkpt lat="48.47423" lon="2.75784">
        <ele>65</ele>
        <time>2023-04-16T07:25:59.687Z</time>
      </trkpt>
      <trkpt lat="48.47427" lon="2.7578">
        <ele>65</ele>
        <time>2023-04-16T07:26:04.159Z</time>
      </trkpt>
      <trkpt lat="48.47433" lon="2.75778">
        <ele>65</ele>
        <time>2023-04-16T07:26:08.157Z</time>
      </trkpt>
      <trkpt lat="48.4744" lon="2.75775">
        <ele>65</ele>
        <time>2023-04-16T07:26:12.729Z</time>
      </trkpt>
      <trkpt lat="48.47447" lon="2.75769">
        <ele>65</ele>
        <time>2023-04-16T07:26:17.277Z</time>
      </trkpt>
      <trkpt lat="48.47452" lon="2.75762">
        <ele>65</ele>
        <time>2023-04-16T07:26:21.840Z</time>
      </trkpt>
      <trkpt lat="48.47456" lon="2.75753">
        <ele>65</ele>
        <time>2023-04-16T07:26:26.372Z</time>
      </trkpt>
      <trkpt lat="48.47459" lon="2.75745">
        <ele>64</ele>
        <time>2023-04-16T07:26:30.440Z</time>
      </trkpt>
      <trkpt lat="48.47464" lon="2.75736">
        <ele>63</ele>
        <time>2023-04-16T07:26:34.986Z</time>
      </trkpt>
      <trkpt lat="48.47468" lon="2.75728">
        <ele>63</ele>
        <time>2023-04-16T07:26:39.055Z</time>
      </trkpt>
      <trkpt lat="48.47472" lon="2.75718">
        <ele>63</ele>
        <time>2023-04-16T07:26:43.601Z</time>
      </trkpt>
      <trkpt lat="48.47477" lon="2.75707">
        <ele>61</ele>
        <time>2023-04-16T07:26:47.675Z</time>
      </trkpt>
      <trkpt lat="48.47485" lon="2.7569">
        <ele>61</ele>
        <time>2023-04-16T07:26:52.171Z</time>
      </trkpt>
      <trkpt lat="48.47488" lon="2.75681">
        <ele>60</ele>
        <time>2023-04-16T07:26:56.660Z</time>
      </trkpt>
      <trkpt lat="48.4749" lon="2.75675">
        <ele>59</ele>
        <time>2023-04-16T07:27:01.169Z</time>
      </trkpt>
      <trkpt lat="48.47495" lon="2.75664">
        <ele>59</ele>
        <time>2023-04-16T07:27:05.761Z</time>
      </trkpt>
      <trkpt lat="48.47498" lon="2.75654">
        <ele>59</ele>
        <time>2023-04-16T07:27:11.149Z</time>
      </trkpt>
      <trkpt lat="48.475" lon="2.75643">
        <ele>58</ele>
        <time>2023-04-16T07:27:15.535Z</time>
      </trkpt>
      <trkpt lat="48.47502" lon="2.75633">
        <ele>58</ele>
        <time>2023-04-16T07:27:20.005Z</time>
      </trkpt>
      <trkpt lat="48.47505" lon="2.75625">
        <ele>57</ele>
        <time>2023-04-16T07:27:23.959Z</time>
      </trkpt>
      <trkpt lat="48.47506" lon="2.75618">
        <ele>57</ele>
        <time>2023-04-16T07:27:28.027Z</time>
      </trkpt>
      <trkpt lat="48.47509" lon="2.75609">
        <ele>57</ele>
        <time>2023-04-16T07:27:32.574Z</time>
      </trkpt>
      <trkpt lat="48.47511" lon="2.756">
        <ele>57</ele>
        <time>2023-04-16T07:27:36.643Z</time>
      </trkpt>
      <trkpt lat="48.47512" lon="2.75591">
        <ele>56</ele>
        <time>2023-04-16T07:27:41.182Z</time>
      </trkpt>
      <trkpt lat="48.47514" lon="2.75585">
        <ele>59</ele>
        <time>2023-04-16T07:27:45.261Z</time>
      </trkpt>
      <trkpt lat="48.47517" lon="2.75577">
        <ele>59</ele>
        <time>2023-04-16T07:27:49.331Z</time>
      </trkpt>
      <trkpt lat="48.4752" lon="2.75569">
        <ele>60</ele>
        <time>2023-04-16T07:27:53.881Z</time>
      </trkpt>
      <trkpt lat="48.47524" lon="2.7556">
        <ele>60</ele>
        <time>2023-04-16T07:27:57.911Z</time>
      </trkpt>
      <trkpt lat="48.47528" lon="2.75551">
        <ele>60</ele>
        <time>2023-04-16T07:28:02.221Z</time>
      </trkpt>
      <trkpt lat="48.47532" lon="2.75543">
        <ele>60</ele>
        <time>2023-04-16T07:28:06.291Z</time>
      </trkpt>
      <trkpt lat="48.47534" lon="2.75534">
        <ele>61</ele>
        <time>2023-04-16T07:28:10.361Z</time>
      </trkpt>
      <trkpt lat="48.47537" lon="2.75524">
        <ele>61</ele>
        <time>2023-04-16T07:28:14.976Z</time>
      </trkpt>
      <trkpt lat="48.47539" lon="2.75515">
        <ele>61</ele>
        <time>2023-04-16T07:28:19.163Z</time>
      </trkpt>
      <trkpt lat="48.47542" lon="2.75505">
        <ele>62</ele>
        <time>2023-04-16T07:28:23.951Z</time>
      </trkpt>
      <trkpt lat="48.47544" lon="2.75497">
        <ele>62</ele>
        <time>2023-04-16T07:28:27.762Z</time>
      </trkpt>
      <trkpt lat="48.47546" lon="2.75487">
        <ele>62</ele>
        <time>2023-04-16T07:28:32.423Z</time>
      </trkpt>
      <trkpt lat="48.4755" lon="2.75478">
        <ele>63</ele>
        <time>2023-04-16T07:28:36.978Z</time>
      </trkpt>
      <trkpt lat="48.47554" lon="2.75469">
        <ele>63</ele>
        <time>2023-04-16T07:28:41.647Z</time>
      </trkpt>
      <trkpt lat="48.47555" lon="2.75462">
        <ele>63</ele>
        <time>2023-04-16T07:28:46.139Z</time>
      </trkpt>
      <trkpt lat="48.47558" lon="2.75452">
        <ele>63</ele>
        <time>2023-04-16T07:28:50.599Z</time>
      </trkpt>
      <trkpt lat="48.47559" lon="2.75445">
        <ele>63</ele>
        <time>2023-04-16T07:28:54.452Z</time>
      </trkpt>
      <trkpt lat="48.47562" lon="2.75437">
        <ele>63</ele>
        <time>2023-04-16T07:28:59.033Z</time>
      </trkpt>
      <trkpt lat="48.47566" lon="2.75429">
        <ele>65</ele>
        <time>2023-04-16T07:29:03.254Z</time>
      </trkpt>
      <trkpt lat="48.47568" lon="2.75419">
        <ele>65</ele>
        <time>2023-04-16T07:29:07.694Z</time>
      </trkpt>
      <trkpt lat="48.4757" lon="2.75408">
        <ele>64</ele>
        <time>2023-04-16T07:29:12.310Z</time>
      </trkpt>
      <trkpt lat="48.47573" lon="2.75397">
        <ele>64</ele>
        <time>2023-04-16T07:29:16.926Z</time>
      </trkpt>
      <trkpt lat="48.47578" lon="2.75386">
        <ele>64</ele>
        <time>2023-04-16T07:29:21.361Z</time>
      </trkpt>
      <trkpt lat="48.4758" lon="2.75376">
        <ele>64</ele>
        <time>2023-04-16T07:29:25.975Z</time>
      </trkpt>
      <trkpt lat="48.47584" lon="2.75367">
        <ele>65</ele>
        <time>2023-04-16T07:29:30.048Z</time>
      </trkpt>
      <trkpt lat="48.47587" lon="2.75359">
        <ele>65</ele>
        <time>2023-04-16T07:29:34.121Z</time>
      </trkpt>
      <trkpt lat="48.47591" lon="2.75348">
        <ele>65</ele>
        <time>2023-04-16T07:29:38.792Z</time>
      </trkpt>
      <trkpt lat="48.47594" lon="2.75337">
        <ele>67</ele>
        <time>2023-04-16T07:29:43.882Z</time>
      </trkpt>
      <trkpt lat="48.47596" lon="2.75328">
        <ele>67</ele>
        <time>2023-04-16T07:29:47.952Z</time>
      </trkpt>
      <trkpt lat="48.476" lon="2.75323">
        <ele>67</ele>
        <time>2023-04-16T07:29:52.342Z</time>
      </trkpt>
      <trkpt lat="48.47604" lon="2.75316">
        <ele>68</ele>
        <time>2023-04-16T07:29:56.292Z</time>
      </trkpt>
      <trkpt lat="48.47606" lon="2.75304">
        <ele>68</ele>
        <time>2023-04-16T07:30:00.734Z</time>
      </trkpt>
      <trkpt lat="48.47609" lon="2.75293">
        <ele>68</ele>
        <time>2023-04-16T07:30:05.151Z</time>
      </trkpt>
      <trkpt lat="48.47612" lon="2.75284">
        <ele>69</ele>
        <time>2023-04-16T07:30:09.700Z</time>
      </trkpt>
      <trkpt lat="48.47613" lon="2.75278">
        <ele>69</ele>
        <time>2023-04-16T07:30:12.575Z</time>
      </trkpt>
      <trkpt lat="48.47612" lon="2.75263">
        <ele>69</ele>
        <time>2023-04-16T07:30:19.111Z</time>
      </trkpt>
      <trkpt lat="48.47613" lon="2.75257">
        <ele>69</ele>
        <time>2023-04-16T07:30:23.624Z</time>
      </trkpt>
      <trkpt lat="48.47619" lon="2.75249">
        <ele>69</ele>
        <time>2023-04-16T07:30:27.805Z</time>
      </trkpt>
      <trkpt lat="48.47623" lon="2.75236">
        <ele>70</ele>
        <time>2023-04-16T07:30:32.452Z</time>
      </trkpt>
      <trkpt lat="48.47627" lon="2.7523">
        <ele>67</ele>
        <time>2023-04-16T07:30:36.580Z</time>
      </trkpt>
      <trkpt lat="48.4763" lon="2.75223">
        <ele>67</ele>
        <time>2023-04-16T07:30:40.638Z</time>
      </trkpt>
      <trkpt lat="48.47632" lon="2.75215">
        <ele>67</ele>
        <time>2023-04-16T07:30:44.714Z</time>
      </trkpt>
      <trkpt lat="48.47633" lon="2.75209">
        <ele>67</ele>
        <time>2023-04-16T07:30:47.034Z</time>
      </trkpt>
      <trkpt lat="48.47638" lon="2.75191">
        <ele>67</ele>
        <time>2023-04-16T07:30:56.049Z</time>
      </trkpt>
      <trkpt lat="48.47641" lon="2.75182">
        <ele>67</ele>
        <time>2023-04-16T07:31:01.057Z</time>
      </trkpt>
      <trkpt lat="48.47644" lon="2.75172">
        <ele>67</ele>
        <time>2023-04-16T07:31:06.066Z</time>
      </trkpt>
      <trkpt lat="48.47648" lon="2.75164">
        <ele>67</ele>
        <time>2023-04-16T07:31:10.173Z</time>
      </trkpt>
      <trkpt lat="48.47652" lon="2.75153">
        <ele>67</ele>
        <time>2023-04-16T07:31:14.683Z</time>
      </trkpt>
      <trkpt lat="48.47656" lon="2.75146">
        <ele>66</ele>
        <time>2023-04-16T07:31:18.690Z</time>
      </trkpt>
      <trkpt lat="48.47658" lon="2.75138">
        <ele>66</ele>
        <time>2023-04-16T07:31:22.794Z</time>
      </trkpt>
      <trkpt lat="48.47661" lon="2.75129">
        <ele>66</ele>
        <time>2023-04-16T07:31:27.300Z</time>
      </trkpt>
      <trkpt lat="48.47663" lon="2.75121">
        <ele>67</ele>
        <time>2023-04-16T07:31:31.306Z</time>
      </trkpt>
      <trkpt lat="48.47666" lon="2.75112">
        <ele>67</ele>
        <time>2023-04-16T07:31:35.814Z</time>
      </trkpt>
      <trkpt lat="48.47669" lon="2.75103">
        <ele>67</ele>
        <time>2023-04-16T07:31:40.325Z</time>
      </trkpt>
      <trkpt lat="48.4767" lon="2.75093">
        <ele>67</ele>
        <time>2023-04-16T07:31:44.833Z</time>
      </trkpt>
      <trkpt lat="48.47671" lon="2.75082">
        <ele>67</ele>
        <time>2023-04-16T07:31:49.941Z</time>
      </trkpt>
      <trkpt lat="48.47675" lon="2.75076">
        <ele>67</ele>
        <time>2023-04-16T07:31:53.947Z</time>
      </trkpt>
      <trkpt lat="48.47677" lon="2.75067">
        <ele>68</ele>
        <time>2023-04-16T07:31:57.952Z</time>
      </trkpt>
      <trkpt lat="48.47681" lon="2.75058">
        <ele>66</ele>
        <time>2023-04-16T07:32:02.559Z</time>
      </trkpt>
      <trkpt lat="48.47684" lon="2.7505">
        <ele>66</ele>
        <time>2023-04-16T07:32:06.563Z</time>
      </trkpt>
      <trkpt lat="48.47689" lon="2.75043">
        <ele>66</ele>
        <time>2023-04-16T07:32:11.071Z</time>
      </trkpt>
      <trkpt lat="48.47692" lon="2.75032">
        <ele>67</ele>
        <time>2023-04-16T07:32:15.575Z</time>
      </trkpt>
      <trkpt lat="48.47696" lon="2.75022">
        <ele>67</ele>
        <time>2023-04-16T07:32:20.182Z</time>
      </trkpt>
      <trkpt lat="48.47698" lon="2.75014">
        <ele>67</ele>
        <time>2023-04-16T07:32:24.186Z</time>
      </trkpt>
      <trkpt lat="48.47701" lon="2.75005">
        <ele>66</ele>
        <time>2023-04-16T07:32:28.189Z</time>
      </trkpt>
      <trkpt lat="48.47705" lon="2.74994">
        <ele>66</ele>
        <time>2023-04-16T07:32:32.693Z</time>
      </trkpt>
      <trkpt lat="48.47708" lon="2.74983">
        <ele>65</ele>
        <time>2023-04-16T07:32:37.196Z</time>
      </trkpt>
      <trkpt lat="48.4771" lon="2.74974">
        <ele>63</ele>
        <time>2023-04-16T07:32:41.200Z</time>
      </trkpt>
      <trkpt lat="48.47713" lon="2.74965">
        <ele>63</ele>
        <time>2023-04-16T07:32:45.706Z</time>
      </trkpt>
      <trkpt lat="48.47715" lon="2.74957">
        <ele>62</ele>
        <time>2023-04-16T07:32:50.255Z</time>
      </trkpt>
      <trkpt lat="48.47718" lon="2.74949">
        <ele>62</ele>
        <time>2023-04-16T07:32:54.312Z</time>
      </trkpt>
      <trkpt lat="48.47722" lon="2.74941">
        <ele>62</ele>
        <time>2023-04-16T07:32:58.867Z</time>
      </trkpt>
      <trkpt lat="48.47725" lon="2.74931">
        <ele>62</ele>
        <time>2023-04-16T07:33:03.452Z</time>
      </trkpt>
      <trkpt lat="48.47724" lon="2.7492">
        <ele>60</ele>
        <time>2023-04-16T07:33:07.976Z</time>
      </trkpt>
      <trkpt lat="48.47726" lon="2.74907">
        <ele>60</ele>
        <time>2023-04-16T07:33:13.156Z</time>
      </trkpt>
      <trkpt lat="48.47722" lon="2.74894">
        <ele>58</ele>
        <time>2023-04-16T07:33:18.080Z</time>
      </trkpt>
      <trkpt lat="48.47718" lon="2.74883">
        <ele>58</ele>
        <time>2023-04-16T07:33:21.944Z</time>
      </trkpt>
      <trkpt lat="48.47716" lon="2.74875">
        <ele>58</ele>
        <time>2023-04-16T07:33:25.896Z</time>
      </trkpt>
      <trkpt lat="48.47712" lon="2.74864">
        <ele>57</ele>
        <time>2023-04-16T07:33:30.927Z</time>
      </trkpt>
      <trkpt lat="48.4771" lon="2.74855">
        <ele>57</ele>
        <time>2023-04-16T07:33:34.880Z</time>
      </trkpt>
      <trkpt lat="48.47706" lon="2.74846">
        <ele>56</ele>
        <time>2023-04-16T07:33:40.030Z</time>
      </trkpt>
      <trkpt lat="48.47701" lon="2.74837">
        <ele>56</ele>
        <time>2023-04-16T07:33:45.162Z</time>
      </trkpt>
      <trkpt lat="48.47698" lon="2.74829">
        <ele>56</ele>
        <time>2023-04-16T07:33:49.376Z</time>
      </trkpt>
      <trkpt lat="48.47694" lon="2.74824">
        <ele>56</ele>
        <time>2023-04-16T07:33:53.571Z</time>
      </trkpt>
      <trkpt lat="48.4769" lon="2.74821">
        <ele>56</ele>
        <time>2023-04-16T07:33:58.157Z</time>
      </trkpt>
      <trkpt lat="48.47684" lon="2.74813">
        <ele>56</ele>
        <time>2023-04-16T07:34:03.142Z</time>
      </trkpt>
      <trkpt lat="48.47681" lon="2.74805">
        <ele>56</ele>
        <time>2023-04-16T07:34:07.157Z</time>
      </trkpt>
      <trkpt lat="48.47679" lon="2.74797">
        <ele>56</ele>
        <time>2023-04-16T07:34:11.621Z</time>
      </trkpt>
      <trkpt lat="48.47676" lon="2.74787">
        <ele>56</ele>
        <time>2023-04-16T07:34:16.153Z</time>
      </trkpt>
      <trkpt lat="48.47673" lon="2.7478">
        <ele>56</ele>
        <time>2023-04-16T07:34:20.166Z</time>
      </trkpt>
      <trkpt lat="48.47669" lon="2.74773">
        <ele>56</ele>
        <time>2023-04-16T07:34:24.153Z</time>
      </trkpt>
      <trkpt lat="48.47665" lon="2.74764">
        <ele>56</ele>
        <time>2023-04-16T07:34:28.706Z</time>
      </trkpt>
      <trkpt lat="48.47662" lon="2.74759">
        <ele>56</ele>
        <time>2023-04-16T07:34:33.681Z</time>
      </trkpt>
      <trkpt lat="48.47662" lon="2.74751">
        <ele>56</ele>
        <time>2023-04-16T07:34:37.715Z</time>
      </trkpt>
      <trkpt lat="48.47661" lon="2.74744">
        <ele>56</ele>
        <time>2023-04-16T07:34:41.746Z</time>
      </trkpt>
      <trkpt lat="48.4766" lon="2.74737">
        <ele>56</ele>
        <time>2023-04-16T07:34:45.683Z</time>
      </trkpt>
      <trkpt lat="48.47656" lon="2.74729">
        <ele>56</ele>
        <time>2023-04-16T07:34:50.155Z</time>
      </trkpt>
      <trkpt lat="48.47653" lon="2.74723">
        <ele>56</ele>
        <time>2023-04-16T07:34:54.169Z</time>
      </trkpt>
      <trkpt lat="48.47649" lon="2.74714">
        <ele>58</ele>
        <time>2023-04-16T07:34:58.738Z</time>
      </trkpt>
      <trkpt lat="48.47646" lon="2.74707">
        <ele>58</ele>
        <time>2023-04-16T07:35:02.690Z</time>
      </trkpt>
      <trkpt lat="48.47643" lon="2.74699">
        <ele>58</ele>
        <time>2023-04-16T07:35:06.722Z</time>
      </trkpt>
      <trkpt lat="48.4764" lon="2.74689">
        <ele>58</ele>
        <time>2023-04-16T07:35:11.273Z</time>
      </trkpt>
      <trkpt lat="48.47638" lon="2.74679">
        <ele>59</ele>
        <time>2023-04-16T07:35:15.345Z</time>
      </trkpt>
      <trkpt lat="48.47634" lon="2.74673">
        <ele>59</ele>
        <time>2023-04-16T07:35:19.452Z</time>
      </trkpt>
      <trkpt lat="48.47631" lon="2.74664">
        <ele>59</ele>
        <time>2023-04-16T07:35:24.149Z</time>
      </trkpt>
      <trkpt lat="48.47629" lon="2.74657">
        <ele>59</ele>
        <time>2023-04-16T07:35:28.017Z</time>
      </trkpt>
      <trkpt lat="48.47626" lon="2.74647">
        <ele>60</ele>
        <time>2023-04-16T07:35:32.566Z</time>
      </trkpt>
      <trkpt lat="48.47622" lon="2.7464">
        <ele>61</ele>
        <time>2023-04-16T07:35:37.142Z</time>
      </trkpt>
      <trkpt lat="48.47621" lon="2.74632">
        <ele>61</ele>
        <time>2023-04-16T07:35:41.158Z</time>
      </trkpt>
      <trkpt lat="48.47616" lon="2.74622">
        <ele>60</ele>
        <time>2023-04-16T07:35:45.266Z</time>
      </trkpt>
      <trkpt lat="48.47611" lon="2.74612">
        <ele>60</ele>
        <time>2023-04-16T07:35:49.881Z</time>
      </trkpt>
      <trkpt lat="48.47611" lon="2.74602">
        <ele>60</ele>
        <time>2023-04-16T07:35:54.433Z</time>
      </trkpt>
      <trkpt lat="48.47607" lon="2.74594">
        <ele>60</ele>
        <time>2023-04-16T07:35:59.153Z</time>
      </trkpt>
      <trkpt lat="48.47601" lon="2.74584">
        <ele>60</ele>
        <time>2023-04-16T07:36:04.095Z</time>
      </trkpt>
      <trkpt lat="48.47595" lon="2.74572">
        <ele>61</ele>
        <time>2023-04-16T07:36:09.152Z</time>
      </trkpt>
      <trkpt lat="48.47592" lon="2.74562">
        <ele>61</ele>
        <time>2023-04-16T07:36:13.158Z</time>
      </trkpt>
      <trkpt lat="48.47587" lon="2.74554">
        <ele>61</ele>
        <time>2023-04-16T07:36:17.709Z</time>
      </trkpt>
      <trkpt lat="48.47583" lon="2.74547">
        <ele>61</ele>
        <time>2023-04-16T07:36:22.153Z</time>
      </trkpt>
      <trkpt lat="48.47579" lon="2.74541">
        <ele>61</ele>
        <time>2023-04-16T07:36:26.191Z</time>
      </trkpt>
      <trkpt lat="48.47575" lon="2.74533">
        <ele>61</ele>
        <time>2023-04-16T07:36:30.262Z</time>
      </trkpt>
      <trkpt lat="48.47571" lon="2.74525">
        <ele>61</ele>
        <time>2023-04-16T07:36:34.713Z</time>
      </trkpt>
      <trkpt lat="48.47568" lon="2.74517">
        <ele>62</ele>
        <time>2023-04-16T07:36:39.121Z</time>
      </trkpt>
      <trkpt lat="48.47566" lon="2.74509">
        <ele>62</ele>
        <time>2023-04-16T07:36:43.651Z</time>
      </trkpt>
      <trkpt lat="48.47565" lon="2.74499">
        <ele>62</ele>
        <time>2023-04-16T07:36:48.163Z</time>
      </trkpt>
      <trkpt lat="48.4756" lon="2.74491">
        <ele>62</ele>
        <time>2023-04-16T07:36:52.174Z</time>
      </trkpt>
      <trkpt lat="48.47556" lon="2.74483">
        <ele>62</ele>
        <time>2023-04-16T07:36:56.383Z</time>
      </trkpt>
      <trkpt lat="48.47554" lon="2.74476">
        <ele>62</ele>
        <time>2023-04-16T07:37:00.452Z</time>
      </trkpt>
      <trkpt lat="48.47552" lon="2.74467">
        <ele>62</ele>
        <time>2023-04-16T07:37:05.005Z</time>
      </trkpt>
      <trkpt lat="48.47549" lon="2.7446">
        <ele>62</ele>
        <time>2023-04-16T07:37:08.836Z</time>
      </trkpt>
      <trkpt lat="48.47548" lon="2.74455">
        <ele>63</ele>
        <time>2023-04-16T07:37:12.906Z</time>
      </trkpt>
      <trkpt lat="48.47545" lon="2.74449">
        <ele>63</ele>
        <time>2023-04-16T07:37:17.576Z</time>
      </trkpt>
      <trkpt lat="48.47543" lon="2.74442">
        <ele>63</ele>
        <time>2023-04-16T07:37:22.075Z</time>
      </trkpt>
      <trkpt lat="48.47542" lon="2.74432">
        <ele>63</ele>
        <time>2023-04-16T07:37:26.552Z</time>
      </trkpt>
      <trkpt lat="48.4754" lon="2.74421">
        <ele>67</ele>
        <time>2023-04-16T07:37:31.154Z</time>
      </trkpt>
      <trkpt lat="48.47539" lon="2.74412">
        <ele>67</ele>
        <time>2023-04-16T07:37:35.172Z</time>
      </trkpt>
      <trkpt lat="48.47536" lon="2.74402">
        <ele>70</ele>
        <time>2023-04-16T07:37:39.725Z</time>
      </trkpt>
      <trkpt lat="48.47532" lon="2.74394">
        <ele>70</ele>
        <time>2023-04-16T07:37:43.678Z</time>
      </trkpt>
      <trkpt lat="48.47528" lon="2.74385">
        <ele>70</ele>
        <time>2023-04-16T07:37:48.348Z</time>
      </trkpt>
      <trkpt lat="48.47521" lon="2.74373">
        <ele>70</ele>
        <time>2023-04-16T07:37:52.660Z</time>
      </trkpt>
      <trkpt lat="48.47515" lon="2.74364">
        <ele>70</ele>
        <time>2023-04-16T07:37:57.451Z</time>
      </trkpt>
      <trkpt lat="48.47512" lon="2.74355">
        <ele>71</ele>
        <time>2023-04-16T07:38:02.001Z</time>
      </trkpt>
      <trkpt lat="48.47509" lon="2.74346">
        <ele>70</ele>
        <time>2023-04-16T07:38:06.551Z</time>
      </trkpt>
      <trkpt lat="48.47507" lon="2.74337">
        <ele>70</ele>
        <time>2023-04-16T07:38:10.980Z</time>
      </trkpt>
      <trkpt lat="48.47502" lon="2.74328">
        <ele>70</ele>
        <time>2023-04-16T07:38:15.770Z</time>
      </trkpt>
      <trkpt lat="48.47499" lon="2.74316">
        <ele>69</ele>
        <time>2023-04-16T07:38:20.558Z</time>
      </trkpt>
      <trkpt lat="48.47498" lon="2.74306">
        <ele>69</ele>
        <time>2023-04-16T07:38:25.877Z</time>
      </trkpt>
      <trkpt lat="48.47497" lon="2.74299">
        <ele>69</ele>
        <time>2023-04-16T07:38:29.895Z</time>
      </trkpt>
      <trkpt lat="48.47492" lon="2.74293">
        <ele>69</ele>
        <time>2023-04-16T07:38:33.965Z</time>
      </trkpt>
      <trkpt lat="48.47488" lon="2.74287">
        <ele>69</ele>
        <time>2023-04-16T07:38:38.154Z</time>
      </trkpt>
      <trkpt lat="48.47485" lon="2.74279">
        <ele>68</ele>
        <time>2023-04-16T07:38:42.175Z</time>
      </trkpt>
      <trkpt lat="48.47481" lon="2.74271">
        <ele>68</ele>
        <time>2023-04-16T07:38:46.771Z</time>
      </trkpt>
      <trkpt lat="48.47477" lon="2.74263">
        <ele>68</ele>
        <time>2023-04-16T07:38:50.721Z</time>
      </trkpt>
      <trkpt lat="48.47473" lon="2.74252">
        <ele>68</ele>
        <time>2023-04-16T07:38:55.987Z</time>
      </trkpt>
      <trkpt lat="48.47469" lon="2.74243">
        <ele>68</ele>
        <time>2023-04-16T07:39:00.439Z</time>
      </trkpt>
      <trkpt lat="48.47467" lon="2.74236">
        <ele>68</ele>
        <time>2023-04-16T07:39:04.452Z</time>
      </trkpt>
      <trkpt lat="48.47463" lon="2.74229">
        <ele>68</ele>
        <time>2023-04-16T07:39:08.556Z</time>
      </trkpt>
      <trkpt lat="48.47461" lon="2.74221">
        <ele>68</ele>
        <time>2023-04-16T07:39:12.452Z</time>
      </trkpt>
      <trkpt lat="48.47457" lon="2.74209">
        <ele>68</ele>
        <time>2023-04-16T07:39:16.552Z</time>
      </trkpt>
      <trkpt lat="48.47446" lon="2.74201">
        <ele>68</ele>
        <time>2023-04-16T07:39:21.056Z</time>
      </trkpt>
      <trkpt lat="48.47438" lon="2.74191">
        <ele>68</ele>
        <time>2023-04-16T07:39:25.659Z</time>
      </trkpt>
      <trkpt lat="48.47434" lon="2.74181">
        <ele>68</ele>
        <time>2023-04-16T07:39:29.661Z</time>
      </trkpt>
      <trkpt lat="48.47434" lon="2.74177">
        <ele>69</ele>
        <time>2023-04-16T07:39:33.665Z</time>
      </trkpt>
      <trkpt lat="48.47437" lon="2.74179">
        <ele>69</ele>
        <time>2023-04-16T07:40:02.143Z</time>
      </trkpt>
      <trkpt lat="48.47437" lon="2.74174">
        <ele>69</ele>
        <time>2023-04-16T07:40:07.132Z</time>
      </trkpt>
      <trkpt lat="48.47435" lon="2.74169">
        <ele>69</ele>
        <time>2023-04-16T07:40:12.145Z</time>
      </trkpt>
      <trkpt lat="48.47437" lon="2.74165">
        <ele>69</ele>
        <time>2023-04-16T07:40:16.870Z</time>
      </trkpt>
      <trkpt lat="48.47432" lon="2.74156">
        <ele>69</ele>
        <time>2023-04-16T07:40:21.393Z</time>
      </trkpt>
      <trkpt lat="48.47427" lon="2.74147">
        <ele>70</ele>
        <time>2023-04-16T07:40:26.015Z</time>
      </trkpt>
      <trkpt lat="48.47425" lon="2.7414">
        <ele>70</ele>
        <time>2023-04-16T07:40:30.019Z</time>
      </trkpt>
      <trkpt lat="48.47424" lon="2.74132">
        <ele>70</ele>
        <time>2023-04-16T07:40:34.563Z</time>
      </trkpt>
      <trkpt lat="48.47422" lon="2.74125">
        <ele>71</ele>
        <time>2023-04-16T07:40:38.568Z</time>
      </trkpt>
      <trkpt lat="48.47415" lon="2.74116">
        <ele>71</ele>
        <time>2023-04-16T07:40:43.071Z</time>
      </trkpt>
      <trkpt lat="48.47407" lon="2.74101">
        <ele>71</ele>
        <time>2023-04-16T07:40:51.585Z</time>
      </trkpt>
      <trkpt lat="48.47404" lon="2.74094">
        <ele>72</ele>
        <time>2023-04-16T07:40:55.589Z</time>
      </trkpt>
      <trkpt lat="48.47402" lon="2.74087">
        <ele>72</ele>
        <time>2023-04-16T07:41:00.096Z</time>
      </trkpt>
      <trkpt lat="48.47402" lon="2.74079">
        <ele>72</ele>
        <time>2023-04-16T07:41:04.100Z</time>
      </trkpt>
      <trkpt lat="48.47402" lon="2.74071">
        <ele>72</ele>
        <time>2023-04-16T07:41:07.800Z</time>
      </trkpt>
      <trkpt lat="48.47402" lon="2.74069">
        <ele>73</ele>
        <time>2023-04-16T07:41:12.462Z</time>
      </trkpt>
      <trkpt lat="48.47397" lon="2.74058">
        <ele>73</ele>
        <time>2023-04-16T07:41:16.524Z</time>
      </trkpt>
      <trkpt lat="48.47395" lon="2.74049">
        <ele>73</ele>
        <time>2023-04-16T07:41:20.529Z</time>
      </trkpt>
      <trkpt lat="48.47392" lon="2.7404">
        <ele>73</ele>
        <time>2023-04-16T07:41:25.035Z</time>
      </trkpt>
      <trkpt lat="48.47388" lon="2.74032">
        <ele>73</ele>
        <time>2023-04-16T07:41:29.718Z</time>
      </trkpt>
      <trkpt lat="48.47385" lon="2.74019">
        <ele>73</ele>
        <time>2023-04-16T07:41:34.336Z</time>
      </trkpt>
      <trkpt lat="48.47382" lon="2.74011">
        <ele>72</ele>
        <time>2023-04-16T07:41:38.854Z</time>
      </trkpt>
      <trkpt lat="48.4738" lon="2.74002">
        <ele>72</ele>
        <time>2023-04-16T07:41:42.932Z</time>
      </trkpt>
      <trkpt lat="48.47378" lon="2.73994">
        <ele>72</ele>
        <time>2023-04-16T07:41:46.831Z</time>
      </trkpt>
      <trkpt lat="48.47376" lon="2.73986">
        <ele>72</ele>
        <time>2023-04-16T07:41:50.908Z</time>
      </trkpt>
      <trkpt lat="48.47372" lon="2.73976">
        <ele>71</ele>
        <time>2023-04-16T07:41:55.452Z</time>
      </trkpt>
      <trkpt lat="48.47369" lon="2.73966">
        <ele>71</ele>
        <time>2023-04-16T07:42:00.139Z</time>
      </trkpt>
      <trkpt lat="48.47364" lon="2.73956">
        <ele>71</ele>
        <time>2023-04-16T07:42:04.161Z</time>
      </trkpt>
      <trkpt lat="48.47361" lon="2.73951">
        <ele>71</ele>
        <time>2023-04-16T07:42:08.612Z</time>
      </trkpt>
      <trkpt lat="48.47358" lon="2.73944">
        <ele>71</ele>
        <time>2023-04-16T07:42:13.157Z</time>
      </trkpt>
      <trkpt lat="48.47356" lon="2.73935">
        <ele>71</ele>
        <time>2023-04-16T07:42:17.176Z</time>
      </trkpt>
      <trkpt lat="48.47351" lon="2.73925">
        <ele>71</ele>
        <time>2023-04-16T07:42:21.676Z</time>
      </trkpt>
      <trkpt lat="48.47348" lon="2.73918">
        <ele>71</ele>
        <time>2023-04-16T07:42:25.692Z</time>
      </trkpt>
      <trkpt lat="48.47346" lon="2.7391">
        <ele>71</ele>
        <time>2023-04-16T07:42:30.279Z</time>
      </trkpt>
      <trkpt lat="48.47344" lon="2.73903">
        <ele>71</ele>
        <time>2023-04-16T07:42:34.622Z</time>
      </trkpt>
      <trkpt lat="48.47342" lon="2.73895">
        <ele>71</ele>
        <time>2023-04-16T07:42:39.177Z</time>
      </trkpt>
      <trkpt lat="48.47339" lon="2.73888">
        <ele>71</ele>
        <time>2023-04-16T07:42:43.373Z</time>
      </trkpt>
      <trkpt lat="48.47335" lon="2.73882">
        <ele>71</ele>
        <time>2023-04-16T07:42:47.862Z</time>
      </trkpt>
      <trkpt lat="48.47332" lon="2.73874">
        <ele>70</ele>
        <time>2023-04-16T07:42:52.157Z</time>
      </trkpt>
      <trkpt lat="48.47328" lon="2.73867">
        <ele>70</ele>
        <time>2023-04-16T07:42:56.661Z</time>
      </trkpt>
      <trkpt lat="48.47324" lon="2.73861">
        <ele>70</ele>
        <time>2023-04-16T07:43:00.736Z</time>
      </trkpt>
      <trkpt lat="48.47321" lon="2.73853">
        <ele>70</ele>
        <time>2023-04-16T07:43:04.693Z</time>
      </trkpt>
      <trkpt lat="48.47318" lon="2.73845">
        <ele>70</ele>
        <time>2023-04-16T07:43:08.768Z</time>
      </trkpt>
      <trkpt lat="48.47317" lon="2.73836">
        <ele>70</ele>
        <time>2023-04-16T07:43:13.302Z</time>
      </trkpt>
      <trkpt lat="48.47315" lon="2.73829">
        <ele>70</ele>
        <time>2023-04-16T07:43:17.357Z</time>
      </trkpt>
      <trkpt lat="48.47314" lon="2.7382">
        <ele>70</ele>
        <time>2023-04-16T07:43:22.150Z</time>
      </trkpt>
      <trkpt lat="48.47309" lon="2.73811">
        <ele>70</ele>
        <time>2023-04-16T07:43:26.703Z</time>
      </trkpt>
      <trkpt lat="48.47304" lon="2.73803">
        <ele>70</ele>
        <time>2023-04-16T07:43:31.148Z</time>
      </trkpt>
      <trkpt lat="48.473" lon="2.73797">
        <ele>70</ele>
        <time>2023-04-16T07:43:35.186Z</time>
      </trkpt>
      <trkpt lat="48.47295" lon="2.73788">
        <ele>70</ele>
        <time>2023-04-16T07:43:39.739Z</time>
      </trkpt>
      <trkpt lat="48.47292" lon="2.7378">
        <ele>70</ele>
        <time>2023-04-16T07:43:44.290Z</time>
      </trkpt>
      <trkpt lat="48.47291" lon="2.73773">
        <ele>69</ele>
        <time>2023-04-16T07:43:48.703Z</time>
      </trkpt>
      <trkpt lat="48.47288" lon="2.73764">
        <ele>69</ele>
        <time>2023-04-16T07:43:53.374Z</time>
      </trkpt>
      <trkpt lat="48.47284" lon="2.73754">
        <ele>70</ele>
        <time>2023-04-16T07:43:58.166Z</time>
      </trkpt>
      <trkpt lat="48.4728" lon="2.73745">
        <ele>70</ele>
        <time>2023-04-16T07:44:02.360Z</time>
      </trkpt>
      <trkpt lat="48.47277" lon="2.73739">
        <ele>70</ele>
        <time>2023-04-16T07:44:06.514Z</time>
      </trkpt>
      <trkpt lat="48.47273" lon="2.73732">
        <ele>73</ele>
        <time>2023-04-16T07:44:10.452Z</time>
      </trkpt>
      <trkpt lat="48.4727" lon="2.73723">
        <ele>73</ele>
        <time>2023-04-16T07:44:14.963Z</time>
      </trkpt>
      <trkpt lat="48.47267" lon="2.73715">
        <ele>73</ele>
        <time>2023-04-16T07:44:19.013Z</time>
      </trkpt>
      <trkpt lat="48.47265" lon="2.73705">
        <ele>76</ele>
        <time>2023-04-16T07:44:23.979Z</time>
      </trkpt>
      <trkpt lat="48.47263" lon="2.73697">
        <ele>73</ele>
        <time>2023-04-16T07:44:27.958Z</time>
      </trkpt>
      <trkpt lat="48.47259" lon="2.73687">
        <ele>73</ele>
        <time>2023-04-16T07:44:32.989Z</time>
      </trkpt>
      <trkpt lat="48.47255" lon="2.73676">
        <ele>75</ele>
        <time>2023-04-16T07:44:38.018Z</time>
      </trkpt>
      <trkpt lat="48.47251" lon="2.73669">
        <ele>75</ele>
        <time>2023-04-16T07:44:41.971Z</time>
      </trkpt>
      <trkpt lat="48.47247" lon="2.7366">
        <ele>75</ele>
        <time>2023-04-16T07:44:46.044Z</time>
      </trkpt>
      <trkpt lat="48.47243" lon="2.7365">
        <ele>77</ele>
        <time>2023-04-16T07:44:51.134Z</time>
      </trkpt>
      <trkpt lat="48.47239" lon="2.73642">
        <ele>77</ele>
        <time>2023-04-16T07:44:55.147Z</time>
      </trkpt>
      <trkpt lat="48.47234" lon="2.73634">
        <ele>72</ele>
        <time>2023-04-16T07:44:59.701Z</time>
      </trkpt>
      <trkpt lat="48.47231" lon="2.73625">
        <ele>73</ele>
        <time>2023-04-16T07:45:04.249Z</time>
      </trkpt>
      <trkpt lat="48.47228" lon="2.73616">
        <ele>73</ele>
        <time>2023-04-16T07:45:08.321Z</time>
      </trkpt>
      <trkpt lat="48.47225" lon="2.73609">
        <ele>73</ele>
        <time>2023-04-16T07:45:12.859Z</time>
      </trkpt>
      <trkpt lat="48.47222" lon="2.73602">
        <ele>73</ele>
        <time>2023-04-16T07:45:16.705Z</time>
      </trkpt>
      <trkpt lat="48.4722" lon="2.73591">
        <ele>74</ele>
        <time>2023-04-16T07:45:21.168Z</time>
      </trkpt>
      <trkpt lat="48.4722" lon="2.73583">
        <ele>74</ele>
        <time>2023-04-16T07:45:25.687Z</time>
      </trkpt>
      <trkpt lat="48.47216" lon="2.73572">
        <ele>74</ele>
        <time>2023-04-16T07:45:30.357Z</time>
      </trkpt>
      <trkpt lat="48.47211" lon="2.73563">
        <ele>74</ele>
        <time>2023-04-16T07:45:35.002Z</time>
      </trkpt>
      <trkpt lat="48.47206" lon="2.73555">
        <ele>68</ele>
        <time>2023-04-16T07:45:38.978Z</time>
      </trkpt>
      <trkpt lat="48.472" lon="2.73546">
        <ele>68</ele>
        <time>2023-04-16T07:45:44.176Z</time>
      </trkpt>
      <trkpt lat="48.47196" lon="2.73535">
        <ele>68</ele>
        <time>2023-04-16T07:45:49.179Z</time>
      </trkpt>
      <trkpt lat="48.47194" lon="2.73529">
        <ele>68</ele>
        <time>2023-04-16T07:45:53.182Z</time>
      </trkpt>
      <trkpt lat="48.47192" lon="2.7352">
        <ele>68</ele>
        <time>2023-04-16T07:45:57.775Z</time>
      </trkpt>
      <trkpt lat="48.47189" lon="2.7351">
        <ele>68</ele>
        <time>2023-04-16T07:46:03.101Z</time>
      </trkpt>
      <trkpt lat="48.47187" lon="2.73503">
        <ele>68</ele>
        <time>2023-04-16T07:46:06.997Z</time>
      </trkpt>
      <trkpt lat="48.47184" lon="2.73492">
        <ele>68</ele>
        <time>2023-04-16T07:46:11.958Z</time>
      </trkpt>
      <trkpt lat="48.47182" lon="2.73484">
        <ele>69</ele>
        <time>2023-04-16T07:46:15.979Z</time>
      </trkpt>
      <trkpt lat="48.47178" lon="2.73475">
        <ele>65</ele>
        <time>2023-04-16T07:46:21.008Z</time>
      </trkpt>
      <trkpt lat="48.47174" lon="2.73466">
        <ele>65</ele>
        <time>2023-04-16T07:46:26.175Z</time>
      </trkpt>
      <trkpt lat="48.47171" lon="2.73459">
        <ele>65</ele>
        <time>2023-04-16T07:46:30.786Z</time>
      </trkpt>
      <trkpt lat="48.47167" lon="2.73453">
        <ele>65</ele>
        <time>2023-04-16T07:46:35.335Z</time>
      </trkpt>
      <trkpt lat="48.47164" lon="2.73445">
        <ele>65</ele>
        <time>2023-04-16T07:46:39.885Z</time>
      </trkpt>
      <trkpt lat="48.47161" lon="2.73435">
        <ele>65</ele>
        <time>2023-04-16T07:46:44.298Z</time>
      </trkpt>
      <trkpt lat="48.47157" lon="2.73428">
        <ele>65</ele>
        <time>2023-04-16T07:46:48.348Z</time>
      </trkpt>
      <trkpt lat="48.47154" lon="2.73417">
        <ele>65</ele>
        <time>2023-04-16T07:46:52.897Z</time>
      </trkpt>
      <trkpt lat="48.47151" lon="2.73409">
        <ele>64</ele>
        <time>2023-04-16T07:46:56.730Z</time>
      </trkpt>
      <trkpt lat="48.47148" lon="2.73401">
        <ele>65</ele>
        <time>2023-04-16T07:47:00.682Z</time>
      </trkpt>
      <trkpt lat="48.47146" lon="2.73393">
        <ele>65</ele>
        <time>2023-04-16T07:47:05.231Z</time>
      </trkpt>
      <trkpt lat="48.47144" lon="2.73385">
        <ele>65</ele>
        <time>2023-04-16T07:47:09.661Z</time>
      </trkpt>
      <trkpt lat="48.47144" lon="2.7338">
        <ele>65</ele>
        <time>2023-04-16T07:47:13.572Z</time>
      </trkpt>
      <trkpt lat="48.47145" lon="2.73371">
        <ele>67</ele>
        <time>2023-04-16T07:47:17.762Z</time>
      </trkpt>
      <trkpt lat="48.47145" lon="2.73364">
        <ele>67</ele>
        <time>2023-04-16T07:47:22.464Z</time>
      </trkpt>
      <trkpt lat="48.47145" lon="2.73355">
        <ele>67</ele>
        <time>2023-04-16T07:47:26.979Z</time>
      </trkpt>
      <trkpt lat="48.47147" lon="2.73348">
        <ele>67</ele>
        <time>2023-04-16T07:47:30.929Z</time>
      </trkpt>
      <trkpt lat="48.4715" lon="2.73339">
        <ele>69</ele>
        <time>2023-04-16T07:47:34.878Z</time>
      </trkpt>
      <trkpt lat="48.47155" lon="2.73331">
        <ele>66</ele>
        <time>2023-04-16T07:47:40.027Z</time>
      </trkpt>
      <trkpt lat="48.4716" lon="2.73322">
        <ele>66</ele>
        <time>2023-04-16T07:47:44.577Z</time>
      </trkpt>
      <trkpt lat="48.47163" lon="2.73317">
        <ele>67</ele>
        <time>2023-04-16T07:47:48.768Z</time>
      </trkpt>
      <trkpt lat="48.47166" lon="2.73309">
        <ele>67</ele>
        <time>2023-04-16T07:47:53.436Z</time>
      </trkpt>
      <trkpt lat="48.4717" lon="2.73303">
        <ele>67</ele>
        <time>2023-04-16T07:47:57.452Z</time>
      </trkpt>
      <trkpt lat="48.47172" lon="2.73295">
        <ele>67</ele>
        <time>2023-04-16T07:48:01.452Z</time>
      </trkpt>
      <trkpt lat="48.47175" lon="2.73286">
        <ele>68</ele>
        <time>2023-04-16T07:48:05.976Z</time>
      </trkpt>
      <trkpt lat="48.47179" lon="2.73278">
        <ele>68</ele>
        <time>2023-04-16T07:48:10.172Z</time>
      </trkpt>
      <trkpt lat="48.47184" lon="2.73268">
        <ele>63</ele>
        <time>2023-04-16T07:48:14.958Z</time>
      </trkpt>
      <trkpt lat="48.47189" lon="2.73258">
        <ele>63</ele>
        <time>2023-04-16T07:48:19.876Z</time>
      </trkpt>
      <trkpt lat="48.47193" lon="2.73251">
        <ele>63</ele>
        <time>2023-04-16T07:48:23.912Z</time>
      </trkpt>
      <trkpt lat="48.47196" lon="2.73241">
        <ele>63</ele>
        <time>2023-04-16T07:48:29.057Z</time>
      </trkpt>
      <trkpt lat="48.47202" lon="2.73234">
        <ele>63</ele>
        <time>2023-04-16T07:48:33.605Z</time>
      </trkpt>
      <trkpt lat="48.47206" lon="2.73224">
        <ele>63</ele>
        <time>2023-04-16T07:48:38.032Z</time>
      </trkpt>
      <trkpt lat="48.4721" lon="2.73215">
        <ele>62</ele>
        <time>2023-04-16T07:48:42.542Z</time>
      </trkpt>
      <trkpt lat="48.47214" lon="2.73209">
        <ele>62</ele>
        <time>2023-04-16T07:48:46.452Z</time>
      </trkpt>
      <trkpt lat="48.47218" lon="2.73201">
        <ele>63</ele>
        <time>2023-04-16T07:48:50.956Z</time>
      </trkpt>
      <trkpt lat="48.47222" lon="2.73193">
        <ele>63</ele>
        <time>2023-04-16T07:48:55.452Z</time>
      </trkpt>
      <trkpt lat="48.47224" lon="2.73187">
        <ele>63</ele>
        <time>2023-04-16T07:48:59.912Z</time>
      </trkpt>
      <trkpt lat="48.47226" lon="2.73181">
        <ele>63</ele>
        <time>2023-04-16T07:49:03.962Z</time>
      </trkpt>
      <trkpt lat="48.47229" lon="2.73172">
        <ele>63</ele>
        <time>2023-04-16T07:49:08.991Z</time>
      </trkpt>
      <trkpt lat="48.47235" lon="2.73165">
        <ele>63</ele>
        <time>2023-04-16T07:49:13.175Z</time>
      </trkpt>
      <trkpt lat="48.47241" lon="2.73157">
        <ele>63</ele>
        <time>2023-04-16T07:49:17.723Z</time>
      </trkpt>
      <trkpt lat="48.47245" lon="2.7315">
        <ele>63</ele>
        <time>2023-04-16T07:49:21.780Z</time>
      </trkpt>
      <trkpt lat="48.47249" lon="2.73142">
        <ele>63</ele>
        <time>2023-04-16T07:49:26.448Z</time>
      </trkpt>
      <trkpt lat="48.47253" lon="2.73134">
        <ele>63</ele>
        <time>2023-04-16T07:49:30.452Z</time>
      </trkpt>
      <trkpt lat="48.47258" lon="2.73126">
        <ele>63</ele>
        <time>2023-04-16T07:49:35.049Z</time>
      </trkpt>
      <trkpt lat="48.47263" lon="2.7312">
        <ele>63</ele>
        <time>2023-04-16T07:49:39Z</time>
      </trkpt>
      <trkpt lat="48.47267" lon="2.73111">
        <ele>63</ele>
        <time>2023-04-16T07:49:43.548Z</time>
      </trkpt>
      <trkpt lat="48.4727" lon="2.73105">
        <ele>63</ele>
        <time>2023-04-16T07:49:48.094Z</time>
      </trkpt>
      <trkpt lat="48.47273" lon="2.73096">
        <ele>64</ele>
        <time>2023-04-16T07:49:52.761Z</time>
      </trkpt>
      <trkpt lat="48.47276" lon="2.7309">
        <ele>64</ele>
        <time>2023-04-16T07:49:56.710Z</time>
      </trkpt>
      <trkpt lat="48.4728" lon="2.73083">
        <ele>64</ele>
        <time>2023-04-16T07:50:01.380Z</time>
      </trkpt>
      <trkpt lat="48.47283" lon="2.73072">
        <ele>64</ele>
        <time>2023-04-16T07:50:05.449Z</time>
      </trkpt>
      <trkpt lat="48.47287" lon="2.73064">
        <ele>64</ele>
        <time>2023-04-16T07:50:09.883Z</time>
      </trkpt>
      <trkpt lat="48.47291" lon="2.73057">
        <ele>64</ele>
        <time>2023-04-16T07:50:13.954Z</time>
      </trkpt>
      <trkpt lat="48.47294" lon="2.73051">
        <ele>65</ele>
        <time>2023-04-16T07:50:18.452Z</time>
      </trkpt>
      <trkpt lat="48.47297" lon="2.73044">
        <ele>65</ele>
        <time>2023-04-16T07:50:23.002Z</time>
      </trkpt>
      <trkpt lat="48.47302" lon="2.73034">
        <ele>64</ele>
        <time>2023-04-16T07:50:27.024Z</time>
      </trkpt>
      <trkpt lat="48.47309" lon="2.73026">
        <ele>64</ele>
        <time>2023-04-16T07:50:31.534Z</time>
      </trkpt>
      <trkpt lat="48.47312" lon="2.73018">
        <ele>64</ele>
        <time>2023-04-16T07:50:36.040Z</time>
      </trkpt>
      <trkpt lat="48.47317" lon="2.73013">
        <ele>63</ele>
        <time>2023-04-16T07:50:40.452Z</time>
      </trkpt>
      <trkpt lat="48.47322" lon="2.73009">
        <ele>64</ele>
        <time>2023-04-16T07:50:45.041Z</time>
      </trkpt>
      <trkpt lat="48.47326" lon="2.72999">
        <ele>64</ele>
        <time>2023-04-16T07:50:48.994Z</time>
      </trkpt>
      <trkpt lat="48.47329" lon="2.72989">
        <ele>64</ele>
        <time>2023-04-16T07:50:53.729Z</time>
      </trkpt>
      <trkpt lat="48.47332" lon="2.72982">
        <ele>61</ele>
        <time>2023-04-16T07:50:58.276Z</time>
      </trkpt>
      <trkpt lat="48.47338" lon="2.72973">
        <ele>61</ele>
        <time>2023-04-16T07:51:02.698Z</time>
      </trkpt>
      <trkpt lat="48.47344" lon="2.72965">
        <ele>61</ele>
        <time>2023-04-16T07:51:06.739Z</time>
      </trkpt>
      <trkpt lat="48.47348" lon="2.72959">
        <ele>60</ele>
        <time>2023-04-16T07:51:11.294Z</time>
      </trkpt>
      <trkpt lat="48.47353" lon="2.72951">
        <ele>58</ele>
        <time>2023-04-16T07:51:15.922Z</time>
      </trkpt>
      <trkpt lat="48.47357" lon="2.72944">
        <ele>58</ele>
        <time>2023-04-16T07:51:20.044Z</time>
      </trkpt>
      <trkpt lat="48.47361" lon="2.72935">
        <ele>58</ele>
        <time>2023-04-16T07:51:24.452Z</time>
      </trkpt>
      <trkpt lat="48.47364" lon="2.72928">
        <ele>58</ele>
        <time>2023-04-16T07:51:28.314Z</time>
      </trkpt>
      <trkpt lat="48.47368" lon="2.72919">
        <ele>58</ele>
        <time>2023-04-16T07:51:32.749Z</time>
      </trkpt>
      <trkpt lat="48.47373" lon="2.7291">
        <ele>58</ele>
        <time>2023-04-16T07:51:37.904Z</time>
      </trkpt>
      <trkpt lat="48.47377" lon="2.72904">
        <ele>58</ele>
        <time>2023-04-16T07:51:41.739Z</time>
      </trkpt>
      <trkpt lat="48.47381" lon="2.72897">
        <ele>59</ele>
        <time>2023-04-16T07:51:46.294Z</time>
      </trkpt>
      <trkpt lat="48.47384" lon="2.7289">
        <ele>59</ele>
        <time>2023-04-16T07:51:50.810Z</time>
      </trkpt>
      <trkpt lat="48.47387" lon="2.72877">
        <ele>59</ele>
        <time>2023-04-16T07:51:55.965Z</time>
      </trkpt>
      <trkpt lat="48.47392" lon="2.7287">
        <ele>59</ele>
        <time>2023-04-16T07:51:59.562Z</time>
      </trkpt>
      <trkpt lat="48.47396" lon="2.72862">
        <ele>59</ele>
        <time>2023-04-16T07:52:04.958Z</time>
      </trkpt>
      <trkpt lat="48.47398" lon="2.72859">
        <ele>59</ele>
        <time>2023-04-16T07:52:09.001Z</time>
      </trkpt>
      <trkpt lat="48.47401" lon="2.72852">
        <ele>59</ele>
        <time>2023-04-16T07:52:12.983Z</time>
      </trkpt>
      <trkpt lat="48.47405" lon="2.72845">
        <ele>59</ele>
        <time>2023-04-16T07:52:16.938Z</time>
      </trkpt>
      <trkpt lat="48.47411" lon="2.72837">
        <ele>59</ele>
        <time>2023-04-16T07:52:20.895Z</time>
      </trkpt>
      <trkpt lat="48.47418" lon="2.72828">
        <ele>59</ele>
        <time>2023-04-16T07:52:26.136Z</time>
      </trkpt>
      <trkpt lat="48.47422" lon="2.72819">
        <ele>60</ele>
        <time>2023-04-16T07:52:29.948Z</time>
      </trkpt>
      <trkpt lat="48.47427" lon="2.72808">
        <ele>60</ele>
        <time>2023-04-16T07:52:34.985Z</time>
      </trkpt>
      <trkpt lat="48.47433" lon="2.728">
        <ele>59</ele>
        <time>2023-04-16T07:52:39.781Z</time>
      </trkpt>
      <trkpt lat="48.47438" lon="2.72789">
        <ele>60</ele>
        <time>2023-04-16T07:52:45.055Z</time>
      </trkpt>
      <trkpt lat="48.47441" lon="2.72781">
        <ele>60</ele>
        <time>2023-04-16T07:52:49.158Z</time>
      </trkpt>
      <trkpt lat="48.47446" lon="2.72773">
        <ele>60</ele>
        <time>2023-04-16T07:52:53.167Z</time>
      </trkpt>
      <trkpt lat="48.47449" lon="2.72766">
        <ele>60</ele>
        <time>2023-04-16T07:52:57.362Z</time>
      </trkpt>
      <trkpt lat="48.47453" lon="2.7276">
        <ele>60</ele>
        <time>2023-04-16T07:53:01.795Z</time>
      </trkpt>
      <trkpt lat="48.47457" lon="2.72754">
        <ele>60</ele>
        <time>2023-04-16T07:53:05.871Z</time>
      </trkpt>
      <trkpt lat="48.47462" lon="2.72745">
        <ele>59</ele>
        <time>2023-04-16T07:53:10.667Z</time>
      </trkpt>
      <trkpt lat="48.47465" lon="2.72737">
        <ele>59</ele>
        <time>2023-04-16T07:53:15.162Z</time>
      </trkpt>
      <trkpt lat="48.47467" lon="2.72728">
        <ele>59</ele>
        <time>2023-04-16T07:53:19.657Z</time>
      </trkpt>
      <trkpt lat="48.4747" lon="2.7272">
        <ele>59</ele>
        <time>2023-04-16T07:53:24.159Z</time>
      </trkpt>
      <trkpt lat="48.47476" lon="2.72712">
        <ele>59</ele>
        <time>2023-04-16T07:53:29.164Z</time>
      </trkpt>
      <trkpt lat="48.4748" lon="2.72705">
        <ele>60</ele>
        <time>2023-04-16T07:53:32.930Z</time>
      </trkpt>
      <trkpt lat="48.47485" lon="2.72698">
        <ele>60</ele>
        <time>2023-04-16T07:53:37.299Z</time>
      </trkpt>
      <trkpt lat="48.4749" lon="2.72691">
        <ele>59</ele>
        <time>2023-04-16T07:53:41.379Z</time>
      </trkpt>
      <trkpt lat="48.47495" lon="2.72683">
        <ele>59</ele>
        <time>2023-04-16T07:53:45.531Z</time>
      </trkpt>
      <trkpt lat="48.47499" lon="2.72676">
        <ele>59</ele>
        <time>2023-04-16T07:53:49.523Z</time>
      </trkpt>
      <trkpt lat="48.47504" lon="2.7267">
        <ele>59</ele>
        <time>2023-04-16T07:53:54.176Z</time>
      </trkpt>
      <trkpt lat="48.47509" lon="2.72665">
        <ele>59</ele>
        <time>2023-04-16T07:53:58.027Z</time>
      </trkpt>
      <trkpt lat="48.47513" lon="2.72659">
        <ele>59</ele>
        <time>2023-04-16T07:54:02.561Z</time>
      </trkpt>
      <trkpt lat="48.47517" lon="2.72652">
        <ele>59</ele>
        <time>2023-04-16T07:54:07.071Z</time>
      </trkpt>
      <trkpt lat="48.4752" lon="2.72645">
        <ele>59</ele>
        <time>2023-04-16T07:54:11.145Z</time>
      </trkpt>
      <trkpt lat="48.47525" lon="2.72635">
        <ele>59</ele>
        <time>2023-04-16T07:54:15.697Z</time>
      </trkpt>
      <trkpt lat="48.47529" lon="2.72628">
        <ele>59</ele>
        <time>2023-04-16T07:54:20.350Z</time>
      </trkpt>
      <trkpt lat="48.47533" lon="2.7262">
        <ele>61</ele>
        <time>2023-04-16T07:54:24.882Z</time>
      </trkpt>
      <trkpt lat="48.47536" lon="2.72614">
        <ele>61</ele>
        <time>2023-04-16T07:54:28.954Z</time>
      </trkpt>
      <trkpt lat="48.4754" lon="2.72604">
        <ele>61</ele>
        <time>2023-04-16T07:54:33.452Z</time>
      </trkpt>
      <trkpt lat="48.47544" lon="2.72596">
        <ele>64</ele>
        <time>2023-04-16T07:54:38.057Z</time>
      </trkpt>
      <trkpt lat="48.47548" lon="2.72588">
        <ele>64</ele>
        <time>2023-04-16T07:54:42.609Z</time>
      </trkpt>
      <trkpt lat="48.47553" lon="2.72582">
        <ele>64</ele>
        <time>2023-04-16T07:54:46.561Z</time>
      </trkpt>
      <trkpt lat="48.47557" lon="2.72575">
        <ele>64</ele>
        <time>2023-04-16T07:54:50.994Z</time>
      </trkpt>
      <trkpt lat="48.47563" lon="2.7257">
        <ele>64</ele>
        <time>2023-04-16T07:54:55.644Z</time>
      </trkpt>
      <trkpt lat="48.47568" lon="2.72566">
        <ele>65</ele>
        <time>2023-04-16T07:55:00.165Z</time>
      </trkpt>
      <trkpt lat="48.47573" lon="2.72563">
        <ele>64</ele>
        <time>2023-04-16T07:55:03.769Z</time>
      </trkpt>
      <trkpt lat="48.4758" lon="2.72562">
        <ele>64</ele>
        <time>2023-04-16T07:55:08.560Z</time>
      </trkpt>
      <trkpt lat="48.47584" lon="2.72564">
        <ele>64</ele>
        <time>2023-04-16T07:55:12.452Z</time>
      </trkpt>
      <trkpt lat="48.47589" lon="2.72564">
        <ele>64</ele>
        <time>2023-04-16T07:55:16.946Z</time>
      </trkpt>
      <trkpt lat="48.47595" lon="2.72564">
        <ele>64</ele>
        <time>2023-04-16T07:55:21.377Z</time>
      </trkpt>
      <trkpt lat="48.476" lon="2.72564">
        <ele>64</ele>
        <time>2023-04-16T07:55:25.568Z</time>
      </trkpt>
      <trkpt lat="48.47606" lon="2.72563">
        <ele>64</ele>
        <time>2023-04-16T07:55:29.640Z</time>
      </trkpt>
      <trkpt lat="48.4761" lon="2.72563">
        <ele>64</ele>
        <time>2023-04-16T07:55:33.593Z</time>
      </trkpt>
      <trkpt lat="48.47615" lon="2.72563">
        <ele>64</ele>
        <time>2023-04-16T07:55:38.383Z</time>
      </trkpt>
      <trkpt lat="48.47621" lon="2.72564">
        <ele>64</ele>
        <time>2023-04-16T07:55:43.052Z</time>
      </trkpt>
      <trkpt lat="48.47627" lon="2.72562">
        <ele>64</ele>
        <time>2023-04-16T07:55:47.600Z</time>
      </trkpt>
      <trkpt lat="48.47633" lon="2.7256">
        <ele>64</ele>
        <time>2023-04-16T07:55:52.387Z</time>
      </trkpt>
      <trkpt lat="48.47638" lon="2.72559">
        <ele>64</ele>
        <time>2023-04-16T07:55:56.452Z</time>
      </trkpt>
      <trkpt lat="48.47644" lon="2.72559">
        <ele>64</ele>
        <time>2023-04-16T07:56:00.452Z</time>
      </trkpt>
      <trkpt lat="48.4765" lon="2.72558">
        <ele>64</ele>
        <time>2023-04-16T07:56:04.960Z</time>
      </trkpt>
      <trkpt lat="48.47656" lon="2.72557">
        <ele>64</ele>
        <time>2023-04-16T07:56:08.912Z</time>
      </trkpt>
      <trkpt lat="48.47661" lon="2.72557">
        <ele>64</ele>
        <time>2023-04-16T07:56:13.321Z</time>
      </trkpt>
      <trkpt lat="48.47667" lon="2.72558">
        <ele>64</ele>
        <time>2023-04-16T07:56:17.876Z</time>
      </trkpt>
      <trkpt lat="48.47676" lon="2.72558">
        <ele>64</ele>
        <time>2023-04-16T07:56:22.947Z</time>
      </trkpt>
      <trkpt lat="48.47682" lon="2.72557">
        <ele>62</ele>
        <time>2023-04-16T07:56:27.222Z</time>
      </trkpt>
      <trkpt lat="48.4769" lon="2.72555">
        <ele>62</ele>
        <time>2023-04-16T07:56:31.792Z</time>
      </trkpt>
      <trkpt lat="48.47696" lon="2.72556">
        <ele>62</ele>
        <time>2023-04-16T07:56:35.863Z</time>
      </trkpt>
      <trkpt lat="48.47703" lon="2.72556">
        <ele>62</ele>
        <time>2023-04-16T07:56:40.054Z</time>
      </trkpt>
      <trkpt lat="48.47709" lon="2.72556">
        <ele>61</ele>
        <time>2023-04-16T07:56:44.380Z</time>
      </trkpt>
      <trkpt lat="48.47713" lon="2.72555">
        <ele>61</ele>
        <time>2023-04-16T07:56:48.897Z</time>
      </trkpt>
      <trkpt lat="48.47719" lon="2.72553">
        <ele>61</ele>
        <time>2023-04-16T07:56:53.340Z</time>
      </trkpt>
      <trkpt lat="48.47726" lon="2.72553">
        <ele>61</ele>
        <time>2023-04-16T07:56:57.876Z</time>
      </trkpt>
      <trkpt lat="48.47732" lon="2.72553">
        <ele>61</ele>
        <time>2023-04-16T07:57:03.024Z</time>
      </trkpt>
      <trkpt lat="48.4774" lon="2.72553">
        <ele>61</ele>
        <time>2023-04-16T07:57:08.172Z</time>
      </trkpt>
      <trkpt lat="48.47748" lon="2.72553">
        <ele>61</ele>
        <time>2023-04-16T07:57:12.722Z</time>
      </trkpt>
      <trkpt lat="48.47754" lon="2.72553">
        <ele>61</ele>
        <time>2023-04-16T07:57:17.175Z</time>
      </trkpt>
      <trkpt lat="48.47762" lon="2.72554">
        <ele>61</ele>
        <time>2023-04-16T07:57:21.700Z</time>
      </trkpt>
      <trkpt lat="48.47769" lon="2.72554">
        <ele>61</ele>
        <time>2023-04-16T07:57:26.301Z</time>
      </trkpt>
      <trkpt lat="48.47775" lon="2.72556">
        <ele>61</ele>
        <time>2023-04-16T07:57:30.797Z</time>
      </trkpt>
      <trkpt lat="48.47781" lon="2.72557">
        <ele>61</ele>
        <time>2023-04-16T07:57:34.748Z</time>
      </trkpt>
      <trkpt lat="48.47787" lon="2.72557">
        <ele>61</ele>
        <time>2023-04-16T07:57:38.698Z</time>
      </trkpt>
      <trkpt lat="48.47793" lon="2.72559">
        <ele>63</ele>
        <time>2023-04-16T07:57:42.768Z</time>
      </trkpt>
      <trkpt lat="48.478" lon="2.72561">
        <ele>63</ele>
        <time>2023-04-16T07:57:47.437Z</time>
      </trkpt>
      <trkpt lat="48.47806" lon="2.7256">
        <ele>63</ele>
        <time>2023-04-16T07:57:51.987Z</time>
      </trkpt>
      <trkpt lat="48.47812" lon="2.72559">
        <ele>63</ele>
        <time>2023-04-16T07:57:56.059Z</time>
      </trkpt>
      <trkpt lat="48.47819" lon="2.72558">
        <ele>63</ele>
        <time>2023-04-16T07:58:00.608Z</time>
      </trkpt>
      <trkpt lat="48.47824" lon="2.72557">
        <ele>64</ele>
        <time>2023-04-16T07:58:04.560Z</time>
      </trkpt>
      <trkpt lat="48.47831" lon="2.72555">
        <ele>64</ele>
        <time>2023-04-16T07:58:09.348Z</time>
      </trkpt>
      <trkpt lat="48.4784" lon="2.72553">
        <ele>64</ele>
        <time>2023-04-16T07:58:13.820Z</time>
      </trkpt>
      <trkpt lat="48.47845" lon="2.72552">
        <ele>64</ele>
        <time>2023-04-16T07:58:17.965Z</time>
      </trkpt>
      <trkpt lat="48.47851" lon="2.72551">
        <ele>62</ele>
        <time>2023-04-16T07:58:22.633Z</time>
      </trkpt>
      <trkpt lat="48.47857" lon="2.72549">
        <ele>62</ele>
        <time>2023-04-16T07:58:27.014Z</time>
      </trkpt>
      <trkpt lat="48.4786" lon="2.72548">
        <ele>62</ele>
        <time>2023-04-16T07:58:31.012Z</time>
      </trkpt>
      <trkpt lat="48.47868" lon="2.72548">
        <ele>62</ele>
        <time>2023-04-16T07:58:35.561Z</time>
      </trkpt>
      <trkpt lat="48.47876" lon="2.72549">
        <ele>62</ele>
        <time>2023-04-16T07:58:39.632Z</time>
      </trkpt>
      <trkpt lat="48.47884" lon="2.7255">
        <ele>62</ele>
        <time>2023-04-16T07:58:44.182Z</time>
      </trkpt>
      <trkpt lat="48.4789" lon="2.7255">
        <ele>62</ele>
        <time>2023-04-16T07:58:48.693Z</time>
      </trkpt>
      <trkpt lat="48.47899" lon="2.72551">
        <ele>62</ele>
        <time>2023-04-16T07:58:53.485Z</time>
      </trkpt>
      <trkpt lat="48.47904" lon="2.7255">
        <ele>62</ele>
        <time>2023-04-16T07:58:58.037Z</time>
      </trkpt>
      <trkpt lat="48.47908" lon="2.7255">
        <ele>62</ele>
        <time>2023-04-16T07:59:02.585Z</time>
      </trkpt>
      <trkpt lat="48.47913" lon="2.72549">
        <ele>62</ele>
        <time>2023-04-16T07:59:07.136Z</time>
      </trkpt>
      <trkpt lat="48.4792" lon="2.72548">
        <ele>62</ele>
        <time>2023-04-16T07:59:11.178Z</time>
      </trkpt>
      <trkpt lat="48.47929" lon="2.72548">
        <ele>62</ele>
        <time>2023-04-16T07:59:15.764Z</time>
      </trkpt>
      <trkpt lat="48.47937" lon="2.72549">
        <ele>62</ele>
        <time>2023-04-16T07:59:19.952Z</time>
      </trkpt>
      <trkpt lat="48.47943" lon="2.72551">
        <ele>62</ele>
        <time>2023-04-16T07:59:24.005Z</time>
      </trkpt>
      <trkpt lat="48.47948" lon="2.72551">
        <ele>62</ele>
        <time>2023-04-16T07:59:27.958Z</time>
      </trkpt>
      <trkpt lat="48.47954" lon="2.7255">
        <ele>62</ele>
        <time>2023-04-16T07:59:31.913Z</time>
      </trkpt>
      <trkpt lat="48.47961" lon="2.72549">
        <ele>61</ele>
        <time>2023-04-16T07:59:36.515Z</time>
      </trkpt>
      <trkpt lat="48.47969" lon="2.72549">
        <ele>61</ele>
        <time>2023-04-16T07:59:40.452Z</time>
      </trkpt>
      <trkpt lat="48.47976" lon="2.72545">
        <ele>61</ele>
        <time>2023-04-16T07:59:44.970Z</time>
      </trkpt>
      <trkpt lat="48.47981" lon="2.72542">
        <ele>61</ele>
        <time>2023-04-16T07:59:48.790Z</time>
      </trkpt>
      <trkpt lat="48.47988" lon="2.72539">
        <ele>62</ele>
        <time>2023-04-16T07:59:53.408Z</time>
      </trkpt>
      <trkpt lat="48.47995" lon="2.72539">
        <ele>62</ele>
        <time>2023-04-16T07:59:57.688Z</time>
      </trkpt>
      <trkpt lat="48.48002" lon="2.72539">
        <ele>62</ele>
        <time>2023-04-16T08:00:02.158Z</time>
      </trkpt>
      <trkpt lat="48.48011" lon="2.72541">
        <ele>62</ele>
        <time>2023-04-16T08:00:06.163Z</time>
      </trkpt>
      <trkpt lat="48.4802" lon="2.72541">
        <ele>62</ele>
        <time>2023-04-16T08:00:10.658Z</time>
      </trkpt>
      <trkpt lat="48.48025" lon="2.72537">
        <ele>62</ele>
        <time>2023-04-16T08:00:14.590Z</time>
      </trkpt>
      <trkpt lat="48.48031" lon="2.72533">
        <ele>62</ele>
        <time>2023-04-16T08:00:18.784Z</time>
      </trkpt>
      <trkpt lat="48.48038" lon="2.72526">
        <ele>62</ele>
        <time>2023-04-16T08:00:22.978Z</time>
      </trkpt>
      <trkpt lat="48.48044" lon="2.72519">
        <ele>59</ele>
        <time>2023-04-16T08:00:27.593Z</time>
      </trkpt>
      <trkpt lat="48.48048" lon="2.72517">
        <ele>59</ele>
        <time>2023-04-16T08:00:31.668Z</time>
      </trkpt>
      <trkpt lat="48.48055" lon="2.72518">
        <ele>59</ele>
        <time>2023-04-16T08:00:36.161Z</time>
      </trkpt>
      <trkpt lat="48.4806" lon="2.72518">
        <ele>59</ele>
        <time>2023-04-16T08:00:40.697Z</time>
      </trkpt>
      <trkpt lat="48.48066" lon="2.72516">
        <ele>59</ele>
        <time>2023-04-16T08:00:45.161Z</time>
      </trkpt>
      <trkpt lat="48.48072" lon="2.72513">
        <ele>55</ele>
        <time>2023-04-16T08:00:49.639Z</time>
      </trkpt>
      <trkpt lat="48.48078" lon="2.72506">
        <ele>55</ele>
        <time>2023-04-16T08:00:53.593Z</time>
      </trkpt>
      <trkpt lat="48.48085" lon="2.725">
        <ele>55</ele>
        <time>2023-04-16T08:00:58.171Z</time>
      </trkpt>
      <trkpt lat="48.48089" lon="2.72492">
        <ele>55</ele>
        <time>2023-04-16T08:01:02.760Z</time>
      </trkpt>
      <trkpt lat="48.48095" lon="2.72494">
        <ele>55</ele>
        <time>2023-04-16T08:01:06.953Z</time>
      </trkpt>
      <trkpt lat="48.48105" lon="2.72492">
        <ele>53</ele>
        <time>2023-04-16T08:01:11.625Z</time>
      </trkpt>
      <trkpt lat="48.48113" lon="2.72492">
        <ele>53</ele>
        <time>2023-04-16T08:01:15.580Z</time>
      </trkpt>
      <trkpt lat="48.48121" lon="2.72494">
        <ele>53</ele>
        <time>2023-04-16T08:01:19.753Z</time>
      </trkpt>
      <trkpt lat="48.48128" lon="2.72495">
        <ele>51</ele>
        <time>2023-04-16T08:01:23.828Z</time>
      </trkpt>
      <trkpt lat="48.48132" lon="2.72497">
        <ele>51</ele>
        <time>2023-04-16T08:01:28.452Z</time>
      </trkpt>
      <trkpt lat="48.48139" lon="2.72494">
        <ele>51</ele>
        <time>2023-04-16T08:01:32.915Z</time>
      </trkpt>
      <trkpt lat="48.48144" lon="2.72493">
        <ele>51</ele>
        <time>2023-04-16T08:01:36.890Z</time>
      </trkpt>
      <trkpt lat="48.4815" lon="2.72493">
        <ele>51</ele>
        <time>2023-04-16T08:01:41.109Z</time>
      </trkpt>
      <trkpt lat="48.48155" lon="2.72493">
        <ele>48</ele>
        <time>2023-04-16T08:01:44.711Z</time>
      </trkpt>
      <trkpt lat="48.4816" lon="2.72487">
        <ele>48</ele>
        <time>2023-04-16T08:01:49.218Z</time>
      </trkpt>
      <trkpt lat="48.48158" lon="2.72484">
        <ele>50</ele>
        <time>2023-04-16T08:01:53.221Z</time>
      </trkpt>
      <trkpt lat="48.48161" lon="2.7248">
        <ele>50</ele>
        <time>2023-04-16T08:01:57.981Z</time>
      </trkpt>
      <trkpt lat="48.48171" lon="2.72483">
        <ele>50</ele>
        <time>2023-04-16T08:02:02.657Z</time>
      </trkpt>
      <trkpt lat="48.48179" lon="2.72491">
        <ele>48</ele>
        <time>2023-04-16T08:02:07.182Z</time>
      </trkpt>
      <trkpt lat="48.48186" lon="2.72496">
        <ele>48</ele>
        <time>2023-04-16T08:02:11.648Z</time>
      </trkpt>
      <trkpt lat="48.48192" lon="2.72495">
        <ele>48</ele>
        <time>2023-04-16T08:02:15.723Z</time>
      </trkpt>
      <trkpt lat="48.48198" lon="2.72491">
        <ele>48</ele>
        <time>2023-04-16T08:02:20.275Z</time>
      </trkpt>
      <trkpt lat="48.48204" lon="2.72489">
        <ele>48</ele>
        <time>2023-04-16T08:02:24.789Z</time>
      </trkpt>
      <trkpt lat="48.4821" lon="2.72487">
        <ele>49</ele>
        <time>2023-04-16T08:02:28.982Z</time>
      </trkpt>
      <trkpt lat="48.48215" lon="2.72485">
        <ele>50</ele>
        <time>2023-04-16T08:02:32.937Z</time>
      </trkpt>
      <trkpt lat="48.48221" lon="2.72483">
        <ele>50</ele>
        <time>2023-04-16T08:02:36.851Z</time>
      </trkpt>
      <trkpt lat="48.48227" lon="2.72482">
        <ele>50</ele>
        <time>2023-04-16T08:02:41.452Z</time>
      </trkpt>
      <trkpt lat="48.48233" lon="2.7248">
        <ele>50</ele>
        <time>2023-04-16T08:02:45.452Z</time>
      </trkpt>
      <trkpt lat="48.48239" lon="2.72477">
        <ele>48</ele>
        <time>2023-04-16T08:02:50.035Z</time>
      </trkpt>
      <trkpt lat="48.48247" lon="2.72476">
        <ele>48</ele>
        <time>2023-04-16T08:02:54.589Z</time>
      </trkpt>
      <trkpt lat="48.48253" lon="2.72475">
        <ele>48</ele>
        <time>2023-04-16T08:02:58.452Z</time>
      </trkpt>
      <trkpt lat="48.48259" lon="2.72473">
        <ele>48</ele>
        <time>2023-04-16T08:03:02.938Z</time>
      </trkpt>
      <trkpt lat="48.48264" lon="2.7247">
        <ele>47</ele>
        <time>2023-04-16T08:03:06.929Z</time>
      </trkpt>
      <trkpt lat="48.48269" lon="2.72469">
        <ele>47</ele>
        <time>2023-04-16T08:03:10.883Z</time>
      </trkpt>
      <trkpt lat="48.48276" lon="2.72466">
        <ele>47</ele>
        <time>2023-04-16T08:03:15.277Z</time>
      </trkpt>
      <trkpt lat="48.4828" lon="2.72461">
        <ele>47</ele>
        <time>2023-04-16T08:03:19.352Z</time>
      </trkpt>
      <trkpt lat="48.48283" lon="2.72452">
        <ele>46</ele>
        <time>2023-04-16T08:03:23.410Z</time>
      </trkpt>
      <trkpt lat="48.48285" lon="2.72443">
        <ele>46</ele>
        <time>2023-04-16T08:03:27.366Z</time>
      </trkpt>
      <trkpt lat="48.48289" lon="2.72435">
        <ele>46</ele>
        <time>2023-04-16T08:03:31.921Z</time>
      </trkpt>
      <trkpt lat="48.48293" lon="2.72428">
        <ele>44</ele>
        <time>2023-04-16T08:03:36.419Z</time>
      </trkpt>
      <trkpt lat="48.48298" lon="2.72416">
        <ele>44</ele>
        <time>2023-04-16T08:03:40.957Z</time>
      </trkpt>
      <trkpt lat="48.48299" lon="2.72405">
        <ele>44</ele>
        <time>2023-04-16T08:03:44.954Z</time>
      </trkpt>
      <trkpt lat="48.48298" lon="2.72397">
        <ele>42</ele>
        <time>2023-04-16T08:03:48.718Z</time>
      </trkpt>
      <trkpt lat="48.48298" lon="2.72385">
        <ele>42</ele>
        <time>2023-04-16T08:03:53.231Z</time>
      </trkpt>
      <trkpt lat="48.48299" lon="2.72375">
        <ele>42</ele>
        <time>2023-04-16T08:03:57.749Z</time>
      </trkpt>
      <trkpt lat="48.48299" lon="2.72362">
        <ele>41</ele>
        <time>2023-04-16T08:04:02.856Z</time>
      </trkpt>
      <trkpt lat="48.48299" lon="2.72361">
        <ele>41</ele>
        <time>2023-04-16T08:04:03.357Z</time>
      </trkpt>
      <trkpt lat="48.48301" lon="2.72339">
        <ele>41</ele>
        <time>2023-04-16T08:04:12.392Z</time>
      </trkpt>
      <trkpt lat="48.48305" lon="2.7233">
        <ele>41</ele>
        <time>2023-04-16T08:04:16.894Z</time>
      </trkpt>
      <trkpt lat="48.48303" lon="2.7232">
        <ele>41</ele>
        <time>2023-04-16T08:04:21.115Z</time>
      </trkpt>
      <trkpt lat="48.48303" lon="2.72311">
        <ele>41</ele>
        <time>2023-04-16T08:04:25.435Z</time>
      </trkpt>
      <trkpt lat="48.48304" lon="2.72302">
        <ele>41</ele>
        <time>2023-04-16T08:04:29.175Z</time>
      </trkpt>
      <trkpt lat="48.48301" lon="2.7229">
        <ele>42</ele>
        <time>2023-04-16T08:04:33.680Z</time>
      </trkpt>
      <trkpt lat="48.48299" lon="2.72281">
        <ele>42</ele>
        <time>2023-04-16T08:04:37.683Z</time>
      </trkpt>
      <trkpt lat="48.48295" lon="2.7227">
        <ele>42</ele>
        <time>2023-04-16T08:04:42.206Z</time>
      </trkpt>
      <trkpt lat="48.48293" lon="2.72261">
        <ele>43</ele>
        <time>2023-04-16T08:04:46.452Z</time>
      </trkpt>
      <trkpt lat="48.48291" lon="2.72252">
        <ele>45</ele>
        <time>2023-04-16T08:04:50.388Z</time>
      </trkpt>
      <trkpt lat="48.48287" lon="2.72246">
        <ele>45</ele>
        <time>2023-04-16T08:04:54.399Z</time>
      </trkpt>
      <trkpt lat="48.48282" lon="2.7224">
        <ele>45</ele>
        <time>2023-04-16T08:04:59.001Z</time>
      </trkpt>
      <trkpt lat="48.48281" lon="2.72232">
        <ele>44</ele>
        <time>2023-04-16T08:05:03.518Z</time>
      </trkpt>
      <trkpt lat="48.48279" lon="2.7222">
        <ele>44</ele>
        <time>2023-04-16T08:05:07.631Z</time>
      </trkpt>
      <trkpt lat="48.48276" lon="2.72213">
        <ele>44</ele>
        <time>2023-04-16T08:05:11.642Z</time>
      </trkpt>
      <trkpt lat="48.48283" lon="2.72203">
        <ele>43</ele>
        <time>2023-04-16T08:07:11.159Z</time>
      </trkpt>
      <trkpt lat="48.48284" lon="2.72205">
        <ele>43</ele>
        <time>2023-04-16T08:07:15.163Z</time>
      </trkpt>
      <trkpt lat="48.48286" lon="2.72207">
        <ele>43</ele>
        <time>2023-04-16T08:07:19.162Z</time>
      </trkpt>
      <trkpt lat="48.48289" lon="2.72212">
        <ele>44</ele>
        <time>2023-04-16T08:07:24.160Z</time>
      </trkpt>
      <trkpt lat="48.48291" lon="2.72212">
        <ele>44</ele>
        <time>2023-04-16T08:07:28.153Z</time>
      </trkpt>
      <trkpt lat="48.48292" lon="2.72204">
        <ele>41</ele>
        <time>2023-04-16T08:08:18.174Z</time>
      </trkpt>
      <trkpt lat="48.48292" lon="2.72202">
        <ele>41</ele>
        <time>2023-04-16T08:08:23.152Z</time>
      </trkpt>
      <trkpt lat="48.48291" lon="2.72199">
        <ele>43</ele>
        <time>2023-04-16T08:08:27.156Z</time>
      </trkpt>
      <trkpt lat="48.48291" lon="2.72198">
        <ele>43</ele>
        <time>2023-04-16T08:08:32.133Z</time>
      </trkpt>
      <trkpt lat="48.48306" lon="2.72186">
        <ele>41</ele>
        <time>2023-04-16T08:08:37.128Z</time>
      </trkpt>
      <trkpt lat="48.48326" lon="2.72167">
        <ele>38</ele>
        <time>2023-04-16T08:09:13.173Z</time>
      </trkpt>
      <trkpt lat="48.48309" lon="2.72179">
        <ele>40</ele>
        <time>2023-04-16T08:09:18.176Z</time>
      </trkpt>
      <trkpt lat="48.48286" lon="2.722">
        <ele>43</ele>
        <time>2023-04-16T08:09:22.177Z</time>
      </trkpt>
      <trkpt lat="48.48281" lon="2.7221">
        <ele>44</ele>
        <time>2023-04-16T08:09:27.178Z</time>
      </trkpt>
      <trkpt lat="48.4828" lon="2.72211">
        <ele>44</ele>
        <time>2023-04-16T08:09:32.153Z</time>
      </trkpt>
      <trkpt lat="48.48269" lon="2.72216">
        <ele>44</ele>
        <time>2023-04-16T08:16:29.757Z</time>
      </trkpt>
      <trkpt lat="48.48267" lon="2.72212">
        <ele>44</ele>
        <time>2023-04-16T08:16:34.261Z</time>
      </trkpt>
      <trkpt lat="48.48265" lon="2.72205">
        <ele>43</ele>
        <time>2023-04-16T08:16:37.765Z</time>
      </trkpt>
      <trkpt lat="48.48264" lon="2.72196">
        <ele>43</ele>
        <time>2023-04-16T08:16:43.791Z</time>
      </trkpt>
      <trkpt lat="48.48259" lon="2.72201">
        <ele>43</ele>
        <time>2023-04-16T08:16:48.315Z</time>
      </trkpt>
      <trkpt lat="48.48253" lon="2.72196">
        <ele>43</ele>
        <time>2023-04-16T08:16:52.936Z</time>
      </trkpt>
      <trkpt lat="48.4825" lon="2.72192">
        <ele>43</ele>
        <time>2023-04-16T08:16:57.056Z</time>
      </trkpt>
      <trkpt lat="48.48249" lon="2.7219">
        <ele>43</ele>
        <time>2023-04-16T08:17:01.578Z</time>
      </trkpt>
      <trkpt lat="48.48246" lon="2.72186">
        <ele>43</ele>
        <time>2023-04-16T08:17:06.095Z</time>
      </trkpt>
      <trkpt lat="48.48244" lon="2.72184">
        <ele>43</ele>
        <time>2023-04-16T08:17:10.141Z</time>
      </trkpt>
      <trkpt lat="48.48239" lon="2.72178">
        <ele>40</ele>
        <time>2023-04-16T08:17:15.735Z</time>
      </trkpt>
      <trkpt lat="48.48232" lon="2.72168">
        <ele>41</ele>
        <time>2023-04-16T08:17:20.953Z</time>
      </trkpt>
      <trkpt lat="48.4823" lon="2.72156">
        <ele>41</ele>
        <time>2023-04-16T08:17:24.973Z</time>
      </trkpt>
      <trkpt lat="48.48226" lon="2.72145">
        <ele>38</ele>
        <time>2023-04-16T08:17:29.985Z</time>
      </trkpt>
      <trkpt lat="48.48225" lon="2.72137">
        <ele>38</ele>
        <time>2023-04-16T08:17:34.094Z</time>
      </trkpt>
      <trkpt lat="48.48221" lon="2.72131">
        <ele>38</ele>
        <time>2023-04-16T08:17:38.110Z</time>
      </trkpt>
      <trkpt lat="48.48219" lon="2.72124">
        <ele>37</ele>
        <time>2023-04-16T08:17:42.736Z</time>
      </trkpt>
      <trkpt lat="48.48216" lon="2.72114">
        <ele>37</ele>
        <time>2023-04-16T08:17:47.863Z</time>
      </trkpt>
      <trkpt lat="48.48213" lon="2.72106">
        <ele>37</ele>
        <time>2023-04-16T08:17:51.884Z</time>
      </trkpt>
      <trkpt lat="48.48211" lon="2.72095">
        <ele>36</ele>
        <time>2023-04-16T08:17:56.907Z</time>
      </trkpt>
      <trkpt lat="48.48211" lon="2.72088">
        <ele>36</ele>
        <time>2023-04-16T08:18:00.923Z</time>
      </trkpt>
      <trkpt lat="48.48211" lon="2.72079">
        <ele>36</ele>
        <time>2023-04-16T08:18:05.038Z</time>
      </trkpt>
      <trkpt lat="48.4821" lon="2.72071">
        <ele>36</ele>
        <time>2023-04-16T08:18:09.051Z</time>
      </trkpt>
      <trkpt lat="48.4821" lon="2.7206">
        <ele>37</ele>
        <time>2023-04-16T08:18:14.065Z</time>
      </trkpt>
      <trkpt lat="48.48211" lon="2.72053">
        <ele>37</ele>
        <time>2023-04-16T08:18:18.075Z</time>
      </trkpt>
      <trkpt lat="48.48212" lon="2.72043">
        <ele>37</ele>
        <time>2023-04-16T08:18:24.610Z</time>
      </trkpt>
      <trkpt lat="48.48215" lon="2.72038">
        <ele>38</ele>
        <time>2023-04-16T08:18:29.139Z</time>
      </trkpt>
      <trkpt lat="48.48215" lon="2.72025">
        <ele>38</ele>
        <time>2023-04-16T08:18:33.653Z</time>
      </trkpt>
      <trkpt lat="48.48218" lon="2.72018">
        <ele>38</ele>
        <time>2023-04-16T08:18:37.665Z</time>
      </trkpt>
      <trkpt lat="48.48221" lon="2.7201">
        <ele>39</ele>
        <time>2023-04-16T08:18:41.679Z</time>
      </trkpt>
      <trkpt lat="48.48223" lon="2.71999">
        <ele>39</ele>
        <time>2023-04-16T08:18:45.691Z</time>
      </trkpt>
      <trkpt lat="48.48223" lon="2.71988">
        <ele>39</ele>
        <time>2023-04-16T08:18:50.204Z</time>
      </trkpt>
      <trkpt lat="48.48223" lon="2.71981">
        <ele>40</ele>
        <time>2023-04-16T08:18:54.214Z</time>
      </trkpt>
      <trkpt lat="48.48223" lon="2.71972">
        <ele>40</ele>
        <time>2023-04-16T08:18:58.823Z</time>
      </trkpt>
      <trkpt lat="48.48221" lon="2.71964">
        <ele>40</ele>
        <time>2023-04-16T08:19:02.832Z</time>
      </trkpt>
      <trkpt lat="48.48221" lon="2.71955">
        <ele>42</ele>
        <time>2023-04-16T08:19:07.543Z</time>
      </trkpt>
      <trkpt lat="48.48221" lon="2.71948">
        <ele>42</ele>
        <time>2023-04-16T08:19:11.652Z</time>
      </trkpt>
      <trkpt lat="48.48226" lon="2.71941">
        <ele>42</ele>
        <time>2023-04-16T08:19:16.159Z</time>
      </trkpt>
      <trkpt lat="48.48232" lon="2.71935">
        <ele>42</ele>
        <time>2023-04-16T08:19:21.170Z</time>
      </trkpt>
      <trkpt lat="48.48236" lon="2.71931">
        <ele>42</ele>
        <time>2023-04-16T08:19:24.870Z</time>
      </trkpt>
      <trkpt lat="48.4824" lon="2.71928">
        <ele>42</ele>
        <time>2023-04-16T08:19:28.877Z</time>
      </trkpt>
      <trkpt lat="48.48244" lon="2.7192">
        <ele>42</ele>
        <time>2023-04-16T08:19:33.383Z</time>
      </trkpt>
      <trkpt lat="48.48246" lon="2.71913">
        <ele>42</ele>
        <time>2023-04-16T08:19:37.886Z</time>
      </trkpt>
      <trkpt lat="48.48246" lon="2.71903">
        <ele>42</ele>
        <time>2023-04-16T08:19:41.889Z</time>
      </trkpt>
      <trkpt lat="48.48245" lon="2.71891">
        <ele>43</ele>
        <time>2023-04-16T08:19:45.891Z</time>
      </trkpt>
      <trkpt lat="48.48243" lon="2.7188">
        <ele>43</ele>
        <time>2023-04-16T08:19:51.097Z</time>
      </trkpt>
      <trkpt lat="48.48242" lon="2.71871">
        <ele>44</ele>
        <time>2023-04-16T08:19:55.601Z</time>
      </trkpt>
      <trkpt lat="48.48242" lon="2.71862">
        <ele>44</ele>
        <time>2023-04-16T08:19:59.604Z</time>
      </trkpt>
      <trkpt lat="48.48241" lon="2.71854">
        <ele>44</ele>
        <time>2023-04-16T08:20:03.607Z</time>
      </trkpt>
      <trkpt lat="48.4824" lon="2.71843">
        <ele>45</ele>
        <time>2023-04-16T08:20:08.110Z</time>
      </trkpt>
      <trkpt lat="48.4824" lon="2.71832">
        <ele>45</ele>
        <time>2023-04-16T08:20:13.115Z</time>
      </trkpt>
      <trkpt lat="48.48241" lon="2.71822">
        <ele>45</ele>
        <time>2023-04-16T08:20:18.119Z</time>
      </trkpt>
      <trkpt lat="48.48241" lon="2.71815">
        <ele>45</ele>
        <time>2023-04-16T08:20:22.223Z</time>
      </trkpt>
      <trkpt lat="48.48238" lon="2.71805">
        <ele>45</ele>
        <time>2023-04-16T08:20:26.828Z</time>
      </trkpt>
      <trkpt lat="48.48235" lon="2.71795">
        <ele>45</ele>
        <time>2023-04-16T08:20:30.931Z</time>
      </trkpt>
      <trkpt lat="48.48233" lon="2.71785">
        <ele>46</ele>
        <time>2023-04-16T08:20:35.436Z</time>
      </trkpt>
      <trkpt lat="48.48231" lon="2.71776">
        <ele>46</ele>
        <time>2023-04-16T08:20:39.939Z</time>
      </trkpt>
      <trkpt lat="48.4823" lon="2.71768">
        <ele>46</ele>
        <time>2023-04-16T08:20:44.042Z</time>
      </trkpt>
      <trkpt lat="48.48229" lon="2.7176">
        <ele>47</ele>
        <time>2023-04-16T08:20:47.744Z</time>
      </trkpt>
      <trkpt lat="48.48228" lon="2.71752">
        <ele>47</ele>
        <time>2023-04-16T08:20:52.467Z</time>
      </trkpt>
      <trkpt lat="48.48228" lon="2.71744">
        <ele>47</ele>
        <time>2023-04-16T08:20:56.969Z</time>
      </trkpt>
      <trkpt lat="48.48226" lon="2.71737">
        <ele>47</ele>
        <time>2023-04-16T08:21:01.531Z</time>
      </trkpt>
      <trkpt lat="48.48225" lon="2.71729">
        <ele>47</ele>
        <time>2023-04-16T08:21:06.054Z</time>
      </trkpt>
      <trkpt lat="48.48222" lon="2.71715">
        <ele>47</ele>
        <time>2023-04-16T08:21:10.558Z</time>
      </trkpt>
      <trkpt lat="48.48223" lon="2.71704">
        <ele>47</ele>
        <time>2023-04-16T08:21:15.063Z</time>
      </trkpt>
      <trkpt lat="48.48223" lon="2.71693">
        <ele>47</ele>
        <time>2023-04-16T08:21:20.068Z</time>
      </trkpt>
      <trkpt lat="48.48218" lon="2.71682">
        <ele>47</ele>
        <time>2023-04-16T08:21:24.577Z</time>
      </trkpt>
      <trkpt lat="48.48216" lon="2.71671">
        <ele>48</ele>
        <time>2023-04-16T08:21:28.686Z</time>
      </trkpt>
      <trkpt lat="48.48216" lon="2.71662">
        <ele>48</ele>
        <time>2023-04-16T08:21:32.695Z</time>
      </trkpt>
      <trkpt lat="48.48216" lon="2.71655">
        <ele>48</ele>
        <time>2023-04-16T08:21:37.205Z</time>
      </trkpt>
      <trkpt lat="48.48216" lon="2.71648">
        <ele>48</ele>
        <time>2023-04-16T08:21:41.210Z</time>
      </trkpt>
      <trkpt lat="48.48215" lon="2.71643">
        <ele>48</ele>
        <time>2023-04-16T08:21:44.714Z</time>
      </trkpt>
      <trkpt lat="48.48213" lon="2.71628">
        <ele>48</ele>
        <time>2023-04-16T08:21:51.744Z</time>
      </trkpt>
      <trkpt lat="48.48212" lon="2.71623">
        <ele>47</ele>
        <time>2023-04-16T08:21:55.762Z</time>
      </trkpt>
      <trkpt lat="48.48212" lon="2.7162">
        <ele>47</ele>
        <time>2023-04-16T08:22:00.788Z</time>
      </trkpt>
      <trkpt lat="48.4821" lon="2.71609">
        <ele>47</ele>
        <time>2023-04-16T08:22:04.804Z</time>
      </trkpt>
      <trkpt lat="48.48206" lon="2.71594">
        <ele>48</ele>
        <time>2023-04-16T08:22:08.817Z</time>
      </trkpt>
      <trkpt lat="48.48207" lon="2.71583">
        <ele>48</ele>
        <time>2023-04-16T08:22:13.827Z</time>
      </trkpt>
      <trkpt lat="48.48205" lon="2.71571">
        <ele>48</ele>
        <time>2023-04-16T08:22:18.336Z</time>
      </trkpt>
      <trkpt lat="48.48203" lon="2.71562">
        <ele>48</ele>
        <time>2023-04-16T08:22:22.348Z</time>
      </trkpt>
      <trkpt lat="48.48202" lon="2.71551">
        <ele>48</ele>
        <time>2023-04-16T08:22:26.859Z</time>
      </trkpt>
      <trkpt lat="48.48199" lon="2.71542">
        <ele>48</ele>
        <time>2023-04-16T08:22:30.868Z</time>
      </trkpt>
      <trkpt lat="48.48197" lon="2.7153">
        <ele>47</ele>
        <time>2023-04-16T08:22:35.877Z</time>
      </trkpt>
      <trkpt lat="48.48196" lon="2.71525">
        <ele>47</ele>
        <time>2023-04-16T08:22:40.394Z</time>
      </trkpt>
      <trkpt lat="48.48196" lon="2.7152">
        <ele>47</ele>
        <time>2023-04-16T08:22:44.916Z</time>
      </trkpt>
      <trkpt lat="48.48194" lon="2.71508">
        <ele>47</ele>
        <time>2023-04-16T08:22:49.428Z</time>
      </trkpt>
      <trkpt lat="48.48191" lon="2.71497">
        <ele>47</ele>
        <time>2023-04-16T08:22:54.032Z</time>
      </trkpt>
      <trkpt lat="48.48189" lon="2.71489">
        <ele>47</ele>
        <time>2023-04-16T08:22:58.047Z</time>
      </trkpt>
      <trkpt lat="48.48186" lon="2.71479">
        <ele>47</ele>
        <time>2023-04-16T08:23:02.568Z</time>
      </trkpt>
      <trkpt lat="48.48183" lon="2.71472">
        <ele>47</ele>
        <time>2023-04-16T08:23:06.662Z</time>
      </trkpt>
      <trkpt lat="48.4818" lon="2.71465">
        <ele>50</ele>
        <time>2023-04-16T08:23:11.268Z</time>
      </trkpt>
      <trkpt lat="48.48177" lon="2.71457">
        <ele>50</ele>
        <time>2023-04-16T08:23:15.274Z</time>
      </trkpt>
      <trkpt lat="48.48175" lon="2.71449">
        <ele>50</ele>
        <time>2023-04-16T08:23:19.278Z</time>
      </trkpt>
      <trkpt lat="48.48175" lon="2.71439">
        <ele>50</ele>
        <time>2023-04-16T08:23:23.782Z</time>
      </trkpt>
      <trkpt lat="48.48175" lon="2.71431">
        <ele>50</ele>
        <time>2023-04-16T08:23:27.803Z</time>
      </trkpt>
      <trkpt lat="48.48172" lon="2.71422">
        <ele>49</ele>
        <time>2023-04-16T08:23:31.904Z</time>
      </trkpt>
      <trkpt lat="48.48171" lon="2.71415">
        <ele>49</ele>
        <time>2023-04-16T08:23:35.906Z</time>
      </trkpt>
      <trkpt lat="48.48167" lon="2.71406">
        <ele>49</ele>
        <time>2023-04-16T08:23:40.509Z</time>
      </trkpt>
      <trkpt lat="48.48164" lon="2.71399">
        <ele>48</ele>
        <time>2023-04-16T08:23:44.513Z</time>
      </trkpt>
      <trkpt lat="48.48162" lon="2.7139">
        <ele>48</ele>
        <time>2023-04-16T08:23:48.654Z</time>
      </trkpt>
      <trkpt lat="48.4816" lon="2.7138">
        <ele>48</ele>
        <time>2023-04-16T08:23:53.663Z</time>
      </trkpt>
      <trkpt lat="48.48159" lon="2.7137">
        <ele>49</ele>
        <time>2023-04-16T08:23:58.701Z</time>
      </trkpt>
      <trkpt lat="48.4816" lon="2.71357">
        <ele>49</ele>
        <time>2023-04-16T08:24:03.722Z</time>
      </trkpt>
      <trkpt lat="48.48156" lon="2.71342">
        <ele>49</ele>
        <time>2023-04-16T08:24:09.139Z</time>
      </trkpt>
      <trkpt lat="48.48154" lon="2.71337">
        <ele>49</ele>
        <time>2023-04-16T08:24:12.756Z</time>
      </trkpt>
      <trkpt lat="48.48157" lon="2.71324">
        <ele>49</ele>
        <time>2023-04-16T08:24:16.764Z</time>
      </trkpt>
      <trkpt lat="48.48156" lon="2.71315">
        <ele>49</ele>
        <time>2023-04-16T08:24:21.371Z</time>
      </trkpt>
      <trkpt lat="48.48156" lon="2.71306">
        <ele>49</ele>
        <time>2023-04-16T08:24:25.879Z</time>
      </trkpt>
      <trkpt lat="48.48153" lon="2.71298">
        <ele>50</ele>
        <time>2023-04-16T08:24:29.888Z</time>
      </trkpt>
      <trkpt lat="48.4815" lon="2.71288">
        <ele>49</ele>
        <time>2023-04-16T08:24:34.896Z</time>
      </trkpt>
      <trkpt lat="48.48148" lon="2.71278">
        <ele>49</ele>
        <time>2023-04-16T08:24:38.901Z</time>
      </trkpt>
      <trkpt lat="48.48147" lon="2.71266">
        <ele>49</ele>
        <time>2023-04-16T08:24:43.908Z</time>
      </trkpt>
      <trkpt lat="48.48145" lon="2.71255">
        <ele>48</ele>
        <time>2023-04-16T08:24:48.414Z</time>
      </trkpt>
      <trkpt lat="48.48144" lon="2.71247">
        <ele>48</ele>
        <time>2023-04-16T08:24:52.419Z</time>
      </trkpt>
      <trkpt lat="48.48144" lon="2.71237">
        <ele>48</ele>
        <time>2023-04-16T08:24:56.923Z</time>
      </trkpt>
      <trkpt lat="48.48144" lon="2.71229">
        <ele>47</ele>
        <time>2023-04-16T08:25:00.928Z</time>
      </trkpt>
      <trkpt lat="48.4814" lon="2.71222">
        <ele>47</ele>
        <time>2023-04-16T08:25:05.035Z</time>
      </trkpt>
      <trkpt lat="48.4814" lon="2.7121">
        <ele>47</ele>
        <time>2023-04-16T08:25:09.539Z</time>
      </trkpt>
      <trkpt lat="48.48139" lon="2.71201">
        <ele>47</ele>
        <time>2023-04-16T08:25:13.543Z</time>
      </trkpt>
      <trkpt lat="48.48139" lon="2.71192">
        <ele>47</ele>
        <time>2023-04-16T08:25:18.045Z</time>
      </trkpt>
      <trkpt lat="48.48138" lon="2.71184">
        <ele>47</ele>
        <time>2023-04-16T08:25:21.747Z</time>
      </trkpt>
      <trkpt lat="48.48138" lon="2.71175">
        <ele>47</ele>
        <time>2023-04-16T08:25:26.289Z</time>
      </trkpt>
      <trkpt lat="48.48138" lon="2.71167">
        <ele>47</ele>
        <time>2023-04-16T08:25:30.892Z</time>
      </trkpt>
      <trkpt lat="48.48138" lon="2.71158">
        <ele>47</ele>
        <time>2023-04-16T08:25:35.395Z</time>
      </trkpt>
      <trkpt lat="48.48137" lon="2.7115">
        <ele>49</ele>
        <time>2023-04-16T08:25:39.397Z</time>
      </trkpt>
      <trkpt lat="48.48137" lon="2.7114">
        <ele>49</ele>
        <time>2023-04-16T08:25:43.401Z</time>
      </trkpt>
      <trkpt lat="48.48134" lon="2.71132">
        <ele>49</ele>
        <time>2023-04-16T08:25:47.404Z</time>
      </trkpt>
      <trkpt lat="48.48132" lon="2.71123">
        <ele>50</ele>
        <time>2023-04-16T08:25:51.426Z</time>
      </trkpt>
      <trkpt lat="48.48131" lon="2.71115">
        <ele>50</ele>
        <time>2023-04-16T08:25:55.487Z</time>
      </trkpt>
      <trkpt lat="48.4813" lon="2.71106">
        <ele>50</ele>
        <time>2023-04-16T08:25:59.748Z</time>
      </trkpt>
      <trkpt lat="48.48127" lon="2.71098">
        <ele>50</ele>
        <time>2023-04-16T08:26:04.271Z</time>
      </trkpt>
      <trkpt lat="48.48126" lon="2.71088">
        <ele>50</ele>
        <time>2023-04-16T08:26:08.394Z</time>
      </trkpt>
      <trkpt lat="48.48124" lon="2.71079">
        <ele>50</ele>
        <time>2023-04-16T08:26:12.397Z</time>
      </trkpt>
      <trkpt lat="48.48123" lon="2.7107">
        <ele>50</ele>
        <time>2023-04-16T08:26:16.898Z</time>
      </trkpt>
      <trkpt lat="48.48122" lon="2.71061">
        <ele>51</ele>
        <time>2023-04-16T08:26:21.099Z</time>
      </trkpt>
      <trkpt lat="48.4812" lon="2.71052">
        <ele>51</ele>
        <time>2023-04-16T08:26:25.379Z</time>
      </trkpt>
      <trkpt lat="48.4812" lon="2.71043">
        <ele>51</ele>
        <time>2023-04-16T08:26:29.881Z</time>
      </trkpt>
      <trkpt lat="48.48118" lon="2.71032">
        <ele>51</ele>
        <time>2023-04-16T08:26:34.483Z</time>
      </trkpt>
      <trkpt lat="48.48115" lon="2.71023">
        <ele>51</ele>
        <time>2023-04-16T08:26:38.703Z</time>
      </trkpt>
      <trkpt lat="48.48114" lon="2.71018">
        <ele>51</ele>
        <time>2023-04-16T08:26:41.706Z</time>
      </trkpt>
      <trkpt lat="48.48111" lon="2.71008">
        <ele>51</ele>
        <time>2023-04-16T08:26:47.727Z</time>
      </trkpt>
      <trkpt lat="48.48111" lon="2.70993">
        <ele>51</ele>
        <time>2023-04-16T08:26:52.746Z</time>
      </trkpt>
      <trkpt lat="48.48105" lon="2.70983">
        <ele>50</ele>
        <time>2023-04-16T08:26:56.752Z</time>
      </trkpt>
      <trkpt lat="48.48102" lon="2.70978">
        <ele>50</ele>
        <time>2023-04-16T08:27:01.357Z</time>
      </trkpt>
      <trkpt lat="48.48099" lon="2.70971">
        <ele>50</ele>
        <time>2023-04-16T08:27:05.361Z</time>
      </trkpt>
      <trkpt lat="48.48097" lon="2.70963">
        <ele>51</ele>
        <time>2023-04-16T08:27:09.868Z</time>
      </trkpt>
      <trkpt lat="48.48096" lon="2.70953">
        <ele>50</ele>
        <time>2023-04-16T08:27:13.873Z</time>
      </trkpt>
      <trkpt lat="48.48097" lon="2.70945">
        <ele>50</ele>
        <time>2023-04-16T08:27:18.377Z</time>
      </trkpt>
      <trkpt lat="48.481" lon="2.7094">
        <ele>49</ele>
        <time>2023-04-16T08:27:22.380Z</time>
      </trkpt>
      <trkpt lat="48.48106" lon="2.70941">
        <ele>49</ele>
        <time>2023-04-16T08:27:26.381Z</time>
      </trkpt>
      <trkpt lat="48.48112" lon="2.70944">
        <ele>49</ele>
        <time>2023-04-16T08:27:30.403Z</time>
      </trkpt>
      <trkpt lat="48.48119" lon="2.70944">
        <ele>49</ele>
        <time>2023-04-16T08:27:34.925Z</time>
      </trkpt>
      <trkpt lat="48.48126" lon="2.70943">
        <ele>49</ele>
        <time>2023-04-16T08:27:39.427Z</time>
      </trkpt>
      <trkpt lat="48.4813" lon="2.70938">
        <ele>49</ele>
        <time>2023-04-16T08:27:43.429Z</time>
      </trkpt>
      <trkpt lat="48.48136" lon="2.70934">
        <ele>49</ele>
        <time>2023-04-16T08:27:47.432Z</time>
      </trkpt>
      <trkpt lat="48.48143" lon="2.70934">
        <ele>49</ele>
        <time>2023-04-16T08:27:51.455Z</time>
      </trkpt>
      <trkpt lat="48.4815" lon="2.70933">
        <ele>49</ele>
        <time>2023-04-16T08:27:56.192Z</time>
      </trkpt>
      <trkpt lat="48.48159" lon="2.7093">
        <ele>49</ele>
        <time>2023-04-16T08:28:00.735Z</time>
      </trkpt>
      <trkpt lat="48.48165" lon="2.70928">
        <ele>49</ele>
        <time>2023-04-16T08:28:04.614Z</time>
      </trkpt>
      <trkpt lat="48.48172" lon="2.70921">
        <ele>49</ele>
        <time>2023-04-16T08:28:09.174Z</time>
      </trkpt>
      <trkpt lat="48.48174" lon="2.7091">
        <ele>49</ele>
        <time>2023-04-16T08:28:12.858Z</time>
      </trkpt>
      <trkpt lat="48.48176" lon="2.70897">
        <ele>48</ele>
        <time>2023-04-16T08:28:18.118Z</time>
      </trkpt>
      <trkpt lat="48.48175" lon="2.70886">
        <ele>48</ele>
        <time>2023-04-16T08:28:22.740Z</time>
      </trkpt>
      <trkpt lat="48.48174" lon="2.70877">
        <ele>48</ele>
        <time>2023-04-16T08:28:26.743Z</time>
      </trkpt>
      <trkpt lat="48.48174" lon="2.70869">
        <ele>46</ele>
        <time>2023-04-16T08:28:30.746Z</time>
      </trkpt>
      <trkpt lat="48.48171" lon="2.70861">
        <ele>46</ele>
        <time>2023-04-16T08:28:34.749Z</time>
      </trkpt>
      <trkpt lat="48.48167" lon="2.70853">
        <ele>46</ele>
        <time>2023-04-16T08:28:38.752Z</time>
      </trkpt>
      <trkpt lat="48.48163" lon="2.70839">
        <ele>44</ele>
        <time>2023-04-16T08:28:43.754Z</time>
      </trkpt>
      <trkpt lat="48.48161" lon="2.70829">
        <ele>44</ele>
        <time>2023-04-16T08:28:48.283Z</time>
      </trkpt>
      <trkpt lat="48.4816" lon="2.70821">
        <ele>44</ele>
        <time>2023-04-16T08:28:52.790Z</time>
      </trkpt>
      <trkpt lat="48.4816" lon="2.70812">
        <ele>43</ele>
        <time>2023-04-16T08:28:57.294Z</time>
      </trkpt>
      <trkpt lat="48.48161" lon="2.70803">
        <ele>43</ele>
        <time>2023-04-16T08:29:01.798Z</time>
      </trkpt>
      <trkpt lat="48.4816" lon="2.70794">
        <ele>43</ele>
        <time>2023-04-16T08:29:05.801Z</time>
      </trkpt>
      <trkpt lat="48.48156" lon="2.70786">
        <ele>43</ele>
        <time>2023-04-16T08:29:09.804Z</time>
      </trkpt>
      <trkpt lat="48.48155" lon="2.70777">
        <ele>43</ele>
        <time>2023-04-16T08:29:14.309Z</time>
      </trkpt>
      <trkpt lat="48.48156" lon="2.70767">
        <ele>43</ele>
        <time>2023-04-16T08:29:18.913Z</time>
      </trkpt>
      <trkpt lat="48.48154" lon="2.70759">
        <ele>43</ele>
        <time>2023-04-16T08:29:23.418Z</time>
      </trkpt>
      <trkpt lat="48.48151" lon="2.70751">
        <ele>45</ele>
        <time>2023-04-16T08:29:27.422Z</time>
      </trkpt>
      <trkpt lat="48.48152" lon="2.7074">
        <ele>45</ele>
        <time>2023-04-16T08:29:31.425Z</time>
      </trkpt>
      <trkpt lat="48.4815" lon="2.7073">
        <ele>46</ele>
        <time>2023-04-16T08:29:35.990Z</time>
      </trkpt>
      <trkpt lat="48.48148" lon="2.70722">
        <ele>46</ele>
        <time>2023-04-16T08:29:40.033Z</time>
      </trkpt>
      <trkpt lat="48.48146" lon="2.70716">
        <ele>46</ele>
        <time>2023-04-16T08:29:44.308Z</time>
      </trkpt>
      <trkpt lat="48.48144" lon="2.70707">
        <ele>46</ele>
        <time>2023-04-16T08:29:48.339Z</time>
      </trkpt>
      <trkpt lat="48.48143" lon="2.70698">
        <ele>46</ele>
        <time>2023-04-16T08:29:52.542Z</time>
      </trkpt>
      <trkpt lat="48.48141" lon="2.70688">
        <ele>46</ele>
        <time>2023-04-16T08:29:56.644Z</time>
      </trkpt>
      <trkpt lat="48.4814" lon="2.7068">
        <ele>46</ele>
        <time>2023-04-16T08:30:00.746Z</time>
      </trkpt>
      <trkpt lat="48.48142" lon="2.70672">
        <ele>46</ele>
        <time>2023-04-16T08:30:05.446Z</time>
      </trkpt>
      <trkpt lat="48.48143" lon="2.70665">
        <ele>46</ele>
        <time>2023-04-16T08:30:09.687Z</time>
      </trkpt>
      <trkpt lat="48.48144" lon="2.70661">
        <ele>46</ele>
        <time>2023-04-16T08:30:14.179Z</time>
      </trkpt>
      <trkpt lat="48.48146" lon="2.70656">
        <ele>46</ele>
        <time>2023-04-16T08:30:18.754Z</time>
      </trkpt>
      <trkpt lat="48.48144" lon="2.70653">
        <ele>46</ele>
        <time>2023-04-16T08:30:23.778Z</time>
      </trkpt>
      <trkpt lat="48.48147" lon="2.70652">
        <ele>45</ele>
        <time>2023-04-16T08:30:28.301Z</time>
      </trkpt>
      <trkpt lat="48.48149" lon="2.70652">
        <ele>45</ele>
        <time>2023-04-16T08:30:32.824Z</time>
      </trkpt>
      <trkpt lat="48.48154" lon="2.70648">
        <ele>42</ele>
        <time>2023-04-16T08:30:36.844Z</time>
      </trkpt>
      <trkpt lat="48.48161" lon="2.70634">
        <ele>42</ele>
        <time>2023-04-16T08:30:41.866Z</time>
      </trkpt>
      <trkpt lat="48.48171" lon="2.70633">
        <ele>42</ele>
        <time>2023-04-16T08:30:46.887Z</time>
      </trkpt>
      <trkpt lat="48.48175" lon="2.70631">
        <ele>42</ele>
        <time>2023-04-16T08:30:50.903Z</time>
      </trkpt>
      <trkpt lat="48.48179" lon="2.70628">
        <ele>42</ele>
        <time>2023-04-16T08:30:55.923Z</time>
      </trkpt>
      <trkpt lat="48.4818" lon="2.70626">
        <ele>42</ele>
        <time>2023-04-16T08:31:00.446Z</time>
      </trkpt>
      <trkpt lat="48.48186" lon="2.70622">
        <ele>40</ele>
        <time>2023-04-16T08:31:04.968Z</time>
      </trkpt>
      <trkpt lat="48.48195" lon="2.70617">
        <ele>40</ele>
        <time>2023-04-16T08:31:09.991Z</time>
      </trkpt>
      <trkpt lat="48.48202" lon="2.70614">
        <ele>40</ele>
        <time>2023-04-16T08:31:14.010Z</time>
      </trkpt>
      <trkpt lat="48.48209" lon="2.70611">
        <ele>40</ele>
        <time>2023-04-16T08:31:18.050Z</time>
      </trkpt>
      <trkpt lat="48.48214" lon="2.70607">
        <ele>40</ele>
        <time>2023-04-16T08:31:22.068Z</time>
      </trkpt>
      <trkpt lat="48.48218" lon="2.70603">
        <ele>40</ele>
        <time>2023-04-16T08:31:26.079Z</time>
      </trkpt>
      <trkpt lat="48.48222" lon="2.70601">
        <ele>40</ele>
        <time>2023-04-16T08:31:30.588Z</time>
      </trkpt>
      <trkpt lat="48.4823" lon="2.706">
        <ele>40</ele>
        <time>2023-04-16T08:31:34.596Z</time>
      </trkpt>
      <trkpt lat="48.48235" lon="2.70598">
        <ele>40</ele>
        <time>2023-04-16T08:31:39.106Z</time>
      </trkpt>
      <trkpt lat="48.48235" lon="2.70596">
        <ele>40</ele>
        <time>2023-04-16T08:31:43.116Z</time>
      </trkpt>
      <trkpt lat="48.48237" lon="2.70596">
        <ele>41</ele>
        <time>2023-04-16T08:31:44.619Z</time>
      </trkpt>
      <trkpt lat="48.48243" lon="2.70593">
        <ele>41</ele>
        <time>2023-04-16T08:31:54.164Z</time>
      </trkpt>
      <trkpt lat="48.48249" lon="2.70589">
        <ele>41</ele>
        <time>2023-04-16T08:31:58.191Z</time>
      </trkpt>
      <trkpt lat="48.48255" lon="2.70587">
        <ele>41</ele>
        <time>2023-04-16T08:32:02.708Z</time>
      </trkpt>
      <trkpt lat="48.48262" lon="2.70583">
        <ele>41</ele>
        <time>2023-04-16T08:32:06.722Z</time>
      </trkpt>
      <trkpt lat="48.48268" lon="2.70579">
        <ele>42</ele>
        <time>2023-04-16T08:32:11.234Z</time>
      </trkpt>
      <trkpt lat="48.48273" lon="2.70575">
        <ele>42</ele>
        <time>2023-04-16T08:32:15.744Z</time>
      </trkpt>
      <trkpt lat="48.48278" lon="2.70572">
        <ele>42</ele>
        <time>2023-04-16T08:32:19.751Z</time>
      </trkpt>
      <trkpt lat="48.48284" lon="2.70569">
        <ele>42</ele>
        <time>2023-04-16T08:32:24.264Z</time>
      </trkpt>
      <trkpt lat="48.48288" lon="2.70569">
        <ele>42</ele>
        <time>2023-04-16T08:32:28.273Z</time>
      </trkpt>
      <trkpt lat="48.48294" lon="2.70568">
        <ele>41</ele>
        <time>2023-04-16T08:32:32.782Z</time>
      </trkpt>
      <trkpt lat="48.483" lon="2.70564">
        <ele>41</ele>
        <time>2023-04-16T08:32:37.287Z</time>
      </trkpt>
      <trkpt lat="48.48306" lon="2.7056">
        <ele>41</ele>
        <time>2023-04-16T08:32:41.294Z</time>
      </trkpt>
      <trkpt lat="48.48312" lon="2.70556">
        <ele>41</ele>
        <time>2023-04-16T08:32:45.800Z</time>
      </trkpt>
      <trkpt lat="48.48318" lon="2.70554">
        <ele>41</ele>
        <time>2023-04-16T08:32:49.804Z</time>
      </trkpt>
      <trkpt lat="48.48325" lon="2.7055">
        <ele>41</ele>
        <time>2023-04-16T08:32:54.910Z</time>
      </trkpt>
      <trkpt lat="48.48329" lon="2.70546">
        <ele>41</ele>
        <time>2023-04-16T08:32:58.915Z</time>
      </trkpt>
      <trkpt lat="48.48334" lon="2.70544">
        <ele>41</ele>
        <time>2023-04-16T08:33:03.420Z</time>
      </trkpt>
      <trkpt lat="48.48339" lon="2.70543">
        <ele>41</ele>
        <time>2023-04-16T08:33:07.926Z</time>
      </trkpt>
      <trkpt lat="48.48342" lon="2.70553">
        <ele>41</ele>
        <time>2023-04-16T08:33:12.630Z</time>
      </trkpt>
      <trkpt lat="48.48346" lon="2.70557">
        <ele>41</ele>
        <time>2023-04-16T08:33:16.746Z</time>
      </trkpt>
      <trkpt lat="48.48352" lon="2.70553">
        <ele>41</ele>
        <time>2023-04-16T08:33:21.249Z</time>
      </trkpt>
      <trkpt lat="48.48356" lon="2.70545">
        <ele>41</ele>
        <time>2023-04-16T08:33:25.753Z</time>
      </trkpt>
      <trkpt lat="48.48352" lon="2.70536">
        <ele>40</ele>
        <time>2023-04-16T08:33:30.256Z</time>
      </trkpt>
      <trkpt lat="48.48345" lon="2.70535">
        <ele>40</ele>
        <time>2023-04-16T08:33:34.259Z</time>
      </trkpt>
      <trkpt lat="48.4834" lon="2.70541">
        <ele>40</ele>
        <time>2023-04-16T08:33:38.764Z</time>
      </trkpt>
      <trkpt lat="48.48341" lon="2.7055">
        <ele>41</ele>
        <time>2023-04-16T08:33:42.868Z</time>
      </trkpt>
      <trkpt lat="48.48343" lon="2.7056">
        <ele>41</ele>
        <time>2023-04-16T08:33:47.373Z</time>
      </trkpt>
      <trkpt lat="48.48345" lon="2.70567">
        <ele>41</ele>
        <time>2023-04-16T08:33:51.376Z</time>
      </trkpt>
      <trkpt lat="48.48344" lon="2.70574">
        <ele>42</ele>
        <time>2023-04-16T08:33:55.899Z</time>
      </trkpt>
      <trkpt lat="48.48344" lon="2.70584">
        <ele>42</ele>
        <time>2023-04-16T08:34:00.521Z</time>
      </trkpt>
      <trkpt lat="48.48349" lon="2.70583">
        <ele>42</ele>
        <time>2023-04-16T08:34:04.762Z</time>
      </trkpt>
      <trkpt lat="48.48355" lon="2.70577">
        <ele>42</ele>
        <time>2023-04-16T08:34:09.284Z</time>
      </trkpt>
      <trkpt lat="48.48359" lon="2.70568">
        <ele>41</ele>
        <time>2023-04-16T08:34:13.847Z</time>
      </trkpt>
      <trkpt lat="48.48361" lon="2.70561">
        <ele>41</ele>
        <time>2023-04-16T08:34:17.969Z</time>
      </trkpt>
      <trkpt lat="48.48363" lon="2.70553">
        <ele>41</ele>
        <time>2023-04-16T08:34:21.972Z</time>
      </trkpt>
      <trkpt lat="48.48365" lon="2.70546">
        <ele>41</ele>
        <time>2023-04-16T08:34:26.165Z</time>
      </trkpt>
      <trkpt lat="48.48365" lon="2.70537">
        <ele>40</ele>
        <time>2023-04-16T08:34:30.612Z</time>
      </trkpt>
      <trkpt lat="48.48366" lon="2.70527">
        <ele>40</ele>
        <time>2023-04-16T08:34:35.517Z</time>
      </trkpt>
      <trkpt lat="48.48368" lon="2.70519">
        <ele>40</ele>
        <time>2023-04-16T08:34:39.794Z</time>
      </trkpt>
      <trkpt lat="48.48368" lon="2.7051">
        <ele>40</ele>
        <time>2023-04-16T08:34:43.996Z</time>
      </trkpt>
      <trkpt lat="48.48368" lon="2.705">
        <ele>40</ele>
        <time>2023-04-16T08:34:48.216Z</time>
      </trkpt>
      <trkpt lat="48.48369" lon="2.70491">
        <ele>40</ele>
        <time>2023-04-16T08:34:52.377Z</time>
      </trkpt>
      <trkpt lat="48.48369" lon="2.70482">
        <ele>39</ele>
        <time>2023-04-16T08:34:56.439Z</time>
      </trkpt>
      <trkpt lat="48.48367" lon="2.70472">
        <ele>39</ele>
        <time>2023-04-16T08:35:00.981Z</time>
      </trkpt>
      <trkpt lat="48.48362" lon="2.70464">
        <ele>39</ele>
        <time>2023-04-16T08:35:06.123Z</time>
      </trkpt>
      <trkpt lat="48.48359" lon="2.70464">
        <ele>39</ele>
        <time>2023-04-16T08:35:10.765Z</time>
      </trkpt>
      <trkpt lat="48.48356" lon="2.70461">
        <ele>39</ele>
        <time>2023-04-16T08:35:15.827Z</time>
      </trkpt>
      <trkpt lat="48.4835" lon="2.70459">
        <ele>39</ele>
        <time>2023-04-16T08:35:19.829Z</time>
      </trkpt>
      <trkpt lat="48.48346" lon="2.70461">
        <ele>39</ele>
        <time>2023-04-16T08:35:23.930Z</time>
      </trkpt>
      <trkpt lat="48.48342" lon="2.70465">
        <ele>39</ele>
        <time>2023-04-16T08:35:27.972Z</time>
      </trkpt>
      <trkpt lat="48.48336" lon="2.7047">
        <ele>39</ele>
        <time>2023-04-16T08:35:32.573Z</time>
      </trkpt>
      <trkpt lat="48.4833" lon="2.70475">
        <ele>39</ele>
        <time>2023-04-16T08:35:37.076Z</time>
      </trkpt>
      <trkpt lat="48.48323" lon="2.70481">
        <ele>39</ele>
        <time>2023-04-16T08:35:41.638Z</time>
      </trkpt>
      <trkpt lat="48.48317" lon="2.70483">
        <ele>39</ele>
        <time>2023-04-16T08:35:45.259Z</time>
      </trkpt>
      <trkpt lat="48.48311" lon="2.70479">
        <ele>39</ele>
        <time>2023-04-16T08:35:49.841Z</time>
      </trkpt>
      <trkpt lat="48.48303" lon="2.70474">
        <ele>39</ele>
        <time>2023-04-16T08:35:54.842Z</time>
      </trkpt>
      <trkpt lat="48.48298" lon="2.70471">
        <ele>39</ele>
        <time>2023-04-16T08:35:58.844Z</time>
      </trkpt>
      <trkpt lat="48.48293" lon="2.70466">
        <ele>39</ele>
        <time>2023-04-16T08:36:03.347Z</time>
      </trkpt>
      <trkpt lat="48.48288" lon="2.7046">
        <ele>40</ele>
        <time>2023-04-16T08:36:07.852Z</time>
      </trkpt>
      <trkpt lat="48.48286" lon="2.70453">
        <ele>40</ele>
        <time>2023-04-16T08:36:11.857Z</time>
      </trkpt>
      <trkpt lat="48.48285" lon="2.70445">
        <ele>40</ele>
        <time>2023-04-16T08:36:16.361Z</time>
      </trkpt>
      <trkpt lat="48.48281" lon="2.70436">
        <ele>40</ele>
        <time>2023-04-16T08:36:20.867Z</time>
      </trkpt>
      <trkpt lat="48.48277" lon="2.70425">
        <ele>39</ele>
        <time>2023-04-16T08:36:25.370Z</time>
      </trkpt>
      <trkpt lat="48.48275" lon="2.70416">
        <ele>39</ele>
        <time>2023-04-16T08:36:29.372Z</time>
      </trkpt>
      <trkpt lat="48.48273" lon="2.70408">
        <ele>39</ele>
        <time>2023-04-16T08:36:33.553Z</time>
      </trkpt>
      <trkpt lat="48.48269" lon="2.70403">
        <ele>39</ele>
        <time>2023-04-16T08:36:37.575Z</time>
      </trkpt>
      <trkpt lat="48.4827" lon="2.70394">
        <ele>40</ele>
        <time>2023-04-16T08:36:41.578Z</time>
      </trkpt>
      <trkpt lat="48.4827" lon="2.70384">
        <ele>40</ele>
        <time>2023-04-16T08:36:46.160Z</time>
      </trkpt>
      <trkpt lat="48.4827" lon="2.70375">
        <ele>40</ele>
        <time>2023-04-16T08:36:50.202Z</time>
      </trkpt>
      <trkpt lat="48.48268" lon="2.70366">
        <ele>41</ele>
        <time>2023-04-16T08:36:54.705Z</time>
      </trkpt>
      <trkpt lat="48.48268" lon="2.70356">
        <ele>41</ele>
        <time>2023-04-16T08:36:58.809Z</time>
      </trkpt>
      <trkpt lat="48.48266" lon="2.70346">
        <ele>41</ele>
        <time>2023-04-16T08:37:02.512Z</time>
      </trkpt>
      <trkpt lat="48.48266" lon="2.70337">
        <ele>41</ele>
        <time>2023-04-16T08:37:07.029Z</time>
      </trkpt>
      <trkpt lat="48.48265" lon="2.70327">
        <ele>41</ele>
        <time>2023-04-16T08:37:11.118Z</time>
      </trkpt>
      <trkpt lat="48.48263" lon="2.70317">
        <ele>39</ele>
        <time>2023-04-16T08:37:15.200Z</time>
      </trkpt>
      <trkpt lat="48.4826" lon="2.70305">
        <ele>39</ele>
        <time>2023-04-16T08:37:19.705Z</time>
      </trkpt>
      <trkpt lat="48.48256" lon="2.70296">
        <ele>39</ele>
        <time>2023-04-16T08:37:24.210Z</time>
      </trkpt>
      <trkpt lat="48.48253" lon="2.70288">
        <ele>40</ele>
        <time>2023-04-16T08:37:28.213Z</time>
      </trkpt>
      <trkpt lat="48.4825" lon="2.70283">
        <ele>40</ele>
        <time>2023-04-16T08:37:32.736Z</time>
      </trkpt>
      <trkpt lat="48.48246" lon="2.70278">
        <ele>40</ele>
        <time>2023-04-16T08:37:36.740Z</time>
      </trkpt>
      <trkpt lat="48.48242" lon="2.70272">
        <ele>40</ele>
        <time>2023-04-16T08:37:41.243Z</time>
      </trkpt>
      <trkpt lat="48.4824" lon="2.70265">
        <ele>40</ele>
        <time>2023-04-16T08:37:45.365Z</time>
      </trkpt>
      <trkpt lat="48.48238" lon="2.70258">
        <ele>41</ele>
        <time>2023-04-16T08:37:49.586Z</time>
      </trkpt>
      <trkpt lat="48.48238" lon="2.70248">
        <ele>41</ele>
        <time>2023-04-16T08:37:53.688Z</time>
      </trkpt>
      <trkpt lat="48.48238" lon="2.70239">
        <ele>41</ele>
        <time>2023-04-16T08:37:57.889Z</time>
      </trkpt>
      <trkpt lat="48.48236" lon="2.7023">
        <ele>42</ele>
        <time>2023-04-16T08:38:02.090Z</time>
      </trkpt>
      <trkpt lat="48.48235" lon="2.7022">
        <ele>41</ele>
        <time>2023-04-16T08:38:07.113Z</time>
      </trkpt>
      <trkpt lat="48.48232" lon="2.7021">
        <ele>41</ele>
        <time>2023-04-16T08:38:12.118Z</time>
      </trkpt>
      <trkpt lat="48.48232" lon="2.70201">
        <ele>41</ele>
        <time>2023-04-16T08:38:16.124Z</time>
      </trkpt>
      <trkpt lat="48.48233" lon="2.70192">
        <ele>41</ele>
        <time>2023-04-16T08:38:20.128Z</time>
      </trkpt>
      <trkpt lat="48.48234" lon="2.70183">
        <ele>41</ele>
        <time>2023-04-16T08:38:24.310Z</time>
      </trkpt>
      <trkpt lat="48.48234" lon="2.70173">
        <ele>40</ele>
        <time>2023-04-16T08:38:28.332Z</time>
      </trkpt>
      <trkpt lat="48.48231" lon="2.70162">
        <ele>40</ele>
        <time>2023-04-16T08:38:32.924Z</time>
      </trkpt>
      <trkpt lat="48.48219" lon="2.7014">
        <ele>40</ele>
        <time>2023-04-16T08:38:48.483Z</time>
      </trkpt>
      <trkpt lat="48.48219" lon="2.70124">
        <ele>40</ele>
        <time>2023-04-16T08:38:52.995Z</time>
      </trkpt>
      <trkpt lat="48.48218" lon="2.70115">
        <ele>40</ele>
        <time>2023-04-16T08:38:57.001Z</time>
      </trkpt>
      <trkpt lat="48.48217" lon="2.70107">
        <ele>40</ele>
        <time>2023-04-16T08:39:01.007Z</time>
      </trkpt>
      <trkpt lat="48.48218" lon="2.70097">
        <ele>40</ele>
        <time>2023-04-16T08:39:05.515Z</time>
      </trkpt>
      <trkpt lat="48.48219" lon="2.70091">
        <ele>40</ele>
        <time>2023-04-16T08:39:09.524Z</time>
      </trkpt>
      <trkpt lat="48.48219" lon="2.70086">
        <ele>40</ele>
        <time>2023-04-16T08:39:14.032Z</time>
      </trkpt>
      <trkpt lat="48.48217" lon="2.70079">
        <ele>40</ele>
        <time>2023-04-16T08:39:18.038Z</time>
      </trkpt>
      <trkpt lat="48.48216" lon="2.70068">
        <ele>41</ele>
        <time>2023-04-16T08:39:22.545Z</time>
      </trkpt>
      <trkpt lat="48.48216" lon="2.70056">
        <ele>41</ele>
        <time>2023-04-16T08:39:27.151Z</time>
      </trkpt>
      <trkpt lat="48.48216" lon="2.70044">
        <ele>41</ele>
        <time>2023-04-16T08:39:31.756Z</time>
      </trkpt>
      <trkpt lat="48.48217" lon="2.70034">
        <ele>42</ele>
        <time>2023-04-16T08:39:35.860Z</time>
      </trkpt>
      <trkpt lat="48.48215" lon="2.70023">
        <ele>42</ele>
        <time>2023-04-16T08:39:40.366Z</time>
      </trkpt>
      <trkpt lat="48.48214" lon="2.70013">
        <ele>42</ele>
        <time>2023-04-16T08:39:44.668Z</time>
      </trkpt>
      <trkpt lat="48.48215" lon="2.70006">
        <ele>42</ele>
        <time>2023-04-16T08:39:48.809Z</time>
      </trkpt>
      <trkpt lat="48.48216" lon="2.7">
        <ele>42</ele>
        <time>2023-04-16T08:39:53.371Z</time>
      </trkpt>
      <trkpt lat="48.48214" lon="2.69995">
        <ele>42</ele>
        <time>2023-04-16T08:39:56.894Z</time>
      </trkpt>
      <trkpt lat="48.4821" lon="2.69994">
        <ele>42</ele>
        <time>2023-04-16T08:40:02.417Z</time>
      </trkpt>
      <trkpt lat="48.48209" lon="2.69981">
        <ele>42</ele>
        <time>2023-04-16T08:40:07.055Z</time>
      </trkpt>
      <trkpt lat="48.48208" lon="2.69967">
        <ele>41</ele>
        <time>2023-04-16T08:40:12.071Z</time>
      </trkpt>
      <trkpt lat="48.48206" lon="2.69957">
        <ele>41</ele>
        <time>2023-04-16T08:40:17.082Z</time>
      </trkpt>
      <trkpt lat="48.48207" lon="2.69948">
        <ele>41</ele>
        <time>2023-04-16T08:40:21.591Z</time>
      </trkpt>
      <trkpt lat="48.48207" lon="2.69937">
        <ele>41</ele>
        <time>2023-04-16T08:40:26.097Z</time>
      </trkpt>
      <trkpt lat="48.48208" lon="2.69928">
        <ele>41</ele>
        <time>2023-04-16T08:40:30.105Z</time>
      </trkpt>
      <trkpt lat="48.48207" lon="2.69918">
        <ele>41</ele>
        <time>2023-04-16T08:40:34.112Z</time>
      </trkpt>
      <trkpt lat="48.48205" lon="2.69907">
        <ele>41</ele>
        <time>2023-04-16T08:40:39.119Z</time>
      </trkpt>
      <trkpt lat="48.48203" lon="2.69901">
        <ele>42</ele>
        <time>2023-04-16T08:40:43.124Z</time>
      </trkpt>
      <trkpt lat="48.48202" lon="2.69896">
        <ele>42</ele>
        <time>2023-04-16T08:40:47.629Z</time>
      </trkpt>
      <trkpt lat="48.48201" lon="2.69888">
        <ele>42</ele>
        <time>2023-04-16T08:40:52.134Z</time>
      </trkpt>
      <trkpt lat="48.482" lon="2.69879">
        <ele>42</ele>
        <time>2023-04-16T08:40:56.740Z</time>
      </trkpt>
      <trkpt lat="48.48199" lon="2.69872">
        <ele>42</ele>
        <time>2023-04-16T08:41:00.762Z</time>
      </trkpt>
      <trkpt lat="48.48199" lon="2.69861">
        <ele>42</ele>
        <time>2023-04-16T08:41:05.766Z</time>
      </trkpt>
      <trkpt lat="48.48199" lon="2.69853">
        <ele>42</ele>
        <time>2023-04-16T08:41:10.271Z</time>
      </trkpt>
      <trkpt lat="48.48198" lon="2.69843">
        <ele>40</ele>
        <time>2023-04-16T08:41:14.333Z</time>
      </trkpt>
      <trkpt lat="48.48198" lon="2.69833">
        <ele>40</ele>
        <time>2023-04-16T08:41:18.335Z</time>
      </trkpt>
      <trkpt lat="48.48197" lon="2.69824">
        <ele>40</ele>
        <time>2023-04-16T08:41:22.477Z</time>
      </trkpt>
      <trkpt lat="48.48198" lon="2.69814">
        <ele>40</ele>
        <time>2023-04-16T08:41:27.139Z</time>
      </trkpt>
      <trkpt lat="48.48199" lon="2.69807">
        <ele>40</ele>
        <time>2023-04-16T08:41:31.168Z</time>
      </trkpt>
      <trkpt lat="48.48198" lon="2.69801">
        <ele>40</ele>
        <time>2023-04-16T08:41:34.901Z</time>
      </trkpt>
      <trkpt lat="48.48197" lon="2.69795">
        <ele>40</ele>
        <time>2023-04-16T08:41:39.621Z</time>
      </trkpt>
      <trkpt lat="48.48196" lon="2.69786">
        <ele>41</ele>
        <time>2023-04-16T08:41:44.156Z</time>
      </trkpt>
      <trkpt lat="48.48196" lon="2.69775">
        <ele>41</ele>
        <time>2023-04-16T08:41:48.324Z</time>
      </trkpt>
      <trkpt lat="48.48196" lon="2.69759">
        <ele>41</ele>
        <time>2023-04-16T08:41:53.192Z</time>
      </trkpt>
      <trkpt lat="48.48195" lon="2.6975">
        <ele>41</ele>
        <time>2023-04-16T08:41:57.388Z</time>
      </trkpt>
      <trkpt lat="48.48194" lon="2.69743">
        <ele>41</ele>
        <time>2023-04-16T08:42:01.410Z</time>
      </trkpt>
      <trkpt lat="48.48194" lon="2.69733">
        <ele>41</ele>
        <time>2023-04-16T08:42:05.991Z</time>
      </trkpt>
      <trkpt lat="48.48193" lon="2.69723">
        <ele>41</ele>
        <time>2023-04-16T08:42:10.005Z</time>
      </trkpt>
      <trkpt lat="48.48192" lon="2.69716">
        <ele>41</ele>
        <time>2023-04-16T08:42:14.007Z</time>
      </trkpt>
      <trkpt lat="48.4819" lon="2.69694">
        <ele>42</ele>
        <time>2023-04-16T08:42:23.034Z</time>
      </trkpt>
      <trkpt lat="48.48192" lon="2.69684">
        <ele>42</ele>
        <time>2023-04-16T08:42:27.640Z</time>
      </trkpt>
      <trkpt lat="48.48192" lon="2.69677">
        <ele>42</ele>
        <time>2023-04-16T08:42:31.644Z</time>
      </trkpt>
      <trkpt lat="48.48192" lon="2.69667">
        <ele>42</ele>
        <time>2023-04-16T08:42:36.210Z</time>
      </trkpt>
      <trkpt lat="48.48193" lon="2.69657">
        <ele>42</ele>
        <time>2023-04-16T08:42:40.352Z</time>
      </trkpt>
      <trkpt lat="48.48193" lon="2.69647">
        <ele>43</ele>
        <time>2023-04-16T08:42:44.457Z</time>
      </trkpt>
      <trkpt lat="48.48193" lon="2.69638">
        <ele>43</ele>
        <time>2023-04-16T08:42:48.461Z</time>
      </trkpt>
      <trkpt lat="48.48191" lon="2.69629">
        <ele>43</ele>
        <time>2023-04-16T08:42:53.063Z</time>
      </trkpt>
      <trkpt lat="48.4819" lon="2.6962">
        <ele>43</ele>
        <time>2023-04-16T08:42:57.565Z</time>
      </trkpt>
      <trkpt lat="48.48192" lon="2.69611">
        <ele>43</ele>
        <time>2023-04-16T08:43:02.325Z</time>
      </trkpt>
      <trkpt lat="48.48193" lon="2.69602">
        <ele>43</ele>
        <time>2023-04-16T08:43:07.085Z</time>
      </trkpt>
      <trkpt lat="48.48194" lon="2.69594">
        <ele>43</ele>
        <time>2023-04-16T08:43:12.147Z</time>
      </trkpt>
      <trkpt lat="48.48196" lon="2.69587">
        <ele>43</ele>
        <time>2023-04-16T08:43:16.927Z</time>
      </trkpt>
      <trkpt lat="48.48194" lon="2.69578">
        <ele>43</ele>
        <time>2023-04-16T08:43:54.141Z</time>
      </trkpt>
      <trkpt lat="48.48193" lon="2.69575">
        <ele>43</ele>
        <time>2023-04-16T08:43:59.134Z</time>
      </trkpt>
      <trkpt lat="48.48192" lon="2.69573">
        <ele>43</ele>
        <time>2023-04-16T08:44:03.153Z</time>
      </trkpt>
      <trkpt lat="48.48191" lon="2.69573">
        <ele>43</ele>
        <time>2023-04-16T08:44:08.142Z</time>
      </trkpt>
      <trkpt lat="48.4819" lon="2.69573">
        <ele>43</ele>
        <time>2023-04-16T08:44:13.141Z</time>
      </trkpt>
      <trkpt lat="48.48193" lon="2.69573">
        <ele>43</ele>
        <time>2023-04-16T08:44:32.175Z</time>
      </trkpt>
      <trkpt lat="48.48196" lon="2.69572">
        <ele>43</ele>
        <time>2023-04-16T08:44:36.172Z</time>
      </trkpt>
      <trkpt lat="48.482" lon="2.69569">
        <ele>43</ele>
        <time>2023-04-16T08:44:40.866Z</time>
      </trkpt>
      <trkpt lat="48.48207" lon="2.69572">
        <ele>43</ele>
        <time>2023-04-16T08:44:45.879Z</time>
      </trkpt>
      <trkpt lat="48.48213" lon="2.6958">
        <ele>45</ele>
        <time>2023-04-16T08:44:49.890Z</time>
      </trkpt>
      <trkpt lat="48.48217" lon="2.69582">
        <ele>45</ele>
        <time>2023-04-16T08:44:54.403Z</time>
      </trkpt>
      <trkpt lat="48.48221" lon="2.69581">
        <ele>45</ele>
        <time>2023-04-16T08:44:58.920Z</time>
      </trkpt>
      <trkpt lat="48.48225" lon="2.69582">
        <ele>45</ele>
        <time>2023-04-16T08:45:03.030Z</time>
      </trkpt>
      <trkpt lat="48.48229" lon="2.69582">
        <ele>45</ele>
        <time>2023-04-16T08:45:07.047Z</time>
      </trkpt>
      <trkpt lat="48.48235" lon="2.69583">
        <ele>45</ele>
        <time>2023-04-16T08:45:11.656Z</time>
      </trkpt>
      <trkpt lat="48.48241" lon="2.69587">
        <ele>45</ele>
        <time>2023-04-16T08:45:15.666Z</time>
      </trkpt>
      <trkpt lat="48.48247" lon="2.6959">
        <ele>45</ele>
        <time>2023-04-16T08:45:19.778Z</time>
      </trkpt>
      <trkpt lat="48.48252" lon="2.69591">
        <ele>45</ele>
        <time>2023-04-16T08:45:24.290Z</time>
      </trkpt>
      <trkpt lat="48.48255" lon="2.69591">
        <ele>45</ele>
        <time>2023-04-16T08:45:28.799Z</time>
      </trkpt>
      <trkpt lat="48.48259" lon="2.69593">
        <ele>45</ele>
        <time>2023-04-16T08:45:32.806Z</time>
      </trkpt>
      <trkpt lat="48.48268" lon="2.69592">
        <ele>43</ele>
        <time>2023-04-16T08:45:37.828Z</time>
      </trkpt>
      <trkpt lat="48.48274" lon="2.69591">
        <ele>43</ele>
        <time>2023-04-16T08:45:41.924Z</time>
      </trkpt>
      <trkpt lat="48.48281" lon="2.69592">
        <ele>43</ele>
        <time>2023-04-16T08:45:45.929Z</time>
      </trkpt>
      <trkpt lat="48.48288" lon="2.69594">
        <ele>43</ele>
        <time>2023-04-16T08:45:50.433Z</time>
      </trkpt>
      <trkpt lat="48.48295" lon="2.69598">
        <ele>41</ele>
        <time>2023-04-16T08:45:55.038Z</time>
      </trkpt>
      <trkpt lat="48.48302" lon="2.696">
        <ele>41</ele>
        <time>2023-04-16T08:45:59.649Z</time>
      </trkpt>
      <trkpt lat="48.48308" lon="2.69598">
        <ele>41</ele>
        <time>2023-04-16T08:46:03.674Z</time>
      </trkpt>
      <trkpt lat="48.48314" lon="2.696">
        <ele>41</ele>
        <time>2023-04-16T08:46:08.187Z</time>
      </trkpt>
      <trkpt lat="48.48321" lon="2.69601">
        <ele>42</ele>
        <time>2023-04-16T08:46:12.200Z</time>
      </trkpt>
      <trkpt lat="48.48328" lon="2.69605">
        <ele>42</ele>
        <time>2023-04-16T08:46:16.220Z</time>
      </trkpt>
      <trkpt lat="48.48333" lon="2.69608">
        <ele>42</ele>
        <time>2023-04-16T08:46:20.736Z</time>
      </trkpt>
      <trkpt lat="48.48339" lon="2.69609">
        <ele>42</ele>
        <time>2023-04-16T08:46:24.751Z</time>
      </trkpt>
      <trkpt lat="48.48345" lon="2.69611">
        <ele>42</ele>
        <time>2023-04-16T08:46:28.760Z</time>
      </trkpt>
      <trkpt lat="48.4835" lon="2.69613">
        <ele>44</ele>
        <time>2023-04-16T08:46:32.767Z</time>
      </trkpt>
      <trkpt lat="48.48355" lon="2.69619">
        <ele>44</ele>
        <time>2023-04-16T08:46:37.374Z</time>
      </trkpt>
      <trkpt lat="48.48356" lon="2.69625">
        <ele>44</ele>
        <time>2023-04-16T08:46:41.881Z</time>
      </trkpt>
      <trkpt lat="48.48363" lon="2.69626">
        <ele>44</ele>
        <time>2023-04-16T08:46:46.387Z</time>
      </trkpt>
      <trkpt lat="48.48369" lon="2.69625">
        <ele>44</ele>
        <time>2023-04-16T08:46:50.892Z</time>
      </trkpt>
      <trkpt lat="48.48377" lon="2.69626">
        <ele>44</ele>
        <time>2023-04-16T08:46:55.398Z</time>
      </trkpt>
      <trkpt lat="48.48384" lon="2.69624">
        <ele>44</ele>
        <time>2023-04-16T08:46:59.906Z</time>
      </trkpt>
      <trkpt lat="48.48387" lon="2.69618">
        <ele>44</ele>
        <time>2023-04-16T08:47:04.415Z</time>
      </trkpt>
      <trkpt lat="48.48384" lon="2.6961">
        <ele>44</ele>
        <time>2023-04-16T08:47:08.925Z</time>
      </trkpt>
      <trkpt lat="48.48379" lon="2.69599">
        <ele>44</ele>
        <time>2023-04-16T08:47:13.434Z</time>
      </trkpt>
      <trkpt lat="48.48376" lon="2.69588">
        <ele>44</ele>
        <time>2023-04-16T08:47:17.540Z</time>
      </trkpt>
      <trkpt lat="48.48376" lon="2.69578">
        <ele>44</ele>
        <time>2023-04-16T08:47:22.046Z</time>
      </trkpt>
      <trkpt lat="48.48378" lon="2.69569">
        <ele>44</ele>
        <time>2023-04-16T08:47:26.050Z</time>
      </trkpt>
      <trkpt lat="48.48381" lon="2.69557">
        <ele>44</ele>
        <time>2023-04-16T08:47:31.055Z</time>
      </trkpt>
      <trkpt lat="48.48384" lon="2.69548">
        <ele>44</ele>
        <time>2023-04-16T08:47:35.560Z</time>
      </trkpt>
      <trkpt lat="48.48386" lon="2.69542">
        <ele>45</ele>
        <time>2023-04-16T08:47:39.564Z</time>
      </trkpt>
      <trkpt lat="48.48388" lon="2.69534">
        <ele>45</ele>
        <time>2023-04-16T08:47:43.567Z</time>
      </trkpt>
      <trkpt lat="48.48391" lon="2.69525">
        <ele>45</ele>
        <time>2023-04-16T08:47:48.073Z</time>
      </trkpt>
      <trkpt lat="48.48394" lon="2.69517">
        <ele>45</ele>
        <time>2023-04-16T08:47:52.576Z</time>
      </trkpt>
      <trkpt lat="48.48396" lon="2.69509">
        <ele>44</ele>
        <time>2023-04-16T08:47:57.098Z</time>
      </trkpt>
      <trkpt lat="48.484" lon="2.69503">
        <ele>44</ele>
        <time>2023-04-16T08:48:01.602Z</time>
      </trkpt>
      <trkpt lat="48.48405" lon="2.69498">
        <ele>44</ele>
        <time>2023-04-16T08:48:06.107Z</time>
      </trkpt>
      <trkpt lat="48.48411" lon="2.69491">
        <ele>44</ele>
        <time>2023-04-16T08:48:10.714Z</time>
      </trkpt>
      <trkpt lat="48.48417" lon="2.69486">
        <ele>42</ele>
        <time>2023-04-16T08:48:14.722Z</time>
      </trkpt>
      <trkpt lat="48.48422" lon="2.69481">
        <ele>42</ele>
        <time>2023-04-16T08:48:19.230Z</time>
      </trkpt>
      <trkpt lat="48.48427" lon="2.69476">
        <ele>42</ele>
        <time>2023-04-16T08:48:23.737Z</time>
      </trkpt>
      <trkpt lat="48.48434" lon="2.69473">
        <ele>42</ele>
        <time>2023-04-16T08:48:28.241Z</time>
      </trkpt>
      <trkpt lat="48.48439" lon="2.69472">
        <ele>42</ele>
        <time>2023-04-16T08:48:32.747Z</time>
      </trkpt>
      <trkpt lat="48.48444" lon="2.69468">
        <ele>42</ele>
        <time>2023-04-16T08:48:36.752Z</time>
      </trkpt>
      <trkpt lat="48.4845" lon="2.69463">
        <ele>42</ele>
        <time>2023-04-16T08:48:41.257Z</time>
      </trkpt>
      <trkpt lat="48.48457" lon="2.69459">
        <ele>42</ele>
        <time>2023-04-16T08:48:45.763Z</time>
      </trkpt>
      <trkpt lat="48.48463" lon="2.69454">
        <ele>41</ele>
        <time>2023-04-16T08:48:49.769Z</time>
      </trkpt>
      <trkpt lat="48.4847" lon="2.69449">
        <ele>41</ele>
        <time>2023-04-16T08:48:53.774Z</time>
      </trkpt>
      <trkpt lat="48.48476" lon="2.69444">
        <ele>41</ele>
        <time>2023-04-16T08:48:57.878Z</time>
      </trkpt>
      <trkpt lat="48.48484" lon="2.69439">
        <ele>41</ele>
        <time>2023-04-16T08:49:02.483Z</time>
      </trkpt>
      <trkpt lat="48.4849" lon="2.69433">
        <ele>43</ele>
        <time>2023-04-16T08:49:06.988Z</time>
      </trkpt>
      <trkpt lat="48.48495" lon="2.69425">
        <ele>42</ele>
        <time>2023-04-16T08:49:11.993Z</time>
      </trkpt>
      <trkpt lat="48.48498" lon="2.69418">
        <ele>42</ele>
        <time>2023-04-16T08:49:16.597Z</time>
      </trkpt>
      <trkpt lat="48.48503" lon="2.69411">
        <ele>42</ele>
        <time>2023-04-16T08:49:21.198Z</time>
      </trkpt>
      <trkpt lat="48.48506" lon="2.69403">
        <ele>42</ele>
        <time>2023-04-16T08:49:25.200Z</time>
      </trkpt>
      <trkpt lat="48.48509" lon="2.69395">
        <ele>42</ele>
        <time>2023-04-16T08:49:29.222Z</time>
      </trkpt>
      <trkpt lat="48.48512" lon="2.69386">
        <ele>42</ele>
        <time>2023-04-16T08:49:33.982Z</time>
      </trkpt>
      <trkpt lat="48.48514" lon="2.69378">
        <ele>45</ele>
        <time>2023-04-16T08:49:37.722Z</time>
      </trkpt>
      <trkpt lat="48.48517" lon="2.69368">
        <ele>46</ele>
        <time>2023-04-16T08:49:42.542Z</time>
      </trkpt>
      <trkpt lat="48.48517" lon="2.6936">
        <ele>46</ele>
        <time>2023-04-16T08:49:46.704Z</time>
      </trkpt>
      <trkpt lat="48.48518" lon="2.69352">
        <ele>46</ele>
        <time>2023-04-16T08:49:51.246Z</time>
      </trkpt>
      <trkpt lat="48.48519" lon="2.69346">
        <ele>45</ele>
        <time>2023-04-16T08:49:55.309Z</time>
      </trkpt>
      <trkpt lat="48.48521" lon="2.69335">
        <ele>45</ele>
        <time>2023-04-16T08:49:59.851Z</time>
      </trkpt>
      <trkpt lat="48.48524" lon="2.69325">
        <ele>45</ele>
        <time>2023-04-16T08:50:03.932Z</time>
      </trkpt>
      <trkpt lat="48.48526" lon="2.69314">
        <ele>44</ele>
        <time>2023-04-16T08:50:07.995Z</time>
      </trkpt>
      <trkpt lat="48.48529" lon="2.69303">
        <ele>44</ele>
        <time>2023-04-16T08:50:12.697Z</time>
      </trkpt>
      <trkpt lat="48.48531" lon="2.69295">
        <ele>44</ele>
        <time>2023-04-16T08:50:16.800Z</time>
      </trkpt>
      <trkpt lat="48.48531" lon="2.69289">
        <ele>44</ele>
        <time>2023-04-16T08:50:20.904Z</time>
      </trkpt>
      <trkpt lat="48.48531" lon="2.69281">
        <ele>44</ele>
        <time>2023-04-16T08:50:25.408Z</time>
      </trkpt>
      <trkpt lat="48.48534" lon="2.69272">
        <ele>44</ele>
        <time>2023-04-16T08:50:29.410Z</time>
      </trkpt>
      <trkpt lat="48.48535" lon="2.69263">
        <ele>43</ele>
        <time>2023-04-16T08:50:33.914Z</time>
      </trkpt>
      <trkpt lat="48.48537" lon="2.69254">
        <ele>43</ele>
        <time>2023-04-16T08:50:37.917Z</time>
      </trkpt>
      <trkpt lat="48.48539" lon="2.69245">
        <ele>43</ele>
        <time>2023-04-16T08:50:41.959Z</time>
      </trkpt>
      <trkpt lat="48.48538" lon="2.69235">
        <ele>43</ele>
        <time>2023-04-16T08:50:46.463Z</time>
      </trkpt>
      <trkpt lat="48.48541" lon="2.69226">
        <ele>43</ele>
        <time>2023-04-16T08:50:50.467Z</time>
      </trkpt>
      <trkpt lat="48.48542" lon="2.69217">
        <ele>43</ele>
        <time>2023-04-16T08:50:54.971Z</time>
      </trkpt>
      <trkpt lat="48.48543" lon="2.69208">
        <ele>42</ele>
        <time>2023-04-16T08:50:59.092Z</time>
      </trkpt>
      <trkpt lat="48.48544" lon="2.69199">
        <ele>42</ele>
        <time>2023-04-16T08:51:03.113Z</time>
      </trkpt>
      <trkpt lat="48.48546" lon="2.69189">
        <ele>42</ele>
        <time>2023-04-16T08:51:07.675Z</time>
      </trkpt>
      <trkpt lat="48.48548" lon="2.6918">
        <ele>42</ele>
        <time>2023-04-16T08:51:11.817Z</time>
      </trkpt>
      <trkpt lat="48.48547" lon="2.69176">
        <ele>42</ele>
        <time>2023-04-16T08:51:15.829Z</time>
      </trkpt>
      <trkpt lat="48.48546" lon="2.69171">
        <ele>42</ele>
        <time>2023-04-16T08:51:19.832Z</time>
      </trkpt>
      <trkpt lat="48.48546" lon="2.6916">
        <ele>42</ele>
        <time>2023-04-16T08:51:24.072Z</time>
      </trkpt>
      <trkpt lat="48.48548" lon="2.69147">
        <ele>43</ele>
        <time>2023-04-16T08:51:28.213Z</time>
      </trkpt>
      <trkpt lat="48.4855" lon="2.69137">
        <ele>43</ele>
        <time>2023-04-16T08:51:32.715Z</time>
      </trkpt>
      <trkpt lat="48.48552" lon="2.69127">
        <ele>43</ele>
        <time>2023-04-16T08:51:37.217Z</time>
      </trkpt>
      <trkpt lat="48.48554" lon="2.69116">
        <ele>44</ele>
        <time>2023-04-16T08:51:41.820Z</time>
      </trkpt>
      <trkpt lat="48.48554" lon="2.69108">
        <ele>44</ele>
        <time>2023-04-16T08:51:45.843Z</time>
      </trkpt>
      <trkpt lat="48.48556" lon="2.69098">
        <ele>44</ele>
        <time>2023-04-16T08:51:50.487Z</time>
      </trkpt>
      <trkpt lat="48.48558" lon="2.69089">
        <ele>44</ele>
        <time>2023-04-16T08:51:55.089Z</time>
      </trkpt>
      <trkpt lat="48.48558" lon="2.69079">
        <ele>44</ele>
        <time>2023-04-16T08:51:59.593Z</time>
      </trkpt>
      <trkpt lat="48.4856" lon="2.6907">
        <ele>44</ele>
        <time>2023-04-16T08:52:04.096Z</time>
      </trkpt>
      <trkpt lat="48.48559" lon="2.6906">
        <ele>44</ele>
        <time>2023-04-16T08:52:08.117Z</time>
      </trkpt>
      <trkpt lat="48.48559" lon="2.69052">
        <ele>44</ele>
        <time>2023-04-16T08:52:12.121Z</time>
      </trkpt>
      <trkpt lat="48.48559" lon="2.69041">
        <ele>43</ele>
        <time>2023-04-16T08:52:16.750Z</time>
      </trkpt>
      <trkpt lat="48.48564" lon="2.69035">
        <ele>43</ele>
        <time>2023-04-16T08:52:20.848Z</time>
      </trkpt>
      <trkpt lat="48.48565" lon="2.69027">
        <ele>43</ele>
        <time>2023-04-16T08:52:25.373Z</time>
      </trkpt>
      <trkpt lat="48.48562" lon="2.69016">
        <ele>43</ele>
        <time>2023-04-16T08:52:29.377Z</time>
      </trkpt>
      <trkpt lat="48.48562" lon="2.69008">
        <ele>43</ele>
        <time>2023-04-16T08:52:33.379Z</time>
      </trkpt>
      <trkpt lat="48.48562" lon="2.68998">
        <ele>43</ele>
        <time>2023-04-16T08:52:37.883Z</time>
      </trkpt>
      <trkpt lat="48.48562" lon="2.68989">
        <ele>43</ele>
        <time>2023-04-16T08:52:41.886Z</time>
      </trkpt>
      <trkpt lat="48.48564" lon="2.68978">
        <ele>42</ele>
        <time>2023-04-16T08:52:46.589Z</time>
      </trkpt>
      <trkpt lat="48.48565" lon="2.68969">
        <ele>42</ele>
        <time>2023-04-16T08:52:51.093Z</time>
      </trkpt>
      <trkpt lat="48.48565" lon="2.68963">
        <ele>42</ele>
        <time>2023-04-16T08:52:55.094Z</time>
      </trkpt>
      <trkpt lat="48.48567" lon="2.68956">
        <ele>41</ele>
        <time>2023-04-16T08:52:59.097Z</time>
      </trkpt>
      <trkpt lat="48.48568" lon="2.68947">
        <ele>41</ele>
        <time>2023-04-16T08:53:03.278Z</time>
      </trkpt>
      <trkpt lat="48.4857" lon="2.68937">
        <ele>45</ele>
        <time>2023-04-16T08:53:07.281Z</time>
      </trkpt>
      <trkpt lat="48.48572" lon="2.68928">
        <ele>45</ele>
        <time>2023-04-16T08:53:11.785Z</time>
      </trkpt>
      <trkpt lat="48.48574" lon="2.6892">
        <ele>45</ele>
        <time>2023-04-16T08:53:15.888Z</time>
      </trkpt>
      <trkpt lat="48.48577" lon="2.68911">
        <ele>45</ele>
        <time>2023-04-16T08:53:19.892Z</time>
      </trkpt>
      <trkpt lat="48.48579" lon="2.68901">
        <ele>45</ele>
        <time>2023-04-16T08:53:24.397Z</time>
      </trkpt>
      <trkpt lat="48.48579" lon="2.68893">
        <ele>45</ele>
        <time>2023-04-16T08:53:28.903Z</time>
      </trkpt>
      <trkpt lat="48.48578" lon="2.68881">
        <ele>45</ele>
        <time>2023-04-16T08:53:33.432Z</time>
      </trkpt>
      <trkpt lat="48.48577" lon="2.68872">
        <ele>44</ele>
        <time>2023-04-16T08:53:37.513Z</time>
      </trkpt>
      <trkpt lat="48.48578" lon="2.68862">
        <ele>44</ele>
        <time>2023-04-16T08:53:41.617Z</time>
      </trkpt>
      <trkpt lat="48.48578" lon="2.6885">
        <ele>44</ele>
        <time>2023-04-16T08:53:46.321Z</time>
      </trkpt>
      <trkpt lat="48.48578" lon="2.68839">
        <ele>43</ele>
        <time>2023-04-16T08:53:50.925Z</time>
      </trkpt>
      <trkpt lat="48.48577" lon="2.68828">
        <ele>43</ele>
        <time>2023-04-16T08:53:55.928Z</time>
      </trkpt>
      <trkpt lat="48.48579" lon="2.68818">
        <ele>43</ele>
        <time>2023-04-16T08:54:00.551Z</time>
      </trkpt>
      <trkpt lat="48.4858" lon="2.68809">
        <ele>43</ele>
        <time>2023-04-16T08:54:04.654Z</time>
      </trkpt>
      <trkpt lat="48.48581" lon="2.688">
        <ele>43</ele>
        <time>2023-04-16T08:54:09.186Z</time>
      </trkpt>
      <trkpt lat="48.48583" lon="2.68793">
        <ele>43</ele>
        <time>2023-04-16T08:54:13.317Z</time>
      </trkpt>
      <trkpt lat="48.48585" lon="2.68786">
        <ele>42</ele>
        <time>2023-04-16T08:54:17.339Z</time>
      </trkpt>
      <trkpt lat="48.48588" lon="2.68778">
        <ele>42</ele>
        <time>2023-04-16T08:54:21.961Z</time>
      </trkpt>
      <trkpt lat="48.48587" lon="2.68763">
        <ele>41</ele>
        <time>2023-04-16T08:54:26.567Z</time>
      </trkpt>
      <trkpt lat="48.48588" lon="2.68755">
        <ele>41</ele>
        <time>2023-04-16T08:54:31.073Z</time>
      </trkpt>
      <trkpt lat="48.4859" lon="2.68744">
        <ele>41</ele>
        <time>2023-04-16T08:54:35.678Z</time>
      </trkpt>
      <trkpt lat="48.48592" lon="2.68735">
        <ele>41</ele>
        <time>2023-04-16T08:54:40.682Z</time>
      </trkpt>
      <trkpt lat="48.48597" lon="2.68728">
        <ele>41</ele>
        <time>2023-04-16T08:54:44.685Z</time>
      </trkpt>
      <trkpt lat="48.486" lon="2.6872">
        <ele>40</ele>
        <time>2023-04-16T08:54:48.689Z</time>
      </trkpt>
      <trkpt lat="48.48605" lon="2.68721">
        <ele>40</ele>
        <time>2023-04-16T08:54:52.698Z</time>
      </trkpt>
      <trkpt lat="48.48609" lon="2.68723">
        <ele>40</ele>
        <time>2023-04-16T08:54:56.735Z</time>
      </trkpt>
      <trkpt lat="48.48607" lon="2.68721">
        <ele>40</ele>
        <time>2023-04-16T08:55:01.769Z</time>
      </trkpt>
      <trkpt lat="48.48604" lon="2.68708">
        <ele>40</ele>
        <time>2023-04-16T08:55:06.787Z</time>
      </trkpt>
      <trkpt lat="48.48604" lon="2.68697">
        <ele>40</ele>
        <time>2023-04-16T08:55:10.799Z</time>
      </trkpt>
      <trkpt lat="48.48605" lon="2.68689">
        <ele>40</ele>
        <time>2023-04-16T08:55:15.309Z</time>
      </trkpt>
      <trkpt lat="48.48609" lon="2.6868">
        <ele>40</ele>
        <time>2023-04-16T08:55:19.418Z</time>
      </trkpt>
      <trkpt lat="48.48613" lon="2.6867">
        <ele>40</ele>
        <time>2023-04-16T08:55:23.929Z</time>
      </trkpt>
      <trkpt lat="48.48615" lon="2.68662">
        <ele>40</ele>
        <time>2023-04-16T08:55:27.937Z</time>
      </trkpt>
      <trkpt lat="48.48618" lon="2.68651">
        <ele>41</ele>
        <time>2023-04-16T08:55:32.443Z</time>
      </trkpt>
      <trkpt lat="48.4862" lon="2.68642">
        <ele>41</ele>
        <time>2023-04-16T08:55:36.448Z</time>
      </trkpt>
      <trkpt lat="48.48622" lon="2.68635">
        <ele>41</ele>
        <time>2023-04-16T08:55:40.671Z</time>
      </trkpt>
      <trkpt lat="48.48624" lon="2.68627">
        <ele>41</ele>
        <time>2023-04-16T08:55:45.177Z</time>
      </trkpt>
      <trkpt lat="48.48627" lon="2.6862">
        <ele>41</ele>
        <time>2023-04-16T08:55:48.779Z</time>
      </trkpt>
      <trkpt lat="48.4863" lon="2.6861">
        <ele>41</ele>
        <time>2023-04-16T08:55:53.283Z</time>
      </trkpt>
      <trkpt lat="48.48631" lon="2.68601">
        <ele>41</ele>
        <time>2023-04-16T08:55:57.286Z</time>
      </trkpt>
      <trkpt lat="48.48633" lon="2.68591">
        <ele>41</ele>
        <time>2023-04-16T08:56:01.948Z</time>
      </trkpt>
      <trkpt lat="48.48634" lon="2.68582">
        <ele>41</ele>
        <time>2023-04-16T08:56:06.571Z</time>
      </trkpt>
      <trkpt lat="48.48636" lon="2.68574">
        <ele>41</ele>
        <time>2023-04-16T08:56:11.074Z</time>
      </trkpt>
      <trkpt lat="48.48637" lon="2.68566">
        <ele>42</ele>
        <time>2023-04-16T08:56:15.078Z</time>
      </trkpt>
      <trkpt lat="48.48639" lon="2.68557">
        <ele>42</ele>
        <time>2023-04-16T08:56:19.584Z</time>
      </trkpt>
      <trkpt lat="48.48642" lon="2.6855">
        <ele>42</ele>
        <time>2023-04-16T08:56:23.585Z</time>
      </trkpt>
      <trkpt lat="48.48644" lon="2.68541">
        <ele>42</ele>
        <time>2023-04-16T08:56:28.089Z</time>
      </trkpt>
      <trkpt lat="48.48647" lon="2.68533">
        <ele>42</ele>
        <time>2023-04-16T08:56:32.592Z</time>
      </trkpt>
      <trkpt lat="48.48649" lon="2.68524">
        <ele>42</ele>
        <time>2023-04-16T08:56:36.595Z</time>
      </trkpt>
      <trkpt lat="48.48652" lon="2.68514">
        <ele>42</ele>
        <time>2023-04-16T08:56:41.198Z</time>
      </trkpt>
      <trkpt lat="48.48654" lon="2.68504">
        <ele>43</ele>
        <time>2023-04-16T08:56:45.700Z</time>
      </trkpt>
      <trkpt lat="48.48658" lon="2.68494">
        <ele>43</ele>
        <time>2023-04-16T08:56:50.304Z</time>
      </trkpt>
      <trkpt lat="48.48658" lon="2.68485">
        <ele>41</ele>
        <time>2023-04-16T08:56:54.408Z</time>
      </trkpt>
      <trkpt lat="48.48661" lon="2.68476">
        <ele>41</ele>
        <time>2023-04-16T08:56:58.513Z</time>
      </trkpt>
      <trkpt lat="48.48663" lon="2.68465">
        <ele>41</ele>
        <time>2023-04-16T08:57:02.635Z</time>
      </trkpt>
      <trkpt lat="48.48663" lon="2.68456">
        <ele>41</ele>
        <time>2023-04-16T08:57:06.656Z</time>
      </trkpt>
      <trkpt lat="48.48665" lon="2.68448">
        <ele>41</ele>
        <time>2023-04-16T08:57:11.158Z</time>
      </trkpt>
      <trkpt lat="48.48667" lon="2.68439">
        <ele>41</ele>
        <time>2023-04-16T08:57:15.259Z</time>
      </trkpt>
      <trkpt lat="48.48669" lon="2.6843">
        <ele>41</ele>
        <time>2023-04-16T08:57:20Z</time>
      </trkpt>
      <trkpt lat="48.4867" lon="2.68422">
        <ele>41</ele>
        <time>2023-04-16T08:57:24.002Z</time>
      </trkpt>
      <trkpt lat="48.48673" lon="2.68411">
        <ele>41</ele>
        <time>2023-04-16T08:57:29.104Z</time>
      </trkpt>
      <trkpt lat="48.48675" lon="2.68402">
        <ele>41</ele>
        <time>2023-04-16T08:57:33.206Z</time>
      </trkpt>
      <trkpt lat="48.48677" lon="2.68394">
        <ele>41</ele>
        <time>2023-04-16T08:57:37.288Z</time>
      </trkpt>
      <trkpt lat="48.48679" lon="2.68386">
        <ele>41</ele>
        <time>2023-04-16T08:57:41.350Z</time>
      </trkpt>
      <trkpt lat="48.48681" lon="2.68376">
        <ele>44</ele>
        <time>2023-04-16T08:57:45.353Z</time>
      </trkpt>
      <trkpt lat="48.48683" lon="2.68368">
        <ele>44</ele>
        <time>2023-04-16T08:57:49.394Z</time>
      </trkpt>
      <trkpt lat="48.48684" lon="2.68359">
        <ele>44</ele>
        <time>2023-04-16T08:57:53.897Z</time>
      </trkpt>
      <trkpt lat="48.48687" lon="2.68349">
        <ele>44</ele>
        <time>2023-04-16T08:57:58.900Z</time>
      </trkpt>
      <trkpt lat="48.4869" lon="2.68342">
        <ele>44</ele>
        <time>2023-04-16T08:58:02.921Z</time>
      </trkpt>
      <trkpt lat="48.48693" lon="2.68333">
        <ele>44</ele>
        <time>2023-04-16T08:58:07.003Z</time>
      </trkpt>
      <trkpt lat="48.48696" lon="2.68325">
        <ele>44</ele>
        <time>2023-04-16T08:58:11.064Z</time>
      </trkpt>
      <trkpt lat="48.48699" lon="2.68317">
        <ele>43</ele>
        <time>2023-04-16T08:58:15.067Z</time>
      </trkpt>
      <trkpt lat="48.48702" lon="2.68308">
        <ele>43</ele>
        <time>2023-04-16T08:58:19.071Z</time>
      </trkpt>
      <trkpt lat="48.48704" lon="2.68298">
        <ele>43</ele>
        <time>2023-04-16T08:58:23.673Z</time>
      </trkpt>
      <trkpt lat="48.48708" lon="2.68292">
        <ele>43</ele>
        <time>2023-04-16T08:58:28.187Z</time>
      </trkpt>
      <trkpt lat="48.48709" lon="2.68285">
        <ele>44</ele>
        <time>2023-04-16T08:58:32.190Z</time>
      </trkpt>
      <trkpt lat="48.48713" lon="2.68276">
        <ele>44</ele>
        <time>2023-04-16T08:58:36.694Z</time>
      </trkpt>
      <trkpt lat="48.48715" lon="2.68269">
        <ele>44</ele>
        <time>2023-04-16T08:58:40.755Z</time>
      </trkpt>
      <trkpt lat="48.48719" lon="2.68262">
        <ele>44</ele>
        <time>2023-04-16T08:58:44.756Z</time>
      </trkpt>
      <trkpt lat="48.48723" lon="2.68254">
        <ele>44</ele>
        <time>2023-04-16T08:58:49.339Z</time>
      </trkpt>
      <trkpt lat="48.48727" lon="2.68249">
        <ele>44</ele>
        <time>2023-04-16T08:58:53.679Z</time>
      </trkpt>
      <trkpt lat="48.48732" lon="2.68247">
        <ele>44</ele>
        <time>2023-04-16T08:58:57.861Z</time>
      </trkpt>
      <trkpt lat="48.48738" lon="2.68245">
        <ele>44</ele>
        <time>2023-04-16T08:59:02.121Z</time>
      </trkpt>
      <trkpt lat="48.48742" lon="2.68246">
        <ele>44</ele>
        <time>2023-04-16T08:59:06.730Z</time>
      </trkpt>
      <trkpt lat="48.48746" lon="2.6825">
        <ele>44</ele>
        <time>2023-04-16T08:59:10.427Z</time>
      </trkpt>
      <trkpt lat="48.4875" lon="2.68255">
        <ele>44</ele>
        <time>2023-04-16T08:59:14.431Z</time>
      </trkpt>
      <trkpt lat="48.48755" lon="2.68261">
        <ele>44</ele>
        <time>2023-04-16T08:59:18.691Z</time>
      </trkpt>
      <trkpt lat="48.48758" lon="2.68267">
        <ele>44</ele>
        <time>2023-04-16T08:59:22.892Z</time>
      </trkpt>
      <trkpt lat="48.48764" lon="2.68275">
        <ele>44</ele>
        <time>2023-04-16T08:59:27.013Z</time>
      </trkpt>
      <trkpt lat="48.48769" lon="2.68281">
        <ele>45</ele>
        <time>2023-04-16T08:59:31.134Z</time>
      </trkpt>
      <trkpt lat="48.48776" lon="2.68284">
        <ele>45</ele>
        <time>2023-04-16T08:59:35.855Z</time>
      </trkpt>
      <trkpt lat="48.48778" lon="2.68283">
        <ele>45</ele>
        <time>2023-04-16T08:59:37.356Z</time>
      </trkpt>
      <trkpt lat="48.4879" lon="2.68282">
        <ele>45</ele>
        <time>2023-04-16T08:59:44.886Z</time>
      </trkpt>
      <trkpt lat="48.48794" lon="2.68268">
        <ele>47</ele>
        <time>2023-04-16T08:59:51.416Z</time>
      </trkpt>
      <trkpt lat="48.48797" lon="2.68266">
        <ele>47</ele>
        <time>2023-04-16T08:59:55.438Z</time>
      </trkpt>
      <trkpt lat="48.48809" lon="2.68264">
        <ele>46</ele>
        <time>2023-04-16T08:59:59.955Z</time>
      </trkpt>
      <trkpt lat="48.48815" lon="2.68261">
        <ele>46</ele>
        <time>2023-04-16T09:00:04.968Z</time>
      </trkpt>
      <trkpt lat="48.48822" lon="2.68262">
        <ele>47</ele>
        <time>2023-04-16T09:00:08.976Z</time>
      </trkpt>
      <trkpt lat="48.48828" lon="2.68264">
        <ele>47</ele>
        <time>2023-04-16T09:00:12.984Z</time>
      </trkpt>
      <trkpt lat="48.48833" lon="2.68264">
        <ele>47</ele>
        <time>2023-04-16T09:00:17.495Z</time>
      </trkpt>
      <trkpt lat="48.48839" lon="2.68264">
        <ele>47</ele>
        <time>2023-04-16T09:00:21.504Z</time>
      </trkpt>
      <trkpt lat="48.48844" lon="2.6826">
        <ele>47</ele>
        <time>2023-04-16T09:00:26.014Z</time>
      </trkpt>
      <trkpt lat="48.48847" lon="2.6825">
        <ele>47</ele>
        <time>2023-04-16T09:00:30.724Z</time>
      </trkpt>
      <trkpt lat="48.48852" lon="2.68242">
        <ele>47</ele>
        <time>2023-04-16T09:00:35.232Z</time>
      </trkpt>
      <trkpt lat="48.48856" lon="2.68237">
        <ele>47</ele>
        <time>2023-04-16T09:00:39.338Z</time>
      </trkpt>
      <trkpt lat="48.48859" lon="2.68231">
        <ele>46</ele>
        <time>2023-04-16T09:00:44.043Z</time>
      </trkpt>
      <trkpt lat="48.48863" lon="2.68223">
        <ele>46</ele>
        <time>2023-04-16T09:00:48.548Z</time>
      </trkpt>
      <trkpt lat="48.48866" lon="2.68216">
        <ele>46</ele>
        <time>2023-04-16T09:00:52.652Z</time>
      </trkpt>
      <trkpt lat="48.48869" lon="2.68207">
        <ele>46</ele>
        <time>2023-04-16T09:00:56.755Z</time>
      </trkpt>
      <trkpt lat="48.48873" lon="2.68198">
        <ele>46</ele>
        <time>2023-04-16T09:01:00.761Z</time>
      </trkpt>
      <trkpt lat="48.48877" lon="2.68189">
        <ele>46</ele>
        <time>2023-04-16T09:01:05.265Z</time>
      </trkpt>
      <trkpt lat="48.4888" lon="2.68181">
        <ele>46</ele>
        <time>2023-04-16T09:01:09.768Z</time>
      </trkpt>
      <trkpt lat="48.48884" lon="2.68173">
        <ele>46</ele>
        <time>2023-04-16T09:01:13.772Z</time>
      </trkpt>
      <trkpt lat="48.48889" lon="2.68166">
        <ele>46</ele>
        <time>2023-04-16T09:01:17.774Z</time>
      </trkpt>
      <trkpt lat="48.48893" lon="2.68157">
        <ele>46</ele>
        <time>2023-04-16T09:01:22.879Z</time>
      </trkpt>
      <trkpt lat="48.48898" lon="2.68151">
        <ele>46</ele>
        <time>2023-04-16T09:01:27.083Z</time>
      </trkpt>
      <trkpt lat="48.48902" lon="2.68145">
        <ele>46</ele>
        <time>2023-04-16T09:01:31.087Z</time>
      </trkpt>
      <trkpt lat="48.48906" lon="2.68139">
        <ele>47</ele>
        <time>2023-04-16T09:01:35.089Z</time>
      </trkpt>
      <trkpt lat="48.48911" lon="2.68131">
        <ele>47</ele>
        <time>2023-04-16T09:01:39.695Z</time>
      </trkpt>
      <trkpt lat="48.48917" lon="2.68122">
        <ele>47</ele>
        <time>2023-04-16T09:01:43.697Z</time>
      </trkpt>
      <trkpt lat="48.4892" lon="2.68117">
        <ele>47</ele>
        <time>2023-04-16T09:01:47.720Z</time>
      </trkpt>
      <trkpt lat="48.48923" lon="2.68112">
        <ele>47</ele>
        <time>2023-04-16T09:01:52.341Z</time>
      </trkpt>
      <trkpt lat="48.48926" lon="2.68107">
        <ele>47</ele>
        <time>2023-04-16T09:01:56.602Z</time>
      </trkpt>
      <trkpt lat="48.48931" lon="2.681">
        <ele>47</ele>
        <time>2023-04-16T09:02:00.963Z</time>
      </trkpt>
      <trkpt lat="48.48934" lon="2.68093">
        <ele>48</ele>
        <time>2023-04-16T09:02:05.264Z</time>
      </trkpt>
      <trkpt lat="48.48938" lon="2.68085">
        <ele>48</ele>
        <time>2023-04-16T09:02:09.866Z</time>
      </trkpt>
      <trkpt lat="48.48944" lon="2.68081">
        <ele>48</ele>
        <time>2023-04-16T09:02:13.868Z</time>
      </trkpt>
      <trkpt lat="48.48948" lon="2.68075">
        <ele>48</ele>
        <time>2023-04-16T09:02:17.972Z</time>
      </trkpt>
      <trkpt lat="48.4895" lon="2.6807">
        <ele>48</ele>
        <time>2023-04-16T09:02:22.014Z</time>
      </trkpt>
      <trkpt lat="48.48955" lon="2.68061">
        <ele>48</ele>
        <time>2023-04-16T09:02:27.190Z</time>
      </trkpt>
      <trkpt lat="48.48959" lon="2.68056">
        <ele>51</ele>
        <time>2023-04-16T09:02:31.418Z</time>
      </trkpt>
      <trkpt lat="48.48964" lon="2.68052">
        <ele>51</ele>
        <time>2023-04-16T09:02:35.866Z</time>
      </trkpt>
      <trkpt lat="48.48968" lon="2.68047">
        <ele>51</ele>
        <time>2023-04-16T09:02:40.195Z</time>
      </trkpt>
      <trkpt lat="48.48973" lon="2.68041">
        <ele>51</ele>
        <time>2023-04-16T09:02:44.033Z</time>
      </trkpt>
      <trkpt lat="48.48976" lon="2.68035">
        <ele>51</ele>
        <time>2023-04-16T09:02:47.990Z</time>
      </trkpt>
      <trkpt lat="48.4898" lon="2.68027">
        <ele>51</ele>
        <time>2023-04-16T09:02:52.668Z</time>
      </trkpt>
      <trkpt lat="48.48983" lon="2.68021">
        <ele>51</ele>
        <time>2023-04-16T09:02:57.165Z</time>
      </trkpt>
      <trkpt lat="48.48986" lon="2.68016">
        <ele>51</ele>
        <time>2023-04-16T09:03:01.565Z</time>
      </trkpt>
      <trkpt lat="48.48989" lon="2.68009">
        <ele>50</ele>
        <time>2023-04-16T09:03:06.055Z</time>
      </trkpt>
      <trkpt lat="48.48994" lon="2.68002">
        <ele>50</ele>
        <time>2023-04-16T09:03:09.861Z</time>
      </trkpt>
      <trkpt lat="48.48999" lon="2.67995">
        <ele>50</ele>
        <time>2023-04-16T09:03:14.321Z</time>
      </trkpt>
      <trkpt lat="48.49005" lon="2.67988">
        <ele>50</ele>
        <time>2023-04-16T09:03:19.157Z</time>
      </trkpt>
      <trkpt lat="48.49015" lon="2.67978">
        <ele>49</ele>
        <time>2023-04-16T09:03:27.749Z</time>
      </trkpt>
      <trkpt lat="48.49017" lon="2.67979">
        <ele>49</ele>
        <time>2023-04-16T09:03:32.278Z</time>
      </trkpt>
      <trkpt lat="48.49018" lon="2.67985">
        <ele>49</ele>
        <time>2023-04-16T09:03:36.889Z</time>
      </trkpt>
      <trkpt lat="48.49025" lon="2.6799">
        <ele>49</ele>
        <time>2023-04-16T09:03:41.395Z</time>
      </trkpt>
      <trkpt lat="48.49032" lon="2.67991">
        <ele>49</ele>
        <time>2023-04-16T09:03:45.411Z</time>
      </trkpt>
      <trkpt lat="48.49039" lon="2.67993">
        <ele>49</ele>
        <time>2023-04-16T09:03:49.919Z</time>
      </trkpt>
      <trkpt lat="48.49046" lon="2.67989">
        <ele>50</ele>
        <time>2023-04-16T09:03:54.482Z</time>
      </trkpt>
      <trkpt lat="48.49051" lon="2.67987">
        <ele>50</ele>
        <time>2023-04-16T09:03:58.485Z</time>
      </trkpt>
      <trkpt lat="48.49054" lon="2.67985">
        <ele>49</ele>
        <time>2023-04-16T09:04:02.988Z</time>
      </trkpt>
      <trkpt lat="48.4906" lon="2.67984">
        <ele>49</ele>
        <time>2023-04-16T09:04:07.491Z</time>
      </trkpt>
      <trkpt lat="48.49067" lon="2.6798">
        <ele>49</ele>
        <time>2023-04-16T09:04:11.993Z</time>
      </trkpt>
      <trkpt lat="48.49073" lon="2.67976">
        <ele>50</ele>
        <time>2023-04-16T09:04:16.035Z</time>
      </trkpt>
      <trkpt lat="48.4908" lon="2.67975">
        <ele>50</ele>
        <time>2023-04-16T09:04:20.037Z</time>
      </trkpt>
      <trkpt lat="48.49087" lon="2.67974">
        <ele>50</ele>
        <time>2023-04-16T09:04:25.059Z</time>
      </trkpt>
      <trkpt lat="48.49094" lon="2.67972">
        <ele>50</ele>
        <time>2023-04-16T09:04:29.562Z</time>
      </trkpt>
      <trkpt lat="48.491" lon="2.6797">
        <ele>50</ele>
        <time>2023-04-16T09:04:33.564Z</time>
      </trkpt>
      <trkpt lat="48.49106" lon="2.67969">
        <ele>50</ele>
        <time>2023-04-16T09:04:38.784Z</time>
      </trkpt>
      <trkpt lat="48.49113" lon="2.67965">
        <ele>50</ele>
        <time>2023-04-16T09:04:43.886Z</time>
      </trkpt>
      <trkpt lat="48.4912" lon="2.67964">
        <ele>50</ele>
        <time>2023-04-16T09:04:48.087Z</time>
      </trkpt>
      <trkpt lat="48.49128" lon="2.67963">
        <ele>49</ele>
        <time>2023-04-16T09:04:53.196Z</time>
      </trkpt>
      <trkpt lat="48.49133" lon="2.67962">
        <ele>49</ele>
        <time>2023-04-16T09:04:57.394Z</time>
      </trkpt>
      <trkpt lat="48.49138" lon="2.6796">
        <ele>49</ele>
        <time>2023-04-16T09:05:01.775Z</time>
      </trkpt>
      <trkpt lat="48.49144" lon="2.67956">
        <ele>50</ele>
        <time>2023-04-16T09:05:05.956Z</time>
      </trkpt>
      <trkpt lat="48.49151" lon="2.67953">
        <ele>50</ele>
        <time>2023-04-16T09:05:10.995Z</time>
      </trkpt>
      <trkpt lat="48.49158" lon="2.67949">
        <ele>49</ele>
        <time>2023-04-16T09:05:15.528Z</time>
      </trkpt>
      <trkpt lat="48.49164" lon="2.67944">
        <ele>49</ele>
        <time>2023-04-16T09:05:19.816Z</time>
      </trkpt>
      <trkpt lat="48.4917" lon="2.67941">
        <ele>49</ele>
        <time>2023-04-16T09:05:23.695Z</time>
      </trkpt>
      <trkpt lat="48.49175" lon="2.67939">
        <ele>49</ele>
        <time>2023-04-16T09:05:27.816Z</time>
      </trkpt>
      <trkpt lat="48.4918" lon="2.67934">
        <ele>49</ele>
        <time>2023-04-16T09:05:32.276Z</time>
      </trkpt>
      <trkpt lat="48.49184" lon="2.67927">
        <ele>50</ele>
        <time>2023-04-16T09:05:36.779Z</time>
      </trkpt>
      <trkpt lat="48.49187" lon="2.67924">
        <ele>50</ele>
        <time>2023-04-16T09:05:40.920Z</time>
      </trkpt>
      <trkpt lat="48.49193" lon="2.67919">
        <ele>50</ele>
        <time>2023-04-16T09:05:45.701Z</time>
      </trkpt>
      <trkpt lat="48.49199" lon="2.67916">
        <ele>50</ele>
        <time>2023-04-16T09:05:49.561Z</time>
      </trkpt>
      <trkpt lat="48.49205" lon="2.67911">
        <ele>50</ele>
        <time>2023-04-16T09:05:53.921Z</time>
      </trkpt>
      <trkpt lat="48.4921" lon="2.67906">
        <ele>50</ele>
        <time>2023-04-16T09:05:58.463Z</time>
      </trkpt>
      <trkpt lat="48.49215" lon="2.67899">
        <ele>50</ele>
        <time>2023-04-16T09:06:03.143Z</time>
      </trkpt>
      <trkpt lat="48.49221" lon="2.67893">
        <ele>50</ele>
        <time>2023-04-16T09:06:07.418Z</time>
      </trkpt>
      <trkpt lat="48.49227" lon="2.67887">
        <ele>50</ele>
        <time>2023-04-16T09:06:11.418Z</time>
      </trkpt>
      <trkpt lat="48.49232" lon="2.67883">
        <ele>50</ele>
        <time>2023-04-16T09:06:15.723Z</time>
      </trkpt>
      <trkpt lat="48.49237" lon="2.67878">
        <ele>49</ele>
        <time>2023-04-16T09:06:20.782Z</time>
      </trkpt>
      <trkpt lat="48.49242" lon="2.67873">
        <ele>49</ele>
        <time>2023-04-16T09:06:25.166Z</time>
      </trkpt>
      <trkpt lat="48.49251" lon="2.67866">
        <ele>49</ele>
        <time>2023-04-16T09:06:29.680Z</time>
      </trkpt>
      <trkpt lat="48.49257" lon="2.6786">
        <ele>49</ele>
        <time>2023-04-16T09:06:33.940Z</time>
      </trkpt>
      <trkpt lat="48.49262" lon="2.67858">
        <ele>49</ele>
        <time>2023-04-16T09:06:37.939Z</time>
      </trkpt>
      <trkpt lat="48.49268" lon="2.67857">
        <ele>48</ele>
        <time>2023-04-16T09:06:41.779Z</time>
      </trkpt>
      <trkpt lat="48.49274" lon="2.67857">
        <ele>48</ele>
        <time>2023-04-16T09:06:45.719Z</time>
      </trkpt>
      <trkpt lat="48.4928" lon="2.67856">
        <ele>48</ele>
        <time>2023-04-16T09:06:51.179Z</time>
      </trkpt>
      <trkpt lat="48.49284" lon="2.67853">
        <ele>48</ele>
        <time>2023-04-16T09:06:54.681Z</time>
      </trkpt>
      <trkpt lat="48.49293" lon="2.67855">
        <ele>48</ele>
        <time>2023-04-16T09:06:59.244Z</time>
      </trkpt>
      <trkpt lat="48.49298" lon="2.67855">
        <ele>48</ele>
        <time>2023-04-16T09:07:03.418Z</time>
      </trkpt>
      <trkpt lat="48.49303" lon="2.67856">
        <ele>48</ele>
        <time>2023-04-16T09:07:07.684Z</time>
      </trkpt>
      <trkpt lat="48.49309" lon="2.67858">
        <ele>48</ele>
        <time>2023-04-16T09:07:12.386Z</time>
      </trkpt>
      <trkpt lat="48.49314" lon="2.67856">
        <ele>48</ele>
        <time>2023-04-16T09:07:16.646Z</time>
      </trkpt>
      <trkpt lat="48.4932" lon="2.67858">
        <ele>50</ele>
        <time>2023-04-16T09:07:21.189Z</time>
      </trkpt>
      <trkpt lat="48.49326" lon="2.67863">
        <ele>50</ele>
        <time>2023-04-16T09:07:25.418Z</time>
      </trkpt>
      <trkpt lat="48.49331" lon="2.67868">
        <ele>50</ele>
        <time>2023-04-16T09:07:29.324Z</time>
      </trkpt>
      <trkpt lat="48.49337" lon="2.67871">
        <ele>50</ele>
        <time>2023-04-16T09:07:33.525Z</time>
      </trkpt>
      <trkpt lat="48.49343" lon="2.67872">
        <ele>50</ele>
        <time>2023-04-16T09:07:38.157Z</time>
      </trkpt>
      <trkpt lat="48.49348" lon="2.67871">
        <ele>51</ele>
        <time>2023-04-16T09:07:41.868Z</time>
      </trkpt>
      <trkpt lat="48.49356" lon="2.6787">
        <ele>51</ele>
        <time>2023-04-16T09:07:46.709Z</time>
      </trkpt>
      <trkpt lat="48.49361" lon="2.67871">
        <ele>51</ele>
        <time>2023-04-16T09:07:51.308Z</time>
      </trkpt>
      <trkpt lat="48.49365" lon="2.67871">
        <ele>51</ele>
        <time>2023-04-16T09:07:55.889Z</time>
      </trkpt>
      <trkpt lat="48.49372" lon="2.67869">
        <ele>51</ele>
        <time>2023-04-16T09:07:59.926Z</time>
      </trkpt>
      <trkpt lat="48.4938" lon="2.67865">
        <ele>51</ele>
        <time>2023-04-16T09:08:03.765Z</time>
      </trkpt>
      <trkpt lat="48.49387" lon="2.67861">
        <ele>51</ele>
        <time>2023-04-16T09:08:09.067Z</time>
      </trkpt>
      <trkpt lat="48.49392" lon="2.67857">
        <ele>51</ele>
        <time>2023-04-16T09:08:13.708Z</time>
      </trkpt>
      <trkpt lat="48.49396" lon="2.67854">
        <ele>51</ele>
        <time>2023-04-16T09:08:18.068Z</time>
      </trkpt>
      <trkpt lat="48.49401" lon="2.67851">
        <ele>51</ele>
        <time>2023-04-16T09:08:23.181Z</time>
      </trkpt>
      <trkpt lat="48.49407" lon="2.67849">
        <ele>50</ele>
        <time>2023-04-16T09:08:28.162Z</time>
      </trkpt>
      <trkpt lat="48.49412" lon="2.67847">
        <ele>50</ele>
        <time>2023-04-16T09:08:32.340Z</time>
      </trkpt>
      <trkpt lat="48.49417" lon="2.67846">
        <ele>51</ele>
        <time>2023-04-16T09:08:36.537Z</time>
      </trkpt>
      <trkpt lat="48.49424" lon="2.67844">
        <ele>51</ele>
        <time>2023-04-16T09:08:41.155Z</time>
      </trkpt>
      <trkpt lat="48.49429" lon="2.67841">
        <ele>51</ele>
        <time>2023-04-16T09:08:45.136Z</time>
      </trkpt>
      <trkpt lat="48.49436" lon="2.67838">
        <ele>50</ele>
        <time>2023-04-16T09:08:49.313Z</time>
      </trkpt>
      <trkpt lat="48.49445" lon="2.67834">
        <ele>50</ele>
        <time>2023-04-16T09:08:53.287Z</time>
      </trkpt>
      <trkpt lat="48.49452" lon="2.67834">
        <ele>50</ele>
        <time>2023-04-16T09:08:57.345Z</time>
      </trkpt>
      <trkpt lat="48.49457" lon="2.67832">
        <ele>50</ele>
        <time>2023-04-16T09:09:02.083Z</time>
      </trkpt>
      <trkpt lat="48.49462" lon="2.67829">
        <ele>50</ele>
        <time>2023-04-16T09:09:06.562Z</time>
      </trkpt>
      <trkpt lat="48.49468" lon="2.67825">
        <ele>50</ele>
        <time>2023-04-16T09:09:10.963Z</time>
      </trkpt>
      <trkpt lat="48.49475" lon="2.67823">
        <ele>50</ele>
        <time>2023-04-16T09:09:14.902Z</time>
      </trkpt>
      <trkpt lat="48.49481" lon="2.67821">
        <ele>50</ele>
        <time>2023-04-16T09:09:18.761Z</time>
      </trkpt>
      <trkpt lat="48.49487" lon="2.67819">
        <ele>49</ele>
        <time>2023-04-16T09:09:22.900Z</time>
      </trkpt>
      <trkpt lat="48.49494" lon="2.67817">
        <ele>49</ele>
        <time>2023-04-16T09:09:26.977Z</time>
      </trkpt>
      <trkpt lat="48.49501" lon="2.67817">
        <ele>49</ele>
        <time>2023-04-16T09:09:31.973Z</time>
      </trkpt>
      <trkpt lat="48.49509" lon="2.67815">
        <ele>49</ele>
        <time>2023-04-16T09:09:36.729Z</time>
      </trkpt>
      <trkpt lat="48.49514" lon="2.67813">
        <ele>48</ele>
        <time>2023-04-16T09:09:41.227Z</time>
      </trkpt>
      <trkpt lat="48.4952" lon="2.6781">
        <ele>48</ele>
        <time>2023-04-16T09:09:45.904Z</time>
      </trkpt>
      <trkpt lat="48.49525" lon="2.67804">
        <ele>48</ele>
        <time>2023-04-16T09:09:50.363Z</time>
      </trkpt>
      <trkpt lat="48.49531" lon="2.67801">
        <ele>48</ele>
        <time>2023-04-16T09:09:54.686Z</time>
      </trkpt>
      <trkpt lat="48.49536" lon="2.678">
        <ele>48</ele>
        <time>2023-04-16T09:09:58.895Z</time>
      </trkpt>
      <trkpt lat="48.49541" lon="2.67799">
        <ele>48</ele>
        <time>2023-04-16T09:10:02.683Z</time>
      </trkpt>
      <trkpt lat="48.49547" lon="2.67797">
        <ele>47</ele>
        <time>2023-04-16T09:10:07.161Z</time>
      </trkpt>
      <trkpt lat="48.49553" lon="2.67795">
        <ele>47</ele>
        <time>2023-04-16T09:10:11.219Z</time>
      </trkpt>
      <trkpt lat="48.49559" lon="2.67791">
        <ele>47</ele>
        <time>2023-04-16T09:10:15.796Z</time>
      </trkpt>
      <trkpt lat="48.49565" lon="2.67789">
        <ele>47</ele>
        <time>2023-04-16T09:10:20.413Z</time>
      </trkpt>
      <trkpt lat="48.49571" lon="2.67789">
        <ele>46</ele>
        <time>2023-04-16T09:10:24.531Z</time>
      </trkpt>
      <trkpt lat="48.49577" lon="2.67788">
        <ele>46</ele>
        <time>2023-04-16T09:10:28.728Z</time>
      </trkpt>
      <trkpt lat="48.49584" lon="2.67784">
        <ele>46</ele>
        <time>2023-04-16T09:10:32.925Z</time>
      </trkpt>
      <trkpt lat="48.4959" lon="2.6778">
        <ele>46</ele>
        <time>2023-04-16T09:10:37.962Z</time>
      </trkpt>
      <trkpt lat="48.49597" lon="2.67778">
        <ele>47</ele>
        <time>2023-04-16T09:10:42.756Z</time>
      </trkpt>
      <trkpt lat="48.49604" lon="2.67776">
        <ele>47</ele>
        <time>2023-04-16T09:10:46.832Z</time>
      </trkpt>
      <trkpt lat="48.49612" lon="2.67774">
        <ele>47</ele>
        <time>2023-04-16T09:10:51.418Z</time>
      </trkpt>
      <trkpt lat="48.4962" lon="2.67772">
        <ele>47</ele>
        <time>2023-04-16T09:10:56.063Z</time>
      </trkpt>
      <trkpt lat="48.49624" lon="2.67766">
        <ele>47</ele>
        <time>2023-04-16T09:11:00.645Z</time>
      </trkpt>
      <trkpt lat="48.4963" lon="2.67759">
        <ele>49</ele>
        <time>2023-04-16T09:11:04.750Z</time>
      </trkpt>
      <trkpt lat="48.49636" lon="2.67757">
        <ele>49</ele>
        <time>2023-04-16T09:11:08.855Z</time>
      </trkpt>
      <trkpt lat="48.49642" lon="2.67753">
        <ele>49</ele>
        <time>2023-04-16T09:11:12.858Z</time>
      </trkpt>
      <trkpt lat="48.4965" lon="2.6775">
        <ele>49</ele>
        <time>2023-04-16T09:11:17.360Z</time>
      </trkpt>
      <trkpt lat="48.49657" lon="2.67748">
        <ele>49</ele>
        <time>2023-04-16T09:11:21.363Z</time>
      </trkpt>
      <trkpt lat="48.49664" lon="2.67747">
        <ele>49</ele>
        <time>2023-04-16T09:11:26.163Z</time>
      </trkpt>
      <trkpt lat="48.49671" lon="2.67743">
        <ele>49</ele>
        <time>2023-04-16T09:11:30.165Z</time>
      </trkpt>
      <trkpt lat="48.49676" lon="2.67741">
        <ele>49</ele>
        <time>2023-04-16T09:11:34.668Z</time>
      </trkpt>
      <trkpt lat="48.49681" lon="2.67739">
        <ele>49</ele>
        <time>2023-04-16T09:11:38.729Z</time>
      </trkpt>
      <trkpt lat="48.49685" lon="2.67736">
        <ele>49</ele>
        <time>2023-04-16T09:11:43.111Z</time>
      </trkpt>
      <trkpt lat="48.49688" lon="2.67732">
        <ele>49</ele>
        <time>2023-04-16T09:11:47.127Z</time>
      </trkpt>
      <trkpt lat="48.49695" lon="2.67725">
        <ele>49</ele>
        <time>2023-04-16T09:11:52.047Z</time>
      </trkpt>
      <trkpt lat="48.49701" lon="2.6772">
        <ele>49</ele>
        <time>2023-04-16T09:11:56.418Z</time>
      </trkpt>
      <trkpt lat="48.49706" lon="2.67716">
        <ele>49</ele>
        <time>2023-04-16T09:12:00.545Z</time>
      </trkpt>
      <trkpt lat="48.49711" lon="2.67713">
        <ele>48</ele>
        <time>2023-04-16T09:12:04.984Z</time>
      </trkpt>
      <trkpt lat="48.49717" lon="2.67709">
        <ele>48</ele>
        <time>2023-04-16T09:12:09.494Z</time>
      </trkpt>
      <trkpt lat="48.49723" lon="2.67703">
        <ele>50</ele>
        <time>2023-04-16T09:12:13.560Z</time>
      </trkpt>
      <trkpt lat="48.49729" lon="2.67697">
        <ele>50</ele>
        <time>2023-04-16T09:12:17.517Z</time>
      </trkpt>
      <trkpt lat="48.49737" lon="2.6769">
        <ele>50</ele>
        <time>2023-04-16T09:12:22.193Z</time>
      </trkpt>
      <trkpt lat="48.49745" lon="2.67687">
        <ele>50</ele>
        <time>2023-04-16T09:12:26.731Z</time>
      </trkpt>
      <trkpt lat="48.4975" lon="2.67681">
        <ele>50</ele>
        <time>2023-04-16T09:12:31.932Z</time>
      </trkpt>
      <trkpt lat="48.49757" lon="2.67676">
        <ele>51</ele>
        <time>2023-04-16T09:12:36.972Z</time>
      </trkpt>
      <trkpt lat="48.49762" lon="2.67674">
        <ele>51</ele>
        <time>2023-04-16T09:12:41.532Z</time>
      </trkpt>
      <trkpt lat="48.49766" lon="2.67667">
        <ele>51</ele>
        <time>2023-04-16T09:12:45.528Z</time>
      </trkpt>
      <trkpt lat="48.49768" lon="2.67663">
        <ele>51</ele>
        <time>2023-04-16T09:12:49.507Z</time>
      </trkpt>
      <trkpt lat="48.49773" lon="2.6766">
        <ele>51</ele>
        <time>2023-04-16T09:12:53.585Z</time>
      </trkpt>
      <trkpt lat="48.49779" lon="2.67657">
        <ele>51</ele>
        <time>2023-04-16T09:12:57.703Z</time>
      </trkpt>
      <trkpt lat="48.49786" lon="2.67655">
        <ele>51</ele>
        <time>2023-04-16T09:13:01.988Z</time>
      </trkpt>
      <trkpt lat="48.49794" lon="2.67655">
        <ele>52</ele>
        <time>2023-04-16T09:13:06.843Z</time>
      </trkpt>
      <trkpt lat="48.49801" lon="2.67653">
        <ele>52</ele>
        <time>2023-04-16T09:13:10.862Z</time>
      </trkpt>
      <trkpt lat="48.49807" lon="2.67652">
        <ele>52</ele>
        <time>2023-04-16T09:13:14.842Z</time>
      </trkpt>
      <trkpt lat="48.49813" lon="2.67651">
        <ele>52</ele>
        <time>2023-04-16T09:13:19.521Z</time>
      </trkpt>
      <trkpt lat="48.49818" lon="2.67648">
        <ele>52</ele>
        <time>2023-04-16T09:13:23.500Z</time>
      </trkpt>
      <trkpt lat="48.49822" lon="2.67647">
        <ele>51</ele>
        <time>2023-04-16T09:13:27.578Z</time>
      </trkpt>
      <trkpt lat="48.49824" lon="2.67645">
        <ele>51</ele>
        <time>2023-04-16T09:13:32.975Z</time>
      </trkpt>
      <trkpt lat="48.49829" lon="2.67643">
        <ele>51</ele>
        <time>2023-04-16T09:13:37.077Z</time>
      </trkpt>
      <trkpt lat="48.49834" lon="2.67641">
        <ele>51</ele>
        <time>2023-04-16T09:13:41.138Z</time>
      </trkpt>
      <trkpt lat="48.4984" lon="2.67642">
        <ele>51</ele>
        <time>2023-04-16T09:13:45.338Z</time>
      </trkpt>
      <trkpt lat="48.49846" lon="2.67641">
        <ele>51</ele>
        <time>2023-04-16T09:13:49.572Z</time>
      </trkpt>
      <trkpt lat="48.49853" lon="2.6764">
        <ele>50</ele>
        <time>2023-04-16T09:13:53.400Z</time>
      </trkpt>
      <trkpt lat="48.49859" lon="2.67638">
        <ele>50</ele>
        <time>2023-04-16T09:13:57.780Z</time>
      </trkpt>
      <trkpt lat="48.49866" lon="2.67637">
        <ele>50</ele>
        <time>2023-04-16T09:14:01.892Z</time>
      </trkpt>
      <trkpt lat="48.49875" lon="2.67637">
        <ele>50</ele>
        <time>2023-04-16T09:14:05.875Z</time>
      </trkpt>
      <trkpt lat="48.49883" lon="2.67636">
        <ele>51</ele>
        <time>2023-04-16T09:14:09.773Z</time>
      </trkpt>
      <trkpt lat="48.4989" lon="2.67635">
        <ele>51</ele>
        <time>2023-04-16T09:14:14.191Z</time>
      </trkpt>
      <trkpt lat="48.49897" lon="2.67634">
        <ele>51</ele>
        <time>2023-04-16T09:14:18.230Z</time>
      </trkpt>
      <trkpt lat="48.49903" lon="2.67631">
        <ele>51</ele>
        <time>2023-04-16T09:14:22.735Z</time>
      </trkpt>
      <trkpt lat="48.49908" lon="2.67628">
        <ele>51</ele>
        <time>2023-04-16T09:14:26.955Z</time>
      </trkpt>
      <trkpt lat="48.49915" lon="2.67627">
        <ele>51</ele>
        <time>2023-04-16T09:14:31.697Z</time>
      </trkpt>
      <trkpt lat="48.4992" lon="2.67628">
        <ele>51</ele>
        <time>2023-04-16T09:14:35.958Z</time>
      </trkpt>
      <trkpt lat="48.49927" lon="2.67627">
        <ele>51</ele>
        <time>2023-04-16T09:14:40.778Z</time>
      </trkpt>
      <trkpt lat="48.49933" lon="2.67625">
        <ele>50</ele>
        <time>2023-04-16T09:14:44.919Z</time>
      </trkpt>
      <trkpt lat="48.49938" lon="2.67624">
        <ele>50</ele>
        <time>2023-04-16T09:14:48.922Z</time>
      </trkpt>
      <trkpt lat="48.49946" lon="2.67622">
        <ele>50</ele>
        <time>2023-04-16T09:14:53.682Z</time>
      </trkpt>
      <trkpt lat="48.49953" lon="2.67621">
        <ele>50</ele>
        <time>2023-04-16T09:14:57.763Z</time>
      </trkpt>
      <trkpt lat="48.49962" lon="2.67617">
        <ele>49</ele>
        <time>2023-04-16T09:15:02.326Z</time>
      </trkpt>
      <trkpt lat="48.49969" lon="2.67616">
        <ele>49</ele>
        <time>2023-04-16T09:15:06.328Z</time>
      </trkpt>
      <trkpt lat="48.49974" lon="2.67614">
        <ele>49</ele>
        <time>2023-04-16T09:15:10.529Z</time>
      </trkpt>
      <trkpt lat="48.4998" lon="2.67612">
        <ele>49</ele>
        <time>2023-04-16T09:15:14.830Z</time>
      </trkpt>
      <trkpt lat="48.49986" lon="2.67611">
        <ele>48</ele>
        <time>2023-04-16T09:15:18.831Z</time>
      </trkpt>
      <trkpt lat="48.49993" lon="2.67612">
        <ele>48</ele>
        <time>2023-04-16T09:15:23.012Z</time>
      </trkpt>
      <trkpt lat="48.49998" lon="2.67611">
        <ele>48</ele>
        <time>2023-04-16T09:15:27.692Z</time>
      </trkpt>
      <trkpt lat="48.50004" lon="2.67612">
        <ele>48</ele>
        <time>2023-04-16T09:15:31.992Z</time>
      </trkpt>
      <trkpt lat="48.5001" lon="2.67612">
        <ele>48</ele>
        <time>2023-04-16T09:15:35.972Z</time>
      </trkpt>
      <trkpt lat="48.50016" lon="2.67612">
        <ele>48</ele>
        <time>2023-04-16T09:15:40.031Z</time>
      </trkpt>
      <trkpt lat="48.50021" lon="2.67612">
        <ele>48</ele>
        <time>2023-04-16T09:15:44.411Z</time>
      </trkpt>
      <trkpt lat="48.50028" lon="2.6761">
        <ele>48</ele>
        <time>2023-04-16T09:15:48.632Z</time>
      </trkpt>
      <trkpt lat="48.50034" lon="2.67607">
        <ele>48</ele>
        <time>2023-04-16T09:15:53.134Z</time>
      </trkpt>
      <trkpt lat="48.5004" lon="2.67604">
        <ele>48</ele>
        <time>2023-04-16T09:15:57.834Z</time>
      </trkpt>
      <trkpt lat="48.50046" lon="2.67602">
        <ele>49</ele>
        <time>2023-04-16T09:16:02.015Z</time>
      </trkpt>
      <trkpt lat="48.50052" lon="2.676">
        <ele>49</ele>
        <time>2023-04-16T09:16:06.236Z</time>
      </trkpt>
      <trkpt lat="48.50058" lon="2.67598">
        <ele>49</ele>
        <time>2023-04-16T09:16:10.795Z</time>
      </trkpt>
      <trkpt lat="48.50065" lon="2.67597">
        <ele>49</ele>
        <time>2023-04-16T09:16:14.774Z</time>
      </trkpt>
      <trkpt lat="48.50072" lon="2.67596">
        <ele>49</ele>
        <time>2023-04-16T09:16:19.715Z</time>
      </trkpt>
      <trkpt lat="48.50079" lon="2.67594">
        <ele>49</ele>
        <time>2023-04-16T09:16:24.446Z</time>
      </trkpt>
      <trkpt lat="48.50084" lon="2.67593">
        <ele>49</ele>
        <time>2023-04-16T09:16:28.577Z</time>
      </trkpt>
      <trkpt lat="48.5009" lon="2.67593">
        <ele>49</ele>
        <time>2023-04-16T09:16:32.990Z</time>
      </trkpt>
      <trkpt lat="48.50098" lon="2.67593">
        <ele>48</ele>
        <time>2023-04-16T09:16:36.877Z</time>
      </trkpt>
      <trkpt lat="48.50106" lon="2.67592">
        <ele>48</ele>
        <time>2023-04-16T09:16:40.837Z</time>
      </trkpt>
      <trkpt lat="48.50115" lon="2.67589">
        <ele>48</ele>
        <time>2023-04-16T09:16:45.416Z</time>
      </trkpt>
      <trkpt lat="48.50121" lon="2.67589">
        <ele>48</ele>
        <time>2023-04-16T09:16:49.597Z</time>
      </trkpt>
      <trkpt lat="48.50127" lon="2.67588">
        <ele>47</ele>
        <time>2023-04-16T09:16:53.858Z</time>
      </trkpt>
      <trkpt lat="48.50133" lon="2.67586">
        <ele>47</ele>
        <time>2023-04-16T09:16:57.900Z</time>
      </trkpt>
      <trkpt lat="48.50139" lon="2.67584">
        <ele>47</ele>
        <time>2023-04-16T09:17:02.160Z</time>
      </trkpt>
      <trkpt lat="48.50146" lon="2.67585">
        <ele>47</ele>
        <time>2023-04-16T09:17:06.699Z</time>
      </trkpt>
      <trkpt lat="48.50153" lon="2.67587">
        <ele>47</ele>
        <time>2023-04-16T09:17:12.170Z</time>
      </trkpt>
      <trkpt lat="48.50154" lon="2.67594">
        <ele>47</ele>
        <time>2023-04-16T09:17:15.959Z</time>
      </trkpt>
      <trkpt lat="48.50155" lon="2.67603">
        <ele>47</ele>
        <time>2023-04-16T09:17:21.060Z</time>
      </trkpt>
      <trkpt lat="48.50155" lon="2.67611">
        <ele>47</ele>
        <time>2023-04-16T09:17:25.062Z</time>
      </trkpt>
      <trkpt lat="48.50153" lon="2.6762">
        <ele>47</ele>
        <time>2023-04-16T09:17:29.542Z</time>
      </trkpt>
      <trkpt lat="48.50152" lon="2.67628">
        <ele>47</ele>
        <time>2023-04-16T09:17:33.723Z</time>
      </trkpt>
      <trkpt lat="48.50153" lon="2.67637">
        <ele>46</ele>
        <time>2023-04-16T09:17:38.245Z</time>
      </trkpt>
      <trkpt lat="48.50153" lon="2.67644">
        <ele>47</ele>
        <time>2023-04-16T09:17:42.247Z</time>
      </trkpt>
      <trkpt lat="48.50152" lon="2.67653">
        <ele>47</ele>
        <time>2023-04-16T09:17:46.868Z</time>
      </trkpt>
      <trkpt lat="48.50153" lon="2.67663">
        <ele>47</ele>
        <time>2023-04-16T09:17:50.870Z</time>
      </trkpt>
      <trkpt lat="48.50152" lon="2.67669">
        <ele>47</ele>
        <time>2023-04-16T09:17:55.050Z</time>
      </trkpt>
      <trkpt lat="48.50154" lon="2.6768">
        <ele>46</ele>
        <time>2023-04-16T09:18:00.053Z</time>
      </trkpt>
      <trkpt lat="48.50157" lon="2.67688">
        <ele>48</ele>
        <time>2023-04-16T09:18:04.354Z</time>
      </trkpt>
      <trkpt lat="48.5016" lon="2.67695">
        <ele>48</ele>
        <time>2023-04-16T09:18:08.988Z</time>
      </trkpt>
      <trkpt lat="48.50161" lon="2.67702">
        <ele>48</ele>
        <time>2023-04-16T09:18:13.155Z</time>
      </trkpt>
      <trkpt lat="48.50163" lon="2.67711">
        <ele>50</ele>
        <time>2023-04-16T09:18:17.677Z</time>
      </trkpt>
      <trkpt lat="48.50165" lon="2.67718">
        <ele>50</ele>
        <time>2023-04-16T09:18:21.699Z</time>
      </trkpt>
      <trkpt lat="48.50167" lon="2.67725">
        <ele>50</ele>
        <time>2023-04-16T09:18:25.780Z</time>
      </trkpt>
      <trkpt lat="48.50169" lon="2.67734">
        <ele>50</ele>
        <time>2023-04-16T09:18:30.882Z</time>
      </trkpt>
      <trkpt lat="48.50172" lon="2.67738">
        <ele>52</ele>
        <time>2023-04-16T09:18:35.626Z</time>
      </trkpt>
      <trkpt lat="48.50173" lon="2.67747">
        <ele>52</ele>
        <time>2023-04-16T09:18:39.746Z</time>
      </trkpt>
      <trkpt lat="48.50178" lon="2.67755">
        <ele>52</ele>
        <time>2023-04-16T09:18:43.748Z</time>
      </trkpt>
      <trkpt lat="48.50183" lon="2.67761">
        <ele>51</ele>
        <time>2023-04-16T09:18:48.389Z</time>
      </trkpt>
      <trkpt lat="48.50187" lon="2.67767">
        <ele>55</ele>
        <time>2023-04-16T09:18:52.393Z</time>
      </trkpt>
      <trkpt lat="48.50191" lon="2.67772">
        <ele>55</ele>
        <time>2023-04-16T09:18:56.895Z</time>
      </trkpt>
      <trkpt lat="48.50195" lon="2.67777">
        <ele>55</ele>
        <time>2023-04-16T09:19:01.096Z</time>
      </trkpt>
      <trkpt lat="48.50199" lon="2.67783">
        <ele>55</ele>
        <time>2023-04-16T09:19:05.418Z</time>
      </trkpt>
      <trkpt lat="48.50204" lon="2.67788">
        <ele>55</ele>
        <time>2023-04-16T09:19:09.796Z</time>
      </trkpt>
      <trkpt lat="48.50209" lon="2.67795">
        <ele>58</ele>
        <time>2023-04-16T09:19:14.537Z</time>
      </trkpt>
      <trkpt lat="48.50213" lon="2.67799">
        <ele>58</ele>
        <time>2023-04-16T09:19:18.758Z</time>
      </trkpt>
      <trkpt lat="48.50216" lon="2.67801">
        <ele>58</ele>
        <time>2023-04-16T09:19:22.839Z</time>
      </trkpt>
      <trkpt lat="48.5022" lon="2.67805">
        <ele>58</ele>
        <time>2023-04-16T09:19:26.942Z</time>
      </trkpt>
      <trkpt lat="48.50225" lon="2.67811">
        <ele>58</ele>
        <time>2023-04-16T09:19:31.547Z</time>
      </trkpt>
      <trkpt lat="48.5023" lon="2.67819">
        <ele>58</ele>
        <time>2023-04-16T09:19:36.050Z</time>
      </trkpt>
      <trkpt lat="48.50234" lon="2.67825">
        <ele>59</ele>
        <time>2023-04-16T09:19:40.191Z</time>
      </trkpt>
      <trkpt lat="48.50239" lon="2.6783">
        <ele>59</ele>
        <time>2023-04-16T09:19:44.694Z</time>
      </trkpt>
      <trkpt lat="48.50243" lon="2.67837">
        <ele>59</ele>
        <time>2023-04-16T09:19:48.697Z</time>
      </trkpt>
      <trkpt lat="48.50248" lon="2.67843">
        <ele>59</ele>
        <time>2023-04-16T09:19:52.799Z</time>
      </trkpt>
      <trkpt lat="48.50252" lon="2.67849">
        <ele>59</ele>
        <time>2023-04-16T09:19:57.841Z</time>
      </trkpt>
      <trkpt lat="48.50255" lon="2.67854">
        <ele>59</ele>
        <time>2023-04-16T09:20:02.141Z</time>
      </trkpt>
      <trkpt lat="48.50259" lon="2.67861">
        <ele>59</ele>
        <time>2023-04-16T09:20:06.160Z</time>
      </trkpt>
      <trkpt lat="48.50263" lon="2.67867">
        <ele>59</ele>
        <time>2023-04-16T09:20:10.020Z</time>
      </trkpt>
      <trkpt lat="48.50266" lon="2.67874">
        <ele>59</ele>
        <time>2023-04-16T09:20:13.919Z</time>
      </trkpt>
      <trkpt lat="48.50273" lon="2.67881">
        <ele>59</ele>
        <time>2023-04-16T09:20:18.999Z</time>
      </trkpt>
      <trkpt lat="48.50278" lon="2.67888">
        <ele>59</ele>
        <time>2023-04-16T09:20:23.351Z</time>
      </trkpt>
      <trkpt lat="48.50282" lon="2.67896">
        <ele>59</ele>
        <time>2023-04-16T09:20:27.659Z</time>
      </trkpt>
      <trkpt lat="48.50286" lon="2.67902">
        <ele>59</ele>
        <time>2023-04-16T09:20:32.702Z</time>
      </trkpt>
      <trkpt lat="48.50288" lon="2.67908">
        <ele>59</ele>
        <time>2023-04-16T09:20:37.022Z</time>
      </trkpt>
      <trkpt lat="48.50294" lon="2.67912">
        <ele>59</ele>
        <time>2023-04-16T09:20:41.354Z</time>
      </trkpt>
      <trkpt lat="48.50298" lon="2.67918">
        <ele>59</ele>
        <time>2023-04-16T09:20:45.301Z</time>
      </trkpt>
      <trkpt lat="48.50303" lon="2.67925">
        <ele>59</ele>
        <time>2023-04-16T09:20:49.782Z</time>
      </trkpt>
      <trkpt lat="48.50307" lon="2.67932">
        <ele>59</ele>
        <time>2023-04-16T09:20:54.761Z</time>
      </trkpt>
      <trkpt lat="48.50311" lon="2.67938">
        <ele>59</ele>
        <time>2023-04-16T09:20:59.041Z</time>
      </trkpt>
      <trkpt lat="48.50316" lon="2.67944">
        <ele>59</ele>
        <time>2023-04-16T09:21:04.104Z</time>
      </trkpt>
      <trkpt lat="48.50322" lon="2.67951">
        <ele>58</ele>
        <time>2023-04-16T09:21:08.224Z</time>
      </trkpt>
      <trkpt lat="48.50327" lon="2.67958">
        <ele>58</ele>
        <time>2023-04-16T09:21:12.885Z</time>
      </trkpt>
      <trkpt lat="48.50332" lon="2.67966">
        <ele>60</ele>
        <time>2023-04-16T09:21:18.236Z</time>
      </trkpt>
      <trkpt lat="48.50336" lon="2.67972">
        <ele>60</ele>
        <time>2023-04-16T09:21:22.328Z</time>
      </trkpt>
      <trkpt lat="48.5034" lon="2.67979">
        <ele>60</ele>
        <time>2023-04-16T09:21:26.950Z</time>
      </trkpt>
      <trkpt lat="48.50345" lon="2.67985">
        <ele>60</ele>
        <time>2023-04-16T09:21:31.290Z</time>
      </trkpt>
      <trkpt lat="48.50351" lon="2.67994">
        <ele>61</ele>
        <time>2023-04-16T09:21:35.669Z</time>
      </trkpt>
      <trkpt lat="48.50356" lon="2.68">
        <ele>61</ele>
        <time>2023-04-16T09:21:40.148Z</time>
      </trkpt>
      <trkpt lat="48.50361" lon="2.68004">
        <ele>61</ele>
        <time>2023-04-16T09:21:44.433Z</time>
      </trkpt>
      <trkpt lat="48.50367" lon="2.68009">
        <ele>61</ele>
        <time>2023-04-16T09:21:48.912Z</time>
      </trkpt>
      <trkpt lat="48.50371" lon="2.68014">
        <ele>61</ele>
        <time>2023-04-16T09:21:52.788Z</time>
      </trkpt>
      <trkpt lat="48.50375" lon="2.68019">
        <ele>61</ele>
        <time>2023-04-16T09:21:56.949Z</time>
      </trkpt>
      <trkpt lat="48.50379" lon="2.68025">
        <ele>61</ele>
        <time>2023-04-16T09:22:01.289Z</time>
      </trkpt>
      <trkpt lat="48.50384" lon="2.68033">
        <ele>61</ele>
        <time>2023-04-16T09:22:05.672Z</time>
      </trkpt>
      <trkpt lat="48.50387" lon="2.6804">
        <ele>61</ele>
        <time>2023-04-16T09:22:09.887Z</time>
      </trkpt>
      <trkpt lat="48.5039" lon="2.68046">
        <ele>62</ele>
        <time>2023-04-16T09:22:14.568Z</time>
      </trkpt>
      <trkpt lat="48.50393" lon="2.68053">
        <ele>62</ele>
        <time>2023-04-16T09:22:18.908Z</time>
      </trkpt>
      <trkpt lat="48.50395" lon="2.68061">
        <ele>62</ele>
        <time>2023-04-16T09:22:22.908Z</time>
      </trkpt>
      <trkpt lat="48.50398" lon="2.68071">
        <ele>63</ele>
        <time>2023-04-16T09:22:27.928Z</time>
      </trkpt>
      <trkpt lat="48.504" lon="2.6808">
        <ele>63</ele>
        <time>2023-04-16T09:22:32.488Z</time>
      </trkpt>
      <trkpt lat="48.50403" lon="2.68087">
        <ele>62</ele>
        <time>2023-04-16T09:22:36.932Z</time>
      </trkpt>
      <trkpt lat="48.50405" lon="2.68094">
        <ele>62</ele>
        <time>2023-04-16T09:22:40.766Z</time>
      </trkpt>
      <trkpt lat="48.50407" lon="2.68102">
        <ele>62</ele>
        <time>2023-04-16T09:22:44.705Z</time>
      </trkpt>
      <trkpt lat="48.50409" lon="2.68111">
        <ele>62</ele>
        <time>2023-04-16T09:22:49.369Z</time>
      </trkpt>
      <trkpt lat="48.50412" lon="2.68119">
        <ele>62</ele>
        <time>2023-04-16T09:22:53.723Z</time>
      </trkpt>
      <trkpt lat="48.50414" lon="2.68127">
        <ele>61</ele>
        <time>2023-04-16T09:22:57.924Z</time>
      </trkpt>
      <trkpt lat="48.50417" lon="2.68136">
        <ele>61</ele>
        <time>2023-04-16T09:23:01.985Z</time>
      </trkpt>
      <trkpt lat="48.50422" lon="2.68145">
        <ele>61</ele>
        <time>2023-04-16T09:23:07.067Z</time>
      </trkpt>
      <trkpt lat="48.50424" lon="2.68156">
        <ele>61</ele>
        <time>2023-04-16T09:23:11.629Z</time>
      </trkpt>
      <trkpt lat="48.50427" lon="2.68165">
        <ele>61</ele>
        <time>2023-04-16T09:23:15.691Z</time>
      </trkpt>
      <trkpt lat="48.50427" lon="2.68172">
        <ele>61</ele>
        <time>2023-04-16T09:23:19.713Z</time>
      </trkpt>
      <trkpt lat="48.50427" lon="2.68176">
        <ele>61</ele>
        <time>2023-04-16T09:23:23.953Z</time>
      </trkpt>
      <trkpt lat="48.50429" lon="2.68184">
        <ele>60</ele>
        <time>2023-04-16T09:23:28.194Z</time>
      </trkpt>
      <trkpt lat="48.50431" lon="2.68193">
        <ele>61</ele>
        <time>2023-04-16T09:23:32.356Z</time>
      </trkpt>
      <trkpt lat="48.50435" lon="2.68205">
        <ele>61</ele>
        <time>2023-04-16T09:23:36.417Z</time>
      </trkpt>
      <trkpt lat="48.50437" lon="2.68215">
        <ele>61</ele>
        <time>2023-04-16T09:23:40.498Z</time>
      </trkpt>
      <trkpt lat="48.5044" lon="2.68225">
        <ele>61</ele>
        <time>2023-04-16T09:23:44.779Z</time>
      </trkpt>
      <trkpt lat="48.50441" lon="2.68235">
        <ele>61</ele>
        <time>2023-04-16T09:23:49.631Z</time>
      </trkpt>
      <trkpt lat="48.50444" lon="2.68241">
        <ele>60</ele>
        <time>2023-04-16T09:23:53.637Z</time>
      </trkpt>
      <trkpt lat="48.50445" lon="2.68247">
        <ele>60</ele>
        <time>2023-04-16T09:23:57.957Z</time>
      </trkpt>
      <trkpt lat="48.50448" lon="2.68255">
        <ele>60</ele>
        <time>2023-04-16T09:24:02.588Z</time>
      </trkpt>
      <trkpt lat="48.50451" lon="2.68265">
        <ele>59</ele>
        <time>2023-04-16T09:24:06.334Z</time>
      </trkpt>
      <trkpt lat="48.50457" lon="2.68278">
        <ele>59</ele>
        <time>2023-04-16T09:24:10.746Z</time>
      </trkpt>
      <trkpt lat="48.50465" lon="2.68281">
        <ele>59</ele>
        <time>2023-04-16T09:24:14.534Z</time>
      </trkpt>
      <trkpt lat="48.50474" lon="2.68277">
        <ele>59</ele>
        <time>2023-04-16T09:24:18.933Z</time>
      </trkpt>
      <trkpt lat="48.5048" lon="2.68272">
        <ele>59</ele>
        <time>2023-04-16T09:24:23.594Z</time>
      </trkpt>
      <trkpt lat="48.50487" lon="2.68264">
        <ele>58</ele>
        <time>2023-04-16T09:24:28.099Z</time>
      </trkpt>
      <trkpt lat="48.50494" lon="2.68259">
        <ele>59</ele>
        <time>2023-04-16T09:24:32.602Z</time>
      </trkpt>
      <trkpt lat="48.505" lon="2.68255">
        <ele>59</ele>
        <time>2023-04-16T09:24:36.605Z</time>
      </trkpt>
      <trkpt lat="48.50506" lon="2.68252">
        <ele>59</ele>
        <time>2023-04-16T09:24:40.608Z</time>
      </trkpt>
      <trkpt lat="48.50512" lon="2.68249">
        <ele>59</ele>
        <time>2023-04-16T09:24:44.630Z</time>
      </trkpt>
      <trkpt lat="48.50518" lon="2.68246">
        <ele>57</ele>
        <time>2023-04-16T09:24:49.152Z</time>
      </trkpt>
      <trkpt lat="48.50524" lon="2.68241">
        <ele>57</ele>
        <time>2023-04-16T09:24:53.656Z</time>
      </trkpt>
      <trkpt lat="48.50529" lon="2.6824">
        <ele>57</ele>
        <time>2023-04-16T09:24:58.237Z</time>
      </trkpt>
      <trkpt lat="48.50534" lon="2.68236">
        <ele>57</ele>
        <time>2023-04-16T09:25:02.740Z</time>
      </trkpt>
      <trkpt lat="48.50539" lon="2.68231">
        <ele>58</ele>
        <time>2023-04-16T09:25:07.342Z</time>
      </trkpt>
      <trkpt lat="48.50545" lon="2.68225">
        <ele>56</ele>
        <time>2023-04-16T09:25:11.984Z</time>
      </trkpt>
      <trkpt lat="48.50549" lon="2.68222">
        <ele>56</ele>
        <time>2023-04-16T09:25:16.383Z</time>
      </trkpt>
      <trkpt lat="48.50554" lon="2.68218">
        <ele>56</ele>
        <time>2023-04-16T09:25:20.504Z</time>
      </trkpt>
      <trkpt lat="48.50559" lon="2.68213">
        <ele>56</ele>
        <time>2023-04-16T09:25:24.585Z</time>
      </trkpt>
      <trkpt lat="48.50564" lon="2.68207">
        <ele>56</ele>
        <time>2023-04-16T09:25:28.686Z</time>
      </trkpt>
      <trkpt lat="48.50571" lon="2.68201">
        <ele>56</ele>
        <time>2023-04-16T09:25:32.867Z</time>
      </trkpt>
      <trkpt lat="48.50578" lon="2.68195">
        <ele>56</ele>
        <time>2023-04-16T09:25:37.214Z</time>
      </trkpt>
      <trkpt lat="48.50584" lon="2.68189">
        <ele>56</ele>
        <time>2023-04-16T09:25:41.509Z</time>
      </trkpt>
      <trkpt lat="48.50588" lon="2.68186">
        <ele>56</ele>
        <time>2023-04-16T09:25:45.365Z</time>
      </trkpt>
      <trkpt lat="48.50592" lon="2.68184">
        <ele>56</ele>
        <time>2023-04-16T09:25:49.285Z</time>
      </trkpt>
      <trkpt lat="48.50596" lon="2.6818">
        <ele>57</ele>
        <time>2023-04-16T09:25:53.923Z</time>
      </trkpt>
      <trkpt lat="48.50602" lon="2.68174">
        <ele>57</ele>
        <time>2023-04-16T09:25:58.521Z</time>
      </trkpt>
      <trkpt lat="48.50608" lon="2.6817">
        <ele>57</ele>
        <time>2023-04-16T09:26:03.159Z</time>
      </trkpt>
      <trkpt lat="48.50615" lon="2.68164">
        <ele>57</ele>
        <time>2023-04-16T09:26:08.019Z</time>
      </trkpt>
      <trkpt lat="48.5062" lon="2.68159">
        <ele>57</ele>
        <time>2023-04-16T09:26:12.737Z</time>
      </trkpt>
      <trkpt lat="48.50626" lon="2.68155">
        <ele>57</ele>
        <time>2023-04-16T09:26:16.816Z</time>
      </trkpt>
      <trkpt lat="48.50633" lon="2.68151">
        <ele>59</ele>
        <time>2023-04-16T09:26:21.716Z</time>
      </trkpt>
      <trkpt lat="48.50639" lon="2.68147">
        <ele>59</ele>
        <time>2023-04-16T09:26:26.096Z</time>
      </trkpt>
      <trkpt lat="48.50643" lon="2.68141">
        <ele>59</ele>
        <time>2023-04-16T09:26:30.297Z</time>
      </trkpt>
      <trkpt lat="48.50648" lon="2.68138">
        <ele>59</ele>
        <time>2023-04-16T09:26:34.518Z</time>
      </trkpt>
      <trkpt lat="48.50652" lon="2.68133">
        <ele>59</ele>
        <time>2023-04-16T09:26:38.937Z</time>
      </trkpt>
      <trkpt lat="48.50658" lon="2.68131">
        <ele>59</ele>
        <time>2023-04-16T09:26:43.377Z</time>
      </trkpt>
      <trkpt lat="48.50665" lon="2.68126">
        <ele>59</ele>
        <time>2023-04-16T09:26:47.968Z</time>
      </trkpt>
      <trkpt lat="48.50671" lon="2.68121">
        <ele>60</ele>
        <time>2023-04-16T09:26:52.035Z</time>
      </trkpt>
      <trkpt lat="48.50679" lon="2.68116">
        <ele>60</ele>
        <time>2023-04-16T09:26:57.204Z</time>
      </trkpt>
      <trkpt lat="48.50684" lon="2.68114">
        <ele>59</ele>
        <time>2023-04-16T09:27:01.112Z</time>
      </trkpt>
      <trkpt lat="48.50689" lon="2.6811">
        <ele>59</ele>
        <time>2023-04-16T09:27:05.418Z</time>
      </trkpt>
      <trkpt lat="48.50694" lon="2.68106">
        <ele>59</ele>
        <time>2023-04-16T09:27:09.856Z</time>
      </trkpt>
      <trkpt lat="48.507" lon="2.68102">
        <ele>59</ele>
        <time>2023-04-16T09:27:14.187Z</time>
      </trkpt>
      <trkpt lat="48.50705" lon="2.68095">
        <ele>59</ele>
        <time>2023-04-16T09:27:18.731Z</time>
      </trkpt>
      <trkpt lat="48.5071" lon="2.68086">
        <ele>57</ele>
        <time>2023-04-16T09:27:22.815Z</time>
      </trkpt>
      <trkpt lat="48.50715" lon="2.68079">
        <ele>57</ele>
        <time>2023-04-16T09:27:26.708Z</time>
      </trkpt>
      <trkpt lat="48.5072" lon="2.68074">
        <ele>57</ele>
        <time>2023-04-16T09:27:32.090Z</time>
      </trkpt>
      <trkpt lat="48.50725" lon="2.6807">
        <ele>57</ele>
        <time>2023-04-16T09:27:36.064Z</time>
      </trkpt>
      <trkpt lat="48.5073" lon="2.68066">
        <ele>57</ele>
        <time>2023-04-16T09:27:40.562Z</time>
      </trkpt>
      <trkpt lat="48.50736" lon="2.68062">
        <ele>57</ele>
        <time>2023-04-16T09:27:45.101Z</time>
      </trkpt>
      <trkpt lat="48.50741" lon="2.68058">
        <ele>56</ele>
        <time>2023-04-16T09:27:49.182Z</time>
      </trkpt>
      <trkpt lat="48.50746" lon="2.68052">
        <ele>56</ele>
        <time>2023-04-16T09:27:53.863Z</time>
      </trkpt>
      <trkpt lat="48.50755" lon="2.68044">
        <ele>56</ele>
        <time>2023-04-16T09:27:58.823Z</time>
      </trkpt>
      <trkpt lat="48.50759" lon="2.68039">
        <ele>56</ele>
        <time>2023-04-16T09:28:02.723Z</time>
      </trkpt>
      <trkpt lat="48.50763" lon="2.68034">
        <ele>56</ele>
        <time>2023-04-16T09:28:07.382Z</time>
      </trkpt>
      <trkpt lat="48.5077" lon="2.68028">
        <ele>57</ele>
        <time>2023-04-16T09:28:11.723Z</time>
      </trkpt>
      <trkpt lat="48.50777" lon="2.6802">
        <ele>57</ele>
        <time>2023-04-16T09:28:17.084Z</time>
      </trkpt>
      <trkpt lat="48.50783" lon="2.68016">
        <ele>57</ele>
        <time>2023-04-16T09:28:21.543Z</time>
      </trkpt>
      <trkpt lat="48.50787" lon="2.68012">
        <ele>57</ele>
        <time>2023-04-16T09:28:25.542Z</time>
      </trkpt>
      <trkpt lat="48.50793" lon="2.68011">
        <ele>58</ele>
        <time>2023-04-16T09:28:30.101Z</time>
      </trkpt>
      <trkpt lat="48.50799" lon="2.68003">
        <ele>58</ele>
        <time>2023-04-16T09:28:34.501Z</time>
      </trkpt>
      <trkpt lat="48.50805" lon="2.67997">
        <ele>58</ele>
        <time>2023-04-16T09:28:38.702Z</time>
      </trkpt>
      <trkpt lat="48.50811" lon="2.67992">
        <ele>58</ele>
        <time>2023-04-16T09:28:43.263Z</time>
      </trkpt>
      <trkpt lat="48.50818" lon="2.67988">
        <ele>58</ele>
        <time>2023-04-16T09:28:48.148Z</time>
      </trkpt>
      <trkpt lat="48.50823" lon="2.67983">
        <ele>59</ele>
        <time>2023-04-16T09:28:51.768Z</time>
      </trkpt>
      <trkpt lat="48.50829" lon="2.67978">
        <ele>59</ele>
        <time>2023-04-16T09:28:56.274Z</time>
      </trkpt>
      <trkpt lat="48.50833" lon="2.67973">
        <ele>59</ele>
        <time>2023-04-16T09:29:00.880Z</time>
      </trkpt>
      <trkpt lat="48.5084" lon="2.67967">
        <ele>59</ele>
        <time>2023-04-16T09:29:05.886Z</time>
      </trkpt>
      <trkpt lat="48.50847" lon="2.67962">
        <ele>59</ele>
        <time>2023-04-16T09:29:10.891Z</time>
      </trkpt>
      <trkpt lat="48.50854" lon="2.67958">
        <ele>60</ele>
        <time>2023-04-16T09:29:15.895Z</time>
      </trkpt>
      <trkpt lat="48.5086" lon="2.67956">
        <ele>60</ele>
        <time>2023-04-16T09:29:20.898Z</time>
      </trkpt>
      <trkpt lat="48.50866" lon="2.67952">
        <ele>60</ele>
        <time>2023-04-16T09:29:25.098Z</time>
      </trkpt>
      <trkpt lat="48.50872" lon="2.6795">
        <ele>60</ele>
        <time>2023-04-16T09:29:29.200Z</time>
      </trkpt>
      <trkpt lat="48.50878" lon="2.67947">
        <ele>58</ele>
        <time>2023-04-16T09:29:33.418Z</time>
      </trkpt>
      <trkpt lat="48.50883" lon="2.67942">
        <ele>58</ele>
        <time>2023-04-16T09:29:38.201Z</time>
      </trkpt>
      <trkpt lat="48.50887" lon="2.67939">
        <ele>58</ele>
        <time>2023-04-16T09:29:42.041Z</time>
      </trkpt>
      <trkpt lat="48.50893" lon="2.67937">
        <ele>58</ele>
        <time>2023-04-16T09:29:46.663Z</time>
      </trkpt>
      <trkpt lat="48.50899" lon="2.67934">
        <ele>58</ele>
        <time>2023-04-16T09:29:51.057Z</time>
      </trkpt>
      <trkpt lat="48.50905" lon="2.67932">
        <ele>56</ele>
        <time>2023-04-16T09:29:55.463Z</time>
      </trkpt>
      <trkpt lat="48.50909" lon="2.67929">
        <ele>56</ele>
        <time>2023-04-16T09:29:59.743Z</time>
      </trkpt>
      <trkpt lat="48.50912" lon="2.67925">
        <ele>56</ele>
        <time>2023-04-16T09:30:03.924Z</time>
      </trkpt>
      <trkpt lat="48.50917" lon="2.67922">
        <ele>56</ele>
        <time>2023-04-16T09:30:08.045Z</time>
      </trkpt>
      <trkpt lat="48.50926" lon="2.67912">
        <ele>56</ele>
        <time>2023-04-16T09:30:12.025Z</time>
      </trkpt>
      <trkpt lat="48.50934" lon="2.67908">
        <ele>55</ele>
        <time>2023-04-16T09:30:16.785Z</time>
      </trkpt>
      <trkpt lat="48.50942" lon="2.67904">
        <ele>55</ele>
        <time>2023-04-16T09:30:21.046Z</time>
      </trkpt>
      <trkpt lat="48.50948" lon="2.67903">
        <ele>55</ele>
        <time>2023-04-16T09:30:25.149Z</time>
      </trkpt>
      <trkpt lat="48.50954" lon="2.67903">
        <ele>55</ele>
        <time>2023-04-16T09:30:29.711Z</time>
      </trkpt>
      <trkpt lat="48.50955" lon="2.67909">
        <ele>55</ele>
        <time>2023-04-16T09:30:33.854Z</time>
      </trkpt>
      <trkpt lat="48.50956" lon="2.67915">
        <ele>55</ele>
        <time>2023-04-16T09:30:37.512Z</time>
      </trkpt>
      <trkpt lat="48.50952" lon="2.67918">
        <ele>55</ele>
        <time>2023-04-16T09:30:41.872Z</time>
      </trkpt>
      <trkpt lat="48.50948" lon="2.6792">
        <ele>55</ele>
        <time>2023-04-16T09:30:46.375Z</time>
      </trkpt>
      <trkpt lat="48.50943" lon="2.67927">
        <ele>55</ele>
        <time>2023-04-16T09:30:50.879Z</time>
      </trkpt>
      <trkpt lat="48.50945" lon="2.67936">
        <ele>56</ele>
        <time>2023-04-16T09:30:54.980Z</time>
      </trkpt>
      <trkpt lat="48.50947" lon="2.67946">
        <ele>56</ele>
        <time>2023-04-16T09:30:59.542Z</time>
      </trkpt>
      <trkpt lat="48.5095" lon="2.67957">
        <ele>56</ele>
        <time>2023-04-16T09:31:04.044Z</time>
      </trkpt>
      <trkpt lat="48.50953" lon="2.67967">
        <ele>55</ele>
        <time>2023-04-16T09:31:08.706Z</time>
      </trkpt>
      <trkpt lat="48.50956" lon="2.67975">
        <ele>55</ele>
        <time>2023-04-16T09:31:12.926Z</time>
      </trkpt>
      <trkpt lat="48.50959" lon="2.67983">
        <ele>56</ele>
        <time>2023-04-16T09:31:17.194Z</time>
      </trkpt>
      <trkpt lat="48.5096" lon="2.67992">
        <ele>57</ele>
        <time>2023-04-16T09:31:21.307Z</time>
      </trkpt>
      <trkpt lat="48.50962" lon="2.68">
        <ele>57</ele>
        <time>2023-04-16T09:31:25.329Z</time>
      </trkpt>
      <trkpt lat="48.50965" lon="2.68007">
        <ele>57</ele>
        <time>2023-04-16T09:31:29.689Z</time>
      </trkpt>
      <trkpt lat="48.50967" lon="2.68015">
        <ele>58</ele>
        <time>2023-04-16T09:31:33.709Z</time>
      </trkpt>
      <trkpt lat="48.50969" lon="2.68024">
        <ele>58</ele>
        <time>2023-04-16T09:31:37.949Z</time>
      </trkpt>
      <trkpt lat="48.50968" lon="2.68032">
        <ele>58</ele>
        <time>2023-04-16T09:31:42.809Z</time>
      </trkpt>
      <trkpt lat="48.5097" lon="2.68041">
        <ele>58</ele>
        <time>2023-04-16T09:31:47.149Z</time>
      </trkpt>
      <trkpt lat="48.50972" lon="2.68051">
        <ele>58</ele>
        <time>2023-04-16T09:31:51.069Z</time>
      </trkpt>
      <trkpt lat="48.50976" lon="2.68062">
        <ele>58</ele>
        <time>2023-04-16T09:31:56.171Z</time>
      </trkpt>
      <trkpt lat="48.50978" lon="2.6807">
        <ele>59</ele>
        <time>2023-04-16T09:32:00.213Z</time>
      </trkpt>
      <trkpt lat="48.5098" lon="2.68079">
        <ele>59</ele>
        <time>2023-04-16T09:32:04.814Z</time>
      </trkpt>
      <trkpt lat="48.50981" lon="2.6809">
        <ele>59</ele>
        <time>2023-04-16T09:32:10.179Z</time>
      </trkpt>
      <trkpt lat="48.50983" lon="2.68097">
        <ele>59</ele>
        <time>2023-04-16T09:32:14.014Z</time>
      </trkpt>
      <trkpt lat="48.50984" lon="2.68104">
        <ele>61</ele>
        <time>2023-04-16T09:32:18.345Z</time>
      </trkpt>
      <trkpt lat="48.50986" lon="2.68111">
        <ele>61</ele>
        <time>2023-04-16T09:32:22.990Z</time>
      </trkpt>
      <trkpt lat="48.50987" lon="2.68119">
        <ele>60</ele>
        <time>2023-04-16T09:32:26.893Z</time>
      </trkpt>
      <trkpt lat="48.50989" lon="2.6813">
        <ele>61</ele>
        <time>2023-04-16T09:32:32.072Z</time>
      </trkpt>
      <trkpt lat="48.5099" lon="2.6814">
        <ele>61</ele>
        <time>2023-04-16T09:32:35.952Z</time>
      </trkpt>
      <trkpt lat="48.50991" lon="2.6815">
        <ele>61</ele>
        <time>2023-04-16T09:32:40.453Z</time>
      </trkpt>
      <trkpt lat="48.50992" lon="2.68159">
        <ele>63</ele>
        <time>2023-04-16T09:32:45.055Z</time>
      </trkpt>
      <trkpt lat="48.50992" lon="2.68169">
        <ele>63</ele>
        <time>2023-04-16T09:32:50.098Z</time>
      </trkpt>
      <trkpt lat="48.50992" lon="2.68176">
        <ele>63</ele>
        <time>2023-04-16T09:32:54.100Z</time>
      </trkpt>
      <trkpt lat="48.50992" lon="2.68185">
        <ele>65</ele>
        <time>2023-04-16T09:32:58.241Z</time>
      </trkpt>
      <trkpt lat="48.50991" lon="2.68195">
        <ele>65</ele>
        <time>2023-04-16T09:33:02.744Z</time>
      </trkpt>
      <trkpt lat="48.50991" lon="2.68204">
        <ele>65</ele>
        <time>2023-04-16T09:33:06.748Z</time>
      </trkpt>
      <trkpt lat="48.50991" lon="2.68212">
        <ele>67</ele>
        <time>2023-04-16T09:33:10.749Z</time>
      </trkpt>
      <trkpt lat="48.50991" lon="2.68221">
        <ele>67</ele>
        <time>2023-04-16T09:33:14.791Z</time>
      </trkpt>
      <trkpt lat="48.50991" lon="2.68228">
        <ele>67</ele>
        <time>2023-04-16T09:33:19.294Z</time>
      </trkpt>
      <trkpt lat="48.50992" lon="2.68236">
        <ele>67</ele>
        <time>2023-04-16T09:33:23.301Z</time>
      </trkpt>
      <trkpt lat="48.50992" lon="2.68246">
        <ele>69</ele>
        <time>2023-04-16T09:33:27.908Z</time>
      </trkpt>
      <trkpt lat="48.50993" lon="2.68255">
        <ele>69</ele>
        <time>2023-04-16T09:33:31.912Z</time>
      </trkpt>
      <trkpt lat="48.50992" lon="2.68265">
        <ele>69</ele>
        <time>2023-04-16T09:33:36.569Z</time>
      </trkpt>
      <trkpt lat="48.50992" lon="2.68273">
        <ele>69</ele>
        <time>2023-04-16T09:33:40.722Z</time>
      </trkpt>
      <trkpt lat="48.50989" lon="2.6828">
        <ele>69</ele>
        <time>2023-04-16T09:33:44.725Z</time>
      </trkpt>
      <trkpt lat="48.50987" lon="2.68287">
        <ele>69</ele>
        <time>2023-04-16T09:33:49.229Z</time>
      </trkpt>
      <trkpt lat="48.50983" lon="2.68293">
        <ele>68</ele>
        <time>2023-04-16T09:33:53.232Z</time>
      </trkpt>
      <trkpt lat="48.50982" lon="2.68302">
        <ele>68</ele>
        <time>2023-04-16T09:33:57.738Z</time>
      </trkpt>
      <trkpt lat="48.50981" lon="2.6831">
        <ele>68</ele>
        <time>2023-04-16T09:34:01.843Z</time>
      </trkpt>
      <trkpt lat="48.50982" lon="2.68319">
        <ele>68</ele>
        <time>2023-04-16T09:34:06.848Z</time>
      </trkpt>
      <trkpt lat="48.50985" lon="2.68323">
        <ele>68</ele>
        <time>2023-04-16T09:34:11.351Z</time>
      </trkpt>
      <trkpt lat="48.50984" lon="2.6833">
        <ele>68</ele>
        <time>2023-04-16T09:34:15.855Z</time>
      </trkpt>
      <trkpt lat="48.50982" lon="2.68337">
        <ele>68</ele>
        <time>2023-04-16T09:35:00.148Z</time>
      </trkpt>
      <trkpt lat="48.50978" lon="2.68334">
        <ele>68</ele>
        <time>2023-04-16T09:35:04.160Z</time>
      </trkpt>
      <trkpt lat="48.50974" lon="2.68331">
        <ele>68</ele>
        <time>2023-04-16T09:35:08.748Z</time>
      </trkpt>
      <trkpt lat="48.50974" lon="2.68329">
        <ele>68</ele>
        <time>2023-04-16T09:35:13.777Z</time>
      </trkpt>
      <trkpt lat="48.50973" lon="2.68328">
        <ele>68</ele>
        <time>2023-04-16T09:35:18.307Z</time>
      </trkpt>
      <trkpt lat="48.50971" lon="2.68327">
        <ele>68</ele>
        <time>2023-04-16T09:35:35.387Z</time>
      </trkpt>
      <trkpt lat="48.50967" lon="2.68327">
        <ele>68</ele>
        <time>2023-04-16T09:35:39.902Z</time>
      </trkpt>
      <trkpt lat="48.50962" lon="2.68324">
        <ele>68</ele>
        <time>2023-04-16T09:35:43.913Z</time>
      </trkpt>
      <trkpt lat="48.50954" lon="2.68321">
        <ele>68</ele>
        <time>2023-04-16T09:35:48.930Z</time>
      </trkpt>
      <trkpt lat="48.50947" lon="2.68321">
        <ele>68</ele>
        <time>2023-04-16T09:35:52.943Z</time>
      </trkpt>
      <trkpt lat="48.50942" lon="2.68322">
        <ele>68</ele>
        <time>2023-04-16T09:35:57.957Z</time>
      </trkpt>
      <trkpt lat="48.50936" lon="2.6832">
        <ele>68</ele>
        <time>2023-04-16T09:36:01.968Z</time>
      </trkpt>
      <trkpt lat="48.5093" lon="2.68321">
        <ele>66</ele>
        <time>2023-04-16T09:36:05.977Z</time>
      </trkpt>
      <trkpt lat="48.50922" lon="2.68324">
        <ele>66</ele>
        <time>2023-04-16T09:36:10.489Z</time>
      </trkpt>
      <trkpt lat="48.50916" lon="2.68329">
        <ele>66</ele>
        <time>2023-04-16T09:36:14.999Z</time>
      </trkpt>
      <trkpt lat="48.50911" lon="2.68333">
        <ele>66</ele>
        <time>2023-04-16T09:36:19.007Z</time>
      </trkpt>
      <trkpt lat="48.50906" lon="2.68336">
        <ele>66</ele>
        <time>2023-04-16T09:36:23.014Z</time>
      </trkpt>
      <trkpt lat="48.50902" lon="2.6834">
        <ele>64</ele>
        <time>2023-04-16T09:36:27.021Z</time>
      </trkpt>
      <trkpt lat="48.50895" lon="2.68341">
        <ele>64</ele>
        <time>2023-04-16T09:36:31.533Z</time>
      </trkpt>
      <trkpt lat="48.5089" lon="2.68344">
        <ele>64</ele>
        <time>2023-04-16T09:36:35.542Z</time>
      </trkpt>
      <trkpt lat="48.50882" lon="2.68347">
        <ele>64</ele>
        <time>2023-04-16T09:36:40.151Z</time>
      </trkpt>
      <trkpt lat="48.50875" lon="2.68351">
        <ele>66</ele>
        <time>2023-04-16T09:36:45.161Z</time>
      </trkpt>
      <trkpt lat="48.5087" lon="2.68356">
        <ele>64</ele>
        <time>2023-04-16T09:36:49.170Z</time>
      </trkpt>
      <trkpt lat="48.50866" lon="2.6836">
        <ele>64</ele>
        <time>2023-04-16T09:36:53.278Z</time>
      </trkpt>
      <trkpt lat="48.50862" lon="2.68364">
        <ele>64</ele>
        <time>2023-04-16T09:36:57.283Z</time>
      </trkpt>
      <trkpt lat="48.50864" lon="2.68371">
        <ele>64</ele>
        <time>2023-04-16T09:37:01.390Z</time>
      </trkpt>
      <trkpt lat="48.50868" lon="2.68384">
        <ele>65</ele>
        <time>2023-04-16T09:37:05.899Z</time>
      </trkpt>
      <trkpt lat="48.50872" lon="2.68392">
        <ele>65</ele>
        <time>2023-04-16T09:37:09.909Z</time>
      </trkpt>
      <trkpt lat="48.50875" lon="2.684">
        <ele>67</ele>
        <time>2023-04-16T09:37:14.420Z</time>
      </trkpt>
      <trkpt lat="48.50876" lon="2.68409">
        <ele>67</ele>
        <time>2023-04-16T09:37:18.928Z</time>
      </trkpt>
      <trkpt lat="48.50879" lon="2.68416">
        <ele>67</ele>
        <time>2023-04-16T09:37:22.937Z</time>
      </trkpt>
      <trkpt lat="48.50882" lon="2.68425">
        <ele>67</ele>
        <time>2023-04-16T09:37:27.446Z</time>
      </trkpt>
      <trkpt lat="48.50886" lon="2.68433">
        <ele>67</ele>
        <time>2023-04-16T09:37:31.958Z</time>
      </trkpt>
      <trkpt lat="48.50888" lon="2.68441">
        <ele>67</ele>
        <time>2023-04-16T09:37:36.068Z</time>
      </trkpt>
      <trkpt lat="48.50891" lon="2.68447">
        <ele>67</ele>
        <time>2023-04-16T09:37:40.080Z</time>
      </trkpt>
      <trkpt lat="48.50894" lon="2.68456">
        <ele>67</ele>
        <time>2023-04-16T09:37:44.592Z</time>
      </trkpt>
      <trkpt lat="48.50896" lon="2.68465">
        <ele>68</ele>
        <time>2023-04-16T09:37:49.205Z</time>
      </trkpt>
      <trkpt lat="48.50898" lon="2.68469">
        <ele>68</ele>
        <time>2023-04-16T09:37:53.216Z</time>
      </trkpt>
      <trkpt lat="48.50901" lon="2.68467">
        <ele>68</ele>
        <time>2023-04-16T09:37:57.740Z</time>
      </trkpt>
      <trkpt lat="48.50903" lon="2.6848">
        <ele>68</ele>
        <time>2023-04-16T09:38:01.750Z</time>
      </trkpt>
      <trkpt lat="48.50904" lon="2.68481">
        <ele>68</ele>
        <time>2023-04-16T09:38:06.763Z</time>
      </trkpt>
      <trkpt lat="48.50904" lon="2.68487">
        <ele>69</ele>
        <time>2023-04-16T09:38:11.776Z</time>
      </trkpt>
      <trkpt lat="48.50906" lon="2.68495">
        <ele>69</ele>
        <time>2023-04-16T09:38:16.787Z</time>
      </trkpt>
      <trkpt lat="48.50907" lon="2.68495">
        <ele>69</ele>
        <time>2023-04-16T09:38:20.796Z</time>
      </trkpt>
      <trkpt lat="48.50909" lon="2.68496">
        <ele>69</ele>
        <time>2023-04-16T09:38:25.305Z</time>
      </trkpt>
      <trkpt lat="48.50916" lon="2.68489">
        <ele>69</ele>
        <time>2023-04-16T09:38:29.314Z</time>
      </trkpt>
      <trkpt lat="48.50922" lon="2.68478">
        <ele>68</ele>
        <time>2023-04-16T09:38:33.323Z</time>
      </trkpt>
      <trkpt lat="48.50928" lon="2.68474">
        <ele>68</ele>
        <time>2023-04-16T09:38:37.331Z</time>
      </trkpt>
      <trkpt lat="48.50933" lon="2.68471">
        <ele>68</ele>
        <time>2023-04-16T09:38:42.054Z</time>
      </trkpt>
      <trkpt lat="48.50937" lon="2.68466">
        <ele>68</ele>
        <time>2023-04-16T09:38:46.148Z</time>
      </trkpt>
      <trkpt lat="48.50942" lon="2.68462">
        <ele>68</ele>
        <time>2023-04-16T09:38:50.156Z</time>
      </trkpt>
      <trkpt lat="48.50948" lon="2.68458">
        <ele>68</ele>
        <time>2023-04-16T09:38:54.164Z</time>
      </trkpt>
      <trkpt lat="48.50954" lon="2.68456">
        <ele>68</ele>
        <time>2023-04-16T09:38:58.677Z</time>
      </trkpt>
      <trkpt lat="48.5096" lon="2.68458">
        <ele>68</ele>
        <time>2023-04-16T09:39:02.688Z</time>
      </trkpt>
      <trkpt lat="48.50965" lon="2.6846">
        <ele>69</ele>
        <time>2023-04-16T09:39:06.798Z</time>
      </trkpt>
      <trkpt lat="48.5097" lon="2.68461">
        <ele>69</ele>
        <time>2023-04-16T09:39:10.806Z</time>
      </trkpt>
      <trkpt lat="48.50975" lon="2.68463">
        <ele>69</ele>
        <time>2023-04-16T09:39:15.816Z</time>
      </trkpt>
      <trkpt lat="48.5098" lon="2.68465">
        <ele>69</ele>
        <time>2023-04-16T09:39:19.823Z</time>
      </trkpt>
      <trkpt lat="48.50983" lon="2.68466">
        <ele>69</ele>
        <time>2023-04-16T09:39:23.830Z</time>
      </trkpt>
      <trkpt lat="48.50984" lon="2.68467">
        <ele>69</ele>
        <time>2023-04-16T09:39:27.836Z</time>
      </trkpt>
      <trkpt lat="48.50989" lon="2.68468">
        <ele>71</ele>
        <time>2023-04-16T09:39:32.842Z</time>
      </trkpt>
      <trkpt lat="48.50995" lon="2.68468">
        <ele>71</ele>
        <time>2023-04-16T09:39:36.846Z</time>
      </trkpt>
      <trkpt lat="48.51002" lon="2.68471">
        <ele>71</ele>
        <time>2023-04-16T09:39:41.351Z</time>
      </trkpt>
      <trkpt lat="48.51007" lon="2.68474">
        <ele>71</ele>
        <time>2023-04-16T09:39:45.857Z</time>
      </trkpt>
      <trkpt lat="48.51012" lon="2.68477">
        <ele>71</ele>
        <time>2023-04-16T09:39:49.862Z</time>
      </trkpt>
      <trkpt lat="48.51018" lon="2.68481">
        <ele>72</ele>
        <time>2023-04-16T09:39:54.883Z</time>
      </trkpt>
      <trkpt lat="48.51024" lon="2.68484">
        <ele>72</ele>
        <time>2023-04-16T09:39:58.892Z</time>
      </trkpt>
      <trkpt lat="48.51029" lon="2.68487">
        <ele>72</ele>
        <time>2023-04-16T09:40:02.901Z</time>
      </trkpt>
      <trkpt lat="48.51036" lon="2.6849">
        <ele>72</ele>
        <time>2023-04-16T09:40:06.910Z</time>
      </trkpt>
      <trkpt lat="48.51045" lon="2.68494">
        <ele>73</ele>
        <time>2023-04-16T09:40:11.921Z</time>
      </trkpt>
      <trkpt lat="48.51052" lon="2.68496">
        <ele>73</ele>
        <time>2023-04-16T09:40:15.931Z</time>
      </trkpt>
      <trkpt lat="48.51057" lon="2.68498">
        <ele>73</ele>
        <time>2023-04-16T09:40:20.462Z</time>
      </trkpt>
      <trkpt lat="48.51061" lon="2.68501">
        <ele>73</ele>
        <time>2023-04-16T09:40:24.972Z</time>
      </trkpt>
      <trkpt lat="48.51065" lon="2.68502">
        <ele>73</ele>
        <time>2023-04-16T09:40:29.991Z</time>
      </trkpt>
      <trkpt lat="48.51067" lon="2.68502">
        <ele>73</ele>
        <time>2023-04-16T09:40:34.016Z</time>
      </trkpt>
      <trkpt lat="48.5107" lon="2.68498">
        <ele>74</ele>
        <time>2023-04-16T09:40:39.046Z</time>
      </trkpt>
      <trkpt lat="48.51078" lon="2.6849">
        <ele>74</ele>
        <time>2023-04-16T09:40:44.074Z</time>
      </trkpt>
      <trkpt lat="48.51082" lon="2.68484">
        <ele>73</ele>
        <time>2023-04-16T09:40:48.093Z</time>
      </trkpt>
      <trkpt lat="48.51088" lon="2.68483">
        <ele>73</ele>
        <time>2023-04-16T09:40:52.618Z</time>
      </trkpt>
      <trkpt lat="48.51093" lon="2.68482">
        <ele>73</ele>
        <time>2023-04-16T09:40:57.140Z</time>
      </trkpt>
      <trkpt lat="48.51097" lon="2.6848">
        <ele>73</ele>
        <time>2023-04-16T09:41:01.159Z</time>
      </trkpt>
      <trkpt lat="48.51097" lon="2.68479">
        <ele>73</ele>
        <time>2023-04-16T09:41:02.666Z</time>
      </trkpt>
      <trkpt lat="48.51095" lon="2.6848">
        <ele>73</ele>
        <time>2023-04-16T09:41:09.211Z</time>
      </trkpt>
      <trkpt lat="48.511" lon="2.68466">
        <ele>75</ele>
        <time>2023-04-16T09:41:13.743Z</time>
      </trkpt>
      <trkpt lat="48.51101" lon="2.68453">
        <ele>74</ele>
        <time>2023-04-16T09:41:18.775Z</time>
      </trkpt>
      <trkpt lat="48.51104" lon="2.68444">
        <ele>74</ele>
        <time>2023-04-16T09:41:23.806Z</time>
      </trkpt>
      <trkpt lat="48.5111" lon="2.68445">
        <ele>74</ele>
        <time>2023-04-16T09:41:37.395Z</time>
      </trkpt>
      <trkpt lat="48.51111" lon="2.68435">
        <ele>74</ele>
        <time>2023-04-16T09:41:41.929Z</time>
      </trkpt>
      <trkpt lat="48.51111" lon="2.68425">
        <ele>74</ele>
        <time>2023-04-16T09:41:45.956Z</time>
      </trkpt>
      <trkpt lat="48.5111" lon="2.6841">
        <ele>74</ele>
        <time>2023-04-16T09:41:51.012Z</time>
      </trkpt>
      <trkpt lat="48.51107" lon="2.68401">
        <ele>73</ele>
        <time>2023-04-16T09:41:56.052Z</time>
      </trkpt>
      <trkpt lat="48.51108" lon="2.68395">
        <ele>73</ele>
        <time>2023-04-16T09:42:00.085Z</time>
      </trkpt>
      <trkpt lat="48.51105" lon="2.68383">
        <ele>73</ele>
        <time>2023-04-16T09:42:04.617Z</time>
      </trkpt>
      <trkpt lat="48.51103" lon="2.68376">
        <ele>73</ele>
        <time>2023-04-16T09:42:08.644Z</time>
      </trkpt>
      <trkpt lat="48.51105" lon="2.68366">
        <ele>72</ele>
        <time>2023-04-16T09:42:13.176Z</time>
      </trkpt>
      <trkpt lat="48.51109" lon="2.68355">
        <ele>72</ele>
        <time>2023-04-16T09:42:17.702Z</time>
      </trkpt>
      <trkpt lat="48.51113" lon="2.68342">
        <ele>70</ele>
        <time>2023-04-16T09:42:22.321Z</time>
      </trkpt>
      <trkpt lat="48.51115" lon="2.68332">
        <ele>70</ele>
        <time>2023-04-16T09:42:26.838Z</time>
      </trkpt>
      <trkpt lat="48.51118" lon="2.68328">
        <ele>70</ele>
        <time>2023-04-16T09:42:31.358Z</time>
      </trkpt>
      <trkpt lat="48.51119" lon="2.68324">
        <ele>70</ele>
        <time>2023-04-16T09:42:35.373Z</time>
      </trkpt>
      <trkpt lat="48.51127" lon="2.68322">
        <ele>69</ele>
        <time>2023-04-16T09:42:39.898Z</time>
      </trkpt>
      <trkpt lat="48.51134" lon="2.68318">
        <ele>68</ele>
        <time>2023-04-16T09:42:44.414Z</time>
      </trkpt>
      <trkpt lat="48.51139" lon="2.6831">
        <ele>68</ele>
        <time>2023-04-16T09:42:49.033Z</time>
      </trkpt>
      <trkpt lat="48.51144" lon="2.68307">
        <ele>68</ele>
        <time>2023-04-16T09:42:53.052Z</time>
      </trkpt>
      <trkpt lat="48.51149" lon="2.68305">
        <ele>68</ele>
        <time>2023-04-16T09:42:57.671Z</time>
      </trkpt>
      <trkpt lat="48.51154" lon="2.68301">
        <ele>69</ele>
        <time>2023-04-16T09:43:01.684Z</time>
      </trkpt>
      <trkpt lat="48.51157" lon="2.68298">
        <ele>69</ele>
        <time>2023-04-16T09:43:05.696Z</time>
      </trkpt>
      <trkpt lat="48.51162" lon="2.68295">
        <ele>69</ele>
        <time>2023-04-16T09:43:10.714Z</time>
      </trkpt>
      <trkpt lat="48.51165" lon="2.68288">
        <ele>68</ele>
        <time>2023-04-16T09:43:15.731Z</time>
      </trkpt>
      <trkpt lat="48.51161" lon="2.68276">
        <ele>68</ele>
        <time>2023-04-16T09:43:20.257Z</time>
      </trkpt>
      <trkpt lat="48.51158" lon="2.68266">
        <ele>68</ele>
        <time>2023-04-16T09:43:24.370Z</time>
      </trkpt>
      <trkpt lat="48.51157" lon="2.68258">
        <ele>68</ele>
        <time>2023-04-16T09:43:28.884Z</time>
      </trkpt>
      <trkpt lat="48.51152" lon="2.6825">
        <ele>66</ele>
        <time>2023-04-16T09:43:33.398Z</time>
      </trkpt>
      <trkpt lat="48.51149" lon="2.68242">
        <ele>66</ele>
        <time>2023-04-16T09:43:37.910Z</time>
      </trkpt>
      <trkpt lat="48.51147" lon="2.68234">
        <ele>66</ele>
        <time>2023-04-16T09:43:41.922Z</time>
      </trkpt>
      <trkpt lat="48.51146" lon="2.68224">
        <ele>66</ele>
        <time>2023-04-16T09:43:46.535Z</time>
      </trkpt>
      <trkpt lat="48.51146" lon="2.68217">
        <ele>66</ele>
        <time>2023-04-16T09:43:50.643Z</time>
      </trkpt>
      <trkpt lat="48.51145" lon="2.68209">
        <ele>66</ele>
        <time>2023-04-16T09:43:54.652Z</time>
      </trkpt>
      <trkpt lat="48.51141" lon="2.682">
        <ele>66</ele>
        <time>2023-04-16T09:43:58.761Z</time>
      </trkpt>
      <trkpt lat="48.5114" lon="2.68192">
        <ele>66</ele>
        <time>2023-04-16T09:44:02.768Z</time>
      </trkpt>
      <trkpt lat="48.51137" lon="2.68185">
        <ele>66</ele>
        <time>2023-04-16T09:44:07.377Z</time>
      </trkpt>
      <trkpt lat="48.51133" lon="2.68177">
        <ele>66</ele>
        <time>2023-04-16T09:44:11.386Z</time>
      </trkpt>
      <trkpt lat="48.51129" lon="2.68167">
        <ele>66</ele>
        <time>2023-04-16T09:44:15.496Z</time>
      </trkpt>
      <trkpt lat="48.51125" lon="2.68157">
        <ele>66</ele>
        <time>2023-04-16T09:44:20.117Z</time>
      </trkpt>
      <trkpt lat="48.51124" lon="2.68149">
        <ele>64</ele>
        <time>2023-04-16T09:44:23.726Z</time>
      </trkpt>
      <trkpt lat="48.51124" lon="2.68143">
        <ele>64</ele>
        <time>2023-04-16T09:44:28.256Z</time>
      </trkpt>
      <trkpt lat="48.51118" lon="2.68133">
        <ele>64</ele>
        <time>2023-04-16T09:44:32.266Z</time>
      </trkpt>
      <trkpt lat="48.51114" lon="2.68123">
        <ele>62</ele>
        <time>2023-04-16T09:44:36.776Z</time>
      </trkpt>
      <trkpt lat="48.51112" lon="2.68115">
        <ele>62</ele>
        <time>2023-04-16T09:44:40.885Z</time>
      </trkpt>
      <trkpt lat="48.51109" lon="2.68108">
        <ele>62</ele>
        <time>2023-04-16T09:44:45.494Z</time>
      </trkpt>
      <trkpt lat="48.51104" lon="2.68108">
        <ele>62</ele>
        <time>2023-04-16T09:44:50.001Z</time>
      </trkpt>
      <trkpt lat="48.51097" lon="2.6811">
        <ele>62</ele>
        <time>2023-04-16T09:44:54.010Z</time>
      </trkpt>
      <trkpt lat="48.51093" lon="2.68106">
        <ele>59</ele>
        <time>2023-04-16T09:44:58.519Z</time>
      </trkpt>
      <trkpt lat="48.5109" lon="2.68097">
        <ele>58</ele>
        <time>2023-04-16T09:45:03.030Z</time>
      </trkpt>
      <trkpt lat="48.51087" lon="2.68087">
        <ele>58</ele>
        <time>2023-04-16T09:45:07.039Z</time>
      </trkpt>
      <trkpt lat="48.51085" lon="2.68078">
        <ele>58</ele>
        <time>2023-04-16T09:45:10.746Z</time>
      </trkpt>
      <trkpt lat="48.51082" lon="2.6807">
        <ele>58</ele>
        <time>2023-04-16T09:45:15.356Z</time>
      </trkpt>
      <trkpt lat="48.51081" lon="2.68061">
        <ele>58</ele>
        <time>2023-04-16T09:45:20.066Z</time>
      </trkpt>
      <trkpt lat="48.51079" lon="2.68051">
        <ele>58</ele>
        <time>2023-04-16T09:45:24.686Z</time>
      </trkpt>
      <trkpt lat="48.51076" lon="2.68042">
        <ele>58</ele>
        <time>2023-04-16T09:45:28.695Z</time>
      </trkpt>
      <trkpt lat="48.51073" lon="2.68033">
        <ele>57</ele>
        <time>2023-04-16T09:45:32.704Z</time>
      </trkpt>
      <trkpt lat="48.5107" lon="2.68024">
        <ele>57</ele>
        <time>2023-04-16T09:45:37.213Z</time>
      </trkpt>
      <trkpt lat="48.51067" lon="2.68018">
        <ele>57</ele>
        <time>2023-04-16T09:45:41.320Z</time>
      </trkpt>
      <trkpt lat="48.51066" lon="2.68011">
        <ele>56</ele>
        <time>2023-04-16T09:45:45.327Z</time>
      </trkpt>
      <trkpt lat="48.51064" lon="2.68003">
        <ele>56</ele>
        <time>2023-04-16T09:45:49.335Z</time>
      </trkpt>
      <trkpt lat="48.51063" lon="2.67993">
        <ele>56</ele>
        <time>2023-04-16T09:45:53.844Z</time>
      </trkpt>
      <trkpt lat="48.5106" lon="2.67985">
        <ele>56</ele>
        <time>2023-04-16T09:45:58.854Z</time>
      </trkpt>
      <trkpt lat="48.51057" lon="2.67978">
        <ele>56</ele>
        <time>2023-04-16T09:46:03.377Z</time>
      </trkpt>
      <trkpt lat="48.51054" lon="2.67972">
        <ele>56</ele>
        <time>2023-04-16T09:46:07.901Z</time>
      </trkpt>
      <trkpt lat="48.51053" lon="2.67962">
        <ele>56</ele>
        <time>2023-04-16T09:46:12.429Z</time>
      </trkpt>
      <trkpt lat="48.51052" lon="2.67951">
        <ele>56</ele>
        <time>2023-04-16T09:46:16.955Z</time>
      </trkpt>
      <trkpt lat="48.51052" lon="2.67947">
        <ele>56</ele>
        <time>2023-04-16T09:46:20.980Z</time>
      </trkpt>
      <trkpt lat="48.51053" lon="2.67943">
        <ele>56</ele>
        <time>2023-04-16T09:46:26.016Z</time>
      </trkpt>
      <trkpt lat="48.5106" lon="2.67939">
        <ele>56</ele>
        <time>2023-04-16T09:46:30.046Z</time>
      </trkpt>
      <trkpt lat="48.51069" lon="2.67936">
        <ele>56</ele>
        <time>2023-04-16T09:46:34.070Z</time>
      </trkpt>
      <trkpt lat="48.51075" lon="2.67931">
        <ele>56</ele>
        <time>2023-04-16T09:46:38.089Z</time>
      </trkpt>
      <trkpt lat="48.51079" lon="2.67925">
        <ele>55</ele>
        <time>2023-04-16T09:46:42.106Z</time>
      </trkpt>
      <trkpt lat="48.51084" lon="2.67917">
        <ele>55</ele>
        <time>2023-04-16T09:46:47.125Z</time>
      </trkpt>
      <trkpt lat="48.51088" lon="2.67911">
        <ele>55</ele>
        <time>2023-04-16T09:46:51.643Z</time>
      </trkpt>
      <trkpt lat="48.51092" lon="2.67906">
        <ele>55</ele>
        <time>2023-04-16T09:46:55.659Z</time>
      </trkpt>
      <trkpt lat="48.51098" lon="2.67902">
        <ele>55</ele>
        <time>2023-04-16T09:47:00.674Z</time>
      </trkpt>
      <trkpt lat="48.51105" lon="2.67899">
        <ele>55</ele>
        <time>2023-04-16T09:47:04.685Z</time>
      </trkpt>
      <trkpt lat="48.5111" lon="2.67897">
        <ele>55</ele>
        <time>2023-04-16T09:47:08.697Z</time>
      </trkpt>
      <trkpt lat="48.51113" lon="2.67895">
        <ele>55</ele>
        <time>2023-04-16T09:47:13.209Z</time>
      </trkpt>
      <trkpt lat="48.51119" lon="2.67892">
        <ele>55</ele>
        <time>2023-04-16T09:47:17.823Z</time>
      </trkpt>
      <trkpt lat="48.51125" lon="2.67891">
        <ele>55</ele>
        <time>2023-04-16T09:47:21.833Z</time>
      </trkpt>
      <trkpt lat="48.51131" lon="2.67888">
        <ele>56</ele>
        <time>2023-04-16T09:47:26.345Z</time>
      </trkpt>
      <trkpt lat="48.51134" lon="2.67887">
        <ele>56</ele>
        <time>2023-04-16T09:47:30.857Z</time>
      </trkpt>
      <trkpt lat="48.5114" lon="2.67885">
        <ele>56</ele>
        <time>2023-04-16T09:47:34.867Z</time>
      </trkpt>
      <trkpt lat="48.51147" lon="2.67882">
        <ele>56</ele>
        <time>2023-04-16T09:47:38.877Z</time>
      </trkpt>
      <trkpt lat="48.51153" lon="2.67879">
        <ele>56</ele>
        <time>2023-04-16T09:47:42.887Z</time>
      </trkpt>
      <trkpt lat="48.51159" lon="2.67876">
        <ele>56</ele>
        <time>2023-04-16T09:47:47.411Z</time>
      </trkpt>
      <trkpt lat="48.51165" lon="2.67872">
        <ele>55</ele>
        <time>2023-04-16T09:47:51.510Z</time>
      </trkpt>
      <trkpt lat="48.51171" lon="2.67868">
        <ele>55</ele>
        <time>2023-04-16T09:47:56.123Z</time>
      </trkpt>
      <trkpt lat="48.51178" lon="2.67865">
        <ele>55</ele>
        <time>2023-04-16T09:48:00.635Z</time>
      </trkpt>
      <trkpt lat="48.51182" lon="2.67862">
        <ele>54</ele>
        <time>2023-04-16T09:48:04.645Z</time>
      </trkpt>
      <trkpt lat="48.51188" lon="2.67859">
        <ele>54</ele>
        <time>2023-04-16T09:48:09.256Z</time>
      </trkpt>
      <trkpt lat="48.51194" lon="2.67856">
        <ele>54</ele>
        <time>2023-04-16T09:48:13.770Z</time>
      </trkpt>
      <trkpt lat="48.51199" lon="2.67854">
        <ele>54</ele>
        <time>2023-04-16T09:48:17.375Z</time>
      </trkpt>
      <trkpt lat="48.51204" lon="2.6785">
        <ele>54</ele>
        <time>2023-04-16T09:48:21.483Z</time>
      </trkpt>
      <trkpt lat="48.51211" lon="2.67847">
        <ele>54</ele>
        <time>2023-04-16T09:48:25.592Z</time>
      </trkpt>
      <trkpt lat="48.51218" lon="2.67844">
        <ele>54</ele>
        <time>2023-04-16T09:48:30.103Z</time>
      </trkpt>
      <trkpt lat="48.51227" lon="2.67841">
        <ele>54</ele>
        <time>2023-04-16T09:48:35.115Z</time>
      </trkpt>
      <trkpt lat="48.51233" lon="2.67838">
        <ele>54</ele>
        <time>2023-04-16T09:48:39.225Z</time>
      </trkpt>
      <trkpt lat="48.51239" lon="2.67836">
        <ele>55</ele>
        <time>2023-04-16T09:48:43.747Z</time>
      </trkpt>
      <trkpt lat="48.51244" lon="2.67833">
        <ele>55</ele>
        <time>2023-04-16T09:48:47.844Z</time>
      </trkpt>
      <trkpt lat="48.5125" lon="2.67828">
        <ele>55</ele>
        <time>2023-04-16T09:48:52.865Z</time>
      </trkpt>
      <trkpt lat="48.51256" lon="2.67826">
        <ele>55</ele>
        <time>2023-04-16T09:48:56.461Z</time>
      </trkpt>
      <trkpt lat="48.51263" lon="2.67824">
        <ele>55</ele>
        <time>2023-04-16T09:49:00.969Z</time>
      </trkpt>
      <trkpt lat="48.5127" lon="2.67821">
        <ele>57</ele>
        <time>2023-04-16T09:49:04.978Z</time>
      </trkpt>
      <trkpt lat="48.51277" lon="2.67818">
        <ele>55</ele>
        <time>2023-04-16T09:49:08.986Z</time>
      </trkpt>
      <trkpt lat="48.51284" lon="2.67815">
        <ele>55</ele>
        <time>2023-04-16T09:49:12.995Z</time>
      </trkpt>
      <trkpt lat="48.51291" lon="2.67812">
        <ele>55</ele>
        <time>2023-04-16T09:49:17.003Z</time>
      </trkpt>
      <trkpt lat="48.51298" lon="2.6781">
        <ele>56</ele>
        <time>2023-04-16T09:49:22.011Z</time>
      </trkpt>
      <trkpt lat="48.51304" lon="2.67808">
        <ele>56</ele>
        <time>2023-04-16T09:49:26.018Z</time>
      </trkpt>
      <trkpt lat="48.51312" lon="2.67805">
        <ele>56</ele>
        <time>2023-04-16T09:49:31.027Z</time>
      </trkpt>
      <trkpt lat="48.51318" lon="2.67803">
        <ele>56</ele>
        <time>2023-04-16T09:49:35.033Z</time>
      </trkpt>
      <trkpt lat="48.51324" lon="2.678">
        <ele>56</ele>
        <time>2023-04-16T09:49:40.042Z</time>
      </trkpt>
      <trkpt lat="48.51329" lon="2.67798">
        <ele>56</ele>
        <time>2023-04-16T09:49:44.149Z</time>
      </trkpt>
      <trkpt lat="48.51334" lon="2.67796">
        <ele>56</ele>
        <time>2023-04-16T09:49:48.155Z</time>
      </trkpt>
      <trkpt lat="48.5134" lon="2.67794">
        <ele>56</ele>
        <time>2023-04-16T09:49:52.662Z</time>
      </trkpt>
      <trkpt lat="48.51343" lon="2.67794">
        <ele>56</ele>
        <time>2023-04-16T09:49:56.667Z</time>
      </trkpt>
      <trkpt lat="48.51348" lon="2.67792">
        <ele>54</ele>
        <time>2023-04-16T09:50:01.180Z</time>
      </trkpt>
      <trkpt lat="48.51353" lon="2.6779">
        <ele>53</ele>
        <time>2023-04-16T09:50:04.776Z</time>
      </trkpt>
      <trkpt lat="48.5136" lon="2.67787">
        <ele>53</ele>
        <time>2023-04-16T09:50:09.782Z</time>
      </trkpt>
      <trkpt lat="48.51366" lon="2.67781">
        <ele>53</ele>
        <time>2023-04-16T09:50:13.886Z</time>
      </trkpt>
      <trkpt lat="48.51375" lon="2.67775">
        <ele>52</ele>
        <time>2023-04-16T09:50:18.991Z</time>
      </trkpt>
      <trkpt lat="48.51385" lon="2.67772">
        <ele>52</ele>
        <time>2023-04-16T09:50:23.995Z</time>
      </trkpt>
      <trkpt lat="48.51389" lon="2.6777">
        <ele>52</ele>
        <time>2023-04-16T09:50:27.999Z</time>
      </trkpt>
      <trkpt lat="48.51395" lon="2.67769">
        <ele>52</ele>
        <time>2023-04-16T09:50:32.504Z</time>
      </trkpt>
      <trkpt lat="48.514" lon="2.67769">
        <ele>52</ele>
        <time>2023-04-16T09:50:36.509Z</time>
      </trkpt>
      <trkpt lat="48.51406" lon="2.67768">
        <ele>52</ele>
        <time>2023-04-16T09:50:41.168Z</time>
      </trkpt>
      <trkpt lat="48.5141" lon="2.67767">
        <ele>52</ele>
        <time>2023-04-16T09:50:44.822Z</time>
      </trkpt>
      <trkpt lat="48.51415" lon="2.67761">
        <ele>52</ele>
        <time>2023-04-16T09:50:49.529Z</time>
      </trkpt>
      <trkpt lat="48.51422" lon="2.67759">
        <ele>52</ele>
        <time>2023-04-16T09:50:54.134Z</time>
      </trkpt>
      <trkpt lat="48.51427" lon="2.67757">
        <ele>52</ele>
        <time>2023-04-16T09:50:58.138Z</time>
      </trkpt>
      <trkpt lat="48.51433" lon="2.67753">
        <ele>52</ele>
        <time>2023-04-16T09:51:02.688Z</time>
      </trkpt>
      <trkpt lat="48.5144" lon="2.67748">
        <ele>52</ele>
        <time>2023-04-16T09:51:06.949Z</time>
      </trkpt>
      <trkpt lat="48.51447" lon="2.67746">
        <ele>52</ele>
        <time>2023-04-16T09:51:11.955Z</time>
      </trkpt>
      <trkpt lat="48.51453" lon="2.67744">
        <ele>52</ele>
        <time>2023-04-16T09:51:16.059Z</time>
      </trkpt>
      <trkpt lat="48.51459" lon="2.67741">
        <ele>54</ele>
        <time>2023-04-16T09:51:20.664Z</time>
      </trkpt>
      <trkpt lat="48.51465" lon="2.67739">
        <ele>54</ele>
        <time>2023-04-16T09:51:25.267Z</time>
      </trkpt>
      <trkpt lat="48.51472" lon="2.67739">
        <ele>54</ele>
        <time>2023-04-16T09:51:29.776Z</time>
      </trkpt>
      <trkpt lat="48.51479" lon="2.67735">
        <ele>52</ele>
        <time>2023-04-16T09:51:34.796Z</time>
      </trkpt>
      <trkpt lat="48.51485" lon="2.67733">
        <ele>52</ele>
        <time>2023-04-16T09:51:38.802Z</time>
      </trkpt>
      <trkpt lat="48.5149" lon="2.67733">
        <ele>53</ele>
        <time>2023-04-16T09:51:42.807Z</time>
      </trkpt>
      <trkpt lat="48.51495" lon="2.67732">
        <ele>53</ele>
        <time>2023-04-16T09:51:46.913Z</time>
      </trkpt>
      <trkpt lat="48.515" lon="2.67727">
        <ele>53</ele>
        <time>2023-04-16T09:51:50.920Z</time>
      </trkpt>
      <trkpt lat="48.51506" lon="2.67723">
        <ele>53</ele>
        <time>2023-04-16T09:51:54.925Z</time>
      </trkpt>
      <trkpt lat="48.51512" lon="2.67721">
        <ele>53</ele>
        <time>2023-04-16T09:52:00.034Z</time>
      </trkpt>
      <trkpt lat="48.5152" lon="2.67716">
        <ele>52</ele>
        <time>2023-04-16T09:52:04.540Z</time>
      </trkpt>
      <trkpt lat="48.51526" lon="2.67713">
        <ele>52</ele>
        <time>2023-04-16T09:52:08.546Z</time>
      </trkpt>
      <trkpt lat="48.51531" lon="2.6771">
        <ele>52</ele>
        <time>2023-04-16T09:52:13.052Z</time>
      </trkpt>
      <trkpt lat="48.51537" lon="2.67708">
        <ele>52</ele>
        <time>2023-04-16T09:52:18.161Z</time>
      </trkpt>
      <trkpt lat="48.51544" lon="2.67705">
        <ele>52</ele>
        <time>2023-04-16T09:52:22.667Z</time>
      </trkpt>
      <trkpt lat="48.5155" lon="2.67702">
        <ele>52</ele>
        <time>2023-04-16T09:52:27.172Z</time>
      </trkpt>
      <trkpt lat="48.51555" lon="2.677">
        <ele>52</ele>
        <time>2023-04-16T09:52:30.776Z</time>
      </trkpt>
      <trkpt lat="48.5156" lon="2.67698">
        <ele>52</ele>
        <time>2023-04-16T09:52:35.382Z</time>
      </trkpt>
      <trkpt lat="48.51565" lon="2.67696">
        <ele>52</ele>
        <time>2023-04-16T09:52:39.885Z</time>
      </trkpt>
      <trkpt lat="48.51571" lon="2.67693">
        <ele>54</ele>
        <time>2023-04-16T09:52:43.889Z</time>
      </trkpt>
      <trkpt lat="48.51578" lon="2.6769">
        <ele>54</ele>
        <time>2023-04-16T09:52:47.893Z</time>
      </trkpt>
      <trkpt lat="48.51584" lon="2.67686">
        <ele>54</ele>
        <time>2023-04-16T09:52:51.899Z</time>
      </trkpt>
      <trkpt lat="48.51589" lon="2.67683">
        <ele>54</ele>
        <time>2023-04-16T09:52:55.903Z</time>
      </trkpt>
      <trkpt lat="48.51595" lon="2.6768">
        <ele>52</ele>
        <time>2023-04-16T09:53:00.408Z</time>
      </trkpt>
      <trkpt lat="48.51601" lon="2.67679">
        <ele>54</ele>
        <time>2023-04-16T09:53:04.917Z</time>
      </trkpt>
      <trkpt lat="48.51606" lon="2.67677">
        <ele>54</ele>
        <time>2023-04-16T09:53:09.018Z</time>
      </trkpt>
      <trkpt lat="48.5161" lon="2.6767">
        <ele>54</ele>
        <time>2023-04-16T09:53:13.022Z</time>
      </trkpt>
      <trkpt lat="48.51614" lon="2.67666">
        <ele>54</ele>
        <time>2023-04-16T09:53:17.626Z</time>
      </trkpt>
      <trkpt lat="48.51619" lon="2.67661">
        <ele>54</ele>
        <time>2023-04-16T09:53:22.129Z</time>
      </trkpt>
      <trkpt lat="48.51623" lon="2.67656">
        <ele>54</ele>
        <time>2023-04-16T09:53:26.132Z</time>
      </trkpt>
      <trkpt lat="48.51629" lon="2.67653">
        <ele>55</ele>
        <time>2023-04-16T09:53:31.137Z</time>
      </trkpt>
      <trkpt lat="48.51635" lon="2.67651">
        <ele>55</ele>
        <time>2023-04-16T09:53:35.141Z</time>
      </trkpt>
      <trkpt lat="48.5164" lon="2.67649">
        <ele>55</ele>
        <time>2023-04-16T09:53:39.146Z</time>
      </trkpt>
      <trkpt lat="48.51645" lon="2.67644">
        <ele>55</ele>
        <time>2023-04-16T09:53:43.254Z</time>
      </trkpt>
      <trkpt lat="48.5165" lon="2.67636">
        <ele>55</ele>
        <time>2023-04-16T09:53:47.356Z</time>
      </trkpt>
      <trkpt lat="48.51656" lon="2.6763">
        <ele>55</ele>
        <time>2023-04-16T09:53:51.899Z</time>
      </trkpt>
      <trkpt lat="48.51661" lon="2.67625">
        <ele>54</ele>
        <time>2023-04-16T09:53:56.081Z</time>
      </trkpt>
      <trkpt lat="48.51667" lon="2.6762">
        <ele>54</ele>
        <time>2023-04-16T09:54:01.164Z</time>
      </trkpt>
      <trkpt lat="48.51672" lon="2.67614">
        <ele>54</ele>
        <time>2023-04-16T09:54:05.525Z</time>
      </trkpt>
      <trkpt lat="48.51676" lon="2.67608">
        <ele>54</ele>
        <time>2023-04-16T09:54:09.765Z</time>
      </trkpt>
      <trkpt lat="48.51682" lon="2.676">
        <ele>54</ele>
        <time>2023-04-16T09:54:14.508Z</time>
      </trkpt>
      <trkpt lat="48.51685" lon="2.67596">
        <ele>53</ele>
        <time>2023-04-16T09:54:18.528Z</time>
      </trkpt>
      <trkpt lat="48.51691" lon="2.6759">
        <ele>53</ele>
        <time>2023-04-16T09:54:23.032Z</time>
      </trkpt>
      <trkpt lat="48.51698" lon="2.67586">
        <ele>53</ele>
        <time>2023-04-16T09:54:28.039Z</time>
      </trkpt>
      <trkpt lat="48.51701" lon="2.67579">
        <ele>53</ele>
        <time>2023-04-16T09:54:32.562Z</time>
      </trkpt>
      <trkpt lat="48.51707" lon="2.67574">
        <ele>53</ele>
        <time>2023-04-16T09:54:36.564Z</time>
      </trkpt>
      <trkpt lat="48.51712" lon="2.67571">
        <ele>52</ele>
        <time>2023-04-16T09:54:41.126Z</time>
      </trkpt>
      <trkpt lat="48.51715" lon="2.67564">
        <ele>51</ele>
        <time>2023-04-16T09:54:45.129Z</time>
      </trkpt>
      <trkpt lat="48.51718" lon="2.67563">
        <ele>51</ele>
        <time>2023-04-16T09:54:50.131Z</time>
      </trkpt>
      <trkpt lat="48.5172" lon="2.6757">
        <ele>52</ele>
        <time>2023-04-16T09:54:54.212Z</time>
      </trkpt>
      <trkpt lat="48.51722" lon="2.67578">
        <ele>52</ele>
        <time>2023-04-16T09:54:58.632Z</time>
      </trkpt>
      <trkpt lat="48.51723" lon="2.67587">
        <ele>52</ele>
        <time>2023-04-16T09:55:02.892Z</time>
      </trkpt>
      <trkpt lat="48.51725" lon="2.67595">
        <ele>52</ele>
        <time>2023-04-16T09:55:07.152Z</time>
      </trkpt>
      <trkpt lat="48.5173" lon="2.67602">
        <ele>54</ele>
        <time>2023-04-16T09:55:11.572Z</time>
      </trkpt>
      <trkpt lat="48.51739" lon="2.67604">
        <ele>54</ele>
        <time>2023-04-16T09:55:16.190Z</time>
      </trkpt>
      <trkpt lat="48.51745" lon="2.67603">
        <ele>54</ele>
        <time>2023-04-16T09:55:19.990Z</time>
      </trkpt>
      <trkpt lat="48.51751" lon="2.67602">
        <ele>54</ele>
        <time>2023-04-16T09:55:24.389Z</time>
      </trkpt>
      <trkpt lat="48.51756" lon="2.67601">
        <ele>54</ele>
        <time>2023-04-16T09:55:28.792Z</time>
      </trkpt>
      <trkpt lat="48.51761" lon="2.67599">
        <ele>54</ele>
        <time>2023-04-16T09:55:32.547Z</time>
      </trkpt>
      <trkpt lat="48.51766" lon="2.67599">
        <ele>58</ele>
        <time>2023-04-16T09:55:36.666Z</time>
      </trkpt>
      <trkpt lat="48.51771" lon="2.67601">
        <ele>58</ele>
        <time>2023-04-16T09:55:40.744Z</time>
      </trkpt>
      <trkpt lat="48.51777" lon="2.67601">
        <ele>58</ele>
        <time>2023-04-16T09:55:44.702Z</time>
      </trkpt>
      <trkpt lat="48.51779" lon="2.67597">
        <ele>58</ele>
        <time>2023-04-16T09:55:49.964Z</time>
      </trkpt>
      <trkpt lat="48.51779" lon="2.67597">
        <ele>58</ele>
        <time>2023-04-16T09:55:50.964Z</time>
      </trkpt>
      <trkpt lat="48.51779" lon="2.67595">
        <ele>54</ele>
        <time>2023-04-16T09:55:59.510Z</time>
      </trkpt>
      <trkpt lat="48.51781" lon="2.67596">
        <ele>54</ele>
        <time>2023-04-16T09:56:04.031Z</time>
      </trkpt>
      <trkpt lat="48.51789" lon="2.67593">
        <ele>54</ele>
        <time>2023-04-16T09:56:08.645Z</time>
      </trkpt>
      <trkpt lat="48.51797" lon="2.67593">
        <ele>54</ele>
        <time>2023-04-16T09:56:13.155Z</time>
      </trkpt>
      <trkpt lat="48.51801" lon="2.67592">
        <ele>54</ele>
        <time>2023-04-16T09:56:17.164Z</time>
      </trkpt>
      <trkpt lat="48.51804" lon="2.67591">
        <ele>54</ele>
        <time>2023-04-16T09:56:21.675Z</time>
      </trkpt>
      <trkpt lat="48.51809" lon="2.6759">
        <ele>54</ele>
        <time>2023-04-16T09:56:26.183Z</time>
      </trkpt>
      <trkpt lat="48.51815" lon="2.67591">
        <ele>54</ele>
        <time>2023-04-16T09:56:30.689Z</time>
      </trkpt>
      <trkpt lat="48.5182" lon="2.67591">
        <ele>56</ele>
        <time>2023-04-16T09:56:34.794Z</time>
      </trkpt>
      <trkpt lat="48.51825" lon="2.67589">
        <ele>56</ele>
        <time>2023-04-16T09:56:39.798Z</time>
      </trkpt>
      <trkpt lat="48.51829" lon="2.67585">
        <ele>56</ele>
        <time>2023-04-16T09:56:43.801Z</time>
      </trkpt>
      <trkpt lat="48.51835" lon="2.6758">
        <ele>56</ele>
        <time>2023-04-16T09:56:47.904Z</time>
      </trkpt>
      <trkpt lat="48.51842" lon="2.67578">
        <ele>56</ele>
        <time>2023-04-16T09:56:52.007Z</time>
      </trkpt>
      <trkpt lat="48.51849" lon="2.67577">
        <ele>60</ele>
        <time>2023-04-16T09:56:56.510Z</time>
      </trkpt>
      <trkpt lat="48.51854" lon="2.67573">
        <ele>60</ele>
        <time>2023-04-16T09:57:00.512Z</time>
      </trkpt>
      <trkpt lat="48.5186" lon="2.6757">
        <ele>60</ele>
        <time>2023-04-16T09:57:04.534Z</time>
      </trkpt>
      <trkpt lat="48.51866" lon="2.67569">
        <ele>54</ele>
        <time>2023-04-16T09:57:09.037Z</time>
      </trkpt>
      <trkpt lat="48.51871" lon="2.67568">
        <ele>54</ele>
        <time>2023-04-16T09:57:13.118Z</time>
      </trkpt>
      <trkpt lat="48.51881" lon="2.67563">
        <ele>57</ele>
        <time>2023-04-16T09:57:17.761Z</time>
      </trkpt>
      <trkpt lat="48.51888" lon="2.67559">
        <ele>57</ele>
        <time>2023-04-16T09:57:21.765Z</time>
      </trkpt>
      <trkpt lat="48.51896" lon="2.67558">
        <ele>57</ele>
        <time>2023-04-16T09:57:26.772Z</time>
      </trkpt>
      <trkpt lat="48.51902" lon="2.67556">
        <ele>57</ele>
        <time>2023-04-16T09:57:30.778Z</time>
      </trkpt>
      <trkpt lat="48.51907" lon="2.67548">
        <ele>55</ele>
        <time>2023-04-16T09:57:35.286Z</time>
      </trkpt>
      <trkpt lat="48.51912" lon="2.67544">
        <ele>55</ele>
        <time>2023-04-16T09:57:39.292Z</time>
      </trkpt>
      <trkpt lat="48.51915" lon="2.6754">
        <ele>51</ele>
        <time>2023-04-16T09:57:43.296Z</time>
      </trkpt>
      <trkpt lat="48.51919" lon="2.67535">
        <ele>51</ele>
        <time>2023-04-16T09:57:47.301Z</time>
      </trkpt>
      <trkpt lat="48.51925" lon="2.67531">
        <ele>51</ele>
        <time>2023-04-16T09:57:51.805Z</time>
      </trkpt>
      <trkpt lat="48.51929" lon="2.67528">
        <ele>51</ele>
        <time>2023-04-16T09:57:56.309Z</time>
      </trkpt>
      <trkpt lat="48.51933" lon="2.67525">
        <ele>50</ele>
        <time>2023-04-16T09:58:00.814Z</time>
      </trkpt>
      <trkpt lat="48.51939" lon="2.67524">
        <ele>50</ele>
        <time>2023-04-16T09:58:05.318Z</time>
      </trkpt>
      <trkpt lat="48.51946" lon="2.67522">
        <ele>50</ele>
        <time>2023-04-16T09:58:09.321Z</time>
      </trkpt>
      <trkpt lat="48.51952" lon="2.67519">
        <ele>50</ele>
        <time>2023-04-16T09:58:13.825Z</time>
      </trkpt>
      <trkpt lat="48.51958" lon="2.6752">
        <ele>50</ele>
        <time>2023-04-16T09:58:17.867Z</time>
      </trkpt>
      <trkpt lat="48.51964" lon="2.67516">
        <ele>50</ele>
        <time>2023-04-16T09:58:21.569Z</time>
      </trkpt>
      <trkpt lat="48.51969" lon="2.67509">
        <ele>49</ele>
        <time>2023-04-16T09:58:25.732Z</time>
      </trkpt>
      <trkpt lat="48.51969" lon="2.67501">
        <ele>49</ele>
        <time>2023-04-16T09:58:30.336Z</time>
      </trkpt>
      <trkpt lat="48.51969" lon="2.67494">
        <ele>49</ele>
        <time>2023-04-16T09:58:34.339Z</time>
      </trkpt>
      <trkpt lat="48.5197" lon="2.67484">
        <ele>48</ele>
        <time>2023-04-16T09:58:38.960Z</time>
      </trkpt>
      <trkpt lat="48.51971" lon="2.67477">
        <ele>48</ele>
        <time>2023-04-16T09:58:43.061Z</time>
      </trkpt>
      <trkpt lat="48.51972" lon="2.67467">
        <ele>48</ele>
        <time>2023-04-16T09:58:48.067Z</time>
      </trkpt>
      <trkpt lat="48.51971" lon="2.67457">
        <ele>46</ele>
        <time>2023-04-16T09:58:52.073Z</time>
      </trkpt>
      <trkpt lat="48.51971" lon="2.67444">
        <ele>46</ele>
        <time>2023-04-16T09:58:57.080Z</time>
      </trkpt>
      <trkpt lat="48.51972" lon="2.67433">
        <ele>46</ele>
        <time>2023-04-16T09:59:01.585Z</time>
      </trkpt>
      <trkpt lat="48.51972" lon="2.67424">
        <ele>44</ele>
        <time>2023-04-16T09:59:05.590Z</time>
      </trkpt>
      <trkpt lat="48.51972" lon="2.67415">
        <ele>44</ele>
        <time>2023-04-16T09:59:09.697Z</time>
      </trkpt>
      <trkpt lat="48.51969" lon="2.67406">
        <ele>44</ele>
        <time>2023-04-16T09:59:14.705Z</time>
      </trkpt>
      <trkpt lat="48.51967" lon="2.67396">
        <ele>43</ele>
        <time>2023-04-16T09:59:19.715Z</time>
      </trkpt>
      <trkpt lat="48.51967" lon="2.67387">
        <ele>43</ele>
        <time>2023-04-16T09:59:23.418Z</time>
      </trkpt>
      <trkpt lat="48.51965" lon="2.67376">
        <ele>43</ele>
        <time>2023-04-16T09:59:27.924Z</time>
      </trkpt>
      <trkpt lat="48.51959" lon="2.67367">
        <ele>41</ele>
        <time>2023-04-16T09:59:31.934Z</time>
      </trkpt>
      <trkpt lat="48.51954" lon="2.6736">
        <ele>42</ele>
        <time>2023-04-16T09:59:35.941Z</time>
      </trkpt>
      <trkpt lat="48.51956" lon="2.67351">
        <ele>42</ele>
        <time>2023-04-16T09:59:40.648Z</time>
      </trkpt>
      <trkpt lat="48.51957" lon="2.67342">
        <ele>40</ele>
        <time>2023-04-16T09:59:45.178Z</time>
      </trkpt>
      <trkpt lat="48.5196" lon="2.67336">
        <ele>41</ele>
        <time>2023-04-16T09:59:49.058Z</time>
      </trkpt>
      <trkpt lat="48.51964" lon="2.6734">
        <ele>41</ele>
        <time>2023-04-16T09:59:54.163Z</time>
      </trkpt>
      <trkpt lat="48.51966" lon="2.6734">
        <ele>41</ele>
        <time>2023-04-16T09:59:58.669Z</time>
      </trkpt>
      <trkpt lat="48.51972" lon="2.67339">
        <ele>41</ele>
        <time>2023-04-16T10:00:03.174Z</time>
      </trkpt>
      <trkpt lat="48.51979" lon="2.67337">
        <ele>41</ele>
        <time>2023-04-16T10:00:07.680Z</time>
      </trkpt>
      <trkpt lat="48.51985" lon="2.67338">
        <ele>41</ele>
        <time>2023-04-16T10:00:11.785Z</time>
      </trkpt>
      <trkpt lat="48.51991" lon="2.67338">
        <ele>41</ele>
        <time>2023-04-16T10:00:15.789Z</time>
      </trkpt>
      <trkpt lat="48.51998" lon="2.67339">
        <ele>41</ele>
        <time>2023-04-16T10:00:20.912Z</time>
      </trkpt>
      <trkpt lat="48.52004" lon="2.67337">
        <ele>41</ele>
        <time>2023-04-16T10:00:25.418Z</time>
      </trkpt>
      <trkpt lat="48.52011" lon="2.67335">
        <ele>41</ele>
        <time>2023-04-16T10:00:30.024Z</time>
      </trkpt>
      <trkpt lat="48.52017" lon="2.67333">
        <ele>41</ele>
        <time>2023-04-16T10:00:34.532Z</time>
      </trkpt>
      <trkpt lat="48.52023" lon="2.67332">
        <ele>41</ele>
        <time>2023-04-16T10:00:39.136Z</time>
      </trkpt>
      <trkpt lat="48.5203" lon="2.67334">
        <ele>41</ele>
        <time>2023-04-16T10:00:43.753Z</time>
      </trkpt>
      <trkpt lat="48.52036" lon="2.67334">
        <ele>41</ele>
        <time>2023-04-16T10:00:48.258Z</time>
      </trkpt>
      <trkpt lat="48.52042" lon="2.67336">
        <ele>42</ele>
        <time>2023-04-16T10:00:52.763Z</time>
      </trkpt>
      <trkpt lat="48.52048" lon="2.67336">
        <ele>42</ele>
        <time>2023-04-16T10:00:56.766Z</time>
      </trkpt>
      <trkpt lat="48.52053" lon="2.67334">
        <ele>42</ele>
        <time>2023-04-16T10:01:00.769Z</time>
      </trkpt>
      <trkpt lat="48.52061" lon="2.67328">
        <ele>42</ele>
        <time>2023-04-16T10:01:05.774Z</time>
      </trkpt>
      <trkpt lat="48.52067" lon="2.67326">
        <ele>42</ele>
        <time>2023-04-16T10:01:10.280Z</time>
      </trkpt>
      <trkpt lat="48.52073" lon="2.67324">
        <ele>43</ele>
        <time>2023-04-16T10:01:14.285Z</time>
      </trkpt>
      <trkpt lat="48.5208" lon="2.67322">
        <ele>43</ele>
        <time>2023-04-16T10:01:18.789Z</time>
      </trkpt>
      <trkpt lat="48.52086" lon="2.6732">
        <ele>43</ele>
        <time>2023-04-16T10:01:22.793Z</time>
      </trkpt>
      <trkpt lat="48.5209" lon="2.67321">
        <ele>43</ele>
        <time>2023-04-16T10:01:27.297Z</time>
      </trkpt>
      <trkpt lat="48.52096" lon="2.6732">
        <ele>43</ele>
        <time>2023-04-16T10:01:31.807Z</time>
      </trkpt>
      <trkpt lat="48.52102" lon="2.67317">
        <ele>41</ele>
        <time>2023-04-16T10:01:36.916Z</time>
      </trkpt>
      <trkpt lat="48.52108" lon="2.67312">
        <ele>41</ele>
        <time>2023-04-16T10:01:40.924Z</time>
      </trkpt>
      <trkpt lat="48.52116" lon="2.67308">
        <ele>41</ele>
        <time>2023-04-16T10:01:45.932Z</time>
      </trkpt>
      <trkpt lat="48.52124" lon="2.67305">
        <ele>41</ele>
        <time>2023-04-16T10:01:50.438Z</time>
      </trkpt>
      <trkpt lat="48.52131" lon="2.67303">
        <ele>39</ele>
        <time>2023-04-16T10:01:54.981Z</time>
      </trkpt>
      <trkpt lat="48.52137" lon="2.673">
        <ele>39</ele>
        <time>2023-04-16T10:01:59.986Z</time>
      </trkpt>
      <trkpt lat="48.52144" lon="2.67297">
        <ele>39</ele>
        <time>2023-04-16T10:02:04.590Z</time>
      </trkpt>
      <trkpt lat="48.5215" lon="2.67295">
        <ele>39</ele>
        <time>2023-04-16T10:02:09.093Z</time>
      </trkpt>
      <trkpt lat="48.52155" lon="2.67292">
        <ele>40</ele>
        <time>2023-04-16T10:02:13.097Z</time>
      </trkpt>
      <trkpt lat="48.52161" lon="2.67291">
        <ele>38</ele>
        <time>2023-04-16T10:02:17.101Z</time>
      </trkpt>
      <trkpt lat="48.52167" lon="2.67287">
        <ele>38</ele>
        <time>2023-04-16T10:02:21.604Z</time>
      </trkpt>
      <trkpt lat="48.52173" lon="2.67284">
        <ele>38</ele>
        <time>2023-04-16T10:02:25.608Z</time>
      </trkpt>
      <trkpt lat="48.52179" lon="2.67282">
        <ele>38</ele>
        <time>2023-04-16T10:02:30.113Z</time>
      </trkpt>
      <trkpt lat="48.52184" lon="2.67279">
        <ele>39</ele>
        <time>2023-04-16T10:02:34.117Z</time>
      </trkpt>
      <trkpt lat="48.52188" lon="2.67278">
        <ele>39</ele>
        <time>2023-04-16T10:02:38.120Z</time>
      </trkpt>
      <trkpt lat="48.52194" lon="2.67275">
        <ele>39</ele>
        <time>2023-04-16T10:02:42.623Z</time>
      </trkpt>
      <trkpt lat="48.52201" lon="2.67274">
        <ele>39</ele>
        <time>2023-04-16T10:02:46.625Z</time>
      </trkpt>
      <trkpt lat="48.52206" lon="2.67273">
        <ele>39</ele>
        <time>2023-04-16T10:02:51.727Z</time>
      </trkpt>
      <trkpt lat="48.52213" lon="2.6727">
        <ele>42</ele>
        <time>2023-04-16T10:02:55.789Z</time>
      </trkpt>
      <trkpt lat="48.52217" lon="2.67269">
        <ele>42</ele>
        <time>2023-04-16T10:02:59.832Z</time>
      </trkpt>
      <trkpt lat="48.52223" lon="2.67267">
        <ele>42</ele>
        <time>2023-04-16T10:03:03.835Z</time>
      </trkpt>
      <trkpt lat="48.52228" lon="2.67264">
        <ele>42</ele>
        <time>2023-04-16T10:03:08.916Z</time>
      </trkpt>
      <trkpt lat="48.52234" lon="2.67264">
        <ele>41</ele>
        <time>2023-04-16T10:03:12.977Z</time>
      </trkpt>
      <trkpt lat="48.52241" lon="2.67262">
        <ele>43</ele>
        <time>2023-04-16T10:03:17.098Z</time>
      </trkpt>
      <trkpt lat="48.52247" lon="2.6726">
        <ele>43</ele>
        <time>2023-04-16T10:03:21.233Z</time>
      </trkpt>
      <trkpt lat="48.52255" lon="2.67256">
        <ele>43</ele>
        <time>2023-04-16T10:03:25.762Z</time>
      </trkpt>
      <trkpt lat="48.52265" lon="2.67254">
        <ele>44</ele>
        <time>2023-04-16T10:03:30.764Z</time>
      </trkpt>
      <trkpt lat="48.52274" lon="2.67253">
        <ele>44</ele>
        <time>2023-04-16T10:03:35.847Z</time>
      </trkpt>
      <trkpt lat="48.52283" lon="2.6725">
        <ele>44</ele>
        <time>2023-04-16T10:03:40.948Z</time>
      </trkpt>
      <trkpt lat="48.5229" lon="2.67247">
        <ele>44</ele>
        <time>2023-04-16T10:03:45.450Z</time>
      </trkpt>
      <trkpt lat="48.52296" lon="2.67246">
        <ele>43</ele>
        <time>2023-04-16T10:03:49.472Z</time>
      </trkpt>
      <trkpt lat="48.523" lon="2.67246">
        <ele>43</ele>
        <time>2023-04-16T10:03:53.555Z</time>
      </trkpt>
      <trkpt lat="48.52306" lon="2.67246">
        <ele>43</ele>
        <time>2023-04-16T10:03:58.156Z</time>
      </trkpt>
      <trkpt lat="48.52311" lon="2.67243">
        <ele>43</ele>
        <time>2023-04-16T10:04:02.356Z</time>
      </trkpt>
      <trkpt lat="48.52317" lon="2.67241">
        <ele>43</ele>
        <time>2023-04-16T10:04:06.378Z</time>
      </trkpt>
      <trkpt lat="48.52323" lon="2.67239">
        <ele>43</ele>
        <time>2023-04-16T10:04:10.499Z</time>
      </trkpt>
      <trkpt lat="48.5233" lon="2.67237">
        <ele>43</ele>
        <time>2023-04-16T10:04:14.700Z</time>
      </trkpt>
      <trkpt lat="48.52336" lon="2.67234">
        <ele>43</ele>
        <time>2023-04-16T10:04:19.060Z</time>
      </trkpt>
      <trkpt lat="48.52342" lon="2.67234">
        <ele>43</ele>
        <time>2023-04-16T10:04:23.619Z</time>
      </trkpt>
      <trkpt lat="48.52348" lon="2.67232">
        <ele>42</ele>
        <time>2023-04-16T10:04:27.880Z</time>
      </trkpt>
      <trkpt lat="48.52358" lon="2.67229">
        <ele>42</ele>
        <time>2023-04-16T10:04:32.599Z</time>
      </trkpt>
      <trkpt lat="48.52366" lon="2.67226">
        <ele>42</ele>
        <time>2023-04-16T10:04:37.959Z</time>
      </trkpt>
      <trkpt lat="48.52373" lon="2.67223">
        <ele>42</ele>
        <time>2023-04-16T10:04:42.899Z</time>
      </trkpt>
      <trkpt lat="48.5238" lon="2.67221">
        <ele>41</ele>
        <time>2023-04-16T10:04:47.040Z</time>
      </trkpt>
      <trkpt lat="48.52387" lon="2.67219">
        <ele>41</ele>
        <time>2023-04-16T10:04:51.939Z</time>
      </trkpt>
      <trkpt lat="48.52393" lon="2.67217">
        <ele>41</ele>
        <time>2023-04-16T10:04:55.560Z</time>
      </trkpt>
      <trkpt lat="48.52399" lon="2.67216">
        <ele>41</ele>
        <time>2023-04-16T10:05:00.192Z</time>
      </trkpt>
      <trkpt lat="48.52405" lon="2.67214">
        <ele>40</ele>
        <time>2023-04-16T10:05:04.995Z</time>
      </trkpt>
      <trkpt lat="48.52411" lon="2.67213">
        <ele>40</ele>
        <time>2023-04-16T10:05:10.132Z</time>
      </trkpt>
      <trkpt lat="48.52419" lon="2.6721">
        <ele>40</ele>
        <time>2023-04-16T10:05:14.750Z</time>
      </trkpt>
      <trkpt lat="48.52426" lon="2.67207">
        <ele>40</ele>
        <time>2023-04-16T10:05:19.748Z</time>
      </trkpt>
      <trkpt lat="48.52433" lon="2.67203">
        <ele>40</ele>
        <time>2023-04-16T10:05:24.726Z</time>
      </trkpt>
      <trkpt lat="48.52439" lon="2.67201">
        <ele>40</ele>
        <time>2023-04-16T10:05:29.207Z</time>
      </trkpt>
      <trkpt lat="48.52445" lon="2.67199">
        <ele>40</ele>
        <time>2023-04-16T10:05:33.606Z</time>
      </trkpt>
      <trkpt lat="48.52451" lon="2.67197">
        <ele>40</ele>
        <time>2023-04-16T10:05:37.827Z</time>
      </trkpt>
      <trkpt lat="48.52456" lon="2.67195">
        <ele>40</ele>
        <time>2023-04-16T10:05:42.286Z</time>
      </trkpt>
      <trkpt lat="48.52462" lon="2.67192">
        <ele>39</ele>
        <time>2023-04-16T10:05:46.866Z</time>
      </trkpt>
      <trkpt lat="48.52468" lon="2.67189">
        <ele>39</ele>
        <time>2023-04-16T10:05:50.883Z</time>
      </trkpt>
      <trkpt lat="48.52474" lon="2.67187">
        <ele>39</ele>
        <time>2023-04-16T10:05:55.001Z</time>
      </trkpt>
      <trkpt lat="48.52481" lon="2.67184">
        <ele>39</ele>
        <time>2023-04-16T10:05:59.361Z</time>
      </trkpt>
      <trkpt lat="48.52486" lon="2.67182">
        <ele>38</ele>
        <time>2023-04-16T10:06:03.919Z</time>
      </trkpt>
      <trkpt lat="48.52494" lon="2.6718">
        <ele>38</ele>
        <time>2023-04-16T10:06:08.518Z</time>
      </trkpt>
      <trkpt lat="48.52502" lon="2.67177">
        <ele>38</ele>
        <time>2023-04-16T10:06:13.077Z</time>
      </trkpt>
      <trkpt lat="48.5251" lon="2.67174">
        <ele>38</ele>
        <time>2023-04-16T10:06:18.201Z</time>
      </trkpt>
      <trkpt lat="48.52515" lon="2.67171">
        <ele>37</ele>
        <time>2023-04-16T10:06:22.705Z</time>
      </trkpt>
      <trkpt lat="48.52522" lon="2.6717">
        <ele>37</ele>
        <time>2023-04-16T10:06:28.208Z</time>
      </trkpt>
      <trkpt lat="48.52526" lon="2.67168">
        <ele>37</ele>
        <time>2023-04-16T10:06:32.250Z</time>
      </trkpt>
      <trkpt lat="48.52531" lon="2.67167">
        <ele>37</ele>
        <time>2023-04-16T10:06:36.254Z</time>
      </trkpt>
      <trkpt lat="48.52539" lon="2.67164">
        <ele>37</ele>
        <time>2023-04-16T10:06:40.759Z</time>
      </trkpt>
      <trkpt lat="48.52548" lon="2.67163">
        <ele>38</ele>
        <time>2023-04-16T10:06:45.263Z</time>
      </trkpt>
      <trkpt lat="48.52555" lon="2.67161">
        <ele>38</ele>
        <time>2023-04-16T10:06:49.767Z</time>
      </trkpt>
      <trkpt lat="48.5256" lon="2.67159">
        <ele>38</ele>
        <time>2023-04-16T10:06:54.270Z</time>
      </trkpt>
      <trkpt lat="48.52566" lon="2.67158">
        <ele>38</ele>
        <time>2023-04-16T10:06:58.772Z</time>
      </trkpt>
      <trkpt lat="48.52573" lon="2.67156">
        <ele>41</ele>
        <time>2023-04-16T10:07:02.774Z</time>
      </trkpt>
      <trkpt lat="48.5258" lon="2.67155">
        <ele>41</ele>
        <time>2023-04-16T10:07:06.776Z</time>
      </trkpt>
      <trkpt lat="48.52587" lon="2.67154">
        <ele>41</ele>
        <time>2023-04-16T10:07:10.957Z</time>
      </trkpt>
      <trkpt lat="48.52595" lon="2.67152">
        <ele>40</ele>
        <time>2023-04-16T10:07:16.059Z</time>
      </trkpt>
      <trkpt lat="48.52601" lon="2.6715">
        <ele>40</ele>
        <time>2023-04-16T10:07:20.100Z</time>
      </trkpt>
      <trkpt lat="48.52608" lon="2.67148">
        <ele>40</ele>
        <time>2023-04-16T10:07:25.103Z</time>
      </trkpt>
      <trkpt lat="48.52615" lon="2.67146">
        <ele>40</ele>
        <time>2023-04-16T10:07:30.106Z</time>
      </trkpt>
      <trkpt lat="48.52621" lon="2.67146">
        <ele>40</ele>
        <time>2023-04-16T10:07:34.148Z</time>
      </trkpt>
      <trkpt lat="48.52626" lon="2.67144">
        <ele>40</ele>
        <time>2023-04-16T10:07:38.310Z</time>
      </trkpt>
      <trkpt lat="48.52633" lon="2.67142">
        <ele>40</ele>
        <time>2023-04-16T10:07:43.170Z</time>
      </trkpt>
      <trkpt lat="48.52639" lon="2.6714">
        <ele>40</ele>
        <time>2023-04-16T10:07:47.311Z</time>
      </trkpt>
      <trkpt lat="48.52646" lon="2.67138">
        <ele>40</ele>
        <time>2023-04-16T10:07:51.547Z</time>
      </trkpt>
      <trkpt lat="48.52651" lon="2.67135">
        <ele>40</ele>
        <time>2023-04-16T10:07:55.434Z</time>
      </trkpt>
      <trkpt lat="48.52652" lon="2.67133">
        <ele>40</ele>
        <time>2023-04-16T10:07:59.945Z</time>
      </trkpt>
      <trkpt lat="48.52653" lon="2.67132">
        <ele>44</ele>
        <time>2023-04-16T10:08:05.008Z</time>
      </trkpt>
      <trkpt lat="48.52653" lon="2.6713">
        <ele>44</ele>
        <time>2023-04-16T10:08:10.168Z</time>
      </trkpt>
      <trkpt lat="48.52654" lon="2.6713">
        <ele>44</ele>
        <time>2023-04-16T10:08:15.128Z</time>
      </trkpt>
      <trkpt lat="48.52662" lon="2.67129">
        <ele>44</ele>
        <time>2023-04-16T10:08:19.249Z</time>
      </trkpt>
      <trkpt lat="48.52669" lon="2.67129">
        <ele>44</ele>
        <time>2023-04-16T10:08:23.891Z</time>
      </trkpt>
      <trkpt lat="48.52677" lon="2.67129">
        <ele>44</ele>
        <time>2023-04-16T10:08:28.072Z</time>
      </trkpt>
      <trkpt lat="48.52683" lon="2.67127">
        <ele>45</ele>
        <time>2023-04-16T10:08:32.675Z</time>
      </trkpt>
      <trkpt lat="48.52689" lon="2.67126">
        <ele>45</ele>
        <time>2023-04-16T10:08:37.177Z</time>
      </trkpt>
      <trkpt lat="48.52696" lon="2.67124">
        <ele>46</ele>
        <time>2023-04-16T10:08:42.180Z</time>
      </trkpt>
      <trkpt lat="48.52703" lon="2.67122">
        <ele>46</ele>
        <time>2023-04-16T10:08:47.182Z</time>
      </trkpt>
      <trkpt lat="48.52709" lon="2.6712">
        <ele>41</ele>
        <time>2023-04-16T10:08:51.214Z</time>
      </trkpt>
      <trkpt lat="48.52716" lon="2.67118">
        <ele>41</ele>
        <time>2023-04-16T10:08:55.285Z</time>
      </trkpt>
      <trkpt lat="48.52724" lon="2.67116">
        <ele>41</ele>
        <time>2023-04-16T10:08:59.906Z</time>
      </trkpt>
      <trkpt lat="48.52732" lon="2.67115">
        <ele>41</ele>
        <time>2023-04-16T10:09:04.866Z</time>
      </trkpt>
      <trkpt lat="48.52739" lon="2.67113">
        <ele>38</ele>
        <time>2023-04-16T10:09:09.191Z</time>
      </trkpt>
      <trkpt lat="48.52747" lon="2.6711">
        <ele>38</ele>
        <time>2023-04-16T10:09:13.685Z</time>
      </trkpt>
      <trkpt lat="48.52755" lon="2.67108">
        <ele>38</ele>
        <time>2023-04-16T10:09:18.773Z</time>
      </trkpt>
      <trkpt lat="48.5276" lon="2.67106">
        <ele>38</ele>
        <time>2023-04-16T10:09:22.348Z</time>
      </trkpt>
      <trkpt lat="48.52766" lon="2.67105">
        <ele>39</ele>
        <time>2023-04-16T10:09:26.350Z</time>
      </trkpt>
      <trkpt lat="48.52772" lon="2.67104">
        <ele>39</ele>
        <time>2023-04-16T10:09:30.852Z</time>
      </trkpt>
      <trkpt lat="48.52779" lon="2.67102">
        <ele>39</ele>
        <time>2023-04-16T10:09:35.856Z</time>
      </trkpt>
      <trkpt lat="48.52783" lon="2.67102">
        <ele>39</ele>
        <time>2023-04-16T10:09:40.057Z</time>
      </trkpt>
      <trkpt lat="48.52789" lon="2.67105">
        <ele>39</ele>
        <time>2023-04-16T10:09:45.063Z</time>
      </trkpt>
      <trkpt lat="48.52796" lon="2.67107">
        <ele>39</ele>
        <time>2023-04-16T10:09:49.568Z</time>
      </trkpt>
      <trkpt lat="48.52803" lon="2.67099">
        <ele>39</ele>
        <time>2023-04-16T10:09:54.071Z</time>
      </trkpt>
      <trkpt lat="48.5281" lon="2.67094">
        <ele>38</ele>
        <time>2023-04-16T10:09:58.672Z</time>
      </trkpt>
      <trkpt lat="48.52816" lon="2.67092">
        <ele>38</ele>
        <time>2023-04-16T10:10:02.675Z</time>
      </trkpt>
      <trkpt lat="48.52821" lon="2.6709">
        <ele>39</ele>
        <time>2023-04-16T10:10:06.837Z</time>
      </trkpt>
      <trkpt lat="48.52829" lon="2.67087">
        <ele>39</ele>
        <time>2023-04-16T10:10:11.844Z</time>
      </trkpt>
      <trkpt lat="48.52833" lon="2.67085">
        <ele>39</ele>
        <time>2023-04-16T10:10:15.863Z</time>
      </trkpt>
      <trkpt lat="48.52837" lon="2.67083">
        <ele>39</ele>
        <time>2023-04-16T10:10:19.886Z</time>
      </trkpt>
      <trkpt lat="48.52843" lon="2.67082">
        <ele>39</ele>
        <time>2023-04-16T10:10:23.895Z</time>
      </trkpt>
      <trkpt lat="48.52848" lon="2.67081">
        <ele>41</ele>
        <time>2023-04-16T10:10:28.401Z</time>
      </trkpt>
      <trkpt lat="48.52855" lon="2.6708">
        <ele>41</ele>
        <time>2023-04-16T10:10:32.908Z</time>
      </trkpt>
      <trkpt lat="48.52862" lon="2.6708">
        <ele>41</ele>
        <time>2023-04-16T10:10:37.426Z</time>
      </trkpt>
      <trkpt lat="48.52868" lon="2.67076">
        <ele>41</ele>
        <time>2023-04-16T10:10:41.520Z</time>
      </trkpt>
      <trkpt lat="48.52875" lon="2.67071">
        <ele>43</ele>
        <time>2023-04-16T10:10:45.528Z</time>
      </trkpt>
      <trkpt lat="48.52882" lon="2.67065">
        <ele>40</ele>
        <time>2023-04-16T10:10:50.036Z</time>
      </trkpt>
      <trkpt lat="48.52887" lon="2.6706">
        <ele>40</ele>
        <time>2023-04-16T10:10:54.041Z</time>
      </trkpt>
      <trkpt lat="48.52888" lon="2.67051">
        <ele>40</ele>
        <time>2023-04-16T10:10:58.545Z</time>
      </trkpt>
      <trkpt lat="48.52892" lon="2.67042">
        <ele>40</ele>
        <time>2023-04-16T10:11:03.069Z</time>
      </trkpt>
      <trkpt lat="48.52898" lon="2.6704">
        <ele>39</ele>
        <time>2023-04-16T10:11:07.592Z</time>
      </trkpt>
      <trkpt lat="48.52903" lon="2.67039">
        <ele>39</ele>
        <time>2023-04-16T10:11:11.595Z</time>
      </trkpt>
      <trkpt lat="48.52908" lon="2.67038">
        <ele>42</ele>
        <time>2023-04-16T10:11:16.200Z</time>
      </trkpt>
      <trkpt lat="48.52915" lon="2.67035">
        <ele>42</ele>
        <time>2023-04-16T10:11:20.706Z</time>
      </trkpt>
      <trkpt lat="48.52918" lon="2.67034">
        <ele>42</ele>
        <time>2023-04-16T10:11:24.708Z</time>
      </trkpt>
      <trkpt lat="48.52924" lon="2.67036">
        <ele>42</ele>
        <time>2023-04-16T10:11:28.710Z</time>
      </trkpt>
      <trkpt lat="48.52932" lon="2.67033">
        <ele>47</ele>
        <time>2023-04-16T10:11:33.713Z</time>
      </trkpt>
      <trkpt lat="48.52936" lon="2.67033">
        <ele>47</ele>
        <time>2023-04-16T10:11:38.217Z</time>
      </trkpt>
      <trkpt lat="48.52941" lon="2.67029">
        <ele>47</ele>
        <time>2023-04-16T10:11:42.221Z</time>
      </trkpt>
      <trkpt lat="48.52946" lon="2.67023">
        <ele>47</ele>
        <time>2023-04-16T10:11:46.224Z</time>
      </trkpt>
      <trkpt lat="48.52952" lon="2.67018">
        <ele>47</ele>
        <time>2023-04-16T10:11:50.770Z</time>
      </trkpt>
      <trkpt lat="48.52958" lon="2.67014">
        <ele>47</ele>
        <time>2023-04-16T10:11:54.930Z</time>
      </trkpt>
      <trkpt lat="48.52965" lon="2.67005">
        <ele>47</ele>
        <time>2023-04-16T10:11:59.951Z</time>
      </trkpt>
      <trkpt lat="48.52969" lon="2.67004">
        <ele>47</ele>
        <time>2023-04-16T10:12:04.043Z</time>
      </trkpt>
      <trkpt lat="48.52973" lon="2.67001">
        <ele>47</ele>
        <time>2023-04-16T10:12:08.146Z</time>
      </trkpt>
      <trkpt lat="48.5298" lon="2.66996">
        <ele>47</ele>
        <time>2023-04-16T10:12:13.148Z</time>
      </trkpt>
      <trkpt lat="48.52984" lon="2.66987">
        <ele>47</ele>
        <time>2023-04-16T10:12:17.651Z</time>
      </trkpt>
      <trkpt lat="48.52986" lon="2.66979">
        <ele>48</ele>
        <time>2023-04-16T10:12:22.155Z</time>
      </trkpt>
      <trkpt lat="48.52987" lon="2.66977">
        <ele>48</ele>
        <time>2023-04-16T10:12:26.262Z</time>
      </trkpt>
      <trkpt lat="48.52988" lon="2.66973">
        <ele>48</ele>
        <time>2023-04-16T10:36:25.186Z</time>
      </trkpt>
      <trkpt lat="48.5299" lon="2.66974">
        <ele>48</ele>
        <time>2023-04-16T10:36:29.202Z</time>
      </trkpt>
      <trkpt lat="48.52993" lon="2.66973">
        <ele>48</ele>
        <time>2023-04-16T10:36:33.230Z</time>
      </trkpt>
      <trkpt lat="48.52997" lon="2.66971">
        <ele>48</ele>
        <time>2023-04-16T10:36:37.350Z</time>
      </trkpt>
      <trkpt lat="48.53001" lon="2.66968">
        <ele>48</ele>
        <time>2023-04-16T10:36:41.874Z</time>
      </trkpt>
      <trkpt lat="48.53006" lon="2.66967">
        <ele>48</ele>
        <time>2023-04-16T10:36:45.892Z</time>
      </trkpt>
      <trkpt lat="48.5301" lon="2.66964">
        <ele>48</ele>
        <time>2023-04-16T10:36:50.413Z</time>
      </trkpt>
      <trkpt lat="48.53014" lon="2.66961">
        <ele>48</ele>
        <time>2023-04-16T10:36:55.037Z</time>
      </trkpt>
      <trkpt lat="48.53019" lon="2.66959">
        <ele>48</ele>
        <time>2023-04-16T10:36:59.560Z</time>
      </trkpt>
      <trkpt lat="48.53024" lon="2.66959">
        <ele>48</ele>
        <time>2023-04-16T10:37:03.581Z</time>
      </trkpt>
      <trkpt lat="48.5303" lon="2.66958">
        <ele>48</ele>
        <time>2023-04-16T10:37:08.103Z</time>
      </trkpt>
      <trkpt lat="48.53033" lon="2.66954">
        <ele>48</ele>
        <time>2023-04-16T10:37:12.624Z</time>
      </trkpt>
      <trkpt lat="48.53038" lon="2.66952">
        <ele>48</ele>
        <time>2023-04-16T10:37:16.644Z</time>
      </trkpt>
      <trkpt lat="48.53044" lon="2.66949">
        <ele>47</ele>
        <time>2023-04-16T10:37:21.166Z</time>
      </trkpt>
      <trkpt lat="48.53048" lon="2.66945">
        <ele>47</ele>
        <time>2023-04-16T10:37:25.286Z</time>
      </trkpt>
      <trkpt lat="48.53052" lon="2.66942">
        <ele>47</ele>
        <time>2023-04-16T10:37:29.308Z</time>
      </trkpt>
      <trkpt lat="48.53058" lon="2.66938">
        <ele>47</ele>
        <time>2023-04-16T10:37:33.834Z</time>
      </trkpt>
      <trkpt lat="48.53062" lon="2.66933">
        <ele>47</ele>
        <time>2023-04-16T10:37:37.956Z</time>
      </trkpt>
      <trkpt lat="48.53067" lon="2.66926">
        <ele>47</ele>
        <time>2023-04-16T10:37:42.480Z</time>
      </trkpt>
      <trkpt lat="48.5307" lon="2.66922">
        <ele>45</ele>
        <time>2023-04-16T10:37:47.003Z</time>
      </trkpt>
      <trkpt lat="48.53074" lon="2.66919">
        <ele>45</ele>
        <time>2023-04-16T10:37:51.526Z</time>
      </trkpt>
      <trkpt lat="48.53077" lon="2.66914">
        <ele>45</ele>
        <time>2023-04-16T10:37:56.049Z</time>
      </trkpt>
      <trkpt lat="48.53081" lon="2.66911">
        <ele>45</ele>
        <time>2023-04-16T10:38:00.572Z</time>
      </trkpt>
      <trkpt lat="48.53086" lon="2.66906">
        <ele>45</ele>
        <time>2023-04-16T10:38:05.096Z</time>
      </trkpt>
      <trkpt lat="48.5309" lon="2.66899">
        <ele>45</ele>
        <time>2023-04-16T10:38:09.720Z</time>
      </trkpt>
      <trkpt lat="48.53093" lon="2.66896">
        <ele>45</ele>
        <time>2023-04-16T10:38:13.742Z</time>
      </trkpt>
      <trkpt lat="48.53098" lon="2.66892">
        <ele>45</ele>
        <time>2023-04-16T10:38:17.967Z</time>
      </trkpt>
      <trkpt lat="48.53102" lon="2.66888">
        <ele>45</ele>
        <time>2023-04-16T10:38:22.091Z</time>
      </trkpt>
      <trkpt lat="48.53106" lon="2.66887">
        <ele>45</ele>
        <time>2023-04-16T10:38:26.214Z</time>
      </trkpt>
      <trkpt lat="48.53111" lon="2.66885">
        <ele>45</ele>
        <time>2023-04-16T10:38:30.238Z</time>
      </trkpt>
      <trkpt lat="48.53116" lon="2.66882">
        <ele>45</ele>
        <time>2023-04-16T10:38:34.361Z</time>
      </trkpt>
      <trkpt lat="48.53122" lon="2.66877">
        <ele>45</ele>
        <time>2023-04-16T10:38:38.989Z</time>
      </trkpt>
      <trkpt lat="48.53127" lon="2.66872">
        <ele>46</ele>
        <time>2023-04-16T10:38:43.112Z</time>
      </trkpt>
      <trkpt lat="48.53132" lon="2.66866">
        <ele>46</ele>
        <time>2023-04-16T10:38:47.639Z</time>
      </trkpt>
      <trkpt lat="48.53136" lon="2.66861">
        <ele>46</ele>
        <time>2023-04-16T10:38:52.197Z</time>
      </trkpt>
      <trkpt lat="48.53141" lon="2.66854">
        <ele>46</ele>
        <time>2023-04-16T10:38:56.291Z</time>
      </trkpt>
      <trkpt lat="48.53146" lon="2.66849">
        <ele>46</ele>
        <time>2023-04-16T10:39:00.315Z</time>
      </trkpt>
      <trkpt lat="48.53151" lon="2.66844">
        <ele>43</ele>
        <time>2023-04-16T10:39:04.842Z</time>
      </trkpt>
      <trkpt lat="48.53156" lon="2.66839">
        <ele>43</ele>
        <time>2023-04-16T10:39:08.865Z</time>
      </trkpt>
      <trkpt lat="48.53161" lon="2.66833">
        <ele>43</ele>
        <time>2023-04-16T10:39:13.492Z</time>
      </trkpt>
      <trkpt lat="48.53166" lon="2.66829">
        <ele>43</ele>
        <time>2023-04-16T10:39:18.017Z</time>
      </trkpt>
      <trkpt lat="48.53167" lon="2.66828">
        <ele>43</ele>
        <time>2023-04-16T10:39:19.022Z</time>
      </trkpt>
      <trkpt lat="48.53178" lon="2.66818">
        <ele>40</ele>
        <time>2023-04-16T10:39:27.070Z</time>
      </trkpt>
      <trkpt lat="48.53186" lon="2.66814">
        <ele>44</ele>
        <time>2023-04-16T10:39:31.594Z</time>
      </trkpt>
      <trkpt lat="48.53192" lon="2.66811">
        <ele>44</ele>
        <time>2023-04-16T10:39:35.603Z</time>
      </trkpt>
      <trkpt lat="48.53197" lon="2.66808">
        <ele>44</ele>
        <time>2023-04-16T10:39:39.608Z</time>
      </trkpt>
      <trkpt lat="48.53201" lon="2.66805">
        <ele>44</ele>
        <time>2023-04-16T10:39:44.714Z</time>
      </trkpt>
      <trkpt lat="48.53206" lon="2.66802">
        <ele>44</ele>
        <time>2023-04-16T10:39:48.719Z</time>
      </trkpt>
      <trkpt lat="48.53212" lon="2.66797">
        <ele>47</ele>
        <time>2023-04-16T10:39:53.723Z</time>
      </trkpt>
      <trkpt lat="48.53216" lon="2.66794">
        <ele>47</ele>
        <time>2023-04-16T10:39:57.725Z</time>
      </trkpt>
      <trkpt lat="48.53224" lon="2.6679">
        <ele>45</ele>
        <time>2023-04-16T10:40:02.828Z</time>
      </trkpt>
      <trkpt lat="48.53229" lon="2.66785">
        <ele>45</ele>
        <time>2023-04-16T10:40:06.949Z</time>
      </trkpt>
      <trkpt lat="48.53234" lon="2.66777">
        <ele>45</ele>
        <time>2023-04-16T10:40:11.670Z</time>
      </trkpt>
      <trkpt lat="48.5324" lon="2.66772">
        <ele>47</ele>
        <time>2023-04-16T10:40:15.791Z</time>
      </trkpt>
      <trkpt lat="48.53244" lon="2.66767">
        <ele>47</ele>
        <time>2023-04-16T10:40:20.937Z</time>
      </trkpt>
      <trkpt lat="48.53248" lon="2.66764">
        <ele>44</ele>
        <time>2023-04-16T10:40:24.832Z</time>
      </trkpt>
      <trkpt lat="48.53254" lon="2.66759">
        <ele>44</ele>
        <time>2023-04-16T10:40:29.391Z</time>
      </trkpt>
      <trkpt lat="48.5326" lon="2.66755">
        <ele>44</ele>
        <time>2023-04-16T10:40:33.552Z</time>
      </trkpt>
      <trkpt lat="48.53264" lon="2.6675">
        <ele>46</ele>
        <time>2023-04-16T10:40:38.151Z</time>
      </trkpt>
      <trkpt lat="48.53268" lon="2.66744">
        <ele>46</ele>
        <time>2023-04-16T10:40:42.190Z</time>
      </trkpt>
      <trkpt lat="48.53271" lon="2.66738">
        <ele>46</ele>
        <time>2023-04-16T10:40:46.891Z</time>
      </trkpt>
      <trkpt lat="48.53274" lon="2.66732">
        <ele>45</ele>
        <time>2023-04-16T10:40:50.707Z</time>
      </trkpt>
      <trkpt lat="48.53276" lon="2.66726">
        <ele>45</ele>
        <time>2023-04-16T10:40:55.263Z</time>
      </trkpt>
      <trkpt lat="48.53281" lon="2.6672">
        <ele>45</ele>
        <time>2023-04-16T10:40:59.699Z</time>
      </trkpt>
      <trkpt lat="48.53286" lon="2.66714">
        <ele>45</ele>
        <time>2023-04-16T10:41:04.907Z</time>
      </trkpt>
      <trkpt lat="48.53291" lon="2.6671">
        <ele>45</ele>
        <time>2023-04-16T10:41:08.691Z</time>
      </trkpt>
      <trkpt lat="48.53297" lon="2.66704">
        <ele>49</ele>
        <time>2023-04-16T10:41:13.204Z</time>
      </trkpt>
      <trkpt lat="48.53302" lon="2.66697">
        <ele>49</ele>
        <time>2023-04-16T10:41:17.593Z</time>
      </trkpt>
      <trkpt lat="48.53308" lon="2.6669">
        <ele>49</ele>
        <time>2023-04-16T10:41:21.728Z</time>
      </trkpt>
      <trkpt lat="48.53312" lon="2.66685">
        <ele>49</ele>
        <time>2023-04-16T10:41:25.848Z</time>
      </trkpt>
      <trkpt lat="48.53316" lon="2.66678">
        <ele>52</ele>
        <time>2023-04-16T10:41:29.770Z</time>
      </trkpt>
      <trkpt lat="48.5332" lon="2.66674">
        <ele>56</ele>
        <time>2023-04-16T10:41:34.176Z</time>
      </trkpt>
      <trkpt lat="48.53323" lon="2.6667">
        <ele>56</ele>
        <time>2023-04-16T10:41:37.921Z</time>
      </trkpt>
      <trkpt lat="48.53329" lon="2.66666">
        <ele>56</ele>
        <time>2023-04-16T10:41:42.499Z</time>
      </trkpt>
      <trkpt lat="48.53333" lon="2.66662">
        <ele>56</ele>
        <time>2023-04-16T10:41:46.575Z</time>
      </trkpt>
      <trkpt lat="48.53337" lon="2.66659">
        <ele>56</ele>
        <time>2023-04-16T10:41:50.771Z</time>
      </trkpt>
      <trkpt lat="48.53341" lon="2.66655">
        <ele>56</ele>
        <time>2023-04-16T10:41:54.727Z</time>
      </trkpt>
      <trkpt lat="48.53345" lon="2.6665">
        <ele>54</ele>
        <time>2023-04-16T10:41:59.403Z</time>
      </trkpt>
      <trkpt lat="48.5335" lon="2.66644">
        <ele>53</ele>
        <time>2023-04-16T10:42:03.599Z</time>
      </trkpt>
      <trkpt lat="48.53354" lon="2.66638">
        <ele>53</ele>
        <time>2023-04-16T10:42:07.557Z</time>
      </trkpt>
      <trkpt lat="48.53357" lon="2.66631">
        <ele>53</ele>
        <time>2023-04-16T10:42:12.075Z</time>
      </trkpt>
      <trkpt lat="48.53362" lon="2.66627">
        <ele>53</ele>
        <time>2023-04-16T10:42:15.912Z</time>
      </trkpt>
      <trkpt lat="48.53367" lon="2.66623">
        <ele>50</ele>
        <time>2023-04-16T10:42:20.372Z</time>
      </trkpt>
      <trkpt lat="48.53371" lon="2.66618">
        <ele>50</ele>
        <time>2023-04-16T10:42:24.975Z</time>
      </trkpt>
      <trkpt lat="48.53376" lon="2.66611">
        <ele>51</ele>
        <time>2023-04-16T10:42:28.949Z</time>
      </trkpt>
      <trkpt lat="48.53381" lon="2.66603">
        <ele>51</ele>
        <time>2023-04-16T10:42:33.387Z</time>
      </trkpt>
      <trkpt lat="48.53385" lon="2.66596">
        <ele>48</ele>
        <time>2023-04-16T10:42:37.704Z</time>
      </trkpt>
      <trkpt lat="48.53389" lon="2.6659">
        <ele>48</ele>
        <time>2023-04-16T10:42:42.017Z</time>
      </trkpt>
      <trkpt lat="48.53392" lon="2.66584">
        <ele>48</ele>
        <time>2023-04-16T10:42:45.741Z</time>
      </trkpt>
      <trkpt lat="48.53396" lon="2.66577">
        <ele>48</ele>
        <time>2023-04-16T10:42:50.298Z</time>
      </trkpt>
      <trkpt lat="48.53399" lon="2.6657">
        <ele>48</ele>
        <time>2023-04-16T10:42:54.757Z</time>
      </trkpt>
      <trkpt lat="48.53404" lon="2.66562">
        <ele>51</ele>
        <time>2023-04-16T10:42:59.314Z</time>
      </trkpt>
      <trkpt lat="48.53408" lon="2.66555">
        <ele>51</ele>
        <time>2023-04-16T10:43:03.894Z</time>
      </trkpt>
      <trkpt lat="48.53412" lon="2.66551">
        <ele>51</ele>
        <time>2023-04-16T10:43:07.826Z</time>
      </trkpt>
      <trkpt lat="48.53417" lon="2.66546">
        <ele>51</ele>
        <time>2023-04-16T10:43:11.662Z</time>
      </trkpt>
      <trkpt lat="48.53421" lon="2.66539">
        <ele>49</ele>
        <time>2023-04-16T10:43:15.738Z</time>
      </trkpt>
      <trkpt lat="48.53427" lon="2.66531">
        <ele>49</ele>
        <time>2023-04-16T10:43:20.715Z</time>
      </trkpt>
      <trkpt lat="48.53431" lon="2.66525">
        <ele>53</ele>
        <time>2023-04-16T10:43:24.729Z</time>
      </trkpt>
      <trkpt lat="48.53435" lon="2.66519">
        <ele>53</ele>
        <time>2023-04-16T10:43:28.806Z</time>
      </trkpt>
      <trkpt lat="48.5344" lon="2.66514">
        <ele>53</ele>
        <time>2023-04-16T10:43:32.882Z</time>
      </trkpt>
      <trkpt lat="48.53443" lon="2.66509">
        <ele>50</ele>
        <time>2023-04-16T10:43:36.960Z</time>
      </trkpt>
      <trkpt lat="48.53447" lon="2.66504">
        <ele>50</ele>
        <time>2023-04-16T10:43:41.077Z</time>
      </trkpt>
      <trkpt lat="48.53452" lon="2.66498">
        <ele>50</ele>
        <time>2023-04-16T10:43:45.633Z</time>
      </trkpt>
      <trkpt lat="48.53457" lon="2.6649">
        <ele>50</ele>
        <time>2023-04-16T10:43:50.189Z</time>
      </trkpt>
      <trkpt lat="48.53463" lon="2.66481">
        <ele>51</ele>
        <time>2023-04-16T10:43:54.585Z</time>
      </trkpt>
      <trkpt lat="48.53467" lon="2.66475">
        <ele>51</ele>
        <time>2023-04-16T10:43:58.742Z</time>
      </trkpt>
      <trkpt lat="48.53472" lon="2.66471">
        <ele>51</ele>
        <time>2023-04-16T10:44:03.214Z</time>
      </trkpt>
      <trkpt lat="48.53479" lon="2.66466">
        <ele>51</ele>
        <time>2023-04-16T10:44:07.734Z</time>
      </trkpt>
      <trkpt lat="48.53482" lon="2.66463">
        <ele>51</ele>
        <time>2023-04-16T10:44:12.291Z</time>
      </trkpt>
      <trkpt lat="48.53487" lon="2.66457">
        <ele>45</ele>
        <time>2023-04-16T10:44:16.727Z</time>
      </trkpt>
      <trkpt lat="48.53493" lon="2.6645">
        <ele>45</ele>
        <time>2023-04-16T10:44:21.795Z</time>
      </trkpt>
      <trkpt lat="48.53498" lon="2.66447">
        <ele>45</ele>
        <time>2023-04-16T10:44:25.838Z</time>
      </trkpt>
      <trkpt lat="48.53502" lon="2.66441">
        <ele>45</ele>
        <time>2023-04-16T10:44:29.717Z</time>
      </trkpt>
      <trkpt lat="48.53506" lon="2.66433">
        <ele>45</ele>
        <time>2023-04-16T10:44:33.755Z</time>
      </trkpt>
      <trkpt lat="48.5351" lon="2.66424">
        <ele>41</ele>
        <time>2023-04-16T10:44:38.418Z</time>
      </trkpt>
      <trkpt lat="48.53514" lon="2.66417">
        <ele>44</ele>
        <time>2023-04-16T10:44:42.418Z</time>
      </trkpt>
      <trkpt lat="48.53518" lon="2.6641">
        <ele>44</ele>
        <time>2023-04-16T10:44:46.870Z</time>
      </trkpt>
      <trkpt lat="48.53521" lon="2.66404">
        <ele>44</ele>
        <time>2023-04-16T10:44:50.749Z</time>
      </trkpt>
      <trkpt lat="48.53525" lon="2.66397">
        <ele>40</ele>
        <time>2023-04-16T10:44:55.418Z</time>
      </trkpt>
      <trkpt lat="48.53529" lon="2.66391">
        <ele>40</ele>
        <time>2023-04-16T10:44:59.382Z</time>
      </trkpt>
      <trkpt lat="48.53532" lon="2.66384">
        <ele>40</ele>
        <time>2023-04-16T10:45:04.057Z</time>
      </trkpt>
      <trkpt lat="48.53535" lon="2.66379">
        <ele>40</ele>
        <time>2023-04-16T10:45:07.758Z</time>
      </trkpt>
      <trkpt lat="48.53538" lon="2.66373">
        <ele>40</ele>
        <time>2023-04-16T10:45:11.895Z</time>
      </trkpt>
      <trkpt lat="48.53542" lon="2.66365">
        <ele>45</ele>
        <time>2023-04-16T10:45:16.356Z</time>
      </trkpt>
      <trkpt lat="48.53546" lon="2.6636">
        <ele>45</ele>
        <time>2023-04-16T10:45:20.418Z</time>
      </trkpt>
      <trkpt lat="48.53551" lon="2.66355">
        <ele>45</ele>
        <time>2023-04-16T10:45:25.046Z</time>
      </trkpt>
      <trkpt lat="48.53556" lon="2.6635">
        <ele>45</ele>
        <time>2023-04-16T10:45:29.003Z</time>
      </trkpt>
      <trkpt lat="48.53562" lon="2.66346">
        <ele>44</ele>
        <time>2023-04-16T10:45:33.418Z</time>
      </trkpt>
      <trkpt lat="48.53568" lon="2.66349">
        <ele>45</ele>
        <time>2023-04-16T10:45:38.057Z</time>
      </trkpt>
      <trkpt lat="48.53574" lon="2.66356">
        <ele>50</ele>
        <time>2023-04-16T10:45:42.733Z</time>
      </trkpt>
      <trkpt lat="48.53581" lon="2.66358">
        <ele>50</ele>
        <time>2023-04-16T10:45:47.207Z</time>
      </trkpt>
      <trkpt lat="48.53588" lon="2.66353">
        <ele>50</ele>
        <time>2023-04-16T10:45:51.730Z</time>
      </trkpt>
      <trkpt lat="48.53594" lon="2.66347">
        <ele>46</ele>
        <time>2023-04-16T10:45:55.744Z</time>
      </trkpt>
      <trkpt lat="48.53596" lon="2.6635">
        <ele>50</ele>
        <time>2023-04-16T10:45:59.700Z</time>
      </trkpt>
      <trkpt lat="48.53596" lon="2.66353">
        <ele>50</ele>
        <time>2023-04-16T10:46:03.777Z</time>
      </trkpt>
      <trkpt lat="48.53597" lon="2.66353">
        <ele>52</ele>
        <time>2023-04-16T10:46:08.597Z</time>
      </trkpt>
      <trkpt lat="48.53597" lon="2.6636">
        <ele>50</ele>
        <time>2023-04-16T10:46:12.517Z</time>
      </trkpt>
      <trkpt lat="48.53593" lon="2.66364">
        <ele>50</ele>
        <time>2023-04-16T10:46:17.049Z</time>
      </trkpt>
      <trkpt lat="48.53589" lon="2.66366">
        <ele>50</ele>
        <time>2023-04-16T10:46:20.158Z</time>
      </trkpt>
      <trkpt lat="48.53579" lon="2.66365">
        <ele>50</ele>
        <time>2023-04-16T10:46:28.741Z</time>
      </trkpt>
      <trkpt lat="48.53579" lon="2.66365">
        <ele>50</ele>
        <time>2023-04-16T10:46:33.758Z</time>
      </trkpt>
      <trkpt lat="48.53573" lon="2.6637">
        <ele>50</ele>
        <time>2023-04-16T10:46:37.773Z</time>
      </trkpt>
      <trkpt lat="48.53567" lon="2.66375">
        <ele>48</ele>
        <time>2023-04-16T10:46:42.289Z</time>
      </trkpt>
      <trkpt lat="48.53565" lon="2.6638">
        <ele>48</ele>
        <time>2023-04-16T10:46:46.302Z</time>
      </trkpt>
      <trkpt lat="48.5356" lon="2.66385">
        <ele>48</ele>
        <time>2023-04-16T10:46:50.815Z</time>
      </trkpt>
      <trkpt lat="48.53557" lon="2.6639">
        <ele>48</ele>
        <time>2023-04-16T10:46:54.824Z</time>
      </trkpt>
      <trkpt lat="48.53551" lon="2.66397">
        <ele>48</ele>
        <time>2023-04-16T10:46:59.334Z</time>
      </trkpt>
      <trkpt lat="48.53547" lon="2.66404">
        <ele>51</ele>
        <time>2023-04-16T10:47:03.843Z</time>
      </trkpt>
      <trkpt lat="48.53544" lon="2.66411">
        <ele>51</ele>
        <time>2023-04-16T10:47:07.850Z</time>
      </trkpt>
      <trkpt lat="48.53541" lon="2.66419">
        <ele>44</ele>
        <time>2023-04-16T10:47:12.358Z</time>
      </trkpt>
      <trkpt lat="48.53538" lon="2.66427">
        <ele>44</ele>
        <time>2023-04-16T10:47:16.365Z</time>
      </trkpt>
      <trkpt lat="48.53536" lon="2.66433">
        <ele>49</ele>
        <time>2023-04-16T10:47:20.871Z</time>
      </trkpt>
      <trkpt lat="48.53534" lon="2.66438">
        <ele>49</ele>
        <time>2023-04-16T10:47:24.877Z</time>
      </trkpt>
      <trkpt lat="48.53532" lon="2.66442">
        <ele>49</ele>
        <time>2023-04-16T10:47:29.383Z</time>
      </trkpt>
      <trkpt lat="48.53531" lon="2.66447">
        <ele>49</ele>
        <time>2023-04-16T10:47:33.889Z</time>
      </trkpt>
      <trkpt lat="48.5353" lon="2.66455">
        <ele>49</ele>
        <time>2023-04-16T10:47:38.495Z</time>
      </trkpt>
      <trkpt lat="48.53529" lon="2.66462">
        <ele>56</ele>
        <time>2023-04-16T10:47:42.500Z</time>
      </trkpt>
      <trkpt lat="48.53528" lon="2.66469">
        <ele>56</ele>
        <time>2023-04-16T10:47:47.005Z</time>
      </trkpt>
      <trkpt lat="48.53528" lon="2.66473">
        <ele>56</ele>
        <time>2023-04-16T10:47:52.013Z</time>
      </trkpt>
      <trkpt lat="48.53528" lon="2.66477">
        <ele>56</ele>
        <time>2023-04-16T10:47:57.019Z</time>
      </trkpt>
      <trkpt lat="48.53525" lon="2.66483">
        <ele>56</ele>
        <time>2023-04-16T10:48:01.024Z</time>
      </trkpt>
      <trkpt lat="48.53522" lon="2.66485">
        <ele>56</ele>
        <time>2023-04-16T10:48:06.028Z</time>
      </trkpt>
      <trkpt lat="48.53524" lon="2.66485">
        <ele>56</ele>
        <time>2023-04-16T10:48:11.034Z</time>
      </trkpt>
      <trkpt lat="48.53523" lon="2.66488">
        <ele>63</ele>
        <time>2023-04-16T10:48:15.540Z</time>
      </trkpt>
      <trkpt lat="48.53519" lon="2.66493">
        <ele>63</ele>
        <time>2023-04-16T10:48:19.545Z</time>
      </trkpt>
      <trkpt lat="48.53516" lon="2.66494">
        <ele>63</ele>
        <time>2023-04-16T10:48:24.051Z</time>
      </trkpt>
      <trkpt lat="48.53515" lon="2.66491">
        <ele>63</ele>
        <time>2023-04-16T10:48:28.557Z</time>
      </trkpt>
      <trkpt lat="48.53516" lon="2.6649">
        <ele>63</ele>
        <time>2023-04-16T10:48:33.080Z</time>
      </trkpt>
      <trkpt lat="48.53517" lon="2.66491">
        <ele>63</ele>
        <time>2023-04-16T10:48:38.108Z</time>
      </trkpt>
      <trkpt lat="48.53516" lon="2.66495">
        <ele>63</ele>
        <time>2023-04-16T10:48:41.948Z</time>
      </trkpt>
      <trkpt lat="48.53512" lon="2.66504">
        <ele>59</ele>
        <time>2023-04-16T10:48:47.192Z</time>
      </trkpt>
      <trkpt lat="48.53515" lon="2.66503">
        <ele>63</ele>
        <time>2023-04-16T10:50:00.178Z</time>
      </trkpt>
      <trkpt lat="48.53517" lon="2.66503">
        <ele>63</ele>
        <time>2023-04-16T10:50:05.181Z</time>
      </trkpt>
      <trkpt lat="48.53519" lon="2.66501">
        <ele>63</ele>
        <time>2023-04-16T10:50:10.179Z</time>
      </trkpt>
      <trkpt lat="48.5352" lon="2.665">
        <ele>63</ele>
        <time>2023-04-16T10:50:14.171Z</time>
      </trkpt>
      <trkpt lat="48.53521" lon="2.66501">
        <ele>63</ele>
        <time>2023-04-16T10:50:19.178Z</time>
      </trkpt>
      <trkpt lat="48.53523" lon="2.66499">
        <ele>63</ele>
        <time>2023-04-16T10:51:32.207Z</time>
      </trkpt>
      <trkpt lat="48.53524" lon="2.66497">
        <ele>63</ele>
        <time>2023-04-16T10:51:36.891Z</time>
      </trkpt>
      <trkpt lat="48.53526" lon="2.66492">
        <ele>63</ele>
        <time>2023-04-16T10:51:40.775Z</time>
      </trkpt>
      <trkpt lat="48.53528" lon="2.66485">
        <ele>56</ele>
        <time>2023-04-16T10:51:45.294Z</time>
      </trkpt>
      <trkpt lat="48.53531" lon="2.66481">
        <ele>56</ele>
        <time>2023-04-16T10:51:49.967Z</time>
      </trkpt>
      <trkpt lat="48.53533" lon="2.66476">
        <ele>56</ele>
        <time>2023-04-16T10:51:54.163Z</time>
      </trkpt>
      <trkpt lat="48.53535" lon="2.66472">
        <ele>56</ele>
        <time>2023-04-16T10:51:58.180Z</time>
      </trkpt>
      <trkpt lat="48.53537" lon="2.66468">
        <ele>56</ele>
        <time>2023-04-16T10:52:02.375Z</time>
      </trkpt>
      <trkpt lat="48.5354" lon="2.66461">
        <ele>56</ele>
        <time>2023-04-16T10:52:06.418Z</time>
      </trkpt>
      <trkpt lat="48.53543" lon="2.66455">
        <ele>56</ele>
        <time>2023-04-16T10:52:11.006Z</time>
      </trkpt>
      <trkpt lat="48.53545" lon="2.66451">
        <ele>56</ele>
        <time>2023-04-16T10:52:15.934Z</time>
      </trkpt>
      <trkpt lat="48.53547" lon="2.66447">
        <ele>56</ele>
        <time>2023-04-16T10:52:19.860Z</time>
      </trkpt>
      <trkpt lat="48.5355" lon="2.66441">
        <ele>56</ele>
        <time>2023-04-16T10:52:24.537Z</time>
      </trkpt>
      <trkpt lat="48.53554" lon="2.66436">
        <ele>56</ele>
        <time>2023-04-16T10:52:29.054Z</time>
      </trkpt>
      <trkpt lat="48.53558" lon="2.6643">
        <ele>51</ele>
        <time>2023-04-16T10:52:33.012Z</time>
      </trkpt>
      <trkpt lat="48.53562" lon="2.66423">
        <ele>51</ele>
        <time>2023-04-16T10:52:36.969Z</time>
      </trkpt>
      <trkpt lat="48.53566" lon="2.66417">
        <ele>51</ele>
        <time>2023-04-16T10:52:41.405Z</time>
      </trkpt>
      <trkpt lat="48.5357" lon="2.66413">
        <ele>58</ele>
        <time>2023-04-16T10:52:45.875Z</time>
      </trkpt>
      <trkpt lat="48.53575" lon="2.66409">
        <ele>58</ele>
        <time>2023-04-16T10:52:49.899Z</time>
      </trkpt>
      <trkpt lat="48.53579" lon="2.66405">
        <ele>58</ele>
        <time>2023-04-16T10:52:53.857Z</time>
      </trkpt>
      <trkpt lat="48.53584" lon="2.66401">
        <ele>53</ele>
        <time>2023-04-16T10:52:58.474Z</time>
      </trkpt>
      <trkpt lat="48.5359" lon="2.66396">
        <ele>53</ele>
        <time>2023-04-16T10:53:02.392Z</time>
      </trkpt>
      <trkpt lat="48.53595" lon="2.66392">
        <ele>53</ele>
        <time>2023-04-16T10:53:07.152Z</time>
      </trkpt>
      <trkpt lat="48.536" lon="2.66391">
        <ele>56</ele>
        <time>2023-04-16T10:53:10.967Z</time>
      </trkpt>
      <trkpt lat="48.53606" lon="2.6639">
        <ele>56</ele>
        <time>2023-04-16T10:53:15.165Z</time>
      </trkpt>
      <trkpt lat="48.53612" lon="2.66391">
        <ele>56</ele>
        <time>2023-04-16T10:53:19.482Z</time>
      </trkpt>
      <trkpt lat="48.53619" lon="2.66395">
        <ele>56</ele>
        <time>2023-04-16T10:53:23.870Z</time>
      </trkpt>
      <trkpt lat="48.53624" lon="2.66402">
        <ele>56</ele>
        <time>2023-04-16T10:53:28.047Z</time>
      </trkpt>
      <trkpt lat="48.53627" lon="2.66409">
        <ele>59</ele>
        <time>2023-04-16T10:53:32.289Z</time>
      </trkpt>
      <trkpt lat="48.53632" lon="2.66414">
        <ele>59</ele>
        <time>2023-04-16T10:53:36.366Z</time>
      </trkpt>
      <trkpt lat="48.53637" lon="2.6642">
        <ele>59</ele>
        <time>2023-04-16T10:53:40.646Z</time>
      </trkpt>
      <trkpt lat="48.5364" lon="2.66427">
        <ele>59</ele>
        <time>2023-04-16T10:53:44.870Z</time>
      </trkpt>
      <trkpt lat="48.53643" lon="2.66436">
        <ele>65</ele>
        <time>2023-04-16T10:53:49.365Z</time>
      </trkpt>
      <trkpt lat="48.53644" lon="2.66446">
        <ele>65</ele>
        <time>2023-04-16T10:53:53.949Z</time>
      </trkpt>
      <trkpt lat="48.53645" lon="2.66455">
        <ele>65</ele>
        <time>2023-04-16T10:53:58.003Z</time>
      </trkpt>
      <trkpt lat="48.53647" lon="2.66463">
        <ele>69</ele>
        <time>2023-04-16T10:54:02.362Z</time>
      </trkpt>
      <trkpt lat="48.53649" lon="2.66471">
        <ele>69</ele>
        <time>2023-04-16T10:54:06.801Z</time>
      </trkpt>
      <trkpt lat="48.53649" lon="2.66477">
        <ele>69</ele>
        <time>2023-04-16T10:54:11.418Z</time>
      </trkpt>
      <trkpt lat="48.5365" lon="2.66484">
        <ele>69</ele>
        <time>2023-04-16T10:54:15.959Z</time>
      </trkpt>
      <trkpt lat="48.53652" lon="2.66493">
        <ele>72</ele>
        <time>2023-04-16T10:54:20.531Z</time>
      </trkpt>
      <trkpt lat="48.53654" lon="2.665">
        <ele>68</ele>
        <time>2023-04-16T10:54:25.015Z</time>
      </trkpt>
      <trkpt lat="48.53657" lon="2.66508">
        <ele>68</ele>
        <time>2023-04-16T10:54:29.614Z</time>
      </trkpt>
      <trkpt lat="48.53659" lon="2.66514">
        <ele>71</ele>
        <time>2023-04-16T10:54:33.930Z</time>
      </trkpt>
      <trkpt lat="48.53662" lon="2.6652">
        <ele>71</ele>
        <time>2023-04-16T10:54:37.886Z</time>
      </trkpt>
      <trkpt lat="48.53668" lon="2.66529">
        <ele>71</ele>
        <time>2023-04-16T10:54:41.725Z</time>
      </trkpt>
      <trkpt lat="48.53672" lon="2.66536">
        <ele>71</ele>
        <time>2023-04-16T10:54:46.264Z</time>
      </trkpt>
      <trkpt lat="48.53676" lon="2.66543">
        <ele>73</ele>
        <time>2023-04-16T10:54:50.705Z</time>
      </trkpt>
      <trkpt lat="48.53678" lon="2.66549">
        <ele>73</ele>
        <time>2023-04-16T10:54:55.006Z</time>
      </trkpt>
      <trkpt lat="48.53683" lon="2.66554">
        <ele>69</ele>
        <time>2023-04-16T10:54:59.027Z</time>
      </trkpt>
      <trkpt lat="48.53688" lon="2.66562">
        <ele>69</ele>
        <time>2023-04-16T10:55:03.525Z</time>
      </trkpt>
      <trkpt lat="48.53691" lon="2.66568">
        <ele>69</ele>
        <time>2023-04-16T10:55:07.683Z</time>
      </trkpt>
      <trkpt lat="48.53695" lon="2.66576">
        <ele>72</ele>
        <time>2023-04-16T10:55:12.188Z</time>
      </trkpt>
      <trkpt lat="48.53699" lon="2.66582">
        <ele>72</ele>
        <time>2023-04-16T10:55:16.202Z</time>
      </trkpt>
      <trkpt lat="48.53701" lon="2.66589">
        <ele>72</ele>
        <time>2023-04-16T10:55:20.541Z</time>
      </trkpt>
      <trkpt lat="48.53705" lon="2.66594">
        <ele>72</ele>
        <time>2023-04-16T10:55:24.781Z</time>
      </trkpt>
      <trkpt lat="48.53708" lon="2.66595">
        <ele>72</ele>
        <time>2023-04-16T10:55:28.801Z</time>
      </trkpt>
      <trkpt lat="48.53713" lon="2.66599">
        <ele>72</ele>
        <time>2023-04-16T10:55:33.418Z</time>
      </trkpt>
      <trkpt lat="48.53717" lon="2.66601">
        <ele>72</ele>
        <time>2023-04-16T10:55:37.796Z</time>
      </trkpt>
      <trkpt lat="48.53722" lon="2.66603">
        <ele>72</ele>
        <time>2023-04-16T10:55:41.883Z</time>
      </trkpt>
      <trkpt lat="48.53728" lon="2.66607">
        <ele>72</ele>
        <time>2023-04-16T10:55:46.096Z</time>
      </trkpt>
      <trkpt lat="48.53732" lon="2.6661">
        <ele>72</ele>
        <time>2023-04-16T10:55:50.043Z</time>
      </trkpt>
      <trkpt lat="48.53738" lon="2.66613">
        <ele>69</ele>
        <time>2023-04-16T10:55:54.161Z</time>
      </trkpt>
      <trkpt lat="48.53742" lon="2.66615">
        <ele>69</ele>
        <time>2023-04-16T10:55:58.681Z</time>
      </trkpt>
      <trkpt lat="48.53747" lon="2.66617">
        <ele>69</ele>
        <time>2023-04-16T10:56:02.995Z</time>
      </trkpt>
      <trkpt lat="48.53751" lon="2.66619">
        <ele>69</ele>
        <time>2023-04-16T10:56:07.120Z</time>
      </trkpt>
      <trkpt lat="48.53755" lon="2.66622">
        <ele>69</ele>
        <time>2023-04-16T10:56:11.618Z</time>
      </trkpt>
      <trkpt lat="48.5376" lon="2.66624">
        <ele>69</ele>
        <time>2023-04-16T10:56:15.418Z</time>
      </trkpt>
      <trkpt lat="48.53766" lon="2.66624">
        <ele>66</ele>
        <time>2023-04-16T10:56:19.595Z</time>
      </trkpt>
      <trkpt lat="48.53774" lon="2.66628">
        <ele>69</ele>
        <time>2023-04-16T10:56:24.393Z</time>
      </trkpt>
      <trkpt lat="48.53782" lon="2.66632">
        <ele>69</ele>
        <time>2023-04-16T10:56:28.993Z</time>
      </trkpt>
      <trkpt lat="48.53789" lon="2.66633">
        <ele>69</ele>
        <time>2023-04-16T10:56:33.051Z</time>
      </trkpt>
      <trkpt lat="48.53796" lon="2.66635">
        <ele>65</ele>
        <time>2023-04-16T10:56:36.986Z</time>
      </trkpt>
      <trkpt lat="48.53803" lon="2.66637">
        <ele>65</ele>
        <time>2023-04-16T10:56:41.003Z</time>
      </trkpt>
      <trkpt lat="48.5381" lon="2.66641">
        <ele>65</ele>
        <time>2023-04-16T10:56:45.200Z</time>
      </trkpt>
      <trkpt lat="48.53817" lon="2.66644">
        <ele>65</ele>
        <time>2023-04-16T10:56:49.410Z</time>
      </trkpt>
      <trkpt lat="48.53824" lon="2.66647">
        <ele>60</ele>
        <time>2023-04-16T10:56:53.477Z</time>
      </trkpt>
      <trkpt lat="48.53831" lon="2.66653">
        <ele>60</ele>
        <time>2023-04-16T10:56:57.996Z</time>
      </trkpt>
      <trkpt lat="48.53838" lon="2.66657">
        <ele>60</ele>
        <time>2023-04-16T10:57:01.956Z</time>
      </trkpt>
      <trkpt lat="48.53845" lon="2.6666">
        <ele>60</ele>
        <time>2023-04-16T10:57:06.754Z</time>
      </trkpt>
      <trkpt lat="48.53851" lon="2.66659">
        <ele>56</ele>
        <time>2023-04-16T10:57:10.673Z</time>
      </trkpt>
      <trkpt lat="48.53858" lon="2.66659">
        <ele>56</ele>
        <time>2023-04-16T10:57:15.171Z</time>
      </trkpt>
      <trkpt lat="48.53866" lon="2.66661">
        <ele>56</ele>
        <time>2023-04-16T10:57:19.418Z</time>
      </trkpt>
      <trkpt lat="48.53875" lon="2.66662">
        <ele>56</ele>
        <time>2023-04-16T10:57:24.070Z</time>
      </trkpt>
      <trkpt lat="48.53884" lon="2.66663">
        <ele>50</ele>
        <time>2023-04-16T10:57:28.770Z</time>
      </trkpt>
      <trkpt lat="48.53887" lon="2.66663">
        <ele>50</ele>
        <time>2023-04-16T10:57:32.070Z</time>
      </trkpt>
      <trkpt lat="48.53899" lon="2.66667">
        <ele>50</ele>
        <time>2023-04-16T10:58:25.166Z</time>
      </trkpt>
      <trkpt lat="48.539" lon="2.66671">
        <ele>50</ele>
        <time>2023-04-16T10:58:30.204Z</time>
      </trkpt>
      <trkpt lat="48.53901" lon="2.66674">
        <ele>50</ele>
        <time>2023-04-16T10:58:34.418Z</time>
      </trkpt>
      <trkpt lat="48.53909" lon="2.66679">
        <ele>48</ele>
        <time>2023-04-16T10:58:38.949Z</time>
      </trkpt>
      <trkpt lat="48.53915" lon="2.66682">
        <ele>49</ele>
        <time>2023-04-16T10:58:43.972Z</time>
      </trkpt>
      <trkpt lat="48.53921" lon="2.66685">
        <ele>49</ele>
        <time>2023-04-16T10:58:48.633Z</time>
      </trkpt>
      <trkpt lat="48.53927" lon="2.66686">
        <ele>49</ele>
        <time>2023-04-16T10:58:53.135Z</time>
      </trkpt>
      <trkpt lat="48.53929" lon="2.66691">
        <ele>49</ele>
        <time>2023-04-16T10:58:57.709Z</time>
      </trkpt>
      <trkpt lat="48.53932" lon="2.66694">
        <ele>49</ele>
        <time>2023-04-16T10:59:01.880Z</time>
      </trkpt>
      <trkpt lat="48.53936" lon="2.66697">
        <ele>49</ele>
        <time>2023-04-16T10:59:06.562Z</time>
      </trkpt>
      <trkpt lat="48.53943" lon="2.66686">
        <ele>49</ele>
        <time>2023-04-16T10:59:10.962Z</time>
      </trkpt>
      <trkpt lat="48.53948" lon="2.66676">
        <ele>48</ele>
        <time>2023-04-16T10:59:15.521Z</time>
      </trkpt>
      <trkpt lat="48.5395" lon="2.66672">
        <ele>48</ele>
        <time>2023-04-16T10:59:17.310Z</time>
      </trkpt>
      <trkpt lat="48.5396" lon="2.66658">
        <ele>48</ele>
        <time>2023-04-16T10:59:25.954Z</time>
      </trkpt>
      <trkpt lat="48.53964" lon="2.66652">
        <ele>47</ele>
        <time>2023-04-16T10:59:30.961Z</time>
      </trkpt>
      <trkpt lat="48.53967" lon="2.66644">
        <ele>47</ele>
        <time>2023-04-16T10:59:36.177Z</time>
      </trkpt>
      <trkpt lat="48.5397" lon="2.66637">
        <ele>47</ele>
        <time>2023-04-16T10:59:40.312Z</time>
      </trkpt>
      <trkpt lat="48.53974" lon="2.6663">
        <ele>47</ele>
        <time>2023-04-16T10:59:44.940Z</time>
      </trkpt>
      <trkpt lat="48.53977" lon="2.66625">
        <ele>46</ele>
        <time>2023-04-16T10:59:48.700Z</time>
      </trkpt>
      <trkpt lat="48.5398" lon="2.6662">
        <ele>46</ele>
        <time>2023-04-16T10:59:53.739Z</time>
      </trkpt>
      <trkpt lat="48.53984" lon="2.66617">
        <ele>46</ele>
        <time>2023-04-16T10:59:58.099Z</time>
      </trkpt>
      <trkpt lat="48.53988" lon="2.66612">
        <ele>45</ele>
        <time>2023-04-16T11:00:06.178Z</time>
      </trkpt>
      <trkpt lat="48.53989" lon="2.66608">
        <ele>45</ele>
        <time>2023-04-16T11:00:10.581Z</time>
      </trkpt>
      <trkpt lat="48.53991" lon="2.66608">
        <ele>45</ele>
        <time>2023-04-16T11:00:14.418Z</time>
      </trkpt>
      <trkpt lat="48.53993" lon="2.66609">
        <ele>45</ele>
        <time>2023-04-16T11:00:19.137Z</time>
      </trkpt>
      <trkpt lat="48.53996" lon="2.66621">
        <ele>45</ele>
        <time>2023-04-16T11:00:23.896Z</time>
      </trkpt>
      <trkpt lat="48.53998" lon="2.66628">
        <ele>46</ele>
        <time>2023-04-16T11:00:27.934Z</time>
      </trkpt>
      <trkpt lat="48.54" lon="2.66636">
        <ele>46</ele>
        <time>2023-04-16T11:00:33.036Z</time>
      </trkpt>
      <trkpt lat="48.53999" lon="2.66642">
        <ele>46</ele>
        <time>2023-04-16T11:00:36.756Z</time>
      </trkpt>
      <trkpt lat="48.54002" lon="2.66647">
        <ele>46</ele>
        <time>2023-04-16T11:00:41.260Z</time>
      </trkpt>
      <trkpt lat="48.54003" lon="2.66657">
        <ele>47</ele>
        <time>2023-04-16T11:00:45.869Z</time>
      </trkpt>
      <trkpt lat="48.54006" lon="2.66666">
        <ele>47</ele>
        <time>2023-04-16T11:00:50.689Z</time>
      </trkpt>
      <trkpt lat="48.54005" lon="2.66674">
        <ele>47</ele>
        <time>2023-04-16T11:00:55.231Z</time>
      </trkpt>
      <trkpt lat="48.54009" lon="2.6668">
        <ele>47</ele>
        <time>2023-04-16T11:00:59.733Z</time>
      </trkpt>
      <trkpt lat="48.5401" lon="2.66688">
        <ele>48</ele>
        <time>2023-04-16T11:01:03.974Z</time>
      </trkpt>
      <trkpt lat="48.54011" lon="2.66701">
        <ele>48</ele>
        <time>2023-04-16T11:01:08.170Z</time>
      </trkpt>
      <trkpt lat="48.54012" lon="2.6671">
        <ele>49</ele>
        <time>2023-04-16T11:01:12.213Z</time>
      </trkpt>
      <trkpt lat="48.54013" lon="2.66713">
        <ele>49</ele>
        <time>2023-04-16T11:01:16.269Z</time>
      </trkpt>
      <trkpt lat="48.54013" lon="2.6672">
        <ele>49</ele>
        <time>2023-04-16T11:01:20.347Z</time>
      </trkpt>
      <trkpt lat="48.54015" lon="2.6673">
        <ele>49</ele>
        <time>2023-04-16T11:01:24.966Z</time>
      </trkpt>
      <trkpt lat="48.54017" lon="2.66739">
        <ele>51</ele>
        <time>2023-04-16T11:01:29.418Z</time>
      </trkpt>
      <trkpt lat="48.54019" lon="2.66744">
        <ele>51</ele>
        <time>2023-04-16T11:01:33.418Z</time>
      </trkpt>
      <trkpt lat="48.5402" lon="2.66749">
        <ele>51</ele>
        <time>2023-04-16T11:01:37.322Z</time>
      </trkpt>
      <trkpt lat="48.54021" lon="2.66757">
        <ele>51</ele>
        <time>2023-04-16T11:01:42.080Z</time>
      </trkpt>
      <trkpt lat="48.54023" lon="2.66765">
        <ele>52</ele>
        <time>2023-04-16T11:01:46.679Z</time>
      </trkpt>
      <trkpt lat="48.54027" lon="2.66769">
        <ele>52</ele>
        <time>2023-04-16T11:01:50.517Z</time>
      </trkpt>
      <trkpt lat="48.54033" lon="2.6677">
        <ele>52</ele>
        <time>2023-04-16T11:01:55.074Z</time>
      </trkpt>
      <trkpt lat="48.5404" lon="2.6677">
        <ele>52</ele>
        <time>2023-04-16T11:01:59.418Z</time>
      </trkpt>
      <trkpt lat="48.54045" lon="2.66764">
        <ele>51</ele>
        <time>2023-04-16T11:02:04.053Z</time>
      </trkpt>
      <trkpt lat="48.54052" lon="2.66761">
        <ele>50</ele>
        <time>2023-04-16T11:02:08.491Z</time>
      </trkpt>
      <trkpt lat="48.54056" lon="2.66762">
        <ele>50</ele>
        <time>2023-04-16T11:02:12.931Z</time>
      </trkpt>
      <trkpt lat="48.5406" lon="2.66762">
        <ele>50</ele>
        <time>2023-04-16T11:02:16.851Z</time>
      </trkpt>
      <trkpt lat="48.54067" lon="2.66765">
        <ele>51</ele>
        <time>2023-04-16T11:02:21.692Z</time>
      </trkpt>
      <trkpt lat="48.54075" lon="2.66767">
        <ele>50</ele>
        <time>2023-04-16T11:02:25.751Z</time>
      </trkpt>
      <trkpt lat="48.5408" lon="2.66768">
        <ele>50</ele>
        <time>2023-04-16T11:02:30.071Z</time>
      </trkpt>
      <trkpt lat="48.54086" lon="2.66769">
        <ele>50</ele>
        <time>2023-04-16T11:02:34.610Z</time>
      </trkpt>
      <trkpt lat="48.54092" lon="2.66767">
        <ele>50</ele>
        <time>2023-04-16T11:02:38.712Z</time>
      </trkpt>
      <trkpt lat="48.54099" lon="2.66765">
        <ele>49</ele>
        <time>2023-04-16T11:02:43.052Z</time>
      </trkpt>
      <trkpt lat="48.54105" lon="2.66766">
        <ele>49</ele>
        <time>2023-04-16T11:02:46.813Z</time>
      </trkpt>
      <trkpt lat="48.54112" lon="2.6677">
        <ele>49</ele>
        <time>2023-04-16T11:02:51.371Z</time>
      </trkpt>
      <trkpt lat="48.54118" lon="2.66771">
        <ele>49</ele>
        <time>2023-04-16T11:02:55.751Z</time>
      </trkpt>
      <trkpt lat="48.54123" lon="2.66771">
        <ele>49</ele>
        <time>2023-04-16T11:02:59.729Z</time>
      </trkpt>
      <trkpt lat="48.5413" lon="2.6677">
        <ele>49</ele>
        <time>2023-04-16T11:03:04.130Z</time>
      </trkpt>
      <trkpt lat="48.54137" lon="2.66771">
        <ele>49</ele>
        <time>2023-04-16T11:03:08.177Z</time>
      </trkpt>
      <trkpt lat="48.54143" lon="2.66771">
        <ele>49</ele>
        <time>2023-04-16T11:03:12.125Z</time>
      </trkpt>
      <trkpt lat="48.54148" lon="2.66773">
        <ele>49</ele>
        <time>2023-04-16T11:03:16.584Z</time>
      </trkpt>
      <trkpt lat="48.54152" lon="2.66773">
        <ele>49</ele>
        <time>2023-04-16T11:03:20.503Z</time>
      </trkpt>
      <trkpt lat="48.54158" lon="2.6677">
        <ele>50</ele>
        <time>2023-04-16T11:03:24.939Z</time>
      </trkpt>
      <trkpt lat="48.54163" lon="2.6677">
        <ele>50</ele>
        <time>2023-04-16T11:03:28.958Z</time>
      </trkpt>
      <trkpt lat="48.54167" lon="2.66773">
        <ele>50</ele>
        <time>2023-04-16T11:03:32.736Z</time>
      </trkpt>
      <trkpt lat="48.54171" lon="2.6677">
        <ele>50</ele>
        <time>2023-04-16T11:03:36.934Z</time>
      </trkpt>
      <trkpt lat="48.54175" lon="2.66767">
        <ele>50</ele>
        <time>2023-04-16T11:03:41.512Z</time>
      </trkpt>
      <trkpt lat="48.54182" lon="2.66764">
        <ele>49</ele>
        <time>2023-04-16T11:03:46.071Z</time>
      </trkpt>
      <trkpt lat="48.54189" lon="2.66761">
        <ele>49</ele>
        <time>2023-04-16T11:03:50.331Z</time>
      </trkpt>
      <trkpt lat="48.54197" lon="2.66757">
        <ele>49</ele>
        <time>2023-04-16T11:03:54.711Z</time>
      </trkpt>
      <trkpt lat="48.54205" lon="2.66757">
        <ele>49</ele>
        <time>2023-04-16T11:03:58.912Z</time>
      </trkpt>
      <trkpt lat="48.54211" lon="2.66759">
        <ele>48</ele>
        <time>2023-04-16T11:04:03.418Z</time>
      </trkpt>
      <trkpt lat="48.54216" lon="2.66761">
        <ele>48</ele>
        <time>2023-04-16T11:04:07.418Z</time>
      </trkpt>
      <trkpt lat="48.54222" lon="2.66767">
        <ele>50</ele>
        <time>2023-04-16T11:04:11.906Z</time>
      </trkpt>
      <trkpt lat="48.54228" lon="2.66767">
        <ele>50</ele>
        <time>2023-04-16T11:04:15.804Z</time>
      </trkpt>
      <trkpt lat="48.54232" lon="2.66763">
        <ele>48</ele>
        <time>2023-04-16T11:04:19.603Z</time>
      </trkpt>
      <trkpt lat="48.54239" lon="2.66762">
        <ele>49</ele>
        <time>2023-04-16T11:04:23.943Z</time>
      </trkpt>
      <trkpt lat="48.54245" lon="2.66761">
        <ele>49</ele>
        <time>2023-04-16T11:04:27.762Z</time>
      </trkpt>
      <trkpt lat="48.5425" lon="2.66762">
        <ele>49</ele>
        <time>2023-04-16T11:04:31.883Z</time>
      </trkpt>
      <trkpt lat="48.54258" lon="2.66767">
        <ele>49</ele>
        <time>2023-04-16T11:04:36.726Z</time>
      </trkpt>
      <trkpt lat="48.54266" lon="2.66769">
        <ele>48</ele>
        <time>2023-04-16T11:04:41.223Z</time>
      </trkpt>
      <trkpt lat="48.54272" lon="2.66764">
        <ele>48</ele>
        <time>2023-04-16T11:04:45.301Z</time>
      </trkpt>
      <trkpt lat="48.54279" lon="2.66765">
        <ele>48</ele>
        <time>2023-04-16T11:04:49.300Z</time>
      </trkpt>
      <trkpt lat="48.54286" lon="2.66768">
        <ele>48</ele>
        <time>2023-04-16T11:04:53.718Z</time>
      </trkpt>
      <trkpt lat="48.54293" lon="2.66768">
        <ele>47</ele>
        <time>2023-04-16T11:04:58.276Z</time>
      </trkpt>
      <trkpt lat="48.54297" lon="2.66764">
        <ele>47</ele>
        <time>2023-04-16T11:05:02.847Z</time>
      </trkpt>
      <trkpt lat="48.54302" lon="2.66759">
        <ele>45</ele>
        <time>2023-04-16T11:05:06.951Z</time>
      </trkpt>
      <trkpt lat="48.54307" lon="2.66753">
        <ele>45</ele>
        <time>2023-04-16T11:05:11.093Z</time>
      </trkpt>
      <trkpt lat="48.54314" lon="2.6675">
        <ele>45</ele>
        <time>2023-04-16T11:05:15.166Z</time>
      </trkpt>
      <trkpt lat="48.54321" lon="2.66753">
        <ele>43</ele>
        <time>2023-04-16T11:05:19.324Z</time>
      </trkpt>
      <trkpt lat="48.54326" lon="2.66752">
        <ele>43</ele>
        <time>2023-04-16T11:05:23.813Z</time>
      </trkpt>
      <trkpt lat="48.54331" lon="2.66741">
        <ele>43</ele>
        <time>2023-04-16T11:05:27.820Z</time>
      </trkpt>
      <trkpt lat="48.54334" lon="2.66731">
        <ele>42</ele>
        <time>2023-04-16T11:05:31.897Z</time>
      </trkpt>
      <trkpt lat="48.54341" lon="2.66727">
        <ele>42</ele>
        <time>2023-04-16T11:05:36.314Z</time>
      </trkpt>
      <trkpt lat="48.54346" lon="2.66721">
        <ele>42</ele>
        <time>2023-04-16T11:05:40.673Z</time>
      </trkpt>
      <trkpt lat="48.54351" lon="2.66715">
        <ele>42</ele>
        <time>2023-04-16T11:05:45.152Z</time>
      </trkpt>
      <trkpt lat="48.54354" lon="2.66706">
        <ele>41</ele>
        <time>2023-04-16T11:05:49.711Z</time>
      </trkpt>
      <trkpt lat="48.54359" lon="2.66702">
        <ele>41</ele>
        <time>2023-04-16T11:05:53.671Z</time>
      </trkpt>
      <trkpt lat="48.54364" lon="2.66695">
        <ele>41</ele>
        <time>2023-04-16T11:05:58.189Z</time>
      </trkpt>
      <trkpt lat="48.5437" lon="2.66687">
        <ele>41</ele>
        <time>2023-04-16T11:06:02.626Z</time>
      </trkpt>
      <trkpt lat="48.54374" lon="2.66682">
        <ele>41</ele>
        <time>2023-04-16T11:06:06.584Z</time>
      </trkpt>
      <trkpt lat="48.54381" lon="2.66678">
        <ele>40</ele>
        <time>2023-04-16T11:06:10.968Z</time>
      </trkpt>
      <trkpt lat="48.54386" lon="2.66675">
        <ele>40</ele>
        <time>2023-04-16T11:06:14.724Z</time>
      </trkpt>
      <trkpt lat="48.54388" lon="2.66671">
        <ele>40</ele>
        <time>2023-04-16T11:06:19.363Z</time>
      </trkpt>
      <trkpt lat="48.54393" lon="2.66665">
        <ele>40</ele>
        <time>2023-04-16T11:06:23.320Z</time>
      </trkpt>
      <trkpt lat="48.54398" lon="2.66662">
        <ele>40</ele>
        <time>2023-04-16T11:06:27.398Z</time>
      </trkpt>
      <trkpt lat="48.54403" lon="2.66658">
        <ele>42</ele>
        <time>2023-04-16T11:06:31.930Z</time>
      </trkpt>
      <trkpt lat="48.54408" lon="2.66653">
        <ele>42</ele>
        <time>2023-04-16T11:06:35.911Z</time>
      </trkpt>
      <trkpt lat="48.54414" lon="2.66649">
        <ele>42</ele>
        <time>2023-04-16T11:06:39.868Z</time>
      </trkpt>
      <trkpt lat="48.5442" lon="2.66646">
        <ele>42</ele>
        <time>2023-04-16T11:06:43.747Z</time>
      </trkpt>
      <trkpt lat="48.54426" lon="2.6664">
        <ele>42</ele>
        <time>2023-04-16T11:06:47.786Z</time>
      </trkpt>
      <trkpt lat="48.54432" lon="2.66635">
        <ele>43</ele>
        <time>2023-04-16T11:06:52.283Z</time>
      </trkpt>
      <trkpt lat="48.54437" lon="2.66631">
        <ele>43</ele>
        <time>2023-04-16T11:06:56.719Z</time>
      </trkpt>
      <trkpt lat="48.54441" lon="2.66635">
        <ele>43</ele>
        <time>2023-04-16T11:07:01.255Z</time>
      </trkpt>
      <trkpt lat="48.54446" lon="2.66637">
        <ele>43</ele>
        <time>2023-04-16T11:07:06.012Z</time>
      </trkpt>
      <trkpt lat="48.54451" lon="2.66641">
        <ele>43</ele>
        <time>2023-04-16T11:07:09.871Z</time>
      </trkpt>
      <trkpt lat="48.54457" lon="2.66645">
        <ele>43</ele>
        <time>2023-04-16T11:07:13.930Z</time>
      </trkpt>
      <trkpt lat="48.54463" lon="2.66651">
        <ele>44</ele>
        <time>2023-04-16T11:07:18.418Z</time>
      </trkpt>
      <trkpt lat="48.54466" lon="2.66658">
        <ele>44</ele>
        <time>2023-04-16T11:07:22.652Z</time>
      </trkpt>
      <trkpt lat="48.5447" lon="2.66666">
        <ele>44</ele>
        <time>2023-04-16T11:07:26.488Z</time>
      </trkpt>
      <trkpt lat="48.54473" lon="2.66672">
        <ele>44</ele>
        <time>2023-04-16T11:07:30.407Z</time>
      </trkpt>
      <trkpt lat="48.54477" lon="2.66679">
        <ele>44</ele>
        <time>2023-04-16T11:07:35.010Z</time>
      </trkpt>
      <trkpt lat="48.5448" lon="2.66687">
        <ele>43</ele>
        <time>2023-04-16T11:07:39.024Z</time>
      </trkpt>
      <trkpt lat="48.54484" lon="2.66693">
        <ele>43</ele>
        <time>2023-04-16T11:07:42.982Z</time>
      </trkpt>
      <trkpt lat="48.54488" lon="2.66701">
        <ele>43</ele>
        <time>2023-04-16T11:07:47.538Z</time>
      </trkpt>
      <trkpt lat="48.54491" lon="2.66709">
        <ele>42</ele>
        <time>2023-04-16T11:07:52.150Z</time>
      </trkpt>
      <trkpt lat="48.54494" lon="2.66717">
        <ele>42</ele>
        <time>2023-04-16T11:07:56.154Z</time>
      </trkpt>
      <trkpt lat="48.54499" lon="2.66726">
        <ele>42</ele>
        <time>2023-04-16T11:08:00.752Z</time>
      </trkpt>
      <trkpt lat="48.54503" lon="2.66734">
        <ele>42</ele>
        <time>2023-04-16T11:08:04.948Z</time>
      </trkpt>
      <trkpt lat="48.54507" lon="2.66742">
        <ele>42</ele>
        <time>2023-04-16T11:08:09.555Z</time>
      </trkpt>
      <trkpt lat="48.54511" lon="2.6675">
        <ele>42</ele>
        <time>2023-04-16T11:08:13.579Z</time>
      </trkpt>
      <trkpt lat="48.54515" lon="2.66757">
        <ele>43</ele>
        <time>2023-04-16T11:08:17.776Z</time>
      </trkpt>
      <trkpt lat="48.54519" lon="2.66767">
        <ele>43</ele>
        <time>2023-04-16T11:08:21.834Z</time>
      </trkpt>
      <trkpt lat="48.54522" lon="2.66772">
        <ele>43</ele>
        <time>2023-04-16T11:08:26.594Z</time>
      </trkpt>
      <trkpt lat="48.54525" lon="2.6678">
        <ele>43</ele>
        <time>2023-04-16T11:08:30.690Z</time>
      </trkpt>
      <trkpt lat="48.54529" lon="2.66787">
        <ele>43</ele>
        <time>2023-04-16T11:08:35.122Z</time>
      </trkpt>
      <trkpt lat="48.54534" lon="2.66793">
        <ele>43</ele>
        <time>2023-04-16T11:08:39.319Z</time>
      </trkpt>
      <trkpt lat="48.54537" lon="2.66802">
        <ele>43</ele>
        <time>2023-04-16T11:08:43.776Z</time>
      </trkpt>
      <trkpt lat="48.54541" lon="2.66811">
        <ele>43</ele>
        <time>2023-04-16T11:08:47.792Z</time>
      </trkpt>
      <trkpt lat="48.54545" lon="2.6682">
        <ele>42</ele>
        <time>2023-04-16T11:08:51.988Z</time>
      </trkpt>
      <trkpt lat="48.54549" lon="2.66828">
        <ele>42</ele>
        <time>2023-04-16T11:08:56.005Z</time>
      </trkpt>
      <trkpt lat="48.54553" lon="2.66836">
        <ele>42</ele>
        <time>2023-04-16T11:09:00.560Z</time>
      </trkpt>
      <trkpt lat="48.54558" lon="2.66843">
        <ele>42</ele>
        <time>2023-04-16T11:09:04.588Z</time>
      </trkpt>
      <trkpt lat="48.54562" lon="2.66849">
        <ele>42</ele>
        <time>2023-04-16T11:09:08.451Z</time>
      </trkpt>
      <trkpt lat="48.54566" lon="2.66855">
        <ele>42</ele>
        <time>2023-04-16T11:09:12.368Z</time>
      </trkpt>
      <trkpt lat="48.5457" lon="2.66862">
        <ele>41</ele>
        <time>2023-04-16T11:09:16.305Z</time>
      </trkpt>
      <trkpt lat="48.54575" lon="2.6687">
        <ele>41</ele>
        <time>2023-04-16T11:09:20.722Z</time>
      </trkpt>
      <trkpt lat="48.54579" lon="2.66875">
        <ele>42</ele>
        <time>2023-04-16T11:09:24.557Z</time>
      </trkpt>
      <trkpt lat="48.54584" lon="2.66882">
        <ele>42</ele>
        <time>2023-04-16T11:09:29.202Z</time>
      </trkpt>
      <trkpt lat="48.54588" lon="2.66889">
        <ele>42</ele>
        <time>2023-04-16T11:09:33.185Z</time>
      </trkpt>
      <trkpt lat="48.54591" lon="2.66896">
        <ele>42</ele>
        <time>2023-04-16T11:09:37.381Z</time>
      </trkpt>
      <trkpt lat="48.54595" lon="2.66903">
        <ele>42</ele>
        <time>2023-04-16T11:09:41.337Z</time>
      </trkpt>
      <trkpt lat="48.54598" lon="2.6691">
        <ele>43</ele>
        <time>2023-04-16T11:09:45.293Z</time>
      </trkpt>
      <trkpt lat="48.54599" lon="2.66917">
        <ele>43</ele>
        <time>2023-04-16T11:09:49.368Z</time>
      </trkpt>
      <trkpt lat="48.54603" lon="2.66926">
        <ele>43</ele>
        <time>2023-04-16T11:09:54.135Z</time>
      </trkpt>
      <trkpt lat="48.54606" lon="2.66935">
        <ele>43</ele>
        <time>2023-04-16T11:09:58.535Z</time>
      </trkpt>
      <trkpt lat="48.54608" lon="2.66944">
        <ele>43</ele>
        <time>2023-04-16T11:10:02.608Z</time>
      </trkpt>
      <trkpt lat="48.54609" lon="2.66952">
        <ele>43</ele>
        <time>2023-04-16T11:10:07.162Z</time>
      </trkpt>
      <trkpt lat="48.54611" lon="2.6696">
        <ele>43</ele>
        <time>2023-04-16T11:10:11.058Z</time>
      </trkpt>
      <trkpt lat="48.54615" lon="2.66969">
        <ele>43</ele>
        <time>2023-04-16T11:10:15.506Z</time>
      </trkpt>
      <trkpt lat="48.54617" lon="2.66977">
        <ele>43</ele>
        <time>2023-04-16T11:10:19.370Z</time>
      </trkpt>
      <trkpt lat="48.5462" lon="2.66985">
        <ele>43</ele>
        <time>2023-04-16T11:10:23.805Z</time>
      </trkpt>
      <trkpt lat="48.54622" lon="2.66993">
        <ele>43</ele>
        <time>2023-04-16T11:10:27.759Z</time>
      </trkpt>
      <trkpt lat="48.54624" lon="2.67002">
        <ele>43</ele>
        <time>2023-04-16T11:10:32.192Z</time>
      </trkpt>
      <trkpt lat="48.54626" lon="2.67011">
        <ele>43</ele>
        <time>2023-04-16T11:10:36.387Z</time>
      </trkpt>
      <trkpt lat="48.54628" lon="2.6702">
        <ele>43</ele>
        <time>2023-04-16T11:10:40.756Z</time>
      </trkpt>
      <trkpt lat="48.5463" lon="2.67027">
        <ele>43</ele>
        <time>2023-04-16T11:10:44.538Z</time>
      </trkpt>
      <trkpt lat="48.54631" lon="2.67034">
        <ele>43</ele>
        <time>2023-04-16T11:10:48.968Z</time>
      </trkpt>
      <trkpt lat="48.54634" lon="2.6704">
        <ele>43</ele>
        <time>2023-04-16T11:10:53.289Z</time>
      </trkpt>
      <trkpt lat="48.54638" lon="2.67048">
        <ele>42</ele>
        <time>2023-04-16T11:10:57.306Z</time>
      </trkpt>
      <trkpt lat="48.54641" lon="2.67059">
        <ele>42</ele>
        <time>2023-04-16T11:11:01.725Z</time>
      </trkpt>
      <trkpt lat="48.54644" lon="2.67066">
        <ele>42</ele>
        <time>2023-04-16T11:11:05.763Z</time>
      </trkpt>
      <trkpt lat="48.54648" lon="2.67075">
        <ele>41</ele>
        <time>2023-04-16T11:11:10.366Z</time>
      </trkpt>
      <trkpt lat="48.54651" lon="2.6708">
        <ele>41</ele>
        <time>2023-04-16T11:11:13.869Z</time>
      </trkpt>
      <trkpt lat="48.54656" lon="2.67085">
        <ele>43</ele>
        <time>2023-04-16T11:11:19.390Z</time>
      </trkpt>
      <trkpt lat="48.54659" lon="2.6709">
        <ele>43</ele>
        <time>2023-04-16T11:11:23.954Z</time>
      </trkpt>
      <trkpt lat="48.54664" lon="2.67101">
        <ele>44</ele>
        <time>2023-04-16T11:11:28.062Z</time>
      </trkpt>
      <trkpt lat="48.54665" lon="2.6711">
        <ele>44</ele>
        <time>2023-04-16T11:11:32.667Z</time>
      </trkpt>
      <trkpt lat="48.54668" lon="2.67116">
        <ele>44</ele>
        <time>2023-04-16T11:11:37.172Z</time>
      </trkpt>
      <trkpt lat="48.54671" lon="2.67124">
        <ele>44</ele>
        <time>2023-04-16T11:11:41.778Z</time>
      </trkpt>
      <trkpt lat="48.54677" lon="2.67128">
        <ele>45</ele>
        <time>2023-04-16T11:11:45.381Z</time>
      </trkpt>
      <trkpt lat="48.54681" lon="2.67134">
        <ele>46</ele>
        <time>2023-04-16T11:11:49.823Z</time>
      </trkpt>
      <trkpt lat="48.54685" lon="2.67141">
        <ele>46</ele>
        <time>2023-04-16T11:11:53.763Z</time>
      </trkpt>
      <trkpt lat="48.54689" lon="2.67148">
        <ele>46</ele>
        <time>2023-04-16T11:11:57.702Z</time>
      </trkpt>
      <trkpt lat="48.54694" lon="2.67157">
        <ele>46</ele>
        <time>2023-04-16T11:12:01.741Z</time>
      </trkpt>
      <trkpt lat="48.54699" lon="2.67163">
        <ele>46</ele>
        <time>2023-04-16T11:12:06.358Z</time>
      </trkpt>
      <trkpt lat="48.54703" lon="2.67172">
        <ele>46</ele>
        <time>2023-04-16T11:12:10.914Z</time>
      </trkpt>
      <trkpt lat="48.54707" lon="2.6718">
        <ele>46</ele>
        <time>2023-04-16T11:12:14.991Z</time>
      </trkpt>
      <trkpt lat="48.54709" lon="2.67189">
        <ele>46</ele>
        <time>2023-04-16T11:12:19.507Z</time>
      </trkpt>
      <trkpt lat="48.54711" lon="2.67195">
        <ele>46</ele>
        <time>2023-04-16T11:12:23.524Z</time>
      </trkpt>
      <trkpt lat="48.54713" lon="2.67204">
        <ele>46</ele>
        <time>2023-04-16T11:12:27.580Z</time>
      </trkpt>
      <trkpt lat="48.54715" lon="2.67212">
        <ele>46</ele>
        <time>2023-04-16T11:12:31.957Z</time>
      </trkpt>
      <trkpt lat="48.54717" lon="2.67219">
        <ele>46</ele>
        <time>2023-04-16T11:12:35.855Z</time>
      </trkpt>
      <trkpt lat="48.54718" lon="2.67226">
        <ele>46</ele>
        <time>2023-04-16T11:12:39.912Z</time>
      </trkpt>
      <trkpt lat="48.5472" lon="2.67235">
        <ele>46</ele>
        <time>2023-04-16T11:12:44.529Z</time>
      </trkpt>
      <trkpt lat="48.54723" lon="2.67244">
        <ele>46</ele>
        <time>2023-04-16T11:12:48.404Z</time>
      </trkpt>
      <trkpt lat="48.54725" lon="2.67253">
        <ele>46</ele>
        <time>2023-04-16T11:12:52.899Z</time>
      </trkpt>
      <trkpt lat="48.54728" lon="2.67261">
        <ele>46</ele>
        <time>2023-04-16T11:12:57.334Z</time>
      </trkpt>
      <trkpt lat="48.5473" lon="2.6727">
        <ele>45</ele>
        <time>2023-04-16T11:13:01.790Z</time>
      </trkpt>
      <trkpt lat="48.54732" lon="2.67277">
        <ele>45</ele>
        <time>2023-04-16T11:13:06.347Z</time>
      </trkpt>
      <trkpt lat="48.54735" lon="2.67284">
        <ele>45</ele>
        <time>2023-04-16T11:13:10.928Z</time>
      </trkpt>
      <trkpt lat="48.54739" lon="2.67292">
        <ele>45</ele>
        <time>2023-04-16T11:13:14.921Z</time>
      </trkpt>
      <trkpt lat="48.54742" lon="2.673">
        <ele>45</ele>
        <time>2023-04-16T11:13:18.957Z</time>
      </trkpt>
      <trkpt lat="48.54744" lon="2.67306">
        <ele>45</ele>
        <time>2023-04-16T11:13:22.955Z</time>
      </trkpt>
      <trkpt lat="48.54749" lon="2.67312">
        <ele>45</ele>
        <time>2023-04-16T11:13:26.952Z</time>
      </trkpt>
      <trkpt lat="48.54754" lon="2.67318">
        <ele>45</ele>
        <time>2023-04-16T11:13:30.710Z</time>
      </trkpt>
      <trkpt lat="48.54758" lon="2.67326">
        <ele>45</ele>
        <time>2023-04-16T11:13:35.204Z</time>
      </trkpt>
      <trkpt lat="48.54761" lon="2.67332">
        <ele>45</ele>
        <time>2023-04-16T11:13:39.044Z</time>
      </trkpt>
      <trkpt lat="48.54766" lon="2.67337">
        <ele>44</ele>
        <time>2023-04-16T11:13:43.676Z</time>
      </trkpt>
      <trkpt lat="48.54771" lon="2.67342">
        <ele>44</ele>
        <time>2023-04-16T11:13:47.539Z</time>
      </trkpt>
      <trkpt lat="48.54776" lon="2.67347">
        <ele>44</ele>
        <time>2023-04-16T11:13:51.375Z</time>
      </trkpt>
      <trkpt lat="48.5478" lon="2.67353">
        <ele>44</ele>
        <time>2023-04-16T11:13:55.992Z</time>
      </trkpt>
      <trkpt lat="48.54785" lon="2.67357">
        <ele>44</ele>
        <time>2023-04-16T11:13:59.969Z</time>
      </trkpt>
      <trkpt lat="48.54792" lon="2.67363">
        <ele>45</ele>
        <time>2023-04-16T11:14:04.585Z</time>
      </trkpt>
      <trkpt lat="48.54797" lon="2.67368">
        <ele>45</ele>
        <time>2023-04-16T11:14:08.418Z</time>
      </trkpt>
      <trkpt lat="48.54803" lon="2.67375">
        <ele>45</ele>
        <time>2023-04-16T11:14:12.958Z</time>
      </trkpt>
      <trkpt lat="48.54808" lon="2.67381">
        <ele>46</ele>
        <time>2023-04-16T11:14:16.993Z</time>
      </trkpt>
      <trkpt lat="48.54811" lon="2.67389">
        <ele>46</ele>
        <time>2023-04-16T11:14:20.948Z</time>
      </trkpt>
      <trkpt lat="48.54816" lon="2.67396">
        <ele>46</ele>
        <time>2023-04-16T11:14:26.066Z</time>
      </trkpt>
      <trkpt lat="48.5482" lon="2.67402">
        <ele>49</ele>
        <time>2023-04-16T11:14:29.964Z</time>
      </trkpt>
      <trkpt lat="48.54825" lon="2.67407">
        <ele>49</ele>
        <time>2023-04-16T11:14:34.700Z</time>
      </trkpt>
      <trkpt lat="48.54826" lon="2.67408">
        <ele>49</ele>
        <time>2023-04-16T11:14:38.718Z</time>
      </trkpt>
      <trkpt lat="48.54832" lon="2.67412">
        <ele>49</ele>
        <time>2023-04-16T11:14:43.330Z</time>
      </trkpt>
      <trkpt lat="48.5484" lon="2.67417">
        <ele>49</ele>
        <time>2023-04-16T11:14:47.933Z</time>
      </trkpt>
      <trkpt lat="48.54846" lon="2.67418">
        <ele>49</ele>
        <time>2023-04-16T11:14:52.068Z</time>
      </trkpt>
      <trkpt lat="48.54852" lon="2.67425">
        <ele>51</ele>
        <time>2023-04-16T11:14:56.472Z</time>
      </trkpt>
      <trkpt lat="48.54856" lon="2.67432">
        <ele>49</ele>
        <time>2023-04-16T11:15:00.418Z</time>
      </trkpt>
      <trkpt lat="48.54862" lon="2.67435">
        <ele>49</ele>
        <time>2023-04-16T11:15:04.519Z</time>
      </trkpt>
      <trkpt lat="48.54867" lon="2.67439">
        <ele>49</ele>
        <time>2023-04-16T11:15:09.130Z</time>
      </trkpt>
      <trkpt lat="48.54872" lon="2.67444">
        <ele>49</ele>
        <time>2023-04-16T11:15:13.195Z</time>
      </trkpt>
      <trkpt lat="48.54876" lon="2.67448">
        <ele>51</ele>
        <time>2023-04-16T11:15:17.572Z</time>
      </trkpt>
      <trkpt lat="48.5488" lon="2.67452">
        <ele>51</ele>
        <time>2023-04-16T11:15:21.708Z</time>
      </trkpt>
      <trkpt lat="48.54883" lon="2.67456">
        <ele>51</ele>
        <time>2023-04-16T11:15:25.544Z</time>
      </trkpt>
      <trkpt lat="48.54887" lon="2.67462">
        <ele>50</ele>
        <time>2023-04-16T11:15:30.112Z</time>
      </trkpt>
      <trkpt lat="48.54891" lon="2.6747">
        <ele>50</ele>
        <time>2023-04-16T11:15:34.099Z</time>
      </trkpt>
      <trkpt lat="48.54894" lon="2.6748">
        <ele>50</ele>
        <time>2023-04-16T11:15:38.357Z</time>
      </trkpt>
      <trkpt lat="48.54899" lon="2.67487">
        <ele>50</ele>
        <time>2023-04-16T11:15:42.355Z</time>
      </trkpt>
      <trkpt lat="48.54904" lon="2.67493">
        <ele>52</ele>
        <time>2023-04-16T11:15:46.354Z</time>
      </trkpt>
      <trkpt lat="48.54909" lon="2.67498">
        <ele>52</ele>
        <time>2023-04-16T11:15:50.550Z</time>
      </trkpt>
      <trkpt lat="48.54914" lon="2.67506">
        <ele>52</ele>
        <time>2023-04-16T11:15:54.868Z</time>
      </trkpt>
      <trkpt lat="48.54917" lon="2.67514">
        <ele>52</ele>
        <time>2023-04-16T11:15:59.108Z</time>
      </trkpt>
      <trkpt lat="48.54919" lon="2.67521">
        <ele>52</ele>
        <time>2023-04-16T11:16:03.179Z</time>
      </trkpt>
      <trkpt lat="48.54924" lon="2.67525">
        <ele>52</ele>
        <time>2023-04-16T11:16:06.781Z</time>
      </trkpt>
      <trkpt lat="48.54931" lon="2.67527">
        <ele>54</ele>
        <time>2023-04-16T11:16:10.899Z</time>
      </trkpt>
      <trkpt lat="48.54937" lon="2.67531">
        <ele>54</ele>
        <time>2023-04-16T11:16:15.334Z</time>
      </trkpt>
      <trkpt lat="48.5494" lon="2.67538">
        <ele>54</ele>
        <time>2023-04-16T11:16:19.711Z</time>
      </trkpt>
      <trkpt lat="48.54944" lon="2.67545">
        <ele>53</ele>
        <time>2023-04-16T11:16:24.131Z</time>
      </trkpt>
      <trkpt lat="48.54948" lon="2.67551">
        <ele>53</ele>
        <time>2023-04-16T11:16:28.105Z</time>
      </trkpt>
      <trkpt lat="48.54951" lon="2.67558">
        <ele>53</ele>
        <time>2023-04-16T11:16:32.181Z</time>
      </trkpt>
      <trkpt lat="48.54953" lon="2.67565">
        <ele>53</ele>
        <time>2023-04-16T11:16:36.739Z</time>
      </trkpt>
      <trkpt lat="48.54954" lon="2.67574">
        <ele>50</ele>
        <time>2023-04-16T11:16:41.189Z</time>
      </trkpt>
      <trkpt lat="48.54956" lon="2.67583">
        <ele>50</ele>
        <time>2023-04-16T11:16:45.336Z</time>
      </trkpt>
      <trkpt lat="48.54958" lon="2.67592">
        <ele>50</ele>
        <time>2023-04-16T11:16:49.355Z</time>
      </trkpt>
      <trkpt lat="48.5496" lon="2.67602">
        <ele>47</ele>
        <time>2023-04-16T11:16:53.933Z</time>
      </trkpt>
      <trkpt lat="48.54963" lon="2.67613">
        <ele>47</ele>
        <time>2023-04-16T11:16:58.434Z</time>
      </trkpt>
      <trkpt lat="48.54965" lon="2.67622">
        <ele>47</ele>
        <time>2023-04-16T11:17:02.390Z</time>
      </trkpt>
      <trkpt lat="48.54968" lon="2.67635">
        <ele>46</ele>
        <time>2023-04-16T11:17:06.418Z</time>
      </trkpt>
      <trkpt lat="48.54971" lon="2.67644">
        <ele>46</ele>
        <time>2023-04-16T11:17:10.345Z</time>
      </trkpt>
      <trkpt lat="48.54973" lon="2.67652">
        <ele>46</ele>
        <time>2023-04-16T11:17:14.282Z</time>
      </trkpt>
      <trkpt lat="48.54975" lon="2.67661">
        <ele>45</ele>
        <time>2023-04-16T11:17:18.779Z</time>
      </trkpt>
      <trkpt lat="48.54977" lon="2.6767">
        <ele>45</ele>
        <time>2023-04-16T11:17:23.090Z</time>
      </trkpt>
      <trkpt lat="48.54978" lon="2.67679">
        <ele>45</ele>
        <time>2023-04-16T11:17:26.993Z</time>
      </trkpt>
      <trkpt lat="48.54981" lon="2.67687">
        <ele>44</ele>
        <time>2023-04-16T11:17:31.010Z</time>
      </trkpt>
      <trkpt lat="48.54984" lon="2.67695">
        <ele>44</ele>
        <time>2023-04-16T11:17:35.625Z</time>
      </trkpt>
      <trkpt lat="48.54986" lon="2.67703">
        <ele>44</ele>
        <time>2023-04-16T11:17:40.120Z</time>
      </trkpt>
      <trkpt lat="48.54987" lon="2.67713">
        <ele>45</ele>
        <time>2023-04-16T11:17:44.629Z</time>
      </trkpt>
      <trkpt lat="48.54988" lon="2.67721">
        <ele>45</ele>
        <time>2023-04-16T11:17:48.334Z</time>
      </trkpt>
      <trkpt lat="48.54991" lon="2.67731">
        <ele>45</ele>
        <time>2023-04-16T11:17:52.349Z</time>
      </trkpt>
      <trkpt lat="48.54994" lon="2.67739">
        <ele>44</ele>
        <time>2023-04-16T11:17:56.418Z</time>
      </trkpt>
      <trkpt lat="48.54997" lon="2.67746">
        <ele>44</ele>
        <time>2023-04-16T11:18:00.561Z</time>
      </trkpt>
      <trkpt lat="48.54999" lon="2.67754">
        <ele>44</ele>
        <time>2023-04-16T11:18:04.538Z</time>
      </trkpt>
      <trkpt lat="48.54999" lon="2.67763">
        <ele>44</ele>
        <time>2023-04-16T11:18:09.126Z</time>
      </trkpt>
      <trkpt lat="48.54997" lon="2.67775">
        <ele>44</ele>
        <time>2023-04-16T11:18:13.169Z</time>
      </trkpt>
      <trkpt lat="48.54992" lon="2.67781">
        <ele>44</ele>
        <time>2023-04-16T11:18:17.651Z</time>
      </trkpt>
      <trkpt lat="48.54987" lon="2.67783">
        <ele>44</ele>
        <time>2023-04-16T11:18:21.561Z</time>
      </trkpt>
      <trkpt lat="48.54982" lon="2.67788">
        <ele>45</ele>
        <time>2023-04-16T11:18:25.998Z</time>
      </trkpt>
      <trkpt lat="48.54976" lon="2.67791">
        <ele>45</ele>
        <time>2023-04-16T11:18:30.035Z</time>
      </trkpt>
      <trkpt lat="48.54971" lon="2.67795">
        <ele>46</ele>
        <time>2023-04-16T11:18:34.589Z</time>
      </trkpt>
      <trkpt lat="48.54966" lon="2.67798">
        <ele>46</ele>
        <time>2023-04-16T11:18:38.764Z</time>
      </trkpt>
      <trkpt lat="48.5496" lon="2.67801">
        <ele>46</ele>
        <time>2023-04-16T11:18:43.317Z</time>
      </trkpt>
      <trkpt lat="48.54955" lon="2.67805">
        <ele>45</ele>
        <time>2023-04-16T11:18:47.871Z</time>
      </trkpt>
      <trkpt lat="48.54951" lon="2.67809">
        <ele>45</ele>
        <time>2023-04-16T11:18:51.946Z</time>
      </trkpt>
      <trkpt lat="48.54946" lon="2.67813">
        <ele>45</ele>
        <time>2023-04-16T11:18:55.780Z</time>
      </trkpt>
      <trkpt lat="48.54942" lon="2.67817">
        <ele>45</ele>
        <time>2023-04-16T11:18:59.855Z</time>
      </trkpt>
      <trkpt lat="48.54937" lon="2.67821">
        <ele>46</ele>
        <time>2023-04-16T11:19:04.370Z</time>
      </trkpt>
      <trkpt lat="48.54932" lon="2.67825">
        <ele>46</ele>
        <time>2023-04-16T11:19:08.327Z</time>
      </trkpt>
      <trkpt lat="48.54926" lon="2.67827">
        <ele>46</ele>
        <time>2023-04-16T11:19:12.404Z</time>
      </trkpt>
      <trkpt lat="48.54922" lon="2.6783">
        <ele>46</ele>
        <time>2023-04-16T11:19:16.418Z</time>
      </trkpt>
      <trkpt lat="48.54918" lon="2.67837">
        <ele>46</ele>
        <time>2023-04-16T11:19:20.536Z</time>
      </trkpt>
      <trkpt lat="48.54913" lon="2.67843">
        <ele>46</ele>
        <time>2023-04-16T11:19:24.612Z</time>
      </trkpt>
      <trkpt lat="48.54907" lon="2.67848">
        <ele>47</ele>
        <time>2023-04-16T11:19:29.031Z</time>
      </trkpt>
      <trkpt lat="48.54902" lon="2.67854">
        <ele>44</ele>
        <time>2023-04-16T11:19:33.004Z</time>
      </trkpt>
      <trkpt lat="48.54898" lon="2.67859">
        <ele>44</ele>
        <time>2023-04-16T11:19:37.079Z</time>
      </trkpt>
      <trkpt lat="48.54892" lon="2.67866">
        <ele>44</ele>
        <time>2023-04-16T11:19:41.418Z</time>
      </trkpt>
      <trkpt lat="48.54887" lon="2.67873">
        <ele>44</ele>
        <time>2023-04-16T11:19:45.811Z</time>
      </trkpt>
      <trkpt lat="48.54881" lon="2.67883">
        <ele>45</ele>
        <time>2023-04-16T11:19:50.145Z</time>
      </trkpt>
      <trkpt lat="48.54875" lon="2.6789">
        <ele>45</ele>
        <time>2023-04-16T11:19:54.561Z</time>
      </trkpt>
      <trkpt lat="48.54871" lon="2.67894">
        <ele>44</ele>
        <time>2023-04-16T11:19:58.418Z</time>
      </trkpt>
      <trkpt lat="48.54866" lon="2.67904">
        <ele>44</ele>
        <time>2023-04-16T11:20:03.009Z</time>
      </trkpt>
      <trkpt lat="48.5486" lon="2.67909">
        <ele>44</ele>
        <time>2023-04-16T11:20:06.909Z</time>
      </trkpt>
      <trkpt lat="48.54855" lon="2.67913">
        <ele>44</ele>
        <time>2023-04-16T11:20:10.985Z</time>
      </trkpt>
      <trkpt lat="48.5485" lon="2.67917">
        <ele>44</ele>
        <time>2023-04-16T11:20:15.542Z</time>
      </trkpt>
      <trkpt lat="48.54845" lon="2.67922">
        <ele>45</ele>
        <time>2023-04-16T11:20:19.978Z</time>
      </trkpt>
      <trkpt lat="48.54839" lon="2.67926">
        <ele>45</ele>
        <time>2023-04-16T11:20:24.295Z</time>
      </trkpt>
      <trkpt lat="48.54835" lon="2.67928">
        <ele>45</ele>
        <time>2023-04-16T11:20:28.712Z</time>
      </trkpt>
      <trkpt lat="48.54828" lon="2.67928">
        <ele>45</ele>
        <time>2023-04-16T11:20:33.268Z</time>
      </trkpt>
      <trkpt lat="48.54823" lon="2.67927">
        <ele>45</ele>
        <time>2023-04-16T11:20:37.344Z</time>
      </trkpt>
      <trkpt lat="48.54817" lon="2.67927">
        <ele>48</ele>
        <time>2023-04-16T11:20:41.973Z</time>
      </trkpt>
      <trkpt lat="48.54812" lon="2.67926">
        <ele>48</ele>
        <time>2023-04-16T11:20:45.978Z</time>
      </trkpt>
      <trkpt lat="48.54808" lon="2.67926">
        <ele>48</ele>
        <time>2023-04-16T11:20:49.937Z</time>
      </trkpt>
      <trkpt lat="48.54802" lon="2.67926">
        <ele>48</ele>
        <time>2023-04-16T11:20:54.133Z</time>
      </trkpt>
      <trkpt lat="48.54797" lon="2.67929">
        <ele>48</ele>
        <time>2023-04-16T11:20:58.509Z</time>
      </trkpt>
      <trkpt lat="48.54791" lon="2.67932">
        <ele>53</ele>
        <time>2023-04-16T11:21:02.585Z</time>
      </trkpt>
      <trkpt lat="48.54785" lon="2.67935">
        <ele>53</ele>
        <time>2023-04-16T11:21:06.756Z</time>
      </trkpt>
      <trkpt lat="48.5478" lon="2.67936">
        <ele>53</ele>
        <time>2023-04-16T11:21:10.837Z</time>
      </trkpt>
      <trkpt lat="48.54776" lon="2.67936">
        <ele>53</ele>
        <time>2023-04-16T11:21:14.913Z</time>
      </trkpt>
      <trkpt lat="48.54772" lon="2.67938">
        <ele>53</ele>
        <time>2023-04-16T11:21:18.989Z</time>
      </trkpt>
      <trkpt lat="48.54767" lon="2.67941">
        <ele>53</ele>
        <time>2023-04-16T11:21:23.418Z</time>
      </trkpt>
      <trkpt lat="48.54762" lon="2.67945">
        <ele>58</ele>
        <time>2023-04-16T11:21:27.981Z</time>
      </trkpt>
      <trkpt lat="48.54755" lon="2.67948">
        <ele>58</ele>
        <time>2023-04-16T11:21:32.775Z</time>
      </trkpt>
      <trkpt lat="48.54749" lon="2.67948">
        <ele>58</ele>
        <time>2023-04-16T11:21:37.410Z</time>
      </trkpt>
      <trkpt lat="48.54743" lon="2.6795">
        <ele>58</ele>
        <time>2023-04-16T11:21:41.487Z</time>
      </trkpt>
      <trkpt lat="48.54739" lon="2.6795">
        <ele>58</ele>
        <time>2023-04-16T11:21:45.562Z</time>
      </trkpt>
      <trkpt lat="48.54735" lon="2.67951">
        <ele>64</ele>
        <time>2023-04-16T11:21:49.637Z</time>
      </trkpt>
      <trkpt lat="48.54728" lon="2.67952">
        <ele>64</ele>
        <time>2023-04-16T11:21:54.191Z</time>
      </trkpt>
      <trkpt lat="48.54723" lon="2.67948">
        <ele>64</ele>
        <time>2023-04-16T11:21:58.200Z</time>
      </trkpt>
      <trkpt lat="48.54718" lon="2.67948">
        <ele>64</ele>
        <time>2023-04-16T11:22:02.701Z</time>
      </trkpt>
      <trkpt lat="48.54713" lon="2.67947">
        <ele>64</ele>
        <time>2023-04-16T11:22:06.777Z</time>
      </trkpt>
      <trkpt lat="48.54711" lon="2.67945">
        <ele>64</ele>
        <time>2023-04-16T11:22:10.834Z</time>
      </trkpt>
      <trkpt lat="48.54708" lon="2.67941">
        <ele>66</ele>
        <time>2023-04-16T11:22:15.349Z</time>
      </trkpt>
      <trkpt lat="48.54703" lon="2.67941">
        <ele>66</ele>
        <time>2023-04-16T11:22:19.525Z</time>
      </trkpt>
      <trkpt lat="48.54699" lon="2.67942">
        <ele>66</ele>
        <time>2023-04-16T11:22:23.418Z</time>
      </trkpt>
      <trkpt lat="48.54694" lon="2.67941">
        <ele>66</ele>
        <time>2023-04-16T11:22:28.114Z</time>
      </trkpt>
      <trkpt lat="48.54688" lon="2.67941">
        <ele>66</ele>
        <time>2023-04-16T11:22:32.051Z</time>
      </trkpt>
      <trkpt lat="48.5468" lon="2.67941">
        <ele>67</ele>
        <time>2023-04-16T11:22:36.685Z</time>
      </trkpt>
      <trkpt lat="48.54673" lon="2.67944">
        <ele>67</ele>
        <time>2023-04-16T11:22:41.239Z</time>
      </trkpt>
      <trkpt lat="48.54667" lon="2.67944">
        <ele>67</ele>
        <time>2023-04-16T11:22:45.771Z</time>
      </trkpt>
      <trkpt lat="48.54661" lon="2.67944">
        <ele>67</ele>
        <time>2023-04-16T11:22:49.771Z</time>
      </trkpt>
      <trkpt lat="48.54656" lon="2.67944">
        <ele>67</ele>
        <time>2023-04-16T11:22:53.966Z</time>
      </trkpt>
      <trkpt lat="48.5465" lon="2.67946">
        <ele>69</ele>
        <time>2023-04-16T11:22:58.640Z</time>
      </trkpt>
      <trkpt lat="48.54644" lon="2.67952">
        <ele>69</ele>
        <time>2023-04-16T11:23:02.715Z</time>
      </trkpt>
      <trkpt lat="48.54643" lon="2.67953">
        <ele>69</ele>
        <time>2023-04-16T11:23:16.975Z</time>
      </trkpt>
      <trkpt lat="48.54641" lon="2.67957">
        <ele>69</ele>
        <time>2023-04-16T11:23:22.148Z</time>
      </trkpt>
      <trkpt lat="48.54642" lon="2.6796">
        <ele>68</ele>
        <time>2023-04-16T11:23:25.742Z</time>
      </trkpt>
      <trkpt lat="48.54641" lon="2.6796">
        <ele>68</ele>
        <time>2023-04-16T11:23:30.534Z</time>
      </trkpt>
      <trkpt lat="48.5464" lon="2.67968">
        <ele>68</ele>
        <time>2023-04-16T11:23:35.089Z</time>
      </trkpt>
      <trkpt lat="48.54642" lon="2.67976">
        <ele>68</ele>
        <time>2023-04-16T11:23:39.480Z</time>
      </trkpt>
      <trkpt lat="48.54643" lon="2.67983">
        <ele>68</ele>
        <time>2023-04-16T11:23:43.553Z</time>
      </trkpt>
      <trkpt lat="48.54645" lon="2.67991">
        <ele>68</ele>
        <time>2023-04-16T11:23:47.728Z</time>
      </trkpt>
      <trkpt lat="48.54646" lon="2.68">
        <ele>68</ele>
        <time>2023-04-16T11:23:51.802Z</time>
      </trkpt>
      <trkpt lat="48.54649" lon="2.68007">
        <ele>68</ele>
        <time>2023-04-16T11:23:56.594Z</time>
      </trkpt>
      <trkpt lat="48.54651" lon="2.68014">
        <ele>68</ele>
        <time>2023-04-16T11:24:00.530Z</time>
      </trkpt>
      <trkpt lat="48.54653" lon="2.68023">
        <ele>70</ele>
        <time>2023-04-16T11:24:04.989Z</time>
      </trkpt>
      <trkpt lat="48.54657" lon="2.68034">
        <ele>68</ele>
        <time>2023-04-16T11:24:10.168Z</time>
      </trkpt>
      <trkpt lat="48.54659" lon="2.6804">
        <ele>68</ele>
        <time>2023-04-16T11:24:13.961Z</time>
      </trkpt>
      <trkpt lat="48.54662" lon="2.68049">
        <ele>69</ele>
        <time>2023-04-16T11:24:18.156Z</time>
      </trkpt>
      <trkpt lat="48.54664" lon="2.68057">
        <ele>69</ele>
        <time>2023-04-16T11:24:22.221Z</time>
      </trkpt>
      <trkpt lat="48.54666" lon="2.68065">
        <ele>69</ele>
        <time>2023-04-16T11:24:26.389Z</time>
      </trkpt>
      <trkpt lat="48.54668" lon="2.68073">
        <ele>70</ele>
        <time>2023-04-16T11:24:31.029Z</time>
      </trkpt>
      <trkpt lat="48.54672" lon="2.68081">
        <ele>70</ele>
        <time>2023-04-16T11:24:35.083Z</time>
      </trkpt>
      <trkpt lat="48.54674" lon="2.68088">
        <ele>70</ele>
        <time>2023-04-16T11:24:38.842Z</time>
      </trkpt>
      <trkpt lat="48.54675" lon="2.68097">
        <ele>70</ele>
        <time>2023-04-16T11:24:43.760Z</time>
      </trkpt>
      <trkpt lat="48.54677" lon="2.68105">
        <ele>72</ele>
        <time>2023-04-16T11:24:48.358Z</time>
      </trkpt>
      <trkpt lat="48.54678" lon="2.68112">
        <ele>72</ele>
        <time>2023-04-16T11:24:52.989Z</time>
      </trkpt>
      <trkpt lat="48.54679" lon="2.68119">
        <ele>72</ele>
        <time>2023-04-16T11:24:56.573Z</time>
      </trkpt>
      <trkpt lat="48.54679" lon="2.68129">
        <ele>73</ele>
        <time>2023-04-16T11:25:01.070Z</time>
      </trkpt>
      <trkpt lat="48.5468" lon="2.68141">
        <ele>73</ele>
        <time>2023-04-16T11:25:05.146Z</time>
      </trkpt>
      <trkpt lat="48.5468" lon="2.6815">
        <ele>73</ele>
        <time>2023-04-16T11:25:08.743Z</time>
      </trkpt>
      <trkpt lat="48.54681" lon="2.68161">
        <ele>74</ele>
        <time>2023-04-16T11:25:13.417Z</time>
      </trkpt>
      <trkpt lat="48.54684" lon="2.6817">
        <ele>74</ele>
        <time>2023-04-16T11:25:17.373Z</time>
      </trkpt>
      <trkpt lat="48.54685" lon="2.68182">
        <ele>73</ele>
        <time>2023-04-16T11:25:21.808Z</time>
      </trkpt>
      <trkpt lat="48.54688" lon="2.68191">
        <ele>73</ele>
        <time>2023-04-16T11:25:25.945Z</time>
      </trkpt>
      <trkpt lat="48.5469" lon="2.682">
        <ele>73</ele>
        <time>2023-04-16T11:25:30.140Z</time>
      </trkpt>
      <trkpt lat="48.54691" lon="2.6821">
        <ele>73</ele>
        <time>2023-04-16T11:25:34.737Z</time>
      </trkpt>
      <trkpt lat="48.54692" lon="2.6822">
        <ele>73</ele>
        <time>2023-04-16T11:25:39.875Z</time>
      </trkpt>
      <trkpt lat="48.54696" lon="2.6823">
        <ele>73</ele>
        <time>2023-04-16T11:25:45.014Z</time>
      </trkpt>
      <trkpt lat="48.547" lon="2.6824">
        <ele>73</ele>
        <time>2023-04-16T11:25:48.795Z</time>
      </trkpt>
      <trkpt lat="48.54703" lon="2.68249">
        <ele>73</ele>
        <time>2023-04-16T11:25:54.136Z</time>
      </trkpt>
      <trkpt lat="48.54704" lon="2.68258">
        <ele>73</ele>
        <time>2023-04-16T11:25:57.971Z</time>
      </trkpt>
      <trkpt lat="48.54708" lon="2.68267">
        <ele>75</ele>
        <time>2023-04-16T11:26:02.494Z</time>
      </trkpt>
      <trkpt lat="48.5471" lon="2.68276">
        <ele>74</ele>
        <time>2023-04-16T11:26:07.197Z</time>
      </trkpt>
      <trkpt lat="48.54712" lon="2.68286">
        <ele>74</ele>
        <time>2023-04-16T11:26:11.756Z</time>
      </trkpt>
      <trkpt lat="48.54714" lon="2.68293">
        <ele>76</ele>
        <time>2023-04-16T11:26:15.875Z</time>
      </trkpt>
      <trkpt lat="48.54718" lon="2.683">
        <ele>76</ele>
        <time>2023-04-16T11:26:19.853Z</time>
      </trkpt>
      <trkpt lat="48.5472" lon="2.68309">
        <ele>76</ele>
        <time>2023-04-16T11:26:24.373Z</time>
      </trkpt>
      <trkpt lat="48.54721" lon="2.68315">
        <ele>76</ele>
        <time>2023-04-16T11:26:28.333Z</time>
      </trkpt>
      <trkpt lat="48.54722" lon="2.68322">
        <ele>77</ele>
        <time>2023-04-16T11:26:32.711Z</time>
      </trkpt>
      <trkpt lat="48.54724" lon="2.68329">
        <ele>77</ele>
        <time>2023-04-16T11:26:37.133Z</time>
      </trkpt>
      <trkpt lat="48.54726" lon="2.68338">
        <ele>77</ele>
        <time>2023-04-16T11:26:41.148Z</time>
      </trkpt>
      <trkpt lat="48.54726" lon="2.68348">
        <ele>77</ele>
        <time>2023-04-16T11:26:45.746Z</time>
      </trkpt>
      <trkpt lat="48.54727" lon="2.68357">
        <ele>77</ele>
        <time>2023-04-16T11:26:50.200Z</time>
      </trkpt>
      <trkpt lat="48.54728" lon="2.68367">
        <ele>77</ele>
        <time>2023-04-16T11:26:54.796Z</time>
      </trkpt>
      <trkpt lat="48.54731" lon="2.68377">
        <ele>76</ele>
        <time>2023-04-16T11:26:59.354Z</time>
      </trkpt>
      <trkpt lat="48.54733" lon="2.68387">
        <ele>76</ele>
        <time>2023-04-16T11:27:03.492Z</time>
      </trkpt>
      <trkpt lat="48.54734" lon="2.68395">
        <ele>76</ele>
        <time>2023-04-16T11:27:07.929Z</time>
      </trkpt>
      <trkpt lat="48.54736" lon="2.68405">
        <ele>76</ele>
        <time>2023-04-16T11:27:11.948Z</time>
      </trkpt>
      <trkpt lat="48.54739" lon="2.68414">
        <ele>77</ele>
        <time>2023-04-16T11:27:16.406Z</time>
      </trkpt>
      <trkpt lat="48.54742" lon="2.6842">
        <ele>77</ele>
        <time>2023-04-16T11:27:20.764Z</time>
      </trkpt>
      <trkpt lat="48.54745" lon="2.68429">
        <ele>77</ele>
        <time>2023-04-16T11:27:25.604Z</time>
      </trkpt>
      <trkpt lat="48.54748" lon="2.68436">
        <ele>78</ele>
        <time>2023-04-16T11:27:29.623Z</time>
      </trkpt>
      <trkpt lat="48.5475" lon="2.68443">
        <ele>78</ele>
        <time>2023-04-16T11:27:34.101Z</time>
      </trkpt>
      <trkpt lat="48.54751" lon="2.68451">
        <ele>78</ele>
        <time>2023-04-16T11:27:38.179Z</time>
      </trkpt>
      <trkpt lat="48.54751" lon="2.6846">
        <ele>78</ele>
        <time>2023-04-16T11:27:42.277Z</time>
      </trkpt>
      <trkpt lat="48.54749" lon="2.68471">
        <ele>78</ele>
        <time>2023-04-16T11:27:46.650Z</time>
      </trkpt>
      <trkpt lat="48.54751" lon="2.68481">
        <ele>78</ele>
        <time>2023-04-16T11:27:50.573Z</time>
      </trkpt>
      <trkpt lat="48.54752" lon="2.68491">
        <ele>77</ele>
        <time>2023-04-16T11:27:54.592Z</time>
      </trkpt>
      <trkpt lat="48.54755" lon="2.685">
        <ele>77</ele>
        <time>2023-04-16T11:27:58.710Z</time>
      </trkpt>
      <trkpt lat="48.54757" lon="2.68509">
        <ele>77</ele>
        <time>2023-04-16T11:28:02.667Z</time>
      </trkpt>
      <trkpt lat="48.5476" lon="2.68519">
        <ele>77</ele>
        <time>2023-04-16T11:28:06.924Z</time>
      </trkpt>
      <trkpt lat="48.54764" lon="2.68531">
        <ele>77</ele>
        <time>2023-04-16T11:28:11.541Z</time>
      </trkpt>
      <trkpt lat="48.54767" lon="2.6854">
        <ele>77</ele>
        <time>2023-04-16T11:28:16.157Z</time>
      </trkpt>
      <trkpt lat="48.54769" lon="2.6855">
        <ele>77</ele>
        <time>2023-04-16T11:28:20.233Z</time>
      </trkpt>
      <trkpt lat="48.54772" lon="2.68558">
        <ele>77</ele>
        <time>2023-04-16T11:28:24.734Z</time>
      </trkpt>
      <trkpt lat="48.54775" lon="2.68566">
        <ele>77</ele>
        <time>2023-04-16T11:28:28.707Z</time>
      </trkpt>
      <trkpt lat="48.54778" lon="2.68575">
        <ele>78</ele>
        <time>2023-04-16T11:28:33.188Z</time>
      </trkpt>
      <trkpt lat="48.54781" lon="2.68582">
        <ele>78</ele>
        <time>2023-04-16T11:28:37.199Z</time>
      </trkpt>
      <trkpt lat="48.54784" lon="2.6859">
        <ele>78</ele>
        <time>2023-04-16T11:28:41.202Z</time>
      </trkpt>
      <trkpt lat="48.54785" lon="2.68599">
        <ele>77</ele>
        <time>2023-04-16T11:28:45.314Z</time>
      </trkpt>
      <trkpt lat="48.54788" lon="2.68608">
        <ele>77</ele>
        <time>2023-04-16T11:28:49.750Z</time>
      </trkpt>
      <trkpt lat="48.54789" lon="2.68616">
        <ele>77</ele>
        <time>2023-04-16T11:28:53.766Z</time>
      </trkpt>
      <trkpt lat="48.5479" lon="2.68625">
        <ele>77</ele>
        <time>2023-04-16T11:28:58.196Z</time>
      </trkpt>
      <trkpt lat="48.54792" lon="2.68633">
        <ele>77</ele>
        <time>2023-04-16T11:29:02.776Z</time>
      </trkpt>
      <trkpt lat="48.54794" lon="2.68653">
        <ele>77</ele>
        <time>2023-04-16T11:29:23.742Z</time>
      </trkpt>
      <trkpt lat="48.54798" lon="2.68673">
        <ele>77</ele>
        <time>2023-04-16T11:29:28.974Z</time>
      </trkpt>
      <trkpt lat="48.54801" lon="2.68681">
        <ele>78</ele>
        <time>2023-04-16T11:29:33.116Z</time>
      </trkpt>
      <trkpt lat="48.54802" lon="2.68689">
        <ele>78</ele>
        <time>2023-04-16T11:29:37.152Z</time>
      </trkpt>
      <trkpt lat="48.54802" lon="2.687">
        <ele>78</ele>
        <time>2023-04-16T11:29:41.528Z</time>
      </trkpt>
      <trkpt lat="48.54803" lon="2.6871">
        <ele>79</ele>
        <time>2023-04-16T11:29:46.145Z</time>
      </trkpt>
      <trkpt lat="48.54808" lon="2.68719">
        <ele>79</ele>
        <time>2023-04-16T11:29:50.702Z</time>
      </trkpt>
      <trkpt lat="48.5481" lon="2.68727">
        <ele>79</ele>
        <time>2023-04-16T11:29:54.502Z</time>
      </trkpt>
      <trkpt lat="48.54812" lon="2.68735">
        <ele>79</ele>
        <time>2023-04-16T11:29:59.100Z</time>
      </trkpt>
      <trkpt lat="48.54814" lon="2.68743">
        <ele>79</ele>
        <time>2023-04-16T11:30:02.959Z</time>
      </trkpt>
      <trkpt lat="48.54816" lon="2.68754">
        <ele>79</ele>
        <time>2023-04-16T11:30:07.575Z</time>
      </trkpt>
      <trkpt lat="48.54818" lon="2.68762">
        <ele>79</ele>
        <time>2023-04-16T11:30:11.593Z</time>
      </trkpt>
      <trkpt lat="48.54819" lon="2.68769">
        <ele>79</ele>
        <time>2023-04-16T11:30:16.013Z</time>
      </trkpt>
      <trkpt lat="48.54823" lon="2.68776">
        <ele>81</ele>
        <time>2023-04-16T11:30:19.947Z</time>
      </trkpt>
      <trkpt lat="48.54826" lon="2.68784">
        <ele>81</ele>
        <time>2023-04-16T11:30:24.418Z</time>
      </trkpt>
      <trkpt lat="48.54826" lon="2.68795">
        <ele>80</ele>
        <time>2023-04-16T11:30:28.922Z</time>
      </trkpt>
      <trkpt lat="48.54829" lon="2.68805">
        <ele>80</ele>
        <time>2023-04-16T11:30:33.659Z</time>
      </trkpt>
      <trkpt lat="48.54831" lon="2.68815">
        <ele>80</ele>
        <time>2023-04-16T11:30:38.117Z</time>
      </trkpt>
      <trkpt lat="48.54834" lon="2.68822">
        <ele>78</ele>
        <time>2023-04-16T11:30:42.058Z</time>
      </trkpt>
      <trkpt lat="48.54836" lon="2.6883">
        <ele>78</ele>
        <time>2023-04-16T11:30:45.937Z</time>
      </trkpt>
      <trkpt lat="48.5484" lon="2.68839">
        <ele>78</ele>
        <time>2023-04-16T11:30:51.087Z</time>
      </trkpt>
      <trkpt lat="48.54843" lon="2.68849">
        <ele>77</ele>
        <time>2023-04-16T11:30:55.171Z</time>
      </trkpt>
      <trkpt lat="48.54846" lon="2.68858">
        <ele>77</ele>
        <time>2023-04-16T11:30:59.690Z</time>
      </trkpt>
      <trkpt lat="48.5485" lon="2.68866">
        <ele>77</ele>
        <time>2023-04-16T11:31:03.651Z</time>
      </trkpt>
      <trkpt lat="48.54853" lon="2.68875">
        <ele>77</ele>
        <time>2023-04-16T11:31:08.193Z</time>
      </trkpt>
      <trkpt lat="48.54856" lon="2.68885">
        <ele>76</ele>
        <time>2023-04-16T11:31:12.606Z</time>
      </trkpt>
      <trkpt lat="48.54859" lon="2.68894">
        <ele>76</ele>
        <time>2023-04-16T11:31:16.875Z</time>
      </trkpt>
      <trkpt lat="48.54861" lon="2.68901">
        <ele>76</ele>
        <time>2023-04-16T11:31:20.979Z</time>
      </trkpt>
      <trkpt lat="48.54862" lon="2.68909">
        <ele>76</ele>
        <time>2023-04-16T11:31:25.983Z</time>
      </trkpt>
      <trkpt lat="48.54866" lon="2.6891">
        <ele>76</ele>
        <time>2023-04-16T11:31:30.987Z</time>
      </trkpt>
      <trkpt lat="48.54869" lon="2.68923">
        <ele>76</ele>
        <time>2023-04-16T11:31:35.269Z</time>
      </trkpt>
      <trkpt lat="48.5487" lon="2.68933">
        <ele>75</ele>
        <time>2023-04-16T11:31:39.350Z</time>
      </trkpt>
      <trkpt lat="48.54871" lon="2.68945">
        <ele>75</ele>
        <time>2023-04-16T11:31:44.172Z</time>
      </trkpt>
      <trkpt lat="48.54872" lon="2.68952">
        <ele>75</ele>
        <time>2023-04-16T11:31:48.418Z</time>
      </trkpt>
      <trkpt lat="48.54873" lon="2.68963">
        <ele>75</ele>
        <time>2023-04-16T11:31:52.694Z</time>
      </trkpt>
      <trkpt lat="48.54876" lon="2.68973">
        <ele>75</ele>
        <time>2023-04-16T11:31:57.466Z</time>
      </trkpt>
      <trkpt lat="48.54877" lon="2.68982">
        <ele>75</ele>
        <time>2023-04-16T11:32:01.675Z</time>
      </trkpt>
      <trkpt lat="48.54879" lon="2.68993">
        <ele>75</ele>
        <time>2023-04-16T11:32:06.931Z</time>
      </trkpt>
      <trkpt lat="48.54882" lon="2.69002">
        <ele>75</ele>
        <time>2023-04-16T11:32:10.637Z</time>
      </trkpt>
      <trkpt lat="48.54883" lon="2.69011">
        <ele>75</ele>
        <time>2023-04-16T11:32:15.058Z</time>
      </trkpt>
      <trkpt lat="48.54884" lon="2.69021">
        <ele>75</ele>
        <time>2023-04-16T11:32:19.036Z</time>
      </trkpt>
      <trkpt lat="48.54885" lon="2.69031">
        <ele>75</ele>
        <time>2023-04-16T11:32:22.697Z</time>
      </trkpt>
      <trkpt lat="48.54889" lon="2.69039">
        <ele>75</ele>
        <time>2023-04-16T11:32:26.878Z</time>
      </trkpt>
      <trkpt lat="48.5489" lon="2.6905">
        <ele>75</ele>
        <time>2023-04-16T11:32:31.238Z</time>
      </trkpt>
      <trkpt lat="48.54892" lon="2.69061">
        <ele>75</ele>
        <time>2023-04-16T11:32:35.801Z</time>
      </trkpt>
      <trkpt lat="48.54893" lon="2.69069">
        <ele>75</ele>
        <time>2023-04-16T11:32:40.190Z</time>
      </trkpt>
      <trkpt lat="48.54895" lon="2.69079">
        <ele>74</ele>
        <time>2023-04-16T11:32:44.482Z</time>
      </trkpt>
      <trkpt lat="48.54897" lon="2.69088">
        <ele>74</ele>
        <time>2023-04-16T11:32:48.763Z</time>
      </trkpt>
      <trkpt lat="48.549" lon="2.69097">
        <ele>74</ele>
        <time>2023-04-16T11:32:53.023Z</time>
      </trkpt>
      <trkpt lat="48.54903" lon="2.69107">
        <ele>77</ele>
        <time>2023-04-16T11:32:58.030Z</time>
      </trkpt>
      <trkpt lat="48.54906" lon="2.69113">
        <ele>77</ele>
        <time>2023-04-16T11:33:02.038Z</time>
      </trkpt>
      <trkpt lat="48.5491" lon="2.69118">
        <ele>77</ele>
        <time>2023-04-16T11:33:06.542Z</time>
      </trkpt>
      <trkpt lat="48.54913" lon="2.69123">
        <ele>77</ele>
        <time>2023-04-16T11:33:10.546Z</time>
      </trkpt>
      <trkpt lat="48.54916" lon="2.69129">
        <ele>78</ele>
        <time>2023-04-16T11:33:15.151Z</time>
      </trkpt>
      <trkpt lat="48.54917" lon="2.69137">
        <ele>78</ele>
        <time>2023-04-16T11:33:20.154Z</time>
      </trkpt>
      <trkpt lat="48.54919" lon="2.69143">
        <ele>78</ele>
        <time>2023-04-16T11:33:24.158Z</time>
      </trkpt>
      <trkpt lat="48.5492" lon="2.6915">
        <ele>78</ele>
        <time>2023-04-16T11:33:28.661Z</time>
      </trkpt>
      <trkpt lat="48.5492" lon="2.69158">
        <ele>79</ele>
        <time>2023-04-16T11:33:32.723Z</time>
      </trkpt>
      <trkpt lat="48.54921" lon="2.69165">
        <ele>79</ele>
        <time>2023-04-16T11:33:36.845Z</time>
      </trkpt>
      <trkpt lat="48.54921" lon="2.69174">
        <ele>79</ele>
        <time>2023-04-16T11:33:41.474Z</time>
      </trkpt>
      <trkpt lat="48.54921" lon="2.69182">
        <ele>80</ele>
        <time>2023-04-16T11:33:46.053Z</time>
      </trkpt>
      <trkpt lat="48.5492" lon="2.6919">
        <ele>80</ele>
        <time>2023-04-16T11:33:50.156Z</time>
      </trkpt>
      <trkpt lat="48.54921" lon="2.69198">
        <ele>80</ele>
        <time>2023-04-16T11:33:54.660Z</time>
      </trkpt>
      <trkpt lat="48.5492" lon="2.69206">
        <ele>80</ele>
        <time>2023-04-16T11:33:59.162Z</time>
      </trkpt>
      <trkpt lat="48.54919" lon="2.69216">
        <ele>80</ele>
        <time>2023-04-16T11:34:03.667Z</time>
      </trkpt>
      <trkpt lat="48.54918" lon="2.69224">
        <ele>80</ele>
        <time>2023-04-16T11:34:08.171Z</time>
      </trkpt>
      <trkpt lat="48.54919" lon="2.69231">
        <ele>80</ele>
        <time>2023-04-16T11:34:12.174Z</time>
      </trkpt>
      <trkpt lat="48.5492" lon="2.6924">
        <ele>80</ele>
        <time>2023-04-16T11:34:15.875Z</time>
      </trkpt>
      <trkpt lat="48.54919" lon="2.69251">
        <ele>80</ele>
        <time>2023-04-16T11:34:20.715Z</time>
      </trkpt>
      <trkpt lat="48.54919" lon="2.69259">
        <ele>80</ele>
        <time>2023-04-16T11:34:25.184Z</time>
      </trkpt>
      <trkpt lat="48.5492" lon="2.69268">
        <ele>80</ele>
        <time>2023-04-16T11:34:29.335Z</time>
      </trkpt>
      <trkpt lat="48.54919" lon="2.69276">
        <ele>80</ele>
        <time>2023-04-16T11:34:33.536Z</time>
      </trkpt>
      <trkpt lat="48.54919" lon="2.69284">
        <ele>80</ele>
        <time>2023-04-16T11:34:37.717Z</time>
      </trkpt>
      <trkpt lat="48.54919" lon="2.69292">
        <ele>80</ele>
        <time>2023-04-16T11:34:41.997Z</time>
      </trkpt>
      <trkpt lat="48.54921" lon="2.693">
        <ele>80</ele>
        <time>2023-04-16T11:34:46.277Z</time>
      </trkpt>
      <trkpt lat="48.54922" lon="2.69309">
        <ele>80</ele>
        <time>2023-04-16T11:34:50.279Z</time>
      </trkpt>
      <trkpt lat="48.54923" lon="2.69322">
        <ele>79</ele>
        <time>2023-04-16T11:34:54.740Z</time>
      </trkpt>
      <trkpt lat="48.54923" lon="2.69332">
        <ele>79</ele>
        <time>2023-04-16T11:34:58.861Z</time>
      </trkpt>
      <trkpt lat="48.54922" lon="2.69342">
        <ele>79</ele>
        <time>2023-04-16T11:35:02.781Z</time>
      </trkpt>
      <trkpt lat="48.54922" lon="2.69352">
        <ele>77</ele>
        <time>2023-04-16T11:35:07.641Z</time>
      </trkpt>
      <trkpt lat="48.54922" lon="2.6936">
        <ele>77</ele>
        <time>2023-04-16T11:35:11.440Z</time>
      </trkpt>
      <trkpt lat="48.54922" lon="2.69369">
        <ele>77</ele>
        <time>2023-04-16T11:35:15.994Z</time>
      </trkpt>
      <trkpt lat="48.54921" lon="2.69378">
        <ele>76</ele>
        <time>2023-04-16T11:35:19.879Z</time>
      </trkpt>
      <trkpt lat="48.54921" lon="2.69386">
        <ele>76</ele>
        <time>2023-04-16T11:35:23.738Z</time>
      </trkpt>
      <trkpt lat="48.54921" lon="2.69394">
        <ele>76</ele>
        <time>2023-04-16T11:35:27.696Z</time>
      </trkpt>
      <trkpt lat="48.54921" lon="2.69404">
        <ele>75</ele>
        <time>2023-04-16T11:35:32.207Z</time>
      </trkpt>
      <trkpt lat="48.5492" lon="2.69415">
        <ele>75</ele>
        <time>2023-04-16T11:35:37.196Z</time>
      </trkpt>
      <trkpt lat="48.5492" lon="2.69425">
        <ele>75</ele>
        <time>2023-04-16T11:35:41.753Z</time>
      </trkpt>
      <trkpt lat="48.54921" lon="2.69435">
        <ele>74</ele>
        <time>2023-04-16T11:35:45.728Z</time>
      </trkpt>
      <trkpt lat="48.54919" lon="2.69445">
        <ele>74</ele>
        <time>2023-04-16T11:35:50.209Z</time>
      </trkpt>
      <trkpt lat="48.54918" lon="2.69454">
        <ele>74</ele>
        <time>2023-04-16T11:35:54.803Z</time>
      </trkpt>
      <trkpt lat="48.54918" lon="2.69463">
        <ele>74</ele>
        <time>2023-04-16T11:35:59.360Z</time>
      </trkpt>
      <trkpt lat="48.54918" lon="2.69475">
        <ele>74</ele>
        <time>2023-04-16T11:36:03.671Z</time>
      </trkpt>
      <trkpt lat="48.54918" lon="2.69485">
        <ele>74</ele>
        <time>2023-04-16T11:36:08.157Z</time>
      </trkpt>
      <trkpt lat="48.54918" lon="2.69484">
        <ele>74</ele>
        <time>2023-04-16T11:36:12.935Z</time>
      </trkpt>
      <trkpt lat="48.54921" lon="2.69487">
        <ele>73</ele>
        <time>2023-04-16T11:36:17.012Z</time>
      </trkpt>
      <trkpt lat="48.54924" lon="2.69494">
        <ele>73</ele>
        <time>2023-04-16T11:36:21.550Z</time>
      </trkpt>
      <trkpt lat="48.54927" lon="2.69505">
        <ele>73</ele>
        <time>2023-04-16T11:36:26.345Z</time>
      </trkpt>
      <trkpt lat="48.54932" lon="2.69516">
        <ele>72</ele>
        <time>2023-04-16T11:36:30.705Z</time>
      </trkpt>
      <trkpt lat="48.54938" lon="2.6952">
        <ele>72</ele>
        <time>2023-04-16T11:36:34.783Z</time>
      </trkpt>
      <trkpt lat="48.54944" lon="2.69525">
        <ele>72</ele>
        <time>2023-04-16T11:36:38.922Z</time>
      </trkpt>
      <trkpt lat="48.5495" lon="2.69529">
        <ele>72</ele>
        <time>2023-04-16T11:36:43Z</time>
      </trkpt>
      <trkpt lat="48.54955" lon="2.69533">
        <ele>72</ele>
        <time>2023-04-16T11:36:47.718Z</time>
      </trkpt>
      <trkpt lat="48.54961" lon="2.69538">
        <ele>69</ele>
        <time>2023-04-16T11:36:51.796Z</time>
      </trkpt>
      <trkpt lat="48.54966" lon="2.6954">
        <ele>69</ele>
        <time>2023-04-16T11:36:55.993Z</time>
      </trkpt>
      <trkpt lat="48.54972" lon="2.69542">
        <ele>68</ele>
        <time>2023-04-16T11:37:00.549Z</time>
      </trkpt>
      <trkpt lat="48.54978" lon="2.69544">
        <ele>68</ele>
        <time>2023-04-16T11:37:04.931Z</time>
      </trkpt>
      <trkpt lat="48.54982" lon="2.69549">
        <ele>68</ele>
        <time>2023-04-16T11:37:08.685Z</time>
      </trkpt>
      <trkpt lat="48.54988" lon="2.69553">
        <ele>66</ele>
        <time>2023-04-16T11:37:12.763Z</time>
      </trkpt>
      <trkpt lat="48.54994" lon="2.69559">
        <ele>66</ele>
        <time>2023-04-16T11:37:17.402Z</time>
      </trkpt>
      <trkpt lat="48.54999" lon="2.69565">
        <ele>66</ele>
        <time>2023-04-16T11:37:21.359Z</time>
      </trkpt>
      <trkpt lat="48.55003" lon="2.69569">
        <ele>66</ele>
        <time>2023-04-16T11:37:25.555Z</time>
      </trkpt>
      <trkpt lat="48.55006" lon="2.69575">
        <ele>64</ele>
        <time>2023-04-16T11:37:29.631Z</time>
      </trkpt>
      <trkpt lat="48.55009" lon="2.69581">
        <ele>64</ele>
        <time>2023-04-16T11:37:34.068Z</time>
      </trkpt>
      <trkpt lat="48.55013" lon="2.69587">
        <ele>64</ele>
        <time>2023-04-16T11:37:38.206Z</time>
      </trkpt>
      <trkpt lat="48.55018" lon="2.69593">
        <ele>63</ele>
        <time>2023-04-16T11:37:42.044Z</time>
      </trkpt>
      <trkpt lat="48.55025" lon="2.69599">
        <ele>62</ele>
        <time>2023-04-16T11:37:46.694Z</time>
      </trkpt>
      <trkpt lat="48.5503" lon="2.69606">
        <ele>62</ele>
        <time>2023-04-16T11:37:50.750Z</time>
      </trkpt>
      <trkpt lat="48.55036" lon="2.69607">
        <ele>62</ele>
        <time>2023-04-16T11:37:54.774Z</time>
      </trkpt>
      <trkpt lat="48.55043" lon="2.69608">
        <ele>62</ele>
        <time>2023-04-16T11:37:58.690Z</time>
      </trkpt>
      <trkpt lat="48.55049" lon="2.69609">
        <ele>62</ele>
        <time>2023-04-16T11:38:02.646Z</time>
      </trkpt>
      <trkpt lat="48.55055" lon="2.69611">
        <ele>62</ele>
        <time>2023-04-16T11:38:06.723Z</time>
      </trkpt>
      <trkpt lat="48.55061" lon="2.69613">
        <ele>62</ele>
        <time>2023-04-16T11:38:10.918Z</time>
      </trkpt>
      <trkpt lat="48.55066" lon="2.69613">
        <ele>62</ele>
        <time>2023-04-16T11:38:15.354Z</time>
      </trkpt>
      <trkpt lat="48.55068" lon="2.69611">
        <ele>62</ele>
        <time>2023-04-16T11:38:19.678Z</time>
      </trkpt>
      <trkpt lat="48.55067" lon="2.69609">
        <ele>62</ele>
        <time>2023-04-16T11:38:23.692Z</time>
      </trkpt>
      <trkpt lat="48.55069" lon="2.6961">
        <ele>62</ele>
        <time>2023-04-16T11:38:28.207Z</time>
      </trkpt>
      <trkpt lat="48.55076" lon="2.69612">
        <ele>62</ele>
        <time>2023-04-16T11:38:32.712Z</time>
      </trkpt>
      <trkpt lat="48.55083" lon="2.69618">
        <ele>62</ele>
        <time>2023-04-16T11:38:36.715Z</time>
      </trkpt>
      <trkpt lat="48.55089" lon="2.69626">
        <ele>61</ele>
        <time>2023-04-16T11:38:41.575Z</time>
      </trkpt>
      <trkpt lat="48.55092" lon="2.69633">
        <ele>61</ele>
        <time>2023-04-16T11:38:46.172Z</time>
      </trkpt>
      <trkpt lat="48.55092" lon="2.6964">
        <ele>61</ele>
        <time>2023-04-16T11:38:50.594Z</time>
      </trkpt>
      <trkpt lat="48.55094" lon="2.69647">
        <ele>61</ele>
        <time>2023-04-16T11:38:54.795Z</time>
      </trkpt>
      <trkpt lat="48.55095" lon="2.69655">
        <ele>61</ele>
        <time>2023-04-16T11:38:59.055Z</time>
      </trkpt>
      <trkpt lat="48.55094" lon="2.69664">
        <ele>61</ele>
        <time>2023-04-16T11:39:03.418Z</time>
      </trkpt>
      <trkpt lat="48.55094" lon="2.69674">
        <ele>61</ele>
        <time>2023-04-16T11:39:07.952Z</time>
      </trkpt>
      <trkpt lat="48.55093" lon="2.69684">
        <ele>60</ele>
        <time>2023-04-16T11:39:12.011Z</time>
      </trkpt>
      <trkpt lat="48.55091" lon="2.69694">
        <ele>60</ele>
        <time>2023-04-16T11:39:16.408Z</time>
      </trkpt>
      <trkpt lat="48.55091" lon="2.69703">
        <ele>60</ele>
        <time>2023-04-16T11:39:20.908Z</time>
      </trkpt>
      <trkpt lat="48.55091" lon="2.69713">
        <ele>60</ele>
        <time>2023-04-16T11:39:25.244Z</time>
      </trkpt>
      <trkpt lat="48.55089" lon="2.69725">
        <ele>60</ele>
        <time>2023-04-16T11:39:29.743Z</time>
      </trkpt>
      <trkpt lat="48.55088" lon="2.69735">
        <ele>60</ele>
        <time>2023-04-16T11:39:34.194Z</time>
      </trkpt>
      <trkpt lat="48.55089" lon="2.69747">
        <ele>61</ele>
        <time>2023-04-16T11:39:38.573Z</time>
      </trkpt>
      <trkpt lat="48.55088" lon="2.69759">
        <ele>61</ele>
        <time>2023-04-16T11:39:43.158Z</time>
      </trkpt>
      <trkpt lat="48.55088" lon="2.69769">
        <ele>62</ele>
        <time>2023-04-16T11:39:48.174Z</time>
      </trkpt>
      <trkpt lat="48.55088" lon="2.69779">
        <ele>62</ele>
        <time>2023-04-16T11:39:52.347Z</time>
      </trkpt>
      <trkpt lat="48.5509" lon="2.69789">
        <ele>62</ele>
        <time>2023-04-16T11:39:56.418Z</time>
      </trkpt>
      <trkpt lat="48.55091" lon="2.69799">
        <ele>62</ele>
        <time>2023-04-16T11:40:00.418Z</time>
      </trkpt>
      <trkpt lat="48.55093" lon="2.6981">
        <ele>62</ele>
        <time>2023-04-16T11:40:04.932Z</time>
      </trkpt>
      <trkpt lat="48.55095" lon="2.69821">
        <ele>61</ele>
        <time>2023-04-16T11:40:09.729Z</time>
      </trkpt>
      <trkpt lat="48.55096" lon="2.69829">
        <ele>61</ele>
        <time>2023-04-16T11:40:13.802Z</time>
      </trkpt>
      <trkpt lat="48.55097" lon="2.69839">
        <ele>58</ele>
        <time>2023-04-16T11:40:18.337Z</time>
      </trkpt>
      <trkpt lat="48.551" lon="2.6985">
        <ele>57</ele>
        <time>2023-04-16T11:40:22.713Z</time>
      </trkpt>
      <trkpt lat="48.55102" lon="2.69858">
        <ele>57</ele>
        <time>2023-04-16T11:40:27.188Z</time>
      </trkpt>
      <trkpt lat="48.55102" lon="2.69867">
        <ele>57</ele>
        <time>2023-04-16T11:40:31.302Z</time>
      </trkpt>
      <trkpt lat="48.55104" lon="2.69874">
        <ele>57</ele>
        <time>2023-04-16T11:40:35.339Z</time>
      </trkpt>
      <trkpt lat="48.55105" lon="2.69882">
        <ele>56</ele>
        <time>2023-04-16T11:40:39.357Z</time>
      </trkpt>
      <trkpt lat="48.55104" lon="2.6989">
        <ele>56</ele>
        <time>2023-04-16T11:40:43.796Z</time>
      </trkpt>
      <trkpt lat="48.55106" lon="2.69899">
        <ele>56</ele>
        <time>2023-04-16T11:40:48.351Z</time>
      </trkpt>
      <trkpt lat="48.55107" lon="2.69909">
        <ele>57</ele>
        <time>2023-04-16T11:40:52.829Z</time>
      </trkpt>
      <trkpt lat="48.55107" lon="2.69916">
        <ele>57</ele>
        <time>2023-04-16T11:40:56.682Z</time>
      </trkpt>
      <trkpt lat="48.55108" lon="2.69923">
        <ele>57</ele>
        <time>2023-04-16T11:41:00.720Z</time>
      </trkpt>
      <trkpt lat="48.55107" lon="2.69931">
        <ele>57</ele>
        <time>2023-04-16T11:41:05.394Z</time>
      </trkpt>
      <trkpt lat="48.55106" lon="2.6994">
        <ele>57</ele>
        <time>2023-04-16T11:41:09.549Z</time>
      </trkpt>
      <trkpt lat="48.55107" lon="2.69946">
        <ele>57</ele>
        <time>2023-04-16T11:41:13.728Z</time>
      </trkpt>
      <trkpt lat="48.55106" lon="2.69954">
        <ele>57</ele>
        <time>2023-04-16T11:41:17.640Z</time>
      </trkpt>
      <trkpt lat="48.55104" lon="2.6996">
        <ele>57</ele>
        <time>2023-04-16T11:41:22.194Z</time>
      </trkpt>
      <trkpt lat="48.55103" lon="2.69965">
        <ele>57</ele>
        <time>2023-04-16T11:41:24.552Z</time>
      </trkpt>
      <trkpt lat="48.55105" lon="2.69984">
        <ele>57</ele>
        <time>2023-04-16T11:41:33.656Z</time>
      </trkpt>
      <trkpt lat="48.55103" lon="2.69988">
        <ele>57</ele>
        <time>2023-04-16T11:41:37.766Z</time>
      </trkpt>
      <trkpt lat="48.55099" lon="2.69987">
        <ele>57</ele>
        <time>2023-04-16T11:41:41.777Z</time>
      </trkpt>
      <trkpt lat="48.55094" lon="2.69991">
        <ele>59</ele>
        <time>2023-04-16T11:41:46.289Z</time>
      </trkpt>
      <trkpt lat="48.55089" lon="2.69993">
        <ele>59</ele>
        <time>2023-04-16T11:41:50.299Z</time>
      </trkpt>
      <trkpt lat="48.55083" lon="2.69991">
        <ele>59</ele>
        <time>2023-04-16T11:41:54.809Z</time>
      </trkpt>
      <trkpt lat="48.55077" lon="2.69987">
        <ele>59</ele>
        <time>2023-04-16T11:41:59.418Z</time>
      </trkpt>
      <trkpt lat="48.55075" lon="2.69985">
        <ele>60</ele>
        <time>2023-04-16T11:42:03.933Z</time>
      </trkpt>
      <trkpt lat="48.55074" lon="2.69983">
        <ele>60</ele>
        <time>2023-04-16T11:42:07.948Z</time>
      </trkpt>
      <trkpt lat="48.5507" lon="2.69982">
        <ele>60</ele>
        <time>2023-04-16T11:42:12.968Z</time>
      </trkpt>
      <trkpt lat="48.55064" lon="2.69991">
        <ele>60</ele>
        <time>2023-04-16T11:42:18.085Z</time>
      </trkpt>
      <trkpt lat="48.55062" lon="2.69999">
        <ele>60</ele>
        <time>2023-04-16T11:42:22.099Z</time>
      </trkpt>
      <trkpt lat="48.55064" lon="2.70012">
        <ele>60</ele>
        <time>2023-04-16T11:42:26.616Z</time>
      </trkpt>
      <trkpt lat="48.55062" lon="2.7002">
        <ele>59</ele>
        <time>2023-04-16T11:42:31.131Z</time>
      </trkpt>
      <trkpt lat="48.55059" lon="2.70026">
        <ele>59</ele>
        <time>2023-04-16T11:42:35.142Z</time>
      </trkpt>
      <trkpt lat="48.55057" lon="2.70034">
        <ele>59</ele>
        <time>2023-04-16T11:42:39.656Z</time>
      </trkpt>
      <trkpt lat="48.55053" lon="2.7004">
        <ele>59</ele>
        <time>2023-04-16T11:42:43.668Z</time>
      </trkpt>
      <trkpt lat="48.55049" lon="2.70051">
        <ele>59</ele>
        <time>2023-04-16T11:42:48.180Z</time>
      </trkpt>
      <trkpt lat="48.55047" lon="2.70058">
        <ele>59</ele>
        <time>2023-04-16T11:42:52.190Z</time>
      </trkpt>
      <trkpt lat="48.55044" lon="2.70067">
        <ele>59</ele>
        <time>2023-04-16T11:42:56.701Z</time>
      </trkpt>
      <trkpt lat="48.55041" lon="2.70072">
        <ele>60</ele>
        <time>2023-04-16T11:43:00.710Z</time>
      </trkpt>
      <trkpt lat="48.55036" lon="2.70079">
        <ele>60</ele>
        <time>2023-04-16T11:43:05.724Z</time>
      </trkpt>
      <trkpt lat="48.55031" lon="2.7008">
        <ele>60</ele>
        <time>2023-04-16T11:43:09.735Z</time>
      </trkpt>
      <trkpt lat="48.55026" lon="2.70075">
        <ele>60</ele>
        <time>2023-04-16T11:43:14.247Z</time>
      </trkpt>
      <trkpt lat="48.55019" lon="2.70075">
        <ele>60</ele>
        <time>2023-04-16T11:43:18.758Z</time>
      </trkpt>
      <trkpt lat="48.55014" lon="2.70081">
        <ele>60</ele>
        <time>2023-04-16T11:43:22.769Z</time>
      </trkpt>
      <trkpt lat="48.55009" lon="2.70084">
        <ele>61</ele>
        <time>2023-04-16T11:43:27.781Z</time>
      </trkpt>
      <trkpt lat="48.55008" lon="2.70089">
        <ele>61</ele>
        <time>2023-04-16T11:43:32.290Z</time>
      </trkpt>
      <trkpt lat="48.55008" lon="2.70091">
        <ele>61</ele>
        <time>2023-04-16T11:43:36.297Z</time>
      </trkpt>
      <trkpt lat="48.55009" lon="2.70088">
        <ele>61</ele>
        <time>2023-04-16T11:45:28.723Z</time>
      </trkpt>
      <trkpt lat="48.55006" lon="2.70084">
        <ele>61</ele>
        <time>2023-04-16T11:45:33.999Z</time>
      </trkpt>
      <trkpt lat="48.55002" lon="2.70081">
        <ele>61</ele>
        <time>2023-04-16T11:45:37.836Z</time>
      </trkpt>
      <trkpt lat="48.54999" lon="2.70074">
        <ele>61</ele>
        <time>2023-04-16T11:45:42.990Z</time>
      </trkpt>
      <trkpt lat="48.54997" lon="2.70071">
        <ele>61</ele>
        <time>2023-04-16T11:45:47.183Z</time>
      </trkpt>
      <trkpt lat="48.54999" lon="2.70074">
        <ele>61</ele>
        <time>2023-04-16T11:46:14.217Z</time>
      </trkpt>
      <trkpt lat="48.55" lon="2.70073">
        <ele>61</ele>
        <time>2023-04-16T11:46:19.187Z</time>
      </trkpt>
      <trkpt lat="48.55001" lon="2.70072">
        <ele>61</ele>
        <time>2023-04-16T11:46:23.530Z</time>
      </trkpt>
      <trkpt lat="48.55004" lon="2.70068">
        <ele>62</ele>
        <time>2023-04-16T11:46:28.076Z</time>
      </trkpt>
      <trkpt lat="48.55008" lon="2.70064">
        <ele>62</ele>
        <time>2023-04-16T11:46:33.155Z</time>
      </trkpt>
      <trkpt lat="48.55005" lon="2.7006">
        <ele>62</ele>
        <time>2023-04-16T11:47:48.879Z</time>
      </trkpt>
      <trkpt lat="48.55003" lon="2.70061">
        <ele>62</ele>
        <time>2023-04-16T11:47:54.157Z</time>
      </trkpt>
      <trkpt lat="48.55002" lon="2.70063">
        <ele>62</ele>
        <time>2023-04-16T11:47:58.171Z</time>
      </trkpt>
      <trkpt lat="48.55" lon="2.70066">
        <ele>62</ele>
        <time>2023-04-16T11:48:02.971Z</time>
      </trkpt>
      <trkpt lat="48.54999" lon="2.70069">
        <ele>62</ele>
        <time>2023-04-16T11:48:07.830Z</time>
      </trkpt>
      <trkpt lat="48.54995" lon="2.70075">
        <ele>61</ele>
        <time>2023-04-16T11:57:38.191Z</time>
      </trkpt>
      <trkpt lat="48.54994" lon="2.70075">
        <ele>61</ele>
        <time>2023-04-16T11:57:42.711Z</time>
      </trkpt>
      <trkpt lat="48.54994" lon="2.70079">
        <ele>61</ele>
        <time>2023-04-16T11:57:47.178Z</time>
      </trkpt>
      <trkpt lat="48.54994" lon="2.70081">
        <ele>61</ele>
        <time>2023-04-16T11:57:51.730Z</time>
      </trkpt>
      <trkpt lat="48.54995" lon="2.70085">
        <ele>61</ele>
        <time>2023-04-16T11:57:55.802Z</time>
      </trkpt>
      <trkpt lat="48.54997" lon="2.70092">
        <ele>61</ele>
        <time>2023-04-16T11:58:00.355Z</time>
      </trkpt>
      <trkpt lat="48.54998" lon="2.70099">
        <ele>61</ele>
        <time>2023-04-16T11:58:04.418Z</time>
      </trkpt>
      <trkpt lat="48.54997" lon="2.70106">
        <ele>61</ele>
        <time>2023-04-16T11:58:08.604Z</time>
      </trkpt>
      <trkpt lat="48.54995" lon="2.70114">
        <ele>61</ele>
        <time>2023-04-16T11:58:13.277Z</time>
      </trkpt>
      <trkpt lat="48.55001" lon="2.70124">
        <ele>61</ele>
        <time>2023-04-16T11:58:30.870Z</time>
      </trkpt>
      <trkpt lat="48.54994" lon="2.70141">
        <ele>62</ele>
        <time>2023-04-16T11:58:35.926Z</time>
      </trkpt>
      <trkpt lat="48.54991" lon="2.70152">
        <ele>62</ele>
        <time>2023-04-16T11:58:39.733Z</time>
      </trkpt>
      <trkpt lat="48.54987" lon="2.70162">
        <ele>64</ele>
        <time>2023-04-16T11:58:44.692Z</time>
      </trkpt>
      <trkpt lat="48.54985" lon="2.70172">
        <ele>66</ele>
        <time>2023-04-16T11:58:49.631Z</time>
      </trkpt>
      <trkpt lat="48.54984" lon="2.70179">
        <ele>66</ele>
        <time>2023-04-16T11:58:53.692Z</time>
      </trkpt>
      <trkpt lat="48.54983" lon="2.70187">
        <ele>67</ele>
        <time>2023-04-16T11:58:57.769Z</time>
      </trkpt>
      <trkpt lat="48.54985" lon="2.70196">
        <ele>67</ele>
        <time>2023-04-16T11:59:02.831Z</time>
      </trkpt>
      <trkpt lat="48.54984" lon="2.70199">
        <ele>67</ele>
        <time>2023-04-16T11:59:08.848Z</time>
      </trkpt>
      <trkpt lat="48.54983" lon="2.70203">
        <ele>67</ele>
        <time>2023-04-16T11:59:12.860Z</time>
      </trkpt>
      <trkpt lat="48.54983" lon="2.70219">
        <ele>68</ele>
        <time>2023-04-16T11:59:17.866Z</time>
      </trkpt>
      <trkpt lat="48.54985" lon="2.70228">
        <ele>68</ele>
        <time>2023-04-16T11:59:22.489Z</time>
      </trkpt>
      <trkpt lat="48.54986" lon="2.70236">
        <ele>68</ele>
        <time>2023-04-16T11:59:26.992Z</time>
      </trkpt>
      <trkpt lat="48.54986" lon="2.70243">
        <ele>70</ele>
        <time>2023-04-16T11:59:31.113Z</time>
      </trkpt>
      <trkpt lat="48.54984" lon="2.70252">
        <ele>70</ele>
        <time>2023-04-16T11:59:35.575Z</time>
      </trkpt>
      <trkpt lat="48.54982" lon="2.70261">
        <ele>70</ele>
        <time>2023-04-16T11:59:39.872Z</time>
      </trkpt>
      <trkpt lat="48.54983" lon="2.70272">
        <ele>71</ele>
        <time>2023-04-16T11:59:43.995Z</time>
      </trkpt>
      <trkpt lat="48.54984" lon="2.7028">
        <ele>71</ele>
        <time>2023-04-16T11:59:48.474Z</time>
      </trkpt>
      <trkpt lat="48.54984" lon="2.70288">
        <ele>71</ele>
        <time>2023-04-16T11:59:53.032Z</time>
      </trkpt>
      <trkpt lat="48.54984" lon="2.70297">
        <ele>73</ele>
        <time>2023-04-16T11:59:57.528Z</time>
      </trkpt>
      <trkpt lat="48.54985" lon="2.70304">
        <ele>73</ele>
        <time>2023-04-16T12:00:01.602Z</time>
      </trkpt>
      <trkpt lat="48.54986" lon="2.70312">
        <ele>73</ele>
        <time>2023-04-16T12:00:06.037Z</time>
      </trkpt>
      <trkpt lat="48.54986" lon="2.70323">
        <ele>74</ele>
        <time>2023-04-16T12:00:10.593Z</time>
      </trkpt>
      <trkpt lat="48.54987" lon="2.70333">
        <ele>72</ele>
        <time>2023-04-16T12:00:14.788Z</time>
      </trkpt>
      <trkpt lat="48.54987" lon="2.70341">
        <ele>72</ele>
        <time>2023-04-16T12:00:18.943Z</time>
      </trkpt>
      <trkpt lat="48.54986" lon="2.70351">
        <ele>73</ele>
        <time>2023-04-16T12:00:23.569Z</time>
      </trkpt>
      <trkpt lat="48.54987" lon="2.70359">
        <ele>73</ele>
        <time>2023-04-16T12:00:27.573Z</time>
      </trkpt>
      <trkpt lat="48.54985" lon="2.70367">
        <ele>74</ele>
        <time>2023-04-16T12:00:31.767Z</time>
      </trkpt>
      <trkpt lat="48.54986" lon="2.70374">
        <ele>74</ele>
        <time>2023-04-16T12:00:35.942Z</time>
      </trkpt>
      <trkpt lat="48.54985" lon="2.70382">
        <ele>75</ele>
        <time>2023-04-16T12:00:40.018Z</time>
      </trkpt>
      <trkpt lat="48.54983" lon="2.70388">
        <ele>75</ele>
        <time>2023-04-16T12:00:43.953Z</time>
      </trkpt>
      <trkpt lat="48.54977" lon="2.70393">
        <ele>75</ele>
        <time>2023-04-16T12:00:48.746Z</time>
      </trkpt>
      <trkpt lat="48.54973" lon="2.70396">
        <ele>75</ele>
        <time>2023-04-16T12:00:52.941Z</time>
      </trkpt>
      <trkpt lat="48.54969" lon="2.70403">
        <ele>74</ele>
        <time>2023-04-16T12:00:57.656Z</time>
      </trkpt>
      <trkpt lat="48.54965" lon="2.70407">
        <ele>74</ele>
        <time>2023-04-16T12:01:01.766Z</time>
      </trkpt>
      <trkpt lat="48.54963" lon="2.70412">
        <ele>74</ele>
        <time>2023-04-16T12:01:06.271Z</time>
      </trkpt>
      <trkpt lat="48.54963" lon="2.70423">
        <ele>74</ele>
        <time>2023-04-16T12:01:10.326Z</time>
      </trkpt>
      <trkpt lat="48.54959" lon="2.70429">
        <ele>74</ele>
        <time>2023-04-16T12:01:14.347Z</time>
      </trkpt>
      <trkpt lat="48.54955" lon="2.70436">
        <ele>74</ele>
        <time>2023-04-16T12:01:19.135Z</time>
      </trkpt>
      <trkpt lat="48.54951" lon="2.70444">
        <ele>74</ele>
        <time>2023-04-16T12:01:24.168Z</time>
      </trkpt>
      <trkpt lat="48.54946" lon="2.7045">
        <ele>74</ele>
        <time>2023-04-16T12:01:28.784Z</time>
      </trkpt>
      <trkpt lat="48.5494" lon="2.70456">
        <ele>74</ele>
        <time>2023-04-16T12:01:33.508Z</time>
      </trkpt>
      <trkpt lat="48.54936" lon="2.70463">
        <ele>73</ele>
        <time>2023-04-16T12:01:37.528Z</time>
      </trkpt>
      <trkpt lat="48.54933" lon="2.70467">
        <ele>73</ele>
        <time>2023-04-16T12:01:41.418Z</time>
      </trkpt>
      <trkpt lat="48.54928" lon="2.70471">
        <ele>75</ele>
        <time>2023-04-16T12:01:46.040Z</time>
      </trkpt>
      <trkpt lat="48.54923" lon="2.70479">
        <ele>75</ele>
        <time>2023-04-16T12:01:50.192Z</time>
      </trkpt>
      <trkpt lat="48.54919" lon="2.70483">
        <ele>75</ele>
        <time>2023-04-16T12:01:54.186Z</time>
      </trkpt>
      <trkpt lat="48.54914" lon="2.70488">
        <ele>75</ele>
        <time>2023-04-16T12:01:58.795Z</time>
      </trkpt>
      <trkpt lat="48.54914" lon="2.70495">
        <ele>75</ele>
        <time>2023-04-16T12:02:02.746Z</time>
      </trkpt>
      <trkpt lat="48.54916" lon="2.70503">
        <ele>75</ele>
        <time>2023-04-16T12:02:07.388Z</time>
      </trkpt>
      <trkpt lat="48.54919" lon="2.70512">
        <ele>75</ele>
        <time>2023-04-16T12:02:11.493Z</time>
      </trkpt>
      <trkpt lat="48.54922" lon="2.7052">
        <ele>75</ele>
        <time>2023-04-16T12:02:15.521Z</time>
      </trkpt>
      <trkpt lat="48.54926" lon="2.70528">
        <ele>75</ele>
        <time>2023-04-16T12:02:19.592Z</time>
      </trkpt>
      <trkpt lat="48.54929" lon="2.70537">
        <ele>75</ele>
        <time>2023-04-16T12:02:23.765Z</time>
      </trkpt>
      <trkpt lat="48.5493" lon="2.70545">
        <ele>76</ele>
        <time>2023-04-16T12:02:27.800Z</time>
      </trkpt>
      <trkpt lat="48.54931" lon="2.70549">
        <ele>76</ele>
        <time>2023-04-16T12:02:32.354Z</time>
      </trkpt>
      <trkpt lat="48.54935" lon="2.70554">
        <ele>76</ele>
        <time>2023-04-16T12:02:36.985Z</time>
      </trkpt>
      <trkpt lat="48.54938" lon="2.70567">
        <ele>76</ele>
        <time>2023-04-16T12:02:41.347Z</time>
      </trkpt>
      <trkpt lat="48.54941" lon="2.70577">
        <ele>77</ele>
        <time>2023-04-16T12:02:45.609Z</time>
      </trkpt>
      <trkpt lat="48.54943" lon="2.70586">
        <ele>77</ele>
        <time>2023-04-16T12:02:49.418Z</time>
      </trkpt>
      <trkpt lat="48.54944" lon="2.70594">
        <ele>77</ele>
        <time>2023-04-16T12:02:53.370Z</time>
      </trkpt>
      <trkpt lat="48.54945" lon="2.70602">
        <ele>76</ele>
        <time>2023-04-16T12:02:57.563Z</time>
      </trkpt>
      <trkpt lat="48.54945" lon="2.70603">
        <ele>76</ele>
        <time>2023-04-16T12:03:01.996Z</time>
      </trkpt>
      <trkpt lat="48.54948" lon="2.7061">
        <ele>76</ele>
        <time>2023-04-16T12:03:06.067Z</time>
      </trkpt>
      <trkpt lat="48.54949" lon="2.70619">
        <ele>76</ele>
        <time>2023-04-16T12:03:10.738Z</time>
      </trkpt>
      <trkpt lat="48.54952" lon="2.70629">
        <ele>75</ele>
        <time>2023-04-16T12:03:14.690Z</time>
      </trkpt>
      <trkpt lat="48.54954" lon="2.70641">
        <ele>75</ele>
        <time>2023-04-16T12:03:19.309Z</time>
      </trkpt>
      <trkpt lat="48.54956" lon="2.70652">
        <ele>75</ele>
        <time>2023-04-16T12:03:23.765Z</time>
      </trkpt>
      <trkpt lat="48.54957" lon="2.70659">
        <ele>74</ele>
        <time>2023-04-16T12:03:27.953Z</time>
      </trkpt>
      <trkpt lat="48.54959" lon="2.70667">
        <ele>73</ele>
        <time>2023-04-16T12:03:32.613Z</time>
      </trkpt>
      <trkpt lat="48.54959" lon="2.70676">
        <ele>73</ele>
        <time>2023-04-16T12:03:37.195Z</time>
      </trkpt>
      <trkpt lat="48.5496" lon="2.70685">
        <ele>74</ele>
        <time>2023-04-16T12:03:40.764Z</time>
      </trkpt>
      <trkpt lat="48.54962" lon="2.70693">
        <ele>74</ele>
        <time>2023-04-16T12:03:45.173Z</time>
      </trkpt>
      <trkpt lat="48.54963" lon="2.70701">
        <ele>74</ele>
        <time>2023-04-16T12:03:49.122Z</time>
      </trkpt>
      <trkpt lat="48.54965" lon="2.70709">
        <ele>74</ele>
        <time>2023-04-16T12:03:53.773Z</time>
      </trkpt>
      <trkpt lat="48.54966" lon="2.70718">
        <ele>74</ele>
        <time>2023-04-16T12:03:57.959Z</time>
      </trkpt>
      <trkpt lat="48.5497" lon="2.70728">
        <ele>74</ele>
        <time>2023-04-16T12:04:02.689Z</time>
      </trkpt>
      <trkpt lat="48.54971" lon="2.70735">
        <ele>74</ele>
        <time>2023-04-16T12:04:06.799Z</time>
      </trkpt>
      <trkpt lat="48.54972" lon="2.70744">
        <ele>74</ele>
        <time>2023-04-16T12:04:11.290Z</time>
      </trkpt>
      <trkpt lat="48.54972" lon="2.70755">
        <ele>74</ele>
        <time>2023-04-16T12:04:15.775Z</time>
      </trkpt>
      <trkpt lat="48.54972" lon="2.70761">
        <ele>74</ele>
        <time>2023-04-16T12:04:20.684Z</time>
      </trkpt>
      <trkpt lat="48.54974" lon="2.7077">
        <ele>74</ele>
        <time>2023-04-16T12:04:25.114Z</time>
      </trkpt>
      <trkpt lat="48.54975" lon="2.70782">
        <ele>74</ele>
        <time>2023-04-16T12:04:29.763Z</time>
      </trkpt>
      <trkpt lat="48.54975" lon="2.70791">
        <ele>74</ele>
        <time>2023-04-16T12:04:33.953Z</time>
      </trkpt>
      <trkpt lat="48.54976" lon="2.70801">
        <ele>75</ele>
        <time>2023-04-16T12:04:38.504Z</time>
      </trkpt>
      <trkpt lat="48.54977" lon="2.7081">
        <ele>75</ele>
        <time>2023-04-16T12:04:43.171Z</time>
      </trkpt>
      <trkpt lat="48.54978" lon="2.70818">
        <ele>75</ele>
        <time>2023-04-16T12:04:47.354Z</time>
      </trkpt>
      <trkpt lat="48.54979" lon="2.70828">
        <ele>75</ele>
        <time>2023-04-16T12:04:51.886Z</time>
      </trkpt>
      <trkpt lat="48.54981" lon="2.70837">
        <ele>75</ele>
        <time>2023-04-16T12:04:55.927Z</time>
      </trkpt>
      <trkpt lat="48.54983" lon="2.70846">
        <ele>75</ele>
        <time>2023-04-16T12:05:00.117Z</time>
      </trkpt>
      <trkpt lat="48.54984" lon="2.70853">
        <ele>76</ele>
        <time>2023-04-16T12:05:04.067Z</time>
      </trkpt>
      <trkpt lat="48.54985" lon="2.70863">
        <ele>76</ele>
        <time>2023-04-16T12:05:08.739Z</time>
      </trkpt>
      <trkpt lat="48.54986" lon="2.70869">
        <ele>76</ele>
        <time>2023-04-16T12:05:12.913Z</time>
      </trkpt>
      <trkpt lat="48.54988" lon="2.70877">
        <ele>74</ele>
        <time>2023-04-16T12:05:16.745Z</time>
      </trkpt>
      <trkpt lat="48.54991" lon="2.70884">
        <ele>74</ele>
        <time>2023-04-16T12:05:20.936Z</time>
      </trkpt>
      <trkpt lat="48.54991" lon="2.70886">
        <ele>74</ele>
        <time>2023-04-16T12:05:22.134Z</time>
      </trkpt>
      <trkpt lat="48.54995" lon="2.70901">
        <ele>74</ele>
        <time>2023-04-16T12:05:30.778Z</time>
      </trkpt>
      <trkpt lat="48.54995" lon="2.70902">
        <ele>74</ele>
        <time>2023-04-16T12:06:17.174Z</time>
      </trkpt>
      <trkpt lat="48.54995" lon="2.709">
        <ele>74</ele>
        <time>2023-04-16T12:06:22.072Z</time>
      </trkpt>
      <trkpt lat="48.54993" lon="2.70905">
        <ele>76</ele>
        <time>2023-04-16T12:06:26.188Z</time>
      </trkpt>
      <trkpt lat="48.54993" lon="2.70913">
        <ele>76</ele>
        <time>2023-04-16T12:06:30.681Z</time>
      </trkpt>
      <trkpt lat="48.54999" lon="2.7092">
        <ele>76</ele>
        <time>2023-04-16T12:06:34.702Z</time>
      </trkpt>
      <trkpt lat="48.55002" lon="2.70924">
        <ele>76</ele>
        <time>2023-04-16T12:06:39.602Z</time>
      </trkpt>
      <trkpt lat="48.55002" lon="2.70929">
        <ele>76</ele>
        <time>2023-04-16T12:06:43.418Z</time>
      </trkpt>
      <trkpt lat="48.55001" lon="2.70935">
        <ele>77</ele>
        <time>2023-04-16T12:06:48.098Z</time>
      </trkpt>
      <trkpt lat="48.55004" lon="2.7094">
        <ele>77</ele>
        <time>2023-04-16T12:06:52.058Z</time>
      </trkpt>
      <trkpt lat="48.55011" lon="2.70945">
        <ele>77</ele>
        <time>2023-04-16T12:06:56.497Z</time>
      </trkpt>
      <trkpt lat="48.55017" lon="2.70946">
        <ele>80</ele>
        <time>2023-04-16T12:07:01.036Z</time>
      </trkpt>
      <trkpt lat="48.55021" lon="2.70948">
        <ele>80</ele>
        <time>2023-04-16T12:07:05.514Z</time>
      </trkpt>
      <trkpt lat="48.55024" lon="2.70946">
        <ele>80</ele>
        <time>2023-04-16T12:07:09.934Z</time>
      </trkpt>
      <trkpt lat="48.5503" lon="2.70949">
        <ele>80</ele>
        <time>2023-04-16T12:07:14.332Z</time>
      </trkpt>
      <trkpt lat="48.55034" lon="2.70952">
        <ele>80</ele>
        <time>2023-04-16T12:07:18.947Z</time>
      </trkpt>
      <trkpt lat="48.5504" lon="2.70952">
        <ele>80</ele>
        <time>2023-04-16T12:07:22.963Z</time>
      </trkpt>
      <trkpt lat="48.55053" lon="2.70942">
        <ele>83</ele>
        <time>2023-04-16T12:07:31.729Z</time>
      </trkpt>
      <trkpt lat="48.55059" lon="2.70936">
        <ele>83</ele>
        <time>2023-04-16T12:07:35.748Z</time>
      </trkpt>
      <trkpt lat="48.55065" lon="2.70936">
        <ele>83</ele>
        <time>2023-04-16T12:07:40.534Z</time>
      </trkpt>
      <trkpt lat="48.55072" lon="2.70934">
        <ele>83</ele>
        <time>2023-04-16T12:07:44.905Z</time>
      </trkpt>
      <trkpt lat="48.55078" lon="2.70933">
        <ele>83</ele>
        <time>2023-04-16T12:07:48.742Z</time>
      </trkpt>
      <trkpt lat="48.55085" lon="2.70934">
        <ele>83</ele>
        <time>2023-04-16T12:07:54.090Z</time>
      </trkpt>
      <trkpt lat="48.55092" lon="2.70939">
        <ele>83</ele>
        <time>2023-04-16T12:07:57.937Z</time>
      </trkpt>
      <trkpt lat="48.55098" lon="2.70944">
        <ele>83</ele>
        <time>2023-04-16T12:08:01.876Z</time>
      </trkpt>
      <trkpt lat="48.55103" lon="2.70955">
        <ele>83</ele>
        <time>2023-04-16T12:08:07.163Z</time>
      </trkpt>
      <trkpt lat="48.55102" lon="2.70965">
        <ele>83</ele>
        <time>2023-04-16T12:08:10.985Z</time>
      </trkpt>
      <trkpt lat="48.55099" lon="2.70974">
        <ele>83</ele>
        <time>2023-04-16T12:08:15.602Z</time>
      </trkpt>
      <trkpt lat="48.55096" lon="2.70981">
        <ele>83</ele>
        <time>2023-04-16T12:08:20.156Z</time>
      </trkpt>
      <trkpt lat="48.55096" lon="2.70988">
        <ele>83</ele>
        <time>2023-04-16T12:08:23.750Z</time>
      </trkpt>
      <trkpt lat="48.55097" lon="2.70993">
        <ele>83</ele>
        <time>2023-04-16T12:08:28.274Z</time>
      </trkpt>
      <trkpt lat="48.551" lon="2.71001">
        <ele>82</ele>
        <time>2023-04-16T12:08:32.907Z</time>
      </trkpt>
      <trkpt lat="48.55102" lon="2.71008">
        <ele>82</ele>
        <time>2023-04-16T12:08:37.788Z</time>
      </trkpt>
      <trkpt lat="48.551" lon="2.71019">
        <ele>82</ele>
        <time>2023-04-16T12:08:41.717Z</time>
      </trkpt>
      <trkpt lat="48.55099" lon="2.71029">
        <ele>82</ele>
        <time>2023-04-16T12:08:46.329Z</time>
      </trkpt>
      <trkpt lat="48.55101" lon="2.71038">
        <ele>82</ele>
        <time>2023-04-16T12:08:50.762Z</time>
      </trkpt>
      <trkpt lat="48.551" lon="2.71046">
        <ele>84</ele>
        <time>2023-04-16T12:08:56.154Z</time>
      </trkpt>
      <trkpt lat="48.55102" lon="2.71056">
        <ele>84</ele>
        <time>2023-04-16T12:09:00.752Z</time>
      </trkpt>
      <trkpt lat="48.55103" lon="2.71064">
        <ele>84</ele>
        <time>2023-04-16T12:09:04.768Z</time>
      </trkpt>
      <trkpt lat="48.55105" lon="2.71072">
        <ele>85</ele>
        <time>2023-04-16T12:09:08.962Z</time>
      </trkpt>
      <trkpt lat="48.55107" lon="2.71084">
        <ele>85</ele>
        <time>2023-04-16T12:09:13.755Z</time>
      </trkpt>
      <trkpt lat="48.55106" lon="2.71094">
        <ele>85</ele>
        <time>2023-04-16T12:09:18.810Z</time>
      </trkpt>
      <trkpt lat="48.55105" lon="2.71103">
        <ele>86</ele>
        <time>2023-04-16T12:09:22.703Z</time>
      </trkpt>
      <trkpt lat="48.55107" lon="2.71112">
        <ele>86</ele>
        <time>2023-04-16T12:09:27.667Z</time>
      </trkpt>
      <trkpt lat="48.5511" lon="2.71119">
        <ele>86</ele>
        <time>2023-04-16T12:09:31.767Z</time>
      </trkpt>
      <trkpt lat="48.55112" lon="2.71124">
        <ele>86</ele>
        <time>2023-04-16T12:09:36.315Z</time>
      </trkpt>
      <trkpt lat="48.55112" lon="2.71131">
        <ele>86</ele>
        <time>2023-04-16T12:09:40.385Z</time>
      </trkpt>
      <trkpt lat="48.55111" lon="2.71138">
        <ele>86</ele>
        <time>2023-04-16T12:09:44.547Z</time>
      </trkpt>
      <trkpt lat="48.55111" lon="2.71146">
        <ele>86</ele>
        <time>2023-04-16T12:09:48.964Z</time>
      </trkpt>
      <trkpt lat="48.55112" lon="2.71154">
        <ele>86</ele>
        <time>2023-04-16T12:09:52.913Z</time>
      </trkpt>
      <trkpt lat="48.55114" lon="2.71164">
        <ele>86</ele>
        <time>2023-04-16T12:09:57.579Z</time>
      </trkpt>
      <trkpt lat="48.55116" lon="2.71172">
        <ele>86</ele>
        <time>2023-04-16T12:10:02.210Z</time>
      </trkpt>
      <trkpt lat="48.55119" lon="2.71179">
        <ele>86</ele>
        <time>2023-04-16T12:10:06.310Z</time>
      </trkpt>
      <trkpt lat="48.55125" lon="2.71186">
        <ele>87</ele>
        <time>2023-04-16T12:10:10.974Z</time>
      </trkpt>
      <trkpt lat="48.55132" lon="2.71196">
        <ele>88</ele>
        <time>2023-04-16T12:10:15.960Z</time>
      </trkpt>
      <trkpt lat="48.55138" lon="2.71202">
        <ele>88</ele>
        <time>2023-04-16T12:10:20.747Z</time>
      </trkpt>
      <trkpt lat="48.55142" lon="2.71207">
        <ele>88</ele>
        <time>2023-04-16T12:10:24.932Z</time>
      </trkpt>
      <trkpt lat="48.55147" lon="2.71212">
        <ele>89</ele>
        <time>2023-04-16T12:10:29.292Z</time>
      </trkpt>
      <trkpt lat="48.55153" lon="2.71217">
        <ele>89</ele>
        <time>2023-04-16T12:10:33.783Z</time>
      </trkpt>
      <trkpt lat="48.55158" lon="2.71221">
        <ele>90</ele>
        <time>2023-04-16T12:10:37.951Z</time>
      </trkpt>
      <trkpt lat="48.55163" lon="2.71228">
        <ele>90</ele>
        <time>2023-04-16T12:10:42.735Z</time>
      </trkpt>
      <trkpt lat="48.55167" lon="2.71234">
        <ele>90</ele>
        <time>2023-04-16T12:10:46.922Z</time>
      </trkpt>
      <trkpt lat="48.5517" lon="2.71238">
        <ele>90</ele>
        <time>2023-04-16T12:10:50.989Z</time>
      </trkpt>
      <trkpt lat="48.55176" lon="2.71242">
        <ele>90</ele>
        <time>2023-04-16T12:10:55.776Z</time>
      </trkpt>
      <trkpt lat="48.55182" lon="2.71247">
        <ele>89</ele>
        <time>2023-04-16T12:10:59.963Z</time>
      </trkpt>
      <trkpt lat="48.55188" lon="2.71254">
        <ele>89</ele>
        <time>2023-04-16T12:11:04.709Z</time>
      </trkpt>
      <trkpt lat="48.55192" lon="2.71255">
        <ele>89</ele>
        <time>2023-04-16T12:11:08.695Z</time>
      </trkpt>
      <trkpt lat="48.55196" lon="2.71258">
        <ele>89</ele>
        <time>2023-04-16T12:11:12.764Z</time>
      </trkpt>
      <trkpt lat="48.55202" lon="2.71259">
        <ele>89</ele>
        <time>2023-04-16T12:11:17.314Z</time>
      </trkpt>
      <trkpt lat="48.5521" lon="2.71262">
        <ele>86</ele>
        <time>2023-04-16T12:11:21.986Z</time>
      </trkpt>
      <trkpt lat="48.55216" lon="2.71265">
        <ele>89</ele>
        <time>2023-04-16T12:11:26.776Z</time>
      </trkpt>
      <trkpt lat="48.55221" lon="2.7127">
        <ele>89</ele>
        <time>2023-04-16T12:11:31.928Z</time>
      </trkpt>
      <trkpt lat="48.55227" lon="2.71274">
        <ele>89</ele>
        <time>2023-04-16T12:11:36.719Z</time>
      </trkpt>
      <trkpt lat="48.55234" lon="2.71279">
        <ele>89</ele>
        <time>2023-04-16T12:11:41.389Z</time>
      </trkpt>
      <trkpt lat="48.55239" lon="2.71283">
        <ele>86</ele>
        <time>2023-04-16T12:11:45.582Z</time>
      </trkpt>
      <trkpt lat="48.55244" lon="2.71287">
        <ele>86</ele>
        <time>2023-04-16T12:11:50.182Z</time>
      </trkpt>
      <trkpt lat="48.55247" lon="2.71292">
        <ele>88</ele>
        <time>2023-04-16T12:11:54.724Z</time>
      </trkpt>
      <trkpt lat="48.55251" lon="2.71296">
        <ele>88</ele>
        <time>2023-04-16T12:11:58.737Z</time>
      </trkpt>
      <trkpt lat="48.55255" lon="2.71297">
        <ele>88</ele>
        <time>2023-04-16T12:12:03.410Z</time>
      </trkpt>
      <trkpt lat="48.55256" lon="2.71296">
        <ele>88</ele>
        <time>2023-04-16T12:12:07.903Z</time>
      </trkpt>
      <trkpt lat="48.55259" lon="2.71298">
        <ele>88</ele>
        <time>2023-04-16T12:12:11.735Z</time>
      </trkpt>
      <trkpt lat="48.55266" lon="2.71304">
        <ele>86</ele>
        <time>2023-04-16T12:12:16.527Z</time>
      </trkpt>
      <trkpt lat="48.55273" lon="2.7131">
        <ele>86</ele>
        <time>2023-04-16T12:12:21.317Z</time>
      </trkpt>
      <trkpt lat="48.55279" lon="2.71318">
        <ele>86</ele>
        <time>2023-04-16T12:12:25.749Z</time>
      </trkpt>
      <trkpt lat="48.55284" lon="2.71324">
        <ele>89</ele>
        <time>2023-04-16T12:12:29.703Z</time>
      </trkpt>
      <trkpt lat="48.55291" lon="2.7133">
        <ele>89</ele>
        <time>2023-04-16T12:12:34.971Z</time>
      </trkpt>
      <trkpt lat="48.55298" lon="2.71336">
        <ele>87</ele>
        <time>2023-04-16T12:12:38.923Z</time>
      </trkpt>
      <trkpt lat="48.55304" lon="2.71341">
        <ele>87</ele>
        <time>2023-04-16T12:12:43.115Z</time>
      </trkpt>
      <trkpt lat="48.55309" lon="2.71347">
        <ele>87</ele>
        <time>2023-04-16T12:12:47.783Z</time>
      </trkpt>
      <trkpt lat="48.55315" lon="2.71351">
        <ele>88</ele>
        <time>2023-04-16T12:12:53.158Z</time>
      </trkpt>
      <trkpt lat="48.55321" lon="2.71355">
        <ele>85</ele>
        <time>2023-04-16T12:12:57.725Z</time>
      </trkpt>
      <trkpt lat="48.55324" lon="2.71355">
        <ele>85</ele>
        <time>2023-04-16T12:13:01.918Z</time>
      </trkpt>
      <trkpt lat="48.55328" lon="2.7136">
        <ele>85</ele>
        <time>2023-04-16T12:13:07.186Z</time>
      </trkpt>
      <trkpt lat="48.55332" lon="2.71366">
        <ele>85</ele>
        <time>2023-04-16T12:13:11.138Z</time>
      </trkpt>
      <trkpt lat="48.55338" lon="2.71371">
        <ele>85</ele>
        <time>2023-04-16T12:13:15.671Z</time>
      </trkpt>
      <trkpt lat="48.55341" lon="2.71378">
        <ele>85</ele>
        <time>2023-04-16T12:13:19.739Z</time>
      </trkpt>
      <trkpt lat="48.55346" lon="2.71383">
        <ele>85</ele>
        <time>2023-04-16T12:13:23.929Z</time>
      </trkpt>
      <trkpt lat="48.55352" lon="2.71389">
        <ele>84</ele>
        <time>2023-04-16T12:13:28.598Z</time>
      </trkpt>
      <trkpt lat="48.55359" lon="2.71393">
        <ele>84</ele>
        <time>2023-04-16T12:13:32.786Z</time>
      </trkpt>
      <trkpt lat="48.55366" lon="2.71395">
        <ele>84</ele>
        <time>2023-04-16T12:13:37.690Z</time>
      </trkpt>
      <trkpt lat="48.55371" lon="2.714">
        <ele>84</ele>
        <time>2023-04-16T12:13:41.759Z</time>
      </trkpt>
      <trkpt lat="48.55376" lon="2.71402">
        <ele>86</ele>
        <time>2023-04-16T12:13:45.948Z</time>
      </trkpt>
      <trkpt lat="48.55382" lon="2.71406">
        <ele>86</ele>
        <time>2023-04-16T12:13:50.615Z</time>
      </trkpt>
      <trkpt lat="48.55388" lon="2.71413">
        <ele>86</ele>
        <time>2023-04-16T12:13:55.167Z</time>
      </trkpt>
      <trkpt lat="48.55395" lon="2.71417">
        <ele>86</ele>
        <time>2023-04-16T12:13:59.958Z</time>
      </trkpt>
      <trkpt lat="48.55401" lon="2.71419">
        <ele>86</ele>
        <time>2023-04-16T12:14:04.748Z</time>
      </trkpt>
      <trkpt lat="48.55402" lon="2.71419">
        <ele>86</ele>
        <time>2023-04-16T12:14:10.136Z</time>
      </trkpt>
      <trkpt lat="48.55405" lon="2.71428">
        <ele>85</ele>
        <time>2023-04-16T12:14:14.327Z</time>
      </trkpt>
      <trkpt lat="48.55409" lon="2.71433">
        <ele>85</ele>
        <time>2023-04-16T12:14:19.011Z</time>
      </trkpt>
      <trkpt lat="48.55418" lon="2.71435">
        <ele>85</ele>
        <time>2023-04-16T12:14:23.488Z</time>
      </trkpt>
      <trkpt lat="48.55424" lon="2.71442">
        <ele>85</ele>
        <time>2023-04-16T12:14:27.418Z</time>
      </trkpt>
      <trkpt lat="48.5543" lon="2.7145">
        <ele>85</ele>
        <time>2023-04-16T12:14:31.566Z</time>
      </trkpt>
      <trkpt lat="48.55435" lon="2.71455">
        <ele>82</ele>
        <time>2023-04-16T12:14:35.756Z</time>
      </trkpt>
      <trkpt lat="48.5544" lon="2.71459">
        <ele>84</ele>
        <time>2023-04-16T12:14:40.301Z</time>
      </trkpt>
      <trkpt lat="48.55445" lon="2.71463">
        <ele>84</ele>
        <time>2023-04-16T12:14:44.968Z</time>
      </trkpt>
      <trkpt lat="48.5545" lon="2.71466">
        <ele>84</ele>
        <time>2023-04-16T12:14:49.156Z</time>
      </trkpt>
      <trkpt lat="48.55454" lon="2.7147">
        <ele>84</ele>
        <time>2023-04-16T12:14:53.196Z</time>
      </trkpt>
      <trkpt lat="48.55459" lon="2.71472">
        <ele>84</ele>
        <time>2023-04-16T12:14:57.750Z</time>
      </trkpt>
      <trkpt lat="48.55463" lon="2.71476">
        <ele>84</ele>
        <time>2023-04-16T12:15:01.715Z</time>
      </trkpt>
      <trkpt lat="48.55469" lon="2.71481">
        <ele>84</ele>
        <time>2023-04-16T12:15:05.780Z</time>
      </trkpt>
      <trkpt lat="48.55476" lon="2.71484">
        <ele>84</ele>
        <time>2023-04-16T12:15:10.853Z</time>
      </trkpt>
      <trkpt lat="48.55479" lon="2.71486">
        <ele>84</ele>
        <time>2023-04-16T12:15:14.985Z</time>
      </trkpt>
      <trkpt lat="48.55485" lon="2.71491">
        <ele>86</ele>
        <time>2023-04-16T12:15:19.169Z</time>
      </trkpt>
      <trkpt lat="48.5549" lon="2.71496">
        <ele>87</ele>
        <time>2023-04-16T12:15:23.594Z</time>
      </trkpt>
      <trkpt lat="48.55495" lon="2.71497">
        <ele>87</ele>
        <time>2023-04-16T12:15:28.978Z</time>
      </trkpt>
      <trkpt lat="48.55501" lon="2.71498">
        <ele>87</ele>
        <time>2023-04-16T12:15:33.764Z</time>
      </trkpt>
      <trkpt lat="48.55507" lon="2.71505">
        <ele>87</ele>
        <time>2023-04-16T12:15:38.478Z</time>
      </trkpt>
      <trkpt lat="48.55512" lon="2.71508">
        <ele>87</ele>
        <time>2023-04-16T12:15:42.886Z</time>
      </trkpt>
      <trkpt lat="48.55517" lon="2.7151">
        <ele>88</ele>
        <time>2023-04-16T12:15:47.996Z</time>
      </trkpt>
      <trkpt lat="48.55524" lon="2.71516">
        <ele>87</ele>
        <time>2023-04-16T12:15:52.779Z</time>
      </trkpt>
      <trkpt lat="48.5553" lon="2.71519">
        <ele>87</ele>
        <time>2023-04-16T12:15:56.946Z</time>
      </trkpt>
      <trkpt lat="48.55535" lon="2.71523">
        <ele>87</ele>
        <time>2023-04-16T12:16:01.370Z</time>
      </trkpt>
      <trkpt lat="48.5554" lon="2.71528">
        <ele>87</ele>
        <time>2023-04-16T12:16:05.793Z</time>
      </trkpt>
      <trkpt lat="48.55544" lon="2.71532">
        <ele>87</ele>
        <time>2023-04-16T12:16:10.566Z</time>
      </trkpt>
      <trkpt lat="48.55549" lon="2.71537">
        <ele>87</ele>
        <time>2023-04-16T12:16:14.758Z</time>
      </trkpt>
      <trkpt lat="48.55555" lon="2.71542">
        <ele>85</ele>
        <time>2023-04-16T12:16:18.941Z</time>
      </trkpt>
      <trkpt lat="48.5556" lon="2.71548">
        <ele>85</ele>
        <time>2023-04-16T12:16:24.189Z</time>
      </trkpt>
      <trkpt lat="48.55561" lon="2.71552">
        <ele>85</ele>
        <time>2023-04-16T12:16:28.394Z</time>
      </trkpt>
      <trkpt lat="48.55568" lon="2.71555">
        <ele>85</ele>
        <time>2023-04-16T12:16:32.819Z</time>
      </trkpt>
      <trkpt lat="48.55575" lon="2.71557">
        <ele>84</ele>
        <time>2023-04-16T12:16:37.316Z</time>
      </trkpt>
      <trkpt lat="48.55581" lon="2.71563">
        <ele>84</ele>
        <time>2023-04-16T12:16:42.194Z</time>
      </trkpt>
      <trkpt lat="48.55584" lon="2.71568">
        <ele>84</ele>
        <time>2023-04-16T12:16:45.718Z</time>
      </trkpt>
      <trkpt lat="48.55591" lon="2.71569">
        <ele>84</ele>
        <time>2023-04-16T12:17:07.724Z</time>
      </trkpt>
      <trkpt lat="48.55592" lon="2.71573">
        <ele>82</ele>
        <time>2023-04-16T12:17:12.761Z</time>
      </trkpt>
      <trkpt lat="48.55591" lon="2.71575">
        <ele>82</ele>
        <time>2023-04-16T12:17:17.773Z</time>
      </trkpt>
      <trkpt lat="48.55592" lon="2.71579">
        <ele>82</ele>
        <time>2023-04-16T12:17:21.778Z</time>
      </trkpt>
      <trkpt lat="48.55589" lon="2.71589">
        <ele>82</ele>
        <time>2023-04-16T12:17:25.922Z</time>
      </trkpt>
      <trkpt lat="48.55586" lon="2.71593">
        <ele>82</ele>
        <time>2023-04-16T12:17:31.139Z</time>
      </trkpt>
      <trkpt lat="48.55585" lon="2.71601">
        <ele>82</ele>
        <time>2023-04-16T12:17:35.934Z</time>
      </trkpt>
      <trkpt lat="48.55585" lon="2.71603">
        <ele>82</ele>
        <time>2023-04-16T12:17:40.727Z</time>
      </trkpt>
      <trkpt lat="48.55581" lon="2.7161">
        <ele>82</ele>
        <time>2023-04-16T12:17:45.983Z</time>
      </trkpt>
      <trkpt lat="48.55584" lon="2.71615">
        <ele>82</ele>
        <time>2023-04-16T12:18:38.183Z</time>
      </trkpt>
      <trkpt lat="48.5558" lon="2.71617">
        <ele>82</ele>
        <time>2023-04-16T12:18:43.200Z</time>
      </trkpt>
      <trkpt lat="48.55576" lon="2.71624">
        <ele>82</ele>
        <time>2023-04-16T12:18:48.183Z</time>
      </trkpt>
      <trkpt lat="48.55576" lon="2.7163">
        <ele>84</ele>
        <time>2023-04-16T12:18:52.331Z</time>
      </trkpt>
      <trkpt lat="48.55574" lon="2.7164">
        <ele>84</ele>
        <time>2023-04-16T12:18:56.526Z</time>
      </trkpt>
      <trkpt lat="48.55573" lon="2.71648">
        <ele>84</ele>
        <time>2023-04-16T12:19:01.132Z</time>
      </trkpt>
      <trkpt lat="48.55573" lon="2.71653">
        <ele>86</ele>
        <time>2023-04-16T12:19:05.813Z</time>
      </trkpt>
      <trkpt lat="48.55571" lon="2.71659">
        <ele>86</ele>
        <time>2023-04-16T12:19:09.885Z</time>
      </trkpt>
      <trkpt lat="48.55568" lon="2.71666">
        <ele>86</ele>
        <time>2023-04-16T12:19:13.956Z</time>
      </trkpt>
      <trkpt lat="48.55565" lon="2.71671">
        <ele>86</ele>
        <time>2023-04-16T12:19:18.690Z</time>
      </trkpt>
      <trkpt lat="48.55561" lon="2.71677">
        <ele>86</ele>
        <time>2023-04-16T12:19:22.747Z</time>
      </trkpt>
      <trkpt lat="48.55557" lon="2.71682">
        <ele>87</ele>
        <time>2023-04-16T12:19:26.700Z</time>
      </trkpt>
      <trkpt lat="48.55554" lon="2.71688">
        <ele>87</ele>
        <time>2023-04-16T12:19:31.695Z</time>
      </trkpt>
      <trkpt lat="48.55551" lon="2.71692">
        <ele>87</ele>
        <time>2023-04-16T12:19:36.163Z</time>
      </trkpt>
      <trkpt lat="48.55547" lon="2.71696">
        <ele>87</ele>
        <time>2023-04-16T12:19:41.174Z</time>
      </trkpt>
      <trkpt lat="48.55543" lon="2.71701">
        <ele>87</ele>
        <time>2023-04-16T12:19:46.173Z</time>
      </trkpt>
      <trkpt lat="48.5554" lon="2.71706">
        <ele>87</ele>
        <time>2023-04-16T12:19:50.333Z</time>
      </trkpt>
      <trkpt lat="48.55535" lon="2.71712">
        <ele>88</ele>
        <time>2023-04-16T12:19:54.531Z</time>
      </trkpt>
      <trkpt lat="48.55529" lon="2.71719">
        <ele>88</ele>
        <time>2023-04-16T12:19:59.190Z</time>
      </trkpt>
      <trkpt lat="48.55524" lon="2.71725">
        <ele>88</ele>
        <time>2023-04-16T12:20:03.709Z</time>
      </trkpt>
      <trkpt lat="48.55519" lon="2.71731">
        <ele>88</ele>
        <time>2023-04-16T12:20:08.186Z</time>
      </trkpt>
      <trkpt lat="48.55515" lon="2.71735">
        <ele>88</ele>
        <time>2023-04-16T12:20:12.769Z</time>
      </trkpt>
      <trkpt lat="48.5551" lon="2.71741">
        <ele>88</ele>
        <time>2023-04-16T12:20:17.197Z</time>
      </trkpt>
      <trkpt lat="48.55506" lon="2.71746">
        <ele>88</ele>
        <time>2023-04-16T12:20:21.746Z</time>
      </trkpt>
      <trkpt lat="48.55503" lon="2.71753">
        <ele>88</ele>
        <time>2023-04-16T12:20:26.173Z</time>
      </trkpt>
      <trkpt lat="48.55498" lon="2.7176">
        <ele>88</ele>
        <time>2023-04-16T12:20:31.205Z</time>
      </trkpt>
      <trkpt lat="48.55494" lon="2.71766">
        <ele>88</ele>
        <time>2023-04-16T12:20:35.349Z</time>
      </trkpt>
      <trkpt lat="48.55489" lon="2.71773">
        <ele>88</ele>
        <time>2023-04-16T12:20:39.796Z</time>
      </trkpt>
      <trkpt lat="48.55484" lon="2.71778">
        <ele>87</ele>
        <time>2023-04-16T12:20:44.583Z</time>
      </trkpt>
      <trkpt lat="48.5548" lon="2.71782">
        <ele>87</ele>
        <time>2023-04-16T12:20:49.131Z</time>
      </trkpt>
      <trkpt lat="48.55477" lon="2.71786">
        <ele>87</ele>
        <time>2023-04-16T12:20:53.810Z</time>
      </trkpt>
      <trkpt lat="48.55473" lon="2.71792">
        <ele>87</ele>
        <time>2023-04-16T12:20:57.747Z</time>
      </trkpt>
      <trkpt lat="48.55469" lon="2.71797">
        <ele>87</ele>
        <time>2023-04-16T12:21:01.814Z</time>
      </trkpt>
      <trkpt lat="48.55465" lon="2.71801">
        <ele>87</ele>
        <time>2023-04-16T12:21:06.614Z</time>
      </trkpt>
      <trkpt lat="48.55461" lon="2.71807">
        <ele>87</ele>
        <time>2023-04-16T12:21:11.143Z</time>
      </trkpt>
      <trkpt lat="48.55456" lon="2.71817">
        <ele>85</ele>
        <time>2023-04-16T12:21:15.807Z</time>
      </trkpt>
      <trkpt lat="48.55452" lon="2.71823">
        <ele>86</ele>
        <time>2023-04-16T12:21:20.590Z</time>
      </trkpt>
      <trkpt lat="48.55449" lon="2.71828">
        <ele>86</ele>
        <time>2023-04-16T12:21:24.769Z</time>
      </trkpt>
      <trkpt lat="48.55446" lon="2.71831">
        <ele>86</ele>
        <time>2023-04-16T12:21:28.723Z</time>
      </trkpt>
      <trkpt lat="48.55442" lon="2.71835">
        <ele>86</ele>
        <time>2023-04-16T12:21:33.985Z</time>
      </trkpt>
      <trkpt lat="48.55438" lon="2.71842">
        <ele>86</ele>
        <time>2023-04-16T12:21:38.572Z</time>
      </trkpt>
      <trkpt lat="48.55433" lon="2.71848">
        <ele>86</ele>
        <time>2023-04-16T12:21:43.079Z</time>
      </trkpt>
      <trkpt lat="48.55428" lon="2.71854">
        <ele>87</ele>
        <time>2023-04-16T12:21:47.986Z</time>
      </trkpt>
      <trkpt lat="48.55424" lon="2.71859">
        <ele>87</ele>
        <time>2023-04-16T12:21:52.775Z</time>
      </trkpt>
      <trkpt lat="48.5542" lon="2.71866">
        <ele>87</ele>
        <time>2023-04-16T12:21:57.175Z</time>
      </trkpt>
      <trkpt lat="48.55416" lon="2.71872">
        <ele>87</ele>
        <time>2023-04-16T12:22:01.151Z</time>
      </trkpt>
      <trkpt lat="48.55412" lon="2.71876">
        <ele>88</ele>
        <time>2023-04-16T12:22:05.190Z</time>
      </trkpt>
      <trkpt lat="48.55407" lon="2.71881">
        <ele>88</ele>
        <time>2023-04-16T12:22:09.764Z</time>
      </trkpt>
      <trkpt lat="48.55403" lon="2.71887">
        <ele>88</ele>
        <time>2023-04-16T12:22:14.307Z</time>
      </trkpt>
      <trkpt lat="48.55398" lon="2.71893">
        <ele>90</ele>
        <time>2023-04-16T12:22:18.852Z</time>
      </trkpt>
      <trkpt lat="48.55393" lon="2.71898">
        <ele>90</ele>
        <time>2023-04-16T12:22:23.369Z</time>
      </trkpt>
      <trkpt lat="48.55389" lon="2.71903">
        <ele>90</ele>
        <time>2023-04-16T12:22:27.340Z</time>
      </trkpt>
      <trkpt lat="48.55385" lon="2.71909">
        <ele>90</ele>
        <time>2023-04-16T12:22:31.763Z</time>
      </trkpt>
      <trkpt lat="48.55382" lon="2.71915">
        <ele>90</ele>
        <time>2023-04-16T12:22:35.707Z</time>
      </trkpt>
      <trkpt lat="48.55379" lon="2.71921">
        <ele>90</ele>
        <time>2023-04-16T12:22:39.770Z</time>
      </trkpt>
      <trkpt lat="48.55375" lon="2.71926">
        <ele>90</ele>
        <time>2023-04-16T12:22:44.312Z</time>
      </trkpt>
      <trkpt lat="48.5537" lon="2.71931">
        <ele>90</ele>
        <time>2023-04-16T12:22:48.376Z</time>
      </trkpt>
      <trkpt lat="48.55363" lon="2.71937">
        <ele>90</ele>
        <time>2023-04-16T12:22:52.919Z</time>
      </trkpt>
      <trkpt lat="48.55358" lon="2.71944">
        <ele>90</ele>
        <time>2023-04-16T12:22:57.937Z</time>
      </trkpt>
      <trkpt lat="48.55354" lon="2.71949">
        <ele>90</ele>
        <time>2023-04-16T12:23:02Z</time>
      </trkpt>
      <trkpt lat="48.5535" lon="2.71954">
        <ele>90</ele>
        <time>2023-04-16T12:23:06.542Z</time>
      </trkpt>
      <trkpt lat="48.55346" lon="2.7196">
        <ele>88</ele>
        <time>2023-04-16T12:23:10.964Z</time>
      </trkpt>
      <trkpt lat="48.55342" lon="2.71966">
        <ele>88</ele>
        <time>2023-04-16T12:23:15.626Z</time>
      </trkpt>
      <trkpt lat="48.55338" lon="2.71971">
        <ele>88</ele>
        <time>2023-04-16T12:23:19.808Z</time>
      </trkpt>
      <trkpt lat="48.55334" lon="2.71976">
        <ele>88</ele>
        <time>2023-04-16T12:23:24.348Z</time>
      </trkpt>
      <trkpt lat="48.55326" lon="2.71985">
        <ele>88</ele>
        <time>2023-04-16T12:23:37.738Z</time>
      </trkpt>
      <trkpt lat="48.55323" lon="2.71992">
        <ele>88</ele>
        <time>2023-04-16T12:23:42.360Z</time>
      </trkpt>
      <trkpt lat="48.55318" lon="2.71997">
        <ele>88</ele>
        <time>2023-04-16T12:23:46.328Z</time>
      </trkpt>
      <trkpt lat="48.55314" lon="2.72">
        <ele>88</ele>
        <time>2023-04-16T12:23:50.993Z</time>
      </trkpt>
      <trkpt lat="48.55309" lon="2.72006">
        <ele>88</ele>
        <time>2023-04-16T12:23:56.136Z</time>
      </trkpt>
      <trkpt lat="48.55304" lon="2.72012">
        <ele>88</ele>
        <time>2023-04-16T12:24:00.322Z</time>
      </trkpt>
      <trkpt lat="48.55299" lon="2.72018">
        <ele>88</ele>
        <time>2023-04-16T12:24:04.984Z</time>
      </trkpt>
      <trkpt lat="48.55294" lon="2.72026">
        <ele>88</ele>
        <time>2023-04-16T12:24:09.766Z</time>
      </trkpt>
      <trkpt lat="48.5529" lon="2.72032">
        <ele>87</ele>
        <time>2023-04-16T12:24:15.146Z</time>
      </trkpt>
      <trkpt lat="48.55285" lon="2.72037">
        <ele>87</ele>
        <time>2023-04-16T12:24:19.335Z</time>
      </trkpt>
      <trkpt lat="48.55281" lon="2.72046">
        <ele>87</ele>
        <time>2023-04-16T12:24:24.005Z</time>
      </trkpt>
      <trkpt lat="48.55278" lon="2.72052">
        <ele>87</ele>
        <time>2023-04-16T12:24:28.493Z</time>
      </trkpt>
      <trkpt lat="48.55274" lon="2.72058">
        <ele>87</ele>
        <time>2023-04-16T12:24:32.378Z</time>
      </trkpt>
      <trkpt lat="48.5527" lon="2.72065">
        <ele>87</ele>
        <time>2023-04-16T12:24:37.164Z</time>
      </trkpt>
      <trkpt lat="48.55265" lon="2.72069">
        <ele>87</ele>
        <time>2023-04-16T12:24:40.993Z</time>
      </trkpt>
      <trkpt lat="48.5526" lon="2.72074">
        <ele>87</ele>
        <time>2023-04-16T12:24:45.395Z</time>
      </trkpt>
      <trkpt lat="48.55256" lon="2.72078">
        <ele>87</ele>
        <time>2023-04-16T12:24:49.828Z</time>
      </trkpt>
      <trkpt lat="48.55252" lon="2.72082">
        <ele>87</ele>
        <time>2023-04-16T12:24:53.895Z</time>
      </trkpt>
      <trkpt lat="48.55247" lon="2.72087">
        <ele>87</ele>
        <time>2023-04-16T12:24:58.560Z</time>
      </trkpt>
      <trkpt lat="48.55243" lon="2.72091">
        <ele>87</ele>
        <time>2023-04-16T12:25:02.627Z</time>
      </trkpt>
      <trkpt lat="48.55239" lon="2.72098">
        <ele>86</ele>
        <time>2023-04-16T12:25:06.812Z</time>
      </trkpt>
      <trkpt lat="48.55234" lon="2.72104">
        <ele>86</ele>
        <time>2023-04-16T12:25:11.960Z</time>
      </trkpt>
      <trkpt lat="48.5523" lon="2.72111">
        <ele>86</ele>
        <time>2023-04-16T12:25:15.788Z</time>
      </trkpt>
      <trkpt lat="48.55225" lon="2.72117">
        <ele>86</ele>
        <time>2023-04-16T12:25:19.976Z</time>
      </trkpt>
      <trkpt lat="48.5522" lon="2.72122">
        <ele>86</ele>
        <time>2023-04-16T12:25:24.763Z</time>
      </trkpt>
      <trkpt lat="48.55219" lon="2.72131">
        <ele>85</ele>
        <time>2023-04-16T12:25:29.833Z</time>
      </trkpt>
      <trkpt lat="48.55219" lon="2.72138">
        <ele>85</ele>
        <time>2023-04-16T12:25:33.977Z</time>
      </trkpt>
      <trkpt lat="48.5522" lon="2.72148">
        <ele>85</ele>
        <time>2023-04-16T12:25:38.165Z</time>
      </trkpt>
      <trkpt lat="48.5522" lon="2.72156">
        <ele>84</ele>
        <time>2023-04-16T12:25:41.754Z</time>
      </trkpt>
      <trkpt lat="48.55221" lon="2.72164">
        <ele>84</ele>
        <time>2023-04-16T12:25:46.301Z</time>
      </trkpt>
      <trkpt lat="48.55221" lon="2.72171">
        <ele>84</ele>
        <time>2023-04-16T12:25:50.890Z</time>
      </trkpt>
      <trkpt lat="48.55222" lon="2.72178">
        <ele>84</ele>
        <time>2023-04-16T12:25:54.915Z</time>
      </trkpt>
      <trkpt lat="48.55222" lon="2.72185">
        <ele>84</ele>
        <time>2023-04-16T12:25:58.982Z</time>
      </trkpt>
      <trkpt lat="48.55223" lon="2.72193">
        <ele>84</ele>
        <time>2023-04-16T12:26:03.050Z</time>
      </trkpt>
      <trkpt lat="48.55223" lon="2.72203">
        <ele>84</ele>
        <time>2023-04-16T12:26:07.714Z</time>
      </trkpt>
      <trkpt lat="48.55225" lon="2.72211">
        <ele>85</ele>
        <time>2023-04-16T12:26:11.780Z</time>
      </trkpt>
      <trkpt lat="48.55226" lon="2.72219">
        <ele>85</ele>
        <time>2023-04-16T12:26:15.965Z</time>
      </trkpt>
      <trkpt lat="48.55226" lon="2.72228">
        <ele>85</ele>
        <time>2023-04-16T12:26:20.150Z</time>
      </trkpt>
      <trkpt lat="48.55227" lon="2.72234">
        <ele>85</ele>
        <time>2023-04-16T12:26:24.335Z</time>
      </trkpt>
      <trkpt lat="48.55228" lon="2.72244">
        <ele>85</ele>
        <time>2023-04-16T12:26:28.401Z</time>
      </trkpt>
      <trkpt lat="48.55229" lon="2.72252">
        <ele>85</ele>
        <time>2023-04-16T12:26:32.566Z</time>
      </trkpt>
      <trkpt lat="48.5523" lon="2.72261">
        <ele>85</ele>
        <time>2023-04-16T12:26:36.752Z</time>
      </trkpt>
      <trkpt lat="48.55231" lon="2.7227">
        <ele>85</ele>
        <time>2023-04-16T12:26:41.057Z</time>
      </trkpt>
      <trkpt lat="48.55232" lon="2.72278">
        <ele>85</ele>
        <time>2023-04-16T12:26:45.951Z</time>
      </trkpt>
      <trkpt lat="48.55233" lon="2.72282">
        <ele>85</ele>
        <time>2023-04-16T12:26:49.784Z</time>
      </trkpt>
      <trkpt lat="48.55234" lon="2.72281">
        <ele>85</ele>
        <time>2023-04-16T12:26:59.347Z</time>
      </trkpt>
      <trkpt lat="48.55234" lon="2.7228">
        <ele>85</ele>
        <time>2023-04-16T12:27:04.129Z</time>
      </trkpt>
      <trkpt lat="48.55235" lon="2.7229">
        <ele>85</ele>
        <time>2023-04-16T12:27:09.212Z</time>
      </trkpt>
      <trkpt lat="48.55235" lon="2.72293">
        <ele>85</ele>
        <time>2023-04-16T12:27:14.155Z</time>
      </trkpt>
      <trkpt lat="48.55236" lon="2.72301">
        <ele>86</ele>
        <time>2023-04-16T12:27:18.102Z</time>
      </trkpt>
      <trkpt lat="48.55235" lon="2.7231">
        <ele>85</ele>
        <time>2023-04-16T12:27:22.509Z</time>
      </trkpt>
      <trkpt lat="48.55236" lon="2.72319">
        <ele>85</ele>
        <time>2023-04-16T12:27:27.172Z</time>
      </trkpt>
      <trkpt lat="48.55237" lon="2.72328">
        <ele>87</ele>
        <time>2023-04-16T12:27:31.238Z</time>
      </trkpt>
      <trkpt lat="48.55238" lon="2.72337">
        <ele>87</ele>
        <time>2023-04-16T12:27:35.894Z</time>
      </trkpt>
      <trkpt lat="48.5524" lon="2.72347">
        <ele>87</ele>
        <time>2023-04-16T12:27:40.325Z</time>
      </trkpt>
      <trkpt lat="48.5524" lon="2.72355">
        <ele>88</ele>
        <time>2023-04-16T12:27:44.391Z</time>
      </trkpt>
      <trkpt lat="48.55241" lon="2.72363">
        <ele>88</ele>
        <time>2023-04-16T12:27:48.934Z</time>
      </trkpt>
      <trkpt lat="48.55241" lon="2.7237">
        <ele>88</ele>
        <time>2023-04-16T12:27:52.998Z</time>
      </trkpt>
      <trkpt lat="48.55241" lon="2.72379">
        <ele>88</ele>
        <time>2023-04-16T12:27:57.782Z</time>
      </trkpt>
      <trkpt lat="48.55242" lon="2.72388">
        <ele>88</ele>
        <time>2023-04-16T12:28:02.566Z</time>
      </trkpt>
      <trkpt lat="48.55243" lon="2.72394">
        <ele>88</ele>
        <time>2023-04-16T12:28:06.752Z</time>
      </trkpt>
      <trkpt lat="48.55244" lon="2.72402">
        <ele>88</ele>
        <time>2023-04-16T12:28:11.537Z</time>
      </trkpt>
      <trkpt lat="48.55245" lon="2.72412">
        <ele>88</ele>
        <time>2023-04-16T12:28:16.069Z</time>
      </trkpt>
      <trkpt lat="48.55247" lon="2.7242">
        <ele>88</ele>
        <time>2023-04-16T12:28:19.556Z</time>
      </trkpt>
      <trkpt lat="48.55249" lon="2.72428">
        <ele>88</ele>
        <time>2023-04-16T12:28:23.746Z</time>
      </trkpt>
      <trkpt lat="48.55253" lon="2.72451">
        <ele>87</ele>
        <time>2023-04-16T12:28:32.929Z</time>
      </trkpt>
      <trkpt lat="48.55255" lon="2.72457">
        <ele>87</ele>
        <time>2023-04-16T12:28:37.443Z</time>
      </trkpt>
      <trkpt lat="48.55255" lon="2.72466">
        <ele>88</ele>
        <time>2023-04-16T12:28:42.020Z</time>
      </trkpt>
      <trkpt lat="48.55255" lon="2.72478">
        <ele>88</ele>
        <time>2023-04-16T12:28:46.553Z</time>
      </trkpt>
      <trkpt lat="48.55255" lon="2.72487">
        <ele>88</ele>
        <time>2023-04-16T12:28:50.627Z</time>
      </trkpt>
      <trkpt lat="48.55256" lon="2.72498">
        <ele>88</ele>
        <time>2023-04-16T12:28:55.179Z</time>
      </trkpt>
      <trkpt lat="48.55257" lon="2.72506">
        <ele>88</ele>
        <time>2023-04-16T12:28:59.251Z</time>
      </trkpt>
      <trkpt lat="48.55257" lon="2.72513">
        <ele>88</ele>
        <time>2023-04-16T12:29:03.685Z</time>
      </trkpt>
      <trkpt lat="48.55257" lon="2.72519">
        <ele>88</ele>
        <time>2023-04-16T12:29:07.759Z</time>
      </trkpt>
      <trkpt lat="48.55258" lon="2.72528">
        <ele>88</ele>
        <time>2023-04-16T12:29:12.728Z</time>
      </trkpt>
      <trkpt lat="48.55259" lon="2.72535">
        <ele>88</ele>
        <time>2023-04-16T12:29:16.918Z</time>
      </trkpt>
      <trkpt lat="48.55258" lon="2.72543">
        <ele>87</ele>
        <time>2023-04-16T12:29:22.151Z</time>
      </trkpt>
      <trkpt lat="48.55261" lon="2.72553">
        <ele>87</ele>
        <time>2023-04-16T12:29:26.912Z</time>
      </trkpt>
      <trkpt lat="48.55263" lon="2.72562">
        <ele>87</ele>
        <time>2023-04-16T12:29:30.631Z</time>
      </trkpt>
      <trkpt lat="48.55265" lon="2.7257">
        <ele>87</ele>
        <time>2023-04-16T12:29:35.178Z</time>
      </trkpt>
      <trkpt lat="48.55266" lon="2.72574">
        <ele>87</ele>
        <time>2023-04-16T12:29:36.972Z</time>
      </trkpt>
      <trkpt lat="48.5527" lon="2.72593">
        <ele>87</ele>
        <time>2023-04-16T12:29:45.845Z</time>
      </trkpt>
      <trkpt lat="48.5527" lon="2.72604">
        <ele>86</ele>
        <time>2023-04-16T12:29:50.900Z</time>
      </trkpt>
      <trkpt lat="48.55271" lon="2.72615">
        <ele>86</ele>
        <time>2023-04-16T12:29:56.173Z</time>
      </trkpt>
      <trkpt lat="48.55271" lon="2.72623">
        <ele>86</ele>
        <time>2023-04-16T12:29:59.762Z</time>
      </trkpt>
      <trkpt lat="48.55267" lon="2.72634">
        <ele>84</ele>
        <time>2023-04-16T12:30:04.854Z</time>
      </trkpt>
      <trkpt lat="48.55266" lon="2.72638">
        <ele>84</ele>
        <time>2023-04-16T12:30:08.722Z</time>
      </trkpt>
      <trkpt lat="48.55265" lon="2.72645">
        <ele>84</ele>
        <time>2023-04-16T12:30:13.391Z</time>
      </trkpt>
      <trkpt lat="48.55265" lon="2.72653">
        <ele>84</ele>
        <time>2023-04-16T12:30:17.341Z</time>
      </trkpt>
      <trkpt lat="48.55265" lon="2.72662">
        <ele>83</ele>
        <time>2023-04-16T12:30:21.529Z</time>
      </trkpt>
      <trkpt lat="48.55264" lon="2.72673">
        <ele>83</ele>
        <time>2023-04-16T12:30:26.194Z</time>
      </trkpt>
      <trkpt lat="48.55264" lon="2.72684">
        <ele>85</ele>
        <time>2023-04-16T12:30:30.198Z</time>
      </trkpt>
      <trkpt lat="48.55263" lon="2.72695">
        <ele>85</ele>
        <time>2023-04-16T12:30:34.757Z</time>
      </trkpt>
      <trkpt lat="48.55264" lon="2.72703">
        <ele>83</ele>
        <time>2023-04-16T12:30:38.749Z</time>
      </trkpt>
      <trkpt lat="48.55263" lon="2.72711">
        <ele>85</ele>
        <time>2023-04-16T12:30:42.935Z</time>
      </trkpt>
      <trkpt lat="48.55263" lon="2.72719">
        <ele>85</ele>
        <time>2023-04-16T12:30:47.718Z</time>
      </trkpt>
      <trkpt lat="48.55265" lon="2.72728">
        <ele>85</ele>
        <time>2023-04-16T12:30:52.979Z</time>
      </trkpt>
      <trkpt lat="48.55268" lon="2.72737">
        <ele>86</ele>
        <time>2023-04-16T12:30:57.762Z</time>
      </trkpt>
      <trkpt lat="48.55268" lon="2.72743">
        <ele>86</ele>
        <time>2023-04-16T12:31:01.949Z</time>
      </trkpt>
      <trkpt lat="48.55268" lon="2.72752">
        <ele>86</ele>
        <time>2023-04-16T12:31:06.748Z</time>
      </trkpt>
      <trkpt lat="48.55268" lon="2.7276">
        <ele>86</ele>
        <time>2023-04-16T12:31:10.925Z</time>
      </trkpt>
      <trkpt lat="48.55268" lon="2.72771">
        <ele>85</ele>
        <time>2023-04-16T12:31:14.995Z</time>
      </trkpt>
      <trkpt lat="48.55268" lon="2.72781">
        <ele>85</ele>
        <time>2023-04-16T12:31:19.184Z</time>
      </trkpt>
      <trkpt lat="48.55268" lon="2.72788">
        <ele>85</ele>
        <time>2023-04-16T12:31:23.353Z</time>
      </trkpt>
      <trkpt lat="48.55269" lon="2.72796">
        <ele>82</ele>
        <time>2023-04-16T12:31:27.897Z</time>
      </trkpt>
      <trkpt lat="48.55268" lon="2.72806">
        <ele>82</ele>
        <time>2023-04-16T12:31:32.559Z</time>
      </trkpt>
      <trkpt lat="48.5527" lon="2.72817">
        <ele>82</ele>
        <time>2023-04-16T12:31:37.233Z</time>
      </trkpt>
      <trkpt lat="48.55271" lon="2.72831">
        <ele>81</ele>
        <time>2023-04-16T12:31:41.604Z</time>
      </trkpt>
      <trkpt lat="48.55274" lon="2.72839">
        <ele>81</ele>
        <time>2023-04-16T12:31:45.948Z</time>
      </trkpt>
      <trkpt lat="48.55283" lon="2.7284">
        <ele>81</ele>
        <time>2023-04-16T12:31:51.087Z</time>
      </trkpt>
      <trkpt lat="48.55291" lon="2.72836">
        <ele>81</ele>
        <time>2023-04-16T12:31:55.752Z</time>
      </trkpt>
      <trkpt lat="48.55298" lon="2.72833">
        <ele>81</ele>
        <time>2023-04-16T12:31:59.894Z</time>
      </trkpt>
      <trkpt lat="48.55304" lon="2.72831">
        <ele>81</ele>
        <time>2023-04-16T12:32:03.756Z</time>
      </trkpt>
      <trkpt lat="48.55312" lon="2.72826">
        <ele>81</ele>
        <time>2023-04-16T12:32:08.781Z</time>
      </trkpt>
      <trkpt lat="48.55317" lon="2.72822">
        <ele>81</ele>
        <time>2023-04-16T12:32:12.974Z</time>
      </trkpt>
      <trkpt lat="48.55322" lon="2.72815">
        <ele>83</ele>
        <time>2023-04-16T12:32:18.131Z</time>
      </trkpt>
      <trkpt lat="48.55325" lon="2.7281">
        <ele>83</ele>
        <time>2023-04-16T12:32:22.187Z</time>
      </trkpt>
      <trkpt lat="48.55332" lon="2.72807">
        <ele>83</ele>
        <time>2023-04-16T12:32:26.972Z</time>
      </trkpt>
      <trkpt lat="48.55338" lon="2.72805">
        <ele>83</ele>
        <time>2023-04-16T12:32:31.396Z</time>
      </trkpt>
      <trkpt lat="48.55343" lon="2.72809">
        <ele>83</ele>
        <time>2023-04-16T12:32:35.418Z</time>
      </trkpt>
      <trkpt lat="48.55345" lon="2.72818">
        <ele>83</ele>
        <time>2023-04-16T12:32:39.994Z</time>
      </trkpt>
      <trkpt lat="48.55343" lon="2.72826">
        <ele>82</ele>
        <time>2023-04-16T12:32:43.944Z</time>
      </trkpt>
      <trkpt lat="48.55341" lon="2.72836">
        <ele>82</ele>
        <time>2023-04-16T12:32:49.077Z</time>
      </trkpt>
      <trkpt lat="48.5534" lon="2.72846">
        <ele>82</ele>
        <time>2023-04-16T12:32:53.609Z</time>
      </trkpt>
      <trkpt lat="48.5534" lon="2.72853">
        <ele>82</ele>
        <time>2023-04-16T12:32:57.550Z</time>
      </trkpt>
      <trkpt lat="48.55341" lon="2.72863">
        <ele>82</ele>
        <time>2023-04-16T12:33:02.254Z</time>
      </trkpt>
      <trkpt lat="48.55342" lon="2.72873">
        <ele>82</ele>
        <time>2023-04-16T12:33:07.210Z</time>
      </trkpt>
      <trkpt lat="48.55342" lon="2.72882">
        <ele>82</ele>
        <time>2023-04-16T12:33:11.391Z</time>
      </trkpt>
      <trkpt lat="48.55343" lon="2.7289">
        <ele>82</ele>
        <time>2023-04-16T12:33:15.931Z</time>
      </trkpt>
      <trkpt lat="48.55345" lon="2.72899">
        <ele>82</ele>
        <time>2023-04-16T12:33:19.997Z</time>
      </trkpt>
      <trkpt lat="48.55347" lon="2.72907">
        <ele>83</ele>
        <time>2023-04-16T12:33:23.945Z</time>
      </trkpt>
      <trkpt lat="48.55348" lon="2.72913">
        <ele>84</ele>
        <time>2023-04-16T12:33:27.771Z</time>
      </trkpt>
      <trkpt lat="48.5535" lon="2.72919">
        <ele>84</ele>
        <time>2023-04-16T12:33:32.554Z</time>
      </trkpt>
      <trkpt lat="48.55352" lon="2.72925">
        <ele>84</ele>
        <time>2023-04-16T12:33:36.738Z</time>
      </trkpt>
      <trkpt lat="48.55354" lon="2.72936">
        <ele>84</ele>
        <time>2023-04-16T12:33:42.114Z</time>
      </trkpt>
      <trkpt lat="48.55356" lon="2.72947">
        <ele>84</ele>
        <time>2023-04-16T12:33:46.653Z</time>
      </trkpt>
      <trkpt lat="48.55358" lon="2.72954">
        <ele>84</ele>
        <time>2023-04-16T12:33:51.140Z</time>
      </trkpt>
      <trkpt lat="48.5536" lon="2.72962">
        <ele>84</ele>
        <time>2023-04-16T12:33:55.418Z</time>
      </trkpt>
      <trkpt lat="48.55362" lon="2.72971">
        <ele>84</ele>
        <time>2023-04-16T12:33:59.967Z</time>
      </trkpt>
      <trkpt lat="48.55363" lon="2.7298">
        <ele>84</ele>
        <time>2023-04-16T12:34:03.955Z</time>
      </trkpt>
      <trkpt lat="48.55364" lon="2.72988">
        <ele>86</ele>
        <time>2023-04-16T12:34:08.622Z</time>
      </trkpt>
      <trkpt lat="48.55366" lon="2.72993">
        <ele>86</ele>
        <time>2023-04-16T12:34:12.567Z</time>
      </trkpt>
      <trkpt lat="48.55367" lon="2.73003">
        <ele>86</ele>
        <time>2023-04-16T12:34:17.945Z</time>
      </trkpt>
      <trkpt lat="48.55368" lon="2.7301">
        <ele>86</ele>
        <time>2023-04-16T12:34:22.128Z</time>
      </trkpt>
      <trkpt lat="48.5537" lon="2.73016">
        <ele>87</ele>
        <time>2023-04-16T12:34:26.309Z</time>
      </trkpt>
      <trkpt lat="48.55372" lon="2.73026">
        <ele>87</ele>
        <time>2023-04-16T12:34:30.847Z</time>
      </trkpt>
      <trkpt lat="48.55373" lon="2.73035">
        <ele>87</ele>
        <time>2023-04-16T12:34:35.965Z</time>
      </trkpt>
      <trkpt lat="48.55373" lon="2.73042">
        <ele>88</ele>
        <time>2023-04-16T12:34:40.746Z</time>
      </trkpt>
      <trkpt lat="48.55371" lon="2.73046">
        <ele>88</ele>
        <time>2023-04-16T12:34:44.809Z</time>
      </trkpt>
      <trkpt lat="48.55375" lon="2.73056">
        <ele>88</ele>
        <time>2023-04-16T12:34:49.548Z</time>
      </trkpt>
      <trkpt lat="48.55378" lon="2.73066">
        <ele>89</ele>
        <time>2023-04-16T12:34:54.209Z</time>
      </trkpt>
      <trkpt lat="48.55381" lon="2.73077">
        <ele>91</ele>
        <time>2023-04-16T12:34:58.989Z</time>
      </trkpt>
      <trkpt lat="48.55385" lon="2.73085">
        <ele>91</ele>
        <time>2023-04-16T12:35:02.930Z</time>
      </trkpt>
      <trkpt lat="48.55389" lon="2.73092">
        <ele>91</ele>
        <time>2023-04-16T12:35:07.233Z</time>
      </trkpt>
      <trkpt lat="48.55393" lon="2.73099">
        <ele>93</ele>
        <time>2023-04-16T12:35:11.416Z</time>
      </trkpt>
      <trkpt lat="48.55397" lon="2.73105">
        <ele>93</ele>
        <time>2023-04-16T12:35:15.957Z</time>
      </trkpt>
      <trkpt lat="48.55402" lon="2.73109">
        <ele>93</ele>
        <time>2023-04-16T12:35:20.738Z</time>
      </trkpt>
      <trkpt lat="48.55407" lon="2.73113">
        <ele>91</ele>
        <time>2023-04-16T12:35:24.780Z</time>
      </trkpt>
      <trkpt lat="48.55409" lon="2.73118">
        <ele>91</ele>
        <time>2023-04-16T12:35:29.188Z</time>
      </trkpt>
      <trkpt lat="48.55411" lon="2.73124">
        <ele>91</ele>
        <time>2023-04-16T12:35:33.765Z</time>
      </trkpt>
      <trkpt lat="48.55414" lon="2.7313">
        <ele>92</ele>
        <time>2023-04-16T12:35:38.236Z</time>
      </trkpt>
      <trkpt lat="48.55417" lon="2.73134">
        <ele>92</ele>
        <time>2023-04-16T12:35:43.155Z</time>
      </trkpt>
      <trkpt lat="48.55416" lon="2.73143">
        <ele>92</ele>
        <time>2023-04-16T12:35:47.138Z</time>
      </trkpt>
      <trkpt lat="48.55416" lon="2.73151">
        <ele>92</ele>
        <time>2023-04-16T12:35:52.193Z</time>
      </trkpt>
      <trkpt lat="48.55417" lon="2.7316">
        <ele>92</ele>
        <time>2023-04-16T12:35:56.698Z</time>
      </trkpt>
      <trkpt lat="48.55418" lon="2.73168">
        <ele>92</ele>
        <time>2023-04-16T12:36:01.359Z</time>
      </trkpt>
      <trkpt lat="48.55418" lon="2.73176">
        <ele>92</ele>
        <time>2023-04-16T12:36:05.543Z</time>
      </trkpt>
      <trkpt lat="48.55418" lon="2.73184">
        <ele>92</ele>
        <time>2023-04-16T12:36:10.193Z</time>
      </trkpt>
      <trkpt lat="48.55418" lon="2.73192">
        <ele>92</ele>
        <time>2023-04-16T12:36:14.390Z</time>
      </trkpt>
      <trkpt lat="48.55419" lon="2.732">
        <ele>92</ele>
        <time>2023-04-16T12:36:18.574Z</time>
      </trkpt>
      <trkpt lat="48.55419" lon="2.73204">
        <ele>92</ele>
        <time>2023-04-16T12:36:21.468Z</time>
      </trkpt>
      <trkpt lat="48.55415" lon="2.73227">
        <ele>91</ele>
        <time>2023-04-16T12:36:30.685Z</time>
      </trkpt>
      <trkpt lat="48.55414" lon="2.73237">
        <ele>90</ele>
        <time>2023-04-16T12:36:35.169Z</time>
      </trkpt>
      <trkpt lat="48.55412" lon="2.73241">
        <ele>90</ele>
        <time>2023-04-16T12:36:39.724Z</time>
      </trkpt>
      <trkpt lat="48.55421" lon="2.73251">
        <ele>90</ele>
        <time>2023-04-16T12:36:44.418Z</time>
      </trkpt>
      <trkpt lat="48.55425" lon="2.73261">
        <ele>90</ele>
        <time>2023-04-16T12:36:48.782Z</time>
      </trkpt>
      <trkpt lat="48.55424" lon="2.73272">
        <ele>89</ele>
        <time>2023-04-16T12:36:53.940Z</time>
      </trkpt>
      <trkpt lat="48.55426" lon="2.7328">
        <ele>89</ele>
        <time>2023-04-16T12:36:57.844Z</time>
      </trkpt>
      <trkpt lat="48.5543" lon="2.73288">
        <ele>89</ele>
        <time>2023-04-16T12:37:01.781Z</time>
      </trkpt>
      <trkpt lat="48.55433" lon="2.73297">
        <ele>90</ele>
        <time>2023-04-16T12:37:06.418Z</time>
      </trkpt>
      <trkpt lat="48.55433" lon="2.73298">
        <ele>90</ele>
        <time>2023-04-16T12:37:06.931Z</time>
      </trkpt>
      <trkpt lat="48.55438" lon="2.73312">
        <ele>90</ele>
        <time>2023-04-16T12:37:15.906Z</time>
      </trkpt>
      <trkpt lat="48.55439" lon="2.73323">
        <ele>90</ele>
        <time>2023-04-16T12:37:20.531Z</time>
      </trkpt>
      <trkpt lat="48.55439" lon="2.73329">
        <ele>90</ele>
        <time>2023-04-16T12:37:24.351Z</time>
      </trkpt>
      <trkpt lat="48.55439" lon="2.73336">
        <ele>90</ele>
        <time>2023-04-16T12:37:29.048Z</time>
      </trkpt>
      <trkpt lat="48.5544" lon="2.73346">
        <ele>90</ele>
        <time>2023-04-16T12:37:34.026Z</time>
      </trkpt>
      <trkpt lat="48.55442" lon="2.73355">
        <ele>89</ele>
        <time>2023-04-16T12:37:38.518Z</time>
      </trkpt>
      <trkpt lat="48.55444" lon="2.73361">
        <ele>89</ele>
        <time>2023-04-16T12:37:42.586Z</time>
      </trkpt>
      <trkpt lat="48.55446" lon="2.73371">
        <ele>89</ele>
        <time>2023-04-16T12:37:47.201Z</time>
      </trkpt>
      <trkpt lat="48.55447" lon="2.73381">
        <ele>86</ele>
        <time>2023-04-16T12:37:51.776Z</time>
      </trkpt>
      <trkpt lat="48.5545" lon="2.73392">
        <ele>86</ele>
        <time>2023-04-16T12:37:56.919Z</time>
      </trkpt>
      <trkpt lat="48.55451" lon="2.73403">
        <ele>83</ele>
        <time>2023-04-16T12:38:00.746Z</time>
      </trkpt>
      <trkpt lat="48.55453" lon="2.73415">
        <ele>83</ele>
        <time>2023-04-16T12:38:05.648Z</time>
      </trkpt>
      <trkpt lat="48.55455" lon="2.73425">
        <ele>83</ele>
        <time>2023-04-16T12:38:09.713Z</time>
      </trkpt>
      <trkpt lat="48.55457" lon="2.73433">
        <ele>81</ele>
        <time>2023-04-16T12:38:13.778Z</time>
      </trkpt>
      <trkpt lat="48.55458" lon="2.73439">
        <ele>81</ele>
        <time>2023-04-16T12:38:17.962Z</time>
      </trkpt>
      <trkpt lat="48.55461" lon="2.73448">
        <ele>83</ele>
        <time>2023-04-16T12:38:22.982Z</time>
      </trkpt>
      <trkpt lat="48.55463" lon="2.73456">
        <ele>83</ele>
        <time>2023-04-16T12:38:27.973Z</time>
      </trkpt>
      <trkpt lat="48.55468" lon="2.73465">
        <ele>82</ele>
        <time>2023-04-16T12:38:32.044Z</time>
      </trkpt>
      <trkpt lat="48.55471" lon="2.73473">
        <ele>82</ele>
        <time>2023-04-16T12:38:36.335Z</time>
      </trkpt>
      <trkpt lat="48.55474" lon="2.7348">
        <ele>82</ele>
        <time>2023-04-16T12:38:40.404Z</time>
      </trkpt>
      <trkpt lat="48.55477" lon="2.73486">
        <ele>82</ele>
        <time>2023-04-16T12:38:44.590Z</time>
      </trkpt>
      <trkpt lat="48.5548" lon="2.73494">
        <ele>81</ele>
        <time>2023-04-16T12:38:49.136Z</time>
      </trkpt>
      <trkpt lat="48.55481" lon="2.73497">
        <ele>81</ele>
        <time>2023-04-16T12:38:53.198Z</time>
      </trkpt>
      <trkpt lat="48.55482" lon="2.73501">
        <ele>81</ele>
        <time>2023-04-16T12:38:57.353Z</time>
      </trkpt>
      <trkpt lat="48.55485" lon="2.73508">
        <ele>81</ele>
        <time>2023-04-16T12:39:01.542Z</time>
      </trkpt>
      <trkpt lat="48.55488" lon="2.73517">
        <ele>79</ele>
        <time>2023-04-16T12:39:06.330Z</time>
      </trkpt>
      <trkpt lat="48.55491" lon="2.73527">
        <ele>79</ele>
        <time>2023-04-16T12:39:10.973Z</time>
      </trkpt>
      <trkpt lat="48.55493" lon="2.73537">
        <ele>79</ele>
        <time>2023-04-16T12:39:15.479Z</time>
      </trkpt>
      <trkpt lat="48.55499" lon="2.73545">
        <ele>78</ele>
        <time>2023-04-16T12:39:20.057Z</time>
      </trkpt>
      <trkpt lat="48.55504" lon="2.7355">
        <ele>78</ele>
        <time>2023-04-16T12:39:23.741Z</time>
      </trkpt>
      <trkpt lat="48.55509" lon="2.73552">
        <ele>78</ele>
        <time>2023-04-16T12:39:27.746Z</time>
      </trkpt>
      <trkpt lat="48.55511" lon="2.73556">
        <ele>78</ele>
        <time>2023-04-16T12:39:32.255Z</time>
      </trkpt>
      <trkpt lat="48.55511" lon="2.73567">
        <ele>78</ele>
        <time>2023-04-16T12:39:36.867Z</time>
      </trkpt>
      <trkpt lat="48.5551" lon="2.73591">
        <ele>77</ele>
        <time>2023-04-16T12:39:54.006Z</time>
      </trkpt>
      <trkpt lat="48.55512" lon="2.73602">
        <ele>77</ele>
        <time>2023-04-16T12:39:58.522Z</time>
      </trkpt>
      <trkpt lat="48.55512" lon="2.73615">
        <ele>77</ele>
        <time>2023-04-16T12:40:03.128Z</time>
      </trkpt>
      <trkpt lat="48.55512" lon="2.73626">
        <ele>76</ele>
        <time>2023-04-16T12:40:08.135Z</time>
      </trkpt>
      <trkpt lat="48.55512" lon="2.73635">
        <ele>76</ele>
        <time>2023-04-16T12:40:11.853Z</time>
      </trkpt>
      <trkpt lat="48.55512" lon="2.73645">
        <ele>76</ele>
        <time>2023-04-16T12:40:16.331Z</time>
      </trkpt>
      <trkpt lat="48.55511" lon="2.73654">
        <ele>75</ele>
        <time>2023-04-16T12:40:20.366Z</time>
      </trkpt>
      <trkpt lat="48.55509" lon="2.73664">
        <ele>75</ele>
        <time>2023-04-16T12:40:25.040Z</time>
      </trkpt>
      <trkpt lat="48.5551" lon="2.73675">
        <ele>75</ele>
        <time>2023-04-16T12:40:29.597Z</time>
      </trkpt>
      <trkpt lat="48.55509" lon="2.73686">
        <ele>74</ele>
        <time>2023-04-16T12:40:34.055Z</time>
      </trkpt>
      <trkpt lat="48.55509" lon="2.73696">
        <ele>74</ele>
        <time>2023-04-16T12:40:38.131Z</time>
      </trkpt>
      <trkpt lat="48.55509" lon="2.73705">
        <ele>74</ele>
        <time>2023-04-16T12:40:42.708Z</time>
      </trkpt>
      <trkpt lat="48.55509" lon="2.73713">
        <ele>72</ele>
        <time>2023-04-16T12:40:46.764Z</time>
      </trkpt>
      <trkpt lat="48.55508" lon="2.73725">
        <ele>72</ele>
        <time>2023-04-16T12:40:51.951Z</time>
      </trkpt>
      <trkpt lat="48.55508" lon="2.73736">
        <ele>70</ele>
        <time>2023-04-16T12:40:56.412Z</time>
      </trkpt>
      <trkpt lat="48.55508" lon="2.73746">
        <ele>70</ele>
        <time>2023-04-16T12:41:00.726Z</time>
      </trkpt>
      <trkpt lat="48.55508" lon="2.73754">
        <ele>70</ele>
        <time>2023-04-16T12:41:04.920Z</time>
      </trkpt>
      <trkpt lat="48.55508" lon="2.73762">
        <ele>70</ele>
        <time>2023-04-16T12:41:09.418Z</time>
      </trkpt>
      <trkpt lat="48.55508" lon="2.73771">
        <ele>69</ele>
        <time>2023-04-16T12:41:13.544Z</time>
      </trkpt>
      <trkpt lat="48.5551" lon="2.73779">
        <ele>69</ele>
        <time>2023-04-16T12:41:18.328Z</time>
      </trkpt>
      <trkpt lat="48.55511" lon="2.73788">
        <ele>69</ele>
        <time>2023-04-16T12:41:23.047Z</time>
      </trkpt>
      <trkpt lat="48.5551" lon="2.73797">
        <ele>68</ele>
        <time>2023-04-16T12:41:27.158Z</time>
      </trkpt>
      <trkpt lat="48.5551" lon="2.73807">
        <ele>68</ele>
        <time>2023-04-16T12:41:31.070Z</time>
      </trkpt>
      <trkpt lat="48.55508" lon="2.73813">
        <ele>68</ele>
        <time>2023-04-16T12:41:35.142Z</time>
      </trkpt>
      <trkpt lat="48.55507" lon="2.73824">
        <ele>67</ele>
        <time>2023-04-16T12:41:39.574Z</time>
      </trkpt>
      <trkpt lat="48.55507" lon="2.73832">
        <ele>67</ele>
        <time>2023-04-16T12:41:43.767Z</time>
      </trkpt>
      <trkpt lat="48.55506" lon="2.73838">
        <ele>67</ele>
        <time>2023-04-16T12:41:47.721Z</time>
      </trkpt>
      <trkpt lat="48.55506" lon="2.73848">
        <ele>66</ele>
        <time>2023-04-16T12:41:51.917Z</time>
      </trkpt>
      <trkpt lat="48.55505" lon="2.73855">
        <ele>66</ele>
        <time>2023-04-16T12:41:55.990Z</time>
      </trkpt>
      <trkpt lat="48.55506" lon="2.73862">
        <ele>66</ele>
        <time>2023-04-16T12:42:00.913Z</time>
      </trkpt>
      <trkpt lat="48.55501" lon="2.73869">
        <ele>66</ele>
        <time>2023-04-16T12:42:05.307Z</time>
      </trkpt>
      <trkpt lat="48.555" lon="2.7388">
        <ele>66</ele>
        <time>2023-04-16T12:42:09.376Z</time>
      </trkpt>
      <trkpt lat="48.55498" lon="2.73892">
        <ele>66</ele>
        <time>2023-04-16T12:42:13.925Z</time>
      </trkpt>
      <trkpt lat="48.55496" lon="2.73904">
        <ele>67</ele>
        <time>2023-04-16T12:42:18.593Z</time>
      </trkpt>
      <trkpt lat="48.55494" lon="2.73913">
        <ele>67</ele>
        <time>2023-04-16T12:42:22.543Z</time>
      </trkpt>
      <trkpt lat="48.55493" lon="2.73921">
        <ele>67</ele>
        <time>2023-04-16T12:42:26.733Z</time>
      </trkpt>
      <trkpt lat="48.55491" lon="2.73928">
        <ele>67</ele>
        <time>2023-04-16T12:42:30.801Z</time>
      </trkpt>
      <trkpt lat="48.55489" lon="2.73936">
        <ele>67</ele>
        <time>2023-04-16T12:42:35.350Z</time>
      </trkpt>
      <trkpt lat="48.55487" lon="2.73945">
        <ele>67</ele>
        <time>2023-04-16T12:42:40.139Z</time>
      </trkpt>
      <trkpt lat="48.55484" lon="2.73954">
        <ele>68</ele>
        <time>2023-04-16T12:42:44.690Z</time>
      </trkpt>
      <trkpt lat="48.55482" lon="2.73961">
        <ele>69</ele>
        <time>2023-04-16T12:42:48.762Z</time>
      </trkpt>
      <trkpt lat="48.55481" lon="2.7397">
        <ele>69</ele>
        <time>2023-04-16T12:42:53.835Z</time>
      </trkpt>
      <trkpt lat="48.55481" lon="2.73977">
        <ele>69</ele>
        <time>2023-04-16T12:42:57.963Z</time>
      </trkpt>
      <trkpt lat="48.5548" lon="2.73984">
        <ele>69</ele>
        <time>2023-04-16T12:43:01.894Z</time>
      </trkpt>
      <trkpt lat="48.55478" lon="2.73993">
        <ele>70</ele>
        <time>2023-04-16T12:43:06.562Z</time>
      </trkpt>
      <trkpt lat="48.55476" lon="2.74002">
        <ele>70</ele>
        <time>2023-04-16T12:43:11.216Z</time>
      </trkpt>
      <trkpt lat="48.55475" lon="2.74009">
        <ele>70</ele>
        <time>2023-04-16T12:43:15.214Z</time>
      </trkpt>
      <trkpt lat="48.55473" lon="2.74017">
        <ele>73</ele>
        <time>2023-04-16T12:43:19.366Z</time>
      </trkpt>
      <trkpt lat="48.55472" lon="2.74025">
        <ele>73</ele>
        <time>2023-04-16T12:43:23.527Z</time>
      </trkpt>
      <trkpt lat="48.55472" lon="2.74032">
        <ele>73</ele>
        <time>2023-04-16T12:43:27.383Z</time>
      </trkpt>
      <trkpt lat="48.55472" lon="2.74038">
        <ele>73</ele>
        <time>2023-04-16T12:43:32.148Z</time>
      </trkpt>
      <trkpt lat="48.55472" lon="2.74045">
        <ele>75</ele>
        <time>2023-04-16T12:43:36.335Z</time>
      </trkpt>
      <trkpt lat="48.55473" lon="2.74052">
        <ele>75</ele>
        <time>2023-04-16T12:43:40.403Z</time>
      </trkpt>
      <trkpt lat="48.55475" lon="2.7406">
        <ele>75</ele>
        <time>2023-04-16T12:43:44.591Z</time>
      </trkpt>
      <trkpt lat="48.55478" lon="2.74067">
        <ele>75</ele>
        <time>2023-04-16T12:43:48.779Z</time>
      </trkpt>
      <trkpt lat="48.55481" lon="2.74068">
        <ele>75</ele>
        <time>2023-04-16T12:43:52.966Z</time>
      </trkpt>
      <trkpt lat="48.55481" lon="2.74067">
        <ele>75</ele>
        <time>2023-04-16T12:43:57.595Z</time>
      </trkpt>
      <trkpt lat="48.55485" lon="2.74073">
        <ele>75</ele>
        <time>2023-04-16T12:44:01.767Z</time>
      </trkpt>
      <trkpt lat="48.55491" lon="2.74077">
        <ele>75</ele>
        <time>2023-04-16T12:44:06.459Z</time>
      </trkpt>
      <trkpt lat="48.55494" lon="2.74084">
        <ele>75</ele>
        <time>2023-04-16T12:44:10.972Z</time>
      </trkpt>
      <trkpt lat="48.55499" lon="2.74089">
        <ele>75</ele>
        <time>2023-04-16T12:44:15.180Z</time>
      </trkpt>
      <trkpt lat="48.55502" lon="2.74094">
        <ele>75</ele>
        <time>2023-04-16T12:44:18.772Z</time>
      </trkpt>
      <trkpt lat="48.55509" lon="2.74098">
        <ele>75</ele>
        <time>2023-04-16T12:44:23.534Z</time>
      </trkpt>
      <trkpt lat="48.55514" lon="2.74104">
        <ele>78</ele>
        <time>2023-04-16T12:44:27.989Z</time>
      </trkpt>
      <trkpt lat="48.5552" lon="2.74112">
        <ele>78</ele>
        <time>2023-04-16T12:44:32.769Z</time>
      </trkpt>
      <trkpt lat="48.55525" lon="2.74116">
        <ele>78</ele>
        <time>2023-04-16T12:44:36.725Z</time>
      </trkpt>
      <trkpt lat="48.55529" lon="2.74123">
        <ele>78</ele>
        <time>2023-04-16T12:44:40.793Z</time>
      </trkpt>
      <trkpt lat="48.55532" lon="2.74131">
        <ele>77</ele>
        <time>2023-04-16T12:44:44.979Z</time>
      </trkpt>
      <trkpt lat="48.55535" lon="2.74139">
        <ele>77</ele>
        <time>2023-04-16T12:44:49.165Z</time>
      </trkpt>
      <trkpt lat="48.55539" lon="2.74145">
        <ele>77</ele>
        <time>2023-04-16T12:44:53.351Z</time>
      </trkpt>
      <trkpt lat="48.55542" lon="2.74152">
        <ele>80</ele>
        <time>2023-04-16T12:44:57.510Z</time>
      </trkpt>
      <trkpt lat="48.55546" lon="2.74157">
        <ele>81</ele>
        <time>2023-04-16T12:45:01.346Z</time>
      </trkpt>
      <trkpt lat="48.55551" lon="2.74164">
        <ele>81</ele>
        <time>2023-04-16T12:45:06.211Z</time>
      </trkpt>
      <trkpt lat="48.55555" lon="2.74169">
        <ele>81</ele>
        <time>2023-04-16T12:45:10.554Z</time>
      </trkpt>
      <trkpt lat="48.5556" lon="2.74174">
        <ele>81</ele>
        <time>2023-04-16T12:45:14.739Z</time>
      </trkpt>
      <trkpt lat="48.55566" lon="2.74178">
        <ele>81</ele>
        <time>2023-04-16T12:45:18.804Z</time>
      </trkpt>
      <trkpt lat="48.5557" lon="2.74181">
        <ele>81</ele>
        <time>2023-04-16T12:45:23.330Z</time>
      </trkpt>
      <trkpt lat="48.55575" lon="2.74183">
        <ele>81</ele>
        <time>2023-04-16T12:45:27.969Z</time>
      </trkpt>
      <trkpt lat="48.5558" lon="2.74187">
        <ele>81</ele>
        <time>2023-04-16T12:45:31.941Z</time>
      </trkpt>
      <trkpt lat="48.55586" lon="2.74188">
        <ele>81</ele>
        <time>2023-04-16T12:45:36.725Z</time>
      </trkpt>
      <trkpt lat="48.55593" lon="2.74191">
        <ele>81</ele>
        <time>2023-04-16T12:45:41.392Z</time>
      </trkpt>
      <trkpt lat="48.55597" lon="2.74194">
        <ele>81</ele>
        <time>2023-04-16T12:45:46.177Z</time>
      </trkpt>
      <trkpt lat="48.55601" lon="2.74201">
        <ele>81</ele>
        <time>2023-04-16T12:45:50.722Z</time>
      </trkpt>
      <trkpt lat="48.55605" lon="2.74207">
        <ele>81</ele>
        <time>2023-04-16T12:45:55.216Z</time>
      </trkpt>
      <trkpt lat="48.55608" lon="2.74214">
        <ele>80</ele>
        <time>2023-04-16T12:45:59.934Z</time>
      </trkpt>
      <trkpt lat="48.55611" lon="2.7422">
        <ele>80</ele>
        <time>2023-04-16T12:46:04Z</time>
      </trkpt>
      <trkpt lat="48.55614" lon="2.7423">
        <ele>80</ele>
        <time>2023-04-16T12:46:08.690Z</time>
      </trkpt>
      <trkpt lat="48.55616" lon="2.74238">
        <ele>80</ele>
        <time>2023-04-16T12:46:13.134Z</time>
      </trkpt>
      <trkpt lat="48.55617" lon="2.74246">
        <ele>80</ele>
        <time>2023-04-16T12:46:17.734Z</time>
      </trkpt>
      <trkpt lat="48.55618" lon="2.74254">
        <ele>80</ele>
        <time>2023-04-16T12:46:22.492Z</time>
      </trkpt>
      <trkpt lat="48.55619" lon="2.74262">
        <ele>80</ele>
        <time>2023-04-16T12:46:27.182Z</time>
      </trkpt>
      <trkpt lat="48.5562" lon="2.74269">
        <ele>79</ele>
        <time>2023-04-16T12:46:30.776Z</time>
      </trkpt>
      <trkpt lat="48.55623" lon="2.74278">
        <ele>79</ele>
        <time>2023-04-16T12:46:35.572Z</time>
      </trkpt>
      <trkpt lat="48.55626" lon="2.74288">
        <ele>82</ele>
        <time>2023-04-16T12:46:39.763Z</time>
      </trkpt>
      <trkpt lat="48.55629" lon="2.74299">
        <ele>82</ele>
        <time>2023-04-16T12:46:44.191Z</time>
      </trkpt>
      <trkpt lat="48.5563" lon="2.74308">
        <ele>82</ele>
        <time>2023-04-16T12:46:48.740Z</time>
      </trkpt>
      <trkpt lat="48.5563" lon="2.74315">
        <ele>82</ele>
        <time>2023-04-16T12:46:52.809Z</time>
      </trkpt>
      <trkpt lat="48.5563" lon="2.74324">
        <ele>82</ele>
        <time>2023-04-16T12:46:56.998Z</time>
      </trkpt>
      <trkpt lat="48.5563" lon="2.74332">
        <ele>82</ele>
        <time>2023-04-16T12:47:01.785Z</time>
      </trkpt>
      <trkpt lat="48.5563" lon="2.74339">
        <ele>82</ele>
        <time>2023-04-16T12:47:05.854Z</time>
      </trkpt>
      <trkpt lat="48.55632" lon="2.74348">
        <ele>82</ele>
        <time>2023-04-16T12:47:11.075Z</time>
      </trkpt>
      <trkpt lat="48.55633" lon="2.74358">
        <ele>82</ele>
        <time>2023-04-16T12:47:15.418Z</time>
      </trkpt>
      <trkpt lat="48.55634" lon="2.74369">
        <ele>82</ele>
        <time>2023-04-16T12:47:19.975Z</time>
      </trkpt>
      <trkpt lat="48.55635" lon="2.74377">
        <ele>82</ele>
        <time>2023-04-16T12:47:24.402Z</time>
      </trkpt>
      <trkpt lat="48.55638" lon="2.74385">
        <ele>82</ele>
        <time>2023-04-16T12:47:29.110Z</time>
      </trkpt>
      <trkpt lat="48.5564" lon="2.74394">
        <ele>82</ele>
        <time>2023-04-16T12:47:33.014Z</time>
      </trkpt>
      <trkpt lat="48.55642" lon="2.74403">
        <ele>80</ele>
        <time>2023-04-16T12:47:37.892Z</time>
      </trkpt>
      <trkpt lat="48.55644" lon="2.74413">
        <ele>80</ele>
        <time>2023-04-16T12:47:41.748Z</time>
      </trkpt>
      <trkpt lat="48.55645" lon="2.74422">
        <ele>80</ele>
        <time>2023-04-16T12:47:45.936Z</time>
      </trkpt>
      <trkpt lat="48.55648" lon="2.7443">
        <ele>80</ele>
        <time>2023-04-16T12:47:50.418Z</time>
      </trkpt>
      <trkpt lat="48.5565" lon="2.74439">
        <ele>78</ele>
        <time>2023-04-16T12:47:55.152Z</time>
      </trkpt>
      <trkpt lat="48.55653" lon="2.74447">
        <ele>79</ele>
        <time>2023-04-16T12:47:59.873Z</time>
      </trkpt>
      <trkpt lat="48.55654" lon="2.74456">
        <ele>79</ele>
        <time>2023-04-16T12:48:04.006Z</time>
      </trkpt>
      <trkpt lat="48.55655" lon="2.74465">
        <ele>76</ele>
        <time>2023-04-16T12:48:08.708Z</time>
      </trkpt>
      <trkpt lat="48.55656" lon="2.74472">
        <ele>76</ele>
        <time>2023-04-16T12:48:12.604Z</time>
      </trkpt>
      <trkpt lat="48.55658" lon="2.74482">
        <ele>76</ele>
        <time>2023-04-16T12:48:17.355Z</time>
      </trkpt>
      <trkpt lat="48.55661" lon="2.7449">
        <ele>75</ele>
        <time>2023-04-16T12:48:21.800Z</time>
      </trkpt>
      <trkpt lat="48.55662" lon="2.74497">
        <ele>75</ele>
        <time>2023-04-16T12:48:25.973Z</time>
      </trkpt>
      <trkpt lat="48.55664" lon="2.74505">
        <ele>75</ele>
        <time>2023-04-16T12:48:30.138Z</time>
      </trkpt>
      <trkpt lat="48.55665" lon="2.74513">
        <ele>75</ele>
        <time>2023-04-16T12:48:34.207Z</time>
      </trkpt>
      <trkpt lat="48.55666" lon="2.74523">
        <ele>76</ele>
        <time>2023-04-16T12:48:38.636Z</time>
      </trkpt>
      <trkpt lat="48.55667" lon="2.74532">
        <ele>76</ele>
        <time>2023-04-16T12:48:43.644Z</time>
      </trkpt>
      <trkpt lat="48.55669" lon="2.7454">
        <ele>76</ele>
        <time>2023-04-16T12:48:47.954Z</time>
      </trkpt>
      <trkpt lat="48.55671" lon="2.74548">
        <ele>77</ele>
        <time>2023-04-16T12:48:51.884Z</time>
      </trkpt>
      <trkpt lat="48.55673" lon="2.74557">
        <ele>77</ele>
        <time>2023-04-16T12:48:55.953Z</time>
      </trkpt>
      <trkpt lat="48.55677" lon="2.74565">
        <ele>77</ele>
        <time>2023-04-16T12:49:00.502Z</time>
      </trkpt>
      <trkpt lat="48.5568" lon="2.74572">
        <ele>77</ele>
        <time>2023-04-16T12:49:05.170Z</time>
      </trkpt>
      <trkpt lat="48.55682" lon="2.7458">
        <ele>79</ele>
        <time>2023-04-16T12:49:09.121Z</time>
      </trkpt>
      <trkpt lat="48.55682" lon="2.74586">
        <ele>79</ele>
        <time>2023-04-16T12:49:13.052Z</time>
      </trkpt>
      <trkpt lat="48.55684" lon="2.74594">
        <ele>79</ele>
        <time>2023-04-16T12:49:17.681Z</time>
      </trkpt>
      <trkpt lat="48.55686" lon="2.74605">
        <ele>80</ele>
        <time>2023-04-16T12:49:22.811Z</time>
      </trkpt>
      <trkpt lat="48.55688" lon="2.74613">
        <ele>80</ele>
        <time>2023-04-16T12:49:26.993Z</time>
      </trkpt>
      <trkpt lat="48.55688" lon="2.74623">
        <ele>80</ele>
        <time>2023-04-16T12:49:30.849Z</time>
      </trkpt>
      <trkpt lat="48.5569" lon="2.74631">
        <ele>80</ele>
        <time>2023-04-16T12:49:35.159Z</time>
      </trkpt>
      <trkpt lat="48.55692" lon="2.74639">
        <ele>80</ele>
        <time>2023-04-16T12:49:39.351Z</time>
      </trkpt>
      <trkpt lat="48.55692" lon="2.74648">
        <ele>80</ele>
        <time>2023-04-16T12:49:43.901Z</time>
      </trkpt>
      <trkpt lat="48.55692" lon="2.74655">
        <ele>80</ele>
        <time>2023-04-16T12:49:48.414Z</time>
      </trkpt>
      <trkpt lat="48.55693" lon="2.74663">
        <ele>80</ele>
        <time>2023-04-16T12:49:52.963Z</time>
      </trkpt>
      <trkpt lat="48.55695" lon="2.74672">
        <ele>80</ele>
        <time>2023-04-16T12:49:57.752Z</time>
      </trkpt>
      <trkpt lat="48.55699" lon="2.7468">
        <ele>80</ele>
        <time>2023-04-16T12:50:01.942Z</time>
      </trkpt>
      <trkpt lat="48.557" lon="2.7469">
        <ele>80</ele>
        <time>2023-04-16T12:50:06.013Z</time>
      </trkpt>
      <trkpt lat="48.55703" lon="2.747">
        <ele>80</ele>
        <time>2023-04-16T12:50:10.804Z</time>
      </trkpt>
      <trkpt lat="48.55705" lon="2.7471">
        <ele>79</ele>
        <time>2023-04-16T12:50:15.487Z</time>
      </trkpt>
      <trkpt lat="48.55707" lon="2.74718">
        <ele>79</ele>
        <time>2023-04-16T12:50:19.546Z</time>
      </trkpt>
      <trkpt lat="48.5571" lon="2.74727">
        <ele>81</ele>
        <time>2023-04-16T12:50:24.097Z</time>
      </trkpt>
      <trkpt lat="48.55712" lon="2.74736">
        <ele>80</ele>
        <time>2023-04-16T12:50:28.768Z</time>
      </trkpt>
      <trkpt lat="48.55715" lon="2.74744">
        <ele>80</ele>
        <time>2023-04-16T12:50:32.719Z</time>
      </trkpt>
      <trkpt lat="48.55716" lon="2.74752">
        <ele>80</ele>
        <time>2023-04-16T12:50:37.373Z</time>
      </trkpt>
      <trkpt lat="48.55715" lon="2.74761">
        <ele>80</ele>
        <time>2023-04-16T12:50:42.214Z</time>
      </trkpt>
      <trkpt lat="48.55717" lon="2.74769">
        <ele>79</ele>
        <time>2023-04-16T12:50:46.201Z</time>
      </trkpt>
      <trkpt lat="48.55716" lon="2.74776">
        <ele>79</ele>
        <time>2023-04-16T12:50:50.327Z</time>
      </trkpt>
      <trkpt lat="48.55717" lon="2.74786">
        <ele>79</ele>
        <time>2023-04-16T12:50:55.118Z</time>
      </trkpt>
      <trkpt lat="48.55718" lon="2.74794">
        <ele>79</ele>
        <time>2023-04-16T12:50:59.551Z</time>
      </trkpt>
      <trkpt lat="48.55719" lon="2.74802">
        <ele>79</ele>
        <time>2023-04-16T12:51:03.499Z</time>
      </trkpt>
      <trkpt lat="48.55721" lon="2.74809">
        <ele>79</ele>
        <time>2023-04-16T12:51:08.148Z</time>
      </trkpt>
      <trkpt lat="48.55722" lon="2.74816">
        <ele>79</ele>
        <time>2023-04-16T12:51:12.353Z</time>
      </trkpt>
      <trkpt lat="48.55724" lon="2.74822">
        <ele>79</ele>
        <time>2023-04-16T12:51:16.767Z</time>
      </trkpt>
      <trkpt lat="48.55727" lon="2.74832">
        <ele>79</ele>
        <time>2023-04-16T12:51:21.795Z</time>
      </trkpt>
      <trkpt lat="48.55727" lon="2.74841">
        <ele>79</ele>
        <time>2023-04-16T12:51:26.345Z</time>
      </trkpt>
      <trkpt lat="48.55727" lon="2.7485">
        <ele>80</ele>
        <time>2023-04-16T12:51:30.535Z</time>
      </trkpt>
      <trkpt lat="48.55728" lon="2.74861">
        <ele>80</ele>
        <time>2023-04-16T12:51:35.086Z</time>
      </trkpt>
      <trkpt lat="48.55729" lon="2.74868">
        <ele>80</ele>
        <time>2023-04-16T12:51:39.758Z</time>
      </trkpt>
      <trkpt lat="48.55734" lon="2.74875">
        <ele>78</ele>
        <time>2023-04-16T12:51:44.872Z</time>
      </trkpt>
      <trkpt lat="48.55738" lon="2.74883">
        <ele>81</ele>
        <time>2023-04-16T12:51:49.543Z</time>
      </trkpt>
      <trkpt lat="48.55741" lon="2.74892">
        <ele>81</ele>
        <time>2023-04-16T12:51:53.734Z</time>
      </trkpt>
      <trkpt lat="48.55742" lon="2.74901">
        <ele>81</ele>
        <time>2023-04-16T12:51:57.806Z</time>
      </trkpt>
      <trkpt lat="48.55743" lon="2.74911">
        <ele>77</ele>
        <time>2023-04-16T12:52:02.418Z</time>
      </trkpt>
      <trkpt lat="48.55745" lon="2.74915">
        <ele>77</ele>
        <time>2023-04-16T12:52:06.908Z</time>
      </trkpt>
      <trkpt lat="48.55746" lon="2.74923">
        <ele>77</ele>
        <time>2023-04-16T12:52:10.992Z</time>
      </trkpt>
      <trkpt lat="48.55748" lon="2.74924">
        <ele>77</ele>
        <time>2023-04-16T12:52:15.171Z</time>
      </trkpt>
      <trkpt lat="48.55749" lon="2.74924">
        <ele>77</ele>
        <time>2023-04-16T12:52:18.763Z</time>
      </trkpt>
      <trkpt lat="48.55752" lon="2.74928">
        <ele>77</ele>
        <time>2023-04-16T12:52:23.312Z</time>
      </trkpt>
      <trkpt lat="48.5576" lon="2.74932">
        <ele>73</ele>
        <time>2023-04-16T12:52:27.983Z</time>
      </trkpt>
      <trkpt lat="48.55766" lon="2.74935">
        <ele>75</ele>
        <time>2023-04-16T12:52:32.292Z</time>
      </trkpt>
      <trkpt lat="48.55772" lon="2.74938">
        <ele>75</ele>
        <time>2023-04-16T12:52:36.852Z</time>
      </trkpt>
      <trkpt lat="48.55776" lon="2.74941">
        <ele>75</ele>
        <time>2023-04-16T12:52:40.790Z</time>
      </trkpt>
      <trkpt lat="48.55781" lon="2.74945">
        <ele>75</ele>
        <time>2023-04-16T12:52:44.978Z</time>
      </trkpt>
      <trkpt lat="48.55786" lon="2.74951">
        <ele>75</ele>
        <time>2023-04-16T12:52:48.927Z</time>
      </trkpt>
      <trkpt lat="48.55791" lon="2.74956">
        <ele>75</ele>
        <time>2023-04-16T12:52:53.556Z</time>
      </trkpt>
      <trkpt lat="48.55795" lon="2.74961">
        <ele>73</ele>
        <time>2023-04-16T12:52:58.171Z</time>
      </trkpt>
      <trkpt lat="48.55798" lon="2.74966">
        <ele>73</ele>
        <time>2023-04-16T12:53:02.177Z</time>
      </trkpt>
      <trkpt lat="48.55802" lon="2.74972">
        <ele>73</ele>
        <time>2023-04-16T12:53:06.366Z</time>
      </trkpt>
      <trkpt lat="48.55806" lon="2.74979">
        <ele>73</ele>
        <time>2023-04-16T12:53:10.793Z</time>
      </trkpt>
      <trkpt lat="48.55808" lon="2.74984">
        <ele>73</ele>
        <time>2023-04-16T12:53:14.981Z</time>
      </trkpt>
      <trkpt lat="48.55811" lon="2.74991">
        <ele>71</ele>
        <time>2023-04-16T12:53:19.168Z</time>
      </trkpt>
      <trkpt lat="48.55816" lon="2.74997">
        <ele>71</ele>
        <time>2023-04-16T12:53:23.713Z</time>
      </trkpt>
      <trkpt lat="48.55822" lon="2.75003">
        <ele>69</ele>
        <time>2023-04-16T12:53:28.154Z</time>
      </trkpt>
      <trkpt lat="48.55829" lon="2.75007">
        <ele>69</ele>
        <time>2023-04-16T12:53:33.164Z</time>
      </trkpt>
      <trkpt lat="48.55835" lon="2.75007">
        <ele>69</ele>
        <time>2023-04-16T12:53:37.117Z</time>
      </trkpt>
      <trkpt lat="48.55839" lon="2.75005">
        <ele>69</ele>
        <time>2023-04-16T12:53:41.630Z</time>
      </trkpt>
      <trkpt lat="48.55844" lon="2.75">
        <ele>69</ele>
        <time>2023-04-16T12:53:46.218Z</time>
      </trkpt>
      <trkpt lat="48.55849" lon="2.74996">
        <ele>69</ele>
        <time>2023-04-16T12:53:50.390Z</time>
      </trkpt>
      <trkpt lat="48.55857" lon="2.74995">
        <ele>69</ele>
        <time>2023-04-16T12:53:55.176Z</time>
      </trkpt>
      <trkpt lat="48.55862" lon="2.74992">
        <ele>69</ele>
        <time>2023-04-16T12:53:59.375Z</time>
      </trkpt>
      <trkpt lat="48.55867" lon="2.74992">
        <ele>69</ele>
        <time>2023-04-16T12:54:03.749Z</time>
      </trkpt>
      <trkpt lat="48.55874" lon="2.74993">
        <ele>69</ele>
        <time>2023-04-16T12:54:07.756Z</time>
      </trkpt>
      <trkpt lat="48.55881" lon="2.7499">
        <ele>68</ele>
        <time>2023-04-16T12:54:12.205Z</time>
      </trkpt>
      <trkpt lat="48.55887" lon="2.74987">
        <ele>68</ele>
        <time>2023-04-16T12:54:16.641Z</time>
      </trkpt>
      <trkpt lat="48.55891" lon="2.74984">
        <ele>66</ele>
        <time>2023-04-16T12:54:21.194Z</time>
      </trkpt>
      <trkpt lat="48.55896" lon="2.74986">
        <ele>68</ele>
        <time>2023-04-16T12:54:25.148Z</time>
      </trkpt>
      <trkpt lat="48.55902" lon="2.74989">
        <ele>68</ele>
        <time>2023-04-16T12:54:29.900Z</time>
      </trkpt>
      <trkpt lat="48.55908" lon="2.74988">
        <ele>63</ele>
        <time>2023-04-16T12:54:34.496Z</time>
      </trkpt>
      <trkpt lat="48.55911" lon="2.74984">
        <ele>61</ele>
        <time>2023-04-16T12:54:39.005Z</time>
      </trkpt>
      <trkpt lat="48.55911" lon="2.74986">
        <ele>63</ele>
        <time>2023-04-16T12:54:43.529Z</time>
      </trkpt>
      <trkpt lat="48.55912" lon="2.74992">
        <ele>63</ele>
        <time>2023-04-16T12:54:47.536Z</time>
      </trkpt>
      <trkpt lat="48.55917" lon="2.75001">
        <ele>63</ele>
        <time>2023-04-16T12:54:52.041Z</time>
      </trkpt>
      <trkpt lat="48.55916" lon="2.75012">
        <ele>63</ele>
        <time>2023-04-16T12:54:57.049Z</time>
      </trkpt>
      <trkpt lat="48.55917" lon="2.75021">
        <ele>64</ele>
        <time>2023-04-16T12:55:01.054Z</time>
      </trkpt>
      <trkpt lat="48.55919" lon="2.75032">
        <ele>64</ele>
        <time>2023-04-16T12:55:06.058Z</time>
      </trkpt>
      <trkpt lat="48.5592" lon="2.75041">
        <ele>64</ele>
        <time>2023-04-16T12:55:10.562Z</time>
      </trkpt>
      <trkpt lat="48.5592" lon="2.75049">
        <ele>64</ele>
        <time>2023-04-16T12:55:14.565Z</time>
      </trkpt>
      <trkpt lat="48.55921" lon="2.75058">
        <ele>64</ele>
        <time>2023-04-16T12:55:19.069Z</time>
      </trkpt>
      <trkpt lat="48.55923" lon="2.75067">
        <ele>64</ele>
        <time>2023-04-16T12:55:23.072Z</time>
      </trkpt>
      <trkpt lat="48.55925" lon="2.75075">
        <ele>64</ele>
        <time>2023-04-16T12:55:27.574Z</time>
      </trkpt>
      <trkpt lat="48.55927" lon="2.75084">
        <ele>64</ele>
        <time>2023-04-16T12:55:32.077Z</time>
      </trkpt>
      <trkpt lat="48.5593" lon="2.75091">
        <ele>64</ele>
        <time>2023-04-16T12:55:36.079Z</time>
      </trkpt>
      <trkpt lat="48.55932" lon="2.75102">
        <ele>61</ele>
        <time>2023-04-16T12:55:40.682Z</time>
      </trkpt>
      <trkpt lat="48.55934" lon="2.75111">
        <ele>61</ele>
        <time>2023-04-16T12:55:45.804Z</time>
      </trkpt>
      <trkpt lat="48.55937" lon="2.75118">
        <ele>61</ele>
        <time>2023-04-16T12:55:50.565Z</time>
      </trkpt>
      <trkpt lat="48.55938" lon="2.75128">
        <ele>61</ele>
        <time>2023-04-16T12:55:54.999Z</time>
      </trkpt>
      <trkpt lat="48.55939" lon="2.75136">
        <ele>61</ele>
        <time>2023-04-16T12:55:59.191Z</time>
      </trkpt>
      <trkpt lat="48.55941" lon="2.75146">
        <ele>61</ele>
        <time>2023-04-16T12:56:03.940Z</time>
      </trkpt>
      <trkpt lat="48.55943" lon="2.75154">
        <ele>62</ele>
        <time>2023-04-16T12:56:09.212Z</time>
      </trkpt>
      <trkpt lat="48.55946" lon="2.75162">
        <ele>62</ele>
        <time>2023-04-16T12:56:13.764Z</time>
      </trkpt>
      <trkpt lat="48.55948" lon="2.7517">
        <ele>62</ele>
        <time>2023-04-16T12:56:18.267Z</time>
      </trkpt>
      <trkpt lat="48.5595" lon="2.75178">
        <ele>62</ele>
        <time>2023-04-16T12:56:22.629Z</time>
      </trkpt>
      <trkpt lat="48.5595" lon="2.75186">
        <ele>63</ele>
        <time>2023-04-16T12:56:26.579Z</time>
      </trkpt>
      <trkpt lat="48.5595" lon="2.75195">
        <ele>63</ele>
        <time>2023-04-16T12:56:30.768Z</time>
      </trkpt>
      <trkpt lat="48.55951" lon="2.75203">
        <ele>63</ele>
        <time>2023-04-16T12:56:35.195Z</time>
      </trkpt>
      <trkpt lat="48.55949" lon="2.75212">
        <ele>65</ele>
        <time>2023-04-16T12:56:39.998Z</time>
      </trkpt>
      <trkpt lat="48.55951" lon="2.75221">
        <ele>65</ele>
        <time>2023-04-16T12:56:44.819Z</time>
      </trkpt>
      <trkpt lat="48.55955" lon="2.75236">
        <ele>65</ele>
        <time>2023-04-16T12:56:49.328Z</time>
      </trkpt>
      <trkpt lat="48.55955" lon="2.75247">
        <ele>70</ele>
        <time>2023-04-16T12:56:53.344Z</time>
      </trkpt>
      <trkpt lat="48.55956" lon="2.75253">
        <ele>70</ele>
        <time>2023-04-16T12:56:58.193Z</time>
      </trkpt>
      <trkpt lat="48.55955" lon="2.75259">
        <ele>70</ele>
        <time>2023-04-16T12:57:02.723Z</time>
      </trkpt>
      <trkpt lat="48.55952" lon="2.75259">
        <ele>70</ele>
        <time>2023-04-16T12:57:07.278Z</time>
      </trkpt>
      <trkpt lat="48.55949" lon="2.75259">
        <ele>70</ele>
        <time>2023-04-16T12:57:12.153Z</time>
      </trkpt>
      <trkpt lat="48.55945" lon="2.7526">
        <ele>70</ele>
        <time>2023-04-16T12:57:15.746Z</time>
      </trkpt>
      <trkpt lat="48.5594" lon="2.75261">
        <ele>70</ele>
        <time>2023-04-16T12:57:20.364Z</time>
      </trkpt>
      <trkpt lat="48.55935" lon="2.75263">
        <ele>70</ele>
        <time>2023-04-16T12:57:24.363Z</time>
      </trkpt>
      <trkpt lat="48.55932" lon="2.75269">
        <ele>75</ele>
        <time>2023-04-16T12:57:29.157Z</time>
      </trkpt>
      <trkpt lat="48.5593" lon="2.75272">
        <ele>71</ele>
        <time>2023-04-16T12:57:33.952Z</time>
      </trkpt>
      <trkpt lat="48.55936" lon="2.7527">
        <ele>75</ele>
        <time>2023-04-16T12:58:19.909Z</time>
      </trkpt>
      <trkpt lat="48.55938" lon="2.75268">
        <ele>75</ele>
        <time>2023-04-16T12:58:23.936Z</time>
      </trkpt>
      <trkpt lat="48.55942" lon="2.75269">
        <ele>75</ele>
        <time>2023-04-16T12:58:28.125Z</time>
      </trkpt>
      <trkpt lat="48.55944" lon="2.75272">
        <ele>75</ele>
        <time>2023-04-16T12:58:32.793Z</time>
      </trkpt>
      <trkpt lat="48.55946" lon="2.75273">
        <ele>75</ele>
        <time>2023-04-16T12:58:36.988Z</time>
      </trkpt>
      <trkpt lat="48.5595" lon="2.75259">
        <ele>70</ele>
        <time>2023-04-16T12:59:13.197Z</time>
      </trkpt>
      <trkpt lat="48.55953" lon="2.75258">
        <ele>70</ele>
        <time>2023-04-16T12:59:18.201Z</time>
      </trkpt>
      <trkpt lat="48.55955" lon="2.75259">
        <ele>70</ele>
        <time>2023-04-16T12:59:23.207Z</time>
      </trkpt>
      <trkpt lat="48.55957" lon="2.75257">
        <ele>70</ele>
        <time>2023-04-16T12:59:27.379Z</time>
      </trkpt>
      <trkpt lat="48.55959" lon="2.7526">
        <ele>70</ele>
        <time>2023-04-16T12:59:32.187Z</time>
      </trkpt>
      <trkpt lat="48.55961" lon="2.75266">
        <ele>74</ele>
        <time>2023-04-16T12:59:45.952Z</time>
      </trkpt>
      <trkpt lat="48.55961" lon="2.75266">
        <ele>74</ele>
        <time>2023-04-16T12:59:50.744Z</time>
      </trkpt>
      <trkpt lat="48.55963" lon="2.75267">
        <ele>74</ele>
        <time>2023-04-16T12:59:54.936Z</time>
      </trkpt>
      <trkpt lat="48.55965" lon="2.75271">
        <ele>74</ele>
        <time>2023-04-16T12:59:59.128Z</time>
      </trkpt>
      <trkpt lat="48.55967" lon="2.75279">
        <ele>74</ele>
        <time>2023-04-16T13:00:03.200Z</time>
      </trkpt>
      <trkpt lat="48.55967" lon="2.75284">
        <ele>74</ele>
        <time>2023-04-16T13:00:07.393Z</time>
      </trkpt>
      <trkpt lat="48.55967" lon="2.75293">
        <ele>78</ele>
        <time>2023-04-16T13:00:11.586Z</time>
      </trkpt>
      <trkpt lat="48.55967" lon="2.75302">
        <ele>78</ele>
        <time>2023-04-16T13:00:16.377Z</time>
      </trkpt>
      <trkpt lat="48.55968" lon="2.7531">
        <ele>78</ele>
        <time>2023-04-16T13:00:20.929Z</time>
      </trkpt>
      <trkpt lat="48.55967" lon="2.75319">
        <ele>78</ele>
        <time>2023-04-16T13:00:25.959Z</time>
      </trkpt>
      <trkpt lat="48.55965" lon="2.75326">
        <ele>79</ele>
        <time>2023-04-16T13:00:29.911Z</time>
      </trkpt>
      <trkpt lat="48.55965" lon="2.75334">
        <ele>79</ele>
        <time>2023-04-16T13:00:34.942Z</time>
      </trkpt>
      <trkpt lat="48.55965" lon="2.75342">
        <ele>79</ele>
        <time>2023-04-16T13:00:38.894Z</time>
      </trkpt>
      <trkpt lat="48.55965" lon="2.75351">
        <ele>79</ele>
        <time>2023-04-16T13:00:43.865Z</time>
      </trkpt>
      <trkpt lat="48.55965" lon="2.75358">
        <ele>79</ele>
        <time>2023-04-16T13:00:47.996Z</time>
      </trkpt>
      <trkpt lat="48.55966" lon="2.75368">
        <ele>79</ele>
        <time>2023-04-16T13:00:52.185Z</time>
      </trkpt>
      <trkpt lat="48.55967" lon="2.75376">
        <ele>78</ele>
        <time>2023-04-16T13:00:55.737Z</time>
      </trkpt>
      <trkpt lat="48.55967" lon="2.75384">
        <ele>78</ele>
        <time>2023-04-16T13:01:01.123Z</time>
      </trkpt>
      <trkpt lat="48.55966" lon="2.75391">
        <ele>78</ele>
        <time>2023-04-16T13:01:05.194Z</time>
      </trkpt>
      <trkpt lat="48.55965" lon="2.75399">
        <ele>78</ele>
        <time>2023-04-16T13:01:09.384Z</time>
      </trkpt>
      <trkpt lat="48.55958" lon="2.75409">
        <ele>78</ele>
        <time>2023-04-16T13:01:14.151Z</time>
      </trkpt>
      <trkpt lat="48.55954" lon="2.75416">
        <ele>79</ele>
        <time>2023-04-16T13:01:18.855Z</time>
      </trkpt>
      <trkpt lat="48.55952" lon="2.7542">
        <ele>79</ele>
        <time>2023-04-16T13:01:22.752Z</time>
      </trkpt>
      <trkpt lat="48.55948" lon="2.75428">
        <ele>79</ele>
        <time>2023-04-16T13:01:26.942Z</time>
      </trkpt>
      <trkpt lat="48.55944" lon="2.75435">
        <ele>82</ele>
        <time>2023-04-16T13:01:31.610Z</time>
      </trkpt>
      <trkpt lat="48.5594" lon="2.75441">
        <ele>82</ele>
        <time>2023-04-16T13:01:35.802Z</time>
      </trkpt>
      <trkpt lat="48.55935" lon="2.75448">
        <ele>82</ele>
        <time>2023-04-16T13:01:39.992Z</time>
      </trkpt>
      <trkpt lat="48.5593" lon="2.75456">
        <ele>82</ele>
        <time>2023-04-16T13:01:44.061Z</time>
      </trkpt>
      <trkpt lat="48.55927" lon="2.75462">
        <ele>84</ele>
        <time>2023-04-16T13:01:48.130Z</time>
      </trkpt>
      <trkpt lat="48.55924" lon="2.75468">
        <ele>84</ele>
        <time>2023-04-16T13:01:52.798Z</time>
      </trkpt>
      <trkpt lat="48.5592" lon="2.75474">
        <ele>84</ele>
        <time>2023-04-16T13:01:57.586Z</time>
      </trkpt>
      <trkpt lat="48.55915" lon="2.7548">
        <ele>84</ele>
        <time>2023-04-16T13:02:01.534Z</time>
      </trkpt>
      <trkpt lat="48.55911" lon="2.75485">
        <ele>84</ele>
        <time>2023-04-16T13:02:05.722Z</time>
      </trkpt>
      <trkpt lat="48.55906" lon="2.75491">
        <ele>84</ele>
        <time>2023-04-16T13:02:10.030Z</time>
      </trkpt>
      <trkpt lat="48.55903" lon="2.75496">
        <ele>84</ele>
        <time>2023-04-16T13:02:14.852Z</time>
      </trkpt>
      <trkpt lat="48.559" lon="2.755">
        <ele>84</ele>
        <time>2023-04-16T13:02:18.747Z</time>
      </trkpt>
      <trkpt lat="48.55896" lon="2.75507">
        <ele>84</ele>
        <time>2023-04-16T13:02:22.937Z</time>
      </trkpt>
      <trkpt lat="48.55891" lon="2.75514">
        <ele>83</ele>
        <time>2023-04-16T13:02:27.127Z</time>
      </trkpt>
      <trkpt lat="48.55888" lon="2.75523">
        <ele>83</ele>
        <time>2023-04-16T13:02:32.077Z</time>
      </trkpt>
      <trkpt lat="48.55884" lon="2.7553">
        <ele>83</ele>
        <time>2023-04-16T13:02:35.980Z</time>
      </trkpt>
      <trkpt lat="48.5588" lon="2.75538">
        <ele>83</ele>
        <time>2023-04-16T13:02:39.928Z</time>
      </trkpt>
      <trkpt lat="48.55877" lon="2.75546">
        <ele>82</ele>
        <time>2023-04-16T13:02:44.714Z</time>
      </trkpt>
      <trkpt lat="48.55874" lon="2.75553">
        <ele>83</ele>
        <time>2023-04-16T13:02:48.661Z</time>
      </trkpt>
      <trkpt lat="48.55869" lon="2.7556">
        <ele>83</ele>
        <time>2023-04-16T13:02:53.327Z</time>
      </trkpt>
      <trkpt lat="48.55866" lon="2.75566">
        <ele>83</ele>
        <time>2023-04-16T13:02:57.986Z</time>
      </trkpt>
      <trkpt lat="48.55863" lon="2.75573">
        <ele>83</ele>
        <time>2023-04-16T13:03:01.823Z</time>
      </trkpt>
      <trkpt lat="48.55859" lon="2.75581">
        <ele>83</ele>
        <time>2023-04-16T13:03:06.728Z</time>
      </trkpt>
      <trkpt lat="48.55857" lon="2.75586">
        <ele>83</ele>
        <time>2023-04-16T13:03:10.919Z</time>
      </trkpt>
      <trkpt lat="48.55855" lon="2.75593">
        <ele>83</ele>
        <time>2023-04-16T13:03:14.991Z</time>
      </trkpt>
      <trkpt lat="48.55854" lon="2.756">
        <ele>83</ele>
        <time>2023-04-16T13:03:19.782Z</time>
      </trkpt>
      <trkpt lat="48.55849" lon="2.75606">
        <ele>83</ele>
        <time>2023-04-16T13:03:24.573Z</time>
      </trkpt>
      <trkpt lat="48.55844" lon="2.75613">
        <ele>85</ele>
        <time>2023-04-16T13:03:28.764Z</time>
      </trkpt>
      <trkpt lat="48.55839" lon="2.75619">
        <ele>85</ele>
        <time>2023-04-16T13:03:32.955Z</time>
      </trkpt>
      <trkpt lat="48.55835" lon="2.75626">
        <ele>85</ele>
        <time>2023-04-16T13:03:37.743Z</time>
      </trkpt>
      <trkpt lat="48.55832" lon="2.75633">
        <ele>85</ele>
        <time>2023-04-16T13:03:41.932Z</time>
      </trkpt>
      <trkpt lat="48.55827" lon="2.75641">
        <ele>85</ele>
        <time>2023-04-16T13:03:46.120Z</time>
      </trkpt>
      <trkpt lat="48.55824" lon="2.75651">
        <ele>85</ele>
        <time>2023-04-16T13:03:50.787Z</time>
      </trkpt>
      <trkpt lat="48.5582" lon="2.75659">
        <ele>85</ele>
        <time>2023-04-16T13:03:54.976Z</time>
      </trkpt>
      <trkpt lat="48.55817" lon="2.75666">
        <ele>86</ele>
        <time>2023-04-16T13:03:59.523Z</time>
      </trkpt>
      <trkpt lat="48.55814" lon="2.75674">
        <ele>86</ele>
        <time>2023-04-16T13:04:03.590Z</time>
      </trkpt>
      <trkpt lat="48.55808" lon="2.75683">
        <ele>86</ele>
        <time>2023-04-16T13:04:07.657Z</time>
      </trkpt>
      <trkpt lat="48.55805" lon="2.75688">
        <ele>86</ele>
        <time>2023-04-16T13:04:11.723Z</time>
      </trkpt>
      <trkpt lat="48.55802" lon="2.75695">
        <ele>86</ele>
        <time>2023-04-16T13:04:16.148Z</time>
      </trkpt>
      <trkpt lat="48.55799" lon="2.75702">
        <ele>86</ele>
        <time>2023-04-16T13:04:20.554Z</time>
      </trkpt>
      <trkpt lat="48.55797" lon="2.75709">
        <ele>86</ele>
        <time>2023-04-16T13:04:24.759Z</time>
      </trkpt>
      <trkpt lat="48.55794" lon="2.75717">
        <ele>86</ele>
        <time>2023-04-16T13:04:29.418Z</time>
      </trkpt>
      <trkpt lat="48.55789" lon="2.75724">
        <ele>86</ele>
        <time>2023-04-16T13:04:33.418Z</time>
      </trkpt>
      <trkpt lat="48.55783" lon="2.75731">
        <ele>86</ele>
        <time>2023-04-16T13:04:38.030Z</time>
      </trkpt>
      <trkpt lat="48.55779" lon="2.75736">
        <ele>86</ele>
        <time>2023-04-16T13:04:42.573Z</time>
      </trkpt>
      <trkpt lat="48.55774" lon="2.75742">
        <ele>86</ele>
        <time>2023-04-16T13:04:46.758Z</time>
      </trkpt>
      <trkpt lat="48.55766" lon="2.75746">
        <ele>86</ele>
        <time>2023-04-16T13:04:51.465Z</time>
      </trkpt>
      <trkpt lat="48.5576" lon="2.75751">
        <ele>85</ele>
        <time>2023-04-16T13:04:55.604Z</time>
      </trkpt>
      <trkpt lat="48.55755" lon="2.75758">
        <ele>85</ele>
        <time>2023-04-16T13:05:00.864Z</time>
      </trkpt>
      <trkpt lat="48.55752" lon="2.75763">
        <ele>85</ele>
        <time>2023-04-16T13:05:04.790Z</time>
      </trkpt>
      <trkpt lat="48.55749" lon="2.7577">
        <ele>84</ele>
        <time>2023-04-16T13:05:10.224Z</time>
      </trkpt>
      <trkpt lat="48.55745" lon="2.75776">
        <ele>84</ele>
        <time>2023-04-16T13:05:14.335Z</time>
      </trkpt>
      <trkpt lat="48.55742" lon="2.7578">
        <ele>84</ele>
        <time>2023-04-16T13:05:18.980Z</time>
      </trkpt>
      <trkpt lat="48.55734" lon="2.75789">
        <ele>84</ele>
        <time>2023-04-16T13:05:24.002Z</time>
      </trkpt>
      <trkpt lat="48.55729" lon="2.75798">
        <ele>83</ele>
        <time>2023-04-16T13:05:28.186Z</time>
      </trkpt>
      <trkpt lat="48.55724" lon="2.75808">
        <ele>83</ele>
        <time>2023-04-16T13:05:32.371Z</time>
      </trkpt>
      <trkpt lat="48.55719" lon="2.75815">
        <ele>83</ele>
        <time>2023-04-16T13:05:36.555Z</time>
      </trkpt>
      <trkpt lat="48.55716" lon="2.75823">
        <ele>83</ele>
        <time>2023-04-16T13:05:40.739Z</time>
      </trkpt>
      <trkpt lat="48.55712" lon="2.75829">
        <ele>83</ele>
        <time>2023-04-16T13:05:44.664Z</time>
      </trkpt>
      <trkpt lat="48.55707" lon="2.75838">
        <ele>84</ele>
        <time>2023-04-16T13:05:48.728Z</time>
      </trkpt>
      <trkpt lat="48.55702" lon="2.75846">
        <ele>84</ele>
        <time>2023-04-16T13:05:52.910Z</time>
      </trkpt>
      <trkpt lat="48.55697" lon="2.75853">
        <ele>84</ele>
        <time>2023-04-16T13:05:57.571Z</time>
      </trkpt>
      <trkpt lat="48.55695" lon="2.75859">
        <ele>84</ele>
        <time>2023-04-16T13:06:02.234Z</time>
      </trkpt>
      <trkpt lat="48.55692" lon="2.75865">
        <ele>84</ele>
        <time>2023-04-16T13:06:06.418Z</time>
      </trkpt>
      <trkpt lat="48.55688" lon="2.75871">
        <ele>84</ele>
        <time>2023-04-16T13:06:10.364Z</time>
      </trkpt>
      <trkpt lat="48.55684" lon="2.75877">
        <ele>84</ele>
        <time>2023-04-16T13:06:14.418Z</time>
      </trkpt>
      <trkpt lat="48.5568" lon="2.75884">
        <ele>84</ele>
        <time>2023-04-16T13:06:18.970Z</time>
      </trkpt>
      <trkpt lat="48.55676" lon="2.75893">
        <ele>84</ele>
        <time>2023-04-16T13:06:24.110Z</time>
      </trkpt>
      <trkpt lat="48.55673" lon="2.75901">
        <ele>84</ele>
        <time>2023-04-16T13:06:28.173Z</time>
      </trkpt>
      <trkpt lat="48.55667" lon="2.7591">
        <ele>83</ele>
        <time>2023-04-16T13:06:33.240Z</time>
      </trkpt>
      <trkpt lat="48.55663" lon="2.75917">
        <ele>83</ele>
        <time>2023-04-16T13:06:37.378Z</time>
      </trkpt>
      <trkpt lat="48.55659" lon="2.75925">
        <ele>83</ele>
        <time>2023-04-16T13:06:41.418Z</time>
      </trkpt>
      <trkpt lat="48.55656" lon="2.75934">
        <ele>83</ele>
        <time>2023-04-16T13:06:45.967Z</time>
      </trkpt>
      <trkpt lat="48.55652" lon="2.75942">
        <ele>83</ele>
        <time>2023-04-16T13:06:50.072Z</time>
      </trkpt>
      <trkpt lat="48.5565" lon="2.7595">
        <ele>83</ele>
        <time>2023-04-16T13:06:54.113Z</time>
      </trkpt>
      <trkpt lat="48.55647" lon="2.75962">
        <ele>83</ele>
        <time>2023-04-16T13:06:58.773Z</time>
      </trkpt>
      <trkpt lat="48.55644" lon="2.7597">
        <ele>83</ele>
        <time>2023-04-16T13:07:03.418Z</time>
      </trkpt>
      <trkpt lat="48.55641" lon="2.75977">
        <ele>83</ele>
        <time>2023-04-16T13:07:07.888Z</time>
      </trkpt>
      <trkpt lat="48.55637" lon="2.75982">
        <ele>83</ele>
        <time>2023-04-16T13:07:11.901Z</time>
      </trkpt>
      <trkpt lat="48.55634" lon="2.75988">
        <ele>83</ele>
        <time>2023-04-16T13:07:15.966Z</time>
      </trkpt>
      <trkpt lat="48.55633" lon="2.75998">
        <ele>83</ele>
        <time>2023-04-16T13:07:20.150Z</time>
      </trkpt>
      <trkpt lat="48.55631" lon="2.76011">
        <ele>83</ele>
        <time>2023-04-16T13:07:24.813Z</time>
      </trkpt>
      <trkpt lat="48.55629" lon="2.7602">
        <ele>82</ele>
        <time>2023-04-16T13:07:29.876Z</time>
      </trkpt>
      <trkpt lat="48.55627" lon="2.76029">
        <ele>82</ele>
        <time>2023-04-16T13:07:34.374Z</time>
      </trkpt>
      <trkpt lat="48.55625" lon="2.76037">
        <ele>82</ele>
        <time>2023-04-16T13:07:39.154Z</time>
      </trkpt>
      <trkpt lat="48.55624" lon="2.76045">
        <ele>82</ele>
        <time>2023-04-16T13:07:43.338Z</time>
      </trkpt>
      <trkpt lat="48.55622" lon="2.76056">
        <ele>82</ele>
        <time>2023-04-16T13:07:47.522Z</time>
      </trkpt>
      <trkpt lat="48.55621" lon="2.76066">
        <ele>82</ele>
        <time>2023-04-16T13:07:51.567Z</time>
      </trkpt>
      <trkpt lat="48.55622" lon="2.76074">
        <ele>81</ele>
        <time>2023-04-16T13:07:55.531Z</time>
      </trkpt>
      <trkpt lat="48.55623" lon="2.76081">
        <ele>81</ele>
        <time>2023-04-16T13:07:59.716Z</time>
      </trkpt>
      <trkpt lat="48.55624" lon="2.76089">
        <ele>81</ele>
        <time>2023-04-16T13:08:03.780Z</time>
      </trkpt>
      <trkpt lat="48.55624" lon="2.76099">
        <ele>81</ele>
        <time>2023-04-16T13:08:08.321Z</time>
      </trkpt>
      <trkpt lat="48.55625" lon="2.76108">
        <ele>81</ele>
        <time>2023-04-16T13:08:12.384Z</time>
      </trkpt>
      <trkpt lat="48.55626" lon="2.76117">
        <ele>81</ele>
        <time>2023-04-16T13:08:16.567Z</time>
      </trkpt>
      <trkpt lat="48.55627" lon="2.76126">
        <ele>82</ele>
        <time>2023-04-16T13:08:21.205Z</time>
      </trkpt>
      <trkpt lat="48.55627" lon="2.76137">
        <ele>82</ele>
        <time>2023-04-16T13:08:25.653Z</time>
      </trkpt>
      <trkpt lat="48.55627" lon="2.76144">
        <ele>82</ele>
        <time>2023-04-16T13:08:29.718Z</time>
      </trkpt>
      <trkpt lat="48.55627" lon="2.76154">
        <ele>83</ele>
        <time>2023-04-16T13:08:34.204Z</time>
      </trkpt>
      <trkpt lat="48.55626" lon="2.76163">
        <ele>83</ele>
        <time>2023-04-16T13:08:37.966Z</time>
      </trkpt>
      <trkpt lat="48.55626" lon="2.76175">
        <ele>83</ele>
        <time>2023-04-16T13:08:42.388Z</time>
      </trkpt>
      <trkpt lat="48.55626" lon="2.76183">
        <ele>83</ele>
        <time>2023-04-16T13:08:46.933Z</time>
      </trkpt>
      <trkpt lat="48.55626" lon="2.76193">
        <ele>83</ele>
        <time>2023-04-16T13:08:50.992Z</time>
      </trkpt>
      <trkpt lat="48.55625" lon="2.76204">
        <ele>83</ele>
        <time>2023-04-16T13:08:55.367Z</time>
      </trkpt>
      <trkpt lat="48.55625" lon="2.76213">
        <ele>83</ele>
        <time>2023-04-16T13:08:59.717Z</time>
      </trkpt>
      <trkpt lat="48.55624" lon="2.76222">
        <ele>83</ele>
        <time>2023-04-16T13:09:04.379Z</time>
      </trkpt>
      <trkpt lat="48.55623" lon="2.76231">
        <ele>83</ele>
        <time>2023-04-16T13:09:08.802Z</time>
      </trkpt>
      <trkpt lat="48.55623" lon="2.76242">
        <ele>83</ele>
        <time>2023-04-16T13:09:13.104Z</time>
      </trkpt>
      <trkpt lat="48.55622" lon="2.76251">
        <ele>83</ele>
        <time>2023-04-16T13:09:17.765Z</time>
      </trkpt>
      <trkpt lat="48.55621" lon="2.76259">
        <ele>83</ele>
        <time>2023-04-16T13:09:21.829Z</time>
      </trkpt>
      <trkpt lat="48.55621" lon="2.76268">
        <ele>83</ele>
        <time>2023-04-16T13:09:25.781Z</time>
      </trkpt>
      <trkpt lat="48.55619" lon="2.76278">
        <ele>83</ele>
        <time>2023-04-16T13:09:30.555Z</time>
      </trkpt>
      <trkpt lat="48.55619" lon="2.76286">
        <ele>83</ele>
        <time>2023-04-16T13:09:34.745Z</time>
      </trkpt>
      <trkpt lat="48.55618" lon="2.76294">
        <ele>84</ele>
        <time>2023-04-16T13:09:38.690Z</time>
      </trkpt>
      <trkpt lat="48.55616" lon="2.76302">
        <ele>84</ele>
        <time>2023-04-16T13:09:42.992Z</time>
      </trkpt>
      <trkpt lat="48.55614" lon="2.76307">
        <ele>84</ele>
        <time>2023-04-16T13:09:47.535Z</time>
      </trkpt>
      <trkpt lat="48.55614" lon="2.76313">
        <ele>84</ele>
        <time>2023-04-16T13:09:51.716Z</time>
      </trkpt>
      <trkpt lat="48.55612" lon="2.76313">
        <ele>84</ele>
        <time>2023-04-16T13:09:56.311Z</time>
      </trkpt>
      <trkpt lat="48.5561" lon="2.76314">
        <ele>84</ele>
        <time>2023-04-16T13:10:00.923Z</time>
      </trkpt>
      <trkpt lat="48.55615" lon="2.76324">
        <ele>85</ele>
        <time>2023-04-16T13:11:46.402Z</time>
      </trkpt>
      <trkpt lat="48.55612" lon="2.76328">
        <ele>85</ele>
        <time>2023-04-16T13:11:50.833Z</time>
      </trkpt>
      <trkpt lat="48.55612" lon="2.76331">
        <ele>85</ele>
        <time>2023-04-16T13:11:54.906Z</time>
      </trkpt>
      <trkpt lat="48.55609" lon="2.76338">
        <ele>85</ele>
        <time>2023-04-16T13:11:59.540Z</time>
      </trkpt>
      <trkpt lat="48.55605" lon="2.76347">
        <ele>86</ele>
        <time>2023-04-16T13:12:03.613Z</time>
      </trkpt>
      <trkpt lat="48.55603" lon="2.76356">
        <ele>86</ele>
        <time>2023-04-16T13:12:07.413Z</time>
      </trkpt>
      <trkpt lat="48.55599" lon="2.76364">
        <ele>86</ele>
        <time>2023-04-16T13:12:12.165Z</time>
      </trkpt>
      <trkpt lat="48.55596" lon="2.76373">
        <ele>87</ele>
        <time>2023-04-16T13:12:16.676Z</time>
      </trkpt>
      <trkpt lat="48.55595" lon="2.76382">
        <ele>86</ele>
        <time>2023-04-16T13:12:20.814Z</time>
      </trkpt>
      <trkpt lat="48.55592" lon="2.76389">
        <ele>86</ele>
        <time>2023-04-16T13:12:25.418Z</time>
      </trkpt>
      <trkpt lat="48.55588" lon="2.76397">
        <ele>86</ele>
        <time>2023-04-16T13:12:29.561Z</time>
      </trkpt>
      <trkpt lat="48.55585" lon="2.76404">
        <ele>85</ele>
        <time>2023-04-16T13:12:33.757Z</time>
      </trkpt>
      <trkpt lat="48.55581" lon="2.76412">
        <ele>85</ele>
        <time>2023-04-16T13:12:38.187Z</time>
      </trkpt>
      <trkpt lat="48.55578" lon="2.76417">
        <ele>85</ele>
        <time>2023-04-16T13:12:42.149Z</time>
      </trkpt>
      <trkpt lat="48.55574" lon="2.76422">
        <ele>85</ele>
        <time>2023-04-16T13:12:46.943Z</time>
      </trkpt>
      <trkpt lat="48.55569" lon="2.76428">
        <ele>82</ele>
        <time>2023-04-16T13:12:51.758Z</time>
      </trkpt>
      <trkpt lat="48.55565" lon="2.76437">
        <ele>81</ele>
        <time>2023-04-16T13:12:56.914Z</time>
      </trkpt>
      <trkpt lat="48.55562" lon="2.76442">
        <ele>81</ele>
        <time>2023-04-16T13:13:00.850Z</time>
      </trkpt>
      <trkpt lat="48.55559" lon="2.7645">
        <ele>81</ele>
        <time>2023-04-16T13:13:05.523Z</time>
      </trkpt>
      <trkpt lat="48.55557" lon="2.76459">
        <ele>81</ele>
        <time>2023-04-16T13:13:10.188Z</time>
      </trkpt>
      <trkpt lat="48.55555" lon="2.76465">
        <ele>81</ele>
        <time>2023-04-16T13:13:13.768Z</time>
      </trkpt>
      <trkpt lat="48.55552" lon="2.76473">
        <ele>81</ele>
        <time>2023-04-16T13:13:18.852Z</time>
      </trkpt>
      <trkpt lat="48.55548" lon="2.76479">
        <ele>81</ele>
        <time>2023-04-16T13:13:22.992Z</time>
      </trkpt>
      <trkpt lat="48.55545" lon="2.76486">
        <ele>81</ele>
        <time>2023-04-16T13:13:26.943Z</time>
      </trkpt>
      <trkpt lat="48.55542" lon="2.76495">
        <ele>81</ele>
        <time>2023-04-16T13:13:32.055Z</time>
      </trkpt>
      <trkpt lat="48.55539" lon="2.76502">
        <ele>83</ele>
        <time>2023-04-16T13:13:35.920Z</time>
      </trkpt>
      <trkpt lat="48.55536" lon="2.76509">
        <ele>83</ele>
        <time>2023-04-16T13:13:40.529Z</time>
      </trkpt>
      <trkpt lat="48.55534" lon="2.76519">
        <ele>84</ele>
        <time>2023-04-16T13:13:45.267Z</time>
      </trkpt>
      <trkpt lat="48.55531" lon="2.76528">
        <ele>84</ele>
        <time>2023-04-16T13:13:49.383Z</time>
      </trkpt>
      <trkpt lat="48.55529" lon="2.76537">
        <ele>84</ele>
        <time>2023-04-16T13:13:53.570Z</time>
      </trkpt>
      <trkpt lat="48.55526" lon="2.76545">
        <ele>83</ele>
        <time>2023-04-16T13:13:57.756Z</time>
      </trkpt>
      <trkpt lat="48.55524" lon="2.76552">
        <ele>83</ele>
        <time>2023-04-16T13:14:02.418Z</time>
      </trkpt>
      <trkpt lat="48.55522" lon="2.76558">
        <ele>83</ele>
        <time>2023-04-16T13:14:06.774Z</time>
      </trkpt>
      <trkpt lat="48.55521" lon="2.76567">
        <ele>83</ele>
        <time>2023-04-16T13:14:10.919Z</time>
      </trkpt>
      <trkpt lat="48.55518" lon="2.76575">
        <ele>83</ele>
        <time>2023-04-16T13:14:14.749Z</time>
      </trkpt>
      <trkpt lat="48.55515" lon="2.76584">
        <ele>83</ele>
        <time>2023-04-16T13:14:19.378Z</time>
      </trkpt>
      <trkpt lat="48.55514" lon="2.76591">
        <ele>83</ele>
        <time>2023-04-16T13:14:23.328Z</time>
      </trkpt>
      <trkpt lat="48.55512" lon="2.76597">
        <ele>83</ele>
        <time>2023-04-16T13:14:27.517Z</time>
      </trkpt>
      <trkpt lat="48.5551" lon="2.76606">
        <ele>83</ele>
        <time>2023-04-16T13:14:31.346Z</time>
      </trkpt>
      <trkpt lat="48.55508" lon="2.76616">
        <ele>83</ele>
        <time>2023-04-16T13:14:36.015Z</time>
      </trkpt>
      <trkpt lat="48.55506" lon="2.76624">
        <ele>83</ele>
        <time>2023-04-16T13:14:39.418Z</time>
      </trkpt>
      <trkpt lat="48.55504" lon="2.76632">
        <ele>83</ele>
        <time>2023-04-16T13:14:44.157Z</time>
      </trkpt>
      <trkpt lat="48.55503" lon="2.7664">
        <ele>83</ele>
        <time>2023-04-16T13:14:48.106Z</time>
      </trkpt>
      <trkpt lat="48.55501" lon="2.76647">
        <ele>83</ele>
        <time>2023-04-16T13:14:52.175Z</time>
      </trkpt>
      <trkpt lat="48.55498" lon="2.76656">
        <ele>83</ele>
        <time>2023-04-16T13:14:56.784Z</time>
      </trkpt>
      <trkpt lat="48.55495" lon="2.76663">
        <ele>83</ele>
        <time>2023-04-16T13:15:01.937Z</time>
      </trkpt>
      <trkpt lat="48.55494" lon="2.7667">
        <ele>83</ele>
        <time>2023-04-16T13:15:06.006Z</time>
      </trkpt>
      <trkpt lat="48.55494" lon="2.76678">
        <ele>83</ele>
        <time>2023-04-16T13:15:10.555Z</time>
      </trkpt>
      <trkpt lat="48.55492" lon="2.76686">
        <ele>83</ele>
        <time>2023-04-16T13:15:15.255Z</time>
      </trkpt>
      <trkpt lat="48.5549" lon="2.76692">
        <ele>83</ele>
        <time>2023-04-16T13:15:19.289Z</time>
      </trkpt>
      <trkpt lat="48.55489" lon="2.76701">
        <ele>83</ele>
        <time>2023-04-16T13:15:23.957Z</time>
      </trkpt>
      <trkpt lat="48.55489" lon="2.76709">
        <ele>83</ele>
        <time>2023-04-16T13:15:27.907Z</time>
      </trkpt>
      <trkpt lat="48.5549" lon="2.76719">
        <ele>83</ele>
        <time>2023-04-16T13:15:32.498Z</time>
      </trkpt>
      <trkpt lat="48.55489" lon="2.76727">
        <ele>83</ele>
        <time>2023-04-16T13:15:36.523Z</time>
      </trkpt>
      <trkpt lat="48.55487" lon="2.76734">
        <ele>83</ele>
        <time>2023-04-16T13:15:40.590Z</time>
      </trkpt>
      <trkpt lat="48.55485" lon="2.76742">
        <ele>85</ele>
        <time>2023-04-16T13:15:45.326Z</time>
      </trkpt>
      <trkpt lat="48.55481" lon="2.76749">
        <ele>85</ele>
        <time>2023-04-16T13:15:49.201Z</time>
      </trkpt>
      <trkpt lat="48.55479" lon="2.76756">
        <ele>85</ele>
        <time>2023-04-16T13:15:53.669Z</time>
      </trkpt>
      <trkpt lat="48.55477" lon="2.76765">
        <ele>86</ele>
        <time>2023-04-16T13:15:57.811Z</time>
      </trkpt>
      <trkpt lat="48.55477" lon="2.76774">
        <ele>86</ele>
        <time>2023-04-16T13:16:02.775Z</time>
      </trkpt>
      <trkpt lat="48.5548" lon="2.76779">
        <ele>86</ele>
        <time>2023-04-16T13:16:06.781Z</time>
      </trkpt>
      <trkpt lat="48.55485" lon="2.76784">
        <ele>86</ele>
        <time>2023-04-16T13:16:10.967Z</time>
      </trkpt>
      <trkpt lat="48.55489" lon="2.7679">
        <ele>85</ele>
        <time>2023-04-16T13:16:15.132Z</time>
      </trkpt>
      <trkpt lat="48.55494" lon="2.76796">
        <ele>86</ele>
        <time>2023-04-16T13:16:19.794Z</time>
      </trkpt>
      <trkpt lat="48.55499" lon="2.76801">
        <ele>86</ele>
        <time>2023-04-16T13:16:23.858Z</time>
      </trkpt>
      <trkpt lat="48.55505" lon="2.76807">
        <ele>86</ele>
        <time>2023-04-16T13:16:28.754Z</time>
      </trkpt>
      <trkpt lat="48.55509" lon="2.7681">
        <ele>86</ele>
        <time>2023-04-16T13:16:32.827Z</time>
      </trkpt>
      <trkpt lat="48.55514" lon="2.76814">
        <ele>84</ele>
        <time>2023-04-16T13:16:37.012Z</time>
      </trkpt>
      <trkpt lat="48.55519" lon="2.76819">
        <ele>86</ele>
        <time>2023-04-16T13:16:41.500Z</time>
      </trkpt>
      <trkpt lat="48.55523" lon="2.76826">
        <ele>86</ele>
        <time>2023-04-16T13:16:45.620Z</time>
      </trkpt>
      <trkpt lat="48.55526" lon="2.76832">
        <ele>86</ele>
        <time>2023-04-16T13:16:49.767Z</time>
      </trkpt>
      <trkpt lat="48.55532" lon="2.76835">
        <ele>86</ele>
        <time>2023-04-16T13:16:53.758Z</time>
      </trkpt>
      <trkpt lat="48.55536" lon="2.76843">
        <ele>86</ele>
        <time>2023-04-16T13:16:57.946Z</time>
      </trkpt>
      <trkpt lat="48.55539" lon="2.7685">
        <ele>87</ele>
        <time>2023-04-16T13:17:02.635Z</time>
      </trkpt>
      <trkpt lat="48.55543" lon="2.76855">
        <ele>85</ele>
        <time>2023-04-16T13:17:06.676Z</time>
      </trkpt>
      <trkpt lat="48.55549" lon="2.7686">
        <ele>85</ele>
        <time>2023-04-16T13:17:11.339Z</time>
      </trkpt>
      <trkpt lat="48.55556" lon="2.76864">
        <ele>85</ele>
        <time>2023-04-16T13:17:15.836Z</time>
      </trkpt>
      <trkpt lat="48.5556" lon="2.76869">
        <ele>85</ele>
        <time>2023-04-16T13:17:19.805Z</time>
      </trkpt>
      <trkpt lat="48.55566" lon="2.76874">
        <ele>85</ele>
        <time>2023-04-16T13:17:24.825Z</time>
      </trkpt>
      <trkpt lat="48.55569" lon="2.76877">
        <ele>86</ele>
        <time>2023-04-16T13:17:29.011Z</time>
      </trkpt>
      <trkpt lat="48.55569" lon="2.76881">
        <ele>86</ele>
        <time>2023-04-16T13:17:33.555Z</time>
      </trkpt>
      <trkpt lat="48.55571" lon="2.76886">
        <ele>87</ele>
        <time>2023-04-16T13:17:37.741Z</time>
      </trkpt>
      <trkpt lat="48.55576" lon="2.76888">
        <ele>87</ele>
        <time>2023-04-16T13:17:43.003Z</time>
      </trkpt>
      <trkpt lat="48.55581" lon="2.76891">
        <ele>87</ele>
        <time>2023-04-16T13:17:47.189Z</time>
      </trkpt>
      <trkpt lat="48.55585" lon="2.76894">
        <ele>87</ele>
        <time>2023-04-16T13:17:51.976Z</time>
      </trkpt>
      <trkpt lat="48.5559" lon="2.76896">
        <ele>87</ele>
        <time>2023-04-16T13:17:56.162Z</time>
      </trkpt>
      <trkpt lat="48.55595" lon="2.76898">
        <ele>87</ele>
        <time>2023-04-16T13:18:00.706Z</time>
      </trkpt>
      <trkpt lat="48.55599" lon="2.76901">
        <ele>86</ele>
        <time>2023-04-16T13:18:05.967Z</time>
      </trkpt>
      <trkpt lat="48.55602" lon="2.76904">
        <ele>87</ele>
        <time>2023-04-16T13:18:10.153Z</time>
      </trkpt>
      <trkpt lat="48.55606" lon="2.76908">
        <ele>87</ele>
        <time>2023-04-16T13:18:14.340Z</time>
      </trkpt>
      <trkpt lat="48.5561" lon="2.76912">
        <ele>87</ele>
        <time>2023-04-16T13:18:18.527Z</time>
      </trkpt>
      <trkpt lat="48.55614" lon="2.76916">
        <ele>87</ele>
        <time>2023-04-16T13:18:23.908Z</time>
      </trkpt>
      <trkpt lat="48.55618" lon="2.7692">
        <ele>87</ele>
        <time>2023-04-16T13:18:29.172Z</time>
      </trkpt>
      <trkpt lat="48.55623" lon="2.76923">
        <ele>87</ele>
        <time>2023-04-16T13:18:33.958Z</time>
      </trkpt>
      <trkpt lat="48.55628" lon="2.76927">
        <ele>85</ele>
        <time>2023-04-16T13:18:38.145Z</time>
      </trkpt>
      <trkpt lat="48.55631" lon="2.76931">
        <ele>85</ele>
        <time>2023-04-16T13:18:41.733Z</time>
      </trkpt>
      <trkpt lat="48.55636" lon="2.76934">
        <ele>85</ele>
        <time>2023-04-16T13:18:47.118Z</time>
      </trkpt>
      <trkpt lat="48.55641" lon="2.76938">
        <ele>85</ele>
        <time>2023-04-16T13:18:51.783Z</time>
      </trkpt>
      <trkpt lat="48.55645" lon="2.76943">
        <ele>85</ele>
        <time>2023-04-16T13:18:55.971Z</time>
      </trkpt>
      <trkpt lat="48.5565" lon="2.76948">
        <ele>85</ele>
        <time>2023-04-16T13:19:00.517Z</time>
      </trkpt>
      <trkpt lat="48.55655" lon="2.76952">
        <ele>84</ele>
        <time>2023-04-16T13:19:05.062Z</time>
      </trkpt>
      <trkpt lat="48.5566" lon="2.76957">
        <ele>84</ele>
        <time>2023-04-16T13:19:09.727Z</time>
      </trkpt>
      <trkpt lat="48.55665" lon="2.7696">
        <ele>85</ele>
        <time>2023-04-16T13:19:14.418Z</time>
      </trkpt>
      <trkpt lat="48.5567" lon="2.76963">
        <ele>85</ele>
        <time>2023-04-16T13:19:19.131Z</time>
      </trkpt>
      <trkpt lat="48.55675" lon="2.76964">
        <ele>85</ele>
        <time>2023-04-16T13:19:23.127Z</time>
      </trkpt>
      <trkpt lat="48.55681" lon="2.76968">
        <ele>85</ele>
        <time>2023-04-16T13:19:28.094Z</time>
      </trkpt>
      <trkpt lat="48.55685" lon="2.76972">
        <ele>86</ele>
        <time>2023-04-16T13:19:31.980Z</time>
      </trkpt>
      <trkpt lat="48.5569" lon="2.76979">
        <ele>86</ele>
        <time>2023-04-16T13:19:36.957Z</time>
      </trkpt>
      <trkpt lat="48.55694" lon="2.76982">
        <ele>86</ele>
        <time>2023-04-16T13:19:40.949Z</time>
      </trkpt>
      <trkpt lat="48.55699" lon="2.76987">
        <ele>88</ele>
        <time>2023-04-16T13:19:45.418Z</time>
      </trkpt>
      <trkpt lat="48.55703" lon="2.76992">
        <ele>88</ele>
        <time>2023-04-16T13:19:50.036Z</time>
      </trkpt>
      <trkpt lat="48.55707" lon="2.76998">
        <ele>88</ele>
        <time>2023-04-16T13:19:54.578Z</time>
      </trkpt>
      <trkpt lat="48.55713" lon="2.77001">
        <ele>88</ele>
        <time>2023-04-16T13:19:59.120Z</time>
      </trkpt>
      <trkpt lat="48.55718" lon="2.77003">
        <ele>88</ele>
        <time>2023-04-16T13:20:03.781Z</time>
      </trkpt>
      <trkpt lat="48.55723" lon="2.77008">
        <ele>88</ele>
        <time>2023-04-16T13:20:09.162Z</time>
      </trkpt>
      <trkpt lat="48.55728" lon="2.77013">
        <ele>88</ele>
        <time>2023-04-16T13:20:13.692Z</time>
      </trkpt>
      <trkpt lat="48.55733" lon="2.77015">
        <ele>89</ele>
        <time>2023-04-16T13:20:17.781Z</time>
      </trkpt>
      <trkpt lat="48.55732" lon="2.77013">
        <ele>88</ele>
        <time>2023-04-16T13:20:21.970Z</time>
      </trkpt>
      <trkpt lat="48.55732" lon="2.77013">
        <ele>88</ele>
        <time>2023-04-16T13:20:27.119Z</time>
      </trkpt>
      <trkpt lat="48.55738" lon="2.77019">
        <ele>88</ele>
        <time>2023-04-16T13:20:31.788Z</time>
      </trkpt>
      <trkpt lat="48.55742" lon="2.77024">
        <ele>88</ele>
        <time>2023-04-16T13:20:35.973Z</time>
      </trkpt>
      <trkpt lat="48.55747" lon="2.7703">
        <ele>88</ele>
        <time>2023-04-16T13:20:41.113Z</time>
      </trkpt>
      <trkpt lat="48.55751" lon="2.77032">
        <ele>88</ele>
        <time>2023-04-16T13:20:45.176Z</time>
      </trkpt>
      <trkpt lat="48.55755" lon="2.77036">
        <ele>88</ele>
        <time>2023-04-16T13:20:49.717Z</time>
      </trkpt>
      <trkpt lat="48.5576" lon="2.77043">
        <ele>88</ele>
        <time>2023-04-16T13:20:57.182Z</time>
      </trkpt>
      <trkpt lat="48.55765" lon="2.77046">
        <ele>89</ele>
        <time>2023-04-16T13:21:01.758Z</time>
      </trkpt>
      <trkpt lat="48.55768" lon="2.77049">
        <ele>89</ele>
        <time>2023-04-16T13:21:05.820Z</time>
      </trkpt>
      <trkpt lat="48.55771" lon="2.77052">
        <ele>89</ele>
        <time>2023-04-16T13:21:09.824Z</time>
      </trkpt>
      <trkpt lat="48.55772" lon="2.77055">
        <ele>89</ele>
        <time>2023-04-16T13:21:14.349Z</time>
      </trkpt>
      <trkpt lat="48.55781" lon="2.7706">
        <ele>89</ele>
        <time>2023-04-16T13:21:18.442Z</time>
      </trkpt>
      <trkpt lat="48.55787" lon="2.77066">
        <ele>89</ele>
        <time>2023-04-16T13:21:23.046Z</time>
      </trkpt>
      <trkpt lat="48.55792" lon="2.77069">
        <ele>91</ele>
        <time>2023-04-16T13:21:27.071Z</time>
      </trkpt>
      <trkpt lat="48.55798" lon="2.77074">
        <ele>91</ele>
        <time>2023-04-16T13:21:31.732Z</time>
      </trkpt>
      <trkpt lat="48.55802" lon="2.7708">
        <ele>91</ele>
        <time>2023-04-16T13:21:36.947Z</time>
      </trkpt>
      <trkpt lat="48.55805" lon="2.77087">
        <ele>91</ele>
        <time>2023-04-16T13:21:41.142Z</time>
      </trkpt>
      <trkpt lat="48.55809" lon="2.7709">
        <ele>91</ele>
        <time>2023-04-16T13:21:44.975Z</time>
      </trkpt>
      <trkpt lat="48.55815" lon="2.77095">
        <ele>91</ele>
        <time>2023-04-16T13:21:49.767Z</time>
      </trkpt>
      <trkpt lat="48.5582" lon="2.77098">
        <ele>90</ele>
        <time>2023-04-16T13:21:53.720Z</time>
      </trkpt>
      <trkpt lat="48.55825" lon="2.77103">
        <ele>90</ele>
        <time>2023-04-16T13:21:58.991Z</time>
      </trkpt>
      <trkpt lat="48.55828" lon="2.77106">
        <ele>90</ele>
        <time>2023-04-16T13:22:03.125Z</time>
      </trkpt>
      <trkpt lat="48.55832" lon="2.7711">
        <ele>90</ele>
        <time>2023-04-16T13:22:07.314Z</time>
      </trkpt>
      <trkpt lat="48.55835" lon="2.77115">
        <ele>90</ele>
        <time>2023-04-16T13:22:11.364Z</time>
      </trkpt>
      <trkpt lat="48.5584" lon="2.7712">
        <ele>90</ele>
        <time>2023-04-16T13:22:16.153Z</time>
      </trkpt>
      <trkpt lat="48.55843" lon="2.77124">
        <ele>90</ele>
        <time>2023-04-16T13:22:19.743Z</time>
      </trkpt>
      <trkpt lat="48.55847" lon="2.77129">
        <ele>89</ele>
        <time>2023-04-16T13:22:25.126Z</time>
      </trkpt>
      <trkpt lat="48.55852" lon="2.77133">
        <ele>89</ele>
        <time>2023-04-16T13:22:29.771Z</time>
      </trkpt>
      <trkpt lat="48.55857" lon="2.77137">
        <ele>89</ele>
        <time>2023-04-16T13:22:33.958Z</time>
      </trkpt>
      <trkpt lat="48.55862" lon="2.77138">
        <ele>89</ele>
        <time>2023-04-16T13:22:38.006Z</time>
      </trkpt>
      <trkpt lat="48.55865" lon="2.77143">
        <ele>89</ele>
        <time>2023-04-16T13:22:41.953Z</time>
      </trkpt>
      <trkpt lat="48.55869" lon="2.7715">
        <ele>89</ele>
        <time>2023-04-16T13:22:46.619Z</time>
      </trkpt>
      <trkpt lat="48.55872" lon="2.77153">
        <ele>89</ele>
        <time>2023-04-16T13:22:50.566Z</time>
      </trkpt>
      <trkpt lat="48.55878" lon="2.77158">
        <ele>89</ele>
        <time>2023-04-16T13:22:55.061Z</time>
      </trkpt>
      <trkpt lat="48.55879" lon="2.77163">
        <ele>89</ele>
        <time>2023-04-16T13:22:59.065Z</time>
      </trkpt>
      <trkpt lat="48.55881" lon="2.77167">
        <ele>89</ele>
        <time>2023-04-16T13:23:03.069Z</time>
      </trkpt>
      <trkpt lat="48.55886" lon="2.77171">
        <ele>89</ele>
        <time>2023-04-16T13:23:08.074Z</time>
      </trkpt>
      <trkpt lat="48.55888" lon="2.77177">
        <ele>89</ele>
        <time>2023-04-16T13:23:12.191Z</time>
      </trkpt>
      <trkpt lat="48.55895" lon="2.77184">
        <ele>89</ele>
        <time>2023-04-16T13:23:16.191Z</time>
      </trkpt>
      <trkpt lat="48.55899" lon="2.7719">
        <ele>89</ele>
        <time>2023-04-16T13:23:20.981Z</time>
      </trkpt>
      <trkpt lat="48.55902" lon="2.77196">
        <ele>89</ele>
        <time>2023-04-16T13:23:24.932Z</time>
      </trkpt>
      <trkpt lat="48.55905" lon="2.77202">
        <ele>90</ele>
        <time>2023-04-16T13:23:29.124Z</time>
      </trkpt>
      <trkpt lat="48.55909" lon="2.77209">
        <ele>89</ele>
        <time>2023-04-16T13:23:33.794Z</time>
      </trkpt>
      <trkpt lat="48.55912" lon="2.77217">
        <ele>89</ele>
        <time>2023-04-16T13:23:38.801Z</time>
      </trkpt>
      <trkpt lat="48.55912" lon="2.77221">
        <ele>89</ele>
        <time>2023-04-16T13:23:42.991Z</time>
      </trkpt>
      <trkpt lat="48.55918" lon="2.77228">
        <ele>89</ele>
        <time>2023-04-16T13:23:47.180Z</time>
      </trkpt>
      <trkpt lat="48.55922" lon="2.77236">
        <ele>89</ele>
        <time>2023-04-16T13:23:52.204Z</time>
      </trkpt>
      <trkpt lat="48.55924" lon="2.77242">
        <ele>89</ele>
        <time>2023-04-16T13:23:56.153Z</time>
      </trkpt>
      <trkpt lat="48.55927" lon="2.77246">
        <ele>89</ele>
        <time>2023-04-16T13:24:00.819Z</time>
      </trkpt>
      <trkpt lat="48.55931" lon="2.77249">
        <ele>90</ele>
        <time>2023-04-16T13:24:05.418Z</time>
      </trkpt>
      <trkpt lat="48.55934" lon="2.77256">
        <ele>90</ele>
        <time>2023-04-16T13:24:09.552Z</time>
      </trkpt>
      <trkpt lat="48.55937" lon="2.77264">
        <ele>90</ele>
        <time>2023-04-16T13:24:14.119Z</time>
      </trkpt>
      <trkpt lat="48.5594" lon="2.77269">
        <ele>90</ele>
        <time>2023-04-16T13:24:18.187Z</time>
      </trkpt>
      <trkpt lat="48.55943" lon="2.77273">
        <ele>90</ele>
        <time>2023-04-16T13:24:22.374Z</time>
      </trkpt>
      <trkpt lat="48.55946" lon="2.7728">
        <ele>90</ele>
        <time>2023-04-16T13:24:26.418Z</time>
      </trkpt>
      <trkpt lat="48.55948" lon="2.77284">
        <ele>90</ele>
        <time>2023-04-16T13:24:29.313Z</time>
      </trkpt>
      <trkpt lat="48.55954" lon="2.77294">
        <ele>89</ele>
        <time>2023-04-16T13:24:36.853Z</time>
      </trkpt>
      <trkpt lat="48.55957" lon="2.77294">
        <ele>89</ele>
        <time>2023-04-16T13:24:40.860Z</time>
      </trkpt>
      <trkpt lat="48.5596" lon="2.77298">
        <ele>90</ele>
        <time>2023-04-16T13:24:45.370Z</time>
      </trkpt>
      <trkpt lat="48.55962" lon="2.77307">
        <ele>90</ele>
        <time>2023-04-16T13:24:49.375Z</time>
      </trkpt>
      <trkpt lat="48.55963" lon="2.77315">
        <ele>90</ele>
        <time>2023-04-16T13:24:53.955Z</time>
      </trkpt>
      <trkpt lat="48.55969" lon="2.7732">
        <ele>90</ele>
        <time>2023-04-16T13:24:57.948Z</time>
      </trkpt>
      <trkpt lat="48.55975" lon="2.77328">
        <ele>90</ele>
        <time>2023-04-16T13:25:02.741Z</time>
      </trkpt>
      <trkpt lat="48.55978" lon="2.77335">
        <ele>90</ele>
        <time>2023-04-16T13:25:07.289Z</time>
      </trkpt>
      <trkpt lat="48.5598" lon="2.77342">
        <ele>90</ele>
        <time>2023-04-16T13:25:11.967Z</time>
      </trkpt>
      <trkpt lat="48.55985" lon="2.77349">
        <ele>90</ele>
        <time>2023-04-16T13:25:16.600Z</time>
      </trkpt>
      <trkpt lat="48.55989" lon="2.77356">
        <ele>90</ele>
        <time>2023-04-16T13:25:21.151Z</time>
      </trkpt>
      <trkpt lat="48.55992" lon="2.77365">
        <ele>90</ele>
        <time>2023-04-16T13:25:25.882Z</time>
      </trkpt>
      <trkpt lat="48.55996" lon="2.7737">
        <ele>90</ele>
        <time>2023-04-16T13:25:30.014Z</time>
      </trkpt>
      <trkpt lat="48.56002" lon="2.77375">
        <ele>91</ele>
        <time>2023-04-16T13:25:34.804Z</time>
      </trkpt>
      <trkpt lat="48.56006" lon="2.77381">
        <ele>91</ele>
        <time>2023-04-16T13:25:38.754Z</time>
      </trkpt>
      <trkpt lat="48.56008" lon="2.7739">
        <ele>91</ele>
        <time>2023-04-16T13:25:43.544Z</time>
      </trkpt>
      <trkpt lat="48.56013" lon="2.77397">
        <ele>91</ele>
        <time>2023-04-16T13:25:47.971Z</time>
      </trkpt>
      <trkpt lat="48.56017" lon="2.77403">
        <ele>90</ele>
        <time>2023-04-16T13:25:52.349Z</time>
      </trkpt>
      <trkpt lat="48.56018" lon="2.7741">
        <ele>90</ele>
        <time>2023-04-16T13:25:56.344Z</time>
      </trkpt>
      <trkpt lat="48.5602" lon="2.77418">
        <ele>90</ele>
        <time>2023-04-16T13:26:01.053Z</time>
      </trkpt>
      <trkpt lat="48.56024" lon="2.77424">
        <ele>90</ele>
        <time>2023-04-16T13:26:05.196Z</time>
      </trkpt>
      <trkpt lat="48.56027" lon="2.7743">
        <ele>90</ele>
        <time>2023-04-16T13:26:09.213Z</time>
      </trkpt>
      <trkpt lat="48.56029" lon="2.77432">
        <ele>89</ele>
        <time>2023-04-16T13:26:10.939Z</time>
      </trkpt>
      <trkpt lat="48.56035" lon="2.77435">
        <ele>89</ele>
        <time>2023-04-16T13:26:17.819Z</time>
      </trkpt>
      <trkpt lat="48.56037" lon="2.77442">
        <ele>89</ele>
        <time>2023-04-16T13:26:22.322Z</time>
      </trkpt>
      <trkpt lat="48.56039" lon="2.7745">
        <ele>89</ele>
        <time>2023-04-16T13:26:26.418Z</time>
      </trkpt>
      <trkpt lat="48.56045" lon="2.77459">
        <ele>89</ele>
        <time>2023-04-16T13:26:31.225Z</time>
      </trkpt>
      <trkpt lat="48.56051" lon="2.77464">
        <ele>89</ele>
        <time>2023-04-16T13:26:35.889Z</time>
      </trkpt>
      <trkpt lat="48.56053" lon="2.77471">
        <ele>89</ele>
        <time>2023-04-16T13:26:40.185Z</time>
      </trkpt>
      <trkpt lat="48.56056" lon="2.77473">
        <ele>89</ele>
        <time>2023-04-16T13:26:43.928Z</time>
      </trkpt>
      <trkpt lat="48.56059" lon="2.77477">
        <ele>89</ele>
        <time>2023-04-16T13:26:48.329Z</time>
      </trkpt>
      <trkpt lat="48.56064" lon="2.77482">
        <ele>89</ele>
        <time>2023-04-16T13:26:53.031Z</time>
      </trkpt>
      <trkpt lat="48.56067" lon="2.77488">
        <ele>88</ele>
        <time>2023-04-16T13:26:57.172Z</time>
      </trkpt>
      <trkpt lat="48.56069" lon="2.77495">
        <ele>88</ele>
        <time>2023-04-16T13:27:01.393Z</time>
      </trkpt>
      <trkpt lat="48.56073" lon="2.77503">
        <ele>88</ele>
        <time>2023-04-16T13:27:06.134Z</time>
      </trkpt>
      <trkpt lat="48.56077" lon="2.77508">
        <ele>88</ele>
        <time>2023-04-16T13:27:10.796Z</time>
      </trkpt>
      <trkpt lat="48.56082" lon="2.77513">
        <ele>88</ele>
        <time>2023-04-16T13:27:15.457Z</time>
      </trkpt>
      <trkpt lat="48.56086" lon="2.7752">
        <ele>88</ele>
        <time>2023-04-16T13:27:19.677Z</time>
      </trkpt>
      <trkpt lat="48.56089" lon="2.77526">
        <ele>88</ele>
        <time>2023-04-16T13:27:24.017Z</time>
      </trkpt>
      <trkpt lat="48.56093" lon="2.77533">
        <ele>88</ele>
        <time>2023-04-16T13:27:29.019Z</time>
      </trkpt>
      <trkpt lat="48.56098" lon="2.77538">
        <ele>88</ele>
        <time>2023-04-16T13:27:33.524Z</time>
      </trkpt>
      <trkpt lat="48.56103" lon="2.77546">
        <ele>88</ele>
        <time>2023-04-16T13:27:37.531Z</time>
      </trkpt>
      <trkpt lat="48.56106" lon="2.77551">
        <ele>88</ele>
        <time>2023-04-16T13:27:42.043Z</time>
      </trkpt>
      <trkpt lat="48.5611" lon="2.77557">
        <ele>88</ele>
        <time>2023-04-16T13:27:46.553Z</time>
      </trkpt>
      <trkpt lat="48.56112" lon="2.77561">
        <ele>88</ele>
        <time>2023-04-16T13:27:48.720Z</time>
      </trkpt>
      <trkpt lat="48.56117" lon="2.77566">
        <ele>88</ele>
        <time>2023-04-16T13:27:54.791Z</time>
      </trkpt>
      <trkpt lat="48.5612" lon="2.77573">
        <ele>87</ele>
        <time>2023-04-16T13:27:58.798Z</time>
      </trkpt>
      <trkpt lat="48.56123" lon="2.7758">
        <ele>87</ele>
        <time>2023-04-16T13:28:03.138Z</time>
      </trkpt>
      <trkpt lat="48.56127" lon="2.77585">
        <ele>87</ele>
        <time>2023-04-16T13:28:07.276Z</time>
      </trkpt>
      <trkpt lat="48.56131" lon="2.7759">
        <ele>87</ele>
        <time>2023-04-16T13:28:11.418Z</time>
      </trkpt>
      <trkpt lat="48.56136" lon="2.77594">
        <ele>87</ele>
        <time>2023-04-16T13:28:16.154Z</time>
      </trkpt>
      <trkpt lat="48.56139" lon="2.77602">
        <ele>87</ele>
        <time>2023-04-16T13:28:20.350Z</time>
      </trkpt>
      <trkpt lat="48.56144" lon="2.77608">
        <ele>87</ele>
        <time>2023-04-16T13:28:25.107Z</time>
      </trkpt>
      <trkpt lat="48.56149" lon="2.77616">
        <ele>87</ele>
        <time>2023-04-16T13:28:30.127Z</time>
      </trkpt>
      <trkpt lat="48.56152" lon="2.77623">
        <ele>87</ele>
        <time>2023-04-16T13:28:34.922Z</time>
      </trkpt>
      <trkpt lat="48.56156" lon="2.77629">
        <ele>88</ele>
        <time>2023-04-16T13:28:39.593Z</time>
      </trkpt>
      <trkpt lat="48.56162" lon="2.77632">
        <ele>88</ele>
        <time>2023-04-16T13:28:44.026Z</time>
      </trkpt>
      <trkpt lat="48.56166" lon="2.7763">
        <ele>88</ele>
        <time>2023-04-16T13:28:49.006Z</time>
      </trkpt>
      <trkpt lat="48.5617" lon="2.77638">
        <ele>88</ele>
        <time>2023-04-16T13:28:53.010Z</time>
      </trkpt>
      <trkpt lat="48.56175" lon="2.77648">
        <ele>88</ele>
        <time>2023-04-16T13:28:57.747Z</time>
      </trkpt>
      <trkpt lat="48.56176" lon="2.77649">
        <ele>88</ele>
        <time>2023-04-16T13:28:58.926Z</time>
      </trkpt>
      <trkpt lat="48.56185" lon="2.77662">
        <ele>87</ele>
        <time>2023-04-16T13:29:07.545Z</time>
      </trkpt>
      <trkpt lat="48.5619" lon="2.7767">
        <ele>87</ele>
        <time>2023-04-16T13:29:12.053Z</time>
      </trkpt>
      <trkpt lat="48.56194" lon="2.77671">
        <ele>87</ele>
        <time>2023-04-16T13:29:17.069Z</time>
      </trkpt>
      <trkpt lat="48.56198" lon="2.77674">
        <ele>87</ele>
        <time>2023-04-16T13:29:21.685Z</time>
      </trkpt>
      <trkpt lat="48.56202" lon="2.77677">
        <ele>87</ele>
        <time>2023-04-16T13:29:25.792Z</time>
      </trkpt>
      <trkpt lat="48.56208" lon="2.77684">
        <ele>88</ele>
        <time>2023-04-16T13:29:30.418Z</time>
      </trkpt>
      <trkpt lat="48.56212" lon="2.77693">
        <ele>88</ele>
        <time>2023-04-16T13:29:34.952Z</time>
      </trkpt>
      <trkpt lat="48.56216" lon="2.77693">
        <ele>88</ele>
        <time>2023-04-16T13:29:39.418Z</time>
      </trkpt>
      <trkpt lat="48.56221" lon="2.77696">
        <ele>88</ele>
        <time>2023-04-16T13:29:43.566Z</time>
      </trkpt>
      <trkpt lat="48.56227" lon="2.77701">
        <ele>88</ele>
        <time>2023-04-16T13:29:47.761Z</time>
      </trkpt>
      <trkpt lat="48.5623" lon="2.77707">
        <ele>88</ele>
        <time>2023-04-16T13:29:52.222Z</time>
      </trkpt>
      <trkpt lat="48.56234" lon="2.77711">
        <ele>88</ele>
        <time>2023-04-16T13:29:56.386Z</time>
      </trkpt>
      <trkpt lat="48.56238" lon="2.77715">
        <ele>88</ele>
        <time>2023-04-16T13:30:00.580Z</time>
      </trkpt>
      <trkpt lat="48.56243" lon="2.77722">
        <ele>88</ele>
        <time>2023-04-16T13:30:05.211Z</time>
      </trkpt>
      <trkpt lat="48.56247" lon="2.77727">
        <ele>88</ele>
        <time>2023-04-16T13:30:09.665Z</time>
      </trkpt>
      <trkpt lat="48.56252" lon="2.7773">
        <ele>88</ele>
        <time>2023-04-16T13:30:14.182Z</time>
      </trkpt>
      <trkpt lat="48.56257" lon="2.77734">
        <ele>88</ele>
        <time>2023-04-16T13:30:18.353Z</time>
      </trkpt>
      <trkpt lat="48.56262" lon="2.77739">
        <ele>88</ele>
        <time>2023-04-16T13:30:22.949Z</time>
      </trkpt>
      <trkpt lat="48.56266" lon="2.77745">
        <ele>88</ele>
        <time>2023-04-16T13:30:26.725Z</time>
      </trkpt>
      <trkpt lat="48.56271" lon="2.77751">
        <ele>88</ele>
        <time>2023-04-16T13:30:30.800Z</time>
      </trkpt>
      <trkpt lat="48.56275" lon="2.77758">
        <ele>88</ele>
        <time>2023-04-16T13:30:35.951Z</time>
      </trkpt>
      <trkpt lat="48.56279" lon="2.77764">
        <ele>88</ele>
        <time>2023-04-16T13:30:40.357Z</time>
      </trkpt>
      <trkpt lat="48.56283" lon="2.77771">
        <ele>88</ele>
        <time>2023-04-16T13:30:44.374Z</time>
      </trkpt>
      <trkpt lat="48.56287" lon="2.77777">
        <ele>88</ele>
        <time>2023-04-16T13:30:49.201Z</time>
      </trkpt>
      <trkpt lat="48.56291" lon="2.7778">
        <ele>88</ele>
        <time>2023-04-16T13:30:53.214Z</time>
      </trkpt>
      <trkpt lat="48.56292" lon="2.77786">
        <ele>88</ele>
        <time>2023-04-16T13:30:57.392Z</time>
      </trkpt>
      <trkpt lat="48.56298" lon="2.77792">
        <ele>88</ele>
        <time>2023-04-16T13:31:01.854Z</time>
      </trkpt>
      <trkpt lat="48.56302" lon="2.77799">
        <ele>88</ele>
        <time>2023-04-16T13:31:06.856Z</time>
      </trkpt>
      <trkpt lat="48.56307" lon="2.77807">
        <ele>88</ele>
        <time>2023-04-16T13:31:11.762Z</time>
      </trkpt>
      <trkpt lat="48.56311" lon="2.77814">
        <ele>88</ele>
        <time>2023-04-16T13:31:16.786Z</time>
      </trkpt>
      <trkpt lat="48.56314" lon="2.7782">
        <ele>88</ele>
        <time>2023-04-16T13:31:20.973Z</time>
      </trkpt>
      <trkpt lat="48.56317" lon="2.77826">
        <ele>88</ele>
        <time>2023-04-16T13:31:25.640Z</time>
      </trkpt>
      <trkpt lat="48.56322" lon="2.77829">
        <ele>88</ele>
        <time>2023-04-16T13:31:29.708Z</time>
      </trkpt>
      <trkpt lat="48.56326" lon="2.77836">
        <ele>88</ele>
        <time>2023-04-16T13:31:34.135Z</time>
      </trkpt>
      <trkpt lat="48.56329" lon="2.77843">
        <ele>88</ele>
        <time>2023-04-16T13:31:38.202Z</time>
      </trkpt>
      <trkpt lat="48.56332" lon="2.77848">
        <ele>89</ele>
        <time>2023-04-16T13:31:42.730Z</time>
      </trkpt>
      <trkpt lat="48.56335" lon="2.77853">
        <ele>89</ele>
        <time>2023-04-16T13:31:47.399Z</time>
      </trkpt>
      <trkpt lat="48.56339" lon="2.7786">
        <ele>89</ele>
        <time>2023-04-16T13:31:51.946Z</time>
      </trkpt>
      <trkpt lat="48.56341" lon="2.77868">
        <ele>89</ele>
        <time>2023-04-16T13:31:56.374Z</time>
      </trkpt>
      <trkpt lat="48.56345" lon="2.77874">
        <ele>89</ele>
        <time>2023-04-16T13:32:00.922Z</time>
      </trkpt>
      <trkpt lat="48.56348" lon="2.7788">
        <ele>88</ele>
        <time>2023-04-16T13:32:04.870Z</time>
      </trkpt>
      <trkpt lat="48.56351" lon="2.77885">
        <ele>88</ele>
        <time>2023-04-16T13:32:09.211Z</time>
      </trkpt>
      <trkpt lat="48.56355" lon="2.77892">
        <ele>88</ele>
        <time>2023-04-16T13:32:13.367Z</time>
      </trkpt>
      <trkpt lat="48.5636" lon="2.77897">
        <ele>88</ele>
        <time>2023-04-16T13:32:17.559Z</time>
      </trkpt>
      <trkpt lat="48.56364" lon="2.77903">
        <ele>88</ele>
        <time>2023-04-16T13:32:21.750Z</time>
      </trkpt>
      <trkpt lat="48.56368" lon="2.7791">
        <ele>88</ele>
        <time>2023-04-16T13:32:27.119Z</time>
      </trkpt>
      <trkpt lat="48.5637" lon="2.77915">
        <ele>88</ele>
        <time>2023-04-16T13:32:31.192Z</time>
      </trkpt>
      <trkpt lat="48.56372" lon="2.77921">
        <ele>88</ele>
        <time>2023-04-16T13:32:35.228Z</time>
      </trkpt>
      <trkpt lat="48.56373" lon="2.77929">
        <ele>88</ele>
        <time>2023-04-16T13:32:39.731Z</time>
      </trkpt>
      <trkpt lat="48.56377" lon="2.77935">
        <ele>86</ele>
        <time>2023-04-16T13:32:43.756Z</time>
      </trkpt>
      <trkpt lat="48.56381" lon="2.77943">
        <ele>86</ele>
        <time>2023-04-16T13:32:49.021Z</time>
      </trkpt>
      <trkpt lat="48.56385" lon="2.77948">
        <ele>86</ele>
        <time>2023-04-16T13:32:53.210Z</time>
      </trkpt>
      <trkpt lat="48.56389" lon="2.77954">
        <ele>86</ele>
        <time>2023-04-16T13:32:57.280Z</time>
      </trkpt>
      <trkpt lat="48.56391" lon="2.77959">
        <ele>87</ele>
        <time>2023-04-16T13:33:01.352Z</time>
      </trkpt>
      <trkpt lat="48.56394" lon="2.77965">
        <ele>87</ele>
        <time>2023-04-16T13:33:05.901Z</time>
      </trkpt>
      <trkpt lat="48.56398" lon="2.77973">
        <ele>87</ele>
        <time>2023-04-16T13:33:11.169Z</time>
      </trkpt>
      <trkpt lat="48.56403" lon="2.7798">
        <ele>87</ele>
        <time>2023-04-16T13:33:15.928Z</time>
      </trkpt>
      <trkpt lat="48.56404" lon="2.77985">
        <ele>87</ele>
        <time>2023-04-16T13:33:19.848Z</time>
      </trkpt>
      <trkpt lat="48.56411" lon="2.7799">
        <ele>87</ele>
        <time>2023-04-16T13:39:21.777Z</time>
      </trkpt>
      <trkpt lat="48.56415" lon="2.77995">
        <ele>87</ele>
        <time>2023-04-16T13:39:26.326Z</time>
      </trkpt>
      <trkpt lat="48.5642" lon="2.77998">
        <ele>87</ele>
        <time>2023-04-16T13:39:30.418Z</time>
      </trkpt>
      <trkpt lat="48.56426" lon="2.78001">
        <ele>87</ele>
        <time>2023-04-16T13:39:34.587Z</time>
      </trkpt>
      <trkpt lat="48.5643" lon="2.78">
        <ele>87</ele>
        <time>2023-04-16T13:39:38.759Z</time>
      </trkpt>
      <trkpt lat="48.56431" lon="2.77998">
        <ele>86</ele>
        <time>2023-04-16T13:39:42.951Z</time>
      </trkpt>
      <trkpt lat="48.56435" lon="2.78002">
        <ele>86</ele>
        <time>2023-04-16T13:39:47.741Z</time>
      </trkpt>
      <trkpt lat="48.56438" lon="2.78004">
        <ele>86</ele>
        <time>2023-04-16T13:39:52.459Z</time>
      </trkpt>
      <trkpt lat="48.56441" lon="2.78003">
        <ele>86</ele>
        <time>2023-04-16T13:39:56.486Z</time>
      </trkpt>
      <trkpt lat="48.56447" lon="2.78">
        <ele>86</ele>
        <time>2023-04-16T13:40:00.918Z</time>
      </trkpt>
      <trkpt lat="48.56452" lon="2.77997">
        <ele>86</ele>
        <time>2023-04-16T13:40:04.988Z</time>
      </trkpt>
      <trkpt lat="48.56459" lon="2.77997">
        <ele>86</ele>
        <time>2023-04-16T13:40:09.740Z</time>
      </trkpt>
      <trkpt lat="48.56465" lon="2.77996">
        <ele>86</ele>
        <time>2023-04-16T13:40:15.127Z</time>
      </trkpt>
      <trkpt lat="48.5647" lon="2.77996">
        <ele>86</ele>
        <time>2023-04-16T13:40:20.201Z</time>
      </trkpt>
      <trkpt lat="48.56476" lon="2.77996">
        <ele>86</ele>
        <time>2023-04-16T13:40:24.786Z</time>
      </trkpt>
      <trkpt lat="48.5648" lon="2.77993">
        <ele>86</ele>
        <time>2023-04-16T13:40:28.977Z</time>
      </trkpt>
      <trkpt lat="48.56482" lon="2.7799">
        <ele>86</ele>
        <time>2023-04-16T13:40:34.126Z</time>
      </trkpt>
      <trkpt lat="48.56485" lon="2.77991">
        <ele>86</ele>
        <time>2023-04-16T13:40:38.797Z</time>
      </trkpt>
      <trkpt lat="48.56488" lon="2.77989">
        <ele>86</ele>
        <time>2023-04-16T13:40:43.573Z</time>
      </trkpt>
      <trkpt lat="48.56492" lon="2.77986">
        <ele>86</ele>
        <time>2023-04-16T13:40:48.124Z</time>
      </trkpt>
      <trkpt lat="48.56497" lon="2.77986">
        <ele>85</ele>
        <time>2023-04-16T13:40:52.194Z</time>
      </trkpt>
      <trkpt lat="48.56503" lon="2.77986">
        <ele>86</ele>
        <time>2023-04-16T13:40:56.928Z</time>
      </trkpt>
      <trkpt lat="48.56508" lon="2.77986">
        <ele>86</ele>
        <time>2023-04-16T13:41:01.136Z</time>
      </trkpt>
      <trkpt lat="48.56512" lon="2.77982">
        <ele>85</ele>
        <time>2023-04-16T13:41:05.268Z</time>
      </trkpt>
      <trkpt lat="48.56517" lon="2.77979">
        <ele>85</ele>
        <time>2023-04-16T13:41:09.356Z</time>
      </trkpt>
      <trkpt lat="48.56522" lon="2.77977">
        <ele>85</ele>
        <time>2023-04-16T13:41:13.545Z</time>
      </trkpt>
      <trkpt lat="48.56526" lon="2.77977">
        <ele>85</ele>
        <time>2023-04-16T13:41:17.716Z</time>
      </trkpt>
      <trkpt lat="48.56531" lon="2.77977">
        <ele>85</ele>
        <time>2023-04-16T13:41:22.890Z</time>
      </trkpt>
      <trkpt lat="48.56536" lon="2.77975">
        <ele>85</ele>
        <time>2023-04-16T13:41:26.942Z</time>
      </trkpt>
      <trkpt lat="48.56541" lon="2.77972">
        <ele>85</ele>
        <time>2023-04-16T13:41:31.134Z</time>
      </trkpt>
      <trkpt lat="48.56546" lon="2.77968">
        <ele>84</ele>
        <time>2023-04-16T13:41:36.206Z</time>
      </trkpt>
      <trkpt lat="48.5655" lon="2.77966">
        <ele>84</ele>
        <time>2023-04-16T13:41:40.207Z</time>
      </trkpt>
      <trkpt lat="48.56554" lon="2.77961">
        <ele>84</ele>
        <time>2023-04-16T13:41:44.145Z</time>
      </trkpt>
      <trkpt lat="48.5656" lon="2.7796">
        <ele>84</ele>
        <time>2023-04-16T13:41:48.814Z</time>
      </trkpt>
      <trkpt lat="48.56565" lon="2.77958">
        <ele>84</ele>
        <time>2023-04-16T13:41:53.005Z</time>
      </trkpt>
      <trkpt lat="48.5657" lon="2.77956">
        <ele>84</ele>
        <time>2023-04-16T13:41:57.794Z</time>
      </trkpt>
      <trkpt lat="48.56576" lon="2.77956">
        <ele>84</ele>
        <time>2023-04-16T13:42:02.940Z</time>
      </trkpt>
      <trkpt lat="48.56583" lon="2.77955">
        <ele>84</ele>
        <time>2023-04-16T13:42:07.729Z</time>
      </trkpt>
      <trkpt lat="48.56587" lon="2.77952">
        <ele>84</ele>
        <time>2023-04-16T13:42:12.979Z</time>
      </trkpt>
      <trkpt lat="48.56592" lon="2.77951">
        <ele>84</ele>
        <time>2023-04-16T13:42:17.769Z</time>
      </trkpt>
      <trkpt lat="48.56598" lon="2.77952">
        <ele>83</ele>
        <time>2023-04-16T13:42:23.037Z</time>
      </trkpt>
      <trkpt lat="48.56605" lon="2.77952">
        <ele>83</ele>
        <time>2023-04-16T13:42:28.067Z</time>
      </trkpt>
      <trkpt lat="48.56609" lon="2.77953">
        <ele>83</ele>
        <time>2023-04-16T13:42:32.017Z</time>
      </trkpt>
      <trkpt lat="48.56613" lon="2.77953">
        <ele>83</ele>
        <time>2023-04-16T13:42:36.803Z</time>
      </trkpt>
      <trkpt lat="48.56618" lon="2.77954">
        <ele>83</ele>
        <time>2023-04-16T13:42:41.589Z</time>
      </trkpt>
      <trkpt lat="48.56623" lon="2.77955">
        <ele>83</ele>
        <time>2023-04-16T13:42:44.940Z</time>
      </trkpt>
      <trkpt lat="48.56629" lon="2.77954">
        <ele>83</ele>
        <time>2023-04-16T13:42:53.088Z</time>
      </trkpt>
      <trkpt lat="48.56634" lon="2.77955">
        <ele>83</ele>
        <time>2023-04-16T13:42:57.172Z</time>
      </trkpt>
      <trkpt lat="48.56641" lon="2.77956">
        <ele>83</ele>
        <time>2023-04-16T13:43:01.810Z</time>
      </trkpt>
      <trkpt lat="48.56648" lon="2.77956">
        <ele>83</ele>
        <time>2023-04-16T13:43:05.902Z</time>
      </trkpt>
      <trkpt lat="48.56656" lon="2.77956">
        <ele>82</ele>
        <time>2023-04-16T13:43:09.914Z</time>
      </trkpt>
      <trkpt lat="48.56661" lon="2.77956">
        <ele>82</ele>
        <time>2023-04-16T13:43:14.114Z</time>
      </trkpt>
      <trkpt lat="48.56666" lon="2.77959">
        <ele>84</ele>
        <time>2023-04-16T13:43:18.752Z</time>
      </trkpt>
      <trkpt lat="48.56672" lon="2.77961">
        <ele>84</ele>
        <time>2023-04-16T13:43:24.147Z</time>
      </trkpt>
      <trkpt lat="48.56676" lon="2.77966">
        <ele>84</ele>
        <time>2023-04-16T13:43:28.187Z</time>
      </trkpt>
      <trkpt lat="48.56678" lon="2.77973">
        <ele>84</ele>
        <time>2023-04-16T13:43:32.117Z</time>
      </trkpt>
      <trkpt lat="48.56681" lon="2.77979">
        <ele>83</ele>
        <time>2023-04-16T13:43:36.790Z</time>
      </trkpt>
      <trkpt lat="48.56684" lon="2.77983">
        <ele>83</ele>
        <time>2023-04-16T13:43:40.984Z</time>
      </trkpt>
      <trkpt lat="48.56686" lon="2.7799">
        <ele>85</ele>
        <time>2023-04-16T13:43:45.655Z</time>
      </trkpt>
      <trkpt lat="48.56689" lon="2.77997">
        <ele>85</ele>
        <time>2023-04-16T13:43:49.726Z</time>
      </trkpt>
      <trkpt lat="48.56693" lon="2.78004">
        <ele>85</ele>
        <time>2023-04-16T13:43:54.994Z</time>
      </trkpt>
      <trkpt lat="48.56697" lon="2.78011">
        <ele>85</ele>
        <time>2023-04-16T13:43:59.745Z</time>
      </trkpt>
      <trkpt lat="48.56701" lon="2.78017">
        <ele>86</ele>
        <time>2023-04-16T13:44:04.396Z</time>
      </trkpt>
      <trkpt lat="48.56707" lon="2.78021">
        <ele>86</ele>
        <time>2023-04-16T13:44:09.167Z</time>
      </trkpt>
      <trkpt lat="48.56712" lon="2.78026">
        <ele>84</ele>
        <time>2023-04-16T13:44:13.956Z</time>
      </trkpt>
      <trkpt lat="48.56715" lon="2.78039">
        <ele>84</ele>
        <time>2023-04-16T13:44:32.814Z</time>
      </trkpt>
      <trkpt lat="48.56717" lon="2.78043">
        <ele>85</ele>
        <time>2023-04-16T13:44:36.819Z</time>
      </trkpt>
      <trkpt lat="48.5672" lon="2.78049">
        <ele>85</ele>
        <time>2023-04-16T13:44:41.826Z</time>
      </trkpt>
      <trkpt lat="48.56721" lon="2.78053">
        <ele>85</ele>
        <time>2023-04-16T13:44:45.831Z</time>
      </trkpt>
      <trkpt lat="48.56722" lon="2.78054">
        <ele>85</ele>
        <time>2023-04-16T13:44:50.338Z</time>
      </trkpt>
    </trkseg>
  </trk>
</gpx>